<?xml version='1.0' encoding='UTF-8'?><gpx version="1.1" creator="JPX - https://github.com/jenetics/jpx" xmlns="http://www.topografix.com/GPX/1/1"><trk><trkseg><trkpt lat="41.942861" lon="2.2484994"><ele>479.0</ele><time>2026-04-25T07:30:47.091Z</time></trkpt><trkpt lat="41.9428455" lon="2.2486196"><ele>479.0</ele><time>2026-04-25T07:30:49.09Z</time></trkpt><trkpt lat="41.9429026" lon="2.2487018"><ele>479.0</ele><time>2026-04-25T07:30:51.09Z</time></trkpt><trkpt lat="41.942987" lon="2.248735"><ele>479.0</ele><time>2026-04-25T07:30:52.09Z</time></trkpt><trkpt lat="41.9431125" lon="2.2487522"><ele>479.0</ele><time>2026-04-25T07:30:53.089Z</time></trkpt><trkpt lat="41.9432721" lon="2.248769"><ele>478.66666666666663</ele><time>2026-04-25T07:30:54.091Z</time></trkpt><trkpt lat="41.9434455" lon="2.2488101"><ele>478.33333333333337</ele><time>2026-04-25T07:30:55.089Z</time></trkpt><trkpt lat="41.9436082" lon="2.2488591"><ele>478.0</ele><time>2026-04-25T07:30:56.09Z</time></trkpt><trkpt lat="41.9437546" lon="2.2488977"><ele>478.0</ele><time>2026-04-25T07:30:57.09Z</time></trkpt><trkpt lat="41.9438916" lon="2.2489338"><ele>478.0</ele><time>2026-04-25T07:30:58.09Z</time></trkpt><trkpt lat="41.9440208" lon="2.2489704"><ele>478.0</ele><time>2026-04-25T07:30:59.09Z</time></trkpt><trkpt lat="41.9441378" lon="2.249006"><ele>478.0</ele><time>2026-04-25T07:31:00.09Z</time></trkpt><trkpt lat="41.9442387" lon="2.2490375"><ele>478.0</ele><time>2026-04-25T07:31:01.09Z</time></trkpt><trkpt lat="41.9443476" lon="2.2490722"><ele>478.0</ele><time>2026-04-25T07:31:02.091Z</time></trkpt><trkpt lat="41.9444717" lon="2.2491108"><ele>478.0</ele><time>2026-04-25T07:31:03.09Z</time></trkpt><trkpt lat="41.9446054" lon="2.2491515"><ele>478.0</ele><time>2026-04-25T07:31:04.089Z</time></trkpt><trkpt lat="41.944743" lon="2.2491957"><ele>478.0</ele><time>2026-04-25T07:31:05.09Z</time></trkpt><trkpt lat="41.9448828" lon="2.2492448"><ele>478.0</ele><time>2026-04-25T07:31:06.09Z</time></trkpt><trkpt lat="41.9450229" lon="2.2492876"><ele>478.0</ele><time>2026-04-25T07:31:07.09Z</time></trkpt><trkpt lat="41.945152" lon="2.249324"><ele>478.0</ele><time>2026-04-25T07:31:08.09Z</time></trkpt><trkpt lat="41.9452695" lon="2.2493586"><ele>478.2</ele><time>2026-04-25T07:31:09.09Z</time></trkpt><trkpt lat="41.9453716" lon="2.2493946"><ele>478.4</ele><time>2026-04-25T07:31:10.09Z</time></trkpt><trkpt lat="41.9454572" lon="2.2494351"><ele>478.59999999999997</ele><time>2026-04-25T07:31:11.089Z</time></trkpt><trkpt lat="41.9455323" lon="2.2494906"><ele>478.79999999999995</ele><time>2026-04-25T07:31:12.09Z</time></trkpt><trkpt lat="41.9455974" lon="2.2495714"><ele>479.0</ele><time>2026-04-25T07:31:13.091Z</time></trkpt><trkpt lat="41.9456518" lon="2.2496758"><ele>478.4</ele><time>2026-04-25T07:31:14.09Z</time></trkpt><trkpt lat="41.9456975" lon="2.2497984"><ele>477.79999999999995</ele><time>2026-04-25T07:31:15.09Z</time></trkpt><trkpt lat="41.9457261" lon="2.2499363"><ele>477.20000000000005</ele><time>2026-04-25T07:31:16.089Z</time></trkpt><trkpt lat="41.9457325" lon="2.2500832"><ele>476.6</ele><time>2026-04-25T07:31:17.089Z</time></trkpt><trkpt lat="41.9457138" lon="2.2502375"><ele>476.0</ele><time>2026-04-25T07:31:18.09Z</time></trkpt><trkpt lat="41.9456838" lon="2.2503968"><ele>476.0</ele><time>2026-04-25T07:31:19.09Z</time></trkpt><trkpt lat="41.9456571" lon="2.2505564"><ele>476.0</ele><time>2026-04-25T07:31:20.089Z</time></trkpt><trkpt lat="41.9456363" lon="2.2507229"><ele>476.0</ele><time>2026-04-25T07:31:21.09Z</time></trkpt><trkpt lat="41.945618" lon="2.250892"><ele>476.0</ele><time>2026-04-25T07:31:22.089Z</time></trkpt><trkpt lat="41.9455957" lon="2.2510548"><ele>476.0</ele><time>2026-04-25T07:31:23.09Z</time></trkpt><trkpt lat="41.9455768" lon="2.251218"><ele>476.0</ele><time>2026-04-25T07:31:24.09Z</time></trkpt><trkpt lat="41.9455742" lon="2.2513863"><ele>476.0</ele><time>2026-04-25T07:31:25.09Z</time></trkpt><trkpt lat="41.9455838" lon="2.251556"><ele>476.0</ele><time>2026-04-25T07:31:26.089Z</time></trkpt><trkpt lat="41.9456021" lon="2.2517294"><ele>476.0</ele><time>2026-04-25T07:31:27.09Z</time></trkpt><trkpt lat="41.945622" lon="2.2518957"><ele>476.0</ele><time>2026-04-25T07:31:28.09Z</time></trkpt><trkpt lat="41.9456396" lon="2.2520441"><ele>476.0</ele><time>2026-04-25T07:31:29.09Z</time></trkpt><trkpt lat="41.9456512" lon="2.2521799"><ele>476.0</ele><time>2026-04-25T07:31:30.09Z</time></trkpt><trkpt lat="41.9456577" lon="2.2523097"><ele>476.0</ele><time>2026-04-25T07:31:31.091Z</time></trkpt><trkpt lat="41.9456594" lon="2.2524443"><ele>476.16666666666663</ele><time>2026-04-25T07:31:32.09Z</time></trkpt><trkpt lat="41.945652" lon="2.2525756"><ele>476.3333333333333</ele><time>2026-04-25T07:31:33.09Z</time></trkpt><trkpt lat="41.9456552" lon="2.2526828"><ele>476.5</ele><time>2026-04-25T07:31:34.09Z</time></trkpt><trkpt lat="41.9456718" lon="2.2527699"><ele>476.66666666666663</ele><time>2026-04-25T07:31:35.091Z</time></trkpt><trkpt lat="41.9457604" lon="2.2528794"><ele>476.8333333333333</ele><time>2026-04-25T07:31:37.09Z</time></trkpt><trkpt lat="41.9458271" lon="2.2528868"><ele>477.0</ele><time>2026-04-25T07:31:38.089Z</time></trkpt><trkpt lat="41.9458907" lon="2.2528582"><ele>477.1428571428571</ele><time>2026-04-25T07:31:39.09Z</time></trkpt><trkpt lat="41.9459529" lon="2.2528231"><ele>477.2857142857142</ele><time>2026-04-25T07:31:40.089Z</time></trkpt><trkpt lat="41.9460265" lon="2.2528523"><ele>477.42857142857144</ele><time>2026-04-25T07:31:42.089Z</time></trkpt><trkpt lat="41.9460066" lon="2.2529718"><ele>477.57142857142856</ele><time>2026-04-25T07:31:45.09Z</time></trkpt><trkpt lat="41.9459695" lon="2.2530429"><ele>477.7142857142857</ele><time>2026-04-25T07:31:47.09Z</time></trkpt><trkpt lat="41.9459321" lon="2.253127"><ele>477.8571428571429</ele><time>2026-04-25T07:31:50.089Z</time></trkpt><trkpt lat="41.9459439" lon="2.2532277"><ele>478.00000000000006</ele><time>2026-04-25T07:31:52.09Z</time></trkpt><trkpt lat="41.9459515" lon="2.253328"><ele>478.0</ele><time>2026-04-25T07:31:54.09Z</time></trkpt><trkpt lat="41.9458954" lon="2.2533897"><ele>477.99999999999994</ele><time>2026-04-25T07:35:05.09Z</time></trkpt><trkpt lat="41.945872" lon="2.2532777"><ele>477.99999999999994</ele><time>2026-04-25T07:35:08.089Z</time></trkpt><trkpt lat="41.9458762" lon="2.2531329"><ele>478.0</ele><time>2026-04-25T07:35:10.09Z</time></trkpt><trkpt lat="41.9458901" lon="2.2530136"><ele>478.0</ele><time>2026-04-25T07:35:12.09Z</time></trkpt><trkpt lat="41.9459085" lon="2.2528769"><ele>478.00000000000006</ele><time>2026-04-25T07:35:14.09Z</time></trkpt><trkpt lat="41.9459191" lon="2.2527915"><ele>478.0</ele><time>2026-04-25T07:35:15.089Z</time></trkpt><trkpt lat="41.9459185" lon="2.2526962"><ele>478.0</ele><time>2026-04-25T07:35:16.09Z</time></trkpt><trkpt lat="41.945892" lon="2.2526029"><ele>478.0</ele><time>2026-04-25T07:35:17.091Z</time></trkpt><trkpt lat="41.9458456" lon="2.252519"><ele>478.00000000000006</ele><time>2026-04-25T07:35:18.09Z</time></trkpt><trkpt lat="41.9457958" lon="2.2524298"><ele>478.0</ele><time>2026-04-25T07:35:19.089Z</time></trkpt><trkpt lat="41.9457546" lon="2.2523287"><ele>477.59999999999997</ele><time>2026-04-25T07:35:20.09Z</time></trkpt><trkpt lat="41.9457216" lon="2.2522182"><ele>477.19999999999993</ele><time>2026-04-25T07:35:21.09Z</time></trkpt><trkpt lat="41.945695" lon="2.252102"><ele>476.8</ele><time>2026-04-25T07:35:22.09Z</time></trkpt><trkpt lat="41.9456733" lon="2.2519775"><ele>476.4</ele><time>2026-04-25T07:35:23.09Z</time></trkpt><trkpt lat="41.9456544" lon="2.2518457"><ele>476.0</ele><time>2026-04-25T07:35:24.089Z</time></trkpt><trkpt lat="41.9456387" lon="2.2517176"><ele>476.0</ele><time>2026-04-25T07:35:25.09Z</time></trkpt><trkpt lat="41.945627" lon="2.2515832"><ele>476.0</ele><time>2026-04-25T07:35:26.09Z</time></trkpt><trkpt lat="41.9456204" lon="2.251443"><ele>476.0</ele><time>2026-04-25T07:35:27.089Z</time></trkpt><trkpt lat="41.9456204" lon="2.2513013"><ele>476.0</ele><time>2026-04-25T07:35:28.09Z</time></trkpt><trkpt lat="41.9456274" lon="2.2511596"><ele>476.0</ele><time>2026-04-25T07:35:29.089Z</time></trkpt><trkpt lat="41.9456385" lon="2.2510155"><ele>476.0</ele><time>2026-04-25T07:35:30.09Z</time></trkpt><trkpt lat="41.9456552" lon="2.2508733"><ele>476.0</ele><time>2026-04-25T07:35:31.09Z</time></trkpt><trkpt lat="41.9456762" lon="2.2507321"><ele>476.0</ele><time>2026-04-25T07:35:32.09Z</time></trkpt><trkpt lat="41.9456986" lon="2.2505921"><ele>476.0</ele><time>2026-04-25T07:35:33.09Z</time></trkpt><trkpt lat="41.9457186" lon="2.2504569"><ele>476.0</ele><time>2026-04-25T07:35:34.09Z</time></trkpt><trkpt lat="41.9457384" lon="2.2503264"><ele>475.99999999999994</ele><time>2026-04-25T07:35:35.09Z</time></trkpt><trkpt lat="41.9457571" lon="2.2501974"><ele>476.0</ele><time>2026-04-25T07:35:36.089Z</time></trkpt><trkpt lat="41.9457778" lon="2.2500735"><ele>476.0</ele><time>2026-04-25T07:35:37.089Z</time></trkpt><trkpt lat="41.9458044" lon="2.2499713"><ele>476.0</ele><time>2026-04-25T07:35:38.09Z</time></trkpt><trkpt lat="41.9458416" lon="2.2498861"><ele>475.99999999999994</ele><time>2026-04-25T07:35:39.09Z</time></trkpt><trkpt lat="41.9458916" lon="2.2498121"><ele>476.0</ele><time>2026-04-25T07:35:40.09Z</time></trkpt><trkpt lat="41.9459447" lon="2.2497398"><ele>477.49999999999994</ele><time>2026-04-25T07:35:41.089Z</time></trkpt><trkpt lat="41.9459919" lon="2.2496613"><ele>479.0</ele><time>2026-04-25T07:35:42.091Z</time></trkpt><trkpt lat="41.9460201" lon="2.2495689"><ele>480.5</ele><time>2026-04-25T07:35:43.09Z</time></trkpt><trkpt lat="41.9460275" lon="2.2494652"><ele>482.0</ele><time>2026-04-25T07:35:44.089Z</time></trkpt><trkpt lat="41.9460132" lon="2.2493617"><ele>483.49999999999994</ele><time>2026-04-25T07:35:45.089Z</time></trkpt><trkpt lat="41.9459831" lon="2.2492579"><ele>485.0</ele><time>2026-04-25T07:35:46.091Z</time></trkpt><trkpt lat="41.9459562" lon="2.2491437"><ele>485.0</ele><time>2026-04-25T07:35:47.09Z</time></trkpt><trkpt lat="41.9459497" lon="2.2490248"><ele>485.0</ele><time>2026-04-25T07:35:48.09Z</time></trkpt><trkpt lat="41.9459546" lon="2.2489034"><ele>485.0</ele><time>2026-04-25T07:35:49.09Z</time></trkpt><trkpt lat="41.9459683" lon="2.2487755"><ele>485.0</ele><time>2026-04-25T07:35:50.089Z</time></trkpt><trkpt lat="41.9459886" lon="2.2486393"><ele>485.0</ele><time>2026-04-25T07:35:51.091Z</time></trkpt><trkpt lat="41.9460097" lon="2.2484925"><ele>485.0</ele><time>2026-04-25T07:35:52.091Z</time></trkpt><trkpt lat="41.9460324" lon="2.2483369"><ele>485.0</ele><time>2026-04-25T07:35:53.09Z</time></trkpt><trkpt lat="41.9460544" lon="2.2481757"><ele>485.0</ele><time>2026-04-25T07:35:54.09Z</time></trkpt><trkpt lat="41.9460773" lon="2.2480108"><ele>485.0</ele><time>2026-04-25T07:35:55.091Z</time></trkpt><trkpt lat="41.9461005" lon="2.2478416"><ele>484.5</ele><time>2026-04-25T07:35:56.09Z</time></trkpt><trkpt lat="41.9461275" lon="2.2476728"><ele>484.0</ele><time>2026-04-25T07:35:57.09Z</time></trkpt><trkpt lat="41.946155" lon="2.2474993"><ele>483.5</ele><time>2026-04-25T07:35:58.09Z</time></trkpt><trkpt lat="41.9461811" lon="2.2473167"><ele>483.0</ele><time>2026-04-25T07:35:59.09Z</time></trkpt><trkpt lat="41.9462091" lon="2.2471317"><ele>483.0</ele><time>2026-04-25T07:36:00.09Z</time></trkpt><trkpt lat="41.9462378" lon="2.2469449"><ele>483.0</ele><time>2026-04-25T07:36:01.09Z</time></trkpt><trkpt lat="41.9462669" lon="2.2467574"><ele>483.0</ele><time>2026-04-25T07:36:02.09Z</time></trkpt><trkpt lat="41.9462957" lon="2.2465681"><ele>483.0</ele><time>2026-04-25T07:36:03.09Z</time></trkpt><trkpt lat="41.9463264" lon="2.2463788"><ele>483.25</ele><time>2026-04-25T07:36:04.091Z</time></trkpt><trkpt lat="41.9463569" lon="2.2461868"><ele>483.5</ele><time>2026-04-25T07:36:05.09Z</time></trkpt><trkpt lat="41.9463899" lon="2.2460011"><ele>483.75</ele><time>2026-04-25T07:36:06.089Z</time></trkpt><trkpt lat="41.9464207" lon="2.2458252"><ele>484.0</ele><time>2026-04-25T07:36:07.09Z</time></trkpt><trkpt lat="41.9464464" lon="2.2456656"><ele>484.2</ele><time>2026-04-25T07:36:08.09Z</time></trkpt><trkpt lat="41.9464563" lon="2.2455219"><ele>484.4</ele><time>2026-04-25T07:36:09.089Z</time></trkpt><trkpt lat="41.9464415" lon="2.2453835"><ele>484.6</ele><time>2026-04-25T07:36:10.091Z</time></trkpt><trkpt lat="41.9464044" lon="2.2452549"><ele>484.8</ele><time>2026-04-25T07:36:11.091Z</time></trkpt><trkpt lat="41.9463415" lon="2.2451472"><ele>485.0</ele><time>2026-04-25T07:36:12.091Z</time></trkpt><trkpt lat="41.9462564" lon="2.2450666"><ele>485.0</ele><time>2026-04-25T07:36:13.089Z</time></trkpt><trkpt lat="41.9461579" lon="2.2450165"><ele>485.0</ele><time>2026-04-25T07:36:14.09Z</time></trkpt><trkpt lat="41.9460549" lon="2.2450079"><ele>485.0</ele><time>2026-04-25T07:36:15.091Z</time></trkpt><trkpt lat="41.9459539" lon="2.2450401"><ele>485.0</ele><time>2026-04-25T07:36:16.09Z</time></trkpt><trkpt lat="41.9458575" lon="2.2450974"><ele>485.0</ele><time>2026-04-25T07:36:17.09Z</time></trkpt><trkpt lat="41.9457664" lon="2.245149"><ele>484.8333333333333</ele><time>2026-04-25T07:36:18.09Z</time></trkpt><trkpt lat="41.9456831" lon="2.2451609"><ele>484.66666666666663</ele><time>2026-04-25T07:36:19.09Z</time></trkpt><trkpt lat="41.9456043" lon="2.2451377"><ele>484.5</ele><time>2026-04-25T07:36:20.089Z</time></trkpt><trkpt lat="41.9455403" lon="2.2450818"><ele>484.33333333333337</ele><time>2026-04-25T07:36:21.089Z</time></trkpt><trkpt lat="41.9454982" lon="2.2449983"><ele>484.1666666666667</ele><time>2026-04-25T07:36:22.089Z</time></trkpt><trkpt lat="41.9454894" lon="2.2449015"><ele>484.0</ele><time>2026-04-25T07:36:23.089Z</time></trkpt><trkpt lat="41.9455087" lon="2.2448085"><ele>483.6666666666667</ele><time>2026-04-25T07:36:24.09Z</time></trkpt><trkpt lat="41.9455509" lon="2.2447238"><ele>483.33333333333337</ele><time>2026-04-25T07:36:25.089Z</time></trkpt><trkpt lat="41.9455964" lon="2.2446374"><ele>483.0</ele><time>2026-04-25T07:36:26.09Z</time></trkpt><trkpt lat="41.9456235" lon="2.2445346"><ele>482.66666666666663</ele><time>2026-04-25T07:36:27.091Z</time></trkpt><trkpt lat="41.9456223" lon="2.2444239"><ele>482.3333333333333</ele><time>2026-04-25T07:36:28.089Z</time></trkpt><trkpt lat="41.9455915" lon="2.2443115"><ele>482.0</ele><time>2026-04-25T07:36:29.089Z</time></trkpt><trkpt lat="41.9455672" lon="2.2441916"><ele>482.0</ele><time>2026-04-25T07:36:30.09Z</time></trkpt><trkpt lat="41.9455707" lon="2.2440673"><ele>482.00000000000006</ele><time>2026-04-25T07:36:31.089Z</time></trkpt><trkpt lat="41.9455911" lon="2.243942"><ele>482.00000000000006</ele><time>2026-04-25T07:36:32.09Z</time></trkpt><trkpt lat="41.9456281" lon="2.2438203"><ele>482.0</ele><time>2026-04-25T07:36:33.09Z</time></trkpt><trkpt lat="41.945681" lon="2.2437098"><ele>482.0</ele><time>2026-04-25T07:36:34.09Z</time></trkpt><trkpt lat="41.9457551" lon="2.2436224"><ele>482.20000000000005</ele><time>2026-04-25T07:36:35.09Z</time></trkpt><trkpt lat="41.9458476" lon="2.2435627"><ele>482.40000000000003</ele><time>2026-04-25T07:36:36.089Z</time></trkpt><trkpt lat="41.9459512" lon="2.2435307"><ele>482.59999999999997</ele><time>2026-04-25T07:36:37.091Z</time></trkpt><trkpt lat="41.9460547" lon="2.2435357"><ele>482.79999999999995</ele><time>2026-04-25T07:36:38.09Z</time></trkpt><trkpt lat="41.9461569" lon="2.2435699"><ele>483.0</ele><time>2026-04-25T07:36:39.09Z</time></trkpt><trkpt lat="41.9462597" lon="2.2436098"><ele>483.0</ele><time>2026-04-25T07:36:40.09Z</time></trkpt><trkpt lat="41.9463627" lon="2.2436479"><ele>482.99999999999994</ele><time>2026-04-25T07:36:41.09Z</time></trkpt><trkpt lat="41.9464635" lon="2.2436492"><ele>482.99999999999994</ele><time>2026-04-25T07:36:42.089Z</time></trkpt><trkpt lat="41.9465579" lon="2.2436174"><ele>483.0</ele><time>2026-04-25T07:36:43.091Z</time></trkpt><trkpt lat="41.9466409" lon="2.2435494"><ele>483.0</ele><time>2026-04-25T07:36:44.09Z</time></trkpt><trkpt lat="41.9467063" lon="2.2434534"><ele>483.79999999999995</ele><time>2026-04-25T07:36:45.09Z</time></trkpt><trkpt lat="41.9467526" lon="2.2433353"><ele>484.59999999999997</ele><time>2026-04-25T07:36:46.089Z</time></trkpt><trkpt lat="41.9467788" lon="2.2432084"><ele>485.40000000000003</ele><time>2026-04-25T07:36:47.089Z</time></trkpt><trkpt lat="41.9467925" lon="2.243083"><ele>486.20000000000005</ele><time>2026-04-25T07:36:48.09Z</time></trkpt><trkpt lat="41.9467978" lon="2.2429712"><ele>487.0</ele><time>2026-04-25T07:36:49.09Z</time></trkpt><trkpt lat="41.9467973" lon="2.2428678"><ele>487.0</ele><time>2026-04-25T07:36:50.09Z</time></trkpt><trkpt lat="41.9467917" lon="2.2427608"><ele>487.00000000000006</ele><time>2026-04-25T07:36:51.09Z</time></trkpt><trkpt lat="41.9467826" lon="2.2426441"><ele>487.00000000000006</ele><time>2026-04-25T07:36:52.09Z</time></trkpt><trkpt lat="41.946772" lon="2.2425186"><ele>487.0</ele><time>2026-04-25T07:36:53.091Z</time></trkpt><trkpt lat="41.9467604" lon="2.2423844"><ele>487.0</ele><time>2026-04-25T07:36:54.09Z</time></trkpt><trkpt lat="41.9467477" lon="2.2422516"><ele>487.00000000000006</ele><time>2026-04-25T07:36:55.09Z</time></trkpt><trkpt lat="41.9467356" lon="2.242135"><ele>487.0</ele><time>2026-04-25T07:36:56.09Z</time></trkpt><trkpt lat="41.9467221" lon="2.2420331"><ele>487.0</ele><time>2026-04-25T07:36:57.091Z</time></trkpt><trkpt lat="41.9467054" lon="2.2419325"><ele>487.0</ele><time>2026-04-25T07:36:58.09Z</time></trkpt><trkpt lat="41.9466855" lon="2.2418229"><ele>487.00000000000006</ele><time>2026-04-25T07:36:59.09Z</time></trkpt><trkpt lat="41.946665" lon="2.2416974"><ele>487.0</ele><time>2026-04-25T07:37:00.09Z</time></trkpt><trkpt lat="41.9466384" lon="2.2415686"><ele>486.8</ele><time>2026-04-25T07:37:01.091Z</time></trkpt><trkpt lat="41.946608" lon="2.2414321"><ele>486.6</ele><time>2026-04-25T07:37:02.09Z</time></trkpt><trkpt lat="41.946574" lon="2.2412936"><ele>486.40000000000003</ele><time>2026-04-25T07:37:03.089Z</time></trkpt><trkpt lat="41.9465403" lon="2.2411575"><ele>486.20000000000005</ele><time>2026-04-25T07:37:04.09Z</time></trkpt><trkpt lat="41.9465124" lon="2.2410247"><ele>486.0</ele><time>2026-04-25T07:37:05.089Z</time></trkpt><trkpt lat="41.9464795" lon="2.240895"><ele>486.0</ele><time>2026-04-25T07:37:06.09Z</time></trkpt><trkpt lat="41.9464424" lon="2.2407726"><ele>486.0</ele><time>2026-04-25T07:37:07.091Z</time></trkpt><trkpt lat="41.94641" lon="2.2406433"><ele>486.0</ele><time>2026-04-25T07:37:08.091Z</time></trkpt><trkpt lat="41.9463839" lon="2.2405161"><ele>486.0</ele><time>2026-04-25T07:37:09.09Z</time></trkpt><trkpt lat="41.9463546" lon="2.2403904"><ele>486.0</ele><time>2026-04-25T07:37:10.09Z</time></trkpt><trkpt lat="41.946324" lon="2.2402597"><ele>486.6</ele><time>2026-04-25T07:37:11.09Z</time></trkpt><trkpt lat="41.9462887" lon="2.2401219"><ele>487.20000000000005</ele><time>2026-04-25T07:37:12.09Z</time></trkpt><trkpt lat="41.9462514" lon="2.2399839"><ele>487.79999999999995</ele><time>2026-04-25T07:37:13.089Z</time></trkpt><trkpt lat="41.9462142" lon="2.2398549"><ele>488.4</ele><time>2026-04-25T07:37:14.09Z</time></trkpt><trkpt lat="41.9461788" lon="2.239738"><ele>489.0</ele><time>2026-04-25T07:37:15.09Z</time></trkpt><trkpt lat="41.9461467" lon="2.2396437"><ele>489.6666666666667</ele><time>2026-04-25T07:37:16.09Z</time></trkpt><trkpt lat="41.9461165" lon="2.2395691"><ele>490.33333333333337</ele><time>2026-04-25T07:37:17.091Z</time></trkpt><trkpt lat="41.9460611" lon="2.2394238"><ele>491.0</ele><time>2026-04-25T07:37:19.089Z</time></trkpt><trkpt lat="41.9460328" lon="2.2393465"><ele>491.6666666666667</ele><time>2026-04-25T07:37:20.09Z</time></trkpt><trkpt lat="41.9460083" lon="2.2392654"><ele>492.33333333333337</ele><time>2026-04-25T07:37:21.089Z</time></trkpt><trkpt lat="41.9459837" lon="2.2391338"><ele>493.0</ele><time>2026-04-25T07:37:23.089Z</time></trkpt><trkpt lat="41.9460207" lon="2.2390372"><ele>493.2</ele><time>2026-04-25T07:37:29.089Z</time></trkpt><trkpt lat="41.9461387" lon="2.2389597"><ele>493.4</ele><time>2026-04-25T07:37:31.089Z</time></trkpt><trkpt lat="41.9462196" lon="2.2389064"><ele>493.59999999999997</ele><time>2026-04-25T07:37:32.089Z</time></trkpt><trkpt lat="41.9463033" lon="2.2388507"><ele>493.79999999999995</ele><time>2026-04-25T07:37:33.09Z</time></trkpt><trkpt lat="41.9463927" lon="2.2387933"><ele>494.0</ele><time>2026-04-25T07:37:34.091Z</time></trkpt><trkpt lat="41.9464892" lon="2.2387282"><ele>494.0</ele><time>2026-04-25T07:37:35.089Z</time></trkpt><trkpt lat="41.9465818" lon="2.2386598"><ele>494.0</ele><time>2026-04-25T07:37:36.09Z</time></trkpt><trkpt lat="41.9466712" lon="2.2385923"><ele>494.0</ele><time>2026-04-25T07:37:37.09Z</time></trkpt><trkpt lat="41.9467565" lon="2.2385267"><ele>494.0</ele><time>2026-04-25T07:37:38.09Z</time></trkpt><trkpt lat="41.946846" lon="2.238462"><ele>494.0</ele><time>2026-04-25T07:37:39.089Z</time></trkpt><trkpt lat="41.9469339" lon="2.2383973"><ele>494.2</ele><time>2026-04-25T07:37:40.09Z</time></trkpt><trkpt lat="41.9470233" lon="2.2383316"><ele>494.4</ele><time>2026-04-25T07:37:41.09Z</time></trkpt><trkpt lat="41.947113" lon="2.2382652"><ele>494.6</ele><time>2026-04-25T07:37:42.089Z</time></trkpt><trkpt lat="41.9472015" lon="2.2382026"><ele>494.8</ele><time>2026-04-25T07:37:43.09Z</time></trkpt><trkpt lat="41.9472863" lon="2.2381435"><ele>495.0</ele><time>2026-04-25T07:37:44.09Z</time></trkpt><trkpt lat="41.9473711" lon="2.2380869"><ele>495.1666666666667</ele><time>2026-04-25T07:37:45.089Z</time></trkpt><trkpt lat="41.9474538" lon="2.2380328"><ele>495.33333333333337</ele><time>2026-04-25T07:37:46.09Z</time></trkpt><trkpt lat="41.9475279" lon="2.2379832"><ele>495.5</ele><time>2026-04-25T07:37:47.09Z</time></trkpt><trkpt lat="41.947598" lon="2.2379342"><ele>495.6666666666667</ele><time>2026-04-25T07:37:48.09Z</time></trkpt><trkpt lat="41.9476584" lon="2.2378941"><ele>495.83333333333337</ele><time>2026-04-25T07:37:49.091Z</time></trkpt><trkpt lat="41.9477677" lon="2.2378243"><ele>496.0</ele><time>2026-04-25T07:37:51.09Z</time></trkpt><trkpt lat="41.9478316" lon="2.2377788"><ele>497.0</ele><time>2026-04-25T07:37:52.091Z</time></trkpt><trkpt lat="41.9479029" lon="2.2377241"><ele>498.0</ele><time>2026-04-25T07:37:53.09Z</time></trkpt><trkpt lat="41.9479807" lon="2.2376656"><ele>499.0</ele><time>2026-04-25T07:37:54.089Z</time></trkpt><trkpt lat="41.9480602" lon="2.2376086"><ele>500.0</ele><time>2026-04-25T07:37:55.09Z</time></trkpt><trkpt lat="41.9481478" lon="2.2375454"><ele>501.0</ele><time>2026-04-25T07:37:56.09Z</time></trkpt><trkpt lat="41.9482488" lon="2.2374807"><ele>501.0</ele><time>2026-04-25T07:37:57.09Z</time></trkpt><trkpt lat="41.9483556" lon="2.2374113"><ele>501.0</ele><time>2026-04-25T07:37:58.09Z</time></trkpt><trkpt lat="41.9484735" lon="2.2373442"><ele>501.0</ele><time>2026-04-25T07:37:59.089Z</time></trkpt><trkpt lat="41.9486015" lon="2.2372831"><ele>501.0</ele><time>2026-04-25T07:38:00.09Z</time></trkpt><trkpt lat="41.9487318" lon="2.2372255"><ele>501.5</ele><time>2026-04-25T07:38:01.089Z</time></trkpt><trkpt lat="41.948869" lon="2.2371741"><ele>502.0</ele><time>2026-04-25T07:38:02.09Z</time></trkpt><trkpt lat="41.9490037" lon="2.2371308"><ele>502.5</ele><time>2026-04-25T07:38:03.09Z</time></trkpt><trkpt lat="41.9491381" lon="2.2370879"><ele>503.0</ele><time>2026-04-25T07:38:04.089Z</time></trkpt><trkpt lat="41.9492722" lon="2.2370531"><ele>503.0</ele><time>2026-04-25T07:38:05.091Z</time></trkpt><trkpt lat="41.9494006" lon="2.2370172"><ele>503.0</ele><time>2026-04-25T07:38:06.089Z</time></trkpt><trkpt lat="41.9495159" lon="2.2369842"><ele>503.0</ele><time>2026-04-25T07:38:07.09Z</time></trkpt><trkpt lat="41.949627" lon="2.23696"><ele>503.0</ele><time>2026-04-25T07:38:08.091Z</time></trkpt><trkpt lat="41.9497305" lon="2.2369689"><ele>503.0</ele><time>2026-04-25T07:38:09.089Z</time></trkpt><trkpt lat="41.9498216" lon="2.236982"><ele>502.99999999999994</ele><time>2026-04-25T07:38:10.09Z</time></trkpt><trkpt lat="41.9499091" lon="2.2369636"><ele>502.99999999999994</ele><time>2026-04-25T07:38:11.09Z</time></trkpt><trkpt lat="41.9499906" lon="2.2369063"><ele>503.0</ele><time>2026-04-25T07:38:12.089Z</time></trkpt><trkpt lat="41.9500712" lon="2.2368259"><ele>503.0</ele><time>2026-04-25T07:38:13.09Z</time></trkpt><trkpt lat="41.9501775" lon="2.2367694"><ele>503.0</ele><time>2026-04-25T07:38:14.09Z</time></trkpt><trkpt lat="41.9502955" lon="2.2367225"><ele>503.0</ele><time>2026-04-25T07:38:15.09Z</time></trkpt><trkpt lat="41.9504222" lon="2.2366738"><ele>503.0</ele><time>2026-04-25T07:38:16.09Z</time></trkpt><trkpt lat="41.9505539" lon="2.236626"><ele>503.0</ele><time>2026-04-25T07:38:17.091Z</time></trkpt><trkpt lat="41.9506977" lon="2.2365969"><ele>503.0</ele><time>2026-04-25T07:38:18.09Z</time></trkpt><trkpt lat="41.9508312" lon="2.2366116"><ele>503.0</ele><time>2026-04-25T07:38:19.09Z</time></trkpt><trkpt lat="41.9509396" lon="2.2366691"><ele>503.0</ele><time>2026-04-25T07:38:20.09Z</time></trkpt><trkpt lat="41.9510326" lon="2.2367635"><ele>503.0</ele><time>2026-04-25T07:38:21.09Z</time></trkpt><trkpt lat="41.9511058" lon="2.2368908"><ele>503.2</ele><time>2026-04-25T07:38:22.09Z</time></trkpt><trkpt lat="41.9511757" lon="2.2370249"><ele>503.4</ele><time>2026-04-25T07:38:23.089Z</time></trkpt><trkpt lat="41.9512531" lon="2.2371162"><ele>503.59999999999997</ele><time>2026-04-25T07:38:24.09Z</time></trkpt><trkpt lat="41.9513468" lon="2.2371683"><ele>503.79999999999995</ele><time>2026-04-25T07:38:25.089Z</time></trkpt><trkpt lat="41.9514527" lon="2.2372094"><ele>504.0</ele><time>2026-04-25T07:38:26.091Z</time></trkpt><trkpt lat="41.9515528" lon="2.2372496"><ele>504.0</ele><time>2026-04-25T07:38:27.089Z</time></trkpt><trkpt lat="41.9516377" lon="2.2372562"><ele>504.0</ele><time>2026-04-25T07:38:28.091Z</time></trkpt><trkpt lat="41.9517112" lon="2.2372189"><ele>504.0</ele><time>2026-04-25T07:38:29.089Z</time></trkpt><trkpt lat="41.9517647" lon="2.2371444"><ele>504.0</ele><time>2026-04-25T07:38:30.089Z</time></trkpt><trkpt lat="41.9517983" lon="2.2370355"><ele>504.0</ele><time>2026-04-25T07:38:31.09Z</time></trkpt><trkpt lat="41.9518456" lon="2.2369172"><ele>504.0</ele><time>2026-04-25T07:38:32.09Z</time></trkpt><trkpt lat="41.9519248" lon="2.2368089"><ele>503.6</ele><time>2026-04-25T07:38:33.09Z</time></trkpt><trkpt lat="41.9520167" lon="2.2367137"><ele>503.2</ele><time>2026-04-25T07:38:34.09Z</time></trkpt><trkpt lat="41.9521131" lon="2.2366312"><ele>502.80000000000007</ele><time>2026-04-25T07:38:35.089Z</time></trkpt><trkpt lat="41.952207" lon="2.2365812"><ele>502.40000000000003</ele><time>2026-04-25T07:38:36.089Z</time></trkpt><trkpt lat="41.952305" lon="2.2365522"><ele>502.0</ele><time>2026-04-25T07:38:37.089Z</time></trkpt><trkpt lat="41.9523865" lon="2.2365089"><ele>502.40000000000003</ele><time>2026-04-25T07:38:38.089Z</time></trkpt><trkpt lat="41.9524476" lon="2.2364271"><ele>502.80000000000007</ele><time>2026-04-25T07:38:39.09Z</time></trkpt><trkpt lat="41.952489" lon="2.2363228"><ele>503.2</ele><time>2026-04-25T07:38:40.09Z</time></trkpt><trkpt lat="41.9525412" lon="2.2362251"><ele>503.6</ele><time>2026-04-25T07:38:41.09Z</time></trkpt><trkpt lat="41.9526201" lon="2.2361441"><ele>504.0</ele><time>2026-04-25T07:38:42.09Z</time></trkpt><trkpt lat="41.9527128" lon="2.236068"><ele>504.5</ele><time>2026-04-25T07:38:43.091Z</time></trkpt><trkpt lat="41.9528169" lon="2.236001"><ele>505.0</ele><time>2026-04-25T07:38:44.091Z</time></trkpt><trkpt lat="41.952925" lon="2.235937"><ele>505.5</ele><time>2026-04-25T07:38:45.09Z</time></trkpt><trkpt lat="41.9530342" lon="2.2358765"><ele>506.0</ele><time>2026-04-25T07:38:46.09Z</time></trkpt><trkpt lat="41.9531481" lon="2.2358273"><ele>506.0</ele><time>2026-04-25T07:38:47.091Z</time></trkpt><trkpt lat="41.9532617" lon="2.2357819"><ele>506.0</ele><time>2026-04-25T07:38:48.091Z</time></trkpt><trkpt lat="41.9533814" lon="2.23574"><ele>506.0</ele><time>2026-04-25T07:38:49.092Z</time></trkpt><trkpt lat="41.953503" lon="2.2356989"><ele>506.0</ele><time>2026-04-25T07:38:50.091Z</time></trkpt><trkpt lat="41.9536271" lon="2.2356565"><ele>507.5</ele><time>2026-04-25T07:38:51.091Z</time></trkpt><trkpt lat="41.9537607" lon="2.2356103"><ele>509.0</ele><time>2026-04-25T07:38:52.09Z</time></trkpt><trkpt lat="41.9538949" lon="2.2355674"><ele>510.5</ele><time>2026-04-25T07:38:53.091Z</time></trkpt><trkpt lat="41.9540295" lon="2.2355316"><ele>512.0</ele><time>2026-04-25T07:38:54.091Z</time></trkpt><trkpt lat="41.9541644" lon="2.2355045"><ele>512.25</ele><time>2026-04-25T07:38:55.09Z</time></trkpt><trkpt lat="41.9543014" lon="2.2354925"><ele>512.5</ele><time>2026-04-25T07:38:56.092Z</time></trkpt><trkpt lat="41.9544387" lon="2.2354934"><ele>512.75</ele><time>2026-04-25T07:38:57.091Z</time></trkpt><trkpt lat="41.9545684" lon="2.2354967"><ele>513.0</ele><time>2026-04-25T07:38:58.09Z</time></trkpt><trkpt lat="41.9546918" lon="2.2355052"><ele>513.0</ele><time>2026-04-25T07:38:59.09Z</time></trkpt><trkpt lat="41.9548127" lon="2.2355062"><ele>513.0</ele><time>2026-04-25T07:39:00.091Z</time></trkpt><trkpt lat="41.9549422" lon="2.2355106"><ele>513.0</ele><time>2026-04-25T07:39:01.091Z</time></trkpt><trkpt lat="41.9550677" lon="2.2355156"><ele>513.0</ele><time>2026-04-25T07:39:02.092Z</time></trkpt><trkpt lat="41.9551968" lon="2.2355231"><ele>512.75</ele><time>2026-04-25T07:39:03.091Z</time></trkpt><trkpt lat="41.9553213" lon="2.2355159"><ele>512.5</ele><time>2026-04-25T07:39:04.091Z</time></trkpt><trkpt lat="41.9554318" lon="2.2354963"><ele>512.25</ele><time>2026-04-25T07:39:05.092Z</time></trkpt><trkpt lat="41.9555425" lon="2.2354564"><ele>512.0</ele><time>2026-04-25T07:39:06.091Z</time></trkpt><trkpt lat="41.9556519" lon="2.2354061"><ele>512.0</ele><time>2026-04-25T07:39:07.092Z</time></trkpt><trkpt lat="41.9557427" lon="2.2353399"><ele>512.0</ele><time>2026-04-25T07:39:08.09Z</time></trkpt><trkpt lat="41.9558267" lon="2.2352663"><ele>512.0</ele><time>2026-04-25T07:39:09.091Z</time></trkpt><trkpt lat="41.9559046" lon="2.2351814"><ele>512.0</ele><time>2026-04-25T07:39:10.091Z</time></trkpt><trkpt lat="41.9559791" lon="2.2350839"><ele>512.0</ele><time>2026-04-25T07:39:11.091Z</time></trkpt><trkpt lat="41.956049" lon="2.2349847"><ele>512.25</ele><time>2026-04-25T07:39:12.091Z</time></trkpt><trkpt lat="41.9561036" lon="2.2349102"><ele>512.5</ele><time>2026-04-25T07:39:13.091Z</time></trkpt><trkpt lat="41.9561779" lon="2.2348085"><ele>512.75</ele><time>2026-04-25T07:39:15.091Z</time></trkpt><trkpt lat="41.9562799" lon="2.2346634"><ele>513.0</ele><time>2026-04-25T07:39:17.09Z</time></trkpt><trkpt lat="41.9563653" lon="2.234542"><ele>513.0</ele><time>2026-04-25T07:39:18.091Z</time></trkpt><trkpt lat="41.9564683" lon="2.234398"><ele>513.0</ele><time>2026-04-25T07:39:19.091Z</time></trkpt><trkpt lat="41.9565889" lon="2.234228"><ele>513.0</ele><time>2026-04-25T07:39:20.09Z</time></trkpt><trkpt lat="41.9567173" lon="2.2340445"><ele>514.3333333333334</ele><time>2026-04-25T07:39:21.091Z</time></trkpt><trkpt lat="41.9568552" lon="2.2338455"><ele>515.6666666666667</ele><time>2026-04-25T07:39:22.09Z</time></trkpt><trkpt lat="41.9570016" lon="2.2336364"><ele>517.0</ele><time>2026-04-25T07:39:23.09Z</time></trkpt><trkpt lat="41.9571558" lon="2.2334231"><ele>517.0</ele><time>2026-04-25T07:39:24.091Z</time></trkpt><trkpt lat="41.9573132" lon="2.2332062"><ele>517.0</ele><time>2026-04-25T07:39:25.091Z</time></trkpt><trkpt lat="41.9574694" lon="2.2329802"><ele>516.5</ele><time>2026-04-25T07:39:26.091Z</time></trkpt><trkpt lat="41.957617" lon="2.232736"><ele>516.0</ele><time>2026-04-25T07:39:27.091Z</time></trkpt><trkpt lat="41.9577463" lon="2.2324632"><ele>517.5</ele><time>2026-04-25T07:39:28.091Z</time></trkpt><trkpt lat="41.9578672" lon="2.2321599"><ele>519.0</ele><time>2026-04-25T07:39:29.09Z</time></trkpt><trkpt lat="41.9579943" lon="2.2318236"><ele>520.0</ele><time>2026-04-25T07:39:30.09Z</time></trkpt><trkpt lat="41.9581371" lon="2.2314569"><ele>521.0</ele><time>2026-04-25T07:39:31.091Z</time></trkpt><trkpt lat="41.958285" lon="2.2310675"><ele>522.0</ele><time>2026-04-25T07:39:32.092Z</time></trkpt><trkpt lat="41.9584369" lon="2.2306644"><ele>523.0</ele><time>2026-04-25T07:39:33.09Z</time></trkpt><trkpt lat="41.9585877" lon="2.2302613"><ele>523.5</ele><time>2026-04-25T07:39:34.091Z</time></trkpt><trkpt lat="41.9587217" lon="2.2298959"><ele>524.0</ele><time>2026-04-25T07:39:35.09Z</time></trkpt><trkpt lat="41.9588471" lon="2.2295625"><ele>525.5</ele><time>2026-04-25T07:39:36.09Z</time></trkpt><trkpt lat="41.9589699" lon="2.229262"><ele>527.0</ele><time>2026-04-25T07:39:37.091Z</time></trkpt><trkpt lat="41.9591183" lon="2.2290091"><ele>527.5</ele><time>2026-04-25T07:39:38.091Z</time></trkpt><trkpt lat="41.9593124" lon="2.2287689"><ele>528.0</ele><time>2026-04-25T07:39:39.091Z</time></trkpt><trkpt lat="41.959527" lon="2.2285049"><ele>528.0</ele><time>2026-04-25T07:39:40.091Z</time></trkpt><trkpt lat="41.9597487" lon="2.2282335"><ele>528.0</ele><time>2026-04-25T07:39:41.092Z</time></trkpt><trkpt lat="41.9599436" lon="2.2279958"><ele>524.0</ele><time>2026-04-25T07:39:42.091Z</time></trkpt><trkpt lat="41.9601012" lon="2.2277714"><ele>520.0</ele><time>2026-04-25T07:39:43.091Z</time></trkpt><trkpt lat="41.9602194" lon="2.2275177"><ele>521.5</ele><time>2026-04-25T07:39:44.092Z</time></trkpt><trkpt lat="41.9603145" lon="2.2272063"><ele>523.0</ele><time>2026-04-25T07:39:45.09Z</time></trkpt><trkpt lat="41.9604241" lon="2.226884"><ele>523.0</ele><time>2026-04-25T07:39:46.091Z</time></trkpt><trkpt lat="41.9605823" lon="2.226581"><ele>523.0</ele><time>2026-04-25T07:39:47.091Z</time></trkpt><trkpt lat="41.9607783" lon="2.2262954"><ele>522.5</ele><time>2026-04-25T07:39:48.091Z</time></trkpt><trkpt lat="41.9610015" lon="2.2260227"><ele>522.0</ele><time>2026-04-25T07:39:49.09Z</time></trkpt><trkpt lat="41.9612276" lon="2.2257616"><ele>525.0</ele><time>2026-04-25T07:39:50.09Z</time></trkpt><trkpt lat="41.9614291" lon="2.2255422"><ele>528.0</ele><time>2026-04-25T07:39:51.09Z</time></trkpt><trkpt lat="41.9616345" lon="2.225365"><ele>528.5</ele><time>2026-04-25T07:39:52.09Z</time></trkpt><trkpt lat="41.9618677" lon="2.2252409"><ele>529.0</ele><time>2026-04-25T07:39:53.091Z</time></trkpt><trkpt lat="41.9621367" lon="2.2251706"><ele>529.0</ele><time>2026-04-25T07:39:54.091Z</time></trkpt><trkpt lat="41.9624302" lon="2.2251465"><ele>529.0</ele><time>2026-04-25T07:39:55.091Z</time></trkpt><trkpt lat="41.9627436" lon="2.2251396"><ele>529.5</ele><time>2026-04-25T07:39:56.09Z</time></trkpt><trkpt lat="41.9630713" lon="2.2251238"><ele>530.0</ele><time>2026-04-25T07:39:57.091Z</time></trkpt><trkpt lat="41.9634101" lon="2.2251058"><ele>532.0</ele><time>2026-04-25T07:39:58.09Z</time></trkpt><trkpt lat="41.9637524" lon="2.2250924"><ele>534.0</ele><time>2026-04-25T07:39:59.09Z</time></trkpt><trkpt lat="41.964092" lon="2.2250796"><ele>536.0</ele><time>2026-04-25T07:40:00.09Z</time></trkpt><trkpt lat="41.964384" lon="2.2250714"><ele>538.0</ele><time>2026-04-25T07:40:01.09Z</time></trkpt><trkpt lat="41.9646533" lon="2.2250688"><ele>538.0</ele><time>2026-04-25T07:40:02.09Z</time></trkpt><trkpt lat="41.9648794" lon="2.2250428"><ele>538.0</ele><time>2026-04-25T07:40:03.091Z</time></trkpt><trkpt lat="41.9650842" lon="2.224977"><ele>538.0</ele><time>2026-04-25T07:40:04.091Z</time></trkpt><trkpt lat="41.9652743" lon="2.2248322"><ele>540.5</ele><time>2026-04-25T07:40:05.09Z</time></trkpt><trkpt lat="41.9654621" lon="2.2246362"><ele>543.0</ele><time>2026-04-25T07:40:06.09Z</time></trkpt><trkpt lat="41.9656566" lon="2.224412"><ele>544.0</ele><time>2026-04-25T07:40:07.09Z</time></trkpt><trkpt lat="41.9658657" lon="2.2241751"><ele>545.0</ele><time>2026-04-25T07:40:08.091Z</time></trkpt><trkpt lat="41.9660831" lon="2.2239209"><ele>545.5</ele><time>2026-04-25T07:40:09.092Z</time></trkpt><trkpt lat="41.9663087" lon="2.2236574"><ele>546.0</ele><time>2026-04-25T07:40:10.091Z</time></trkpt><trkpt lat="41.9665416" lon="2.2233849"><ele>545.5</ele><time>2026-04-25T07:40:11.092Z</time></trkpt><trkpt lat="41.9667763" lon="2.2231097"><ele>545.0</ele><time>2026-04-25T07:40:12.091Z</time></trkpt><trkpt lat="41.9670144" lon="2.2228246"><ele>545.0</ele><time>2026-04-25T07:40:13.09Z</time></trkpt><trkpt lat="41.9672579" lon="2.2225295"><ele>545.0</ele><time>2026-04-25T07:40:14.09Z</time></trkpt><trkpt lat="41.9674908" lon="2.2222444"><ele>543.5</ele><time>2026-04-25T07:40:15.091Z</time></trkpt><trkpt lat="41.967701" lon="2.2219894"><ele>542.0</ele><time>2026-04-25T07:40:16.091Z</time></trkpt><trkpt lat="41.9678791" lon="2.2217438"><ele>544.5</ele><time>2026-04-25T07:40:17.09Z</time></trkpt><trkpt lat="41.9680339" lon="2.2214756"><ele>547.0</ele><time>2026-04-25T07:40:18.092Z</time></trkpt><trkpt lat="41.9681656" lon="2.2211525"><ele>547.0</ele><time>2026-04-25T07:40:19.09Z</time></trkpt><trkpt lat="41.9683025" lon="2.2207947"><ele>547.0</ele><time>2026-04-25T07:40:20.091Z</time></trkpt><trkpt lat="41.9684484" lon="2.2204197"><ele>545.0</ele><time>2026-04-25T07:40:21.091Z</time></trkpt><trkpt lat="41.9686027" lon="2.2200286"><ele>543.0</ele><time>2026-04-25T07:40:22.09Z</time></trkpt><trkpt lat="41.9687603" lon="2.2196222"><ele>543.0</ele><time>2026-04-25T07:40:23.09Z</time></trkpt><trkpt lat="41.96892" lon="2.2192079"><ele>543.0</ele><time>2026-04-25T07:40:24.091Z</time></trkpt><trkpt lat="41.9690677" lon="2.218826"><ele>541.5</ele><time>2026-04-25T07:40:25.091Z</time></trkpt><trkpt lat="41.9692015" lon="2.2184773"><ele>540.0</ele><time>2026-04-25T07:40:26.091Z</time></trkpt><trkpt lat="41.9693236" lon="2.2181556"><ele>541.6666666666666</ele><time>2026-04-25T07:40:27.091Z</time></trkpt><trkpt lat="41.9694352" lon="2.217873"><ele>543.3333333333333</ele><time>2026-04-25T07:40:28.092Z</time></trkpt><trkpt lat="41.9695458" lon="2.2176347"><ele>545.0</ele><time>2026-04-25T07:40:29.091Z</time></trkpt><trkpt lat="41.9696811" lon="2.2174394"><ele>545.0</ele><time>2026-04-25T07:40:30.091Z</time></trkpt><trkpt lat="41.9698441" lon="2.2173252"><ele>545.0</ele><time>2026-04-25T07:40:31.091Z</time></trkpt><trkpt lat="41.970035" lon="2.217279"><ele>545.0</ele><time>2026-04-25T07:40:32.091Z</time></trkpt><trkpt lat="41.9702532" lon="2.2173033"><ele>545.5</ele><time>2026-04-25T07:40:33.09Z</time></trkpt><trkpt lat="41.9705017" lon="2.2173593"><ele>546.0</ele><time>2026-04-25T07:40:34.091Z</time></trkpt><trkpt lat="41.9707682" lon="2.2174034"><ele>547.0</ele><time>2026-04-25T07:40:35.091Z</time></trkpt><trkpt lat="41.971004" lon="2.2174475"><ele>548.0</ele><time>2026-04-25T07:40:36.091Z</time></trkpt><trkpt lat="41.9712116" lon="2.2174709"><ele>549.0</ele><time>2026-04-25T07:40:37.091Z</time></trkpt><trkpt lat="41.9714055" lon="2.217449"><ele>549.0</ele><time>2026-04-25T07:40:38.09Z</time></trkpt><trkpt lat="41.9715576" lon="2.2173372"><ele>549.0</ele><time>2026-04-25T07:40:39.091Z</time></trkpt><trkpt lat="41.9716896" lon="2.2172027"><ele>549.0</ele><time>2026-04-25T07:40:40.091Z</time></trkpt><trkpt lat="41.9717763" lon="2.2170163"><ele>549.6666666666666</ele><time>2026-04-25T07:40:41.091Z</time></trkpt><trkpt lat="41.9718426" lon="2.2167685"><ele>550.3333333333333</ele><time>2026-04-25T07:40:42.091Z</time></trkpt><trkpt lat="41.9719166" lon="2.2164702"><ele>551.0</ele><time>2026-04-25T07:40:43.09Z</time></trkpt><trkpt lat="41.9719964" lon="2.216138"><ele>552.0</ele><time>2026-04-25T07:40:44.09Z</time></trkpt><trkpt lat="41.972085" lon="2.2157718"><ele>553.0</ele><time>2026-04-25T07:40:45.092Z</time></trkpt><trkpt lat="41.9721886" lon="2.2153873"><ele>554.5</ele><time>2026-04-25T07:40:46.09Z</time></trkpt><trkpt lat="41.9723246" lon="2.2150313"><ele>556.0</ele><time>2026-04-25T07:40:47.092Z</time></trkpt><trkpt lat="41.9724901" lon="2.2146889"><ele>559.5</ele><time>2026-04-25T07:40:48.091Z</time></trkpt><trkpt lat="41.9726385" lon="2.2143282"><ele>563.0</ele><time>2026-04-25T07:40:49.091Z</time></trkpt><trkpt lat="41.9727669" lon="2.2139535"><ele>565.5</ele><time>2026-04-25T07:40:50.091Z</time></trkpt><trkpt lat="41.972865" lon="2.2136132"><ele>568.0</ele><time>2026-04-25T07:40:51.09Z</time></trkpt><trkpt lat="41.9729615" lon="2.2133024"><ele>568.6666666666667</ele><time>2026-04-25T07:40:52.091Z</time></trkpt><trkpt lat="41.973046" lon="2.2130327"><ele>569.3333333333334</ele><time>2026-04-25T07:40:53.09Z</time></trkpt><trkpt lat="41.9731205" lon="2.2128118"><ele>570.0</ele><time>2026-04-25T07:40:54.09Z</time></trkpt><trkpt lat="41.9732212" lon="2.2126557"><ele>570.0</ele><time>2026-04-25T07:40:55.091Z</time></trkpt><trkpt lat="41.9733489" lon="2.2125797"><ele>570.0</ele><time>2026-04-25T07:40:56.09Z</time></trkpt><trkpt lat="41.9735145" lon="2.212557"><ele>570.0</ele><time>2026-04-25T07:40:57.092Z</time></trkpt><trkpt lat="41.9737111" lon="2.2125567"><ele>572.3333333333334</ele><time>2026-04-25T07:40:58.091Z</time></trkpt><trkpt lat="41.973931" lon="2.2125724"><ele>574.6666666666667</ele><time>2026-04-25T07:40:59.091Z</time></trkpt><trkpt lat="41.9740994" lon="2.2125791"><ele>577.0</ele><time>2026-04-25T07:41:00.091Z</time></trkpt><trkpt lat="41.9742432" lon="2.2125611"><ele>579.0</ele><time>2026-04-25T07:41:01.09Z</time></trkpt><trkpt lat="41.9743533" lon="2.2124976"><ele>581.0</ele><time>2026-04-25T07:41:02.09Z</time></trkpt><trkpt lat="41.9744348" lon="2.21238"><ele>583.0</ele><time>2026-04-25T07:41:03.09Z</time></trkpt><trkpt lat="41.9744895" lon="2.2122123"><ele>585.0</ele><time>2026-04-25T07:41:04.09Z</time></trkpt><trkpt lat="41.9745305" lon="2.2120137"><ele>585.0</ele><time>2026-04-25T07:41:05.091Z</time></trkpt><trkpt lat="41.9745739" lon="2.2118069"><ele>585.0</ele><time>2026-04-25T07:41:06.091Z</time></trkpt><trkpt lat="41.9746214" lon="2.211629"><ele>585.0</ele><time>2026-04-25T07:41:07.091Z</time></trkpt><trkpt lat="41.9746851" lon="2.2114757"><ele>585.0</ele><time>2026-04-25T07:41:08.091Z</time></trkpt><trkpt lat="41.9747637" lon="2.2113504"><ele>585.5</ele><time>2026-04-25T07:41:09.091Z</time></trkpt><trkpt lat="41.9748497" lon="2.2112398"><ele>586.0</ele><time>2026-04-25T07:41:10.09Z</time></trkpt><trkpt lat="41.9749367" lon="2.2111346"><ele>586.5</ele><time>2026-04-25T07:41:11.091Z</time></trkpt><trkpt lat="41.9750189" lon="2.2110208"><ele>587.0</ele><time>2026-04-25T07:41:12.092Z</time></trkpt><trkpt lat="41.9750868" lon="2.2108951"><ele>588.5</ele><time>2026-04-25T07:41:13.091Z</time></trkpt><trkpt lat="41.9751411" lon="2.2107602"><ele>590.0</ele><time>2026-04-25T07:41:14.091Z</time></trkpt><trkpt lat="41.9751879" lon="2.2106129"><ele>591.5</ele><time>2026-04-25T07:41:15.091Z</time></trkpt><trkpt lat="41.9752381" lon="2.2104481"><ele>593.0</ele><time>2026-04-25T07:41:16.091Z</time></trkpt><trkpt lat="41.9752919" lon="2.2102735"><ele>593.0</ele><time>2026-04-25T07:41:17.091Z</time></trkpt><trkpt lat="41.9753482" lon="2.2101182"><ele>593.0</ele><time>2026-04-25T07:41:18.09Z</time></trkpt><trkpt lat="41.9754177" lon="2.2099761"><ele>593.0</ele><time>2026-04-25T07:41:19.09Z</time></trkpt><trkpt lat="41.9755028" lon="2.209842"><ele>593.0</ele><time>2026-04-25T07:41:20.091Z</time></trkpt><trkpt lat="41.9755936" lon="2.2097213"><ele>593.0</ele><time>2026-04-25T07:41:21.091Z</time></trkpt><trkpt lat="41.9756897" lon="2.2096178"><ele>593.0</ele><time>2026-04-25T07:41:22.09Z</time></trkpt><trkpt lat="41.9757959" lon="2.2095353"><ele>593.0</ele><time>2026-04-25T07:41:23.091Z</time></trkpt><trkpt lat="41.9759145" lon="2.2094638"><ele>593.0</ele><time>2026-04-25T07:41:24.09Z</time></trkpt><trkpt lat="41.9760502" lon="2.2094008"><ele>597.25</ele><time>2026-04-25T07:41:25.09Z</time></trkpt><trkpt lat="41.9761911" lon="2.2093319"><ele>601.5</ele><time>2026-04-25T07:41:26.09Z</time></trkpt><trkpt lat="41.9763322" lon="2.2092557"><ele>605.75</ele><time>2026-04-25T07:41:27.091Z</time></trkpt><trkpt lat="41.9764597" lon="2.2091696"><ele>610.0</ele><time>2026-04-25T07:41:28.09Z</time></trkpt><trkpt lat="41.9765754" lon="2.2090647"><ele>612.5</ele><time>2026-04-25T07:41:29.092Z</time></trkpt><trkpt lat="41.9766871" lon="2.2089409"><ele>615.0</ele><time>2026-04-25T07:41:30.091Z</time></trkpt><trkpt lat="41.976784" lon="2.2087945"><ele>617.5</ele><time>2026-04-25T07:41:31.091Z</time></trkpt><trkpt lat="41.9768655" lon="2.2086373"><ele>620.0</ele><time>2026-04-25T07:41:32.091Z</time></trkpt><trkpt lat="41.9769446" lon="2.2084752"><ele>620.0</ele><time>2026-04-25T07:41:33.092Z</time></trkpt><trkpt lat="41.9770205" lon="2.2083216"><ele>620.0</ele><time>2026-04-25T07:41:34.091Z</time></trkpt><trkpt lat="41.9770948" lon="2.2081675"><ele>620.0</ele><time>2026-04-25T07:41:35.091Z</time></trkpt><trkpt lat="41.977173" lon="2.2080103"><ele>620.0</ele><time>2026-04-25T07:41:36.09Z</time></trkpt><trkpt lat="41.9772537" lon="2.2078517"><ele>618.0</ele><time>2026-04-25T07:41:37.091Z</time></trkpt><trkpt lat="41.9773352" lon="2.2076914"><ele>616.0</ele><time>2026-04-25T07:41:38.092Z</time></trkpt><trkpt lat="41.9774141" lon="2.207534"><ele>614.0</ele><time>2026-04-25T07:41:39.092Z</time></trkpt><trkpt lat="41.9774979" lon="2.207373"><ele>612.0</ele><time>2026-04-25T07:41:40.092Z</time></trkpt><trkpt lat="41.9775797" lon="2.2072211"><ele>612.0</ele><time>2026-04-25T07:41:41.092Z</time></trkpt><trkpt lat="41.9776656" lon="2.2070763"><ele>612.0</ele><time>2026-04-25T07:41:42.09Z</time></trkpt><trkpt lat="41.9777705" lon="2.2069337"><ele>612.0</ele><time>2026-04-25T07:41:43.091Z</time></trkpt><trkpt lat="41.9778911" lon="2.2067909"><ele>612.0</ele><time>2026-04-25T07:41:44.091Z</time></trkpt><trkpt lat="41.9780367" lon="2.2066378"><ele>611.0</ele><time>2026-04-25T07:41:45.091Z</time></trkpt><trkpt lat="41.9782064" lon="2.2064565"><ele>610.0</ele><time>2026-04-25T07:41:46.091Z</time></trkpt><trkpt lat="41.97841" lon="2.2062428"><ele>612.5</ele><time>2026-04-25T07:41:47.09Z</time></trkpt><trkpt lat="41.9786408" lon="2.206008"><ele>615.0</ele><time>2026-04-25T07:41:48.092Z</time></trkpt><trkpt lat="41.9788997" lon="2.2057579"><ele>615.0</ele><time>2026-04-25T07:41:49.091Z</time></trkpt><trkpt lat="41.9791676" lon="2.2054947"><ele>615.0</ele><time>2026-04-25T07:41:50.091Z</time></trkpt><trkpt lat="41.9794062" lon="2.2052651"><ele>619.5</ele><time>2026-04-25T07:41:51.09Z</time></trkpt><trkpt lat="41.9796193" lon="2.2050518"><ele>624.0</ele><time>2026-04-25T07:41:52.091Z</time></trkpt><trkpt lat="41.9798014" lon="2.2048648"><ele>623.6666666666666</ele><time>2026-04-25T07:41:53.092Z</time></trkpt><trkpt lat="41.9799532" lon="2.2046942"><ele>623.3333333333333</ele><time>2026-04-25T07:41:54.09Z</time></trkpt><trkpt lat="41.9800769" lon="2.204507"><ele>623.0</ele><time>2026-04-25T07:41:55.091Z</time></trkpt><trkpt lat="41.980165" lon="2.2042945"><ele>623.0</ele><time>2026-04-25T07:41:56.091Z</time></trkpt><trkpt lat="41.9802093" lon="2.2040622"><ele>623.0</ele><time>2026-04-25T07:41:57.091Z</time></trkpt><trkpt lat="41.9802056" lon="2.2038272"><ele>623.0</ele><time>2026-04-25T07:41:58.09Z</time></trkpt><trkpt lat="41.9801413" lon="2.2036014"><ele>623.5</ele><time>2026-04-25T07:41:59.092Z</time></trkpt><trkpt lat="41.9800218" lon="2.2033752"><ele>624.0</ele><time>2026-04-25T07:42:00.09Z</time></trkpt><trkpt lat="41.979847" lon="2.2031392"><ele>624.5</ele><time>2026-04-25T07:42:01.09Z</time></trkpt><trkpt lat="41.9796321" lon="2.2028746"><ele>625.0</ele><time>2026-04-25T07:42:02.09Z</time></trkpt><trkpt lat="41.9793909" lon="2.2025855"><ele>628.5</ele><time>2026-04-25T07:42:03.091Z</time></trkpt><trkpt lat="41.9791676" lon="2.2023242"><ele>632.0</ele><time>2026-04-25T07:42:04.09Z</time></trkpt><trkpt lat="41.9789221" lon="2.2021127"><ele>632.0</ele><time>2026-04-25T07:42:05.092Z</time></trkpt><trkpt lat="41.9786474" lon="2.201931"><ele>632.0</ele><time>2026-04-25T07:42:06.09Z</time></trkpt><trkpt lat="41.9783455" lon="2.2017523"><ele>631.0</ele><time>2026-04-25T07:42:07.091Z</time></trkpt><trkpt lat="41.9780716" lon="2.2015868"><ele>630.0</ele><time>2026-04-25T07:42:08.09Z</time></trkpt><trkpt lat="41.9778265" lon="2.20144"><ele>633.0</ele><time>2026-04-25T07:42:09.091Z</time></trkpt><trkpt lat="41.9776213" lon="2.2013137"><ele>636.0</ele><time>2026-04-25T07:42:10.091Z</time></trkpt><trkpt lat="41.9774563" lon="2.2011903"><ele>639.0</ele><time>2026-04-25T07:42:11.091Z</time></trkpt><trkpt lat="41.9773362" lon="2.2010413"><ele>639.0</ele><time>2026-04-25T07:42:12.091Z</time></trkpt><trkpt lat="41.9772761" lon="2.2008774"><ele>639.0</ele><time>2026-04-25T07:42:13.092Z</time></trkpt><trkpt lat="41.9772712" lon="2.2006964"><ele>639.0</ele><time>2026-04-25T07:42:14.091Z</time></trkpt><trkpt lat="41.9773231" lon="2.2004761"><ele>639.0</ele><time>2026-04-25T07:42:15.091Z</time></trkpt><trkpt lat="41.9774301" lon="2.2002537"><ele>642.0</ele><time>2026-04-25T07:42:16.091Z</time></trkpt><trkpt lat="41.9775909" lon="2.200035"><ele>645.0</ele><time>2026-04-25T07:42:17.091Z</time></trkpt><trkpt lat="41.9777923" lon="2.1998212"><ele>650.0</ele><time>2026-04-25T07:42:18.091Z</time></trkpt><trkpt lat="41.9780178" lon="2.1995882"><ele>655.0</ele><time>2026-04-25T07:42:19.091Z</time></trkpt><trkpt lat="41.9782509" lon="2.1993434"><ele>655.5</ele><time>2026-04-25T07:42:20.092Z</time></trkpt><trkpt lat="41.9784604" lon="2.1991349"><ele>656.0</ele><time>2026-04-25T07:42:21.091Z</time></trkpt><trkpt lat="41.9786694" lon="2.1989765"><ele>662.5</ele><time>2026-04-25T07:42:22.091Z</time></trkpt><trkpt lat="41.9789021" lon="2.1988825"><ele>669.0</ele><time>2026-04-25T07:42:23.091Z</time></trkpt><trkpt lat="41.9791728" lon="2.1988216"><ele>670.5</ele><time>2026-04-25T07:42:24.091Z</time></trkpt><trkpt lat="41.9794615" lon="2.1987832"><ele>672.0</ele><time>2026-04-25T07:42:25.09Z</time></trkpt><trkpt lat="41.9797569" lon="2.1987432"><ele>672.0</ele><time>2026-04-25T07:42:26.09Z</time></trkpt><trkpt lat="41.9799974" lon="2.1987132"><ele>672.0</ele><time>2026-04-25T07:42:27.091Z</time></trkpt><trkpt lat="41.9801981" lon="2.1986899"><ele>672.0</ele><time>2026-04-25T07:42:28.091Z</time></trkpt><trkpt lat="41.9803602" lon="2.1986632"><ele>671.8</ele><time>2026-04-25T07:42:29.092Z</time></trkpt><trkpt lat="41.9804783" lon="2.1986073"><ele>671.6</ele><time>2026-04-25T07:42:30.091Z</time></trkpt><trkpt lat="41.9805532" lon="2.1985141"><ele>671.4</ele><time>2026-04-25T07:42:31.09Z</time></trkpt><trkpt lat="41.9805782" lon="2.1983968"><ele>671.1999999999999</ele><time>2026-04-25T07:42:32.09Z</time></trkpt><trkpt lat="41.980535" lon="2.1982802"><ele>671.0</ele><time>2026-04-25T07:42:33.092Z</time></trkpt><trkpt lat="41.9804463" lon="2.1981959"><ele>675.0</ele><time>2026-04-25T07:42:34.09Z</time></trkpt><trkpt lat="41.9803161" lon="2.1981578"><ele>679.0</ele><time>2026-04-25T07:42:35.09Z</time></trkpt><trkpt lat="41.9801487" lon="2.1981114"><ele>683.0</ele><time>2026-04-25T07:42:36.09Z</time></trkpt><trkpt lat="41.9799829" lon="2.1979914"><ele>683.0</ele><time>2026-04-25T07:42:37.09Z</time></trkpt><trkpt lat="41.9797966" lon="2.1978078"><ele>683.0</ele><time>2026-04-25T07:42:38.091Z</time></trkpt><trkpt lat="41.9795886" lon="2.1975803"><ele>688.0</ele><time>2026-04-25T07:42:39.091Z</time></trkpt><trkpt lat="41.9793642" lon="2.1973199"><ele>693.0</ele><time>2026-04-25T07:42:40.092Z</time></trkpt><trkpt lat="41.9791206" lon="2.1970462"><ele>693.0</ele><time>2026-04-25T07:42:41.091Z</time></trkpt><trkpt lat="41.9788957" lon="2.1967848"><ele>693.0</ele><time>2026-04-25T07:42:42.091Z</time></trkpt><trkpt lat="41.9787015" lon="2.196527"><ele>698.0</ele><time>2026-04-25T07:42:43.092Z</time></trkpt><trkpt lat="41.9785489" lon="2.1962407"><ele>703.0</ele><time>2026-04-25T07:42:44.091Z</time></trkpt><trkpt lat="41.9784359" lon="2.1959692"><ele>704.0</ele><time>2026-04-25T07:42:45.091Z</time></trkpt><trkpt lat="41.9783375" lon="2.1957302"><ele>705.0</ele><time>2026-04-25T07:42:46.091Z</time></trkpt><trkpt lat="41.9782123" lon="2.1955581"><ele>706.0</ele><time>2026-04-25T07:42:47.091Z</time></trkpt><trkpt lat="41.9780503" lon="2.1954276"><ele>706.0</ele><time>2026-04-25T07:42:48.09Z</time></trkpt><trkpt lat="41.9778442" lon="2.1953269"><ele>706.0</ele><time>2026-04-25T07:42:49.09Z</time></trkpt><trkpt lat="41.9776339" lon="2.1952462"><ele>706.0</ele><time>2026-04-25T07:42:50.091Z</time></trkpt><trkpt lat="41.9774545" lon="2.1951597"><ele>704.6666666666667</ele><time>2026-04-25T07:42:51.091Z</time></trkpt><trkpt lat="41.9772984" lon="2.1950225"><ele>703.3333333333334</ele><time>2026-04-25T07:42:52.091Z</time></trkpt><trkpt lat="41.9771496" lon="2.1948045"><ele>702.0</ele><time>2026-04-25T07:42:53.091Z</time></trkpt><trkpt lat="41.9769951" lon="2.1945326"><ele>707.5</ele><time>2026-04-25T07:42:54.091Z</time></trkpt><trkpt lat="41.9768412" lon="2.1942335"><ele>713.0</ele><time>2026-04-25T07:42:55.091Z</time></trkpt><trkpt lat="41.9767118" lon="2.1939742"><ele>710.6666666666666</ele><time>2026-04-25T07:42:56.091Z</time></trkpt><trkpt lat="41.9766222" lon="2.1937354"><ele>708.3333333333334</ele><time>2026-04-25T07:42:57.091Z</time></trkpt><trkpt lat="41.976575" lon="2.1934979"><ele>706.0</ele><time>2026-04-25T07:42:58.091Z</time></trkpt><trkpt lat="41.9765807" lon="2.1932547"><ele>705.6666666666667</ele><time>2026-04-25T07:42:59.09Z</time></trkpt><trkpt lat="41.9766235" lon="2.1929959"><ele>705.3333333333334</ele><time>2026-04-25T07:43:00.091Z</time></trkpt><trkpt lat="41.9767212" lon="2.192724"><ele>705.0</ele><time>2026-04-25T07:43:01.09Z</time></trkpt><trkpt lat="41.976863" lon="2.1924391"><ele>715.0</ele><time>2026-04-25T07:43:02.091Z</time></trkpt><trkpt lat="41.9770291" lon="2.1921366"><ele>725.0</ele><time>2026-04-25T07:43:03.091Z</time></trkpt><trkpt lat="41.9772094" lon="2.191802"><ele>723.5</ele><time>2026-04-25T07:43:04.091Z</time></trkpt><trkpt lat="41.9773748" lon="2.1914933"><ele>722.0</ele><time>2026-04-25T07:43:05.09Z</time></trkpt><trkpt lat="41.977521" lon="2.1912223"><ele>728.0</ele><time>2026-04-25T07:43:06.09Z</time></trkpt><trkpt lat="41.9776388" lon="2.1909696"><ele>734.0</ele><time>2026-04-25T07:43:07.091Z</time></trkpt><trkpt lat="41.9777065" lon="2.1906942"><ele>740.0</ele><time>2026-04-25T07:43:08.09Z</time></trkpt><trkpt lat="41.97774" lon="2.190384"><ele>741.0</ele><time>2026-04-25T07:43:09.092Z</time></trkpt><trkpt lat="41.9777576" lon="2.1900402"><ele>742.0</ele><time>2026-04-25T07:43:10.091Z</time></trkpt><trkpt lat="41.977764" lon="2.1896784"><ele>744.6666666666667</ele><time>2026-04-25T07:43:11.091Z</time></trkpt><trkpt lat="41.9777807" lon="2.1893766"><ele>747.3333333333334</ele><time>2026-04-25T07:43:12.091Z</time></trkpt><trkpt lat="41.9777831" lon="2.1891338"><ele>750.0</ele><time>2026-04-25T07:43:13.092Z</time></trkpt><trkpt lat="41.9777799" lon="2.1889012"><ele>747.6666666666666</ele><time>2026-04-25T07:43:14.09Z</time></trkpt><trkpt lat="41.9776497" lon="2.1887755"><ele>745.3333333333333</ele><time>2026-04-25T07:43:15.091Z</time></trkpt><trkpt lat="41.9775198" lon="2.1886322"><ele>743.0</ele><time>2026-04-25T07:43:16.091Z</time></trkpt><trkpt lat="41.9773135" lon="2.1884957"><ele>743.0</ele><time>2026-04-25T07:43:17.092Z</time></trkpt><trkpt lat="41.9770856" lon="2.1883432"><ele>743.0</ele><time>2026-04-25T07:43:18.09Z</time></trkpt><trkpt lat="41.9768702" lon="2.1881945"><ele>743.6666666666666</ele><time>2026-04-25T07:43:19.091Z</time></trkpt><trkpt lat="41.976688" lon="2.1880369"><ele>744.3333333333334</ele><time>2026-04-25T07:43:20.09Z</time></trkpt><trkpt lat="41.9765212" lon="2.1878211"><ele>745.0</ele><time>2026-04-25T07:43:21.091Z</time></trkpt><trkpt lat="41.9763599" lon="2.1875693"><ele>755.0</ele><time>2026-04-25T07:43:22.091Z</time></trkpt><trkpt lat="41.9762419" lon="2.1873146"><ele>765.0</ele><time>2026-04-25T07:43:23.09Z</time></trkpt><trkpt lat="41.976153" lon="2.1870273"><ele>765.0</ele><time>2026-04-25T07:43:24.091Z</time></trkpt><trkpt lat="41.976067" lon="2.1867058"><ele>765.0</ele><time>2026-04-25T07:43:25.091Z</time></trkpt><trkpt lat="41.9759474" lon="2.186355"><ele>757.5</ele><time>2026-04-25T07:43:26.09Z</time></trkpt><trkpt lat="41.9758258" lon="2.1860151"><ele>750.0</ele><time>2026-04-25T07:43:27.09Z</time></trkpt><trkpt lat="41.9757431" lon="2.1857037"><ele>751.3333333333334</ele><time>2026-04-25T07:43:28.091Z</time></trkpt><trkpt lat="41.9756987" lon="2.1854096"><ele>752.6666666666667</ele><time>2026-04-25T07:43:29.091Z</time></trkpt><trkpt lat="41.9756996" lon="2.1851345"><ele>754.0</ele><time>2026-04-25T07:43:30.091Z</time></trkpt><trkpt lat="41.9757493" lon="2.1848401"><ele>754.0</ele><time>2026-04-25T07:43:31.092Z</time></trkpt><trkpt lat="41.9758146" lon="2.1845148"><ele>754.0</ele><time>2026-04-25T07:43:32.091Z</time></trkpt><trkpt lat="41.9758909" lon="2.1842034"><ele>765.3333333333334</ele><time>2026-04-25T07:43:33.091Z</time></trkpt><trkpt lat="41.9759885" lon="2.1839555"><ele>776.6666666666667</ele><time>2026-04-25T07:43:34.091Z</time></trkpt><trkpt lat="41.976093" lon="2.1837604"><ele>788.0</ele><time>2026-04-25T07:43:35.091Z</time></trkpt><trkpt lat="41.9761533" lon="2.1835907"><ele>788.0</ele><time>2026-04-25T07:43:36.091Z</time></trkpt><trkpt lat="41.9761508" lon="2.1834006"><ele>788.0</ele><time>2026-04-25T07:43:37.092Z</time></trkpt><trkpt lat="41.9760905" lon="2.1831892"><ele>788.0</ele><time>2026-04-25T07:43:38.091Z</time></trkpt><trkpt lat="41.9760126" lon="2.1829761"><ele>790.5</ele><time>2026-04-25T07:43:39.091Z</time></trkpt><trkpt lat="41.9758551" lon="2.1826519"><ele>793.0</ele><time>2026-04-25T07:43:40.091Z</time></trkpt><trkpt lat="41.975716" lon="2.1823339"><ele>793.0</ele><time>2026-04-25T07:43:41.092Z</time></trkpt><trkpt lat="41.9755921" lon="2.1820305"><ele>793.0</ele><time>2026-04-25T07:43:42.091Z</time></trkpt><trkpt lat="41.9754793" lon="2.1817703"><ele>793.0</ele><time>2026-04-25T07:43:43.091Z</time></trkpt><trkpt lat="41.9753507" lon="2.1815586"><ele>793.0</ele><time>2026-04-25T07:43:44.091Z</time></trkpt><trkpt lat="41.9751845" lon="2.1813912"><ele>793.0</ele><time>2026-04-25T07:43:45.092Z</time></trkpt><trkpt lat="41.9749739" lon="2.1812482"><ele>793.3333333333333</ele><time>2026-04-25T07:43:46.09Z</time></trkpt><trkpt lat="41.9747747" lon="2.181121"><ele>793.6666666666667</ele><time>2026-04-25T07:43:47.09Z</time></trkpt><trkpt lat="41.9745602" lon="2.1810704"><ele>794.0</ele><time>2026-04-25T07:43:48.09Z</time></trkpt><trkpt lat="41.9743538" lon="2.1810309"><ele>790.3333333333334</ele><time>2026-04-25T07:43:49.09Z</time></trkpt><trkpt lat="41.9741828" lon="2.1809532"><ele>786.6666666666667</ele><time>2026-04-25T07:43:50.091Z</time></trkpt><trkpt lat="41.9740151" lon="2.1807825"><ele>783.0</ele><time>2026-04-25T07:43:51.092Z</time></trkpt><trkpt lat="41.9738351" lon="2.1805899"><ele>790.3333333333333</ele><time>2026-04-25T07:43:52.09Z</time></trkpt><trkpt lat="41.9736747" lon="2.1804357"><ele>797.6666666666666</ele><time>2026-04-25T07:43:53.091Z</time></trkpt><trkpt lat="41.9735075" lon="2.180332"><ele>805.0</ele><time>2026-04-25T07:43:54.091Z</time></trkpt><trkpt lat="41.9733201" lon="2.1802878"><ele>805.0</ele><time>2026-04-25T07:43:55.091Z</time></trkpt><trkpt lat="41.9731571" lon="2.1802843"><ele>805.0</ele><time>2026-04-25T07:43:56.091Z</time></trkpt><trkpt lat="41.97302" lon="2.1803468"><ele>805.0</ele><time>2026-04-25T07:43:57.092Z</time></trkpt><trkpt lat="41.9728848" lon="2.1804743"><ele>805.0</ele><time>2026-04-25T07:43:58.092Z</time></trkpt><trkpt lat="41.9727473" lon="2.1806264"><ele>805.0</ele><time>2026-04-25T07:43:59.091Z</time></trkpt><trkpt lat="41.972606" lon="2.180703"><ele>805.0</ele><time>2026-04-25T07:44:00.09Z</time></trkpt><trkpt lat="41.9724344" lon="2.1807067"><ele>811.0</ele><time>2026-04-25T07:44:01.092Z</time></trkpt><trkpt lat="41.972252" lon="2.180631"><ele>817.0</ele><time>2026-04-25T07:44:02.091Z</time></trkpt><trkpt lat="41.972035" lon="2.1805455"><ele>823.0</ele><time>2026-04-25T07:44:03.091Z</time></trkpt><trkpt lat="41.9718469" lon="2.180438"><ele>826.0</ele><time>2026-04-25T07:44:04.091Z</time></trkpt><trkpt lat="41.9716734" lon="2.180285"><ele>829.0</ele><time>2026-04-25T07:44:05.092Z</time></trkpt><trkpt lat="41.9715135" lon="2.1800572"><ele>832.0</ele><time>2026-04-25T07:44:06.091Z</time></trkpt><trkpt lat="41.9713695" lon="2.1797837"><ele>832.0</ele><time>2026-04-25T07:44:07.092Z</time></trkpt><trkpt lat="41.9712483" lon="2.1794622"><ele>832.0</ele><time>2026-04-25T07:44:08.091Z</time></trkpt><trkpt lat="41.9711387" lon="2.1791659"><ele>827.5</ele><time>2026-04-25T07:44:09.091Z</time></trkpt><trkpt lat="41.9710047" lon="2.1789107"><ele>823.0</ele><time>2026-04-25T07:44:10.091Z</time></trkpt><trkpt lat="41.9708185" lon="2.1786621"><ele>823.0</ele><time>2026-04-25T07:44:11.09Z</time></trkpt><trkpt lat="41.9706369" lon="2.1783786"><ele>823.0</ele><time>2026-04-25T07:44:12.092Z</time></trkpt><trkpt lat="41.9704757" lon="2.1781268"><ele>834.5</ele><time>2026-04-25T07:44:13.091Z</time></trkpt><trkpt lat="41.9702839" lon="2.1779236"><ele>846.0</ele><time>2026-04-25T07:44:14.092Z</time></trkpt><trkpt lat="41.9700604" lon="2.1777605"><ele>846.5</ele><time>2026-04-25T07:44:15.09Z</time></trkpt><trkpt lat="41.9698436" lon="2.1775565"><ele>847.0</ele><time>2026-04-25T07:44:16.09Z</time></trkpt><trkpt lat="41.9696279" lon="2.1773313"><ele>847.0</ele><time>2026-04-25T07:44:17.091Z</time></trkpt><trkpt lat="41.9693812" lon="2.1771473"><ele>847.0</ele><time>2026-04-25T07:44:18.091Z</time></trkpt><trkpt lat="41.9691579" lon="2.1770091"><ele>841.0</ele><time>2026-04-25T07:44:19.091Z</time></trkpt><trkpt lat="41.9689811" lon="2.1769222"><ele>835.0</ele><time>2026-04-25T07:44:20.091Z</time></trkpt><trkpt lat="41.9688471" lon="2.1768288"><ele>829.0</ele><time>2026-04-25T07:44:21.09Z</time></trkpt><trkpt lat="41.9687232" lon="2.1767252"><ele>829.6666666666666</ele><time>2026-04-25T07:44:22.091Z</time></trkpt><trkpt lat="41.9687264" lon="2.1765048"><ele>830.3333333333333</ele><time>2026-04-25T07:44:23.09Z</time></trkpt><trkpt lat="41.9687536" lon="2.1763066"><ele>831.0</ele><time>2026-04-25T07:44:24.091Z</time></trkpt><trkpt lat="41.9688381" lon="2.1760903"><ele>831.0</ele><time>2026-04-25T07:44:25.091Z</time></trkpt><trkpt lat="41.9689595" lon="2.1758697"><ele>831.0</ele><time>2026-04-25T07:44:26.09Z</time></trkpt><trkpt lat="41.9691148" lon="2.1756626"><ele>831.0</ele><time>2026-04-25T07:44:27.091Z</time></trkpt><trkpt lat="41.969314" lon="2.17548"><ele>831.6666666666667</ele><time>2026-04-25T07:44:28.09Z</time></trkpt><trkpt lat="41.969487" lon="2.1753115"><ele>832.3333333333334</ele><time>2026-04-25T07:44:29.091Z</time></trkpt><trkpt lat="41.9696202" lon="2.175158"><ele>833.0</ele><time>2026-04-25T07:44:30.091Z</time></trkpt><trkpt lat="41.9697331" lon="2.1750419"><ele>833.0</ele><time>2026-04-25T07:44:31.091Z</time></trkpt><trkpt lat="41.9698473" lon="2.1749847"><ele>833.0</ele><time>2026-04-25T07:44:32.09Z</time></trkpt><trkpt lat="41.9699652" lon="2.1749951"><ele>833.0</ele><time>2026-04-25T07:44:33.091Z</time></trkpt><trkpt lat="41.9700702" lon="2.1750761"><ele>833.0</ele><time>2026-04-25T07:44:34.092Z</time></trkpt><trkpt lat="41.9701602" lon="2.1751888"><ele>834.2</ele><time>2026-04-25T07:44:35.09Z</time></trkpt><trkpt lat="41.9702393" lon="2.1753029"><ele>835.4</ele><time>2026-04-25T07:44:36.092Z</time></trkpt><trkpt lat="41.9703106" lon="2.1754129"><ele>836.6</ele><time>2026-04-25T07:44:37.091Z</time></trkpt><trkpt lat="41.970382" lon="2.1755221"><ele>837.8000000000001</ele><time>2026-04-25T07:44:38.091Z</time></trkpt><trkpt lat="41.9704501" lon="2.1756246"><ele>839.0</ele><time>2026-04-25T07:44:39.091Z</time></trkpt><trkpt lat="41.9705191" lon="2.1757261"><ele>839.0</ele><time>2026-04-25T07:44:40.091Z</time></trkpt><trkpt lat="41.9705865" lon="2.1758338"><ele>839.0</ele><time>2026-04-25T07:44:41.09Z</time></trkpt><trkpt lat="41.9706563" lon="2.1759443"><ele>839.0</ele><time>2026-04-25T07:44:42.092Z</time></trkpt><trkpt lat="41.9707292" lon="2.1760547"><ele>839.0</ele><time>2026-04-25T07:44:43.091Z</time></trkpt><trkpt lat="41.9708053" lon="2.1761673"><ele>839.0</ele><time>2026-04-25T07:44:44.091Z</time></trkpt><trkpt lat="41.9708796" lon="2.1762853"><ele>837.25</ele><time>2026-04-25T07:44:45.091Z</time></trkpt><trkpt lat="41.9709584" lon="2.1764035"><ele>835.5</ele><time>2026-04-25T07:44:46.091Z</time></trkpt><trkpt lat="41.971046" lon="2.1765148"><ele>833.75</ele><time>2026-04-25T07:44:47.091Z</time></trkpt><trkpt lat="41.9711422" lon="2.1766098"><ele>832.0</ele><time>2026-04-25T07:44:48.092Z</time></trkpt><trkpt lat="41.9712519" lon="2.1766838"><ele>835.75</ele><time>2026-04-25T07:44:49.09Z</time></trkpt><trkpt lat="41.9713704" lon="2.1767302"><ele>839.5</ele><time>2026-04-25T07:44:50.09Z</time></trkpt><trkpt lat="41.9714944" lon="2.1767527"><ele>843.25</ele><time>2026-04-25T07:44:51.091Z</time></trkpt><trkpt lat="41.9716149" lon="2.1767424"><ele>847.0</ele><time>2026-04-25T07:44:52.09Z</time></trkpt><trkpt lat="41.9717322" lon="2.176708"><ele>846.25</ele><time>2026-04-25T07:44:53.091Z</time></trkpt><trkpt lat="41.9718454" lon="2.1766638"><ele>845.5</ele><time>2026-04-25T07:44:54.09Z</time></trkpt><trkpt lat="41.9719593" lon="2.1766128"><ele>844.75</ele><time>2026-04-25T07:44:55.091Z</time></trkpt><trkpt lat="41.972067" lon="2.1765487"><ele>844.0</ele><time>2026-04-25T07:44:56.09Z</time></trkpt><trkpt lat="41.9721692" lon="2.1764665"><ele>844.0</ele><time>2026-04-25T07:44:57.09Z</time></trkpt><trkpt lat="41.972267" lon="2.1763707"><ele>844.0</ele><time>2026-04-25T07:44:58.092Z</time></trkpt><trkpt lat="41.9723627" lon="2.1762796"><ele>844.0</ele><time>2026-04-25T07:44:59.091Z</time></trkpt><trkpt lat="41.9724531" lon="2.1761956"><ele>844.0</ele><time>2026-04-25T07:45:00.092Z</time></trkpt><trkpt lat="41.9725455" lon="2.1761235"><ele>845.25</ele><time>2026-04-25T07:45:01.091Z</time></trkpt><trkpt lat="41.9726427" lon="2.1760654"><ele>846.5</ele><time>2026-04-25T07:45:02.09Z</time></trkpt><trkpt lat="41.9727486" lon="2.1760151"><ele>847.75</ele><time>2026-04-25T07:45:03.091Z</time></trkpt><trkpt lat="41.9728616" lon="2.1759862"><ele>849.0</ele><time>2026-04-25T07:45:04.09Z</time></trkpt><trkpt lat="41.9729805" lon="2.1759793"><ele>849.0</ele><time>2026-04-25T07:45:05.09Z</time></trkpt><trkpt lat="41.9731018" lon="2.1760017"><ele>849.0</ele><time>2026-04-25T07:45:06.091Z</time></trkpt><trkpt lat="41.9732173" lon="2.1760542"><ele>849.0</ele><time>2026-04-25T07:45:07.091Z</time></trkpt><trkpt lat="41.9733315" lon="2.1761191"><ele>849.0</ele><time>2026-04-25T07:45:08.092Z</time></trkpt><trkpt lat="41.9734458" lon="2.1761885"><ele>848.5</ele><time>2026-04-25T07:45:09.091Z</time></trkpt><trkpt lat="41.97356" lon="2.1762554"><ele>848.0</ele><time>2026-04-25T07:45:10.091Z</time></trkpt><trkpt lat="41.9736754" lon="2.1763237"><ele>847.5</ele><time>2026-04-25T07:45:11.09Z</time></trkpt><trkpt lat="41.9737873" lon="2.1763934"><ele>847.0</ele><time>2026-04-25T07:45:12.091Z</time></trkpt><trkpt lat="41.9738987" lon="2.1764581"><ele>850.0</ele><time>2026-04-25T07:45:13.091Z</time></trkpt><trkpt lat="41.9740085" lon="2.1765202"><ele>853.0</ele><time>2026-04-25T07:45:14.091Z</time></trkpt><trkpt lat="41.9741205" lon="2.1765806"><ele>856.0</ele><time>2026-04-25T07:45:15.091Z</time></trkpt><trkpt lat="41.9742261" lon="2.1766433"><ele>859.0</ele><time>2026-04-25T07:45:16.091Z</time></trkpt><trkpt lat="41.974335" lon="2.1767075"><ele>859.25</ele><time>2026-04-25T07:45:17.091Z</time></trkpt><trkpt lat="41.9744432" lon="2.1767715"><ele>859.5</ele><time>2026-04-25T07:45:18.091Z</time></trkpt><trkpt lat="41.9745523" lon="2.1768355"><ele>859.75</ele><time>2026-04-25T07:45:19.091Z</time></trkpt><trkpt lat="41.9746605" lon="2.1769031"><ele>860.0</ele><time>2026-04-25T07:45:20.09Z</time></trkpt><trkpt lat="41.9747693" lon="2.1769722"><ele>860.0</ele><time>2026-04-25T07:45:21.091Z</time></trkpt><trkpt lat="41.9748775" lon="2.1770426"><ele>860.0</ele><time>2026-04-25T07:45:22.091Z</time></trkpt><trkpt lat="41.9749898" lon="2.1771111"><ele>860.0</ele><time>2026-04-25T07:45:23.091Z</time></trkpt><trkpt lat="41.9751056" lon="2.1771841"><ele>860.0</ele><time>2026-04-25T07:45:24.091Z</time></trkpt><trkpt lat="41.9752185" lon="2.1772548"><ele>860.5</ele><time>2026-04-25T07:45:25.092Z</time></trkpt><trkpt lat="41.9753304" lon="2.1773212"><ele>861.0</ele><time>2026-04-25T07:45:26.09Z</time></trkpt><trkpt lat="41.9754467" lon="2.1773803"><ele>861.5</ele><time>2026-04-25T07:45:27.091Z</time></trkpt><trkpt lat="41.9755695" lon="2.177415"><ele>862.0</ele><time>2026-04-25T07:45:28.091Z</time></trkpt><trkpt lat="41.9756894" lon="2.1774078"><ele>862.2</ele><time>2026-04-25T07:45:29.091Z</time></trkpt><trkpt lat="41.9758027" lon="2.177363"><ele>862.4000000000001</ele><time>2026-04-25T07:45:30.091Z</time></trkpt><trkpt lat="41.9759084" lon="2.1772962"><ele>862.5999999999999</ele><time>2026-04-25T07:45:31.091Z</time></trkpt><trkpt lat="41.9760029" lon="2.1772286"><ele>862.8</ele><time>2026-04-25T07:45:32.09Z</time></trkpt><trkpt lat="41.9760871" lon="2.17717"><ele>863.0</ele><time>2026-04-25T07:45:33.09Z</time></trkpt><trkpt lat="41.9761607" lon="2.1771166"><ele>863.0000000000001</ele><time>2026-04-25T07:45:34.091Z</time></trkpt><trkpt lat="41.9762318" lon="2.1770707"><ele>863.0</ele><time>2026-04-25T07:45:35.092Z</time></trkpt><trkpt lat="41.9763021" lon="2.1770326"><ele>863.0</ele><time>2026-04-25T07:45:36.09Z</time></trkpt><trkpt lat="41.9763725" lon="2.1770043"><ele>863.0</ele><time>2026-04-25T07:45:37.092Z</time></trkpt><trkpt lat="41.9764528" lon="2.1769874"><ele>863.0000000000001</ele><time>2026-04-25T07:45:38.091Z</time></trkpt><trkpt lat="41.9765401" lon="2.1769907"><ele>863.0</ele><time>2026-04-25T07:45:39.09Z</time></trkpt><trkpt lat="41.9766329" lon="2.1770154"><ele>862.5</ele><time>2026-04-25T07:45:40.09Z</time></trkpt><trkpt lat="41.9767362" lon="2.1770551"><ele>862.0</ele><time>2026-04-25T07:45:41.092Z</time></trkpt><trkpt lat="41.9768486" lon="2.1771133"><ele>861.5</ele><time>2026-04-25T07:45:42.091Z</time></trkpt><trkpt lat="41.9769669" lon="2.1771771"><ele>861.0</ele><time>2026-04-25T07:45:43.091Z</time></trkpt><trkpt lat="41.9770864" lon="2.1772436"><ele>861.0</ele><time>2026-04-25T07:45:44.09Z</time></trkpt><trkpt lat="41.9772098" lon="2.1773143"><ele>861.0</ele><time>2026-04-25T07:45:45.092Z</time></trkpt><trkpt lat="41.9773305" lon="2.1774042"><ele>861.0</ele><time>2026-04-25T07:45:46.092Z</time></trkpt><trkpt lat="41.9774487" lon="2.1775089"><ele>861.0</ele><time>2026-04-25T07:45:47.09Z</time></trkpt><trkpt lat="41.9775653" lon="2.1776188"><ele>861.75</ele><time>2026-04-25T07:45:48.091Z</time></trkpt><trkpt lat="41.9776771" lon="2.1777302"><ele>862.5</ele><time>2026-04-25T07:45:49.092Z</time></trkpt><trkpt lat="41.9777815" lon="2.177838"><ele>863.25</ele><time>2026-04-25T07:45:50.092Z</time></trkpt><trkpt lat="41.9778741" lon="2.1779325"><ele>864.0</ele><time>2026-04-25T07:45:51.091Z</time></trkpt><trkpt lat="41.977956" lon="2.1780109"><ele>864.0</ele><time>2026-04-25T07:45:52.091Z</time></trkpt><trkpt lat="41.9780344" lon="2.1780929"><ele>864.0000000000001</ele><time>2026-04-25T07:45:53.091Z</time></trkpt><trkpt lat="41.9781118" lon="2.178173"><ele>864.0000000000001</ele><time>2026-04-25T07:45:54.09Z</time></trkpt><trkpt lat="41.9781896" lon="2.1782483"><ele>864.0</ele><time>2026-04-25T07:45:55.091Z</time></trkpt><trkpt lat="41.9782712" lon="2.1783131"><ele>864.0</ele><time>2026-04-25T07:45:56.09Z</time></trkpt><trkpt lat="41.9783646" lon="2.1783792"><ele>866.0</ele><time>2026-04-25T07:45:57.091Z</time></trkpt><trkpt lat="41.9784723" lon="2.1784325"><ele>868.0</ele><time>2026-04-25T07:45:58.091Z</time></trkpt><trkpt lat="41.9785957" lon="2.1784832"><ele>870.0</ele><time>2026-04-25T07:45:59.091Z</time></trkpt><trkpt lat="41.9787333" lon="2.1785283"><ele>872.0</ele><time>2026-04-25T07:46:00.092Z</time></trkpt><trkpt lat="41.9788639" lon="2.1785734"><ele>872.0</ele><time>2026-04-25T07:46:01.091Z</time></trkpt><trkpt lat="41.9789886" lon="2.1786098"><ele>872.0</ele><time>2026-04-25T07:46:02.09Z</time></trkpt><trkpt lat="41.9791058" lon="2.178637"><ele>872.0</ele><time>2026-04-25T07:46:03.091Z</time></trkpt><trkpt lat="41.9792145" lon="2.1786382"><ele>872.0</ele><time>2026-04-25T07:46:04.091Z</time></trkpt><trkpt lat="41.9793195" lon="2.1785969"><ele>873.5</ele><time>2026-04-25T07:46:05.091Z</time></trkpt><trkpt lat="41.9794103" lon="2.1785148"><ele>875.0</ele><time>2026-04-25T07:46:06.091Z</time></trkpt><trkpt lat="41.9794871" lon="2.1784027"><ele>876.5</ele><time>2026-04-25T07:46:07.09Z</time></trkpt><trkpt lat="41.9795529" lon="2.1782718"><ele>878.0</ele><time>2026-04-25T07:46:08.091Z</time></trkpt><trkpt lat="41.9796147" lon="2.1781351"><ele>878.0</ele><time>2026-04-25T07:46:09.09Z</time></trkpt><trkpt lat="41.9796766" lon="2.1779959"><ele>878.0</ele><time>2026-04-25T07:46:10.09Z</time></trkpt><trkpt lat="41.9797345" lon="2.1778589"><ele>878.0</ele><time>2026-04-25T07:46:11.091Z</time></trkpt><trkpt lat="41.9797908" lon="2.1777279"><ele>878.0</ele><time>2026-04-25T07:46:12.091Z</time></trkpt><trkpt lat="41.9798504" lon="2.1775972"><ele>878.0</ele><time>2026-04-25T07:46:13.091Z</time></trkpt><trkpt lat="41.9799097" lon="2.1774661"><ele>878.0</ele><time>2026-04-25T07:46:14.092Z</time></trkpt><trkpt lat="41.9799683" lon="2.1773437"><ele>878.0</ele><time>2026-04-25T07:46:15.091Z</time></trkpt><trkpt lat="41.9800268" lon="2.1772307"><ele>878.0</ele><time>2026-04-25T07:46:16.091Z</time></trkpt><trkpt lat="41.9800821" lon="2.1771287"><ele>878.0</ele><time>2026-04-25T07:46:17.091Z</time></trkpt><trkpt lat="41.9801322" lon="2.1770407"><ele>878.1666666666667</ele><time>2026-04-25T07:46:18.092Z</time></trkpt><trkpt lat="41.9801822" lon="2.1769569"><ele>878.3333333333334</ele><time>2026-04-25T07:46:19.091Z</time></trkpt><trkpt lat="41.9802319" lon="2.176885"><ele>878.5</ele><time>2026-04-25T07:46:20.091Z</time></trkpt><trkpt lat="41.9802865" lon="2.1768366"><ele>878.6666666666667</ele><time>2026-04-25T07:46:21.09Z</time></trkpt><trkpt lat="41.9803903" lon="2.1767916"><ele>878.8333333333334</ele><time>2026-04-25T07:46:23.092Z</time></trkpt><trkpt lat="41.9804535" lon="2.1766712"><ele>879.0</ele><time>2026-04-25T07:46:25.092Z</time></trkpt><trkpt lat="41.9804846" lon="2.176593"><ele>878.6666666666666</ele><time>2026-04-25T07:46:26.091Z</time></trkpt><trkpt lat="41.9805253" lon="2.1765124"><ele>878.3333333333333</ele><time>2026-04-25T07:46:27.091Z</time></trkpt><trkpt lat="41.980573" lon="2.1764252"><ele>878.0</ele><time>2026-04-25T07:46:28.09Z</time></trkpt><trkpt lat="41.980626" lon="2.1763341"><ele>877.6666666666666</ele><time>2026-04-25T07:46:29.09Z</time></trkpt><trkpt lat="41.9806771" lon="2.1762423"><ele>877.3333333333333</ele><time>2026-04-25T07:46:30.09Z</time></trkpt><trkpt lat="41.9807225" lon="2.1761485"><ele>877.0</ele><time>2026-04-25T07:46:31.092Z</time></trkpt><trkpt lat="41.980765" lon="2.1760514"><ele>876.9999999999999</ele><time>2026-04-25T07:46:32.09Z</time></trkpt><trkpt lat="41.9808034" lon="2.1759475"><ele>877.0</ele><time>2026-04-25T07:46:33.09Z</time></trkpt><trkpt lat="41.9808371" lon="2.1758381"><ele>877.0</ele><time>2026-04-25T07:46:34.09Z</time></trkpt><trkpt lat="41.9808686" lon="2.1757269"><ele>877.0</ele><time>2026-04-25T07:46:35.091Z</time></trkpt><trkpt lat="41.9809005" lon="2.1756156"><ele>876.9999999999999</ele><time>2026-04-25T07:46:36.091Z</time></trkpt><trkpt lat="41.9809337" lon="2.1755067"><ele>877.0</ele><time>2026-04-25T07:46:37.09Z</time></trkpt><trkpt lat="41.9809666" lon="2.1754005"><ele>878.0</ele><time>2026-04-25T07:46:38.091Z</time></trkpt><trkpt lat="41.980994" lon="2.175297"><ele>879.0</ele><time>2026-04-25T07:46:39.091Z</time></trkpt><trkpt lat="41.9810207" lon="2.1752024"><ele>880.0</ele><time>2026-04-25T07:46:40.091Z</time></trkpt><trkpt lat="41.9810471" lon="2.1751191"><ele>881.0</ele><time>2026-04-25T07:46:41.091Z</time></trkpt><trkpt lat="41.9811051" lon="2.1749852"><ele>882.0</ele><time>2026-04-25T07:46:43.09Z</time></trkpt><trkpt lat="41.9811804" lon="2.174865"><ele>880.8</ele><time>2026-04-25T07:46:45.09Z</time></trkpt><trkpt lat="41.9812764" lon="2.1747621"><ele>879.6</ele><time>2026-04-25T07:46:47.09Z</time></trkpt><trkpt lat="41.9813367" lon="2.1747111"><ele>878.3999999999999</ele><time>2026-04-25T07:46:48.091Z</time></trkpt><trkpt lat="41.9813912" lon="2.1746601"><ele>877.1999999999999</ele><time>2026-04-25T07:46:49.091Z</time></trkpt><trkpt lat="41.9814967" lon="2.174573"><ele>876.0</ele><time>2026-04-25T07:46:51.091Z</time></trkpt><trkpt lat="41.9815564" lon="2.1745239"><ele>876.0</ele><time>2026-04-25T07:46:52.09Z</time></trkpt><trkpt lat="41.9816304" lon="2.1744652"><ele>876.0</ele><time>2026-04-25T07:46:53.091Z</time></trkpt><trkpt lat="41.9817134" lon="2.1744099"><ele>876.0</ele><time>2026-04-25T07:46:54.091Z</time></trkpt><trkpt lat="41.9818016" lon="2.1743572"><ele>876.0</ele><time>2026-04-25T07:46:55.092Z</time></trkpt><trkpt lat="41.9818852" lon="2.1743095"><ele>876.0</ele><time>2026-04-25T07:46:56.091Z</time></trkpt><trkpt lat="41.9819535" lon="2.1742697"><ele>876.0</ele><time>2026-04-25T07:46:57.091Z</time></trkpt><trkpt lat="41.9820124" lon="2.1742356"><ele>876.3333333333334</ele><time>2026-04-25T07:46:58.091Z</time></trkpt><trkpt lat="41.9820726" lon="2.1742043"><ele>876.6666666666667</ele><time>2026-04-25T07:46:59.091Z</time></trkpt><trkpt lat="41.9821369" lon="2.1741701"><ele>877.0</ele><time>2026-04-25T07:47:00.091Z</time></trkpt><trkpt lat="41.9822062" lon="2.1741297"><ele>877.3333333333334</ele><time>2026-04-25T07:47:01.091Z</time></trkpt><trkpt lat="41.9822841" lon="2.1740869"><ele>877.6666666666667</ele><time>2026-04-25T07:47:02.092Z</time></trkpt><trkpt lat="41.9823662" lon="2.1740411"><ele>878.0</ele><time>2026-04-25T07:47:03.09Z</time></trkpt><trkpt lat="41.982449" lon="2.1739938"><ele>876.8</ele><time>2026-04-25T07:47:04.092Z</time></trkpt><trkpt lat="41.9825271" lon="2.1739455"><ele>875.5999999999999</ele><time>2026-04-25T07:47:05.091Z</time></trkpt><trkpt lat="41.9826087" lon="2.1738918"><ele>874.4000000000001</ele><time>2026-04-25T07:47:06.091Z</time></trkpt><trkpt lat="41.9826933" lon="2.1738424"><ele>873.2</ele><time>2026-04-25T07:47:07.091Z</time></trkpt><trkpt lat="41.982776" lon="2.1737941"><ele>872.0</ele><time>2026-04-25T07:47:08.091Z</time></trkpt><trkpt lat="41.9828601" lon="2.1737472"><ele>872.0000000000001</ele><time>2026-04-25T07:47:09.091Z</time></trkpt><trkpt lat="41.9829337" lon="2.1737084"><ele>872.0</ele><time>2026-04-25T07:47:10.092Z</time></trkpt><trkpt lat="41.9829966" lon="2.1736738"><ele>872.0</ele><time>2026-04-25T07:47:11.09Z</time></trkpt><trkpt lat="41.9831103" lon="2.1736146"><ele>872.0</ele><time>2026-04-25T07:47:13.091Z</time></trkpt><trkpt lat="41.9831756" lon="2.1735886"><ele>872.0000000000001</ele><time>2026-04-25T07:47:14.09Z</time></trkpt><trkpt lat="41.9832381" lon="2.1735505"><ele>872.0</ele><time>2026-04-25T07:47:15.091Z</time></trkpt><trkpt lat="41.9833031" lon="2.1735127"><ele>871.1666666666667</ele><time>2026-04-25T07:47:16.092Z</time></trkpt><trkpt lat="41.9833705" lon="2.1734699"><ele>870.3333333333334</ele><time>2026-04-25T07:47:17.091Z</time></trkpt><trkpt lat="41.9834369" lon="2.173432"><ele>869.5</ele><time>2026-04-25T07:47:18.091Z</time></trkpt><trkpt lat="41.983506" lon="2.1733931"><ele>868.6666666666667</ele><time>2026-04-25T07:47:19.09Z</time></trkpt><trkpt lat="41.9835821" lon="2.1733611"><ele>867.8333333333334</ele><time>2026-04-25T07:47:20.091Z</time></trkpt><trkpt lat="41.9836665" lon="2.1733336"><ele>867.0</ele><time>2026-04-25T07:47:21.091Z</time></trkpt><trkpt lat="41.9837557" lon="2.1733022"><ele>867.0</ele><time>2026-04-25T07:47:22.091Z</time></trkpt><trkpt lat="41.9838485" lon="2.1732674"><ele>867.0</ele><time>2026-04-25T07:47:23.092Z</time></trkpt><trkpt lat="41.983947" lon="2.1732316"><ele>867.0</ele><time>2026-04-25T07:47:24.09Z</time></trkpt><trkpt lat="41.9840493" lon="2.1731961"><ele>867.0</ele><time>2026-04-25T07:47:25.091Z</time></trkpt><trkpt lat="41.9841524" lon="2.1731484"><ele>867.0</ele><time>2026-04-25T07:47:26.09Z</time></trkpt><trkpt lat="41.9842549" lon="2.173078"><ele>864.0</ele><time>2026-04-25T07:47:27.09Z</time></trkpt><trkpt lat="41.9843648" lon="2.172992"><ele>861.0</ele><time>2026-04-25T07:47:28.091Z</time></trkpt><trkpt lat="41.9844749" lon="2.1728955"><ele>858.0</ele><time>2026-04-25T07:47:29.09Z</time></trkpt><trkpt lat="41.9845873" lon="2.1727945"><ele>855.0</ele><time>2026-04-25T07:47:30.092Z</time></trkpt><trkpt lat="41.9847022" lon="2.1726899"><ele>855.0</ele><time>2026-04-25T07:47:31.091Z</time></trkpt><trkpt lat="41.9848172" lon="2.1725872"><ele>855.0</ele><time>2026-04-25T07:47:32.092Z</time></trkpt><trkpt lat="41.9849319" lon="2.1724889"><ele>855.0</ele><time>2026-04-25T07:47:33.091Z</time></trkpt><trkpt lat="41.9850425" lon="2.1723952"><ele>855.0</ele><time>2026-04-25T07:47:34.091Z</time></trkpt><trkpt lat="41.9851441" lon="2.1723109"><ele>854.25</ele><time>2026-04-25T07:47:35.091Z</time></trkpt><trkpt lat="41.9852433" lon="2.1722268"><ele>853.5</ele><time>2026-04-25T07:47:36.092Z</time></trkpt><trkpt lat="41.9853377" lon="2.1721443"><ele>852.75</ele><time>2026-04-25T07:47:37.091Z</time></trkpt><trkpt lat="41.9854423" lon="2.1720533"><ele>852.0</ele><time>2026-04-25T07:47:38.092Z</time></trkpt><trkpt lat="41.9855511" lon="2.1719553"><ele>852.0</ele><time>2026-04-25T07:47:39.091Z</time></trkpt><trkpt lat="41.9856658" lon="2.1718581"><ele>852.0</ele><time>2026-04-25T07:47:40.092Z</time></trkpt><trkpt lat="41.985778" lon="2.1717606"><ele>852.0</ele><time>2026-04-25T07:47:41.091Z</time></trkpt><trkpt lat="41.9858847" lon="2.1716641"><ele>852.0</ele><time>2026-04-25T07:47:42.092Z</time></trkpt><trkpt lat="41.9859845" lon="2.1715632"><ele>849.0</ele><time>2026-04-25T07:47:43.09Z</time></trkpt><trkpt lat="41.9860765" lon="2.1714609"><ele>846.0</ele><time>2026-04-25T07:47:44.092Z</time></trkpt><trkpt lat="41.9861547" lon="2.1713508"><ele>843.0</ele><time>2026-04-25T07:47:45.091Z</time></trkpt><trkpt lat="41.9862254" lon="2.1712301"><ele>840.0</ele><time>2026-04-25T07:47:46.091Z</time></trkpt><trkpt lat="41.9862883" lon="2.1711009"><ele>840.0</ele><time>2026-04-25T07:47:47.092Z</time></trkpt><trkpt lat="41.9863366" lon="2.1709678"><ele>840.0</ele><time>2026-04-25T07:47:48.091Z</time></trkpt><trkpt lat="41.9863801" lon="2.1708339"><ele>840.0</ele><time>2026-04-25T07:47:49.091Z</time></trkpt><trkpt lat="41.9864269" lon="2.1706945"><ele>840.0</ele><time>2026-04-25T07:47:50.091Z</time></trkpt><trkpt lat="41.9864826" lon="2.1705551"><ele>840.8</ele><time>2026-04-25T07:47:51.092Z</time></trkpt><trkpt lat="41.986551" lon="2.1704252"><ele>841.6</ele><time>2026-04-25T07:47:52.092Z</time></trkpt><trkpt lat="41.9866287" lon="2.1703109"><ele>842.4000000000001</ele><time>2026-04-25T07:47:53.091Z</time></trkpt><trkpt lat="41.9867123" lon="2.170221"><ele>843.2</ele><time>2026-04-25T07:47:54.092Z</time></trkpt><trkpt lat="41.9867975" lon="2.1701411"><ele>844.0</ele><time>2026-04-25T07:47:55.09Z</time></trkpt><trkpt lat="41.9868836" lon="2.1700643"><ele>844.0</ele><time>2026-04-25T07:47:56.092Z</time></trkpt><trkpt lat="41.9869692" lon="2.1699866"><ele>844.0</ele><time>2026-04-25T07:47:57.091Z</time></trkpt><trkpt lat="41.9870549" lon="2.1699084"><ele>844.0</ele><time>2026-04-25T07:47:58.09Z</time></trkpt><trkpt lat="41.987138" lon="2.1698279"><ele>844.0</ele><time>2026-04-25T07:47:59.091Z</time></trkpt><trkpt lat="41.9872242" lon="2.1697445"><ele>844.0</ele><time>2026-04-25T07:48:00.091Z</time></trkpt><trkpt lat="41.9873104" lon="2.1696602"><ele>844.1666666666666</ele><time>2026-04-25T07:48:01.092Z</time></trkpt><trkpt lat="41.9873881" lon="2.1695776"><ele>844.3333333333333</ele><time>2026-04-25T07:48:02.09Z</time></trkpt><trkpt lat="41.9874573" lon="2.1694976"><ele>844.5</ele><time>2026-04-25T07:48:03.091Z</time></trkpt><trkpt lat="41.9875209" lon="2.1694167"><ele>844.6666666666667</ele><time>2026-04-25T07:48:04.092Z</time></trkpt><trkpt lat="41.9875772" lon="2.1693351"><ele>844.8333333333334</ele><time>2026-04-25T07:48:05.091Z</time></trkpt><trkpt lat="41.9876269" lon="2.1692535"><ele>845.0</ele><time>2026-04-25T07:48:06.091Z</time></trkpt><trkpt lat="41.9876815" lon="2.1691601"><ele>844.4</ele><time>2026-04-25T07:48:07.091Z</time></trkpt><trkpt lat="41.987742" lon="2.1690627"><ele>843.8</ele><time>2026-04-25T07:48:08.092Z</time></trkpt><trkpt lat="41.9878041" lon="2.1689598"><ele>843.2</ele><time>2026-04-25T07:48:09.091Z</time></trkpt><trkpt lat="41.9878696" lon="2.1688513"><ele>842.6</ele><time>2026-04-25T07:48:10.091Z</time></trkpt><trkpt lat="41.9879425" lon="2.1687368"><ele>842.0</ele><time>2026-04-25T07:48:11.09Z</time></trkpt><trkpt lat="41.9880225" lon="2.1686143"><ele>843.0</ele><time>2026-04-25T07:48:12.091Z</time></trkpt><trkpt lat="41.9881054" lon="2.168483"><ele>844.0</ele><time>2026-04-25T07:48:13.091Z</time></trkpt><trkpt lat="41.9881909" lon="2.1683439"><ele>845.0</ele><time>2026-04-25T07:48:14.09Z</time></trkpt><trkpt lat="41.9882793" lon="2.1682"><ele>846.0</ele><time>2026-04-25T07:48:15.091Z</time></trkpt><trkpt lat="41.9883616" lon="2.1680609"><ele>846.0</ele><time>2026-04-25T07:48:16.091Z</time></trkpt><trkpt lat="41.988438" lon="2.1679135"><ele>846.0</ele><time>2026-04-25T07:48:17.091Z</time></trkpt><trkpt lat="41.988498" lon="2.1677582"><ele>846.0</ele><time>2026-04-25T07:48:18.091Z</time></trkpt><trkpt lat="41.9885371" lon="2.1675955"><ele>846.0</ele><time>2026-04-25T07:48:19.091Z</time></trkpt><trkpt lat="41.9885764" lon="2.1674308"><ele>847.5</ele><time>2026-04-25T07:48:20.091Z</time></trkpt><trkpt lat="41.9886218" lon="2.1672817"><ele>849.0</ele><time>2026-04-25T07:48:21.091Z</time></trkpt><trkpt lat="41.9886717" lon="2.1671553"><ele>850.5</ele><time>2026-04-25T07:48:22.091Z</time></trkpt><trkpt lat="41.9887182" lon="2.1670573"><ele>852.0</ele><time>2026-04-25T07:48:23.091Z</time></trkpt><trkpt lat="41.9887568" lon="2.1669888"><ele>853.5</ele><time>2026-04-25T07:48:24.09Z</time></trkpt><trkpt lat="41.9887703" lon="2.166899"><ele>855.0</ele><time>2026-04-25T07:48:26.091Z</time></trkpt><trkpt lat="41.9887125" lon="2.1669669"><ele>855.0</ele><time>2026-04-25T07:48:31.092Z</time></trkpt><trkpt lat="41.9886791" lon="2.1670587"><ele>855.0</ele><time>2026-04-25T07:48:33.091Z</time></trkpt><trkpt lat="41.9886526" lon="2.1671357"><ele>855.0</ele><time>2026-04-25T07:48:34.091Z</time></trkpt><trkpt lat="41.9886165" lon="2.1672376"><ele>855.0</ele><time>2026-04-25T07:48:35.09Z</time></trkpt><trkpt lat="41.9885805" lon="2.1673631"><ele>855.0</ele><time>2026-04-25T07:48:36.091Z</time></trkpt><trkpt lat="41.9885438" lon="2.167521"><ele>855.0</ele><time>2026-04-25T07:48:37.09Z</time></trkpt><trkpt lat="41.9884977" lon="2.1676937"><ele>852.6666666666667</ele><time>2026-04-25T07:48:38.092Z</time></trkpt><trkpt lat="41.9884336" lon="2.1678645"><ele>850.3333333333334</ele><time>2026-04-25T07:48:39.091Z</time></trkpt><trkpt lat="41.9883478" lon="2.1680351"><ele>848.0</ele><time>2026-04-25T07:48:40.091Z</time></trkpt><trkpt lat="41.9882457" lon="2.1682039"><ele>848.0</ele><time>2026-04-25T07:48:41.09Z</time></trkpt><trkpt lat="41.9881343" lon="2.1683829"><ele>848.0</ele><time>2026-04-25T07:48:42.09Z</time></trkpt><trkpt lat="41.9880174" lon="2.1685728"><ele>848.0</ele><time>2026-04-25T07:48:43.09Z</time></trkpt><trkpt lat="41.9878987" lon="2.1687666"><ele>848.0</ele><time>2026-04-25T07:48:44.091Z</time></trkpt><trkpt lat="41.9877896" lon="2.16895"><ele>848.0</ele><time>2026-04-25T07:48:45.091Z</time></trkpt><trkpt lat="41.9876879" lon="2.1691193"><ele>848.0</ele><time>2026-04-25T07:48:46.09Z</time></trkpt><trkpt lat="41.987591" lon="2.1692774"><ele>847.5000000000001</ele><time>2026-04-25T07:48:47.091Z</time></trkpt><trkpt lat="41.9875051" lon="2.1694101"><ele>847.0</ele><time>2026-04-25T07:48:48.091Z</time></trkpt><trkpt lat="41.9874297" lon="2.1695101"><ele>846.5</ele><time>2026-04-25T07:48:49.091Z</time></trkpt><trkpt lat="41.9873676" lon="2.1695815"><ele>846.0</ele><time>2026-04-25T07:48:50.091Z</time></trkpt><trkpt lat="41.9873172" lon="2.1696349"><ele>845.5000000000001</ele><time>2026-04-25T07:48:51.091Z</time></trkpt><trkpt lat="41.9872636" lon="2.169686"><ele>845.0</ele><time>2026-04-25T07:48:52.091Z</time></trkpt><trkpt lat="41.9871556" lon="2.1697218"><ele>845.0</ele><time>2026-04-25T07:48:54.091Z</time></trkpt><trkpt lat="41.9870887" lon="2.1696099"><ele>845.0</ele><time>2026-04-25T07:48:56.091Z</time></trkpt><trkpt lat="41.9870947" lon="2.1695125"><ele>845.0</ele><time>2026-04-25T07:48:57.09Z</time></trkpt><trkpt lat="41.9871212" lon="2.1693936"><ele>845.0</ele><time>2026-04-25T07:48:58.091Z</time></trkpt><trkpt lat="41.9871549" lon="2.1692472"><ele>845.0</ele><time>2026-04-25T07:48:59.091Z</time></trkpt><trkpt lat="41.9871922" lon="2.1690729"><ele>844.3333333333334</ele><time>2026-04-25T07:49:00.09Z</time></trkpt><trkpt lat="41.987237" lon="2.1688755"><ele>843.6666666666667</ele><time>2026-04-25T07:49:01.091Z</time></trkpt><trkpt lat="41.9872836" lon="2.1686603"><ele>843.0</ele><time>2026-04-25T07:49:02.09Z</time></trkpt><trkpt lat="41.9873338" lon="2.1684424"><ele>843.0</ele><time>2026-04-25T07:49:03.09Z</time></trkpt><trkpt lat="41.9873875" lon="2.1682305"><ele>843.0</ele><time>2026-04-25T07:49:04.091Z</time></trkpt><trkpt lat="41.9874393" lon="2.1680203"><ele>843.0</ele><time>2026-04-25T07:49:05.091Z</time></trkpt><trkpt lat="41.987486" lon="2.1678122"><ele>845.6666666666667</ele><time>2026-04-25T07:49:06.09Z</time></trkpt><trkpt lat="41.9875275" lon="2.1676021"><ele>848.3333333333334</ele><time>2026-04-25T07:49:07.09Z</time></trkpt><trkpt lat="41.9875515" lon="2.1674026"><ele>851.0</ele><time>2026-04-25T07:49:08.09Z</time></trkpt><trkpt lat="41.9875415" lon="2.1672085"><ele>848.0</ele><time>2026-04-25T07:49:09.092Z</time></trkpt><trkpt lat="41.9875013" lon="2.1670273"><ele>845.0</ele><time>2026-04-25T07:49:10.091Z</time></trkpt><trkpt lat="41.9874287" lon="2.1668595"><ele>842.0</ele><time>2026-04-25T07:49:11.092Z</time></trkpt><trkpt lat="41.987343" lon="2.1667006"><ele>839.0</ele><time>2026-04-25T07:49:12.091Z</time></trkpt><trkpt lat="41.9872453" lon="2.1665418"><ele>839.5</ele><time>2026-04-25T07:49:13.091Z</time></trkpt><trkpt lat="41.987148" lon="2.1663862"><ele>840.0</ele><time>2026-04-25T07:49:14.091Z</time></trkpt><trkpt lat="41.9870585" lon="2.1662361"><ele>840.5</ele><time>2026-04-25T07:49:15.092Z</time></trkpt><trkpt lat="41.9869739" lon="2.1660968"><ele>841.0</ele><time>2026-04-25T07:49:16.091Z</time></trkpt><trkpt lat="41.9868913" lon="2.1659622"><ele>841.0</ele><time>2026-04-25T07:49:17.091Z</time></trkpt><trkpt lat="41.9868044" lon="2.1658214"><ele>841.0</ele><time>2026-04-25T07:49:18.092Z</time></trkpt><trkpt lat="41.9867152" lon="2.1656715"><ele>841.0</ele><time>2026-04-25T07:49:19.092Z</time></trkpt><trkpt lat="41.9866228" lon="2.1655162"><ele>841.0</ele><time>2026-04-25T07:49:20.092Z</time></trkpt><trkpt lat="41.9865277" lon="2.1653605"><ele>841.25</ele><time>2026-04-25T07:49:21.091Z</time></trkpt><trkpt lat="41.9864333" lon="2.1652019"><ele>841.5</ele><time>2026-04-25T07:49:22.092Z</time></trkpt><trkpt lat="41.9863426" lon="2.1650478"><ele>841.75</ele><time>2026-04-25T07:49:23.092Z</time></trkpt><trkpt lat="41.9862572" lon="2.1649027"><ele>842.0</ele><time>2026-04-25T07:49:24.092Z</time></trkpt><trkpt lat="41.9861746" lon="2.1647645"><ele>842.0</ele><time>2026-04-25T07:49:25.091Z</time></trkpt><trkpt lat="41.9860862" lon="2.1646227"><ele>842.0</ele><time>2026-04-25T07:49:26.091Z</time></trkpt><trkpt lat="41.9859945" lon="2.1644729"><ele>842.0</ele><time>2026-04-25T07:49:27.092Z</time></trkpt><trkpt lat="41.9858989" lon="2.1643191"><ele>842.0</ele><time>2026-04-25T07:49:28.092Z</time></trkpt><trkpt lat="41.9858041" lon="2.1641557"><ele>840.6666666666667</ele><time>2026-04-25T07:49:29.092Z</time></trkpt><trkpt lat="41.9857143" lon="2.1639806"><ele>839.3333333333333</ele><time>2026-04-25T07:49:30.092Z</time></trkpt><trkpt lat="41.9856292" lon="2.1637942"><ele>838.0</ele><time>2026-04-25T07:49:31.092Z</time></trkpt><trkpt lat="41.9855516" lon="2.1635959"><ele>838.0</ele><time>2026-04-25T07:49:32.092Z</time></trkpt><trkpt lat="41.9854816" lon="2.1634008"><ele>838.0</ele><time>2026-04-25T07:49:33.092Z</time></trkpt><trkpt lat="41.9854186" lon="2.1632172"><ele>838.0</ele><time>2026-04-25T07:49:34.091Z</time></trkpt><trkpt lat="41.9853463" lon="2.1630508"><ele>839.3333333333333</ele><time>2026-04-25T07:49:35.093Z</time></trkpt><trkpt lat="41.9852487" lon="2.1629119"><ele>840.6666666666667</ele><time>2026-04-25T07:49:36.091Z</time></trkpt><trkpt lat="41.9851269" lon="2.1627948"><ele>842.0</ele><time>2026-04-25T07:49:37.091Z</time></trkpt><trkpt lat="41.9849823" lon="2.1627039"><ele>837.3333333333334</ele><time>2026-04-25T07:49:38.093Z</time></trkpt><trkpt lat="41.9848173" lon="2.1626293"><ele>832.6666666666667</ele><time>2026-04-25T07:49:39.091Z</time></trkpt><trkpt lat="41.9846452" lon="2.1625559"><ele>828.0</ele><time>2026-04-25T07:49:40.092Z</time></trkpt><trkpt lat="41.9844646" lon="2.1624806"><ele>828.0</ele><time>2026-04-25T07:49:41.092Z</time></trkpt><trkpt lat="41.984279" lon="2.1624045"><ele>828.0</ele><time>2026-04-25T07:49:42.092Z</time></trkpt><trkpt lat="41.9841008" lon="2.1623391"><ele>828.0</ele><time>2026-04-25T07:49:43.093Z</time></trkpt><trkpt lat="41.9839292" lon="2.1622847"><ele>827.3333333333333</ele><time>2026-04-25T07:49:44.092Z</time></trkpt><trkpt lat="41.9837636" lon="2.1622242"><ele>826.6666666666666</ele><time>2026-04-25T07:49:45.092Z</time></trkpt><trkpt lat="41.9836015" lon="2.1621393"><ele>826.0</ele><time>2026-04-25T07:49:46.092Z</time></trkpt><trkpt lat="41.9834406" lon="2.1620247"><ele>820.6666666666666</ele><time>2026-04-25T07:49:47.092Z</time></trkpt><trkpt lat="41.9832832" lon="2.1618971"><ele>815.3333333333333</ele><time>2026-04-25T07:49:48.092Z</time></trkpt><trkpt lat="41.9831295" lon="2.1617687"><ele>810.0</ele><time>2026-04-25T07:49:49.093Z</time></trkpt><trkpt lat="41.9829746" lon="2.1616466"><ele>810.3333333333333</ele><time>2026-04-25T07:49:50.092Z</time></trkpt><trkpt lat="41.9828189" lon="2.1615269"><ele>810.6666666666666</ele><time>2026-04-25T07:49:51.091Z</time></trkpt><trkpt lat="41.9826608" lon="2.1614126"><ele>811.0</ele><time>2026-04-25T07:49:52.093Z</time></trkpt><trkpt lat="41.9824978" lon="2.1612981"><ele>809.6666666666666</ele><time>2026-04-25T07:49:53.091Z</time></trkpt><trkpt lat="41.9823318" lon="2.1611825"><ele>808.3333333333333</ele><time>2026-04-25T07:49:54.092Z</time></trkpt><trkpt lat="41.9821609" lon="2.1610661"><ele>807.0</ele><time>2026-04-25T07:49:55.092Z</time></trkpt><trkpt lat="41.981986" lon="2.1609476"><ele>807.0</ele><time>2026-04-25T07:49:56.092Z</time></trkpt><trkpt lat="41.981806" lon="2.1608193"><ele>807.0</ele><time>2026-04-25T07:49:57.092Z</time></trkpt><trkpt lat="41.9816236" lon="2.1606766"><ele>807.0</ele><time>2026-04-25T07:49:58.091Z</time></trkpt><trkpt lat="41.9814431" lon="2.1605186"><ele>804.5</ele><time>2026-04-25T07:49:59.092Z</time></trkpt><trkpt lat="41.9812651" lon="2.1603405"><ele>802.0</ele><time>2026-04-25T07:50:00.091Z</time></trkpt><trkpt lat="41.9810787" lon="2.1601619"><ele>802.0</ele><time>2026-04-25T07:50:01.092Z</time></trkpt><trkpt lat="41.9808755" lon="2.1599967"><ele>802.0</ele><time>2026-04-25T07:50:02.092Z</time></trkpt><trkpt lat="41.9806692" lon="2.1598355"><ele>801.0</ele><time>2026-04-25T07:50:03.091Z</time></trkpt><trkpt lat="41.9804691" lon="2.1596567"><ele>800.0</ele><time>2026-04-25T07:50:04.092Z</time></trkpt><trkpt lat="41.9802901" lon="2.1594804"><ele>800.0</ele><time>2026-04-25T07:50:05.092Z</time></trkpt><trkpt lat="41.9801239" lon="2.1593267"><ele>800.0</ele><time>2026-04-25T07:50:06.091Z</time></trkpt><trkpt lat="41.9799672" lon="2.1591903"><ele>800.0</ele><time>2026-04-25T07:50:07.091Z</time></trkpt><trkpt lat="41.9798227" lon="2.1590424"><ele>796.3333333333334</ele><time>2026-04-25T07:50:08.092Z</time></trkpt><trkpt lat="41.9796978" lon="2.1588572"><ele>792.6666666666667</ele><time>2026-04-25T07:50:09.092Z</time></trkpt><trkpt lat="41.9796093" lon="2.1586768"><ele>789.0</ele><time>2026-04-25T07:50:10.092Z</time></trkpt><trkpt lat="41.9795528" lon="2.1584843"><ele>789.0</ele><time>2026-04-25T07:50:11.091Z</time></trkpt><trkpt lat="41.9795248" lon="2.1582864"><ele>789.0</ele><time>2026-04-25T07:50:12.092Z</time></trkpt><trkpt lat="41.9795245" lon="2.1581301"><ele>789.0</ele><time>2026-04-25T07:50:13.092Z</time></trkpt><trkpt lat="41.9795638" lon="2.1580018"><ele>789.0</ele><time>2026-04-25T07:50:14.091Z</time></trkpt><trkpt lat="41.979649" lon="2.1578752"><ele>788.0</ele><time>2026-04-25T07:50:15.091Z</time></trkpt><trkpt lat="41.9797748" lon="2.1577349"><ele>787.0</ele><time>2026-04-25T07:50:16.091Z</time></trkpt><trkpt lat="41.9799342" lon="2.157587"><ele>786.0</ele><time>2026-04-25T07:50:17.091Z</time></trkpt><trkpt lat="41.9800698" lon="2.157429"><ele>787.0</ele><time>2026-04-25T07:50:18.092Z</time></trkpt><trkpt lat="41.9801796" lon="2.1572576"><ele>788.0</ele><time>2026-04-25T07:50:19.092Z</time></trkpt><trkpt lat="41.9802536" lon="2.1570602"><ele>789.0</ele><time>2026-04-25T07:50:20.093Z</time></trkpt><trkpt lat="41.9802977" lon="2.1568332"><ele>789.0</ele><time>2026-04-25T07:50:21.092Z</time></trkpt><trkpt lat="41.9803087" lon="2.1565572"><ele>789.0</ele><time>2026-04-25T07:50:22.092Z</time></trkpt><trkpt lat="41.9803137" lon="2.1562351"><ele>789.0</ele><time>2026-04-25T07:50:23.092Z</time></trkpt><trkpt lat="41.9803239" lon="2.1558811"><ele>788.5</ele><time>2026-04-25T07:50:24.093Z</time></trkpt><trkpt lat="41.9803321" lon="2.1555103"><ele>788.0</ele><time>2026-04-25T07:50:25.092Z</time></trkpt><trkpt lat="41.9803339" lon="2.1551807"><ele>788.0</ele><time>2026-04-25T07:50:26.092Z</time></trkpt><trkpt lat="41.9803288" lon="2.1548802"><ele>788.0</ele><time>2026-04-25T07:50:27.092Z</time></trkpt><trkpt lat="41.9803039" lon="2.1546098"><ele>788.0</ele><time>2026-04-25T07:50:28.091Z</time></trkpt><trkpt lat="41.9802454" lon="2.1543509"><ele>789.5</ele><time>2026-04-25T07:50:29.092Z</time></trkpt><trkpt lat="41.9801458" lon="2.1540897"><ele>791.0</ele><time>2026-04-25T07:50:30.091Z</time></trkpt><trkpt lat="41.9800219" lon="2.1538239"><ele>793.6666666666667</ele><time>2026-04-25T07:50:31.093Z</time></trkpt><trkpt lat="41.9799104" lon="2.1536021"><ele>796.3333333333333</ele><time>2026-04-25T07:50:32.092Z</time></trkpt><trkpt lat="41.9797976" lon="2.1534166"><ele>799.0</ele><time>2026-04-25T07:50:33.092Z</time></trkpt><trkpt lat="41.9796678" lon="2.1532705"><ele>800.0</ele><time>2026-04-25T07:50:34.092Z</time></trkpt><trkpt lat="41.9795171" lon="2.1531405"><ele>801.0</ele><time>2026-04-25T07:50:35.091Z</time></trkpt><trkpt lat="41.9793595" lon="2.1530161"><ele>802.0</ele><time>2026-04-25T07:50:36.092Z</time></trkpt><trkpt lat="41.9792087" lon="2.1528907"><ele>802.3333333333333</ele><time>2026-04-25T07:50:37.092Z</time></trkpt><trkpt lat="41.9790608" lon="2.1527649"><ele>802.6666666666667</ele><time>2026-04-25T07:50:38.092Z</time></trkpt><trkpt lat="41.9789327" lon="2.1526409"><ele>803.0</ele><time>2026-04-25T07:50:39.091Z</time></trkpt><trkpt lat="41.9788393" lon="2.152509"><ele>803.25</ele><time>2026-04-25T07:50:40.092Z</time></trkpt><trkpt lat="41.9787673" lon="2.1523614"><ele>803.5</ele><time>2026-04-25T07:50:41.091Z</time></trkpt><trkpt lat="41.9787158" lon="2.1521804"><ele>803.75</ele><time>2026-04-25T07:50:42.091Z</time></trkpt><trkpt lat="41.9786755" lon="2.1519742"><ele>804.0</ele><time>2026-04-25T07:50:43.091Z</time></trkpt><trkpt lat="41.9786244" lon="2.1517583"><ele>803.6666666666667</ele><time>2026-04-25T07:50:44.092Z</time></trkpt><trkpt lat="41.9785271" lon="2.1515365"><ele>803.3333333333334</ele><time>2026-04-25T07:50:45.092Z</time></trkpt><trkpt lat="41.978406" lon="2.1512977"><ele>803.0</ele><time>2026-04-25T07:50:46.092Z</time></trkpt><trkpt lat="41.978271" lon="2.1510371"><ele>803.0</ele><time>2026-04-25T07:50:47.091Z</time></trkpt><trkpt lat="41.9781486" lon="2.1507465"><ele>803.0</ele><time>2026-04-25T07:50:48.092Z</time></trkpt><trkpt lat="41.9780348" lon="2.1504414"><ele>799.0</ele><time>2026-04-25T07:50:49.092Z</time></trkpt><trkpt lat="41.9779354" lon="2.1501648"><ele>795.0</ele><time>2026-04-25T07:50:50.091Z</time></trkpt><trkpt lat="41.9778284" lon="2.1498951"><ele>792.3333333333333</ele><time>2026-04-25T07:50:51.091Z</time></trkpt><trkpt lat="41.9777271" lon="2.1496568"><ele>789.6666666666666</ele><time>2026-04-25T07:50:52.091Z</time></trkpt><trkpt lat="41.9776384" lon="2.1494565"><ele>787.0</ele><time>2026-04-25T07:50:53.091Z</time></trkpt><trkpt lat="41.9775399" lon="2.1492926"><ele>792.0</ele><time>2026-04-25T07:50:54.092Z</time></trkpt><trkpt lat="41.97741" lon="2.1491399"><ele>797.0</ele><time>2026-04-25T07:50:55.092Z</time></trkpt><trkpt lat="41.9772535" lon="2.1489937"><ele>802.0</ele><time>2026-04-25T07:50:56.091Z</time></trkpt><trkpt lat="41.9770701" lon="2.1488431"><ele>802.0</ele><time>2026-04-25T07:50:57.093Z</time></trkpt><trkpt lat="41.9768825" lon="2.1486655"><ele>802.0</ele><time>2026-04-25T07:50:58.092Z</time></trkpt><trkpt lat="41.9766954" lon="2.148452"><ele>805.0</ele><time>2026-04-25T07:50:59.091Z</time></trkpt><trkpt lat="41.9765063" lon="2.1482209"><ele>808.0</ele><time>2026-04-25T07:51:00.092Z</time></trkpt><trkpt lat="41.9763094" lon="2.1480049"><ele>800.5</ele><time>2026-04-25T07:51:01.091Z</time></trkpt><trkpt lat="41.9761153" lon="2.1478267"><ele>793.0</ele><time>2026-04-25T07:51:02.092Z</time></trkpt><trkpt lat="41.9759204" lon="2.1476752"><ele>793.0</ele><time>2026-04-25T07:51:03.091Z</time></trkpt><trkpt lat="41.9757339" lon="2.147554"><ele>793.0</ele><time>2026-04-25T07:51:04.093Z</time></trkpt><trkpt lat="41.9755671" lon="2.1474335"><ele>793.0</ele><time>2026-04-25T07:51:05.092Z</time></trkpt><trkpt lat="41.9754095" lon="2.1472827"><ele>793.0</ele><time>2026-04-25T07:51:06.092Z</time></trkpt><trkpt lat="41.975257" lon="2.147087"><ele>793.0</ele><time>2026-04-25T07:51:07.091Z</time></trkpt><trkpt lat="41.9751085" lon="2.146874"><ele>793.0</ele><time>2026-04-25T07:51:08.092Z</time></trkpt><trkpt lat="41.9749572" lon="2.1466866"><ele>795.6666666666666</ele><time>2026-04-25T07:51:09.093Z</time></trkpt><trkpt lat="41.9747958" lon="2.1465391"><ele>798.3333333333333</ele><time>2026-04-25T07:51:10.091Z</time></trkpt><trkpt lat="41.9746141" lon="2.1464271"><ele>801.0</ele><time>2026-04-25T07:51:11.092Z</time></trkpt><trkpt lat="41.9744081" lon="2.1463222"><ele>801.0</ele><time>2026-04-25T07:51:12.091Z</time></trkpt><trkpt lat="41.9742051" lon="2.1461843"><ele>801.0</ele><time>2026-04-25T07:51:13.092Z</time></trkpt><trkpt lat="41.9740233" lon="2.146039"><ele>801.0</ele><time>2026-04-25T07:51:14.091Z</time></trkpt><trkpt lat="41.9738679" lon="2.1459133"><ele>799.3333333333333</ele><time>2026-04-25T07:51:15.093Z</time></trkpt><trkpt lat="41.9737302" lon="2.1458001"><ele>797.6666666666666</ele><time>2026-04-25T07:51:16.092Z</time></trkpt><trkpt lat="41.973588" lon="2.1457273"><ele>796.0</ele><time>2026-04-25T07:51:17.093Z</time></trkpt><trkpt lat="41.9734449" lon="2.1457007"><ele>792.6666666666666</ele><time>2026-04-25T07:51:18.091Z</time></trkpt><trkpt lat="41.9732957" lon="2.1457054"><ele>789.3333333333333</ele><time>2026-04-25T07:51:19.092Z</time></trkpt><trkpt lat="41.9731334" lon="2.1457278"><ele>786.0</ele><time>2026-04-25T07:51:20.091Z</time></trkpt><trkpt lat="41.972955" lon="2.1457489"><ele>786.0</ele><time>2026-04-25T07:51:21.091Z</time></trkpt><trkpt lat="41.9727668" lon="2.1457649"><ele>786.0</ele><time>2026-04-25T07:51:22.091Z</time></trkpt><trkpt lat="41.9725932" lon="2.1457781"><ele>786.0</ele><time>2026-04-25T07:51:23.092Z</time></trkpt><trkpt lat="41.9724254" lon="2.1457676"><ele>786.0</ele><time>2026-04-25T07:51:24.091Z</time></trkpt><trkpt lat="41.9722667" lon="2.1457253"><ele>786.0</ele><time>2026-04-25T07:51:25.091Z</time></trkpt><trkpt lat="41.9721265" lon="2.1456368"><ele>786.0</ele><time>2026-04-25T07:51:26.091Z</time></trkpt><trkpt lat="41.9720001" lon="2.1454972"><ele>786.0</ele><time>2026-04-25T07:51:27.092Z</time></trkpt><trkpt lat="41.9718712" lon="2.1453258"><ele>786.0</ele><time>2026-04-25T07:51:28.092Z</time></trkpt><trkpt lat="41.9717283" lon="2.1451345"><ele>786.0</ele><time>2026-04-25T07:51:29.092Z</time></trkpt><trkpt lat="41.9715738" lon="2.1449375"><ele>783.0</ele><time>2026-04-25T07:51:30.092Z</time></trkpt><trkpt lat="41.9714115" lon="2.1447313"><ele>780.0</ele><time>2026-04-25T07:51:31.092Z</time></trkpt><trkpt lat="41.9712492" lon="2.144525"><ele>777.0</ele><time>2026-04-25T07:51:32.092Z</time></trkpt><trkpt lat="41.9710934" lon="2.144326"><ele>777.0</ele><time>2026-04-25T07:51:33.092Z</time></trkpt><trkpt lat="41.9709433" lon="2.1441373"><ele>777.0</ele><time>2026-04-25T07:51:34.092Z</time></trkpt><trkpt lat="41.9707901" lon="2.1439542"><ele>777.0</ele><time>2026-04-25T07:51:35.092Z</time></trkpt><trkpt lat="41.9706357" lon="2.1437643"><ele>778.3333333333333</ele><time>2026-04-25T07:51:36.091Z</time></trkpt><trkpt lat="41.9704922" lon="2.1435824"><ele>779.6666666666666</ele><time>2026-04-25T07:51:37.091Z</time></trkpt><trkpt lat="41.9703504" lon="2.1434139"><ele>781.0</ele><time>2026-04-25T07:51:38.092Z</time></trkpt><trkpt lat="41.9701965" lon="2.1432512"><ele>782.0</ele><time>2026-04-25T07:51:39.093Z</time></trkpt><trkpt lat="41.9700369" lon="2.1430932"><ele>783.0</ele><time>2026-04-25T07:51:40.092Z</time></trkpt><trkpt lat="41.9698992" lon="2.1429437"><ele>784.0</ele><time>2026-04-25T07:51:41.092Z</time></trkpt><trkpt lat="41.9697795" lon="2.1427894"><ele>782.0</ele><time>2026-04-25T07:51:42.093Z</time></trkpt><trkpt lat="41.9696763" lon="2.1426281"><ele>780.0</ele><time>2026-04-25T07:51:43.093Z</time></trkpt><trkpt lat="41.9695957" lon="2.1424478"><ele>778.0</ele><time>2026-04-25T07:51:44.091Z</time></trkpt><trkpt lat="41.9695344" lon="2.1422514"><ele>778.0</ele><time>2026-04-25T07:51:45.092Z</time></trkpt><trkpt lat="41.9694763" lon="2.1420894"><ele>778.0</ele><time>2026-04-25T07:51:46.092Z</time></trkpt><trkpt lat="41.9693905" lon="2.1419651"><ele>778.0</ele><time>2026-04-25T07:51:47.093Z</time></trkpt><trkpt lat="41.9692698" lon="2.1418657"><ele>778.0</ele><time>2026-04-25T07:51:48.091Z</time></trkpt><trkpt lat="41.9691186" lon="2.1418018"><ele>777.6666666666666</ele><time>2026-04-25T07:51:49.093Z</time></trkpt><trkpt lat="41.9689453" lon="2.1417511"><ele>777.3333333333333</ele><time>2026-04-25T07:51:50.092Z</time></trkpt><trkpt lat="41.9687508" lon="2.1416755"><ele>777.0</ele><time>2026-04-25T07:51:51.092Z</time></trkpt><trkpt lat="41.9685517" lon="2.1415681"><ele>779.0</ele><time>2026-04-25T07:51:52.091Z</time></trkpt><trkpt lat="41.9683649" lon="2.1414496"><ele>781.0</ele><time>2026-04-25T07:51:53.091Z</time></trkpt><trkpt lat="41.9682027" lon="2.1413443"><ele>783.0</ele><time>2026-04-25T07:51:54.092Z</time></trkpt><trkpt lat="41.9680564" lon="2.1412531"><ele>784.0</ele><time>2026-04-25T07:51:55.093Z</time></trkpt><trkpt lat="41.9679411" lon="2.1411574"><ele>785.0</ele><time>2026-04-25T07:51:56.092Z</time></trkpt><trkpt lat="41.9678613" lon="2.1410672"><ele>786.0</ele><time>2026-04-25T07:51:57.093Z</time></trkpt><trkpt lat="41.9678049" lon="2.1409656"><ele>787.0</ele><time>2026-04-25T07:51:58.092Z</time></trkpt><trkpt lat="41.9677494" lon="2.1408125"><ele>787.6666666666666</ele><time>2026-04-25T07:51:59.092Z</time></trkpt><trkpt lat="41.9676733" lon="2.140632"><ele>788.3333333333333</ele><time>2026-04-25T07:52:00.092Z</time></trkpt><trkpt lat="41.9675785" lon="2.1404289"><ele>789.0</ele><time>2026-04-25T07:52:01.092Z</time></trkpt><trkpt lat="41.9674621" lon="2.1402211"><ele>789.0</ele><time>2026-04-25T07:52:02.092Z</time></trkpt><trkpt lat="41.9673147" lon="2.140034"><ele>789.0</ele><time>2026-04-25T07:52:03.092Z</time></trkpt><trkpt lat="41.9671501" lon="2.1398689"><ele>789.0</ele><time>2026-04-25T07:52:04.092Z</time></trkpt><trkpt lat="41.9669751" lon="2.1397386"><ele>790.0</ele><time>2026-04-25T07:52:05.092Z</time></trkpt><trkpt lat="41.9667957" lon="2.1396386"><ele>791.0</ele><time>2026-04-25T07:52:06.091Z</time></trkpt><trkpt lat="41.9666331" lon="2.1395634"><ele>792.0</ele><time>2026-04-25T07:52:07.092Z</time></trkpt><trkpt lat="41.966479" lon="2.1394934"><ele>794.3333333333333</ele><time>2026-04-25T07:52:08.092Z</time></trkpt><trkpt lat="41.9663174" lon="2.139417"><ele>796.6666666666666</ele><time>2026-04-25T07:52:09.092Z</time></trkpt><trkpt lat="41.9661398" lon="2.1393218"><ele>799.0</ele><time>2026-04-25T07:52:10.091Z</time></trkpt><trkpt lat="41.9659468" lon="2.1391933"><ele>804.6666666666666</ele><time>2026-04-25T07:52:11.092Z</time></trkpt><trkpt lat="41.9657645" lon="2.1390304"><ele>810.3333333333333</ele><time>2026-04-25T07:52:12.092Z</time></trkpt><trkpt lat="41.9655873" lon="2.1388337"><ele>816.0</ele><time>2026-04-25T07:52:13.092Z</time></trkpt><trkpt lat="41.96542" lon="2.138606"><ele>816.0</ele><time>2026-04-25T07:52:14.092Z</time></trkpt><trkpt lat="41.9652654" lon="2.1383702"><ele>816.0</ele><time>2026-04-25T07:52:15.092Z</time></trkpt><trkpt lat="41.9651323" lon="2.1381448"><ele>816.0</ele><time>2026-04-25T07:52:16.091Z</time></trkpt><trkpt lat="41.965012" lon="2.137935"><ele>815.6666666666667</ele><time>2026-04-25T07:52:17.091Z</time></trkpt><trkpt lat="41.9648868" lon="2.1377384"><ele>815.3333333333334</ele><time>2026-04-25T07:52:18.091Z</time></trkpt><trkpt lat="41.9647526" lon="2.1375532"><ele>815.0</ele><time>2026-04-25T07:52:19.092Z</time></trkpt><trkpt lat="41.9645946" lon="2.1373928"><ele>814.0</ele><time>2026-04-25T07:52:20.091Z</time></trkpt><trkpt lat="41.9644089" lon="2.1372564"><ele>813.0</ele><time>2026-04-25T07:52:21.092Z</time></trkpt><trkpt lat="41.9642086" lon="2.1371604"><ele>812.0</ele><time>2026-04-25T07:52:22.092Z</time></trkpt><trkpt lat="41.9639941" lon="2.137102"><ele>812.0</ele><time>2026-04-25T07:52:23.093Z</time></trkpt><trkpt lat="41.9637635" lon="2.1370839"><ele>812.0</ele><time>2026-04-25T07:52:24.092Z</time></trkpt><trkpt lat="41.963516" lon="2.1371122"><ele>811.0</ele><time>2026-04-25T07:52:25.092Z</time></trkpt><trkpt lat="41.9632435" lon="2.1371784"><ele>810.0</ele><time>2026-04-25T07:52:26.093Z</time></trkpt><trkpt lat="41.9629465" lon="2.1372514"><ele>810.0</ele><time>2026-04-25T07:52:27.091Z</time></trkpt><trkpt lat="41.9626414" lon="2.1373118"><ele>810.0</ele><time>2026-04-25T07:52:28.091Z</time></trkpt><trkpt lat="41.9623288" lon="2.1373679"><ele>810.0</ele><time>2026-04-25T07:52:29.091Z</time></trkpt><trkpt lat="41.9620011" lon="2.137433"><ele>810.0</ele><time>2026-04-25T07:52:30.091Z</time></trkpt><trkpt lat="41.961666" lon="2.1375062"><ele>809.5</ele><time>2026-04-25T07:52:31.091Z</time></trkpt><trkpt lat="41.9613556" lon="2.1375769"><ele>809.0</ele><time>2026-04-25T07:52:32.092Z</time></trkpt><trkpt lat="41.9610691" lon="2.1376402"><ele>809.0</ele><time>2026-04-25T07:52:33.093Z</time></trkpt><trkpt lat="41.9608245" lon="2.1376983"><ele>809.0</ele><time>2026-04-25T07:52:34.091Z</time></trkpt><trkpt lat="41.9605991" lon="2.1377459"><ele>809.0</ele><time>2026-04-25T07:52:35.092Z</time></trkpt><trkpt lat="41.9603853" lon="2.1377776"><ele>809.0</ele><time>2026-04-25T07:52:36.092Z</time></trkpt><trkpt lat="41.9601863" lon="2.137796"><ele>809.0</ele><time>2026-04-25T07:52:37.092Z</time></trkpt><trkpt lat="41.9599997" lon="2.1378036"><ele>809.0</ele><time>2026-04-25T07:52:38.093Z</time></trkpt><trkpt lat="41.9598172" lon="2.1378051"><ele>809.0</ele><time>2026-04-25T07:52:39.093Z</time></trkpt><trkpt lat="41.9596379" lon="2.137802"><ele>809.0</ele><time>2026-04-25T07:52:40.091Z</time></trkpt><trkpt lat="41.9594596" lon="2.1377942"><ele>809.0</ele><time>2026-04-25T07:52:41.092Z</time></trkpt><trkpt lat="41.9592775" lon="2.1377864"><ele>809.0</ele><time>2026-04-25T07:52:42.091Z</time></trkpt><trkpt lat="41.9590912" lon="2.1377795"><ele>809.0</ele><time>2026-04-25T07:52:43.091Z</time></trkpt><trkpt lat="41.9589078" lon="2.1377722"><ele>809.0</ele><time>2026-04-25T07:52:44.092Z</time></trkpt><trkpt lat="41.958725" lon="2.1377668"><ele>809.0</ele><time>2026-04-25T07:52:45.092Z</time></trkpt><trkpt lat="41.9585496" lon="2.137757"><ele>809.0</ele><time>2026-04-25T07:52:46.092Z</time></trkpt><trkpt lat="41.9583836" lon="2.137745"><ele>809.25</ele><time>2026-04-25T07:52:47.091Z</time></trkpt><trkpt lat="41.9582353" lon="2.1377226"><ele>809.5</ele><time>2026-04-25T07:52:48.092Z</time></trkpt><trkpt lat="41.9581073" lon="2.13767"><ele>809.75</ele><time>2026-04-25T07:52:49.092Z</time></trkpt><trkpt lat="41.9579986" lon="2.1375826"><ele>810.0</ele><time>2026-04-25T07:52:50.091Z</time></trkpt><trkpt lat="41.9578985" lon="2.1374582"><ele>810.5</ele><time>2026-04-25T07:52:51.091Z</time></trkpt><trkpt lat="41.9578237" lon="2.1373144"><ele>811.0</ele><time>2026-04-25T07:52:52.091Z</time></trkpt><trkpt lat="41.9577745" lon="2.1371446"><ele>811.5</ele><time>2026-04-25T07:52:53.092Z</time></trkpt><trkpt lat="41.9577538" lon="2.1369548"><ele>812.0</ele><time>2026-04-25T07:52:54.092Z</time></trkpt><trkpt lat="41.9577561" lon="2.136749"><ele>812.0</ele><time>2026-04-25T07:52:55.092Z</time></trkpt><trkpt lat="41.9577638" lon="2.1365654"><ele>812.0</ele><time>2026-04-25T07:52:56.093Z</time></trkpt><trkpt lat="41.9577694" lon="2.1364251"><ele>812.0</ele><time>2026-04-25T07:52:57.092Z</time></trkpt><trkpt lat="41.9577755" lon="2.136282"><ele>812.0</ele><time>2026-04-25T07:52:58.092Z</time></trkpt><trkpt lat="41.9577763" lon="2.1361193"><ele>812.25</ele><time>2026-04-25T07:52:59.093Z</time></trkpt><trkpt lat="41.9577676" lon="2.1359538"><ele>812.5</ele><time>2026-04-25T07:53:00.091Z</time></trkpt><trkpt lat="41.9577495" lon="2.1357908"><ele>812.75</ele><time>2026-04-25T07:53:01.091Z</time></trkpt><trkpt lat="41.9577288" lon="2.1356307"><ele>813.0</ele><time>2026-04-25T07:53:02.093Z</time></trkpt><trkpt lat="41.9577166" lon="2.1354715"><ele>810.8</ele><time>2026-04-25T07:53:03.092Z</time></trkpt><trkpt lat="41.957718" lon="2.1353385"><ele>808.5999999999999</ele><time>2026-04-25T07:53:04.091Z</time></trkpt><trkpt lat="41.9577356" lon="2.135206"><ele>806.4000000000001</ele><time>2026-04-25T07:53:05.092Z</time></trkpt><trkpt lat="41.9577738" lon="2.1350934"><ele>804.2</ele><time>2026-04-25T07:53:06.091Z</time></trkpt><trkpt lat="41.9578354" lon="2.1349999"><ele>802.0</ele><time>2026-04-25T07:53:07.092Z</time></trkpt><trkpt lat="41.9579171" lon="2.1349018"><ele>799.5</ele><time>2026-04-25T07:53:08.092Z</time></trkpt><trkpt lat="41.9580108" lon="2.1347792"><ele>797.0</ele><time>2026-04-25T07:53:09.092Z</time></trkpt><trkpt lat="41.9581133" lon="2.1346317"><ele>794.5</ele><time>2026-04-25T07:53:10.092Z</time></trkpt><trkpt lat="41.9582203" lon="2.1344617"><ele>792.0</ele><time>2026-04-25T07:53:11.092Z</time></trkpt><trkpt lat="41.9583225" lon="2.1342544"><ele>788.6666666666667</ele><time>2026-04-25T07:53:12.092Z</time></trkpt><trkpt lat="41.9584254" lon="2.1340261"><ele>785.3333333333334</ele><time>2026-04-25T07:53:13.092Z</time></trkpt><trkpt lat="41.9585539" lon="2.1337865"><ele>782.0</ele><time>2026-04-25T07:53:14.092Z</time></trkpt><trkpt lat="41.958695" lon="2.1335411"><ele>782.0</ele><time>2026-04-25T07:53:15.091Z</time></trkpt><trkpt lat="41.9588465" lon="2.1332778"><ele>782.0</ele><time>2026-04-25T07:53:16.092Z</time></trkpt><trkpt lat="41.9590055" lon="2.1330002"><ele>780.5</ele><time>2026-04-25T07:53:17.091Z</time></trkpt><trkpt lat="41.9591735" lon="2.1327077"><ele>779.0</ele><time>2026-04-25T07:53:18.093Z</time></trkpt><trkpt lat="41.9593381" lon="2.1324243"><ele>776.5</ele><time>2026-04-25T07:53:19.091Z</time></trkpt><trkpt lat="41.9594972" lon="2.1321533"><ele>774.0</ele><time>2026-04-25T07:53:20.092Z</time></trkpt><trkpt lat="41.9596488" lon="2.1318927"><ele>774.0</ele><time>2026-04-25T07:53:21.093Z</time></trkpt><trkpt lat="41.9597931" lon="2.1316397"><ele>774.0</ele><time>2026-04-25T07:53:22.093Z</time></trkpt><trkpt lat="41.959937" lon="2.1313873"><ele>769.5</ele><time>2026-04-25T07:53:23.093Z</time></trkpt><trkpt lat="41.9600837" lon="2.1311339"><ele>765.0</ele><time>2026-04-25T07:53:24.093Z</time></trkpt><trkpt lat="41.9602308" lon="2.1308815"><ele>764.5</ele><time>2026-04-25T07:53:25.093Z</time></trkpt><trkpt lat="41.9603775" lon="2.1306323"><ele>764.0</ele><time>2026-04-25T07:53:26.092Z</time></trkpt><trkpt lat="41.9605203" lon="2.1303889"><ele>764.0</ele><time>2026-04-25T07:53:27.092Z</time></trkpt><trkpt lat="41.9606585" lon="2.1301566"><ele>764.0</ele><time>2026-04-25T07:53:28.093Z</time></trkpt><trkpt lat="41.9607922" lon="2.1299349"><ele>764.0</ele><time>2026-04-25T07:53:29.092Z</time></trkpt><trkpt lat="41.9609317" lon="2.1297303"><ele>766.6666666666666</ele><time>2026-04-25T07:53:30.092Z</time></trkpt><trkpt lat="41.9610691" lon="2.1295448"><ele>769.3333333333333</ele><time>2026-04-25T07:53:31.092Z</time></trkpt><trkpt lat="41.9612082" lon="2.1293789"><ele>772.0</ele><time>2026-04-25T07:53:32.091Z</time></trkpt><trkpt lat="41.9613501" lon="2.1292354"><ele>772.0</ele><time>2026-04-25T07:53:33.091Z</time></trkpt><trkpt lat="41.9614897" lon="2.1291165"><ele>772.0</ele><time>2026-04-25T07:53:34.092Z</time></trkpt><trkpt lat="41.9616306" lon="2.1290092"><ele>772.0</ele><time>2026-04-25T07:53:35.092Z</time></trkpt><trkpt lat="41.9617623" lon="2.1289214"><ele>769.3333333333333</ele><time>2026-04-25T07:53:36.092Z</time></trkpt><trkpt lat="41.9618797" lon="2.1288533"><ele>766.6666666666666</ele><time>2026-04-25T07:53:37.092Z</time></trkpt><trkpt lat="41.9619723" lon="2.1288065"><ele>764.0</ele><time>2026-04-25T07:53:38.092Z</time></trkpt><trkpt lat="41.9620415" lon="2.1287571"><ele>761.3333333333333</ele><time>2026-04-25T07:53:39.092Z</time></trkpt><trkpt lat="41.9620904" lon="2.128697"><ele>758.6666666666666</ele><time>2026-04-25T07:53:40.092Z</time></trkpt><trkpt lat="41.9621182" lon="2.1286074"><ele>756.0</ele><time>2026-04-25T07:53:41.092Z</time></trkpt><trkpt lat="41.9621262" lon="2.1284887"><ele>756.0</ele><time>2026-04-25T07:53:42.091Z</time></trkpt><trkpt lat="41.9621279" lon="2.1283491"><ele>756.0</ele><time>2026-04-25T07:53:43.092Z</time></trkpt><trkpt lat="41.9621657" lon="2.1282242"><ele>756.0</ele><time>2026-04-25T07:53:44.092Z</time></trkpt><trkpt lat="41.962239" lon="2.1281365"><ele>756.0</ele><time>2026-04-25T07:53:45.092Z</time></trkpt><trkpt lat="41.9623531" lon="2.1280877"><ele>756.0</ele><time>2026-04-25T07:53:46.093Z</time></trkpt><trkpt lat="41.9624912" lon="2.1280641"><ele>756.0</ele><time>2026-04-25T07:53:47.092Z</time></trkpt><trkpt lat="41.9626354" lon="2.1280105"><ele>756.0</ele><time>2026-04-25T07:53:48.092Z</time></trkpt><trkpt lat="41.9627735" lon="2.1279097"><ele>756.0</ele><time>2026-04-25T07:53:49.093Z</time></trkpt><trkpt lat="41.9629077" lon="2.1277772"><ele>756.0</ele><time>2026-04-25T07:53:50.092Z</time></trkpt><trkpt lat="41.9630144" lon="2.1276445"><ele>756.0</ele><time>2026-04-25T07:53:51.093Z</time></trkpt><trkpt lat="41.9630878" lon="2.1274997"><ele>756.0</ele><time>2026-04-25T07:53:52.092Z</time></trkpt><trkpt lat="41.9631223" lon="2.1273204"><ele>756.0</ele><time>2026-04-25T07:53:53.091Z</time></trkpt><trkpt lat="41.9631211" lon="2.1271107"><ele>756.0</ele><time>2026-04-25T07:53:54.093Z</time></trkpt><trkpt lat="41.9630977" lon="2.1268677"><ele>756.0</ele><time>2026-04-25T07:53:55.092Z</time></trkpt><trkpt lat="41.9630641" lon="2.1265875"><ele>756.0</ele><time>2026-04-25T07:53:56.091Z</time></trkpt><trkpt lat="41.9630235" lon="2.1263001"><ele>753.5</ele><time>2026-04-25T07:53:57.092Z</time></trkpt><trkpt lat="41.962934" lon="2.1260359"><ele>751.0</ele><time>2026-04-25T07:53:58.092Z</time></trkpt><trkpt lat="41.9628007" lon="2.1257555"><ele>749.5</ele><time>2026-04-25T07:53:59.092Z</time></trkpt><trkpt lat="41.9626283" lon="2.125448"><ele>748.0</ele><time>2026-04-25T07:54:00.093Z</time></trkpt><trkpt lat="41.9624359" lon="2.1251079"><ele>747.5</ele><time>2026-04-25T07:54:01.092Z</time></trkpt><trkpt lat="41.9622649" lon="2.124803"><ele>747.0</ele><time>2026-04-25T07:54:02.091Z</time></trkpt><trkpt lat="41.9621196" lon="2.1245496"><ele>747.0</ele><time>2026-04-25T07:54:03.092Z</time></trkpt><trkpt lat="41.9619781" lon="2.1243517"><ele>747.0</ele><time>2026-04-25T07:54:04.092Z</time></trkpt><trkpt lat="41.9618163" lon="2.1242226"><ele>747.0</ele><time>2026-04-25T07:54:05.092Z</time></trkpt><trkpt lat="41.9616283" lon="2.1241106"><ele>753.0</ele><time>2026-04-25T07:54:06.092Z</time></trkpt><trkpt lat="41.9614414" lon="2.1239741"><ele>759.0</ele><time>2026-04-25T07:54:07.091Z</time></trkpt><trkpt lat="41.961253" lon="2.1237671"><ele>759.0</ele><time>2026-04-25T07:54:08.092Z</time></trkpt><trkpt lat="41.961052" lon="2.1235022"><ele>759.0</ele><time>2026-04-25T07:54:09.092Z</time></trkpt><trkpt lat="41.9608635" lon="2.1233048"><ele>757.75</ele><time>2026-04-25T07:54:10.092Z</time></trkpt><trkpt lat="41.9607145" lon="2.1231489"><ele>756.5</ele><time>2026-04-25T07:54:11.092Z</time></trkpt><trkpt lat="41.9606219" lon="2.1230202"><ele>755.25</ele><time>2026-04-25T07:54:12.093Z</time></trkpt><trkpt lat="41.9605718" lon="2.1228668"><ele>754.0</ele><time>2026-04-25T07:54:13.092Z</time></trkpt><trkpt lat="41.960579" lon="2.1226781"><ele>754.0</ele><time>2026-04-25T07:54:14.092Z</time></trkpt><trkpt lat="41.9606057" lon="2.1224892"><ele>754.0</ele><time>2026-04-25T07:54:15.092Z</time></trkpt><trkpt lat="41.9605744" lon="2.1222907"><ele>754.0</ele><time>2026-04-25T07:54:16.091Z</time></trkpt><trkpt lat="41.9605007" lon="2.1220434"><ele>753.0</ele><time>2026-04-25T07:54:17.093Z</time></trkpt><trkpt lat="41.9604085" lon="2.121785"><ele>752.0</ele><time>2026-04-25T07:54:18.092Z</time></trkpt><trkpt lat="41.9602965" lon="2.1215031"><ele>751.0</ele><time>2026-04-25T07:54:19.093Z</time></trkpt><trkpt lat="41.9601473" lon="2.1211726"><ele>750.0</ele><time>2026-04-25T07:54:20.091Z</time></trkpt><trkpt lat="41.9599705" lon="2.1207972"><ele>747.0</ele><time>2026-04-25T07:54:21.091Z</time></trkpt><trkpt lat="41.9597739" lon="2.1203927"><ele>744.0</ele><time>2026-04-25T07:54:22.093Z</time></trkpt><trkpt lat="41.9595633" lon="2.1199718"><ele>744.0</ele><time>2026-04-25T07:54:23.091Z</time></trkpt><trkpt lat="41.9593762" lon="2.1195871"><ele>744.0</ele><time>2026-04-25T07:54:24.093Z</time></trkpt><trkpt lat="41.9591976" lon="2.119228"><ele>745.5</ele><time>2026-04-25T07:54:25.092Z</time></trkpt><trkpt lat="41.9590254" lon="2.1188878"><ele>747.0</ele><time>2026-04-25T07:54:26.093Z</time></trkpt><trkpt lat="41.9588598" lon="2.11856"><ele>747.0</ele><time>2026-04-25T07:54:27.092Z</time></trkpt><trkpt lat="41.9587008" lon="2.1182475"><ele>747.0</ele><time>2026-04-25T07:54:28.093Z</time></trkpt><trkpt lat="41.9585553" lon="2.1179605"><ele>748.3333333333334</ele><time>2026-04-25T07:54:29.092Z</time></trkpt><trkpt lat="41.958424" lon="2.1177017"><ele>749.6666666666667</ele><time>2026-04-25T07:54:30.091Z</time></trkpt><trkpt lat="41.9583097" lon="2.1174776"><ele>751.0</ele><time>2026-04-25T07:54:31.091Z</time></trkpt><trkpt lat="41.9581789" lon="2.1172925"><ele>747.0</ele><time>2026-04-25T07:54:32.092Z</time></trkpt><trkpt lat="41.9580032" lon="2.1171295"><ele>743.0</ele><time>2026-04-25T07:54:33.091Z</time></trkpt><trkpt lat="41.9577925" lon="2.1169752"><ele>743.0</ele><time>2026-04-25T07:54:34.091Z</time></trkpt><trkpt lat="41.9575648" lon="2.1168185"><ele>743.0</ele><time>2026-04-25T07:54:35.092Z</time></trkpt><trkpt lat="41.9573252" lon="2.1166548"><ele>741.0</ele><time>2026-04-25T07:54:36.092Z</time></trkpt><trkpt lat="41.9570782" lon="2.1164856"><ele>739.0</ele><time>2026-04-25T07:54:37.092Z</time></trkpt><trkpt lat="41.9568287" lon="2.1163187"><ele>738.5</ele><time>2026-04-25T07:54:38.091Z</time></trkpt><trkpt lat="41.956579" lon="2.116155"><ele>738.0</ele><time>2026-04-25T07:54:39.092Z</time></trkpt><trkpt lat="41.9563298" lon="2.1159872"><ele>738.0</ele><time>2026-04-25T07:54:40.092Z</time></trkpt><trkpt lat="41.9560936" lon="2.1158263"><ele>738.0</ele><time>2026-04-25T07:54:41.092Z</time></trkpt><trkpt lat="41.9558868" lon="2.1156876"><ele>738.6666666666666</ele><time>2026-04-25T07:54:42.092Z</time></trkpt><trkpt lat="41.9557056" lon="2.1155605"><ele>739.3333333333333</ele><time>2026-04-25T07:54:43.092Z</time></trkpt><trkpt lat="41.9555544" lon="2.1154201"><ele>740.0</ele><time>2026-04-25T07:54:44.092Z</time></trkpt><trkpt lat="41.955427" lon="2.1152181"><ele>740.0</ele><time>2026-04-25T07:54:45.093Z</time></trkpt><trkpt lat="41.955306" lon="2.1149566"><ele>740.0</ele><time>2026-04-25T07:54:46.092Z</time></trkpt><trkpt lat="41.9551759" lon="2.1146537"><ele>737.5</ele><time>2026-04-25T07:54:47.091Z</time></trkpt><trkpt lat="41.9550355" lon="2.1143183"><ele>735.0</ele><time>2026-04-25T07:54:48.093Z</time></trkpt><trkpt lat="41.954896" lon="2.1139797"><ele>732.5</ele><time>2026-04-25T07:54:49.092Z</time></trkpt><trkpt lat="41.9547658" lon="2.1136645"><ele>730.0</ele><time>2026-04-25T07:54:50.092Z</time></trkpt><trkpt lat="41.9546446" lon="2.1133608"><ele>729.0</ele><time>2026-04-25T07:54:51.091Z</time></trkpt><trkpt lat="41.9545584" lon="2.1130719"><ele>728.0</ele><time>2026-04-25T07:54:52.092Z</time></trkpt><trkpt lat="41.9545188" lon="2.1127956"><ele>727.0</ele><time>2026-04-25T07:54:53.092Z</time></trkpt><trkpt lat="41.9545101" lon="2.1125562"><ele>727.3333333333334</ele><time>2026-04-25T07:54:54.092Z</time></trkpt><trkpt lat="41.95448" lon="2.1123609"><ele>727.6666666666666</ele><time>2026-04-25T07:54:55.092Z</time></trkpt><trkpt lat="41.9543979" lon="2.1121788"><ele>728.0</ele><time>2026-04-25T07:54:56.092Z</time></trkpt><trkpt lat="41.9542531" lon="2.1120024"><ele>728.5</ele><time>2026-04-25T07:54:57.092Z</time></trkpt><trkpt lat="41.9540782" lon="2.1118122"><ele>729.0</ele><time>2026-04-25T07:54:58.091Z</time></trkpt><trkpt lat="41.9538951" lon="2.1116116"><ele>726.6666666666666</ele><time>2026-04-25T07:54:59.092Z</time></trkpt><trkpt lat="41.9537287" lon="2.111438"><ele>724.3333333333333</ele><time>2026-04-25T07:55:00.092Z</time></trkpt><trkpt lat="41.9535558" lon="2.1112955"><ele>722.0</ele><time>2026-04-25T07:55:01.092Z</time></trkpt><trkpt lat="41.9533695" lon="2.1111782"><ele>722.0</ele><time>2026-04-25T07:55:02.092Z</time></trkpt><trkpt lat="41.9531928" lon="2.1110866"><ele>722.0</ele><time>2026-04-25T07:55:03.092Z</time></trkpt><trkpt lat="41.9530471" lon="2.1109842"><ele>722.0</ele><time>2026-04-25T07:55:04.092Z</time></trkpt><trkpt lat="41.9529275" lon="2.1108026"><ele>717.5</ele><time>2026-04-25T07:55:05.093Z</time></trkpt><trkpt lat="41.9528362" lon="2.1105531"><ele>713.0</ele><time>2026-04-25T07:55:06.092Z</time></trkpt><trkpt lat="41.9527489" lon="2.1102434"><ele>709.5</ele><time>2026-04-25T07:55:07.093Z</time></trkpt><trkpt lat="41.9526559" lon="2.1098885"><ele>706.0</ele><time>2026-04-25T07:55:08.092Z</time></trkpt><trkpt lat="41.9525532" lon="2.1094966"><ele>705.5</ele><time>2026-04-25T07:55:09.092Z</time></trkpt><trkpt lat="41.9524448" lon="2.1091006"><ele>705.0</ele><time>2026-04-25T07:55:10.091Z</time></trkpt><trkpt lat="41.9523461" lon="2.1087401"><ele>705.0</ele><time>2026-04-25T07:55:11.093Z</time></trkpt><trkpt lat="41.9522565" lon="2.1083975"><ele>705.0</ele><time>2026-04-25T07:55:12.092Z</time></trkpt><trkpt lat="41.9521919" lon="2.1080603"><ele>703.0</ele><time>2026-04-25T07:55:13.091Z</time></trkpt><trkpt lat="41.9521557" lon="2.1076761"><ele>701.0</ele><time>2026-04-25T07:55:14.092Z</time></trkpt><trkpt lat="41.9521493" lon="2.1072816"><ele>698.0</ele><time>2026-04-25T07:55:15.091Z</time></trkpt><trkpt lat="41.952157" lon="2.1069206"><ele>695.0</ele><time>2026-04-25T07:55:16.091Z</time></trkpt><trkpt lat="41.9521597" lon="2.1065832"><ele>694.0</ele><time>2026-04-25T07:55:17.092Z</time></trkpt><trkpt lat="41.9521466" lon="2.1062692"><ele>693.0</ele><time>2026-04-25T07:55:18.092Z</time></trkpt><trkpt lat="41.9520896" lon="2.1059633"><ele>691.0</ele><time>2026-04-25T07:55:19.091Z</time></trkpt><trkpt lat="41.9519784" lon="2.1056451"><ele>689.0</ele><time>2026-04-25T07:55:20.092Z</time></trkpt><trkpt lat="41.9518498" lon="2.1053378"><ele>689.0</ele><time>2026-04-25T07:55:21.092Z</time></trkpt><trkpt lat="41.9517328" lon="2.1050771"><ele>689.0</ele><time>2026-04-25T07:55:22.092Z</time></trkpt><trkpt lat="41.9515867" lon="2.1048515"><ele>689.0</ele><time>2026-04-25T07:55:23.092Z</time></trkpt><trkpt lat="41.9514119" lon="2.1046719"><ele>686.5</ele><time>2026-04-25T07:55:24.092Z</time></trkpt><trkpt lat="41.9511997" lon="2.1045453"><ele>684.0</ele><time>2026-04-25T07:55:25.091Z</time></trkpt><trkpt lat="41.9509419" lon="2.1044404"><ele>684.0</ele><time>2026-04-25T07:55:26.092Z</time></trkpt><trkpt lat="41.9506478" lon="2.1043407"><ele>684.0</ele><time>2026-04-25T07:55:27.092Z</time></trkpt><trkpt lat="41.9503276" lon="2.104222"><ele>684.5</ele><time>2026-04-25T07:55:28.092Z</time></trkpt><trkpt lat="41.9500226" lon="2.1040898"><ele>685.0</ele><time>2026-04-25T07:55:29.091Z</time></trkpt><trkpt lat="41.9497354" lon="2.1039909"><ele>685.5</ele><time>2026-04-25T07:55:30.092Z</time></trkpt><trkpt lat="41.9494423" lon="2.1039278"><ele>686.0</ele><time>2026-04-25T07:55:31.092Z</time></trkpt><trkpt lat="41.9491384" lon="2.1038726"><ele>686.0</ele><time>2026-04-25T07:55:32.092Z</time></trkpt><trkpt lat="41.9488228" lon="2.1038047"><ele>686.0</ele><time>2026-04-25T07:55:33.092Z</time></trkpt><trkpt lat="41.9485162" lon="2.1037144"><ele>690.0</ele><time>2026-04-25T07:55:34.091Z</time></trkpt><trkpt lat="41.9482365" lon="2.103621"><ele>694.0</ele><time>2026-04-25T07:55:35.092Z</time></trkpt><trkpt lat="41.9479878" lon="2.103532"><ele>694.0</ele><time>2026-04-25T07:55:36.092Z</time></trkpt><trkpt lat="41.9477597" lon="2.1034512"><ele>694.0</ele><time>2026-04-25T07:55:37.092Z</time></trkpt><trkpt lat="41.9475765" lon="2.1033881"><ele>694.0</ele><time>2026-04-25T07:55:38.092Z</time></trkpt><trkpt lat="41.9474388" lon="2.1033165"><ele>694.6666666666667</ele><time>2026-04-25T07:55:39.092Z</time></trkpt><trkpt lat="41.9473466" lon="2.1031934"><ele>695.3333333333334</ele><time>2026-04-25T07:55:40.092Z</time></trkpt><trkpt lat="41.9472741" lon="2.1030092"><ele>696.0</ele><time>2026-04-25T07:55:41.092Z</time></trkpt><trkpt lat="41.9472384" lon="2.1027516"><ele>696.0</ele><time>2026-04-25T07:55:42.091Z</time></trkpt><trkpt lat="41.9472215" lon="2.1024399"><ele>696.0</ele><time>2026-04-25T07:55:43.092Z</time></trkpt><trkpt lat="41.9472294" lon="2.1021458"><ele>694.3333333333334</ele><time>2026-04-25T07:55:44.092Z</time></trkpt><trkpt lat="41.9472333" lon="2.101883"><ele>692.6666666666667</ele><time>2026-04-25T07:55:45.091Z</time></trkpt><trkpt lat="41.9471939" lon="2.1016273"><ele>691.0</ele><time>2026-04-25T07:55:46.092Z</time></trkpt><trkpt lat="41.9470973" lon="2.1013708"><ele>689.0</ele><time>2026-04-25T07:55:47.092Z</time></trkpt><trkpt lat="41.9469763" lon="2.1011493"><ele>687.0</ele><time>2026-04-25T07:55:48.092Z</time></trkpt><trkpt lat="41.9468422" lon="2.1009327"><ele>685.0</ele><time>2026-04-25T07:55:49.093Z</time></trkpt><trkpt lat="41.9465812" lon="2.100792"><ele>684.0</ele><time>2026-04-25T07:55:50.091Z</time></trkpt><trkpt lat="41.9463523" lon="2.1006504"><ele>683.0</ele><time>2026-04-25T07:55:51.093Z</time></trkpt><trkpt lat="41.9460959" lon="2.1005575"><ele>684.6666666666666</ele><time>2026-04-25T07:55:52.092Z</time></trkpt><trkpt lat="41.9458676" lon="2.1005138"><ele>686.3333333333334</ele><time>2026-04-25T07:55:53.092Z</time></trkpt><trkpt lat="41.9456579" lon="2.1005151"><ele>688.0</ele><time>2026-04-25T07:55:54.092Z</time></trkpt><trkpt lat="41.9454827" lon="2.1005528"><ele>688.0</ele><time>2026-04-25T07:55:55.092Z</time></trkpt><trkpt lat="41.9453327" lon="2.1005598"><ele>688.0</ele><time>2026-04-25T07:55:56.092Z</time></trkpt><trkpt lat="41.9452094" lon="2.100517"><ele>688.0</ele><time>2026-04-25T07:55:57.091Z</time></trkpt><trkpt lat="41.9451223" lon="2.1004176"><ele>688.0</ele><time>2026-04-25T07:55:58.091Z</time></trkpt><trkpt lat="41.9450702" lon="2.1002528"><ele>688.0</ele><time>2026-04-25T07:55:59.093Z</time></trkpt><trkpt lat="41.9450359" lon="2.1000148"><ele>688.0</ele><time>2026-04-25T07:56:00.092Z</time></trkpt><trkpt lat="41.9450058" lon="2.0997805"><ele>688.0</ele><time>2026-04-25T07:56:01.092Z</time></trkpt><trkpt lat="41.9449413" lon="2.0995828"><ele>688.0</ele><time>2026-04-25T07:56:02.092Z</time></trkpt><trkpt lat="41.9448254" lon="2.0994101"><ele>688.0</ele><time>2026-04-25T07:56:03.091Z</time></trkpt><trkpt lat="41.9446575" lon="2.0992743"><ele>688.0</ele><time>2026-04-25T07:56:04.091Z</time></trkpt><trkpt lat="41.9444427" lon="2.0991362"><ele>686.0</ele><time>2026-04-25T07:56:05.092Z</time></trkpt><trkpt lat="41.9442096" lon="2.098977"><ele>684.0</ele><time>2026-04-25T07:56:06.091Z</time></trkpt><trkpt lat="41.9439782" lon="2.0988418"><ele>684.0</ele><time>2026-04-25T07:56:07.093Z</time></trkpt><trkpt lat="41.9437323" lon="2.0987531"><ele>684.0</ele><time>2026-04-25T07:56:08.092Z</time></trkpt><trkpt lat="41.9434756" lon="2.0986932"><ele>683.5</ele><time>2026-04-25T07:56:09.092Z</time></trkpt><trkpt lat="41.9432367" lon="2.0986511"><ele>683.0</ele><time>2026-04-25T07:56:10.091Z</time></trkpt><trkpt lat="41.9430152" lon="2.0985964"><ele>683.0</ele><time>2026-04-25T07:56:11.091Z</time></trkpt><trkpt lat="41.942802" lon="2.098507"><ele>683.0</ele><time>2026-04-25T07:56:12.091Z</time></trkpt><trkpt lat="41.9425936" lon="2.0983722"><ele>683.5</ele><time>2026-04-25T07:56:13.092Z</time></trkpt><trkpt lat="41.9423856" lon="2.0981831"><ele>684.0</ele><time>2026-04-25T07:56:14.092Z</time></trkpt><trkpt lat="41.9421708" lon="2.0979461"><ele>684.0</ele><time>2026-04-25T07:56:15.093Z</time></trkpt><trkpt lat="41.9419723" lon="2.0977073"><ele>684.0</ele><time>2026-04-25T07:56:16.092Z</time></trkpt><trkpt lat="41.941803" lon="2.097503"><ele>683.6666666666666</ele><time>2026-04-25T07:56:17.092Z</time></trkpt><trkpt lat="41.9416629" lon="2.0973073"><ele>683.3333333333333</ele><time>2026-04-25T07:56:18.092Z</time></trkpt><trkpt lat="41.9415581" lon="2.0970742"><ele>683.0</ele><time>2026-04-25T07:56:19.092Z</time></trkpt><trkpt lat="41.9414893" lon="2.0968062"><ele>682.0</ele><time>2026-04-25T07:56:20.092Z</time></trkpt><trkpt lat="41.9414213" lon="2.0965206"><ele>681.0</ele><time>2026-04-25T07:56:21.092Z</time></trkpt><trkpt lat="41.9413084" lon="2.0962477"><ele>681.0</ele><time>2026-04-25T07:56:22.092Z</time></trkpt><trkpt lat="41.9411493" lon="2.0959605"><ele>681.0</ele><time>2026-04-25T07:56:23.091Z</time></trkpt><trkpt lat="41.9409719" lon="2.0956585"><ele>677.5</ele><time>2026-04-25T07:56:24.092Z</time></trkpt><trkpt lat="41.9407769" lon="2.0953841"><ele>674.0</ele><time>2026-04-25T07:56:25.092Z</time></trkpt><trkpt lat="41.9405636" lon="2.0951596"><ele>674.0</ele><time>2026-04-25T07:56:26.091Z</time></trkpt><trkpt lat="41.9403552" lon="2.0949652"><ele>674.0</ele><time>2026-04-25T07:56:27.092Z</time></trkpt><trkpt lat="41.940165" lon="2.0947474"><ele>673.3333333333333</ele><time>2026-04-25T07:56:28.092Z</time></trkpt><trkpt lat="41.9400049" lon="2.094508"><ele>672.6666666666666</ele><time>2026-04-25T07:56:29.092Z</time></trkpt><trkpt lat="41.9398811" lon="2.0943025"><ele>672.0</ele><time>2026-04-25T07:56:30.091Z</time></trkpt><trkpt lat="41.9397632" lon="2.0941415"><ele>670.0</ele><time>2026-04-25T07:56:31.092Z</time></trkpt><trkpt lat="41.9396129" lon="2.0940409"><ele>668.0</ele><time>2026-04-25T07:56:32.092Z</time></trkpt><trkpt lat="41.9394368" lon="2.0940035"><ele>666.0</ele><time>2026-04-25T07:56:33.092Z</time></trkpt><trkpt lat="41.9392509" lon="2.093963"><ele>669.6666666666666</ele><time>2026-04-25T07:56:34.091Z</time></trkpt><trkpt lat="41.9391108" lon="2.0938767"><ele>673.3333333333333</ele><time>2026-04-25T07:56:35.092Z</time></trkpt><trkpt lat="41.9389509" lon="2.0937124"><ele>677.0</ele><time>2026-04-25T07:56:36.091Z</time></trkpt><trkpt lat="41.9387778" lon="2.0935001"><ele>677.0</ele><time>2026-04-25T07:56:37.092Z</time></trkpt><trkpt lat="41.9386231" lon="2.0933032"><ele>677.0</ele><time>2026-04-25T07:56:38.092Z</time></trkpt><trkpt lat="41.9385011" lon="2.0931024"><ele>677.0</ele><time>2026-04-25T07:56:39.092Z</time></trkpt><trkpt lat="41.9384271" lon="2.0928586"><ele>673.6666666666666</ele><time>2026-04-25T07:56:40.091Z</time></trkpt><trkpt lat="41.9383735" lon="2.092613"><ele>670.3333333333334</ele><time>2026-04-25T07:56:41.092Z</time></trkpt><trkpt lat="41.9382966" lon="2.0924229"><ele>667.0</ele><time>2026-04-25T07:56:42.092Z</time></trkpt><trkpt lat="41.9381618" lon="2.0922528"><ele>664.0</ele><time>2026-04-25T07:56:43.091Z</time></trkpt><trkpt lat="41.9379712" lon="2.0920891"><ele>661.0</ele><time>2026-04-25T07:56:44.092Z</time></trkpt><trkpt lat="41.937748" lon="2.0919389"><ele>662.6666666666667</ele><time>2026-04-25T07:56:45.091Z</time></trkpt><trkpt lat="41.9375305" lon="2.0918238"><ele>664.3333333333334</ele><time>2026-04-25T07:56:46.091Z</time></trkpt><trkpt lat="41.9373361" lon="2.0917399"><ele>666.0</ele><time>2026-04-25T07:56:47.092Z</time></trkpt><trkpt lat="41.9371443" lon="2.0916559"><ele>665.0</ele><time>2026-04-25T07:56:48.091Z</time></trkpt><trkpt lat="41.937005" lon="2.0915335"><ele>664.0</ele><time>2026-04-25T07:56:49.092Z</time></trkpt><trkpt lat="41.9368561" lon="2.0913566"><ele>663.0</ele><time>2026-04-25T07:56:50.092Z</time></trkpt><trkpt lat="41.9366648" lon="2.0911515"><ele>660.0</ele><time>2026-04-25T07:56:51.092Z</time></trkpt><trkpt lat="41.9364583" lon="2.0908245"><ele>657.0</ele><time>2026-04-25T07:56:52.092Z</time></trkpt><trkpt lat="41.9363481" lon="2.090333"><ele>654.5</ele><time>2026-04-25T07:56:53.092Z</time></trkpt><trkpt lat="41.9361638" lon="2.0899837"><ele>652.0</ele><time>2026-04-25T07:56:54.091Z</time></trkpt><trkpt lat="41.9359787" lon="2.0896234"><ele>646.0</ele><time>2026-04-25T07:56:55.092Z</time></trkpt><trkpt lat="41.9357915" lon="2.0892674"><ele>640.0</ele><time>2026-04-25T07:56:56.091Z</time></trkpt><trkpt lat="41.9356018" lon="2.0889121"><ele>638.0</ele><time>2026-04-25T07:56:57.092Z</time></trkpt><trkpt lat="41.9354076" lon="2.0885538"><ele>636.0</ele><time>2026-04-25T07:56:58.091Z</time></trkpt><trkpt lat="41.9352224" lon="2.0882103"><ele>634.5</ele><time>2026-04-25T07:56:59.092Z</time></trkpt><trkpt lat="41.9350524" lon="2.0879032"><ele>633.0</ele><time>2026-04-25T07:57:00.092Z</time></trkpt><trkpt lat="41.9349051" lon="2.087632"><ele>633.0</ele><time>2026-04-25T07:57:01.092Z</time></trkpt><trkpt lat="41.9347731" lon="2.0873901"><ele>633.0</ele><time>2026-04-25T07:57:02.092Z</time></trkpt><trkpt lat="41.9346643" lon="2.087141"><ele>633.0</ele><time>2026-04-25T07:57:03.092Z</time></trkpt><trkpt lat="41.934593" lon="2.0868474"><ele>631.5</ele><time>2026-04-25T07:57:04.091Z</time></trkpt><trkpt lat="41.9345512" lon="2.0865082"><ele>630.0</ele><time>2026-04-25T07:57:05.093Z</time></trkpt><trkpt lat="41.9345314" lon="2.0861856"><ele>630.0</ele><time>2026-04-25T07:57:06.092Z</time></trkpt><trkpt lat="41.9345268" lon="2.0859189"><ele>630.0</ele><time>2026-04-25T07:57:07.092Z</time></trkpt><trkpt lat="41.9345592" lon="2.0856789"><ele>630.0</ele><time>2026-04-25T07:57:08.093Z</time></trkpt><trkpt lat="41.9346348" lon="2.0854538"><ele>627.6666666666666</ele><time>2026-04-25T07:57:09.092Z</time></trkpt><trkpt lat="41.9347291" lon="2.0852571"><ele>625.3333333333333</ele><time>2026-04-25T07:57:10.092Z</time></trkpt><trkpt lat="41.9348437" lon="2.0851018"><ele>623.0</ele><time>2026-04-25T07:57:11.092Z</time></trkpt><trkpt lat="41.9349991" lon="2.0849759"><ele>619.6666666666666</ele><time>2026-04-25T07:57:12.092Z</time></trkpt><trkpt lat="41.935155" lon="2.084882"><ele>616.3333333333334</ele><time>2026-04-25T07:57:13.091Z</time></trkpt><trkpt lat="41.9352999" lon="2.0848321"><ele>613.0</ele><time>2026-04-25T07:57:14.092Z</time></trkpt><trkpt lat="41.9354537" lon="2.0848448"><ele>613.0</ele><time>2026-04-25T07:57:15.091Z</time></trkpt><trkpt lat="41.935618" lon="2.0849091"><ele>613.0</ele><time>2026-04-25T07:57:16.092Z</time></trkpt><trkpt lat="41.9357835" lon="2.0849707"><ele>613.0</ele><time>2026-04-25T07:57:17.091Z</time></trkpt><trkpt lat="41.9359415" lon="2.0849686"><ele>614.6666666666667</ele><time>2026-04-25T07:57:18.091Z</time></trkpt><trkpt lat="41.936085" lon="2.0849183"><ele>616.3333333333334</ele><time>2026-04-25T07:57:19.092Z</time></trkpt><trkpt lat="41.9361948" lon="2.0848"><ele>618.0</ele><time>2026-04-25T07:57:20.092Z</time></trkpt><trkpt lat="41.9362834" lon="2.0846094"><ele>618.0</ele><time>2026-04-25T07:57:21.092Z</time></trkpt><trkpt lat="41.9363666" lon="2.0843596"><ele>618.0</ele><time>2026-04-25T07:57:22.091Z</time></trkpt><trkpt lat="41.9364417" lon="2.0841212"><ele>618.0</ele><time>2026-04-25T07:57:23.092Z</time></trkpt><trkpt lat="41.9364911" lon="2.0838997"><ele>617.6666666666666</ele><time>2026-04-25T07:57:24.093Z</time></trkpt><trkpt lat="41.9364908" lon="2.083651"><ele>617.3333333333333</ele><time>2026-04-25T07:57:25.091Z</time></trkpt><trkpt lat="41.9365048" lon="2.0833936"><ele>617.0</ele><time>2026-04-25T07:57:26.092Z</time></trkpt><trkpt lat="41.9364627" lon="2.0830491"><ele>616.0</ele><time>2026-04-25T07:57:27.092Z</time></trkpt><trkpt lat="41.9363642" lon="2.0827312"><ele>615.0</ele><time>2026-04-25T07:57:28.091Z</time></trkpt><trkpt lat="41.9362283" lon="2.0824947"><ele>613.3333333333334</ele><time>2026-04-25T07:57:29.092Z</time></trkpt><trkpt lat="41.9361593" lon="2.0822412"><ele>611.6666666666667</ele><time>2026-04-25T07:57:30.092Z</time></trkpt><trkpt lat="41.9361224" lon="2.0819819"><ele>610.0</ele><time>2026-04-25T07:57:31.091Z</time></trkpt><trkpt lat="41.9360974" lon="2.0817547"><ele>608.6666666666667</ele><time>2026-04-25T07:57:32.092Z</time></trkpt><trkpt lat="41.9360468" lon="2.0815638"><ele>607.3333333333334</ele><time>2026-04-25T07:57:33.092Z</time></trkpt><trkpt lat="41.935932" lon="2.081383"><ele>606.0</ele><time>2026-04-25T07:57:34.092Z</time></trkpt><trkpt lat="41.935829" lon="2.0811886"><ele>602.3333333333334</ele><time>2026-04-25T07:57:35.092Z</time></trkpt><trkpt lat="41.9356504" lon="2.0809782"><ele>598.6666666666667</ele><time>2026-04-25T07:57:36.092Z</time></trkpt><trkpt lat="41.9355557" lon="2.0807759"><ele>595.0</ele><time>2026-04-25T07:57:37.093Z</time></trkpt><trkpt lat="41.9354945" lon="2.0805817"><ele>594.5</ele><time>2026-04-25T07:57:38.091Z</time></trkpt><trkpt lat="41.9355" lon="2.0804094"><ele>594.0</ele><time>2026-04-25T07:57:39.091Z</time></trkpt><trkpt lat="41.9355545" lon="2.0802604"><ele>593.5</ele><time>2026-04-25T07:57:40.093Z</time></trkpt><trkpt lat="41.9356032" lon="2.0801007"><ele>593.0</ele><time>2026-04-25T07:57:41.091Z</time></trkpt><trkpt lat="41.9355953" lon="2.0799349"><ele>593.3333333333333</ele><time>2026-04-25T07:57:42.091Z</time></trkpt><trkpt lat="41.9355231" lon="2.0797844"><ele>593.6666666666666</ele><time>2026-04-25T07:57:43.092Z</time></trkpt><trkpt lat="41.9353913" lon="2.0796551"><ele>594.0</ele><time>2026-04-25T07:57:44.092Z</time></trkpt><trkpt lat="41.9352421" lon="2.0795273"><ele>594.0</ele><time>2026-04-25T07:57:45.092Z</time></trkpt><trkpt lat="41.9351096" lon="2.0793723"><ele>594.0</ele><time>2026-04-25T07:57:46.093Z</time></trkpt><trkpt lat="41.9349879" lon="2.0791965"><ele>594.0</ele><time>2026-04-25T07:57:47.092Z</time></trkpt><trkpt lat="41.9350179" lon="2.0789339"><ele>592.3333333333334</ele><time>2026-04-25T07:57:48.092Z</time></trkpt><trkpt lat="41.9350055" lon="2.0787315"><ele>590.6666666666667</ele><time>2026-04-25T07:57:49.092Z</time></trkpt><trkpt lat="41.9351077" lon="2.0785544"><ele>589.0</ele><time>2026-04-25T07:57:50.091Z</time></trkpt><trkpt lat="41.93515" lon="2.0783378"><ele>586.3333333333334</ele><time>2026-04-25T07:57:51.091Z</time></trkpt><trkpt lat="41.9351347" lon="2.0781062"><ele>583.6666666666666</ele><time>2026-04-25T07:57:52.092Z</time></trkpt><trkpt lat="41.9351176" lon="2.0778603"><ele>581.0</ele><time>2026-04-25T07:57:53.093Z</time></trkpt><trkpt lat="41.9351212" lon="2.0776515"><ele>581.0</ele><time>2026-04-25T07:57:54.093Z</time></trkpt><trkpt lat="41.9351508" lon="2.0774448"><ele>581.0</ele><time>2026-04-25T07:57:55.092Z</time></trkpt><trkpt lat="41.9352194" lon="2.0772283"><ele>581.0</ele><time>2026-04-25T07:57:56.091Z</time></trkpt><trkpt lat="41.935359" lon="2.077124"><ele>581.0</ele><time>2026-04-25T07:57:57.092Z</time></trkpt><trkpt lat="41.9353869" lon="2.0769522"><ele>581.0</ele><time>2026-04-25T07:57:58.092Z</time></trkpt><trkpt lat="41.9353569" lon="2.0767684"><ele>581.0</ele><time>2026-04-25T07:57:59.091Z</time></trkpt><trkpt lat="41.935263" lon="2.0765648"><ele>581.0</ele><time>2026-04-25T07:58:00.093Z</time></trkpt><trkpt lat="41.9351747" lon="2.076385"><ele>579.25</ele><time>2026-04-25T07:58:01.091Z</time></trkpt><trkpt lat="41.9351194" lon="2.0762305"><ele>577.5</ele><time>2026-04-25T07:58:02.092Z</time></trkpt><trkpt lat="41.935111" lon="2.076075"><ele>575.75</ele><time>2026-04-25T07:58:03.092Z</time></trkpt><trkpt lat="41.935087" lon="2.075917"><ele>574.0</ele><time>2026-04-25T07:58:04.091Z</time></trkpt><trkpt lat="41.9351321" lon="2.0757579"><ele>569.6666666666667</ele><time>2026-04-25T07:58:05.092Z</time></trkpt><trkpt lat="41.9352437" lon="2.0755929"><ele>565.3333333333334</ele><time>2026-04-25T07:58:06.093Z</time></trkpt><trkpt lat="41.9354159" lon="2.0753729"><ele>561.0</ele><time>2026-04-25T07:58:07.092Z</time></trkpt><trkpt lat="41.935521" lon="2.0750923"><ele>555.5</ele><time>2026-04-25T07:58:08.092Z</time></trkpt><trkpt lat="41.9356241" lon="2.0747605"><ele>550.0</ele><time>2026-04-25T07:58:09.092Z</time></trkpt><trkpt lat="41.9357158" lon="2.0744314"><ele>550.0</ele><time>2026-04-25T07:58:10.092Z</time></trkpt><trkpt lat="41.935782" lon="2.0741339"><ele>550.0</ele><time>2026-04-25T07:58:11.092Z</time></trkpt><trkpt lat="41.9358276" lon="2.0738834"><ele>550.0</ele><time>2026-04-25T07:58:12.093Z</time></trkpt><trkpt lat="41.9358638" lon="2.0736671"><ele>549.0</ele><time>2026-04-25T07:58:13.092Z</time></trkpt><trkpt lat="41.9359202" lon="2.0734863"><ele>548.0</ele><time>2026-04-25T07:58:14.092Z</time></trkpt><trkpt lat="41.9359953" lon="2.0732945"><ele>547.0</ele><time>2026-04-25T07:58:15.091Z</time></trkpt><trkpt lat="41.936088" lon="2.0730973"><ele>538.0</ele><time>2026-04-25T07:58:16.092Z</time></trkpt><trkpt lat="41.9364374" lon="2.0730075"><ele>529.0</ele><time>2026-04-25T07:58:17.092Z</time></trkpt><trkpt lat="41.9366255" lon="2.0728857"><ele>529.0</ele><time>2026-04-25T07:58:18.093Z</time></trkpt><trkpt lat="41.9367888" lon="2.072741"><ele>529.0</ele><time>2026-04-25T07:58:19.091Z</time></trkpt><trkpt lat="41.9369381" lon="2.0725324"><ele>529.0</ele><time>2026-04-25T07:58:20.092Z</time></trkpt><trkpt lat="41.9370398" lon="2.072354"><ele>529.3333333333334</ele><time>2026-04-25T07:58:21.092Z</time></trkpt><trkpt lat="41.9371067" lon="2.0721668"><ele>529.6666666666666</ele><time>2026-04-25T07:58:22.091Z</time></trkpt><trkpt lat="41.9371383" lon="2.0719492"><ele>530.0</ele><time>2026-04-25T07:58:23.091Z</time></trkpt><trkpt lat="41.9371134" lon="2.0716809"><ele>530.5</ele><time>2026-04-25T07:58:24.092Z</time></trkpt><trkpt lat="41.9370731" lon="2.0713405"><ele>531.0</ele><time>2026-04-25T07:58:25.093Z</time></trkpt><trkpt lat="41.9370463" lon="2.0710045"><ele>528.3333333333334</ele><time>2026-04-25T07:58:26.094Z</time></trkpt><trkpt lat="41.9370162" lon="2.0707266"><ele>525.6666666666667</ele><time>2026-04-25T07:58:27.093Z</time></trkpt><trkpt lat="41.9369527" lon="2.0704826"><ele>523.0</ele><time>2026-04-25T07:58:28.093Z</time></trkpt><trkpt lat="41.9368631" lon="2.0702824"><ele>523.0</ele><time>2026-04-25T07:58:29.093Z</time></trkpt><trkpt lat="41.9367322" lon="2.070113"><ele>523.0</ele><time>2026-04-25T07:58:30.093Z</time></trkpt><trkpt lat="41.9365971" lon="2.0699401"><ele>523.0</ele><time>2026-04-25T07:58:31.092Z</time></trkpt><trkpt lat="41.9363372" lon="2.0698225"><ele>523.0</ele><time>2026-04-25T07:58:32.094Z</time></trkpt><trkpt lat="41.9361694" lon="2.0696817"><ele>523.0</ele><time>2026-04-25T07:58:33.092Z</time></trkpt><trkpt lat="41.9360034" lon="2.0694825"><ele>523.0</ele><time>2026-04-25T07:58:34.094Z</time></trkpt><trkpt lat="41.9358329" lon="2.0692531"><ele>523.0</ele><time>2026-04-25T07:58:35.092Z</time></trkpt><trkpt lat="41.935697" lon="2.0690512"><ele>523.0</ele><time>2026-04-25T07:58:36.093Z</time></trkpt><trkpt lat="41.9355974" lon="2.068844"><ele>523.0</ele><time>2026-04-25T07:58:37.092Z</time></trkpt><trkpt lat="41.9355474" lon="2.0686275"><ele>523.0</ele><time>2026-04-25T07:58:38.093Z</time></trkpt><trkpt lat="41.9355507" lon="2.0683834"><ele>523.0</ele><time>2026-04-25T07:58:39.094Z</time></trkpt><trkpt lat="41.9355874" lon="2.0680996"><ele>523.0</ele><time>2026-04-25T07:58:40.093Z</time></trkpt><trkpt lat="41.9356151" lon="2.0678437"><ele>521.0</ele><time>2026-04-25T07:58:41.094Z</time></trkpt><trkpt lat="41.9356017" lon="2.0676077"><ele>519.0</ele><time>2026-04-25T07:58:42.093Z</time></trkpt><trkpt lat="41.9355278" lon="2.0673735"><ele>517.0</ele><time>2026-04-25T07:58:43.094Z</time></trkpt><trkpt lat="41.9353899" lon="2.0671419"><ele>514.6666666666667</ele><time>2026-04-25T07:58:44.093Z</time></trkpt><trkpt lat="41.9352115" lon="2.0669488"><ele>512.3333333333334</ele><time>2026-04-25T07:58:45.092Z</time></trkpt><trkpt lat="41.9350292" lon="2.0667956"><ele>510.0</ele><time>2026-04-25T07:58:46.093Z</time></trkpt><trkpt lat="41.9348836" lon="2.0666517"><ele>509.33333333333337</ele><time>2026-04-25T07:58:47.092Z</time></trkpt><trkpt lat="41.9347732" lon="2.0664841"><ele>508.6666666666667</ele><time>2026-04-25T07:58:48.092Z</time></trkpt><trkpt lat="41.9346817" lon="2.0662855"><ele>508.0</ele><time>2026-04-25T07:58:49.093Z</time></trkpt><trkpt lat="41.9346242" lon="2.0659858"><ele>500.5</ele><time>2026-04-25T07:58:50.093Z</time></trkpt><trkpt lat="41.9345045" lon="2.0657155"><ele>493.0</ele><time>2026-04-25T07:58:51.093Z</time></trkpt><trkpt lat="41.9343588" lon="2.0654128"><ele>493.0</ele><time>2026-04-25T07:58:52.093Z</time></trkpt><trkpt lat="41.9342245" lon="2.0650669"><ele>493.0</ele><time>2026-04-25T07:58:53.093Z</time></trkpt><trkpt lat="41.9340958" lon="2.0646844"><ele>496.0</ele><time>2026-04-25T07:58:54.093Z</time></trkpt><trkpt lat="41.9339728" lon="2.0643231"><ele>499.0</ele><time>2026-04-25T07:58:55.092Z</time></trkpt><trkpt lat="41.933849" lon="2.0639956"><ele>501.0</ele><time>2026-04-25T07:58:56.094Z</time></trkpt><trkpt lat="41.9337284" lon="2.0636926"><ele>503.0</ele><time>2026-04-25T07:58:57.093Z</time></trkpt><trkpt lat="41.9336235" lon="2.0634168"><ele>501.66666666666663</ele><time>2026-04-25T07:58:58.094Z</time></trkpt><trkpt lat="41.9335442" lon="2.0631542"><ele>500.33333333333337</ele><time>2026-04-25T07:58:59.093Z</time></trkpt><trkpt lat="41.9335005" lon="2.0629144"><ele>499.0</ele><time>2026-04-25T07:59:00.093Z</time></trkpt><trkpt lat="41.9335017" lon="2.0626868"><ele>495.33333333333337</ele><time>2026-04-25T07:59:01.094Z</time></trkpt><trkpt lat="41.9335521" lon="2.0624295"><ele>491.66666666666663</ele><time>2026-04-25T07:59:02.093Z</time></trkpt><trkpt lat="41.933634" lon="2.0621501"><ele>488.0</ele><time>2026-04-25T07:59:03.093Z</time></trkpt><trkpt lat="41.9337656" lon="2.0618458"><ele>482.5</ele><time>2026-04-25T07:59:04.093Z</time></trkpt><trkpt lat="41.9339386" lon="2.0615196"><ele>477.0</ele><time>2026-04-25T07:59:05.093Z</time></trkpt><trkpt lat="41.9341223" lon="2.0612169"><ele>478.5</ele><time>2026-04-25T07:59:06.092Z</time></trkpt><trkpt lat="41.9342865" lon="2.0609498"><ele>480.0</ele><time>2026-04-25T07:59:07.092Z</time></trkpt><trkpt lat="41.9344297" lon="2.0607205"><ele>477.66666666666663</ele><time>2026-04-25T07:59:08.093Z</time></trkpt><trkpt lat="41.9345493" lon="2.060522"><ele>475.3333333333333</ele><time>2026-04-25T07:59:09.093Z</time></trkpt><trkpt lat="41.934629" lon="2.060332"><ele>473.0</ele><time>2026-04-25T07:59:10.094Z</time></trkpt><trkpt lat="41.9346673" lon="2.0601276"><ele>470.25</ele><time>2026-04-25T07:59:11.093Z</time></trkpt><trkpt lat="41.9346604" lon="2.0599481"><ele>467.5</ele><time>2026-04-25T07:59:12.093Z</time></trkpt><trkpt lat="41.9346025" lon="2.0597933"><ele>464.75</ele><time>2026-04-25T07:59:13.094Z</time></trkpt><trkpt lat="41.9345069" lon="2.0596667"><ele>462.0</ele><time>2026-04-25T07:59:14.092Z</time></trkpt><trkpt lat="41.9343745" lon="2.0595618"><ele>462.66666666666663</ele><time>2026-04-25T07:59:15.094Z</time></trkpt><trkpt lat="41.934218" lon="2.0594643"><ele>463.3333333333333</ele><time>2026-04-25T07:59:16.093Z</time></trkpt><trkpt lat="41.9340531" lon="2.0593701"><ele>464.0</ele><time>2026-04-25T07:59:17.093Z</time></trkpt><trkpt lat="41.9339002" lon="2.0592871"><ele>464.0</ele><time>2026-04-25T07:59:18.092Z</time></trkpt><trkpt lat="41.9337525" lon="2.0592116"><ele>464.0</ele><time>2026-04-25T07:59:19.092Z</time></trkpt><trkpt lat="41.9336136" lon="2.0591313"><ele>464.0</ele><time>2026-04-25T07:59:20.093Z</time></trkpt><trkpt lat="41.9334855" lon="2.0590566"><ele>464.0</ele><time>2026-04-25T07:59:21.093Z</time></trkpt><trkpt lat="41.9333667" lon="2.0589842"><ele>462.6</ele><time>2026-04-25T07:59:22.093Z</time></trkpt><trkpt lat="41.9332591" lon="2.0589107"><ele>461.2</ele><time>2026-04-25T07:59:23.093Z</time></trkpt><trkpt lat="41.9331639" lon="2.0588351"><ele>459.80000000000007</ele><time>2026-04-25T07:59:24.092Z</time></trkpt><trkpt lat="41.9330814" lon="2.0587569"><ele>458.40000000000003</ele><time>2026-04-25T07:59:25.093Z</time></trkpt><trkpt lat="41.9330054" lon="2.0586846"><ele>457.0</ele><time>2026-04-25T07:59:26.093Z</time></trkpt><trkpt lat="41.9329418" lon="2.0586196"><ele>457.00000000000006</ele><time>2026-04-25T07:59:27.093Z</time></trkpt><trkpt lat="41.9328921" lon="2.0585613"><ele>457.0</ele><time>2026-04-25T07:59:28.094Z</time></trkpt><trkpt lat="41.9328541" lon="2.0584309"><ele>457.0</ele><time>2026-04-25T07:59:30.093Z</time></trkpt><trkpt lat="41.9328785" lon="2.0583285"><ele>457.0</ele><time>2026-04-25T07:59:32.094Z</time></trkpt><trkpt lat="41.9329288" lon="2.0582665"><ele>457.00000000000006</ele><time>2026-04-25T07:59:34.092Z</time></trkpt><trkpt lat="41.9330062" lon="2.0582202"><ele>457.0</ele><time>2026-04-25T07:59:37.093Z</time></trkpt><trkpt lat="41.9330597" lon="2.0581529"><ele>456.50000000000006</ele><time>2026-04-25T08:00:23.093Z</time></trkpt><trkpt lat="41.9331082" lon="2.0580799"><ele>456.0</ele><time>2026-04-25T08:00:25.093Z</time></trkpt><trkpt lat="41.9331512" lon="2.0579839"><ele>455.5</ele><time>2026-04-25T08:00:27.093Z</time></trkpt><trkpt lat="41.93318" lon="2.0578651"><ele>455.0</ele><time>2026-04-25T08:00:29.093Z</time></trkpt><trkpt lat="41.9332123" lon="2.057709"><ele>454.50000000000006</ele><time>2026-04-25T08:00:31.093Z</time></trkpt><trkpt lat="41.9332289" lon="2.0576119"><ele>454.0</ele><time>2026-04-25T08:00:32.093Z</time></trkpt><trkpt lat="41.9332464" lon="2.0575121"><ele>455.1666666666667</ele><time>2026-04-25T08:00:33.093Z</time></trkpt><trkpt lat="41.933267" lon="2.0574048"><ele>456.33333333333337</ele><time>2026-04-25T08:00:34.093Z</time></trkpt><trkpt lat="41.9332886" lon="2.0572912"><ele>457.5</ele><time>2026-04-25T08:00:35.093Z</time></trkpt><trkpt lat="41.9333098" lon="2.057175"><ele>458.66666666666663</ele><time>2026-04-25T08:00:36.094Z</time></trkpt><trkpt lat="41.9333323" lon="2.057064"><ele>459.8333333333333</ele><time>2026-04-25T08:00:37.094Z</time></trkpt><trkpt lat="41.9333466" lon="2.0569537"><ele>461.0</ele><time>2026-04-25T08:00:38.094Z</time></trkpt><trkpt lat="41.9333463" lon="2.0568464"><ele>460.99999999999994</ele><time>2026-04-25T08:00:39.092Z</time></trkpt><trkpt lat="41.9333322" lon="2.0567402"><ele>461.0</ele><time>2026-04-25T08:00:40.093Z</time></trkpt><trkpt lat="41.9333036" lon="2.0566359"><ele>461.0</ele><time>2026-04-25T08:00:41.094Z</time></trkpt><trkpt lat="41.9332573" lon="2.0565388"><ele>461.0</ele><time>2026-04-25T08:00:42.093Z</time></trkpt><trkpt lat="41.933196" lon="2.0564517"><ele>460.99999999999994</ele><time>2026-04-25T08:00:43.093Z</time></trkpt><trkpt lat="41.9331247" lon="2.0563777"><ele>461.0</ele><time>2026-04-25T08:00:44.094Z</time></trkpt><trkpt lat="41.9330543" lon="2.0563121"><ele>463.7142857142857</ele><time>2026-04-25T08:00:45.092Z</time></trkpt><trkpt lat="41.9329877" lon="2.0562537"><ele>466.42857142857144</ele><time>2026-04-25T08:00:46.093Z</time></trkpt><trkpt lat="41.9329242" lon="2.0562008"><ele>469.14285714285717</ele><time>2026-04-25T08:00:47.092Z</time></trkpt><trkpt lat="41.9328619" lon="2.0561501"><ele>471.8571428571429</ele><time>2026-04-25T08:00:48.092Z</time></trkpt><trkpt lat="41.9328015" lon="2.0560997"><ele>474.57142857142856</ele><time>2026-04-25T08:00:49.093Z</time></trkpt><trkpt lat="41.9327414" lon="2.0560463"><ele>477.28571428571433</ele><time>2026-04-25T08:00:50.093Z</time></trkpt><trkpt lat="41.9326782" lon="2.0559939"><ele>480.0</ele><time>2026-04-25T08:00:51.093Z</time></trkpt><trkpt lat="41.9326146" lon="2.0559434"><ele>480.1666666666667</ele><time>2026-04-25T08:00:52.094Z</time></trkpt><trkpt lat="41.9325463" lon="2.0558908"><ele>480.33333333333337</ele><time>2026-04-25T08:00:53.092Z</time></trkpt><trkpt lat="41.932477" lon="2.0558339"><ele>480.5</ele><time>2026-04-25T08:00:54.092Z</time></trkpt><trkpt lat="41.9324039" lon="2.0557707"><ele>480.6666666666667</ele><time>2026-04-25T08:00:55.093Z</time></trkpt><trkpt lat="41.9323272" lon="2.0557073"><ele>480.83333333333337</ele><time>2026-04-25T08:00:56.093Z</time></trkpt><trkpt lat="41.9322454" lon="2.0556394"><ele>481.0</ele><time>2026-04-25T08:00:57.093Z</time></trkpt><trkpt lat="41.9321608" lon="2.0555729"><ele>481.0</ele><time>2026-04-25T08:00:58.093Z</time></trkpt><trkpt lat="41.9320726" lon="2.0555092"><ele>481.0</ele><time>2026-04-25T08:00:59.094Z</time></trkpt><trkpt lat="41.9319787" lon="2.0554502"><ele>481.0</ele><time>2026-04-25T08:01:00.093Z</time></trkpt><trkpt lat="41.93188" lon="2.0554012"><ele>481.0</ele><time>2026-04-25T08:01:01.093Z</time></trkpt><trkpt lat="41.9317797" lon="2.0553572"><ele>481.0</ele><time>2026-04-25T08:01:02.094Z</time></trkpt><trkpt lat="41.9316778" lon="2.0553165"><ele>479.0</ele><time>2026-04-25T08:01:03.092Z</time></trkpt><trkpt lat="41.9315752" lon="2.0552738"><ele>477.0</ele><time>2026-04-25T08:01:04.092Z</time></trkpt><trkpt lat="41.9314668" lon="2.0552343"><ele>475.0</ele><time>2026-04-25T08:01:05.093Z</time></trkpt><trkpt lat="41.9313552" lon="2.0551931"><ele>473.0</ele><time>2026-04-25T08:01:06.093Z</time></trkpt><trkpt lat="41.9312393" lon="2.055153"><ele>473.0</ele><time>2026-04-25T08:01:07.093Z</time></trkpt><trkpt lat="41.9311237" lon="2.0551097"><ele>473.0</ele><time>2026-04-25T08:01:08.093Z</time></trkpt><trkpt lat="41.9310074" lon="2.0550645"><ele>473.0</ele><time>2026-04-25T08:01:09.093Z</time></trkpt><trkpt lat="41.9308952" lon="2.0550109"><ele>473.0</ele><time>2026-04-25T08:01:10.092Z</time></trkpt><trkpt lat="41.9307911" lon="2.0549304"><ele>477.0</ele><time>2026-04-25T08:01:11.093Z</time></trkpt><trkpt lat="41.9306992" lon="2.0548277"><ele>481.0</ele><time>2026-04-25T08:01:12.094Z</time></trkpt><trkpt lat="41.9306096" lon="2.0547153"><ele>485.0</ele><time>2026-04-25T08:01:13.092Z</time></trkpt><trkpt lat="41.9305395" lon="2.0545685"><ele>489.0</ele><time>2026-04-25T08:01:14.093Z</time></trkpt><trkpt lat="41.9304443" lon="2.0544481"><ele>489.0</ele><time>2026-04-25T08:01:15.093Z</time></trkpt><trkpt lat="41.930328" lon="2.0543358"><ele>489.0</ele><time>2026-04-25T08:01:16.093Z</time></trkpt><trkpt lat="41.9302112" lon="2.0542183"><ele>489.0</ele><time>2026-04-25T08:01:17.093Z</time></trkpt><trkpt lat="41.9300994" lon="2.0540909"><ele>489.0</ele><time>2026-04-25T08:01:18.092Z</time></trkpt><trkpt lat="41.9299955" lon="2.0539558"><ele>489.25</ele><time>2026-04-25T08:01:19.093Z</time></trkpt><trkpt lat="41.9299061" lon="2.0538036"><ele>489.5</ele><time>2026-04-25T08:01:20.094Z</time></trkpt><trkpt lat="41.9298296" lon="2.0536324"><ele>489.75</ele><time>2026-04-25T08:01:21.093Z</time></trkpt><trkpt lat="41.9297636" lon="2.0534516"><ele>490.0</ele><time>2026-04-25T08:01:22.093Z</time></trkpt><trkpt lat="41.9297126" lon="2.0532624"><ele>490.0</ele><time>2026-04-25T08:01:23.094Z</time></trkpt><trkpt lat="41.9296822" lon="2.0530594"><ele>490.0</ele><time>2026-04-25T08:01:24.093Z</time></trkpt><trkpt lat="41.9296731" lon="2.0528354"><ele>490.0</ele><time>2026-04-25T08:01:25.094Z</time></trkpt><trkpt lat="41.929671" lon="2.0525985"><ele>488.0</ele><time>2026-04-25T08:01:26.092Z</time></trkpt><trkpt lat="41.9296826" lon="2.0523628"><ele>486.0</ele><time>2026-04-25T08:01:27.093Z</time></trkpt><trkpt lat="41.9297147" lon="2.0521363"><ele>484.0</ele><time>2026-04-25T08:01:28.093Z</time></trkpt><trkpt lat="41.9297724" lon="2.0518999"><ele>484.0</ele><time>2026-04-25T08:01:29.093Z</time></trkpt><trkpt lat="41.929851" lon="2.0516394"><ele>484.0</ele><time>2026-04-25T08:01:30.093Z</time></trkpt><trkpt lat="41.9299456" lon="2.0513635"><ele>484.0</ele><time>2026-04-25T08:01:31.094Z</time></trkpt><trkpt lat="41.930038" lon="2.0511141"><ele>488.6666666666667</ele><time>2026-04-25T08:01:32.094Z</time></trkpt><trkpt lat="41.9301195" lon="2.0508929"><ele>493.33333333333337</ele><time>2026-04-25T08:01:33.093Z</time></trkpt><trkpt lat="41.9301794" lon="2.050697"><ele>498.0</ele><time>2026-04-25T08:01:34.093Z</time></trkpt><trkpt lat="41.9301932" lon="2.0504954"><ele>498.0</ele><time>2026-04-25T08:01:35.092Z</time></trkpt><trkpt lat="41.9301673" lon="2.0502755"><ele>498.0</ele><time>2026-04-25T08:01:36.093Z</time></trkpt><trkpt lat="41.930122" lon="2.0500749"><ele>498.0</ele><time>2026-04-25T08:01:37.092Z</time></trkpt><trkpt lat="41.930093" lon="2.0498934"><ele>495.33333333333337</ele><time>2026-04-25T08:01:38.094Z</time></trkpt><trkpt lat="41.9301419" lon="2.0497133"><ele>492.6666666666667</ele><time>2026-04-25T08:01:39.092Z</time></trkpt><trkpt lat="41.9302197" lon="2.0495405"><ele>490.0</ele><time>2026-04-25T08:01:40.092Z</time></trkpt><trkpt lat="41.9303433" lon="2.04939"><ele>490.0</ele><time>2026-04-25T08:01:41.093Z</time></trkpt><trkpt lat="41.9305083" lon="2.0492372"><ele>490.0</ele><time>2026-04-25T08:01:42.093Z</time></trkpt><trkpt lat="41.9307155" lon="2.0490996"><ele>490.0</ele><time>2026-04-25T08:01:43.092Z</time></trkpt><trkpt lat="41.9309543" lon="2.0489476"><ele>489.0</ele><time>2026-04-25T08:01:44.093Z</time></trkpt><trkpt lat="41.9311725" lon="2.0488107"><ele>488.0</ele><time>2026-04-25T08:01:45.092Z</time></trkpt><trkpt lat="41.9313714" lon="2.048689"><ele>488.0</ele><time>2026-04-25T08:01:46.094Z</time></trkpt><trkpt lat="41.9315431" lon="2.0486022"><ele>488.0</ele><time>2026-04-25T08:01:47.092Z</time></trkpt><trkpt lat="41.9317184" lon="2.0485753"><ele>488.0</ele><time>2026-04-25T08:01:48.093Z</time></trkpt><trkpt lat="41.93191" lon="2.048617"><ele>485.66666666666663</ele><time>2026-04-25T08:01:49.092Z</time></trkpt><trkpt lat="41.9321074" lon="2.0487052"><ele>483.33333333333337</ele><time>2026-04-25T08:01:50.093Z</time></trkpt><trkpt lat="41.9322843" lon="2.0488203"><ele>481.0</ele><time>2026-04-25T08:01:51.092Z</time></trkpt><trkpt lat="41.9324516" lon="2.0489744"><ele>483.0</ele><time>2026-04-25T08:01:52.093Z</time></trkpt><trkpt lat="41.9326044" lon="2.0491917"><ele>485.0</ele><time>2026-04-25T08:01:53.093Z</time></trkpt><trkpt lat="41.9327563" lon="2.0494311"><ele>485.0</ele><time>2026-04-25T08:01:54.093Z</time></trkpt><trkpt lat="41.9329385" lon="2.0496414"><ele>485.0</ele><time>2026-04-25T08:01:55.093Z</time></trkpt><trkpt lat="41.9331322" lon="2.0498082"><ele>486.66666666666663</ele><time>2026-04-25T08:01:56.093Z</time></trkpt><trkpt lat="41.9333018" lon="2.0499657"><ele>488.33333333333337</ele><time>2026-04-25T08:01:57.093Z</time></trkpt><trkpt lat="41.933451" lon="2.0501798"><ele>490.0</ele><time>2026-04-25T08:01:58.093Z</time></trkpt><trkpt lat="41.9335783" lon="2.05042"><ele>490.0</ele><time>2026-04-25T08:01:59.093Z</time></trkpt><trkpt lat="41.9336979" lon="2.0506095"><ele>490.0</ele><time>2026-04-25T08:02:00.092Z</time></trkpt><trkpt lat="41.9338357" lon="2.0507333"><ele>490.0</ele><time>2026-04-25T08:02:01.092Z</time></trkpt><trkpt lat="41.9339855" lon="2.0507871"><ele>490.0</ele><time>2026-04-25T08:02:02.093Z</time></trkpt><trkpt lat="41.9341297" lon="2.0507604"><ele>490.0</ele><time>2026-04-25T08:02:03.093Z</time></trkpt><trkpt lat="41.9342777" lon="2.0506487"><ele>490.0</ele><time>2026-04-25T08:02:04.092Z</time></trkpt><trkpt lat="41.9344472" lon="2.0504821"><ele>491.33333333333337</ele><time>2026-04-25T08:02:05.093Z</time></trkpt><trkpt lat="41.9346337" lon="2.0502894"><ele>492.66666666666663</ele><time>2026-04-25T08:02:06.093Z</time></trkpt><trkpt lat="41.9348034" lon="2.0501143"><ele>494.0</ele><time>2026-04-25T08:02:07.093Z</time></trkpt><trkpt lat="41.9349644" lon="2.0499665"><ele>490.0</ele><time>2026-04-25T08:02:08.094Z</time></trkpt><trkpt lat="41.9351428" lon="2.0498715"><ele>486.0</ele><time>2026-04-25T08:02:09.092Z</time></trkpt><trkpt lat="41.9353575" lon="2.049822"><ele>482.0</ele><time>2026-04-25T08:02:10.092Z</time></trkpt><trkpt lat="41.9355881" lon="2.0497915"><ele>482.0</ele><time>2026-04-25T08:02:11.093Z</time></trkpt><trkpt lat="41.9358322" lon="2.0497206"><ele>482.0</ele><time>2026-04-25T08:02:12.093Z</time></trkpt><trkpt lat="41.9360499" lon="2.049624"><ele>481.5</ele><time>2026-04-25T08:02:13.093Z</time></trkpt><trkpt lat="41.9362648" lon="2.0495531"><ele>481.0</ele><time>2026-04-25T08:02:14.093Z</time></trkpt><trkpt lat="41.9365032" lon="2.0495248"><ele>483.0</ele><time>2026-04-25T08:02:15.092Z</time></trkpt><trkpt lat="41.9367473" lon="2.0495253"><ele>485.0</ele><time>2026-04-25T08:02:16.093Z</time></trkpt><trkpt lat="41.9369712" lon="2.0495281"><ele>485.0</ele><time>2026-04-25T08:02:17.093Z</time></trkpt><trkpt lat="41.9371619" lon="2.0495281"><ele>485.0</ele><time>2026-04-25T08:02:18.093Z</time></trkpt><trkpt lat="41.9373166" lon="2.049506"><ele>485.0</ele><time>2026-04-25T08:02:19.093Z</time></trkpt><trkpt lat="41.9374403" lon="2.0494266"><ele>485.0</ele><time>2026-04-25T08:02:20.094Z</time></trkpt><trkpt lat="41.9375369" lon="2.0492915"><ele>485.0</ele><time>2026-04-25T08:02:21.093Z</time></trkpt><trkpt lat="41.9376023" lon="2.0490952"><ele>485.0</ele><time>2026-04-25T08:02:22.093Z</time></trkpt><trkpt lat="41.937637" lon="2.048838"><ele>488.0</ele><time>2026-04-25T08:02:23.094Z</time></trkpt><trkpt lat="41.937669" lon="2.0485478"><ele>491.0</ele><time>2026-04-25T08:02:24.093Z</time></trkpt><trkpt lat="41.9377175" lon="2.0482354"><ele>491.0</ele><time>2026-04-25T08:02:25.093Z</time></trkpt><trkpt lat="41.9377737" lon="2.0479045"><ele>491.0</ele><time>2026-04-25T08:02:26.092Z</time></trkpt><trkpt lat="41.9378293" lon="2.0475429"><ele>490.0</ele><time>2026-04-25T08:02:27.093Z</time></trkpt><trkpt lat="41.9378832" lon="2.0471816"><ele>489.0</ele><time>2026-04-25T08:02:28.093Z</time></trkpt><trkpt lat="41.9379291" lon="2.0468536"><ele>485.66666666666663</ele><time>2026-04-25T08:02:29.092Z</time></trkpt><trkpt lat="41.9379797" lon="2.0465553"><ele>482.3333333333333</ele><time>2026-04-25T08:02:30.093Z</time></trkpt><trkpt lat="41.9380363" lon="2.0462911"><ele>479.0</ele><time>2026-04-25T08:02:31.093Z</time></trkpt><trkpt lat="41.938125" lon="2.0460688"><ele>479.0</ele><time>2026-04-25T08:02:32.093Z</time></trkpt><trkpt lat="41.9382476" lon="2.0458512"><ele>479.0</ele><time>2026-04-25T08:02:33.092Z</time></trkpt><trkpt lat="41.9383697" lon="2.0456097"><ele>479.0</ele><time>2026-04-25T08:02:34.092Z</time></trkpt><trkpt lat="41.9384727" lon="2.0453353"><ele>478.0</ele><time>2026-04-25T08:02:35.093Z</time></trkpt><trkpt lat="41.9385688" lon="2.0450656"><ele>477.0</ele><time>2026-04-25T08:02:36.094Z</time></trkpt><trkpt lat="41.9386563" lon="2.0448418"><ele>476.0</ele><time>2026-04-25T08:02:37.093Z</time></trkpt><trkpt lat="41.9387645" lon="2.0446766"><ele>479.0</ele><time>2026-04-25T08:02:38.092Z</time></trkpt><trkpt lat="41.9388982" lon="2.0445783"><ele>482.0</ele><time>2026-04-25T08:02:39.094Z</time></trkpt><trkpt lat="41.9390557" lon="2.0445435"><ele>485.0</ele><time>2026-04-25T08:02:40.094Z</time></trkpt><trkpt lat="41.9392381" lon="2.044543"><ele>485.0</ele><time>2026-04-25T08:02:41.092Z</time></trkpt><trkpt lat="41.9394297" lon="2.0445125"><ele>485.0</ele><time>2026-04-25T08:02:42.092Z</time></trkpt><trkpt lat="41.939598" lon="2.0444535"><ele>485.0</ele><time>2026-04-25T08:02:43.092Z</time></trkpt><trkpt lat="41.9397301" lon="2.0443493"><ele>485.0</ele><time>2026-04-25T08:02:44.094Z</time></trkpt><trkpt lat="41.9398321" lon="2.0441899"><ele>485.0</ele><time>2026-04-25T08:02:45.093Z</time></trkpt><trkpt lat="41.9399018" lon="2.0439771"><ele>485.0</ele><time>2026-04-25T08:02:46.093Z</time></trkpt><trkpt lat="41.9399259" lon="2.0437316"><ele>486.0</ele><time>2026-04-25T08:02:47.094Z</time></trkpt><trkpt lat="41.9399051" lon="2.0434725"><ele>487.0</ele><time>2026-04-25T08:02:48.093Z</time></trkpt><trkpt lat="41.9398937" lon="2.0432066"><ele>488.0</ele><time>2026-04-25T08:02:49.093Z</time></trkpt><trkpt lat="41.9399382" lon="2.0429396"><ele>491.5</ele><time>2026-04-25T08:02:50.093Z</time></trkpt><trkpt lat="41.9400143" lon="2.0426508"><ele>495.0</ele><time>2026-04-25T08:02:51.092Z</time></trkpt><trkpt lat="41.9401154" lon="2.0423462"><ele>495.0</ele><time>2026-04-25T08:02:52.094Z</time></trkpt><trkpt lat="41.940236" lon="2.0420221"><ele>495.0</ele><time>2026-04-25T08:02:53.092Z</time></trkpt><trkpt lat="41.9403471" lon="2.0417447"><ele>497.66666666666663</ele><time>2026-04-25T08:02:54.093Z</time></trkpt><trkpt lat="41.940431" lon="2.0414815"><ele>500.3333333333333</ele><time>2026-04-25T08:02:55.093Z</time></trkpt><trkpt lat="41.9404704" lon="2.0412487"><ele>503.0</ele><time>2026-04-25T08:02:56.093Z</time></trkpt><trkpt lat="41.9404604" lon="2.0410252"><ele>506.3333333333333</ele><time>2026-04-25T08:02:57.093Z</time></trkpt><trkpt lat="41.9404229" lon="2.0407906"><ele>509.66666666666663</ele><time>2026-04-25T08:02:58.093Z</time></trkpt><trkpt lat="41.9404209" lon="2.0405904"><ele>513.0</ele><time>2026-04-25T08:02:59.093Z</time></trkpt><trkpt lat="41.9404686" lon="2.040391"><ele>513.0</ele><time>2026-04-25T08:03:00.094Z</time></trkpt><trkpt lat="41.9405741" lon="2.0402034"><ele>513.0</ele><time>2026-04-25T08:03:01.092Z</time></trkpt><trkpt lat="41.9407162" lon="2.0400412"><ele>513.0</ele><time>2026-04-25T08:03:02.093Z</time></trkpt><trkpt lat="41.9408692" lon="2.0398899"><ele>515.0</ele><time>2026-04-25T08:03:03.092Z</time></trkpt><trkpt lat="41.9409634" lon="2.0397175"><ele>517.0</ele><time>2026-04-25T08:03:04.093Z</time></trkpt><trkpt lat="41.941013" lon="2.0395028"><ele>519.0</ele><time>2026-04-25T08:03:05.092Z</time></trkpt><trkpt lat="41.9410393" lon="2.0392414"><ele>523.6666666666666</ele><time>2026-04-25T08:03:06.093Z</time></trkpt><trkpt lat="41.9410694" lon="2.0390092"><ele>528.3333333333333</ele><time>2026-04-25T08:03:07.092Z</time></trkpt><trkpt lat="41.9411254" lon="2.0388276"><ele>533.0</ele><time>2026-04-25T08:03:08.093Z</time></trkpt><trkpt lat="41.9412116" lon="2.038693"><ele>533.0</ele><time>2026-04-25T08:03:09.092Z</time></trkpt><trkpt lat="41.941347" lon="2.0386046"><ele>533.0</ele><time>2026-04-25T08:03:10.093Z</time></trkpt><trkpt lat="41.9415012" lon="2.0385143"><ele>533.0</ele><time>2026-04-25T08:03:11.094Z</time></trkpt><trkpt lat="41.9417121" lon="2.038465"><ele>531.3333333333333</ele><time>2026-04-25T08:03:12.093Z</time></trkpt><trkpt lat="41.9418852" lon="2.038362"><ele>529.6666666666666</ele><time>2026-04-25T08:03:13.093Z</time></trkpt><trkpt lat="41.9420376" lon="2.0382159"><ele>528.0</ele><time>2026-04-25T08:03:14.093Z</time></trkpt><trkpt lat="41.9421613" lon="2.0380185"><ele>532.0</ele><time>2026-04-25T08:03:15.092Z</time></trkpt><trkpt lat="41.9422848" lon="2.0377725"><ele>536.0</ele><time>2026-04-25T08:03:16.093Z</time></trkpt><trkpt lat="41.9424075" lon="2.0375636"><ele>540.0</ele><time>2026-04-25T08:03:17.093Z</time></trkpt><trkpt lat="41.9425631" lon="2.0374072"><ele>542.6666666666666</ele><time>2026-04-25T08:03:18.093Z</time></trkpt><trkpt lat="41.9427571" lon="2.0372743"><ele>545.3333333333333</ele><time>2026-04-25T08:03:19.092Z</time></trkpt><trkpt lat="41.9429412" lon="2.0371417"><ele>548.0</ele><time>2026-04-25T08:03:20.092Z</time></trkpt><trkpt lat="41.9430936" lon="2.036978"><ele>548.0</ele><time>2026-04-25T08:03:21.092Z</time></trkpt><trkpt lat="41.943251" lon="2.0367484"><ele>548.0</ele><time>2026-04-25T08:03:22.092Z</time></trkpt><trkpt lat="41.943407" lon="2.0365046"><ele>546.0</ele><time>2026-04-25T08:03:23.093Z</time></trkpt><trkpt lat="41.9435264" lon="2.0363074"><ele>544.0</ele><time>2026-04-25T08:03:24.094Z</time></trkpt><trkpt lat="41.9436117" lon="2.0361259"><ele>542.0</ele><time>2026-04-25T08:03:25.093Z</time></trkpt><trkpt lat="41.9436482" lon="2.0359483"><ele>542.25</ele><time>2026-04-25T08:03:26.093Z</time></trkpt><trkpt lat="41.9436381" lon="2.0357636"><ele>542.5</ele><time>2026-04-25T08:03:27.094Z</time></trkpt><trkpt lat="41.94357" lon="2.03561"><ele>542.75</ele><time>2026-04-25T08:03:28.092Z</time></trkpt><trkpt lat="41.9434388" lon="2.0354778"><ele>543.0</ele><time>2026-04-25T08:03:29.093Z</time></trkpt><trkpt lat="41.9432573" lon="2.0353727"><ele>545.0</ele><time>2026-04-25T08:03:30.092Z</time></trkpt><trkpt lat="41.9430422" lon="2.0352808"><ele>547.0</ele><time>2026-04-25T08:03:31.092Z</time></trkpt><trkpt lat="41.9428297" lon="2.0351967"><ele>549.0</ele><time>2026-04-25T08:03:32.092Z</time></trkpt><trkpt lat="41.9426534" lon="2.0351071"><ele>554.3333333333334</ele><time>2026-04-25T08:03:33.092Z</time></trkpt><trkpt lat="41.9425039" lon="2.0349858"><ele>559.6666666666667</ele><time>2026-04-25T08:03:34.093Z</time></trkpt><trkpt lat="41.9423942" lon="2.0348193"><ele>565.0</ele><time>2026-04-25T08:03:35.093Z</time></trkpt><trkpt lat="41.9423341" lon="2.0346246"><ele>567.0</ele><time>2026-04-25T08:03:36.093Z</time></trkpt><trkpt lat="41.9423228" lon="2.0344245"><ele>569.0</ele><time>2026-04-25T08:03:37.093Z</time></trkpt><trkpt lat="41.9423752" lon="2.034239"><ele>571.0</ele><time>2026-04-25T08:03:38.093Z</time></trkpt><trkpt lat="41.942488" lon="2.034081"><ele>567.6666666666667</ele><time>2026-04-25T08:03:39.092Z</time></trkpt><trkpt lat="41.9426375" lon="2.0339405"><ele>564.3333333333334</ele><time>2026-04-25T08:03:40.093Z</time></trkpt><trkpt lat="41.942768" lon="2.033782"><ele>561.0</ele><time>2026-04-25T08:03:41.094Z</time></trkpt><trkpt lat="41.9428505" lon="2.0335974"><ele>561.0</ele><time>2026-04-25T08:03:42.093Z</time></trkpt><trkpt lat="41.9428836" lon="2.0333721"><ele>561.0</ele><time>2026-04-25T08:03:43.092Z</time></trkpt><trkpt lat="41.9428727" lon="2.0331053"><ele>561.0</ele><time>2026-04-25T08:03:44.093Z</time></trkpt><trkpt lat="41.9428846" lon="2.0328202"><ele>564.0</ele><time>2026-04-25T08:03:45.093Z</time></trkpt><trkpt lat="41.942938" lon="2.0325641"><ele>567.0</ele><time>2026-04-25T08:03:46.093Z</time></trkpt><trkpt lat="41.94303" lon="2.032341"><ele>570.0</ele><time>2026-04-25T08:03:47.093Z</time></trkpt><trkpt lat="41.9431871" lon="2.0321452"><ele>569.6666666666666</ele><time>2026-04-25T08:03:48.092Z</time></trkpt><trkpt lat="41.9433433" lon="2.0319715"><ele>569.3333333333333</ele><time>2026-04-25T08:03:49.093Z</time></trkpt><trkpt lat="41.9434644" lon="2.0318022"><ele>569.0</ele><time>2026-04-25T08:03:50.093Z</time></trkpt><trkpt lat="41.9435531" lon="2.0316049"><ele>572.3333333333333</ele><time>2026-04-25T08:03:51.093Z</time></trkpt><trkpt lat="41.943575" lon="2.0313592"><ele>575.6666666666666</ele><time>2026-04-25T08:03:52.093Z</time></trkpt><trkpt lat="41.9435685" lon="2.0310638"><ele>579.0</ele><time>2026-04-25T08:03:53.093Z</time></trkpt><trkpt lat="41.9435595" lon="2.0307325"><ele>582.5</ele><time>2026-04-25T08:03:54.093Z</time></trkpt><trkpt lat="41.9435484" lon="2.0303715"><ele>586.0</ele><time>2026-04-25T08:03:55.092Z</time></trkpt><trkpt lat="41.9435418" lon="2.0300371"><ele>588.5</ele><time>2026-04-25T08:03:56.092Z</time></trkpt><trkpt lat="41.9435462" lon="2.0297295"><ele>591.0</ele><time>2026-04-25T08:03:57.092Z</time></trkpt><trkpt lat="41.9435735" lon="2.0294184"><ele>590.5</ele><time>2026-04-25T08:03:58.093Z</time></trkpt><trkpt lat="41.9436198" lon="2.0291106"><ele>590.0</ele><time>2026-04-25T08:03:59.093Z</time></trkpt><trkpt lat="41.9436748" lon="2.0288041"><ele>590.0</ele><time>2026-04-25T08:04:00.093Z</time></trkpt><trkpt lat="41.9437277" lon="2.0285089"><ele>590.0</ele><time>2026-04-25T08:04:01.093Z</time></trkpt><trkpt lat="41.9437679" lon="2.0282218"><ele>590.0</ele><time>2026-04-25T08:04:02.092Z</time></trkpt><trkpt lat="41.9438014" lon="2.0279489"><ele>589.6666666666666</ele><time>2026-04-25T08:04:03.093Z</time></trkpt><trkpt lat="41.9438291" lon="2.0276805"><ele>589.3333333333334</ele><time>2026-04-25T08:04:04.092Z</time></trkpt><trkpt lat="41.943856" lon="2.0274233"><ele>589.0</ele><time>2026-04-25T08:04:05.093Z</time></trkpt><trkpt lat="41.9438804" lon="2.0271761"><ele>589.0</ele><time>2026-04-25T08:04:06.092Z</time></trkpt><trkpt lat="41.9439044" lon="2.0269415"><ele>589.0</ele><time>2026-04-25T08:04:07.094Z</time></trkpt><trkpt lat="41.943928" lon="2.02671"><ele>589.0</ele><time>2026-04-25T08:04:08.093Z</time></trkpt><trkpt lat="41.9439462" lon="2.0264887"><ele>590.6666666666667</ele><time>2026-04-25T08:04:09.093Z</time></trkpt><trkpt lat="41.943941" lon="2.0262786"><ele>592.3333333333334</ele><time>2026-04-25T08:04:10.092Z</time></trkpt><trkpt lat="41.9439033" lon="2.0260853"><ele>594.0</ele><time>2026-04-25T08:04:11.092Z</time></trkpt><trkpt lat="41.9438258" lon="2.0259087"><ele>595.3333333333334</ele><time>2026-04-25T08:04:12.093Z</time></trkpt><trkpt lat="41.9437168" lon="2.0257349"><ele>596.6666666666667</ele><time>2026-04-25T08:04:13.092Z</time></trkpt><trkpt lat="41.9435963" lon="2.0255464"><ele>598.0</ele><time>2026-04-25T08:04:14.093Z</time></trkpt><trkpt lat="41.9434706" lon="2.0253383"><ele>598.0</ele><time>2026-04-25T08:04:15.094Z</time></trkpt><trkpt lat="41.9433383" lon="2.0251284"><ele>598.0</ele><time>2026-04-25T08:04:16.093Z</time></trkpt><trkpt lat="41.9432051" lon="2.0249205"><ele>598.0</ele><time>2026-04-25T08:04:17.093Z</time></trkpt><trkpt lat="41.9430902" lon="2.024719"><ele>600.0</ele><time>2026-04-25T08:04:18.092Z</time></trkpt><trkpt lat="41.9429957" lon="2.0245105"><ele>602.0</ele><time>2026-04-25T08:04:19.093Z</time></trkpt><trkpt lat="41.9429361" lon="2.0242931"><ele>604.0</ele><time>2026-04-25T08:04:20.093Z</time></trkpt><trkpt lat="41.9428954" lon="2.0240721"><ele>607.0</ele><time>2026-04-25T08:04:21.093Z</time></trkpt><trkpt lat="41.9428577" lon="2.0238543"><ele>610.0</ele><time>2026-04-25T08:04:22.093Z</time></trkpt><trkpt lat="41.9428186" lon="2.0236565"><ele>613.0</ele><time>2026-04-25T08:04:23.093Z</time></trkpt><trkpt lat="41.9427806" lon="2.0234658"><ele>613.5</ele><time>2026-04-25T08:04:24.092Z</time></trkpt><trkpt lat="41.9427478" lon="2.0232892"><ele>614.0</ele><time>2026-04-25T08:04:25.094Z</time></trkpt><trkpt lat="41.9427195" lon="2.0231148"><ele>614.5</ele><time>2026-04-25T08:04:26.093Z</time></trkpt><trkpt lat="41.9426916" lon="2.022943"><ele>615.0</ele><time>2026-04-25T08:04:27.094Z</time></trkpt><trkpt lat="41.9426692" lon="2.0227744"><ele>615.0</ele><time>2026-04-25T08:04:28.092Z</time></trkpt><trkpt lat="41.9426468" lon="2.0226226"><ele>615.0</ele><time>2026-04-25T08:04:29.092Z</time></trkpt><trkpt lat="41.9426271" lon="2.0224868"><ele>615.0</ele><time>2026-04-25T08:04:30.092Z</time></trkpt><trkpt lat="41.9426101" lon="2.0223699"><ele>615.0</ele><time>2026-04-25T08:04:31.093Z</time></trkpt><trkpt lat="41.942599" lon="2.0222753"><ele>615.0</ele><time>2026-04-25T08:04:32.092Z</time></trkpt><trkpt lat="41.94257" lon="2.0221359"><ele>613.4</ele><time>2026-04-25T08:04:34.092Z</time></trkpt><trkpt lat="41.9425397" lon="2.0220291"><ele>611.8</ele><time>2026-04-25T08:04:36.093Z</time></trkpt><trkpt lat="41.9424986" lon="2.0219556"><ele>610.2</ele><time>2026-04-25T08:04:42.092Z</time></trkpt><trkpt lat="41.942407" lon="2.0219564"><ele>608.6</ele><time>2026-04-25T08:04:44.094Z</time></trkpt><trkpt lat="41.9422819" lon="2.0220145"><ele>607.0</ele><time>2026-04-25T08:04:46.093Z</time></trkpt><trkpt lat="41.9422091" lon="2.0220555"><ele>606.9999999999999</ele><time>2026-04-25T08:04:47.093Z</time></trkpt><trkpt lat="41.9421363" lon="2.0220929"><ele>607.0</ele><time>2026-04-25T08:04:48.093Z</time></trkpt><trkpt lat="41.9420647" lon="2.0221301"><ele>607.0</ele><time>2026-04-25T08:04:49.093Z</time></trkpt><trkpt lat="41.9419976" lon="2.0221648"><ele>607.0</ele><time>2026-04-25T08:04:50.092Z</time></trkpt><trkpt lat="41.9419307" lon="2.0221978"><ele>607.0</ele><time>2026-04-25T08:04:51.093Z</time></trkpt><trkpt lat="41.9418643" lon="2.0222349"><ele>606.9999999999999</ele><time>2026-04-25T08:04:52.093Z</time></trkpt><trkpt lat="41.9417936" lon="2.0222677"><ele>607.0</ele><time>2026-04-25T08:04:53.092Z</time></trkpt><trkpt lat="41.9417259" lon="2.0222996"><ele>606.5</ele><time>2026-04-25T08:04:54.093Z</time></trkpt><trkpt lat="41.9416613" lon="2.0223307"><ele>606.0</ele><time>2026-04-25T08:04:55.092Z</time></trkpt><trkpt lat="41.9415978" lon="2.0223593"><ele>605.5</ele><time>2026-04-25T08:04:56.092Z</time></trkpt><trkpt lat="41.9414889" lon="2.0224031"><ele>605.0</ele><time>2026-04-25T08:04:58.092Z</time></trkpt><trkpt lat="41.9414078" lon="2.0224444"><ele>604.5</ele><time>2026-04-25T08:05:00.094Z</time></trkpt><trkpt lat="41.9413465" lon="2.0224798"><ele>604.0</ele><time>2026-04-25T08:05:34.094Z</time></trkpt><trkpt lat="41.9412736" lon="2.0225367"><ele>604.0</ele><time>2026-04-25T08:05:36.093Z</time></trkpt><trkpt lat="41.9412087" lon="2.0225715"><ele>604.0</ele><time>2026-04-25T08:05:37.092Z</time></trkpt><trkpt lat="41.9411222" lon="2.022618"><ele>604.0</ele><time>2026-04-25T08:05:38.093Z</time></trkpt><trkpt lat="41.9410139" lon="2.0226545"><ele>604.0</ele><time>2026-04-25T08:05:39.092Z</time></trkpt><trkpt lat="41.9408887" lon="2.0226617"><ele>604.0</ele><time>2026-04-25T08:05:40.093Z</time></trkpt><trkpt lat="41.9407483" lon="2.0226395"><ele>601.3333333333334</ele><time>2026-04-25T08:05:41.092Z</time></trkpt><trkpt lat="41.9406049" lon="2.0225841"><ele>598.6666666666666</ele><time>2026-04-25T08:05:42.093Z</time></trkpt><trkpt lat="41.9404559" lon="2.0224887"><ele>596.0</ele><time>2026-04-25T08:05:43.092Z</time></trkpt><trkpt lat="41.9403004" lon="2.0223734"><ele>594.3333333333333</ele><time>2026-04-25T08:05:44.092Z</time></trkpt><trkpt lat="41.94014" lon="2.0222477"><ele>592.6666666666666</ele><time>2026-04-25T08:05:45.093Z</time></trkpt><trkpt lat="41.9399705" lon="2.0221252"><ele>591.0</ele><time>2026-04-25T08:05:46.092Z</time></trkpt><trkpt lat="41.9397972" lon="2.0219997"><ele>590.0</ele><time>2026-04-25T08:05:47.092Z</time></trkpt><trkpt lat="41.9396249" lon="2.0218672"><ele>589.0</ele><time>2026-04-25T08:05:48.093Z</time></trkpt><trkpt lat="41.9394509" lon="2.0217314"><ele>588.0</ele><time>2026-04-25T08:05:49.093Z</time></trkpt><trkpt lat="41.9392717" lon="2.0216026"><ele>587.3333333333334</ele><time>2026-04-25T08:05:50.093Z</time></trkpt><trkpt lat="41.9390882" lon="2.0214858"><ele>586.6666666666667</ele><time>2026-04-25T08:05:51.093Z</time></trkpt><trkpt lat="41.9389011" lon="2.0213727"><ele>586.0</ele><time>2026-04-25T08:05:52.093Z</time></trkpt><trkpt lat="41.9387139" lon="2.0212567"><ele>586.0</ele><time>2026-04-25T08:05:53.094Z</time></trkpt><trkpt lat="41.9385269" lon="2.0211376"><ele>586.0</ele><time>2026-04-25T08:05:54.094Z</time></trkpt><trkpt lat="41.9383474" lon="2.0210215"><ele>586.0</ele><time>2026-04-25T08:05:55.093Z</time></trkpt><trkpt lat="41.9381766" lon="2.020908"><ele>584.0</ele><time>2026-04-25T08:05:56.093Z</time></trkpt><trkpt lat="41.9380025" lon="2.0207991"><ele>582.0</ele><time>2026-04-25T08:05:57.093Z</time></trkpt><trkpt lat="41.9378131" lon="2.0207065"><ele>580.0</ele><time>2026-04-25T08:05:58.093Z</time></trkpt><trkpt lat="41.9376045" lon="2.0206332"><ele>582.5</ele><time>2026-04-25T08:05:59.092Z</time></trkpt><trkpt lat="41.9373805" lon="2.0205432"><ele>585.0</ele><time>2026-04-25T08:06:00.092Z</time></trkpt><trkpt lat="41.9371515" lon="2.0204389"><ele>585.0</ele><time>2026-04-25T08:06:01.093Z</time></trkpt><trkpt lat="41.9369122" lon="2.0203305"><ele>585.0</ele><time>2026-04-25T08:06:02.094Z</time></trkpt><trkpt lat="41.9366688" lon="2.0202276"><ele>582.5</ele><time>2026-04-25T08:06:03.093Z</time></trkpt><trkpt lat="41.9364264" lon="2.0201138"><ele>580.0</ele><time>2026-04-25T08:06:04.093Z</time></trkpt><trkpt lat="41.9361779" lon="2.0199786"><ele>578.5</ele><time>2026-04-25T08:06:05.093Z</time></trkpt><trkpt lat="41.9359302" lon="2.0198361"><ele>577.0</ele><time>2026-04-25T08:06:06.093Z</time></trkpt><trkpt lat="41.9356752" lon="2.0196903"><ele>574.5</ele><time>2026-04-25T08:06:07.092Z</time></trkpt><trkpt lat="41.9354146" lon="2.0195419"><ele>572.0</ele><time>2026-04-25T08:06:08.092Z</time></trkpt><trkpt lat="41.9351594" lon="2.0193989"><ele>573.0</ele><time>2026-04-25T08:06:09.094Z</time></trkpt><trkpt lat="41.9349183" lon="2.0192644"><ele>574.0</ele><time>2026-04-25T08:06:10.093Z</time></trkpt><trkpt lat="41.9346886" lon="2.0191339"><ele>572.0</ele><time>2026-04-25T08:06:11.093Z</time></trkpt><trkpt lat="41.9344633" lon="2.019005"><ele>570.0</ele><time>2026-04-25T08:06:12.093Z</time></trkpt><trkpt lat="41.9342388" lon="2.0188619"><ele>571.0</ele><time>2026-04-25T08:06:13.093Z</time></trkpt><trkpt lat="41.9340238" lon="2.0186902"><ele>572.0</ele><time>2026-04-25T08:06:14.093Z</time></trkpt><trkpt lat="41.9338115" lon="2.0184847"><ele>569.0</ele><time>2026-04-25T08:06:15.093Z</time></trkpt><trkpt lat="41.933598" lon="2.0182457"><ele>566.0</ele><time>2026-04-25T08:06:16.093Z</time></trkpt><trkpt lat="41.9333821" lon="2.0179839"><ele>566.0</ele><time>2026-04-25T08:06:17.093Z</time></trkpt><trkpt lat="41.9331553" lon="2.0177138"><ele>566.0</ele><time>2026-04-25T08:06:18.092Z</time></trkpt><trkpt lat="41.9329241" lon="2.0174299"><ele>564.5</ele><time>2026-04-25T08:06:19.092Z</time></trkpt><trkpt lat="41.9326905" lon="2.0171467"><ele>563.0</ele><time>2026-04-25T08:06:20.093Z</time></trkpt><trkpt lat="41.9324785" lon="2.0168753"><ele>562.0</ele><time>2026-04-25T08:06:21.092Z</time></trkpt><trkpt lat="41.9322621" lon="2.0166127"><ele>561.0</ele><time>2026-04-25T08:06:22.093Z</time></trkpt><trkpt lat="41.9320325" lon="2.0163662"><ele>561.0</ele><time>2026-04-25T08:06:23.093Z</time></trkpt><trkpt lat="41.9317868" lon="2.0161317"><ele>561.0</ele><time>2026-04-25T08:06:24.093Z</time></trkpt><trkpt lat="41.9315546" lon="2.0159094"><ele>562.0</ele><time>2026-04-25T08:06:25.092Z</time></trkpt><trkpt lat="41.9313313" lon="2.0156988"><ele>563.0</ele><time>2026-04-25T08:06:26.093Z</time></trkpt><trkpt lat="41.9311311" lon="2.0154993"><ele>563.0</ele><time>2026-04-25T08:06:27.092Z</time></trkpt><trkpt lat="41.9309435" lon="2.0153206"><ele>563.0</ele><time>2026-04-25T08:06:28.093Z</time></trkpt><trkpt lat="41.9307558" lon="2.0151696"><ele>563.0</ele><time>2026-04-25T08:06:29.094Z</time></trkpt><trkpt lat="41.9305271" lon="2.015065"><ele>563.5</ele><time>2026-04-25T08:06:30.093Z</time></trkpt><trkpt lat="41.9302643" lon="2.0149944"><ele>564.0</ele><time>2026-04-25T08:06:31.092Z</time></trkpt><trkpt lat="41.9299795" lon="2.014948"><ele>560.0</ele><time>2026-04-25T08:06:32.093Z</time></trkpt><trkpt lat="41.9296715" lon="2.0148981"><ele>556.0</ele><time>2026-04-25T08:06:33.094Z</time></trkpt><trkpt lat="41.9293602" lon="2.0148442"><ele>552.5</ele><time>2026-04-25T08:06:34.093Z</time></trkpt><trkpt lat="41.9290777" lon="2.0147951"><ele>549.0</ele><time>2026-04-25T08:06:35.093Z</time></trkpt><trkpt lat="41.9288208" lon="2.014752"><ele>549.0</ele><time>2026-04-25T08:06:36.093Z</time></trkpt><trkpt lat="41.9285919" lon="2.0147223"><ele>549.0</ele><time>2026-04-25T08:06:37.094Z</time></trkpt><trkpt lat="41.9283714" lon="2.0147297"><ele>548.0</ele><time>2026-04-25T08:06:38.092Z</time></trkpt><trkpt lat="41.9281479" lon="2.0148076"><ele>547.0</ele><time>2026-04-25T08:06:39.092Z</time></trkpt><trkpt lat="41.9279073" lon="2.0149473"><ele>547.0</ele><time>2026-04-25T08:06:40.094Z</time></trkpt><trkpt lat="41.927643" lon="2.0151117"><ele>547.0</ele><time>2026-04-25T08:06:41.093Z</time></trkpt><trkpt lat="41.9273557" lon="2.0152781"><ele>547.0</ele><time>2026-04-25T08:06:42.093Z</time></trkpt><trkpt lat="41.9270786" lon="2.0154361"><ele>547.0</ele><time>2026-04-25T08:06:43.092Z</time></trkpt><trkpt lat="41.9268262" lon="2.015586"><ele>545.0</ele><time>2026-04-25T08:06:44.094Z</time></trkpt><trkpt lat="41.9265931" lon="2.0157289"><ele>543.0</ele><time>2026-04-25T08:06:45.092Z</time></trkpt><trkpt lat="41.9263939" lon="2.0158708"><ele>543.0</ele><time>2026-04-25T08:06:46.092Z</time></trkpt><trkpt lat="41.9262334" lon="2.0160061"><ele>543.0</ele><time>2026-04-25T08:06:47.093Z</time></trkpt><trkpt lat="41.9260892" lon="2.016114"><ele>543.0</ele><time>2026-04-25T08:06:48.093Z</time></trkpt><trkpt lat="41.9259259" lon="2.0161494"><ele>541.6666666666666</ele><time>2026-04-25T08:06:49.092Z</time></trkpt><trkpt lat="41.925768" lon="2.016098"><ele>540.3333333333333</ele><time>2026-04-25T08:06:50.092Z</time></trkpt><trkpt lat="41.9256018" lon="2.0159681"><ele>539.0</ele><time>2026-04-25T08:06:51.093Z</time></trkpt><trkpt lat="41.9254221" lon="2.0157909"><ele>537.0</ele><time>2026-04-25T08:06:52.093Z</time></trkpt><trkpt lat="41.9252407" lon="2.0156142"><ele>535.0</ele><time>2026-04-25T08:06:53.094Z</time></trkpt><trkpt lat="41.925101" lon="2.01547"><ele>533.0</ele><time>2026-04-25T08:06:54.092Z</time></trkpt><trkpt lat="41.9249964" lon="2.0153139"><ele>532.3333333333333</ele><time>2026-04-25T08:06:55.093Z</time></trkpt><trkpt lat="41.9249463" lon="2.0151116"><ele>531.6666666666666</ele><time>2026-04-25T08:06:56.092Z</time></trkpt><trkpt lat="41.9249345" lon="2.0148793"><ele>531.0</ele><time>2026-04-25T08:06:57.092Z</time></trkpt><trkpt lat="41.9248989" lon="2.0146222"><ele>528.0</ele><time>2026-04-25T08:06:58.092Z</time></trkpt><trkpt lat="41.924813" lon="2.0143177"><ele>525.0</ele><time>2026-04-25T08:06:59.092Z</time></trkpt><trkpt lat="41.9247067" lon="2.0139738"><ele>520.5</ele><time>2026-04-25T08:07:00.092Z</time></trkpt><trkpt lat="41.9245945" lon="2.0135951"><ele>516.0</ele><time>2026-04-25T08:07:01.093Z</time></trkpt><trkpt lat="41.9244735" lon="2.0131751"><ele>513.5</ele><time>2026-04-25T08:07:02.093Z</time></trkpt><trkpt lat="41.9243613" lon="2.0127838"><ele>511.0</ele><time>2026-04-25T08:07:03.093Z</time></trkpt><trkpt lat="41.9242636" lon="2.0124264"><ele>510.0</ele><time>2026-04-25T08:07:04.092Z</time></trkpt><trkpt lat="41.9241633" lon="2.012096"><ele>509.0</ele><time>2026-04-25T08:07:05.093Z</time></trkpt><trkpt lat="41.9240247" lon="2.0117647"><ele>506.5</ele><time>2026-04-25T08:07:06.094Z</time></trkpt><trkpt lat="41.9238488" lon="2.0114064"><ele>504.0</ele><time>2026-04-25T08:07:07.093Z</time></trkpt><trkpt lat="41.9236587" lon="2.0110206"><ele>503.0</ele><time>2026-04-25T08:07:08.092Z</time></trkpt><trkpt lat="41.9234828" lon="2.0106496"><ele>502.0</ele><time>2026-04-25T08:07:09.093Z</time></trkpt><trkpt lat="41.9233347" lon="2.0103332"><ele>499.5</ele><time>2026-04-25T08:07:10.093Z</time></trkpt><trkpt lat="41.9231984" lon="2.0100544"><ele>497.0</ele><time>2026-04-25T08:07:11.092Z</time></trkpt><trkpt lat="41.9230706" lon="2.0098138"><ele>497.0</ele><time>2026-04-25T08:07:12.093Z</time></trkpt><trkpt lat="41.9229129" lon="2.0096164"><ele>497.0</ele><time>2026-04-25T08:07:13.093Z</time></trkpt><trkpt lat="41.9226971" lon="2.009447"><ele>493.5</ele><time>2026-04-25T08:07:14.094Z</time></trkpt><trkpt lat="41.9224472" lon="2.0092859"><ele>490.0</ele><time>2026-04-25T08:07:15.092Z</time></trkpt><trkpt lat="41.9222233" lon="2.0091237"><ele>488.5</ele><time>2026-04-25T08:07:16.092Z</time></trkpt><trkpt lat="41.9220307" lon="2.0089476"><ele>487.0</ele><time>2026-04-25T08:07:17.092Z</time></trkpt><trkpt lat="41.9218524" lon="2.0087129"><ele>486.0</ele><time>2026-04-25T08:07:18.093Z</time></trkpt><trkpt lat="41.921669" lon="2.0084295"><ele>485.0</ele><time>2026-04-25T08:07:19.092Z</time></trkpt><trkpt lat="41.9214715" lon="2.0081246"><ele>483.5</ele><time>2026-04-25T08:07:20.093Z</time></trkpt><trkpt lat="41.9212666" lon="2.007804"><ele>482.0</ele><time>2026-04-25T08:07:21.093Z</time></trkpt><trkpt lat="41.9210709" lon="2.0075104"><ele>479.5</ele><time>2026-04-25T08:07:22.092Z</time></trkpt><trkpt lat="41.920843" lon="2.0072404"><ele>477.0</ele><time>2026-04-25T08:07:23.093Z</time></trkpt><trkpt lat="41.9205802" lon="2.0069796"><ele>477.0</ele><time>2026-04-25T08:07:24.093Z</time></trkpt><trkpt lat="41.9203047" lon="2.0067359"><ele>477.0</ele><time>2026-04-25T08:07:25.093Z</time></trkpt><trkpt lat="41.9200517" lon="2.0064971"><ele>473.5</ele><time>2026-04-25T08:07:26.093Z</time></trkpt><trkpt lat="41.9198039" lon="2.0062246"><ele>470.0</ele><time>2026-04-25T08:07:27.093Z</time></trkpt><trkpt lat="41.9195719" lon="2.0059316"><ele>467.0</ele><time>2026-04-25T08:07:28.093Z</time></trkpt><trkpt lat="41.9193596" lon="2.0056603"><ele>464.0</ele><time>2026-04-25T08:07:29.094Z</time></trkpt><trkpt lat="41.9191647" lon="2.0054073"><ele>464.0</ele><time>2026-04-25T08:07:30.092Z</time></trkpt><trkpt lat="41.9189634" lon="2.0051781"><ele>464.0</ele><time>2026-04-25T08:07:31.092Z</time></trkpt><trkpt lat="41.9187226" lon="2.0049638"><ele>462.5</ele><time>2026-04-25T08:07:32.094Z</time></trkpt><trkpt lat="41.9184464" lon="2.0047537"><ele>461.0</ele><time>2026-04-25T08:07:33.093Z</time></trkpt><trkpt lat="41.9181556" lon="2.0045281"><ele>461.0</ele><time>2026-04-25T08:07:34.093Z</time></trkpt><trkpt lat="41.9178454" lon="2.0043091"><ele>461.0</ele><time>2026-04-25T08:07:35.094Z</time></trkpt><trkpt lat="41.9175098" lon="2.0041004"><ele>456.0</ele><time>2026-04-25T08:07:36.093Z</time></trkpt><trkpt lat="41.9171629" lon="2.0038988"><ele>451.0</ele><time>2026-04-25T08:07:37.092Z</time></trkpt><trkpt lat="41.9168035" lon="2.003695"><ele>453.5</ele><time>2026-04-25T08:07:38.093Z</time></trkpt><trkpt lat="41.916434" lon="2.0034834"><ele>456.0</ele><time>2026-04-25T08:07:39.092Z</time></trkpt><trkpt lat="41.9160723" lon="2.0032715"><ele>452.0</ele><time>2026-04-25T08:07:40.092Z</time></trkpt><trkpt lat="41.9157341" lon="2.0030776"><ele>448.0</ele><time>2026-04-25T08:07:41.093Z</time></trkpt><trkpt lat="41.915427" lon="2.0029017"><ele>448.0</ele><time>2026-04-25T08:07:42.094Z</time></trkpt><trkpt lat="41.9151565" lon="2.0027465"><ele>448.0</ele><time>2026-04-25T08:07:43.094Z</time></trkpt><trkpt lat="41.914919" lon="2.0026111"><ele>446.6666666666667</ele><time>2026-04-25T08:07:44.094Z</time></trkpt><trkpt lat="41.9147152" lon="2.0024933"><ele>445.33333333333337</ele><time>2026-04-25T08:07:45.092Z</time></trkpt><trkpt lat="41.9145412" lon="2.0023638"><ele>444.0</ele><time>2026-04-25T08:07:46.093Z</time></trkpt><trkpt lat="41.9144024" lon="2.0021698"><ele>444.0</ele><time>2026-04-25T08:07:47.092Z</time></trkpt><trkpt lat="41.9142748" lon="2.0019046"><ele>444.0</ele><time>2026-04-25T08:07:48.093Z</time></trkpt><trkpt lat="41.9141473" lon="2.0015883"><ele>445.5</ele><time>2026-04-25T08:07:49.094Z</time></trkpt><trkpt lat="41.9140116" lon="2.0012304"><ele>447.0</ele><time>2026-04-25T08:07:50.092Z</time></trkpt><trkpt lat="41.9138795" lon="2.0008678"><ele>444.0</ele><time>2026-04-25T08:07:51.093Z</time></trkpt><trkpt lat="41.9137658" lon="2.0005602"><ele>441.0</ele><time>2026-04-25T08:07:52.093Z</time></trkpt><trkpt lat="41.9136699" lon="2.000299"><ele>441.0</ele><time>2026-04-25T08:07:53.093Z</time></trkpt><trkpt lat="41.9135673" lon="2.0000765"><ele>441.0</ele><time>2026-04-25T08:07:54.092Z</time></trkpt><trkpt lat="41.9134112" lon="1.9998669"><ele>441.0</ele><time>2026-04-25T08:07:55.093Z</time></trkpt><trkpt lat="41.9132464" lon="1.9996867"><ele>444.33333333333337</ele><time>2026-04-25T08:07:56.092Z</time></trkpt><trkpt lat="41.9130972" lon="1.9995434"><ele>447.6666666666667</ele><time>2026-04-25T08:07:57.093Z</time></trkpt><trkpt lat="41.9129308" lon="1.9994466"><ele>451.0</ele><time>2026-04-25T08:07:58.094Z</time></trkpt><trkpt lat="41.9127287" lon="1.999404"><ele>449.33333333333337</ele><time>2026-04-25T08:07:59.093Z</time></trkpt><trkpt lat="41.9125424" lon="1.9993797"><ele>447.66666666666663</ele><time>2026-04-25T08:08:00.093Z</time></trkpt><trkpt lat="41.9123942" lon="1.9993211"><ele>446.0</ele><time>2026-04-25T08:08:01.092Z</time></trkpt><trkpt lat="41.9122809" lon="1.9992144"><ele>445.3333333333333</ele><time>2026-04-25T08:08:02.094Z</time></trkpt><trkpt lat="41.9121958" lon="1.9990505"><ele>444.66666666666663</ele><time>2026-04-25T08:08:03.093Z</time></trkpt><trkpt lat="41.912099" lon="1.9988065"><ele>444.0</ele><time>2026-04-25T08:08:04.094Z</time></trkpt><trkpt lat="41.9119888" lon="1.9985173"><ele>446.0</ele><time>2026-04-25T08:08:05.093Z</time></trkpt><trkpt lat="41.9118622" lon="1.9981718"><ele>448.0</ele><time>2026-04-25T08:08:06.093Z</time></trkpt><trkpt lat="41.9117316" lon="1.9978086"><ele>442.5</ele><time>2026-04-25T08:08:07.092Z</time></trkpt><trkpt lat="41.911586" lon="1.9974782"><ele>437.0</ele><time>2026-04-25T08:08:08.092Z</time></trkpt><trkpt lat="41.9114075" lon="1.9971908"><ele>437.0</ele><time>2026-04-25T08:08:09.094Z</time></trkpt><trkpt lat="41.9112268" lon="1.9969108"><ele>437.0</ele><time>2026-04-25T08:08:10.094Z</time></trkpt><trkpt lat="41.9110472" lon="1.996676"><ele>434.3333333333333</ele><time>2026-04-25T08:08:11.093Z</time></trkpt><trkpt lat="41.9108648" lon="1.9964906"><ele>431.66666666666663</ele><time>2026-04-25T08:08:12.092Z</time></trkpt><trkpt lat="41.9106972" lon="1.9963264"><ele>429.0</ele><time>2026-04-25T08:08:13.092Z</time></trkpt><trkpt lat="41.9105691" lon="1.9961278"><ele>429.0</ele><time>2026-04-25T08:08:14.093Z</time></trkpt><trkpt lat="41.9104822" lon="1.9959215"><ele>429.0</ele><time>2026-04-25T08:08:15.093Z</time></trkpt><trkpt lat="41.9104345" lon="1.9957157"><ele>429.0</ele><time>2026-04-25T08:08:16.092Z</time></trkpt><trkpt lat="41.9104372" lon="1.9954767"><ele>429.33333333333337</ele><time>2026-04-25T08:08:17.092Z</time></trkpt><trkpt lat="41.9104642" lon="1.9952236"><ele>429.6666666666667</ele><time>2026-04-25T08:08:18.094Z</time></trkpt><trkpt lat="41.9104359" lon="1.9949574"><ele>430.0</ele><time>2026-04-25T08:08:19.093Z</time></trkpt><trkpt lat="41.910368" lon="1.9947046"><ele>430.0</ele><time>2026-04-25T08:08:20.093Z</time></trkpt><trkpt lat="41.9102641" lon="1.9944802"><ele>430.0</ele><time>2026-04-25T08:08:21.094Z</time></trkpt><trkpt lat="41.9101067" lon="1.9942884"><ele>430.0</ele><time>2026-04-25T08:08:22.093Z</time></trkpt><trkpt lat="41.9098894" lon="1.9941089"><ele>424.5</ele><time>2026-04-25T08:08:23.093Z</time></trkpt><trkpt lat="41.9096285" lon="1.9939315"><ele>419.0</ele><time>2026-04-25T08:08:24.093Z</time></trkpt><trkpt lat="41.9093602" lon="1.9937301"><ele>420.0</ele><time>2026-04-25T08:08:25.093Z</time></trkpt><trkpt lat="41.9091079" lon="1.9935281"><ele>421.0</ele><time>2026-04-25T08:08:26.092Z</time></trkpt><trkpt lat="41.908869" lon="1.9933569"><ele>418.5</ele><time>2026-04-25T08:08:27.093Z</time></trkpt><trkpt lat="41.9086247" lon="1.9932157"><ele>416.0</ele><time>2026-04-25T08:08:28.093Z</time></trkpt><trkpt lat="41.9083471" lon="1.993102"><ele>416.0</ele><time>2026-04-25T08:08:29.093Z</time></trkpt><trkpt lat="41.9080359" lon="1.9929933"><ele>416.0</ele><time>2026-04-25T08:08:30.093Z</time></trkpt><trkpt lat="41.9077038" lon="1.9928658"><ele>416.5</ele><time>2026-04-25T08:08:31.092Z</time></trkpt><trkpt lat="41.9073581" lon="1.9927401"><ele>417.0</ele><time>2026-04-25T08:08:32.094Z</time></trkpt><trkpt lat="41.907005" lon="1.9926115"><ele>417.5</ele><time>2026-04-25T08:08:33.093Z</time></trkpt><trkpt lat="41.9066446" lon="1.992511"><ele>418.0</ele><time>2026-04-25T08:08:34.093Z</time></trkpt><trkpt lat="41.9062925" lon="1.992438"><ele>415.5</ele><time>2026-04-25T08:08:35.093Z</time></trkpt><trkpt lat="41.9059759" lon="1.9923802"><ele>413.0</ele><time>2026-04-25T08:08:36.092Z</time></trkpt><trkpt lat="41.9056903" lon="1.9923324"><ele>413.0</ele><time>2026-04-25T08:08:37.092Z</time></trkpt><trkpt lat="41.9054513" lon="1.9922958"><ele>413.0</ele><time>2026-04-25T08:08:38.092Z</time></trkpt><trkpt lat="41.9052517" lon="1.9922661"><ele>413.0</ele><time>2026-04-25T08:08:39.094Z</time></trkpt><trkpt lat="41.9050793" lon="1.9922309"><ele>414.0</ele><time>2026-04-25T08:08:40.092Z</time></trkpt><trkpt lat="41.9049361" lon="1.9921482"><ele>415.0</ele><time>2026-04-25T08:08:41.092Z</time></trkpt><trkpt lat="41.9110472" lon="1.996676"><ele>419.6666666666667</ele><time>2026-04-25T08:08:11.093Z</time></trkpt><trkpt lat="41.9108648" lon="1.9964906"><ele>424.33333333333337</ele><time>2026-04-25T08:08:12.092Z</time></trkpt><trkpt lat="41.9106972" lon="1.9963264"><ele>429.0</ele><time>2026-04-25T08:08:13.092Z</time></trkpt><trkpt lat="41.9105691" lon="1.9961278"><ele>429.0</ele><time>2026-04-25T08:08:14.093Z</time></trkpt><trkpt lat="41.9104822" lon="1.9959215"><ele>429.0</ele><time>2026-04-25T08:08:15.093Z</time></trkpt><trkpt lat="41.9104345" lon="1.9957157"><ele>429.0</ele><time>2026-04-25T08:08:16.092Z</time></trkpt><trkpt lat="41.9104372" lon="1.9954767"><ele>429.33333333333337</ele><time>2026-04-25T08:08:17.092Z</time></trkpt><trkpt lat="41.9104642" lon="1.9952236"><ele>429.6666666666667</ele><time>2026-04-25T08:08:18.094Z</time></trkpt><trkpt lat="41.9104359" lon="1.9949574"><ele>430.0</ele><time>2026-04-25T08:08:19.093Z</time></trkpt><trkpt lat="41.910368" lon="1.9947046"><ele>430.0</ele><time>2026-04-25T08:08:20.093Z</time></trkpt><trkpt lat="41.9102641" lon="1.9944802"><ele>430.0</ele><time>2026-04-25T08:08:21.094Z</time></trkpt><trkpt lat="41.9101067" lon="1.9942884"><ele>430.0</ele><time>2026-04-25T08:08:22.093Z</time></trkpt><trkpt lat="41.9098894" lon="1.9941089"><ele>424.5</ele><time>2026-04-25T08:08:23.093Z</time></trkpt><trkpt lat="41.9096285" lon="1.9939315"><ele>419.0</ele><time>2026-04-25T08:08:24.093Z</time></trkpt><trkpt lat="41.9093602" lon="1.9937301"><ele>420.0</ele><time>2026-04-25T08:08:25.093Z</time></trkpt><trkpt lat="41.9091079" lon="1.9935281"><ele>421.0</ele><time>2026-04-25T08:08:26.092Z</time></trkpt><trkpt lat="41.908869" lon="1.9933569"><ele>418.5</ele><time>2026-04-25T08:08:27.093Z</time></trkpt><trkpt lat="41.9086247" lon="1.9932157"><ele>416.0</ele><time>2026-04-25T08:08:28.093Z</time></trkpt><trkpt lat="41.9083471" lon="1.993102"><ele>416.0</ele><time>2026-04-25T08:08:29.093Z</time></trkpt><trkpt lat="41.9080359" lon="1.9929933"><ele>416.0</ele><time>2026-04-25T08:08:30.093Z</time></trkpt><trkpt lat="41.9077038" lon="1.9928658"><ele>416.5</ele><time>2026-04-25T08:08:31.092Z</time></trkpt><trkpt lat="41.9073581" lon="1.9927401"><ele>417.0</ele><time>2026-04-25T08:08:32.094Z</time></trkpt><trkpt lat="41.907005" lon="1.9926115"><ele>417.5</ele><time>2026-04-25T08:08:33.093Z</time></trkpt><trkpt lat="41.9066446" lon="1.992511"><ele>418.0</ele><time>2026-04-25T08:08:34.093Z</time></trkpt><trkpt lat="41.9062925" lon="1.992438"><ele>415.5</ele><time>2026-04-25T08:08:35.093Z</time></trkpt><trkpt lat="41.9059759" lon="1.9923802"><ele>413.0</ele><time>2026-04-25T08:08:36.092Z</time></trkpt><trkpt lat="41.9056903" lon="1.9923324"><ele>413.0</ele><time>2026-04-25T08:08:37.092Z</time></trkpt><trkpt lat="41.9054513" lon="1.9922958"><ele>413.0</ele><time>2026-04-25T08:08:38.092Z</time></trkpt><trkpt lat="41.9052517" lon="1.9922661"><ele>413.0</ele><time>2026-04-25T08:08:39.094Z</time></trkpt><trkpt lat="41.9050793" lon="1.9922309"><ele>413.66666666666663</ele><time>2026-04-25T08:08:40.092Z</time></trkpt><trkpt lat="41.9049361" lon="1.9921482"><ele>414.33333333333337</ele><time>2026-04-25T08:08:41.092Z</time></trkpt><trkpt lat="41.9048305" lon="1.9920087"><ele>415.0</ele><time>2026-04-25T08:08:42.093Z</time></trkpt><trkpt lat="41.904768" lon="1.9918156"><ele>413.33333333333337</ele><time>2026-04-25T08:08:43.094Z</time></trkpt><trkpt lat="41.9047317" lon="1.9915789"><ele>411.66666666666663</ele><time>2026-04-25T08:08:44.093Z</time></trkpt><trkpt lat="41.9047026" lon="1.9913808"><ele>410.0</ele><time>2026-04-25T08:08:45.094Z</time></trkpt><trkpt lat="41.9046357" lon="1.9912216"><ele>410.0</ele><time>2026-04-25T08:08:46.093Z</time></trkpt><trkpt lat="41.9045226" lon="1.9911062"><ele>410.0</ele><time>2026-04-25T08:08:47.092Z</time></trkpt><trkpt lat="41.9043842" lon="1.9910702"><ele>410.0</ele><time>2026-04-25T08:08:48.093Z</time></trkpt><trkpt lat="41.9042437" lon="1.9910627"><ele>410.0</ele><time>2026-04-25T08:08:49.093Z</time></trkpt><trkpt lat="41.9041197" lon="1.9911687"><ele>410.5</ele><time>2026-04-25T08:08:50.092Z</time></trkpt><trkpt lat="41.9038827" lon="1.9914034"><ele>411.0</ele><time>2026-04-25T08:08:51.093Z</time></trkpt><trkpt lat="41.9037235" lon="1.9915336"><ele>411.0</ele><time>2026-04-25T08:08:52.093Z</time></trkpt><trkpt lat="41.9035566" lon="1.9916289"><ele>411.0</ele><time>2026-04-25T08:08:53.094Z</time></trkpt><trkpt lat="41.9033888" lon="1.9916283"><ele>411.0</ele><time>2026-04-25T08:08:54.095Z</time></trkpt><trkpt lat="41.9032133" lon="1.9915497"><ele>412.0</ele><time>2026-04-25T08:08:55.093Z</time></trkpt><trkpt lat="41.9030128" lon="1.9914188"><ele>413.0</ele><time>2026-04-25T08:08:56.093Z</time></trkpt><trkpt lat="41.9027872" lon="1.991256"><ele>411.5</ele><time>2026-04-25T08:08:57.094Z</time></trkpt><trkpt lat="41.9025399" lon="1.991071"><ele>410.0</ele><time>2026-04-25T08:08:58.094Z</time></trkpt><trkpt lat="41.9022814" lon="1.990867"><ele>412.0</ele><time>2026-04-25T08:08:59.094Z</time></trkpt><trkpt lat="41.9020371" lon="1.9906756"><ele>414.0</ele><time>2026-04-25T08:09:00.093Z</time></trkpt><trkpt lat="41.9018137" lon="1.9905066"><ele>413.0</ele><time>2026-04-25T08:09:01.094Z</time></trkpt><trkpt lat="41.9015793" lon="1.9903878"><ele>412.0</ele><time>2026-04-25T08:09:02.094Z</time></trkpt><trkpt lat="41.9013121" lon="1.9903041"><ele>412.0</ele><time>2026-04-25T08:09:03.094Z</time></trkpt><trkpt lat="41.9010753" lon="1.9902552"><ele>412.0</ele><time>2026-04-25T08:09:04.094Z</time></trkpt><trkpt lat="41.9008664" lon="1.9902066"><ele>412.33333333333337</ele><time>2026-04-25T08:09:05.093Z</time></trkpt><trkpt lat="41.9006886" lon="1.9901136"><ele>412.66666666666663</ele><time>2026-04-25T08:09:06.094Z</time></trkpt><trkpt lat="41.9005084" lon="1.9899404"><ele>413.0</ele><time>2026-04-25T08:09:07.094Z</time></trkpt><trkpt lat="41.9003185" lon="1.9897008"><ele>413.0</ele><time>2026-04-25T08:09:08.094Z</time></trkpt><trkpt lat="41.900119" lon="1.9894146"><ele>413.0</ele><time>2026-04-25T08:09:09.094Z</time></trkpt><trkpt lat="41.8999019" lon="1.9891096"><ele>411.5</ele><time>2026-04-25T08:09:10.093Z</time></trkpt><trkpt lat="41.8996941" lon="1.9888392"><ele>410.0</ele><time>2026-04-25T08:09:11.094Z</time></trkpt><trkpt lat="41.8994886" lon="1.9886036"><ele>410.0</ele><time>2026-04-25T08:09:12.094Z</time></trkpt><trkpt lat="41.8992571" lon="1.9884084"><ele>410.0</ele><time>2026-04-25T08:09:13.093Z</time></trkpt><trkpt lat="41.8990005" lon="1.9882391"><ele>408.5</ele><time>2026-04-25T08:09:14.094Z</time></trkpt><trkpt lat="41.8987641" lon="1.9881053"><ele>407.0</ele><time>2026-04-25T08:09:15.094Z</time></trkpt><trkpt lat="41.898555" lon="1.987989"><ele>405.3333333333333</ele><time>2026-04-25T08:09:16.093Z</time></trkpt><trkpt lat="41.89838" lon="1.9878599"><ele>403.66666666666663</ele><time>2026-04-25T08:09:17.095Z</time></trkpt><trkpt lat="41.8982468" lon="1.9876977"><ele>402.0</ele><time>2026-04-25T08:09:18.094Z</time></trkpt><trkpt lat="41.8981522" lon="1.9874955"><ele>405.33333333333337</ele><time>2026-04-25T08:09:19.093Z</time></trkpt><trkpt lat="41.8980685" lon="1.9872964"><ele>408.6666666666667</ele><time>2026-04-25T08:09:20.093Z</time></trkpt><trkpt lat="41.8979694" lon="1.9871574"><ele>412.0</ele><time>2026-04-25T08:09:21.094Z</time></trkpt><trkpt lat="41.8978419" lon="1.9870692"><ele>412.0</ele><time>2026-04-25T08:09:22.093Z</time></trkpt><trkpt lat="41.8977022" lon="1.9870701"><ele>412.0</ele><time>2026-04-25T08:09:23.094Z</time></trkpt><trkpt lat="41.8975357" lon="1.9871526"><ele>412.0</ele><time>2026-04-25T08:09:24.093Z</time></trkpt><trkpt lat="41.8973481" lon="1.9872538"><ele>410.0</ele><time>2026-04-25T08:09:25.093Z</time></trkpt><trkpt lat="41.8971348" lon="1.9873105"><ele>408.0</ele><time>2026-04-25T08:09:26.093Z</time></trkpt><trkpt lat="41.8968787" lon="1.9873484"><ele>411.0</ele><time>2026-04-25T08:09:27.095Z</time></trkpt><trkpt lat="41.8965958" lon="1.9873738"><ele>414.0</ele><time>2026-04-25T08:09:28.095Z</time></trkpt><trkpt lat="41.8962939" lon="1.9874326"><ele>414.0</ele><time>2026-04-25T08:09:29.094Z</time></trkpt><trkpt lat="41.8959905" lon="1.9875009"><ele>414.0</ele><time>2026-04-25T08:09:30.094Z</time></trkpt><trkpt lat="41.8957077" lon="1.9875591"><ele>411.0</ele><time>2026-04-25T08:09:31.093Z</time></trkpt><trkpt lat="41.8954169" lon="1.9876238"><ele>408.0</ele><time>2026-04-25T08:09:32.094Z</time></trkpt><trkpt lat="41.8951514" lon="1.9876878"><ele>407.5</ele><time>2026-04-25T08:09:33.094Z</time></trkpt><trkpt lat="41.8949042" lon="1.9877399"><ele>407.0</ele><time>2026-04-25T08:09:34.094Z</time></trkpt><trkpt lat="41.8946828" lon="1.9877792"><ele>407.0</ele><time>2026-04-25T08:09:35.093Z</time></trkpt><trkpt lat="41.8944855" lon="1.9877791"><ele>407.0</ele><time>2026-04-25T08:09:36.093Z</time></trkpt><trkpt lat="41.8943225" lon="1.9877184"><ele>407.0</ele><time>2026-04-25T08:09:37.093Z</time></trkpt><trkpt lat="41.8941672" lon="1.9876027"><ele>409.5</ele><time>2026-04-25T08:09:38.093Z</time></trkpt><trkpt lat="41.8939999" lon="1.9873959"><ele>412.0</ele><time>2026-04-25T08:09:39.094Z</time></trkpt><trkpt lat="41.8938068" lon="1.9871465"><ele>412.0</ele><time>2026-04-25T08:09:40.095Z</time></trkpt><trkpt lat="41.8935862" lon="1.9868646"><ele>412.0</ele><time>2026-04-25T08:09:41.094Z</time></trkpt><trkpt lat="41.8933588" lon="1.9865636"><ele>408.5</ele><time>2026-04-25T08:09:42.094Z</time></trkpt><trkpt lat="41.8931597" lon="1.9863007"><ele>405.0</ele><time>2026-04-25T08:09:43.094Z</time></trkpt><trkpt lat="41.8929943" lon="1.986069"><ele>405.0</ele><time>2026-04-25T08:09:44.094Z</time></trkpt><trkpt lat="41.8928812" lon="1.9858552"><ele>405.0</ele><time>2026-04-25T08:09:45.093Z</time></trkpt><trkpt lat="41.8927972" lon="1.9856506"><ele>405.0</ele><time>2026-04-25T08:09:46.094Z</time></trkpt><trkpt lat="41.8927298" lon="1.9854778"><ele>405.5</ele><time>2026-04-25T08:09:47.093Z</time></trkpt><trkpt lat="41.892633" lon="1.9853725"><ele>406.0</ele><time>2026-04-25T08:09:48.094Z</time></trkpt><trkpt lat="41.8925132" lon="1.9853365"><ele>406.5</ele><time>2026-04-25T08:09:49.094Z</time></trkpt><trkpt lat="41.8923894" lon="1.9853931"><ele>407.0</ele><time>2026-04-25T08:09:50.095Z</time></trkpt><trkpt lat="41.8922536" lon="1.9854572"><ele>404.0</ele><time>2026-04-25T08:09:51.093Z</time></trkpt><trkpt lat="41.8921144" lon="1.9857318"><ele>401.0</ele><time>2026-04-25T08:09:52.094Z</time></trkpt><trkpt lat="41.8919769" lon="1.9859059"><ele>398.0</ele><time>2026-04-25T08:09:53.094Z</time></trkpt><trkpt lat="41.8918352" lon="1.9860173"><ele>397.66666666666663</ele><time>2026-04-25T08:09:54.094Z</time></trkpt><trkpt lat="41.8916739" lon="1.986066"><ele>397.33333333333337</ele><time>2026-04-25T08:09:55.095Z</time></trkpt><trkpt lat="41.8914798" lon="1.9860545"><ele>397.0</ele><time>2026-04-25T08:09:56.093Z</time></trkpt><trkpt lat="41.8912396" lon="1.986004"><ele>397.0</ele><time>2026-04-25T08:09:57.094Z</time></trkpt><trkpt lat="41.8909615" lon="1.9859463"><ele>397.0</ele><time>2026-04-25T08:09:58.094Z</time></trkpt><trkpt lat="41.8906714" lon="1.9858783"><ele>400.5</ele><time>2026-04-25T08:09:59.094Z</time></trkpt><trkpt lat="41.8904216" lon="1.985823"><ele>404.0</ele><time>2026-04-25T08:10:00.094Z</time></trkpt><trkpt lat="41.8901946" lon="1.9857703"><ele>403.66666666666663</ele><time>2026-04-25T08:10:01.095Z</time></trkpt><trkpt lat="41.8899848" lon="1.9857054"><ele>403.33333333333337</ele><time>2026-04-25T08:10:02.094Z</time></trkpt><trkpt lat="41.8897798" lon="1.9855778"><ele>403.0</ele><time>2026-04-25T08:10:03.094Z</time></trkpt><trkpt lat="41.8895536" lon="1.9853797"><ele>403.0</ele><time>2026-04-25T08:10:04.093Z</time></trkpt><trkpt lat="41.8893052" lon="1.9851562"><ele>403.0</ele><time>2026-04-25T08:10:05.094Z</time></trkpt><trkpt lat="41.8890304" lon="1.9849156"><ele>403.0</ele><time>2026-04-25T08:10:06.093Z</time></trkpt><trkpt lat="41.8887515" lon="1.9846689"><ele>403.0</ele><time>2026-04-25T08:10:07.094Z</time></trkpt><trkpt lat="41.8884863" lon="1.9844364"><ele>400.5</ele><time>2026-04-25T08:10:08.094Z</time></trkpt><trkpt lat="41.8882011" lon="1.9841765"><ele>398.0</ele><time>2026-04-25T08:10:09.094Z</time></trkpt><trkpt lat="41.8879153" lon="1.9838991"><ele>398.0</ele><time>2026-04-25T08:10:10.093Z</time></trkpt><trkpt lat="41.8876526" lon="1.9836405"><ele>398.0</ele><time>2026-04-25T08:10:11.093Z</time></trkpt><trkpt lat="41.887401" lon="1.9834085"><ele>397.5</ele><time>2026-04-25T08:10:12.093Z</time></trkpt><trkpt lat="41.8871602" lon="1.9831905"><ele>397.0</ele><time>2026-04-25T08:10:13.094Z</time></trkpt><trkpt lat="41.8869076" lon="1.9830004"><ele>391.0</ele><time>2026-04-25T08:10:14.094Z</time></trkpt><trkpt lat="41.8866564" lon="1.982838"><ele>385.0</ele><time>2026-04-25T08:10:15.095Z</time></trkpt><trkpt lat="41.886433" lon="1.9827028"><ele>385.0</ele><time>2026-04-25T08:10:16.094Z</time></trkpt><trkpt lat="41.8862432" lon="1.9825946"><ele>385.0</ele><time>2026-04-25T08:10:17.093Z</time></trkpt><trkpt lat="41.8860484" lon="1.9825421"><ele>385.0</ele><time>2026-04-25T08:10:18.094Z</time></trkpt><trkpt lat="41.8858179" lon="1.9825462"><ele>383.5</ele><time>2026-04-25T08:10:19.093Z</time></trkpt><trkpt lat="41.8855556" lon="1.9826017"><ele>382.0</ele><time>2026-04-25T08:10:20.094Z</time></trkpt><trkpt lat="41.8852506" lon="1.9826711"><ele>382.5</ele><time>2026-04-25T08:10:21.094Z</time></trkpt><trkpt lat="41.8849245" lon="1.9827483"><ele>383.0</ele><time>2026-04-25T08:10:22.095Z</time></trkpt><trkpt lat="41.8846195" lon="1.9828195"><ele>383.0</ele><time>2026-04-25T08:10:23.093Z</time></trkpt><trkpt lat="41.8843551" lon="1.9828829"><ele>383.0</ele><time>2026-04-25T08:10:24.094Z</time></trkpt><trkpt lat="41.8841362" lon="1.9829358"><ele>382.33333333333337</ele><time>2026-04-25T08:10:25.094Z</time></trkpt><trkpt lat="41.883948" lon="1.982976"><ele>381.6666666666667</ele><time>2026-04-25T08:10:26.094Z</time></trkpt><trkpt lat="41.8837907" lon="1.9829506"><ele>381.0</ele><time>2026-04-25T08:10:27.094Z</time></trkpt><trkpt lat="41.8836499" lon="1.9828662"><ele>381.0</ele><time>2026-04-25T08:10:28.094Z</time></trkpt><trkpt lat="41.8835363" lon="1.9827019"><ele>381.0</ele><time>2026-04-25T08:10:29.094Z</time></trkpt><trkpt lat="41.8834417" lon="1.9824629"><ele>381.0</ele><time>2026-04-25T08:10:30.094Z</time></trkpt><trkpt lat="41.8833495" lon="1.9821924"><ele>382.0</ele><time>2026-04-25T08:10:31.094Z</time></trkpt><trkpt lat="41.883218" lon="1.9819406"><ele>383.0</ele><time>2026-04-25T08:10:32.094Z</time></trkpt><trkpt lat="41.8830377" lon="1.9817318"><ele>386.5</ele><time>2026-04-25T08:10:33.094Z</time></trkpt><trkpt lat="41.8828291" lon="1.9815458"><ele>390.0</ele><time>2026-04-25T08:10:34.093Z</time></trkpt><trkpt lat="41.8826369" lon="1.9814106"><ele>383.5</ele><time>2026-04-25T08:10:35.093Z</time></trkpt><trkpt lat="41.8824162" lon="1.9813418"><ele>377.0</ele><time>2026-04-25T08:10:36.094Z</time></trkpt><trkpt lat="41.8821827" lon="1.9813378"><ele>377.0</ele><time>2026-04-25T08:10:37.095Z</time></trkpt><trkpt lat="41.8819147" lon="1.9813865"><ele>377.0</ele><time>2026-04-25T08:10:38.094Z</time></trkpt><trkpt lat="41.8816233" lon="1.981441"><ele>374.0</ele><time>2026-04-25T08:10:39.093Z</time></trkpt><trkpt lat="41.8813245" lon="1.9815005"><ele>371.0</ele><time>2026-04-25T08:10:40.094Z</time></trkpt><trkpt lat="41.8810625" lon="1.9815511"><ele>372.5</ele><time>2026-04-25T08:10:41.094Z</time></trkpt><trkpt lat="41.880815" lon="1.9815997"><ele>374.0</ele><time>2026-04-25T08:10:42.094Z</time></trkpt><trkpt lat="41.8806077" lon="1.9816421"><ele>374.0</ele><time>2026-04-25T08:10:43.094Z</time></trkpt><trkpt lat="41.8804235" lon="1.9816574"><ele>374.0</ele><time>2026-04-25T08:10:44.093Z</time></trkpt><trkpt lat="41.8802402" lon="1.9815918"><ele>374.0</ele><time>2026-04-25T08:10:45.094Z</time></trkpt><trkpt lat="41.8800569" lon="1.9814638"><ele>373.0</ele><time>2026-04-25T08:10:46.094Z</time></trkpt><trkpt lat="41.8798745" lon="1.981252"><ele>372.0</ele><time>2026-04-25T08:10:47.094Z</time></trkpt><trkpt lat="41.879681" lon="1.9809775"><ele>371.5</ele><time>2026-04-25T08:10:48.094Z</time></trkpt><trkpt lat="41.8794684" lon="1.9806508"><ele>371.0</ele><time>2026-04-25T08:10:49.093Z</time></trkpt><trkpt lat="41.8792283" lon="1.9803016"><ele>369.5</ele><time>2026-04-25T08:10:50.093Z</time></trkpt><trkpt lat="41.8790057" lon="1.9799674"><ele>368.0</ele><time>2026-04-25T08:10:51.094Z</time></trkpt><trkpt lat="41.8788009" lon="1.9796563"><ele>368.0</ele><time>2026-04-25T08:10:52.093Z</time></trkpt><trkpt lat="41.8786087" lon="1.9793702"><ele>368.0</ele><time>2026-04-25T08:10:53.094Z</time></trkpt><trkpt lat="41.8784325" lon="1.9791072"><ele>367.0</ele><time>2026-04-25T08:10:54.095Z</time></trkpt><trkpt lat="41.8782685" lon="1.9788759"><ele>366.0</ele><time>2026-04-25T08:10:55.093Z</time></trkpt><trkpt lat="41.8780891" lon="1.9786786"><ele>366.0</ele><time>2026-04-25T08:10:56.094Z</time></trkpt><trkpt lat="41.8778779" lon="1.9785348"><ele>366.0</ele><time>2026-04-25T08:10:57.094Z</time></trkpt><trkpt lat="41.8776646" lon="1.9784301"><ele>365.0</ele><time>2026-04-25T08:10:58.094Z</time></trkpt><trkpt lat="41.8774764" lon="1.9783835"><ele>364.0</ele><time>2026-04-25T08:10:59.094Z</time></trkpt><trkpt lat="41.8773308" lon="1.9783014"><ele>363.0</ele><time>2026-04-25T08:11:00.094Z</time></trkpt><trkpt lat="41.8772189" lon="1.9781872"><ele>365.6666666666667</ele><time>2026-04-25T08:11:01.094Z</time></trkpt><trkpt lat="41.8771455" lon="1.9779936"><ele>368.33333333333337</ele><time>2026-04-25T08:11:02.093Z</time></trkpt><trkpt lat="41.8770714" lon="1.977729"><ele>371.0</ele><time>2026-04-25T08:11:03.094Z</time></trkpt><trkpt lat="41.8769553" lon="1.9774975"><ele>368.0</ele><time>2026-04-25T08:11:04.093Z</time></trkpt><trkpt lat="41.8767897" lon="1.9772874"><ele>365.0</ele><time>2026-04-25T08:11:05.094Z</time></trkpt><trkpt lat="41.8765745" lon="1.9770708"><ele>365.0</ele><time>2026-04-25T08:11:06.094Z</time></trkpt><trkpt lat="41.8763216" lon="1.9768472"><ele>365.0</ele><time>2026-04-25T08:11:07.093Z</time></trkpt><trkpt lat="41.8760475" lon="1.9766032"><ele>363.0</ele><time>2026-04-25T08:11:08.094Z</time></trkpt><trkpt lat="41.8757996" lon="1.976387"><ele>361.0</ele><time>2026-04-25T08:11:09.095Z</time></trkpt><trkpt lat="41.8755584" lon="1.9761805"><ele>361.0</ele><time>2026-04-25T08:11:10.093Z</time></trkpt><trkpt lat="41.8753315" lon="1.9759567"><ele>361.0</ele><time>2026-04-25T08:11:11.094Z</time></trkpt><trkpt lat="41.8750935" lon="1.9756916"><ele>359.5</ele><time>2026-04-25T08:11:12.094Z</time></trkpt><trkpt lat="41.8748586" lon="1.9754224"><ele>358.0</ele><time>2026-04-25T08:11:13.093Z</time></trkpt><trkpt lat="41.8746512" lon="1.975199"><ele>359.0</ele><time>2026-04-25T08:11:14.094Z</time></trkpt><trkpt lat="41.8744763" lon="1.9750064"><ele>360.0</ele><time>2026-04-25T08:11:15.094Z</time></trkpt><trkpt lat="41.8743102" lon="1.9748503"><ele>361.0</ele><time>2026-04-25T08:11:16.094Z</time></trkpt><trkpt lat="41.8741129" lon="1.9747516"><ele>361.0</ele><time>2026-04-25T08:11:17.093Z</time></trkpt><trkpt lat="41.8738607" lon="1.974686"><ele>361.0</ele><time>2026-04-25T08:11:18.094Z</time></trkpt><trkpt lat="41.873592" lon="1.974637"><ele>359.0</ele><time>2026-04-25T08:11:19.093Z</time></trkpt><trkpt lat="41.8733054" lon="1.9746438"><ele>357.0</ele><time>2026-04-25T08:11:20.093Z</time></trkpt><trkpt lat="41.8729956" lon="1.9746968"><ele>357.0</ele><time>2026-04-25T08:11:21.094Z</time></trkpt><trkpt lat="41.8727184" lon="1.9747518"><ele>357.0</ele><time>2026-04-25T08:11:22.094Z</time></trkpt><trkpt lat="41.8724712" lon="1.9748067"><ele>356.6666666666667</ele><time>2026-04-25T08:11:23.095Z</time></trkpt><trkpt lat="41.8722591" lon="1.9748501"><ele>356.33333333333337</ele><time>2026-04-25T08:11:24.094Z</time></trkpt><trkpt lat="41.8720706" lon="1.9748564"><ele>356.0</ele><time>2026-04-25T08:11:25.093Z</time></trkpt><trkpt lat="41.8718968" lon="1.9748227"><ele>355.6666666666667</ele><time>2026-04-25T08:11:26.094Z</time></trkpt><trkpt lat="41.8717396" lon="1.9747725"><ele>355.3333333333333</ele><time>2026-04-25T08:11:27.094Z</time></trkpt><trkpt lat="41.8715903" lon="1.9747275"><ele>355.0</ele><time>2026-04-25T08:11:28.095Z</time></trkpt><trkpt lat="41.8714538" lon="1.9746806"><ele>355.0</ele><time>2026-04-25T08:11:29.094Z</time></trkpt><trkpt lat="41.8713258" lon="1.9746323"><ele>355.0</ele><time>2026-04-25T08:11:30.094Z</time></trkpt><trkpt lat="41.8712075" lon="1.9745875"><ele>355.0</ele><time>2026-04-25T08:11:31.094Z</time></trkpt><trkpt lat="41.8710928" lon="1.9745408"><ele>355.0</ele><time>2026-04-25T08:11:32.094Z</time></trkpt><trkpt lat="41.8709801" lon="1.9744996"><ele>356.0</ele><time>2026-04-25T08:11:33.093Z</time></trkpt><trkpt lat="41.8708684" lon="1.9744587"><ele>357.0</ele><time>2026-04-25T08:11:34.094Z</time></trkpt><trkpt lat="41.8707595" lon="1.9744136"><ele>358.0</ele><time>2026-04-25T08:11:35.094Z</time></trkpt><trkpt lat="41.8706541" lon="1.9743644"><ele>359.0</ele><time>2026-04-25T08:11:36.094Z</time></trkpt><trkpt lat="41.8705537" lon="1.9743025"><ele>359.0</ele><time>2026-04-25T08:11:37.095Z</time></trkpt><trkpt lat="41.8704595" lon="1.9742212"><ele>359.0</ele><time>2026-04-25T08:11:38.094Z</time></trkpt><trkpt lat="41.8703756" lon="1.9741265"><ele>359.0</ele><time>2026-04-25T08:11:39.094Z</time></trkpt><trkpt lat="41.8703011" lon="1.9740229"><ele>359.0</ele><time>2026-04-25T08:11:40.093Z</time></trkpt><trkpt lat="41.8702294" lon="1.9739132"><ele>359.0</ele><time>2026-04-25T08:11:41.094Z</time></trkpt><trkpt lat="41.8701558" lon="1.9738064"><ele>359.0</ele><time>2026-04-25T08:11:42.094Z</time></trkpt><trkpt lat="41.8700825" lon="1.9736979"><ele>359.0</ele><time>2026-04-25T08:11:43.095Z</time></trkpt><trkpt lat="41.8700108" lon="1.973592"><ele>359.0</ele><time>2026-04-25T08:11:44.094Z</time></trkpt><trkpt lat="41.8699423" lon="1.9734854"><ele>359.0</ele><time>2026-04-25T08:11:45.094Z</time></trkpt><trkpt lat="41.8698752" lon="1.9733787"><ele>359.0</ele><time>2026-04-25T08:11:46.093Z</time></trkpt><trkpt lat="41.8698071" lon="1.9732735"><ele>359.4</ele><time>2026-04-25T08:11:47.094Z</time></trkpt><trkpt lat="41.8697381" lon="1.9731707"><ele>359.79999999999995</ele><time>2026-04-25T08:11:48.094Z</time></trkpt><trkpt lat="41.8696728" lon="1.9730724"><ele>360.20000000000005</ele><time>2026-04-25T08:11:49.094Z</time></trkpt><trkpt lat="41.8696106" lon="1.9729779"><ele>360.6</ele><time>2026-04-25T08:11:50.094Z</time></trkpt><trkpt lat="41.8695506" lon="1.9728803"><ele>361.0</ele><time>2026-04-25T08:11:51.094Z</time></trkpt><trkpt lat="41.8695019" lon="1.9727783"><ele>361.0</ele><time>2026-04-25T08:11:52.093Z</time></trkpt><trkpt lat="41.8694668" lon="1.9726711"><ele>361.0</ele><time>2026-04-25T08:11:53.095Z</time></trkpt><trkpt lat="41.8694516" lon="1.9725472"><ele>361.0</ele><time>2026-04-25T08:11:54.093Z</time></trkpt><trkpt lat="41.8694645" lon="1.9724219"><ele>361.0</ele><time>2026-04-25T08:11:55.094Z</time></trkpt><trkpt lat="41.8694925" lon="1.9722914"><ele>361.0</ele><time>2026-04-25T08:11:56.093Z</time></trkpt><trkpt lat="41.8695191" lon="1.9721553"><ele>361.6</ele><time>2026-04-25T08:11:57.095Z</time></trkpt><trkpt lat="41.8695469" lon="1.9720098"><ele>362.20000000000005</ele><time>2026-04-25T08:11:58.093Z</time></trkpt><trkpt lat="41.8695756" lon="1.9718702"><ele>362.79999999999995</ele><time>2026-04-25T08:11:59.095Z</time></trkpt><trkpt lat="41.8695974" lon="1.9717387"><ele>363.4</ele><time>2026-04-25T08:12:00.094Z</time></trkpt><trkpt lat="41.8696048" lon="1.9716133"><ele>364.0</ele><time>2026-04-25T08:12:01.094Z</time></trkpt><trkpt lat="41.8695888" lon="1.9714856"><ele>362.4</ele><time>2026-04-25T08:12:02.093Z</time></trkpt><trkpt lat="41.8695415" lon="1.971383"><ele>360.79999999999995</ele><time>2026-04-25T08:12:03.093Z</time></trkpt><trkpt lat="41.8694723" lon="1.9713091"><ele>359.20000000000005</ele><time>2026-04-25T08:12:04.094Z</time></trkpt><trkpt lat="41.8693869" lon="1.9712576"><ele>357.6</ele><time>2026-04-25T08:12:05.094Z</time></trkpt><trkpt lat="41.8692989" lon="1.9712103"><ele>356.0</ele><time>2026-04-25T08:12:06.094Z</time></trkpt><trkpt lat="41.8692213" lon="1.9711554"><ele>355.6666666666667</ele><time>2026-04-25T08:12:07.094Z</time></trkpt><trkpt lat="41.869151" lon="1.9711034"><ele>355.33333333333337</ele><time>2026-04-25T08:12:08.094Z</time></trkpt><trkpt lat="41.8690951" lon="1.9710497"><ele>355.0</ele><time>2026-04-25T08:12:09.094Z</time></trkpt><trkpt lat="41.8690205" lon="1.9709363"><ele>354.6666666666667</ele><time>2026-04-25T08:12:11.094Z</time></trkpt><trkpt lat="41.8689959" lon="1.9708575"><ele>354.3333333333333</ele><time>2026-04-25T08:12:13.094Z</time></trkpt><trkpt lat="41.8689977" lon="1.9707256"><ele>354.0</ele><time>2026-04-25T08:13:50.093Z</time></trkpt><trkpt lat="41.8690182" lon="1.9705607"><ele>354.0</ele><time>2026-04-25T08:13:52.094Z</time></trkpt><trkpt lat="41.8690339" lon="1.9704666"><ele>354.0</ele><time>2026-04-25T08:13:53.094Z</time></trkpt><trkpt lat="41.8690515" lon="1.9703718"><ele>354.0</ele><time>2026-04-25T08:13:54.094Z</time></trkpt><trkpt lat="41.8690756" lon="1.9702806"><ele>354.0</ele><time>2026-04-25T08:13:55.094Z</time></trkpt><trkpt lat="41.8691134" lon="1.9701985"><ele>354.0</ele><time>2026-04-25T08:13:56.095Z</time></trkpt><trkpt lat="41.8691607" lon="1.9701268"><ele>354.0</ele><time>2026-04-25T08:13:57.094Z</time></trkpt><trkpt lat="41.8692186" lon="1.9700638"><ele>354.0</ele><time>2026-04-25T08:13:58.094Z</time></trkpt><trkpt lat="41.8692875" lon="1.9700119"><ele>355.2</ele><time>2026-04-25T08:13:59.094Z</time></trkpt><trkpt lat="41.8693624" lon="1.9699713"><ele>356.4</ele><time>2026-04-25T08:14:00.094Z</time></trkpt><trkpt lat="41.8694449" lon="1.9699335"><ele>357.6</ele><time>2026-04-25T08:14:01.093Z</time></trkpt><trkpt lat="41.8695347" lon="1.9699085"><ele>358.8</ele><time>2026-04-25T08:14:02.095Z</time></trkpt><trkpt lat="41.8696304" lon="1.9699015"><ele>360.0</ele><time>2026-04-25T08:14:03.094Z</time></trkpt><trkpt lat="41.8697301" lon="1.9699057"><ele>360.0</ele><time>2026-04-25T08:14:04.094Z</time></trkpt><trkpt lat="41.8698343" lon="1.9699136"><ele>360.0</ele><time>2026-04-25T08:14:05.093Z</time></trkpt><trkpt lat="41.8699544" lon="1.9699176"><ele>360.0</ele><time>2026-04-25T08:14:06.094Z</time></trkpt><trkpt lat="41.8700832" lon="1.9699116"><ele>360.0</ele><time>2026-04-25T08:14:07.095Z</time></trkpt><trkpt lat="41.8702229" lon="1.9698919"><ele>360.6666666666667</ele><time>2026-04-25T08:14:08.094Z</time></trkpt><trkpt lat="41.87037" lon="1.9698572"><ele>361.33333333333337</ele><time>2026-04-25T08:14:09.093Z</time></trkpt><trkpt lat="41.870525" lon="1.9698138"><ele>362.0</ele><time>2026-04-25T08:14:10.094Z</time></trkpt><trkpt lat="41.8706875" lon="1.9697621"><ele>362.0</ele><time>2026-04-25T08:14:11.094Z</time></trkpt><trkpt lat="41.8708551" lon="1.9697109"><ele>362.0</ele><time>2026-04-25T08:14:12.094Z</time></trkpt><trkpt lat="41.8710236" lon="1.9696549"><ele>362.0</ele><time>2026-04-25T08:14:13.095Z</time></trkpt><trkpt lat="41.8711893" lon="1.9695892"><ele>367.33333333333337</ele><time>2026-04-25T08:14:14.094Z</time></trkpt><trkpt lat="41.8713462" lon="1.9694958"><ele>372.6666666666667</ele><time>2026-04-25T08:14:15.093Z</time></trkpt><trkpt lat="41.8714865" lon="1.9693594"><ele>378.0</ele><time>2026-04-25T08:14:16.094Z</time></trkpt><trkpt lat="41.8716209" lon="1.9692054"><ele>380.0</ele><time>2026-04-25T08:14:17.093Z</time></trkpt><trkpt lat="41.8717545" lon="1.9690271"><ele>382.0</ele><time>2026-04-25T08:14:18.094Z</time></trkpt><trkpt lat="41.8718953" lon="1.9688404"><ele>384.0</ele><time>2026-04-25T08:14:19.094Z</time></trkpt><trkpt lat="41.8720387" lon="1.9686528"><ele>384.0</ele><time>2026-04-25T08:14:20.094Z</time></trkpt><trkpt lat="41.8721799" lon="1.9684815"><ele>384.0</ele><time>2026-04-25T08:14:21.093Z</time></trkpt><trkpt lat="41.8723297" lon="1.9683453"><ele>384.0</ele><time>2026-04-25T08:14:22.093Z</time></trkpt><trkpt lat="41.8725027" lon="1.9682312"><ele>382.6666666666667</ele><time>2026-04-25T08:14:23.094Z</time></trkpt><trkpt lat="41.8726918" lon="1.9681307"><ele>381.33333333333337</ele><time>2026-04-25T08:14:24.094Z</time></trkpt><trkpt lat="41.8728784" lon="1.968057"><ele>380.0</ele><time>2026-04-25T08:14:25.094Z</time></trkpt><trkpt lat="41.8730484" lon="1.9680085"><ele>380.0</ele><time>2026-04-25T08:14:26.095Z</time></trkpt><trkpt lat="41.8731977" lon="1.9679577"><ele>380.0</ele><time>2026-04-25T08:14:27.095Z</time></trkpt><trkpt lat="41.8733168" lon="1.9678714"><ele>380.0</ele><time>2026-04-25T08:14:28.094Z</time></trkpt><trkpt lat="41.8734177" lon="1.9677559"><ele>380.0</ele><time>2026-04-25T08:14:29.094Z</time></trkpt><trkpt lat="41.8735025" lon="1.967622"><ele>381.5</ele><time>2026-04-25T08:14:30.094Z</time></trkpt><trkpt lat="41.8735776" lon="1.9674824"><ele>383.0</ele><time>2026-04-25T08:14:31.093Z</time></trkpt><trkpt lat="41.8736499" lon="1.9673433"><ele>384.5</ele><time>2026-04-25T08:14:32.094Z</time></trkpt><trkpt lat="41.8737208" lon="1.9672028"><ele>386.0</ele><time>2026-04-25T08:14:33.094Z</time></trkpt><trkpt lat="41.8737914" lon="1.9670627"><ele>386.0</ele><time>2026-04-25T08:14:34.093Z</time></trkpt><trkpt lat="41.8738613" lon="1.9669235"><ele>386.0</ele><time>2026-04-25T08:14:35.093Z</time></trkpt><trkpt lat="41.8739287" lon="1.9667877"><ele>386.0</ele><time>2026-04-25T08:14:36.094Z</time></trkpt><trkpt lat="41.8739936" lon="1.9666606"><ele>386.0</ele><time>2026-04-25T08:14:37.093Z</time></trkpt><trkpt lat="41.8740566" lon="1.9665439"><ele>385.6</ele><time>2026-04-25T08:14:38.094Z</time></trkpt><trkpt lat="41.8741197" lon="1.9664391"><ele>385.20000000000005</ele><time>2026-04-25T08:14:39.095Z</time></trkpt><trkpt lat="41.8741802" lon="1.9663427"><ele>384.79999999999995</ele><time>2026-04-25T08:14:40.093Z</time></trkpt><trkpt lat="41.8742426" lon="1.9662522"><ele>384.4</ele><time>2026-04-25T08:14:41.093Z</time></trkpt><trkpt lat="41.8743065" lon="1.9661653"><ele>384.0</ele><time>2026-04-25T08:14:42.093Z</time></trkpt><trkpt lat="41.8743718" lon="1.9660853"><ele>385.1666666666667</ele><time>2026-04-25T08:14:43.093Z</time></trkpt><trkpt lat="41.8744399" lon="1.9660145"><ele>386.33333333333337</ele><time>2026-04-25T08:14:44.093Z</time></trkpt><trkpt lat="41.874511" lon="1.9659536"><ele>387.5</ele><time>2026-04-25T08:14:45.095Z</time></trkpt><trkpt lat="41.8745821" lon="1.9658977"><ele>388.6666666666667</ele><time>2026-04-25T08:14:46.094Z</time></trkpt><trkpt lat="41.8746522" lon="1.9658431"><ele>389.83333333333337</ele><time>2026-04-25T08:14:47.094Z</time></trkpt><trkpt lat="41.8747266" lon="1.965782"><ele>391.0</ele><time>2026-04-25T08:14:48.093Z</time></trkpt><trkpt lat="41.8748002" lon="1.9657137"><ele>391.0</ele><time>2026-04-25T08:14:49.093Z</time></trkpt><trkpt lat="41.8748712" lon="1.9656365"><ele>391.0</ele><time>2026-04-25T08:14:50.094Z</time></trkpt><trkpt lat="41.8749367" lon="1.9655503"><ele>391.0</ele><time>2026-04-25T08:14:51.095Z</time></trkpt><trkpt lat="41.8749993" lon="1.9654594"><ele>391.0</ele><time>2026-04-25T08:14:52.095Z</time></trkpt><trkpt lat="41.8750639" lon="1.9653669"><ele>391.0</ele><time>2026-04-25T08:14:53.094Z</time></trkpt><trkpt lat="41.8751283" lon="1.9652717"><ele>392.0</ele><time>2026-04-25T08:14:54.093Z</time></trkpt><trkpt lat="41.8751955" lon="1.9651773"><ele>393.0</ele><time>2026-04-25T08:14:55.095Z</time></trkpt><trkpt lat="41.8752633" lon="1.965085"><ele>394.0</ele><time>2026-04-25T08:14:56.095Z</time></trkpt><trkpt lat="41.8753292" lon="1.9649915"><ele>395.0</ele><time>2026-04-25T08:14:57.094Z</time></trkpt><trkpt lat="41.8753974" lon="1.9648924"><ele>396.0</ele><time>2026-04-25T08:14:58.095Z</time></trkpt><trkpt lat="41.875478" lon="1.9647936"><ele>396.0</ele><time>2026-04-25T08:14:59.095Z</time></trkpt><trkpt lat="41.8755819" lon="1.9647039"><ele>396.0</ele><time>2026-04-25T08:15:00.094Z</time></trkpt><trkpt lat="41.8757198" lon="1.9646332"><ele>396.0</ele><time>2026-04-25T08:15:01.093Z</time></trkpt><trkpt lat="41.8758827" lon="1.9645779"><ele>396.0</ele><time>2026-04-25T08:15:02.095Z</time></trkpt><trkpt lat="41.8760597" lon="1.9644991"><ele>394.66666666666663</ele><time>2026-04-25T08:15:03.093Z</time></trkpt><trkpt lat="41.8762297" lon="1.9643563"><ele>393.3333333333333</ele><time>2026-04-25T08:15:04.094Z</time></trkpt><trkpt lat="41.8763857" lon="1.9641764"><ele>392.0</ele><time>2026-04-25T08:15:05.094Z</time></trkpt><trkpt lat="41.8765192" lon="1.9639604"><ele>392.0</ele><time>2026-04-25T08:15:06.093Z</time></trkpt><trkpt lat="41.8766377" lon="1.9636874"><ele>392.0</ele><time>2026-04-25T08:15:07.093Z</time></trkpt><trkpt lat="41.8767368" lon="1.963427"><ele>395.66666666666663</ele><time>2026-04-25T08:15:08.093Z</time></trkpt><trkpt lat="41.8768372" lon="1.9631954"><ele>399.33333333333337</ele><time>2026-04-25T08:15:09.095Z</time></trkpt><trkpt lat="41.876978" lon="1.9629721"><ele>403.0</ele><time>2026-04-25T08:15:10.093Z</time></trkpt><trkpt lat="41.8771605" lon="1.9627496"><ele>402.5</ele><time>2026-04-25T08:15:11.095Z</time></trkpt><trkpt lat="41.8773505" lon="1.9625091"><ele>402.0</ele><time>2026-04-25T08:15:12.094Z</time></trkpt><trkpt lat="41.8743065" lon="1.9661653"><ele>402.0</ele><time>2026-04-25T08:14:42.093Z</time></trkpt><trkpt lat="41.8743718" lon="1.9660853"><ele>402.0</ele><time>2026-04-25T08:14:43.093Z</time></trkpt><trkpt lat="41.8744399" lon="1.9660145"><ele>402.0</ele><time>2026-04-25T08:14:44.093Z</time></trkpt><trkpt lat="41.874511" lon="1.9659536"><ele>402.0</ele><time>2026-04-25T08:14:45.095Z</time></trkpt><trkpt lat="41.8745821" lon="1.9658977"><ele>402.0</ele><time>2026-04-25T08:14:46.094Z</time></trkpt><trkpt lat="41.8746522" lon="1.9658431"><ele>402.0</ele><time>2026-04-25T08:14:47.094Z</time></trkpt><trkpt lat="41.8747266" lon="1.965782"><ele>399.8</ele><time>2026-04-25T08:14:48.093Z</time></trkpt><trkpt lat="41.8748002" lon="1.9657137"><ele>397.6</ele><time>2026-04-25T08:14:49.093Z</time></trkpt><trkpt lat="41.8748712" lon="1.9656365"><ele>395.40000000000003</ele><time>2026-04-25T08:14:50.094Z</time></trkpt><trkpt lat="41.8749367" lon="1.9655503"><ele>393.20000000000005</ele><time>2026-04-25T08:14:51.095Z</time></trkpt><trkpt lat="41.8749993" lon="1.9654594"><ele>391.0</ele><time>2026-04-25T08:14:52.095Z</time></trkpt><trkpt lat="41.8750639" lon="1.9653669"><ele>392.0</ele><time>2026-04-25T08:14:53.094Z</time></trkpt><trkpt lat="41.8751283" lon="1.9652717"><ele>393.0</ele><time>2026-04-25T08:14:54.093Z</time></trkpt><trkpt lat="41.8751955" lon="1.9651773"><ele>394.0</ele><time>2026-04-25T08:14:55.095Z</time></trkpt><trkpt lat="41.8752633" lon="1.965085"><ele>395.0</ele><time>2026-04-25T08:14:56.095Z</time></trkpt><trkpt lat="41.8753292" lon="1.9649915"><ele>396.0</ele><time>2026-04-25T08:14:57.094Z</time></trkpt><trkpt lat="41.8753974" lon="1.9648924"><ele>396.0</ele><time>2026-04-25T08:14:58.095Z</time></trkpt><trkpt lat="41.875478" lon="1.9647936"><ele>396.0</ele><time>2026-04-25T08:14:59.095Z</time></trkpt><trkpt lat="41.8755819" lon="1.9647039"><ele>396.0</ele><time>2026-04-25T08:15:00.094Z</time></trkpt><trkpt lat="41.8757198" lon="1.9646332"><ele>396.0</ele><time>2026-04-25T08:15:01.093Z</time></trkpt><trkpt lat="41.8758827" lon="1.9645779"><ele>394.66666666666663</ele><time>2026-04-25T08:15:02.095Z</time></trkpt><trkpt lat="41.8760597" lon="1.9644991"><ele>393.3333333333333</ele><time>2026-04-25T08:15:03.093Z</time></trkpt><trkpt lat="41.8762297" lon="1.9643563"><ele>392.0</ele><time>2026-04-25T08:15:04.094Z</time></trkpt><trkpt lat="41.8763857" lon="1.9641764"><ele>392.0</ele><time>2026-04-25T08:15:05.094Z</time></trkpt><trkpt lat="41.8765192" lon="1.9639604"><ele>392.0</ele><time>2026-04-25T08:15:06.093Z</time></trkpt><trkpt lat="41.8766377" lon="1.9636874"><ele>392.0</ele><time>2026-04-25T08:15:07.093Z</time></trkpt><trkpt lat="41.8767368" lon="1.963427"><ele>395.66666666666663</ele><time>2026-04-25T08:15:08.093Z</time></trkpt><trkpt lat="41.8768372" lon="1.9631954"><ele>399.33333333333337</ele><time>2026-04-25T08:15:09.095Z</time></trkpt><trkpt lat="41.876978" lon="1.9629721"><ele>403.0</ele><time>2026-04-25T08:15:10.093Z</time></trkpt><trkpt lat="41.8771605" lon="1.9627496"><ele>401.0</ele><time>2026-04-25T08:15:11.095Z</time></trkpt><trkpt lat="41.8773505" lon="1.9625091"><ele>399.0</ele><time>2026-04-25T08:15:12.094Z</time></trkpt><trkpt lat="41.8774964" lon="1.9622884"><ele>402.66666666666663</ele><time>2026-04-25T08:15:13.094Z</time></trkpt><trkpt lat="41.8776348" lon="1.9621018"><ele>406.3333333333333</ele><time>2026-04-25T08:15:14.093Z</time></trkpt><trkpt lat="41.8777821" lon="1.961974"><ele>410.0</ele><time>2026-04-25T08:15:15.094Z</time></trkpt><trkpt lat="41.87795" lon="1.9618883"><ele>410.0</ele><time>2026-04-25T08:15:16.095Z</time></trkpt><trkpt lat="41.8781294" lon="1.9618421"><ele>410.0</ele><time>2026-04-25T08:15:17.094Z</time></trkpt><trkpt lat="41.8783315" lon="1.9618559"><ele>410.0</ele><time>2026-04-25T08:15:18.094Z</time></trkpt><trkpt lat="41.878549" lon="1.9618888"><ele>414.0</ele><time>2026-04-25T08:15:19.093Z</time></trkpt><trkpt lat="41.8787757" lon="1.9619008"><ele>418.0</ele><time>2026-04-25T08:15:20.093Z</time></trkpt><trkpt lat="41.8789952" lon="1.9618437"><ele>418.0</ele><time>2026-04-25T08:15:21.094Z</time></trkpt><trkpt lat="41.8792402" lon="1.9617389"><ele>418.0</ele><time>2026-04-25T08:15:22.094Z</time></trkpt><trkpt lat="41.8795062" lon="1.9616151"><ele>414.0</ele><time>2026-04-25T08:15:23.094Z</time></trkpt><trkpt lat="41.8797884" lon="1.9614807"><ele>410.0</ele><time>2026-04-25T08:15:24.094Z</time></trkpt><trkpt lat="41.8800605" lon="1.9613549"><ele>413.5</ele><time>2026-04-25T08:15:25.094Z</time></trkpt><trkpt lat="41.8803097" lon="1.9612362"><ele>417.0</ele><time>2026-04-25T08:15:26.094Z</time></trkpt><trkpt lat="41.8805256" lon="1.9611255"><ele>417.0</ele><time>2026-04-25T08:15:27.094Z</time></trkpt><trkpt lat="41.8807217" lon="1.9609909"><ele>417.0</ele><time>2026-04-25T08:15:28.093Z</time></trkpt><trkpt lat="41.8808904" lon="1.9608005"><ele>417.0</ele><time>2026-04-25T08:15:29.094Z</time></trkpt><trkpt lat="41.8810431" lon="1.96056"><ele>414.0</ele><time>2026-04-25T08:15:30.094Z</time></trkpt><trkpt lat="41.8811865" lon="1.960278"><ele>411.0</ele><time>2026-04-25T08:15:31.094Z</time></trkpt><trkpt lat="41.8813103" lon="1.9600244"><ele>411.0</ele><time>2026-04-25T08:15:32.094Z</time></trkpt><trkpt lat="41.8814378" lon="1.9597916"><ele>411.0</ele><time>2026-04-25T08:15:33.095Z</time></trkpt><trkpt lat="41.8816141" lon="1.9596094"><ele>411.0</ele><time>2026-04-25T08:15:34.094Z</time></trkpt><trkpt lat="41.8818208" lon="1.9594346"><ele>413.0</ele><time>2026-04-25T08:15:35.095Z</time></trkpt><trkpt lat="41.8820412" lon="1.9592342"><ele>415.0</ele><time>2026-04-25T08:15:36.094Z</time></trkpt><trkpt lat="41.8822252" lon="1.9590182"><ele>417.0</ele><time>2026-04-25T08:15:37.094Z</time></trkpt><trkpt lat="41.8823962" lon="1.9587985"><ele>419.0</ele><time>2026-04-25T08:15:38.094Z</time></trkpt><trkpt lat="41.8825936" lon="1.9585951"><ele>420.5</ele><time>2026-04-25T08:15:39.094Z</time></trkpt><trkpt lat="41.8828259" lon="1.9584064"><ele>422.0</ele><time>2026-04-25T08:15:40.093Z</time></trkpt><trkpt lat="41.8830527" lon="1.9582324"><ele>422.0</ele><time>2026-04-25T08:15:41.093Z</time></trkpt><trkpt lat="41.8832569" lon="1.9580803"><ele>422.0</ele><time>2026-04-25T08:15:42.094Z</time></trkpt><trkpt lat="41.883444" lon="1.9579365"><ele>422.0</ele><time>2026-04-25T08:15:43.095Z</time></trkpt><trkpt lat="41.8836242" lon="1.9578162"><ele>423.0</ele><time>2026-04-25T08:15:44.095Z</time></trkpt><trkpt lat="41.8838106" lon="1.9577424"><ele>424.0</ele><time>2026-04-25T08:15:45.094Z</time></trkpt><trkpt lat="41.8840039" lon="1.9576462"><ele>425.0</ele><time>2026-04-25T08:15:46.094Z</time></trkpt><trkpt lat="41.8842015" lon="1.957489"><ele>429.3333333333333</ele><time>2026-04-25T08:15:47.093Z</time></trkpt><trkpt lat="41.8843781" lon="1.9573169"><ele>433.66666666666663</ele><time>2026-04-25T08:15:48.093Z</time></trkpt><trkpt lat="41.8845413" lon="1.9571647"><ele>438.0</ele><time>2026-04-25T08:15:49.094Z</time></trkpt><trkpt lat="41.8847216" lon="1.957055"><ele>438.0</ele><time>2026-04-25T08:15:50.094Z</time></trkpt><trkpt lat="41.8849354" lon="1.956979"><ele>438.0</ele><time>2026-04-25T08:15:51.095Z</time></trkpt><trkpt lat="41.885173" lon="1.9569254"><ele>437.5</ele><time>2026-04-25T08:15:52.095Z</time></trkpt><trkpt lat="41.8854337" lon="1.9568924"><ele>437.0</ele><time>2026-04-25T08:15:53.093Z</time></trkpt><trkpt lat="41.8857097" lon="1.956848"><ele>437.5</ele><time>2026-04-25T08:15:54.093Z</time></trkpt><trkpt lat="41.8859921" lon="1.9568011"><ele>438.0</ele><time>2026-04-25T08:15:55.094Z</time></trkpt><trkpt lat="41.8862822" lon="1.9567579"><ele>438.0</ele><time>2026-04-25T08:15:56.094Z</time></trkpt><trkpt lat="41.886565" lon="1.9567135"><ele>438.0</ele><time>2026-04-25T08:15:57.095Z</time></trkpt><trkpt lat="41.8868335" lon="1.9566758"><ele>438.5</ele><time>2026-04-25T08:15:58.093Z</time></trkpt><trkpt lat="41.8870996" lon="1.9566345"><ele>439.0</ele><time>2026-04-25T08:15:59.094Z</time></trkpt><trkpt lat="41.8873622" lon="1.9565945"><ele>444.5</ele><time>2026-04-25T08:16:00.094Z</time></trkpt><trkpt lat="41.887602" lon="1.9565602"><ele>450.0</ele><time>2026-04-25T08:16:01.095Z</time></trkpt><trkpt lat="41.8878207" lon="1.9565278"><ele>450.0</ele><time>2026-04-25T08:16:02.093Z</time></trkpt><trkpt lat="41.88802" lon="1.956503"><ele>450.0</ele><time>2026-04-25T08:16:03.093Z</time></trkpt><trkpt lat="41.8881994" lon="1.9564698"><ele>450.0</ele><time>2026-04-25T08:16:04.094Z</time></trkpt><trkpt lat="41.888353" lon="1.9563903"><ele>451.75</ele><time>2026-04-25T08:16:05.093Z</time></trkpt><trkpt lat="41.8884697" lon="1.9562701"><ele>453.5</ele><time>2026-04-25T08:16:06.094Z</time></trkpt><trkpt lat="41.888546" lon="1.9561328"><ele>455.25</ele><time>2026-04-25T08:16:07.093Z</time></trkpt><trkpt lat="41.8885652" lon="1.9559752"><ele>457.0</ele><time>2026-04-25T08:16:08.094Z</time></trkpt><trkpt lat="41.8885256" lon="1.9558087"><ele>458.0</ele><time>2026-04-25T08:16:09.094Z</time></trkpt><trkpt lat="41.8884323" lon="1.9556286"><ele>459.0</ele><time>2026-04-25T08:16:10.093Z</time></trkpt><trkpt lat="41.8883283" lon="1.9554281"><ele>460.0</ele><time>2026-04-25T08:16:11.093Z</time></trkpt><trkpt lat="41.8882865" lon="1.9552162"><ele>459.0</ele><time>2026-04-25T08:16:12.094Z</time></trkpt><trkpt lat="41.8882891" lon="1.954972"><ele>458.0</ele><time>2026-04-25T08:16:13.094Z</time></trkpt><trkpt lat="41.8883417" lon="1.9547175"><ele>457.0</ele><time>2026-04-25T08:16:14.094Z</time></trkpt><trkpt lat="41.88844" lon="1.9544709"><ele>462.5</ele><time>2026-04-25T08:16:15.094Z</time></trkpt><trkpt lat="41.8885828" lon="1.9542442"><ele>468.0</ele><time>2026-04-25T08:16:16.094Z</time></trkpt><trkpt lat="41.8887369" lon="1.9539886"><ele>470.5</ele><time>2026-04-25T08:16:17.094Z</time></trkpt><trkpt lat="41.8889549" lon="1.9537835"><ele>473.0</ele><time>2026-04-25T08:16:18.093Z</time></trkpt><trkpt lat="41.8891154" lon="1.9535883"><ele>473.0</ele><time>2026-04-25T08:16:19.094Z</time></trkpt><trkpt lat="41.8892422" lon="1.9534223"><ele>473.0</ele><time>2026-04-25T08:16:20.093Z</time></trkpt><trkpt lat="41.889323" lon="1.9532358"><ele>473.0</ele><time>2026-04-25T08:16:21.094Z</time></trkpt><trkpt lat="41.889344" lon="1.9530462"><ele>472.3333333333333</ele><time>2026-04-25T08:16:22.093Z</time></trkpt><trkpt lat="41.8893037" lon="1.9528543"><ele>471.66666666666663</ele><time>2026-04-25T08:16:23.094Z</time></trkpt><trkpt lat="41.8892344" lon="1.9526429"><ele>471.0</ele><time>2026-04-25T08:16:24.094Z</time></trkpt><trkpt lat="41.889208" lon="1.9524025"><ele>471.0</ele><time>2026-04-25T08:16:25.094Z</time></trkpt><trkpt lat="41.8892121" lon="1.9521764"><ele>471.0</ele><time>2026-04-25T08:16:26.093Z</time></trkpt><trkpt lat="41.8892032" lon="1.9519951"><ele>471.0</ele><time>2026-04-25T08:16:27.094Z</time></trkpt><trkpt lat="41.8891306" lon="1.9518807"><ele>471.0</ele><time>2026-04-25T08:16:28.094Z</time></trkpt><trkpt lat="41.889023" lon="1.951799"><ele>471.0</ele><time>2026-04-25T08:16:29.093Z</time></trkpt><trkpt lat="41.888893" lon="1.9518029"><ele>471.0</ele><time>2026-04-25T08:16:30.094Z</time></trkpt><trkpt lat="41.8887339" lon="1.951871"><ele>471.0</ele><time>2026-04-25T08:16:31.094Z</time></trkpt><trkpt lat="41.8885608" lon="1.9519602"><ele>470.5</ele><time>2026-04-25T08:16:32.094Z</time></trkpt><trkpt lat="41.8884108" lon="1.9519996"><ele>470.0</ele><time>2026-04-25T08:16:33.093Z</time></trkpt><trkpt lat="41.8882786" lon="1.951988"><ele>469.5</ele><time>2026-04-25T08:16:34.093Z</time></trkpt><trkpt lat="41.8881711" lon="1.9519033"><ele>469.0</ele><time>2026-04-25T08:16:35.095Z</time></trkpt><trkpt lat="41.8880909" lon="1.9517508"><ele>473.6666666666667</ele><time>2026-04-25T08:16:36.093Z</time></trkpt><trkpt lat="41.8880304" lon="1.9515322"><ele>478.33333333333337</ele><time>2026-04-25T08:16:37.094Z</time></trkpt><trkpt lat="41.8880163" lon="1.9512881"><ele>483.0</ele><time>2026-04-25T08:16:38.094Z</time></trkpt><trkpt lat="41.8880361" lon="1.9510617"><ele>483.0</ele><time>2026-04-25T08:16:39.093Z</time></trkpt><trkpt lat="41.8880291" lon="1.9508743"><ele>483.0</ele><time>2026-04-25T08:16:40.094Z</time></trkpt><trkpt lat="41.8879756" lon="1.9507237"><ele>483.0</ele><time>2026-04-25T08:16:41.094Z</time></trkpt><trkpt lat="41.8878659" lon="1.9506301"><ele>483.0</ele><time>2026-04-25T08:16:42.093Z</time></trkpt><trkpt lat="41.8877265" lon="1.9506091"><ele>485.0</ele><time>2026-04-25T08:16:43.094Z</time></trkpt><trkpt lat="41.8875689" lon="1.950613"><ele>487.0</ele><time>2026-04-25T08:16:44.095Z</time></trkpt><trkpt lat="41.8874151" lon="1.9505273"><ele>489.0</ele><time>2026-04-25T08:16:45.095Z</time></trkpt><trkpt lat="41.8872233" lon="1.9503933"><ele>489.0</ele><time>2026-04-25T08:16:46.095Z</time></trkpt><trkpt lat="41.8870593" lon="1.9502725"><ele>489.0</ele><time>2026-04-25T08:16:47.093Z</time></trkpt><trkpt lat="41.8869587" lon="1.9501567"><ele>489.0</ele><time>2026-04-25T08:16:48.094Z</time></trkpt><trkpt lat="41.8869078" lon="1.9500095"><ele>489.0</ele><time>2026-04-25T08:16:49.094Z</time></trkpt><trkpt lat="41.8869115" lon="1.9498207"><ele>492.66666666666663</ele><time>2026-04-25T08:16:50.093Z</time></trkpt><trkpt lat="41.8869695" lon="1.9495854"><ele>496.3333333333333</ele><time>2026-04-25T08:16:51.094Z</time></trkpt><trkpt lat="41.8870602" lon="1.94934"><ele>500.0</ele><time>2026-04-25T08:16:52.093Z</time></trkpt><trkpt lat="41.8871792" lon="1.9491499"><ele>500.0</ele><time>2026-04-25T08:16:53.094Z</time></trkpt><trkpt lat="41.8873235" lon="1.9490051"><ele>500.0</ele><time>2026-04-25T08:16:54.094Z</time></trkpt><trkpt lat="41.8875135" lon="1.9488797"><ele>500.0</ele><time>2026-04-25T08:16:55.093Z</time></trkpt><trkpt lat="41.8876639" lon="1.9487826"><ele>504.0</ele><time>2026-04-25T08:16:56.094Z</time></trkpt><trkpt lat="41.8877761" lon="1.948652"><ele>508.0</ele><time>2026-04-25T08:16:57.094Z</time></trkpt><trkpt lat="41.8878409" lon="1.9484933"><ele>512.0</ele><time>2026-04-25T08:16:58.094Z</time></trkpt><trkpt lat="41.8878457" lon="1.9483039"><ele>516.0</ele><time>2026-04-25T08:16:59.094Z</time></trkpt><trkpt lat="41.8877673" lon="1.9481072"><ele>516.0</ele><time>2026-04-25T08:17:00.095Z</time></trkpt><trkpt lat="41.887642" lon="1.9479036"><ele>516.0</ele><time>2026-04-25T08:17:01.093Z</time></trkpt><trkpt lat="41.8875085" lon="1.9477044"><ele>516.0</ele><time>2026-04-25T08:17:02.094Z</time></trkpt><trkpt lat="41.8874202" lon="1.9475026"><ele>510.33333333333337</ele><time>2026-04-25T08:17:03.095Z</time></trkpt><trkpt lat="41.8873856" lon="1.9472527"><ele>504.6666666666667</ele><time>2026-04-25T08:17:04.093Z</time></trkpt><trkpt lat="41.8873789" lon="1.9469911"><ele>499.0</ele><time>2026-04-25T08:17:05.095Z</time></trkpt><trkpt lat="41.8873412" lon="1.9467556"><ele>501.33333333333337</ele><time>2026-04-25T08:17:06.094Z</time></trkpt><trkpt lat="41.8872731" lon="1.9465345"><ele>503.66666666666663</ele><time>2026-04-25T08:17:07.093Z</time></trkpt><trkpt lat="41.8872071" lon="1.9463472"><ele>506.0</ele><time>2026-04-25T08:17:08.093Z</time></trkpt><trkpt lat="41.8871824" lon="1.9461708"><ele>506.0</ele><time>2026-04-25T08:17:09.093Z</time></trkpt><trkpt lat="41.8872026" lon="1.9459745"><ele>506.0</ele><time>2026-04-25T08:17:10.094Z</time></trkpt><trkpt lat="41.887235" lon="1.9457264"><ele>506.0</ele><time>2026-04-25T08:17:11.094Z</time></trkpt><trkpt lat="41.8872435" lon="1.9454574"><ele>506.3333333333333</ele><time>2026-04-25T08:17:12.094Z</time></trkpt><trkpt lat="41.887217" lon="1.9451827"><ele>506.66666666666663</ele><time>2026-04-25T08:17:13.094Z</time></trkpt><trkpt lat="41.8872009" lon="1.9449397"><ele>507.0</ele><time>2026-04-25T08:17:14.094Z</time></trkpt><trkpt lat="41.8872365" lon="1.9447064"><ele>507.0</ele><time>2026-04-25T08:17:15.094Z</time></trkpt><trkpt lat="41.8873058" lon="1.9444625"><ele>507.0</ele><time>2026-04-25T08:17:16.093Z</time></trkpt><trkpt lat="41.8873502" lon="1.9442434"><ele>507.0</ele><time>2026-04-25T08:17:17.094Z</time></trkpt><trkpt lat="41.8873529" lon="1.9440173"><ele>504.0</ele><time>2026-04-25T08:17:18.095Z</time></trkpt><trkpt lat="41.8872964" lon="1.9437794"><ele>501.0</ele><time>2026-04-25T08:17:19.093Z</time></trkpt><trkpt lat="41.8871843" lon="1.9435312"><ele>498.0</ele><time>2026-04-25T08:17:20.093Z</time></trkpt><trkpt lat="41.8870672" lon="1.943314"><ele>496.25</ele><time>2026-04-25T08:17:21.094Z</time></trkpt><trkpt lat="41.8869848" lon="1.9431287"><ele>494.5</ele><time>2026-04-25T08:17:22.094Z</time></trkpt><trkpt lat="41.886956" lon="1.9429572"><ele>492.75</ele><time>2026-04-25T08:17:23.094Z</time></trkpt><trkpt lat="41.8869956" lon="1.9427967"><ele>491.0</ele><time>2026-04-25T08:17:24.094Z</time></trkpt><trkpt lat="41.8870976" lon="1.942637"><ele>488.0</ele><time>2026-04-25T08:17:25.094Z</time></trkpt><trkpt lat="41.8872294" lon="1.942469"><ele>485.0</ele><time>2026-04-25T08:17:26.094Z</time></trkpt><trkpt lat="41.8873112" lon="1.9422745"><ele>482.0</ele><time>2026-04-25T08:17:27.094Z</time></trkpt><trkpt lat="41.8873614" lon="1.9420482"><ele>482.0</ele><time>2026-04-25T08:17:28.094Z</time></trkpt><trkpt lat="41.8873524" lon="1.9418294"><ele>482.0</ele><time>2026-04-25T08:17:29.094Z</time></trkpt><trkpt lat="41.8872926" lon="1.9416331"><ele>482.0</ele><time>2026-04-25T08:17:30.094Z</time></trkpt><trkpt lat="41.8871594" lon="1.9414564"><ele>482.0</ele><time>2026-04-25T08:17:31.095Z</time></trkpt><trkpt lat="41.8869751" lon="1.9413033"><ele>482.0</ele><time>2026-04-25T08:17:32.094Z</time></trkpt><trkpt lat="41.8867906" lon="1.9411866"><ele>482.0</ele><time>2026-04-25T08:17:33.093Z</time></trkpt><trkpt lat="41.8866363" lon="1.9410636"><ele>477.3333333333333</ele><time>2026-04-25T08:17:34.094Z</time></trkpt><trkpt lat="41.8865225" lon="1.9409053"><ele>472.66666666666663</ele><time>2026-04-25T08:17:35.094Z</time></trkpt><trkpt lat="41.8864452" lon="1.9407032"><ele>468.0</ele><time>2026-04-25T08:17:36.094Z</time></trkpt><trkpt lat="41.8864027" lon="1.9404314"><ele>468.0</ele><time>2026-04-25T08:17:37.094Z</time></trkpt><trkpt lat="41.8863767" lon="1.9401634"><ele>468.0</ele><time>2026-04-25T08:17:38.093Z</time></trkpt><trkpt lat="41.8863855" lon="1.9399266"><ele>468.0</ele><time>2026-04-25T08:17:39.093Z</time></trkpt><trkpt lat="41.8864369" lon="1.9397024"><ele>467.33333333333337</ele><time>2026-04-25T08:17:40.094Z</time></trkpt><trkpt lat="41.8865259" lon="1.9395321"><ele>466.6666666666667</ele><time>2026-04-25T08:17:41.093Z</time></trkpt><trkpt lat="41.8866432" lon="1.9394174"><ele>466.0</ele><time>2026-04-25T08:17:42.094Z</time></trkpt><trkpt lat="41.886797" lon="1.9393612"><ele>468.33333333333337</ele><time>2026-04-25T08:17:43.093Z</time></trkpt><trkpt lat="41.8869873" lon="1.9393319"><ele>470.66666666666663</ele><time>2026-04-25T08:17:44.094Z</time></trkpt><trkpt lat="41.8871747" lon="1.9392627"><ele>473.0</ele><time>2026-04-25T08:17:45.093Z</time></trkpt><trkpt lat="41.8873346" lon="1.9391411"><ele>469.66666666666663</ele><time>2026-04-25T08:17:46.094Z</time></trkpt><trkpt lat="41.8874733" lon="1.9389871"><ele>466.33333333333337</ele><time>2026-04-25T08:17:47.093Z</time></trkpt><trkpt lat="41.8875809" lon="1.9387888"><ele>463.0</ele><time>2026-04-25T08:17:48.094Z</time></trkpt><trkpt lat="41.8876507" lon="1.9385456"><ele>462.6666666666667</ele><time>2026-04-25T08:17:49.094Z</time></trkpt><trkpt lat="41.8876858" lon="1.938273"><ele>462.33333333333337</ele><time>2026-04-25T08:17:50.094Z</time></trkpt><trkpt lat="41.8876845" lon="1.9379822"><ele>462.0</ele><time>2026-04-25T08:17:51.094Z</time></trkpt><trkpt lat="41.887637" lon="1.9376763"><ele>453.5</ele><time>2026-04-25T08:17:52.094Z</time></trkpt><trkpt lat="41.8875602" lon="1.9373496"><ele>445.0</ele><time>2026-04-25T08:17:53.094Z</time></trkpt><trkpt lat="41.8874795" lon="1.9370477"><ele>445.0</ele><time>2026-04-25T08:17:54.093Z</time></trkpt><trkpt lat="41.8873797" lon="1.9367755"><ele>445.0</ele><time>2026-04-25T08:17:55.094Z</time></trkpt><trkpt lat="41.887232" lon="1.9365314"><ele>444.5</ele><time>2026-04-25T08:17:56.094Z</time></trkpt><trkpt lat="41.8870473" lon="1.9362954"><ele>444.0</ele><time>2026-04-25T08:17:57.094Z</time></trkpt><trkpt lat="41.8868893" lon="1.9360898"><ele>442.0</ele><time>2026-04-25T08:17:58.094Z</time></trkpt><trkpt lat="41.8867461" lon="1.9358588"><ele>440.0</ele><time>2026-04-25T08:17:59.095Z</time></trkpt><trkpt lat="41.8866274" lon="1.9356072"><ele>438.0</ele><time>2026-04-25T08:18:00.094Z</time></trkpt><trkpt lat="41.8865407" lon="1.9353479"><ele>438.0</ele><time>2026-04-25T08:18:01.093Z</time></trkpt><trkpt lat="41.886506" lon="1.9350578"><ele>438.0</ele><time>2026-04-25T08:18:02.095Z</time></trkpt><trkpt lat="41.8864798" lon="1.9347167"><ele>437.0</ele><time>2026-04-25T08:18:03.093Z</time></trkpt><trkpt lat="41.8864598" lon="1.9343507"><ele>436.0</ele><time>2026-04-25T08:18:04.095Z</time></trkpt><trkpt lat="41.8864529" lon="1.9339508"><ele>433.5</ele><time>2026-04-25T08:18:05.094Z</time></trkpt><trkpt lat="41.8864633" lon="1.9335496"><ele>431.0</ele><time>2026-04-25T08:18:06.093Z</time></trkpt><trkpt lat="41.8864811" lon="1.9331773"><ele>428.0</ele><time>2026-04-25T08:18:07.094Z</time></trkpt><trkpt lat="41.8864784" lon="1.9328196"><ele>425.0</ele><time>2026-04-25T08:18:08.094Z</time></trkpt><trkpt lat="41.8864565" lon="1.9324964"><ele>423.3333333333333</ele><time>2026-04-25T08:18:09.093Z</time></trkpt><trkpt lat="41.8864301" lon="1.9322153"><ele>421.66666666666663</ele><time>2026-04-25T08:18:10.094Z</time></trkpt><trkpt lat="41.8863871" lon="1.9319729"><ele>420.0</ele><time>2026-04-25T08:18:11.093Z</time></trkpt><trkpt lat="41.886296" lon="1.9317646"><ele>420.66666666666663</ele><time>2026-04-25T08:18:12.093Z</time></trkpt><trkpt lat="41.8861627" lon="1.9315899"><ele>421.3333333333333</ele><time>2026-04-25T08:18:13.094Z</time></trkpt><trkpt lat="41.8859842" lon="1.9314598"><ele>422.0</ele><time>2026-04-25T08:18:14.094Z</time></trkpt><trkpt lat="41.8857705" lon="1.9313566"><ele>422.0</ele><time>2026-04-25T08:18:15.094Z</time></trkpt><trkpt lat="41.8855277" lon="1.9312945"><ele>422.0</ele><time>2026-04-25T08:18:16.093Z</time></trkpt><trkpt lat="41.8852891" lon="1.9312765"><ele>421.66666666666663</ele><time>2026-04-25T08:18:17.094Z</time></trkpt><trkpt lat="41.8850563" lon="1.931316"><ele>421.33333333333337</ele><time>2026-04-25T08:18:18.093Z</time></trkpt><trkpt lat="41.884856" lon="1.931346"><ele>421.0</ele><time>2026-04-25T08:18:19.094Z</time></trkpt><trkpt lat="41.8846858" lon="1.9313094"><ele>421.0</ele><time>2026-04-25T08:18:20.094Z</time></trkpt><trkpt lat="41.8845298" lon="1.9312108"><ele>421.0</ele><time>2026-04-25T08:18:21.094Z</time></trkpt><trkpt lat="41.8843757" lon="1.9310315"><ele>421.0</ele><time>2026-04-25T08:18:22.094Z</time></trkpt><trkpt lat="41.8842216" lon="1.9308163"><ele>423.5</ele><time>2026-04-25T08:18:23.094Z</time></trkpt><trkpt lat="41.8840437" lon="1.9305749"><ele>426.0</ele><time>2026-04-25T08:18:24.094Z</time></trkpt><trkpt lat="41.8838199" lon="1.9303562"><ele>426.0</ele><time>2026-04-25T08:18:25.093Z</time></trkpt><trkpt lat="41.8835735" lon="1.9301406"><ele>426.0</ele><time>2026-04-25T08:18:26.094Z</time></trkpt><trkpt lat="41.8833506" lon="1.9299393"><ele>427.5</ele><time>2026-04-25T08:18:27.094Z</time></trkpt><trkpt lat="41.8831507" lon="1.9297395"><ele>429.0</ele><time>2026-04-25T08:18:28.094Z</time></trkpt><trkpt lat="41.8829844" lon="1.929512"><ele>431.5</ele><time>2026-04-25T08:18:29.094Z</time></trkpt><trkpt lat="41.8828222" lon="1.9292228"><ele>434.0</ele><time>2026-04-25T08:18:30.095Z</time></trkpt><trkpt lat="41.8826808" lon="1.9289056"><ele>431.0</ele><time>2026-04-25T08:18:31.093Z</time></trkpt><trkpt lat="41.8825533" lon="1.9286181"><ele>428.0</ele><time>2026-04-25T08:18:32.094Z</time></trkpt><trkpt lat="41.8823864" lon="1.9283499"><ele>428.0</ele><time>2026-04-25T08:18:33.095Z</time></trkpt><trkpt lat="41.8821736" lon="1.9280925"><ele>428.0</ele><time>2026-04-25T08:18:34.093Z</time></trkpt><trkpt lat="41.8819357" lon="1.9278332"><ele>428.5</ele><time>2026-04-25T08:18:35.093Z</time></trkpt><trkpt lat="41.881684" lon="1.9275605"><ele>429.0</ele><time>2026-04-25T08:18:36.093Z</time></trkpt><trkpt lat="41.8814259" lon="1.9272734"><ele>429.0</ele><time>2026-04-25T08:18:37.093Z</time></trkpt><trkpt lat="41.8811856" lon="1.9270108"><ele>429.0</ele><time>2026-04-25T08:18:38.093Z</time></trkpt><trkpt lat="41.8809644" lon="1.9267682"><ele>428.5</ele><time>2026-04-25T08:18:39.094Z</time></trkpt><trkpt lat="41.8807684" lon="1.9265524"><ele>428.0</ele><time>2026-04-25T08:18:40.094Z</time></trkpt><trkpt lat="41.8805828" lon="1.9263193"><ele>428.0</ele><time>2026-04-25T08:18:41.093Z</time></trkpt><trkpt lat="41.8804098" lon="1.9260262"><ele>428.0</ele><time>2026-04-25T08:18:42.095Z</time></trkpt><trkpt lat="41.8802445" lon="1.9256997"><ele>427.5</ele><time>2026-04-25T08:18:43.094Z</time></trkpt><trkpt lat="41.8800742" lon="1.9253619"><ele>427.0</ele><time>2026-04-25T08:18:44.094Z</time></trkpt><trkpt lat="41.8799233" lon="1.9250568"><ele>427.0</ele><time>2026-04-25T08:18:45.095Z</time></trkpt><trkpt lat="41.8797954" lon="1.9247582"><ele>427.0</ele><time>2026-04-25T08:18:46.094Z</time></trkpt><trkpt lat="41.879692" lon="1.9244421"><ele>427.5</ele><time>2026-04-25T08:18:47.095Z</time></trkpt><trkpt lat="41.8796058" lon="1.9240852"><ele>428.0</ele><time>2026-04-25T08:18:48.093Z</time></trkpt><trkpt lat="41.8795222" lon="1.9237041"><ele>427.0</ele><time>2026-04-25T08:18:49.093Z</time></trkpt><trkpt lat="41.8794294" lon="1.9233096"><ele>426.0</ele><time>2026-04-25T08:18:50.094Z</time></trkpt><trkpt lat="41.879348" lon="1.922944"><ele>426.0</ele><time>2026-04-25T08:18:51.094Z</time></trkpt><trkpt lat="41.8792722" lon="1.9225968"><ele>426.0</ele><time>2026-04-25T08:18:52.095Z</time></trkpt><trkpt lat="41.8792054" lon="1.9222743"><ele>422.66666666666663</ele><time>2026-04-25T08:18:53.094Z</time></trkpt><trkpt lat="41.8791338" lon="1.9219808"><ele>419.3333333333333</ele><time>2026-04-25T08:18:54.094Z</time></trkpt><trkpt lat="41.8790506" lon="1.9217191"><ele>416.0</ele><time>2026-04-25T08:18:55.095Z</time></trkpt><trkpt lat="41.8789458" lon="1.9214894"><ele>414.3333333333333</ele><time>2026-04-25T08:18:56.093Z</time></trkpt><trkpt lat="41.8788114" lon="1.9212942"><ele>412.66666666666663</ele><time>2026-04-25T08:18:57.095Z</time></trkpt><trkpt lat="41.87864" lon="1.9211459"><ele>411.0</ele><time>2026-04-25T08:18:58.093Z</time></trkpt><trkpt lat="41.8784173" lon="1.9210411"><ele>409.0</ele><time>2026-04-25T08:18:59.093Z</time></trkpt><trkpt lat="41.8781601" lon="1.9209431"><ele>407.0</ele><time>2026-04-25T08:19:00.093Z</time></trkpt><trkpt lat="41.8779001" lon="1.9208459"><ele>406.5</ele><time>2026-04-25T08:19:01.094Z</time></trkpt><trkpt lat="41.8776682" lon="1.9207587"><ele>406.0</ele><time>2026-04-25T08:19:02.095Z</time></trkpt><trkpt lat="41.8774458" lon="1.9206633"><ele>405.5</ele><time>2026-04-25T08:19:03.094Z</time></trkpt><trkpt lat="41.877217" lon="1.9205156"><ele>405.0</ele><time>2026-04-25T08:19:04.094Z</time></trkpt><trkpt lat="41.8769899" lon="1.9203267"><ele>405.5</ele><time>2026-04-25T08:19:05.095Z</time></trkpt><trkpt lat="41.8767573" lon="1.9201092"><ele>406.0</ele><time>2026-04-25T08:19:06.094Z</time></trkpt><trkpt lat="41.876527" lon="1.9198915"><ele>407.0</ele><time>2026-04-25T08:19:07.094Z</time></trkpt><trkpt lat="41.8763225" lon="1.9196962"><ele>408.0</ele><time>2026-04-25T08:19:08.093Z</time></trkpt><trkpt lat="41.8761317" lon="1.919515"><ele>408.0</ele><time>2026-04-25T08:19:09.094Z</time></trkpt><trkpt lat="41.8759633" lon="1.9193538"><ele>408.0</ele><time>2026-04-25T08:19:10.094Z</time></trkpt><trkpt lat="41.8758188" lon="1.9192257"><ele>408.0</ele><time>2026-04-25T08:19:11.094Z</time></trkpt><trkpt lat="41.875664" lon="1.9191531"><ele>408.33333333333337</ele><time>2026-04-25T08:19:12.094Z</time></trkpt><trkpt lat="41.8754811" lon="1.9191507"><ele>408.6666666666667</ele><time>2026-04-25T08:19:13.094Z</time></trkpt><trkpt lat="41.875291" lon="1.9192296"><ele>409.0</ele><time>2026-04-25T08:19:14.094Z</time></trkpt><trkpt lat="41.8750939" lon="1.9193583"><ele>409.6666666666667</ele><time>2026-04-25T08:19:15.094Z</time></trkpt><trkpt lat="41.874915" lon="1.9194542"><ele>410.33333333333337</ele><time>2026-04-25T08:19:16.094Z</time></trkpt><trkpt lat="41.8747458" lon="1.9194953"><ele>411.0</ele><time>2026-04-25T08:19:17.094Z</time></trkpt><trkpt lat="41.8745725" lon="1.9194672"><ele>411.0</ele><time>2026-04-25T08:19:18.093Z</time></trkpt><trkpt lat="41.8743749" lon="1.9193674"><ele>411.0</ele><time>2026-04-25T08:19:19.094Z</time></trkpt><trkpt lat="41.8741588" lon="1.9192143"><ele>412.5</ele><time>2026-04-25T08:19:20.095Z</time></trkpt><trkpt lat="41.8739199" lon="1.9190385"><ele>414.0</ele><time>2026-04-25T08:19:21.094Z</time></trkpt><trkpt lat="41.873656" lon="1.9188535"><ele>413.5</ele><time>2026-04-25T08:19:22.094Z</time></trkpt><trkpt lat="41.8733772" lon="1.9186604"><ele>413.0</ele><time>2026-04-25T08:19:23.094Z</time></trkpt><trkpt lat="41.873132" lon="1.9184879"><ele>413.5</ele><time>2026-04-25T08:19:24.093Z</time></trkpt><trkpt lat="41.8728988" lon="1.9183258"><ele>414.0</ele><time>2026-04-25T08:19:25.094Z</time></trkpt><trkpt lat="41.872672" lon="1.9181677"><ele>413.5</ele><time>2026-04-25T08:19:26.093Z</time></trkpt><trkpt lat="41.8724653" lon="1.9179955"><ele>413.0</ele><time>2026-04-25T08:19:27.094Z</time></trkpt><trkpt lat="41.8722831" lon="1.9177799"><ele>414.66666666666663</ele><time>2026-04-25T08:19:28.094Z</time></trkpt><trkpt lat="41.8721325" lon="1.9175594"><ele>416.33333333333337</ele><time>2026-04-25T08:19:29.094Z</time></trkpt><trkpt lat="41.8720108" lon="1.917338"><ele>418.0</ele><time>2026-04-25T08:19:30.093Z</time></trkpt><trkpt lat="41.8719279" lon="1.9171076"><ele>418.0</ele><time>2026-04-25T08:19:31.094Z</time></trkpt><trkpt lat="41.8718822" lon="1.9168311"><ele>418.0</ele><time>2026-04-25T08:19:32.094Z</time></trkpt><trkpt lat="41.8718682" lon="1.9165051"><ele>417.5</ele><time>2026-04-25T08:19:33.093Z</time></trkpt><trkpt lat="41.8718638" lon="1.916139"><ele>417.0</ele><time>2026-04-25T08:19:34.093Z</time></trkpt><trkpt lat="41.8718593" lon="1.9157346"><ele>417.0</ele><time>2026-04-25T08:19:35.094Z</time></trkpt><trkpt lat="41.8718549" lon="1.9152987"><ele>417.0</ele><time>2026-04-25T08:19:36.094Z</time></trkpt><trkpt lat="41.8718526" lon="1.9148484"><ele>413.0</ele><time>2026-04-25T08:19:37.094Z</time></trkpt><trkpt lat="41.8718414" lon="1.9143878"><ele>409.0</ele><time>2026-04-25T08:19:38.094Z</time></trkpt><trkpt lat="41.8718054" lon="1.9139176"><ele>406.0</ele><time>2026-04-25T08:19:39.093Z</time></trkpt><trkpt lat="41.8717512" lon="1.913444"><ele>403.0</ele><time>2026-04-25T08:19:40.093Z</time></trkpt><trkpt lat="41.871695" lon="1.9130082"><ele>402.5</ele><time>2026-04-25T08:19:41.095Z</time></trkpt><trkpt lat="41.8716467" lon="1.9126034"><ele>402.0</ele><time>2026-04-25T08:19:42.093Z</time></trkpt><trkpt lat="41.871602" lon="1.9122241"><ele>403.0</ele><time>2026-04-25T08:19:43.094Z</time></trkpt><trkpt lat="41.8715597" lon="1.9118761"><ele>404.0</ele><time>2026-04-25T08:19:44.093Z</time></trkpt><trkpt lat="41.8715324" lon="1.9115545"><ele>406.3333333333333</ele><time>2026-04-25T08:19:45.093Z</time></trkpt><trkpt lat="41.8715406" lon="1.9112568"><ele>408.66666666666663</ele><time>2026-04-25T08:19:46.094Z</time></trkpt><trkpt lat="41.8715899" lon="1.9109642"><ele>411.0</ele><time>2026-04-25T08:19:47.094Z</time></trkpt><trkpt lat="41.8716875" lon="1.9106751"><ele>416.5</ele><time>2026-04-25T08:19:48.094Z</time></trkpt><trkpt lat="41.8718266" lon="1.910413"><ele>422.0</ele><time>2026-04-25T08:19:49.093Z</time></trkpt><trkpt lat="41.8719991" lon="1.9101931"><ele>417.5</ele><time>2026-04-25T08:19:50.094Z</time></trkpt><trkpt lat="41.8722102" lon="1.9100245"><ele>413.0</ele><time>2026-04-25T08:19:51.094Z</time></trkpt><trkpt lat="41.8724544" lon="1.909881"><ele>416.5</ele><time>2026-04-25T08:19:52.094Z</time></trkpt><trkpt lat="41.8727165" lon="1.909735"><ele>420.0</ele><time>2026-04-25T08:19:53.094Z</time></trkpt><trkpt lat="41.8729923" lon="1.9095823"><ele>420.0</ele><time>2026-04-25T08:19:54.093Z</time></trkpt><trkpt lat="41.8732818" lon="1.9094175"><ele>420.0</ele><time>2026-04-25T08:19:55.094Z</time></trkpt><trkpt lat="41.8735793" lon="1.9092507"><ele>417.0</ele><time>2026-04-25T08:19:56.094Z</time></trkpt><trkpt lat="41.8738843" lon="1.9090823"><ele>414.0</ele><time>2026-04-25T08:19:57.095Z</time></trkpt><trkpt lat="41.8741837" lon="1.9089155"><ele>414.5</ele><time>2026-04-25T08:19:58.093Z</time></trkpt><trkpt lat="41.8744662" lon="1.9087628"><ele>415.0</ele><time>2026-04-25T08:19:59.094Z</time></trkpt><trkpt lat="41.8747329" lon="1.908622"><ele>415.0</ele><time>2026-04-25T08:20:00.094Z</time></trkpt><trkpt lat="41.8749787" lon="1.90849"><ele>415.0</ele><time>2026-04-25T08:20:01.094Z</time></trkpt><trkpt lat="41.8752034" lon="1.9083557"><ele>413.0</ele><time>2026-04-25T08:20:02.094Z</time></trkpt><trkpt lat="41.8754125" lon="1.9081877"><ele>411.0</ele><time>2026-04-25T08:20:03.095Z</time></trkpt><trkpt lat="41.8755906" lon="1.907952"><ele>411.0</ele><time>2026-04-25T08:20:04.094Z</time></trkpt><trkpt lat="41.8757551" lon="1.9076606"><ele>411.0</ele><time>2026-04-25T08:20:05.095Z</time></trkpt><trkpt lat="41.875912" lon="1.9073128"><ele>412.0</ele><time>2026-04-25T08:20:06.093Z</time></trkpt><trkpt lat="41.8760705" lon="1.9069385"><ele>413.0</ele><time>2026-04-25T08:20:07.095Z</time></trkpt><trkpt lat="41.8762354" lon="1.9065401"><ele>413.0</ele><time>2026-04-25T08:20:08.093Z</time></trkpt><trkpt lat="41.8764053" lon="1.9061314"><ele>413.0</ele><time>2026-04-25T08:20:09.095Z</time></trkpt><trkpt lat="41.8765586" lon="1.9057646"><ele>413.0</ele><time>2026-04-25T08:20:10.093Z</time></trkpt><trkpt lat="41.8767019" lon="1.9054304"><ele>413.0</ele><time>2026-04-25T08:20:11.095Z</time></trkpt><trkpt lat="41.8768303" lon="1.9051389"><ele>413.3333333333333</ele><time>2026-04-25T08:20:12.094Z</time></trkpt><trkpt lat="41.8769385" lon="1.9048882"><ele>413.66666666666663</ele><time>2026-04-25T08:20:13.093Z</time></trkpt><trkpt lat="41.8770255" lon="1.9046631"><ele>414.0</ele><time>2026-04-25T08:20:14.095Z</time></trkpt><trkpt lat="41.8770869" lon="1.9044328"><ele>414.33333333333337</ele><time>2026-04-25T08:20:15.094Z</time></trkpt><trkpt lat="41.8771036" lon="1.9041859"><ele>414.6666666666667</ele><time>2026-04-25T08:20:16.094Z</time></trkpt><trkpt lat="41.8770855" lon="1.9039269"><ele>415.0</ele><time>2026-04-25T08:20:17.094Z</time></trkpt><trkpt lat="41.8770094" lon="1.9036704"><ele>415.0</ele><time>2026-04-25T08:20:18.094Z</time></trkpt><trkpt lat="41.8768901" lon="1.9033886"><ele>415.0</ele><time>2026-04-25T08:20:19.093Z</time></trkpt><trkpt lat="41.8767247" lon="1.9030946"><ele>415.0</ele><time>2026-04-25T08:20:20.093Z</time></trkpt><trkpt lat="41.8765817" lon="1.9027965"><ele>415.0</ele><time>2026-04-25T08:20:21.094Z</time></trkpt><trkpt lat="41.8764472" lon="1.9025312"><ele>412.5</ele><time>2026-04-25T08:20:22.094Z</time></trkpt><trkpt lat="41.8762972" lon="1.9022864"><ele>410.0</ele><time>2026-04-25T08:20:23.093Z</time></trkpt><trkpt lat="41.8761203" lon="1.9020592"><ele>409.5</ele><time>2026-04-25T08:20:24.093Z</time></trkpt><trkpt lat="41.8759163" lon="1.9018523"><ele>409.0</ele><time>2026-04-25T08:20:25.093Z</time></trkpt><trkpt lat="41.8756729" lon="1.9016679"><ele>409.0</ele><time>2026-04-25T08:20:26.095Z</time></trkpt><trkpt lat="41.8753937" lon="1.9014957"><ele>409.0</ele><time>2026-04-25T08:20:27.094Z</time></trkpt><trkpt lat="41.8751163" lon="1.9013353"><ele>411.5</ele><time>2026-04-25T08:20:28.093Z</time></trkpt><trkpt lat="41.8748679" lon="1.9011858"><ele>414.0</ele><time>2026-04-25T08:20:29.093Z</time></trkpt><trkpt lat="41.8746286" lon="1.901071"><ele>414.0</ele><time>2026-04-25T08:20:30.094Z</time></trkpt><trkpt lat="41.8743937" lon="1.9010035"><ele>414.0</ele><time>2026-04-25T08:20:31.094Z</time></trkpt><trkpt lat="41.8741447" lon="1.9009932"><ele>418.5</ele><time>2026-04-25T08:20:32.093Z</time></trkpt><trkpt lat="41.8738856" lon="1.9010041"><ele>423.0</ele><time>2026-04-25T08:20:33.094Z</time></trkpt><trkpt lat="41.8736416" lon="1.9009772"><ele>415.5</ele><time>2026-04-25T08:20:34.094Z</time></trkpt><trkpt lat="41.8733952" lon="1.9008951"><ele>408.0</ele><time>2026-04-25T08:20:35.093Z</time></trkpt><trkpt lat="41.8731671" lon="1.9007484"><ele>408.0</ele><time>2026-04-25T08:20:36.094Z</time></trkpt><trkpt lat="41.8729548" lon="1.9005629"><ele>408.0</ele><time>2026-04-25T08:20:37.094Z</time></trkpt><trkpt lat="41.8727349" lon="1.9003779"><ele>415.5</ele><time>2026-04-25T08:20:38.094Z</time></trkpt><trkpt lat="41.8724786" lon="1.900229"><ele>423.0</ele><time>2026-04-25T08:20:39.093Z</time></trkpt><trkpt lat="41.8721915" lon="1.9000904"><ele>414.5</ele><time>2026-04-25T08:20:40.094Z</time></trkpt><trkpt lat="41.8718861" lon="1.8999462"><ele>406.0</ele><time>2026-04-25T08:20:41.093Z</time></trkpt><trkpt lat="41.871609" lon="1.8998115"><ele>406.0</ele><time>2026-04-25T08:20:42.094Z</time></trkpt><trkpt lat="41.8713456" lon="1.8997011"><ele>406.0</ele><time>2026-04-25T08:20:43.093Z</time></trkpt><trkpt lat="41.871073" lon="1.8996353"><ele>407.0</ele><time>2026-04-25T08:20:44.094Z</time></trkpt><trkpt lat="41.8707784" lon="1.8996204"><ele>408.0</ele><time>2026-04-25T08:20:45.094Z</time></trkpt><trkpt lat="41.8704529" lon="1.8996358"><ele>408.0</ele><time>2026-04-25T08:20:46.093Z</time></trkpt><trkpt lat="41.8701146" lon="1.8996644"><ele>408.0</ele><time>2026-04-25T08:20:47.094Z</time></trkpt><trkpt lat="41.8698136" lon="1.899686"><ele>405.0</ele><time>2026-04-25T08:20:48.094Z</time></trkpt><trkpt lat="41.8695414" lon="1.8997042"><ele>402.0</ele><time>2026-04-25T08:20:49.094Z</time></trkpt><trkpt lat="41.8693072" lon="1.8997216"><ele>401.33333333333337</ele><time>2026-04-25T08:20:50.093Z</time></trkpt><trkpt lat="41.8691022" lon="1.8997203"><ele>400.6666666666667</ele><time>2026-04-25T08:20:51.094Z</time></trkpt><trkpt lat="41.8689341" lon="1.8996608"><ele>400.0</ele><time>2026-04-25T08:20:52.094Z</time></trkpt><trkpt lat="41.8687808" lon="1.8995328"><ele>400.0</ele><time>2026-04-25T08:20:53.094Z</time></trkpt><trkpt lat="41.8686696" lon="1.8993465"><ele>400.0</ele><time>2026-04-25T08:20:54.093Z</time></trkpt><trkpt lat="41.8685904" lon="1.8990986"><ele>400.0</ele><time>2026-04-25T08:20:55.093Z</time></trkpt><trkpt lat="41.868521" lon="1.8987793"><ele>400.0</ele><time>2026-04-25T08:20:56.094Z</time></trkpt><trkpt lat="41.8684422" lon="1.898416"><ele>400.0</ele><time>2026-04-25T08:20:57.093Z</time></trkpt><trkpt lat="41.8683643" lon="1.8980442"><ele>400.0</ele><time>2026-04-25T08:20:58.093Z</time></trkpt><trkpt lat="41.868303" lon="1.8977308"><ele>400.0</ele><time>2026-04-25T08:20:59.094Z</time></trkpt><trkpt lat="41.8682536" lon="1.8974502"><ele>399.0</ele><time>2026-04-25T08:21:00.094Z</time></trkpt><trkpt lat="41.8681856" lon="1.8972026"><ele>398.0</ele><time>2026-04-25T08:21:01.093Z</time></trkpt><trkpt lat="41.8680816" lon="1.8969947"><ele>397.0</ele><time>2026-04-25T08:21:02.095Z</time></trkpt><trkpt lat="41.8679413" lon="1.8968227"><ele>398.0</ele><time>2026-04-25T08:21:03.093Z</time></trkpt><trkpt lat="41.867757" lon="1.8966588"><ele>399.0</ele><time>2026-04-25T08:21:04.095Z</time></trkpt><trkpt lat="41.8675252" lon="1.8965174"><ele>399.0</ele><time>2026-04-25T08:21:05.094Z</time></trkpt><trkpt lat="41.8672925" lon="1.8963248"><ele>399.0</ele><time>2026-04-25T08:21:06.094Z</time></trkpt><trkpt lat="41.8670477" lon="1.8961145"><ele>396.5</ele><time>2026-04-25T08:21:07.094Z</time></trkpt><trkpt lat="41.8667715" lon="1.8959211"><ele>394.0</ele><time>2026-04-25T08:21:08.094Z</time></trkpt><trkpt lat="41.8664756" lon="1.8957503"><ele>394.0</ele><time>2026-04-25T08:21:09.094Z</time></trkpt><trkpt lat="41.8662098" lon="1.8956158"><ele>394.0</ele><time>2026-04-25T08:21:10.095Z</time></trkpt><trkpt lat="41.8659713" lon="1.8955001"><ele>396.0</ele><time>2026-04-25T08:21:11.093Z</time></trkpt><trkpt lat="41.8657706" lon="1.8953981"><ele>398.0</ele><time>2026-04-25T08:21:12.093Z</time></trkpt><trkpt lat="41.8656215" lon="1.8952926"><ele>400.0</ele><time>2026-04-25T08:21:13.094Z</time></trkpt><trkpt lat="41.8655179" lon="1.8951535"><ele>396.0</ele><time>2026-04-25T08:21:14.093Z</time></trkpt><trkpt lat="41.8654662" lon="1.8949552"><ele>392.0</ele><time>2026-04-25T08:21:15.093Z</time></trkpt><trkpt lat="41.865469" lon="1.8947256"><ele>388.0</ele><time>2026-04-25T08:21:16.094Z</time></trkpt><trkpt lat="41.8654921" lon="1.8945066"><ele>388.0</ele><time>2026-04-25T08:21:17.094Z</time></trkpt><trkpt lat="41.8654792" lon="1.8943067"><ele>388.0</ele><time>2026-04-25T08:21:18.094Z</time></trkpt><trkpt lat="41.8654109" lon="1.8941147"><ele>388.0</ele><time>2026-04-25T08:21:19.093Z</time></trkpt><trkpt lat="41.8652771" lon="1.8939273"><ele>385.0</ele><time>2026-04-25T08:21:20.094Z</time></trkpt><trkpt lat="41.8650983" lon="1.8937282"><ele>382.0</ele><time>2026-04-25T08:21:21.094Z</time></trkpt><trkpt lat="41.8649141" lon="1.8935297"><ele>379.0</ele><time>2026-04-25T08:21:22.094Z</time></trkpt><trkpt lat="41.864756" lon="1.8933439"><ele>376.0</ele><time>2026-04-25T08:21:23.094Z</time></trkpt><trkpt lat="41.864626" lon="1.8931426"><ele>373.0</ele><time>2026-04-25T08:21:24.094Z</time></trkpt><trkpt lat="41.864519" lon="1.8929204"><ele>373.0</ele><time>2026-04-25T08:21:25.096Z</time></trkpt><trkpt lat="41.8643689" lon="1.8927055"><ele>373.0</ele><time>2026-04-25T08:21:26.095Z</time></trkpt><trkpt lat="41.8641967" lon="1.8924834"><ele>372.3333333333333</ele><time>2026-04-25T08:21:27.095Z</time></trkpt><trkpt lat="41.8640724" lon="1.8922838"><ele>371.6666666666667</ele><time>2026-04-25T08:21:28.095Z</time></trkpt><trkpt lat="41.8639522" lon="1.8921039"><ele>371.0</ele><time>2026-04-25T08:21:29.095Z</time></trkpt><trkpt lat="41.8638058" lon="1.8919767"><ele>371.0</ele><time>2026-04-25T08:21:30.096Z</time></trkpt><trkpt lat="41.863638" lon="1.8919081"><ele>371.0</ele><time>2026-04-25T08:21:31.095Z</time></trkpt><trkpt lat="41.8634633" lon="1.8918275"><ele>371.0</ele><time>2026-04-25T08:21:32.095Z</time></trkpt><trkpt lat="41.863325" lon="1.8916971"><ele>369.33333333333337</ele><time>2026-04-25T08:21:33.094Z</time></trkpt><trkpt lat="41.8632286" lon="1.8914921"><ele>367.6666666666667</ele><time>2026-04-25T08:21:34.095Z</time></trkpt><trkpt lat="41.8631408" lon="1.8912287"><ele>366.0</ele><time>2026-04-25T08:21:35.095Z</time></trkpt><trkpt lat="41.8630567" lon="1.8909221"><ele>360.0</ele><time>2026-04-25T08:21:36.095Z</time></trkpt><trkpt lat="41.8629932" lon="1.8905761"><ele>354.0</ele><time>2026-04-25T08:21:37.096Z</time></trkpt><trkpt lat="41.8629044" lon="1.8902186"><ele>347.5</ele><time>2026-04-25T08:21:38.094Z</time></trkpt><trkpt lat="41.8627824" lon="1.8898562"><ele>341.0</ele><time>2026-04-25T08:21:39.094Z</time></trkpt><trkpt lat="41.8626449" lon="1.8894792"><ele>346.0</ele><time>2026-04-25T08:21:40.095Z</time></trkpt><trkpt lat="41.8624943" lon="1.8890882"><ele>351.0</ele><time>2026-04-25T08:21:41.095Z</time></trkpt><trkpt lat="41.8623213" lon="1.8886846"><ele>344.0</ele><time>2026-04-25T08:21:42.095Z</time></trkpt><trkpt lat="41.8621346" lon="1.8882841"><ele>337.0</ele><time>2026-04-25T08:21:43.095Z</time></trkpt><trkpt lat="41.8619428" lon="1.8878919"><ele>341.5</ele><time>2026-04-25T08:21:44.095Z</time></trkpt><trkpt lat="41.8617716" lon="1.8875406"><ele>346.0</ele><time>2026-04-25T08:21:45.095Z</time></trkpt><trkpt lat="41.8616237" lon="1.8872253"><ele>346.0</ele><time>2026-04-25T08:21:46.095Z</time></trkpt><trkpt lat="41.8614915" lon="1.8869362"><ele>346.0</ele><time>2026-04-25T08:21:47.094Z</time></trkpt><trkpt lat="41.8613672" lon="1.8866138"><ele>337.0</ele><time>2026-04-25T08:21:48.095Z</time></trkpt><trkpt lat="41.8612526" lon="1.8862414"><ele>328.0</ele><time>2026-04-25T08:21:49.095Z</time></trkpt><trkpt lat="41.8611409" lon="1.8858394"><ele>328.0</ele><time>2026-04-25T08:21:50.094Z</time></trkpt><trkpt lat="41.8610232" lon="1.8854024"><ele>328.0</ele><time>2026-04-25T08:21:51.094Z</time></trkpt><trkpt lat="41.8609012" lon="1.8849516"><ele>328.0</ele><time>2026-04-25T08:21:52.095Z</time></trkpt><trkpt lat="41.8607812" lon="1.8844959"><ele>328.0</ele><time>2026-04-25T08:21:53.094Z</time></trkpt><trkpt lat="41.8606695" lon="1.8840769"><ele>324.5</ele><time>2026-04-25T08:21:54.095Z</time></trkpt><trkpt lat="41.8605669" lon="1.8836763"><ele>321.0</ele><time>2026-04-25T08:21:55.095Z</time></trkpt><trkpt lat="41.8604794" lon="1.8833032"><ele>317.0</ele><time>2026-04-25T08:21:56.095Z</time></trkpt><trkpt lat="41.8604114" lon="1.8829595"><ele>313.0</ele><time>2026-04-25T08:21:57.094Z</time></trkpt><trkpt lat="41.8603514" lon="1.8826507"><ele>310.0</ele><time>2026-04-25T08:21:58.095Z</time></trkpt><trkpt lat="41.8602817" lon="1.8823673"><ele>307.0</ele><time>2026-04-25T08:21:59.094Z</time></trkpt><trkpt lat="41.8601801" lon="1.8821154"><ele>304.0</ele><time>2026-04-25T08:22:00.095Z</time></trkpt><trkpt lat="41.8600331" lon="1.8818507"><ele>306.5</ele><time>2026-04-25T08:22:01.096Z</time></trkpt><trkpt lat="41.8598519" lon="1.8815817"><ele>309.0</ele><time>2026-04-25T08:22:02.095Z</time></trkpt><trkpt lat="41.8597047" lon="1.8813584"><ele>309.0</ele><time>2026-04-25T08:22:03.095Z</time></trkpt><trkpt lat="41.8595801" lon="1.8811586"><ele>309.0</ele><time>2026-04-25T08:22:04.094Z</time></trkpt><trkpt lat="41.8594762" lon="1.8809866"><ele>309.0</ele><time>2026-04-25T08:22:05.094Z</time></trkpt><trkpt lat="41.8594076" lon="1.8808235"><ele>306.5</ele><time>2026-04-25T08:22:06.094Z</time></trkpt><trkpt lat="41.8593792" lon="1.8806614"><ele>304.0</ele><time>2026-04-25T08:22:07.095Z</time></trkpt><trkpt lat="41.859385" lon="1.8805151"><ele>301.5</ele><time>2026-04-25T08:22:08.095Z</time></trkpt><trkpt lat="41.8594237" lon="1.8803687"><ele>299.0</ele><time>2026-04-25T08:22:09.094Z</time></trkpt><trkpt lat="41.8594988" lon="1.8802203"><ele>298.6666666666667</ele><time>2026-04-25T08:22:10.094Z</time></trkpt><trkpt lat="41.859591" lon="1.8800703"><ele>298.3333333333333</ele><time>2026-04-25T08:22:11.096Z</time></trkpt><trkpt lat="41.8596932" lon="1.8799001"><ele>298.0</ele><time>2026-04-25T08:22:12.094Z</time></trkpt><trkpt lat="41.8597997" lon="1.8797242"><ele>298.0</ele><time>2026-04-25T08:22:13.095Z</time></trkpt><trkpt lat="41.8598992" lon="1.8795699"><ele>298.0</ele><time>2026-04-25T08:22:14.095Z</time></trkpt><trkpt lat="41.859984" lon="1.8794242"><ele>298.0</ele><time>2026-04-25T08:22:15.095Z</time></trkpt><trkpt lat="41.8600486" lon="1.8792366"><ele>298.0</ele><time>2026-04-25T08:22:16.094Z</time></trkpt><trkpt lat="41.8600886" lon="1.879026"><ele>299.66666666666663</ele><time>2026-04-25T08:22:17.095Z</time></trkpt><trkpt lat="41.8601068" lon="1.8787987"><ele>301.3333333333333</ele><time>2026-04-25T08:22:18.095Z</time></trkpt><trkpt lat="41.8601256" lon="1.8785592"><ele>303.0</ele><time>2026-04-25T08:22:19.095Z</time></trkpt><trkpt lat="41.8601442" lon="1.8783167"><ele>305.6666666666667</ele><time>2026-04-25T08:22:20.096Z</time></trkpt><trkpt lat="41.8601629" lon="1.8780923"><ele>308.33333333333337</ele><time>2026-04-25T08:22:21.095Z</time></trkpt><trkpt lat="41.8601796" lon="1.87789"><ele>311.0</ele><time>2026-04-25T08:22:22.095Z</time></trkpt><trkpt lat="41.8601937" lon="1.877702"><ele>312.0</ele><time>2026-04-25T08:22:23.095Z</time></trkpt><trkpt lat="41.8602087" lon="1.8775283"><ele>313.0</ele><time>2026-04-25T08:22:24.094Z</time></trkpt><trkpt lat="41.8602238" lon="1.8773646"><ele>314.0</ele><time>2026-04-25T08:22:25.095Z</time></trkpt><trkpt lat="41.8602417" lon="1.8772068"><ele>315.0</ele><time>2026-04-25T08:22:26.096Z</time></trkpt><trkpt lat="41.8602583" lon="1.8770655"><ele>315.0</ele><time>2026-04-25T08:22:27.095Z</time></trkpt><trkpt lat="41.8602712" lon="1.8769389"><ele>315.0</ele><time>2026-04-25T08:22:28.095Z</time></trkpt><trkpt lat="41.8602783" lon="1.8768306"><ele>315.0</ele><time>2026-04-25T08:22:29.095Z</time></trkpt><trkpt lat="41.8602807" lon="1.8767436"><ele>315.0</ele><time>2026-04-25T08:22:30.096Z</time></trkpt><trkpt lat="41.8602837" lon="1.8766577"><ele>315.0</ele><time>2026-04-25T08:22:31.095Z</time></trkpt><trkpt lat="41.8602889" lon="1.8765653"><ele>315.0</ele><time>2026-04-25T08:22:32.095Z</time></trkpt><trkpt lat="41.8602964" lon="1.8764659"><ele>315.0</ele><time>2026-04-25T08:22:33.095Z</time></trkpt><trkpt lat="41.8603034" lon="1.8763582"><ele>315.4</ele><time>2026-04-25T08:22:34.095Z</time></trkpt><trkpt lat="41.8603087" lon="1.8762424"><ele>315.8</ele><time>2026-04-25T08:22:35.094Z</time></trkpt><trkpt lat="41.860314" lon="1.8761223"><ele>316.2</ele><time>2026-04-25T08:22:36.095Z</time></trkpt><trkpt lat="41.8603221" lon="1.875994"><ele>316.6</ele><time>2026-04-25T08:22:37.095Z</time></trkpt><trkpt lat="41.8603316" lon="1.8758665"><ele>317.0</ele><time>2026-04-25T08:22:38.094Z</time></trkpt><trkpt lat="41.860335" lon="1.8757362"><ele>317.0</ele><time>2026-04-25T08:22:39.095Z</time></trkpt><trkpt lat="41.8603387" lon="1.8756156"><ele>317.0</ele><time>2026-04-25T08:22:40.095Z</time></trkpt><trkpt lat="41.8603458" lon="1.8755067"><ele>317.0</ele><time>2026-04-25T08:22:41.095Z</time></trkpt><trkpt lat="41.8603532" lon="1.8754017"><ele>317.0</ele><time>2026-04-25T08:22:42.095Z</time></trkpt><trkpt lat="41.8603615" lon="1.8752968"><ele>317.0</ele><time>2026-04-25T08:22:43.095Z</time></trkpt><trkpt lat="41.8603771" lon="1.8751974"><ele>317.0</ele><time>2026-04-25T08:22:44.094Z</time></trkpt><trkpt lat="41.8604044" lon="1.8751115"><ele>317.4</ele><time>2026-04-25T08:22:45.095Z</time></trkpt><trkpt lat="41.8604433" lon="1.8750417"><ele>317.79999999999995</ele><time>2026-04-25T08:22:46.095Z</time></trkpt><trkpt lat="41.8605333" lon="1.8749519"><ele>318.2</ele><time>2026-04-25T08:22:48.095Z</time></trkpt><trkpt lat="41.8606304" lon="1.8749158"><ele>318.59999999999997</ele><time>2026-04-25T08:22:50.096Z</time></trkpt><trkpt lat="41.8607113" lon="1.8748641"><ele>319.0</ele><time>2026-04-25T08:22:52.095Z</time></trkpt><trkpt lat="41.8607874" lon="1.8747804"><ele>319.0</ele><time>2026-04-25T08:22:54.095Z</time></trkpt><trkpt lat="41.8608645" lon="1.8747082"><ele>319.0</ele><time>2026-04-25T08:22:56.095Z</time></trkpt><trkpt lat="41.860937" lon="1.874642"><ele>319.0</ele><time>2026-04-25T08:23:28.096Z</time></trkpt><trkpt lat="41.8610117" lon="1.8745729"><ele>319.0</ele><time>2026-04-25T08:23:30.094Z</time></trkpt><trkpt lat="41.861097" lon="1.8744948"><ele>319.0</ele><time>2026-04-25T08:23:32.095Z</time></trkpt><trkpt lat="41.861191" lon="1.8744282"><ele>319.8333333333333</ele><time>2026-04-25T08:23:34.095Z</time></trkpt><trkpt lat="41.8612834" lon="1.8743616"><ele>320.66666666666663</ele><time>2026-04-25T08:23:36.095Z</time></trkpt><trkpt lat="41.8613926" lon="1.8742851"><ele>321.5</ele><time>2026-04-25T08:23:38.096Z</time></trkpt><trkpt lat="41.8614545" lon="1.8742402"><ele>322.3333333333333</ele><time>2026-04-25T08:23:39.095Z</time></trkpt><trkpt lat="41.8615183" lon="1.8741917"><ele>323.1666666666667</ele><time>2026-04-25T08:23:40.095Z</time></trkpt><trkpt lat="41.861584" lon="1.874144"><ele>324.0</ele><time>2026-04-25T08:23:41.096Z</time></trkpt><trkpt lat="41.8616519" lon="1.8740948"><ele>324.1666666666667</ele><time>2026-04-25T08:23:42.095Z</time></trkpt><trkpt lat="41.8617202" lon="1.8740485"><ele>324.3333333333333</ele><time>2026-04-25T08:23:43.095Z</time></trkpt><trkpt lat="41.8617825" lon="1.8740035"><ele>324.5</ele><time>2026-04-25T08:23:44.094Z</time></trkpt><trkpt lat="41.8618379" lon="1.8739627"><ele>324.66666666666663</ele><time>2026-04-25T08:23:45.095Z</time></trkpt><trkpt lat="41.8619304" lon="1.8738982"><ele>324.8333333333333</ele><time>2026-04-25T08:23:47.095Z</time></trkpt><trkpt lat="41.8619921" lon="1.8738568"><ele>325.0</ele><time>2026-04-25T08:25:06.095Z</time></trkpt><trkpt lat="41.8620422" lon="1.873795"><ele>326.0</ele><time>2026-04-25T08:25:08.094Z</time></trkpt><trkpt lat="41.8621337" lon="1.8737263"><ele>327.0</ele><time>2026-04-25T08:25:10.094Z</time></trkpt><trkpt lat="41.8622365" lon="1.8736586"><ele>328.0</ele><time>2026-04-25T08:25:12.095Z</time></trkpt><trkpt lat="41.8623196" lon="1.8735966"><ele>329.0</ele><time>2026-04-25T08:25:14.094Z</time></trkpt><trkpt lat="41.8624085" lon="1.8735232"><ele>330.0</ele><time>2026-04-25T08:25:16.077Z</time></trkpt><trkpt lat="41.8625062" lon="1.8734573"><ele>330.8333333333333</ele><time>2026-04-25T08:25:18.078Z</time></trkpt><trkpt lat="41.8626167" lon="1.873425"><ele>331.6666666666667</ele><time>2026-04-25T08:25:20.083Z</time></trkpt><trkpt lat="41.8627349" lon="1.8734497"><ele>332.5</ele><time>2026-04-25T08:25:22.079Z</time></trkpt><trkpt lat="41.8628011" lon="1.8734796"><ele>333.33333333333337</ele><time>2026-04-25T08:25:23.079Z</time></trkpt><trkpt lat="41.8628656" lon="1.8735117"><ele>334.1666666666667</ele><time>2026-04-25T08:25:24.079Z</time></trkpt><trkpt lat="41.8629317" lon="1.8735445"><ele>335.0</ele><time>2026-04-25T08:25:25.078Z</time></trkpt><trkpt lat="41.863" lon="1.8735831"><ele>335.0</ele><time>2026-04-25T08:25:26.079Z</time></trkpt><trkpt lat="41.8630628" lon="1.8736206"><ele>335.0</ele><time>2026-04-25T08:25:27.078Z</time></trkpt><trkpt lat="41.8631289" lon="1.8736583"><ele>335.0</ele><time>2026-04-25T08:25:28.079Z</time></trkpt><trkpt lat="41.8631929" lon="1.8736864"><ele>335.0</ele><time>2026-04-25T08:25:29.078Z</time></trkpt><trkpt lat="41.8632862" lon="1.8737427"><ele>335.0</ele><time>2026-04-25T08:25:31.079Z</time></trkpt><trkpt lat="41.8633895" lon="1.8738323"><ele>335.0</ele><time>2026-04-25T08:25:33.078Z</time></trkpt><trkpt lat="41.8634433" lon="1.8738853"><ele>335.33333333333337</ele><time>2026-04-25T08:25:34.078Z</time></trkpt><trkpt lat="41.8635343" lon="1.8738881"><ele>335.6666666666667</ele><time>2026-04-25T08:25:35.079Z</time></trkpt><trkpt lat="41.8636039" lon="1.873927"><ele>336.0</ele><time>2026-04-25T08:25:36.079Z</time></trkpt><trkpt lat="41.8636762" lon="1.8739658"><ele>336.3333333333333</ele><time>2026-04-25T08:25:37.079Z</time></trkpt><trkpt lat="41.8637446" lon="1.874004"><ele>336.66666666666663</ele><time>2026-04-25T08:25:38.079Z</time></trkpt><trkpt lat="41.8638247" lon="1.8740474"><ele>337.0</ele><time>2026-04-25T08:25:39.078Z</time></trkpt><trkpt lat="41.8639004" lon="1.8740888"><ele>337.0</ele><time>2026-04-25T08:25:40.079Z</time></trkpt><trkpt lat="41.8639776" lon="1.8741294"><ele>337.0</ele><time>2026-04-25T08:25:41.079Z</time></trkpt><trkpt lat="41.8640512" lon="1.8741692"><ele>337.0</ele><time>2026-04-25T08:25:42.079Z</time></trkpt><trkpt lat="41.8641214" lon="1.8741993"><ele>337.0</ele><time>2026-04-25T08:25:43.079Z</time></trkpt><trkpt lat="41.8641835" lon="1.8742245"><ele>337.0</ele><time>2026-04-25T08:25:44.078Z</time></trkpt><trkpt lat="41.864301" lon="1.8742923"><ele>337.0</ele><time>2026-04-25T08:25:46.079Z</time></trkpt><trkpt lat="41.8643643" lon="1.8743337"><ele>336.66666666666663</ele><time>2026-04-25T08:25:47.078Z</time></trkpt><trkpt lat="41.8644377" lon="1.8743673"><ele>336.3333333333333</ele><time>2026-04-25T08:25:48.079Z</time></trkpt><trkpt lat="41.8645033" lon="1.8744025"><ele>336.0</ele><time>2026-04-25T08:25:49.079Z</time></trkpt><trkpt lat="41.8645759" lon="1.8744468"><ele>335.6666666666667</ele><time>2026-04-25T08:25:50.079Z</time></trkpt><trkpt lat="41.8646483" lon="1.8744905"><ele>335.33333333333337</ele><time>2026-04-25T08:25:51.078Z</time></trkpt><trkpt lat="41.8647269" lon="1.8745363"><ele>335.0</ele><time>2026-04-25T08:25:52.079Z</time></trkpt><trkpt lat="41.8648076" lon="1.8745755"><ele>335.0</ele><time>2026-04-25T08:25:53.079Z</time></trkpt><trkpt lat="41.8648841" lon="1.8746195"><ele>335.0</ele><time>2026-04-25T08:25:54.078Z</time></trkpt><trkpt lat="41.8649651" lon="1.8746668"><ele>335.0</ele><time>2026-04-25T08:25:55.079Z</time></trkpt><trkpt lat="41.8650397" lon="1.8747118"><ele>335.0</ele><time>2026-04-25T08:25:56.079Z</time></trkpt><trkpt lat="41.8651158" lon="1.8747551"><ele>335.0</ele><time>2026-04-25T08:25:57.079Z</time></trkpt><trkpt lat="41.8651934" lon="1.8747953"><ele>335.0</ele><time>2026-04-25T08:25:58.079Z</time></trkpt><trkpt lat="41.8652715" lon="1.8748356"><ele>335.5</ele><time>2026-04-25T08:25:59.079Z</time></trkpt><trkpt lat="41.8653505" lon="1.8748794"><ele>336.0</ele><time>2026-04-25T08:26:00.079Z</time></trkpt><trkpt lat="41.8654288" lon="1.8749224"><ele>336.5</ele><time>2026-04-25T08:26:01.079Z</time></trkpt><trkpt lat="41.8655059" lon="1.8749638"><ele>337.0</ele><time>2026-04-25T08:26:02.079Z</time></trkpt><trkpt lat="41.8655778" lon="1.8750035"><ele>337.5</ele><time>2026-04-25T08:26:03.079Z</time></trkpt><trkpt lat="41.8656464" lon="1.8750365"><ele>338.0</ele><time>2026-04-25T08:26:04.078Z</time></trkpt><trkpt lat="41.8657094" lon="1.8750742"><ele>337.33333333333337</ele><time>2026-04-25T08:26:05.079Z</time></trkpt><trkpt lat="41.8657758" lon="1.875116"><ele>336.6666666666667</ele><time>2026-04-25T08:26:06.079Z</time></trkpt><trkpt lat="41.8658472" lon="1.8751601"><ele>336.0</ele><time>2026-04-25T08:26:07.078Z</time></trkpt><trkpt lat="41.8659356" lon="1.8751948"><ele>335.3333333333333</ele><time>2026-04-25T08:26:08.079Z</time></trkpt><trkpt lat="41.8660175" lon="1.8752409"><ele>334.66666666666663</ele><time>2026-04-25T08:26:09.079Z</time></trkpt><trkpt lat="41.8660968" lon="1.8752839"><ele>334.0</ele><time>2026-04-25T08:26:10.079Z</time></trkpt><trkpt lat="41.8661884" lon="1.8753306"><ele>334.0</ele><time>2026-04-25T08:26:11.079Z</time></trkpt><trkpt lat="41.8662755" lon="1.8753752"><ele>334.0</ele><time>2026-04-25T08:26:12.078Z</time></trkpt><trkpt lat="41.8663611" lon="1.8754228"><ele>334.0</ele><time>2026-04-25T08:26:13.078Z</time></trkpt><trkpt lat="41.8664453" lon="1.8754707"><ele>334.0</ele><time>2026-04-25T08:26:14.078Z</time></trkpt><trkpt lat="41.8665259" lon="1.8755155"><ele>334.0</ele><time>2026-04-25T08:26:15.079Z</time></trkpt><trkpt lat="41.8665984" lon="1.8755629"><ele>334.0</ele><time>2026-04-25T08:26:16.078Z</time></trkpt><trkpt lat="41.8666701" lon="1.8756078"><ele>334.0</ele><time>2026-04-25T08:26:17.079Z</time></trkpt><trkpt lat="41.8667444" lon="1.8756463"><ele>334.0</ele><time>2026-04-25T08:26:18.079Z</time></trkpt><trkpt lat="41.866824" lon="1.875674"><ele>334.0</ele><time>2026-04-25T08:26:19.078Z</time></trkpt><trkpt lat="41.8669061" lon="1.8756658"><ele>334.0</ele><time>2026-04-25T08:26:20.079Z</time></trkpt><trkpt lat="41.8669812" lon="1.8756129"><ele>334.0</ele><time>2026-04-25T08:26:21.079Z</time></trkpt><trkpt lat="41.8670271" lon="1.8755343"><ele>334.0</ele><time>2026-04-25T08:26:22.079Z</time></trkpt><trkpt lat="41.8670296" lon="1.8754387"><ele>333.75</ele><time>2026-04-25T08:26:23.078Z</time></trkpt><trkpt lat="41.8671157" lon="1.8752507"><ele>333.5</ele><time>2026-04-25T08:26:25.079Z</time></trkpt><trkpt lat="41.8671844" lon="1.8751644"><ele>333.25</ele><time>2026-04-25T08:26:26.079Z</time></trkpt><trkpt lat="41.8672524" lon="1.8750698"><ele>333.0</ele><time>2026-04-25T08:26:27.079Z</time></trkpt><trkpt lat="41.867332" lon="1.8749691"><ele>333.5</ele><time>2026-04-25T08:26:28.079Z</time></trkpt><trkpt lat="41.8674081" lon="1.8748583"><ele>334.0</ele><time>2026-04-25T08:26:29.078Z</time></trkpt><trkpt lat="41.8674868" lon="1.8747336"><ele>334.5</ele><time>2026-04-25T08:26:30.078Z</time></trkpt><trkpt lat="41.8675745" lon="1.8746012"><ele>335.0</ele><time>2026-04-25T08:26:31.079Z</time></trkpt><trkpt lat="41.8676483" lon="1.8744694"><ele>335.0</ele><time>2026-04-25T08:26:32.078Z</time></trkpt><trkpt lat="41.8677218" lon="1.8743268"><ele>335.0</ele><time>2026-04-25T08:26:33.078Z</time></trkpt><trkpt lat="41.8677963" lon="1.874172"><ele>335.0</ele><time>2026-04-25T08:26:34.079Z</time></trkpt><trkpt lat="41.8678617" lon="1.8740177"><ele>335.0</ele><time>2026-04-25T08:26:35.079Z</time></trkpt><trkpt lat="41.8679331" lon="1.8738541"><ele>336.0</ele><time>2026-04-25T08:26:36.078Z</time></trkpt><trkpt lat="41.8680074" lon="1.8736927"><ele>337.0</ele><time>2026-04-25T08:26:37.078Z</time></trkpt><trkpt lat="41.8680841" lon="1.8735123"><ele>338.0</ele><time>2026-04-25T08:26:38.079Z</time></trkpt><trkpt lat="41.8681683" lon="1.8733298"><ele>338.33333333333337</ele><time>2026-04-25T08:26:39.079Z</time></trkpt><trkpt lat="41.8682479" lon="1.8731541"><ele>338.6666666666667</ele><time>2026-04-25T08:26:40.078Z</time></trkpt><trkpt lat="41.8683314" lon="1.8729706"><ele>339.0</ele><time>2026-04-25T08:26:41.078Z</time></trkpt><trkpt lat="41.8684093" lon="1.8727883"><ele>337.3333333333333</ele><time>2026-04-25T08:26:42.079Z</time></trkpt><trkpt lat="41.868489" lon="1.8725899"><ele>335.66666666666663</ele><time>2026-04-25T08:26:43.079Z</time></trkpt><trkpt lat="41.8685656" lon="1.8723963"><ele>334.0</ele><time>2026-04-25T08:26:44.079Z</time></trkpt><trkpt lat="41.8686391" lon="1.872206"><ele>334.0</ele><time>2026-04-25T08:26:45.078Z</time></trkpt><trkpt lat="41.8687098" lon="1.87199"><ele>334.0</ele><time>2026-04-25T08:26:46.079Z</time></trkpt><trkpt lat="41.8687778" lon="1.8717756"><ele>334.0</ele><time>2026-04-25T08:26:47.079Z</time></trkpt><trkpt lat="41.868835" lon="1.8715648"><ele>336.0</ele><time>2026-04-25T08:26:48.079Z</time></trkpt><trkpt lat="41.8688951" lon="1.8713467"><ele>338.0</ele><time>2026-04-25T08:26:49.079Z</time></trkpt><trkpt lat="41.8689577" lon="1.8711241"><ele>340.0</ele><time>2026-04-25T08:26:50.079Z</time></trkpt><trkpt lat="41.869016" lon="1.8709036"><ele>341.0</ele><time>2026-04-25T08:26:51.079Z</time></trkpt><trkpt lat="41.8690772" lon="1.8706757"><ele>342.0</ele><time>2026-04-25T08:26:52.079Z</time></trkpt><trkpt lat="41.8691382" lon="1.8704584"><ele>343.0</ele><time>2026-04-25T08:26:53.078Z</time></trkpt><trkpt lat="41.8692041" lon="1.8702143"><ele>343.0</ele><time>2026-04-25T08:26:54.078Z</time></trkpt><trkpt lat="41.8692693" lon="1.8699782"><ele>343.0</ele><time>2026-04-25T08:26:55.079Z</time></trkpt><trkpt lat="41.8693306" lon="1.8697456"><ele>343.0</ele><time>2026-04-25T08:26:56.078Z</time></trkpt><trkpt lat="41.8693963" lon="1.8695095"><ele>343.0</ele><time>2026-04-25T08:26:57.078Z</time></trkpt><trkpt lat="41.8694615" lon="1.8692895"><ele>343.0</ele><time>2026-04-25T08:26:58.079Z</time></trkpt><trkpt lat="41.8695298" lon="1.8690442"><ele>343.0</ele><time>2026-04-25T08:26:59.079Z</time></trkpt><trkpt lat="41.8695951" lon="1.8688124"><ele>343.66666666666663</ele><time>2026-04-25T08:27:00.078Z</time></trkpt><trkpt lat="41.8696575" lon="1.8685927"><ele>344.3333333333333</ele><time>2026-04-25T08:27:01.079Z</time></trkpt><trkpt lat="41.869721" lon="1.8683442"><ele>345.0</ele><time>2026-04-25T08:27:02.078Z</time></trkpt><trkpt lat="41.8697743" lon="1.8681003"><ele>345.0</ele><time>2026-04-25T08:27:03.078Z</time></trkpt><trkpt lat="41.8698055" lon="1.8678545"><ele>345.0</ele><time>2026-04-25T08:27:04.079Z</time></trkpt><trkpt lat="41.8698243" lon="1.8676032"><ele>345.0</ele><time>2026-04-25T08:27:05.079Z</time></trkpt><trkpt lat="41.8698377" lon="1.8673643"><ele>345.0</ele><time>2026-04-25T08:27:06.078Z</time></trkpt><trkpt lat="41.8698491" lon="1.8671501"><ele>345.0</ele><time>2026-04-25T08:27:07.079Z</time></trkpt><trkpt lat="41.8698776" lon="1.86698"><ele>345.0</ele><time>2026-04-25T08:27:08.079Z</time></trkpt><trkpt lat="41.8699411" lon="1.8668536"><ele>345.0</ele><time>2026-04-25T08:27:09.078Z</time></trkpt><trkpt lat="41.8700533" lon="1.8667527"><ele>347.3333333333333</ele><time>2026-04-25T08:27:10.079Z</time></trkpt><trkpt lat="41.8702064" lon="1.866662"><ele>349.66666666666663</ele><time>2026-04-25T08:27:11.079Z</time></trkpt><trkpt lat="41.8703635" lon="1.8665427"><ele>352.0</ele><time>2026-04-25T08:27:12.079Z</time></trkpt><trkpt lat="41.8705039" lon="1.8663574"><ele>352.0</ele><time>2026-04-25T08:27:13.079Z</time></trkpt><trkpt lat="41.8705898" lon="1.8661717"><ele>352.0</ele><time>2026-04-25T08:27:14.095Z</time></trkpt><trkpt lat="41.8707256" lon="1.8659281"><ele>352.0</ele><time>2026-04-25T08:27:15.094Z</time></trkpt><trkpt lat="41.870848" lon="1.8656341"><ele>353.0</ele><time>2026-04-25T08:27:16.095Z</time></trkpt><trkpt lat="41.8709623" lon="1.8653061"><ele>354.0</ele><time>2026-04-25T08:27:17.095Z</time></trkpt><trkpt lat="41.8710747" lon="1.864951"><ele>354.0</ele><time>2026-04-25T08:27:18.095Z</time></trkpt><trkpt lat="41.8711868" lon="1.8645824"><ele>354.0</ele><time>2026-04-25T08:27:19.095Z</time></trkpt><trkpt lat="41.8712887" lon="1.8642353"><ele>357.0</ele><time>2026-04-25T08:27:20.095Z</time></trkpt><trkpt lat="41.8713815" lon="1.8638761"><ele>360.0</ele><time>2026-04-25T08:27:21.096Z</time></trkpt><trkpt lat="41.8714683" lon="1.8635013"><ele>361.5</ele><time>2026-04-25T08:27:22.094Z</time></trkpt><trkpt lat="41.8715501" lon="1.8631656"><ele>363.0</ele><time>2026-04-25T08:27:23.095Z</time></trkpt><trkpt lat="41.8716248" lon="1.862851"><ele>363.3333333333333</ele><time>2026-04-25T08:27:24.096Z</time></trkpt><trkpt lat="41.8717123" lon="1.8625709"><ele>363.66666666666663</ele><time>2026-04-25T08:27:25.095Z</time></trkpt><trkpt lat="41.8718387" lon="1.8623362"><ele>364.0</ele><time>2026-04-25T08:27:26.095Z</time></trkpt><trkpt lat="41.872002" lon="1.8621002"><ele>364.0</ele><time>2026-04-25T08:27:27.095Z</time></trkpt><trkpt lat="41.8721741" lon="1.8618493"><ele>364.0</ele><time>2026-04-25T08:27:28.094Z</time></trkpt><trkpt lat="41.8723595" lon="1.8615829"><ele>366.5</ele><time>2026-04-25T08:27:29.096Z</time></trkpt><trkpt lat="41.8725553" lon="1.861307"><ele>369.0</ele><time>2026-04-25T08:27:30.095Z</time></trkpt><trkpt lat="41.8727489" lon="1.8610367"><ele>369.0</ele><time>2026-04-25T08:27:31.096Z</time></trkpt><trkpt lat="41.8729268" lon="1.8607913"><ele>369.0</ele><time>2026-04-25T08:27:32.095Z</time></trkpt><trkpt lat="41.8730981" lon="1.8605376"><ele>369.0</ele><time>2026-04-25T08:27:33.094Z</time></trkpt><trkpt lat="41.8732464" lon="1.8602631"><ele>369.0</ele><time>2026-04-25T08:27:34.095Z</time></trkpt><trkpt lat="41.8733674" lon="1.8599526"><ele>369.5</ele><time>2026-04-25T08:27:35.094Z</time></trkpt><trkpt lat="41.8734799" lon="1.8596202"><ele>370.0</ele><time>2026-04-25T08:27:36.096Z</time></trkpt><trkpt lat="41.8735975" lon="1.8592797"><ele>371.5</ele><time>2026-04-25T08:27:37.095Z</time></trkpt><trkpt lat="41.8737192" lon="1.8589239"><ele>373.0</ele><time>2026-04-25T08:27:38.094Z</time></trkpt><trkpt lat="41.8738419" lon="1.858556"><ele>374.5</ele><time>2026-04-25T08:27:39.094Z</time></trkpt><trkpt lat="41.8739655" lon="1.8581851"><ele>376.0</ele><time>2026-04-25T08:27:40.095Z</time></trkpt><trkpt lat="41.8740799" lon="1.8578497"><ele>377.5</ele><time>2026-04-25T08:27:41.095Z</time></trkpt><trkpt lat="41.8741802" lon="1.8575462"><ele>379.0</ele><time>2026-04-25T08:27:42.094Z</time></trkpt><trkpt lat="41.8742521" lon="1.8572432"><ele>379.5</ele><time>2026-04-25T08:27:43.095Z</time></trkpt><trkpt lat="41.8742748" lon="1.8569159"><ele>380.0</ele><time>2026-04-25T08:27:44.095Z</time></trkpt><trkpt lat="41.8742826" lon="1.8566087"><ele>381.0</ele><time>2026-04-25T08:27:45.095Z</time></trkpt><trkpt lat="41.8742965" lon="1.8563399"><ele>382.0</ele><time>2026-04-25T08:27:46.095Z</time></trkpt><trkpt lat="41.8743462" lon="1.8561098"><ele>383.0</ele><time>2026-04-25T08:27:47.095Z</time></trkpt><trkpt lat="41.8744433" lon="1.8559376"><ele>383.33333333333337</ele><time>2026-04-25T08:27:48.095Z</time></trkpt><trkpt lat="41.8745766" lon="1.8557824"><ele>383.6666666666667</ele><time>2026-04-25T08:27:49.095Z</time></trkpt><trkpt lat="41.874672" lon="1.8555974"><ele>384.0</ele><time>2026-04-25T08:27:50.095Z</time></trkpt><trkpt lat="41.8747319" lon="1.8553432"><ele>385.5</ele><time>2026-04-25T08:27:51.095Z</time></trkpt><trkpt lat="41.8747817" lon="1.8550428"><ele>387.0</ele><time>2026-04-25T08:27:52.096Z</time></trkpt><trkpt lat="41.8748275" lon="1.8546985"><ele>387.0</ele><time>2026-04-25T08:27:53.095Z</time></trkpt><trkpt lat="41.874874" lon="1.8543254"><ele>387.0</ele><time>2026-04-25T08:27:54.095Z</time></trkpt><trkpt lat="41.8749249" lon="1.8539249"><ele>387.5</ele><time>2026-04-25T08:27:55.095Z</time></trkpt><trkpt lat="41.8749768" lon="1.8535042"><ele>388.0</ele><time>2026-04-25T08:27:56.096Z</time></trkpt><trkpt lat="41.8750308" lon="1.8530658"><ele>393.5</ele><time>2026-04-25T08:27:57.095Z</time></trkpt><trkpt lat="41.8750829" lon="1.8526131"><ele>399.0</ele><time>2026-04-25T08:27:58.095Z</time></trkpt><trkpt lat="41.8751403" lon="1.8521499"><ele>405.0</ele><time>2026-04-25T08:27:59.094Z</time></trkpt><trkpt lat="41.8751957" lon="1.8516986"><ele>411.0</ele><time>2026-04-25T08:28:00.096Z</time></trkpt><trkpt lat="41.8752432" lon="1.8512883"><ele>410.5</ele><time>2026-04-25T08:28:01.095Z</time></trkpt><trkpt lat="41.8752857" lon="1.8509041"><ele>410.0</ele><time>2026-04-25T08:28:02.095Z</time></trkpt><trkpt lat="41.8753265" lon="1.8505697"><ele>410.0</ele><time>2026-04-25T08:28:03.095Z</time></trkpt><trkpt lat="41.8753635" lon="1.8502731"><ele>410.0</ele><time>2026-04-25T08:28:04.095Z</time></trkpt><trkpt lat="41.8754097" lon="1.8500186"><ele>410.0</ele><time>2026-04-25T08:28:05.095Z</time></trkpt><trkpt lat="41.875494" lon="1.8498024"><ele>411.0</ele><time>2026-04-25T08:28:06.095Z</time></trkpt><trkpt lat="41.875634" lon="1.8496056"><ele>412.0</ele><time>2026-04-25T08:28:07.095Z</time></trkpt><trkpt lat="41.8758167" lon="1.8494306"><ele>413.0</ele><time>2026-04-25T08:28:08.095Z</time></trkpt><trkpt lat="41.8760027" lon="1.849257"><ele>417.0</ele><time>2026-04-25T08:28:09.094Z</time></trkpt><trkpt lat="41.8762292" lon="1.849116"><ele>421.0</ele><time>2026-04-25T08:28:10.095Z</time></trkpt><trkpt lat="41.8763939" lon="1.8489574"><ele>421.0</ele><time>2026-04-25T08:28:11.095Z</time></trkpt><trkpt lat="41.8765457" lon="1.8487393"><ele>421.0</ele><time>2026-04-25T08:28:12.095Z</time></trkpt><trkpt lat="41.8766935" lon="1.848475"><ele>418.5</ele><time>2026-04-25T08:28:13.095Z</time></trkpt><trkpt lat="41.8768454" lon="1.848194"><ele>416.0</ele><time>2026-04-25T08:28:14.095Z</time></trkpt><trkpt lat="41.876998" lon="1.8478975"><ele>416.0</ele><time>2026-04-25T08:28:15.094Z</time></trkpt><trkpt lat="41.8771338" lon="1.8475789"><ele>416.0</ele><time>2026-04-25T08:28:16.094Z</time></trkpt><trkpt lat="41.8772371" lon="1.8472692"><ele>416.0</ele><time>2026-04-25T08:28:17.094Z</time></trkpt><trkpt lat="41.8773359" lon="1.8469835"><ele>416.0</ele><time>2026-04-25T08:28:18.095Z</time></trkpt><trkpt lat="41.8774491" lon="1.8467405"><ele>416.0</ele><time>2026-04-25T08:28:19.095Z</time></trkpt><trkpt lat="41.8775694" lon="1.8465521"><ele>410.66666666666663</ele><time>2026-04-25T08:28:20.095Z</time></trkpt><trkpt lat="41.8776696" lon="1.846397"><ele>405.33333333333337</ele><time>2026-04-25T08:28:21.095Z</time></trkpt><trkpt lat="41.8777247" lon="1.8462074"><ele>400.0</ele><time>2026-04-25T08:28:22.095Z</time></trkpt><trkpt lat="41.8777299" lon="1.8459814"><ele>401.33333333333337</ele><time>2026-04-25T08:28:23.094Z</time></trkpt><trkpt lat="41.8777002" lon="1.8457348"><ele>402.66666666666663</ele><time>2026-04-25T08:28:24.094Z</time></trkpt><trkpt lat="41.8776958" lon="1.8455"><ele>404.0</ele><time>2026-04-25T08:28:25.095Z</time></trkpt><trkpt lat="41.8777415" lon="1.8452749"><ele>405.66666666666663</ele><time>2026-04-25T08:28:26.096Z</time></trkpt><trkpt lat="41.877762" lon="1.8450544"><ele>407.33333333333337</ele><time>2026-04-25T08:28:27.094Z</time></trkpt><trkpt lat="41.8777182" lon="1.8448295"><ele>409.0</ele><time>2026-04-25T08:28:28.095Z</time></trkpt><trkpt lat="41.877617" lon="1.84458"><ele>413.0</ele><time>2026-04-25T08:28:29.095Z</time></trkpt><trkpt lat="41.8774987" lon="1.844305"><ele>417.0</ele><time>2026-04-25T08:28:30.096Z</time></trkpt><trkpt lat="41.8773843" lon="1.8440327"><ele>417.0</ele><time>2026-04-25T08:28:31.095Z</time></trkpt><trkpt lat="41.8772824" lon="1.8438023"><ele>417.0</ele><time>2026-04-25T08:28:32.095Z</time></trkpt><trkpt lat="41.8772049" lon="1.8436002"><ele>417.0</ele><time>2026-04-25T08:28:33.095Z</time></trkpt><trkpt lat="41.8771753" lon="1.8434073"><ele>416.75</ele><time>2026-04-25T08:28:34.095Z</time></trkpt><trkpt lat="41.8771999" lon="1.8432278"><ele>416.5</ele><time>2026-04-25T08:28:35.095Z</time></trkpt><trkpt lat="41.8772777" lon="1.8430771"><ele>416.25</ele><time>2026-04-25T08:28:36.095Z</time></trkpt><trkpt lat="41.8774045" lon="1.8429842"><ele>416.0</ele><time>2026-04-25T08:28:37.096Z</time></trkpt><trkpt lat="41.877569" lon="1.842945"><ele>411.66666666666663</ele><time>2026-04-25T08:28:38.096Z</time></trkpt><trkpt lat="41.8777516" lon="1.8429454"><ele>407.33333333333337</ele><time>2026-04-25T08:28:39.095Z</time></trkpt><trkpt lat="41.8778959" lon="1.8429281"><ele>403.0</ele><time>2026-04-25T08:28:40.094Z</time></trkpt><trkpt lat="41.8780127" lon="1.8428607"><ele>403.0</ele><time>2026-04-25T08:28:41.094Z</time></trkpt><trkpt lat="41.8780931" lon="1.8427401"><ele>403.0</ele><time>2026-04-25T08:28:42.095Z</time></trkpt><trkpt lat="41.8781206" lon="1.8425796"><ele>403.0</ele><time>2026-04-25T08:28:43.095Z</time></trkpt><trkpt lat="41.8780807" lon="1.8424011"><ele>403.0</ele><time>2026-04-25T08:28:44.095Z</time></trkpt><trkpt lat="41.8779803" lon="1.8422156"><ele>404.75</ele><time>2026-04-25T08:28:45.094Z</time></trkpt><trkpt lat="41.8778608" lon="1.842036"><ele>406.5</ele><time>2026-04-25T08:28:46.095Z</time></trkpt><trkpt lat="41.8778" lon="1.8418801"><ele>408.25</ele><time>2026-04-25T08:28:47.094Z</time></trkpt><trkpt lat="41.8777899" lon="1.8417026"><ele>410.0</ele><time>2026-04-25T08:28:48.096Z</time></trkpt><trkpt lat="41.8778417" lon="1.8415341"><ele>410.66666666666663</ele><time>2026-04-25T08:28:49.096Z</time></trkpt><trkpt lat="41.8779577" lon="1.8414086"><ele>411.33333333333337</ele><time>2026-04-25T08:28:50.095Z</time></trkpt><trkpt lat="41.8781151" lon="1.8413273"><ele>412.0</ele><time>2026-04-25T08:28:51.094Z</time></trkpt><trkpt lat="41.8782843" lon="1.8412531"><ele>412.0</ele><time>2026-04-25T08:28:52.094Z</time></trkpt><trkpt lat="41.878409" lon="1.8411651"><ele>412.0</ele><time>2026-04-25T08:28:53.094Z</time></trkpt><trkpt lat="41.8785021" lon="1.8410352"><ele>412.0</ele><time>2026-04-25T08:28:54.094Z</time></trkpt><trkpt lat="41.8785381" lon="1.8408797"><ele>412.0</ele><time>2026-04-25T08:28:55.094Z</time></trkpt><trkpt lat="41.8785044" lon="1.8406985"><ele>413.6666666666667</ele><time>2026-04-25T08:28:56.095Z</time></trkpt><trkpt lat="41.8784099" lon="1.840481"><ele>415.33333333333337</ele><time>2026-04-25T08:28:57.094Z</time></trkpt><trkpt lat="41.8782841" lon="1.8402402"><ele>417.0</ele><time>2026-04-25T08:28:58.094Z</time></trkpt><trkpt lat="41.8781477" lon="1.8399891"><ele>417.0</ele><time>2026-04-25T08:28:59.095Z</time></trkpt><trkpt lat="41.8780375" lon="1.8397814"><ele>417.0</ele><time>2026-04-25T08:29:00.095Z</time></trkpt><trkpt lat="41.8779644" lon="1.8395976"><ele>417.0</ele><time>2026-04-25T08:29:01.095Z</time></trkpt><trkpt lat="41.8779478" lon="1.839399"><ele>415.66666666666663</ele><time>2026-04-25T08:29:02.094Z</time></trkpt><trkpt lat="41.8779734" lon="1.8391651"><ele>414.3333333333333</ele><time>2026-04-25T08:29:03.094Z</time></trkpt><trkpt lat="41.8780297" lon="1.8388886"><ele>413.0</ele><time>2026-04-25T08:29:04.094Z</time></trkpt><trkpt lat="41.8780796" lon="1.8386432"><ele>413.75</ele><time>2026-04-25T08:29:05.094Z</time></trkpt><trkpt lat="41.8781331" lon="1.8384481"><ele>414.5</ele><time>2026-04-25T08:29:06.095Z</time></trkpt><trkpt lat="41.8781328" lon="1.8382736"><ele>415.25</ele><time>2026-04-25T08:29:07.095Z</time></trkpt><trkpt lat="41.8780698" lon="1.8380919"><ele>416.0</ele><time>2026-04-25T08:29:08.095Z</time></trkpt><trkpt lat="41.8779713" lon="1.8379246"><ele>416.0</ele><time>2026-04-25T08:29:09.095Z</time></trkpt><trkpt lat="41.8779182" lon="1.8377674"><ele>416.0</ele><time>2026-04-25T08:29:10.095Z</time></trkpt><trkpt lat="41.8779113" lon="1.8375911"><ele>416.0</ele><time>2026-04-25T08:29:11.095Z</time></trkpt><trkpt lat="41.8779668" lon="1.8374366"><ele>416.0</ele><time>2026-04-25T08:29:12.095Z</time></trkpt><trkpt lat="41.8780568" lon="1.8373568"><ele>417.0</ele><time>2026-04-25T08:29:13.095Z</time></trkpt><trkpt lat="41.8781834" lon="1.8373319"><ele>418.0</ele><time>2026-04-25T08:29:14.094Z</time></trkpt><trkpt lat="41.8783097" lon="1.837291"><ele>419.0</ele><time>2026-04-25T08:29:15.095Z</time></trkpt><trkpt lat="41.8784076" lon="1.8371804"><ele>420.0</ele><time>2026-04-25T08:29:16.096Z</time></trkpt><trkpt lat="41.8784893" lon="1.8369857"><ele>417.66666666666663</ele><time>2026-04-25T08:29:17.095Z</time></trkpt><trkpt lat="41.8785619" lon="1.8367247"><ele>415.3333333333333</ele><time>2026-04-25T08:29:18.094Z</time></trkpt><trkpt lat="41.8786348" lon="1.8364558"><ele>413.0</ele><time>2026-04-25T08:29:19.096Z</time></trkpt><trkpt lat="41.8786792" lon="1.8362213"><ele>413.3333333333333</ele><time>2026-04-25T08:29:20.095Z</time></trkpt><trkpt lat="41.8786683" lon="1.8359392"><ele>413.66666666666663</ele><time>2026-04-25T08:29:21.095Z</time></trkpt><trkpt lat="41.8786141" lon="1.8356393"><ele>414.0</ele><time>2026-04-25T08:29:22.094Z</time></trkpt><trkpt lat="41.8785509" lon="1.8353322"><ele>414.66666666666663</ele><time>2026-04-25T08:29:23.096Z</time></trkpt><trkpt lat="41.8785022" lon="1.8350819"><ele>415.3333333333333</ele><time>2026-04-25T08:29:24.094Z</time></trkpt><trkpt lat="41.8784119" lon="1.8348825"><ele>416.0</ele><time>2026-04-25T08:29:25.094Z</time></trkpt><trkpt lat="41.8782768" lon="1.8347101"><ele>417.5</ele><time>2026-04-25T08:29:26.096Z</time></trkpt><trkpt lat="41.878147" lon="1.8345689"><ele>419.0</ele><time>2026-04-25T08:29:27.094Z</time></trkpt><trkpt lat="41.8780629" lon="1.8344181"><ele>420.5</ele><time>2026-04-25T08:29:28.095Z</time></trkpt><trkpt lat="41.8780402" lon="1.8342356"><ele>422.0</ele><time>2026-04-25T08:29:29.095Z</time></trkpt><trkpt lat="41.8780674" lon="1.8340193"><ele>422.0</ele><time>2026-04-25T08:29:30.095Z</time></trkpt><trkpt lat="41.878128" lon="1.8338072"><ele>422.0</ele><time>2026-04-25T08:29:31.094Z</time></trkpt><trkpt lat="41.8782074" lon="1.8336561"><ele>422.0</ele><time>2026-04-25T08:29:32.095Z</time></trkpt><trkpt lat="41.8783175" lon="1.8335846"><ele>422.0</ele><time>2026-04-25T08:29:33.094Z</time></trkpt><trkpt lat="41.8784504" lon="1.8335895"><ele>422.66666666666663</ele><time>2026-04-25T08:29:34.095Z</time></trkpt><trkpt lat="41.8785955" lon="1.8336815"><ele>423.33333333333337</ele><time>2026-04-25T08:29:35.095Z</time></trkpt><trkpt lat="41.878768" lon="1.8338073"><ele>424.0</ele><time>2026-04-25T08:29:36.096Z</time></trkpt><trkpt lat="41.87894" lon="1.8339314"><ele>424.0</ele><time>2026-04-25T08:29:37.094Z</time></trkpt><trkpt lat="41.8790863" lon="1.8340167"><ele>424.0</ele><time>2026-04-25T08:29:38.095Z</time></trkpt><trkpt lat="41.8792217" lon="1.8340329"><ele>424.0</ele><time>2026-04-25T08:29:39.094Z</time></trkpt><trkpt lat="41.8793443" lon="1.8339758"><ele>424.0</ele><time>2026-04-25T08:29:40.094Z</time></trkpt><trkpt lat="41.8794513" lon="1.8338254"><ele>423.6666666666667</ele><time>2026-04-25T08:29:41.096Z</time></trkpt><trkpt lat="41.8795429" lon="1.8336223"><ele>423.33333333333337</ele><time>2026-04-25T08:29:42.095Z</time></trkpt><trkpt lat="41.8795909" lon="1.8334067"><ele>423.0</ele><time>2026-04-25T08:29:43.094Z</time></trkpt><trkpt lat="41.879582" lon="1.8331732"><ele>424.0</ele><time>2026-04-25T08:29:44.096Z</time></trkpt><trkpt lat="41.8795182" lon="1.8329198"><ele>425.0</ele><time>2026-04-25T08:29:45.095Z</time></trkpt><trkpt lat="41.879447" lon="1.8326421"><ele>426.0</ele><time>2026-04-25T08:29:46.094Z</time></trkpt><trkpt lat="41.8794079" lon="1.8323218"><ele>426.5</ele><time>2026-04-25T08:29:47.095Z</time></trkpt><trkpt lat="41.87938" lon="1.8319796"><ele>427.0</ele><time>2026-04-25T08:29:48.095Z</time></trkpt><trkpt lat="41.8793362" lon="1.831627"><ele>431.5</ele><time>2026-04-25T08:29:49.094Z</time></trkpt><trkpt lat="41.8792519" lon="1.8312522"><ele>436.0</ele><time>2026-04-25T08:29:50.094Z</time></trkpt><trkpt lat="41.8791443" lon="1.8308656"><ele>436.0</ele><time>2026-04-25T08:29:51.095Z</time></trkpt><trkpt lat="41.8790238" lon="1.830476"><ele>436.0</ele><time>2026-04-25T08:29:52.095Z</time></trkpt><trkpt lat="41.8789197" lon="1.8301246"><ele>435.0</ele><time>2026-04-25T08:29:53.095Z</time></trkpt><trkpt lat="41.8788264" lon="1.8298221"><ele>434.0</ele><time>2026-04-25T08:29:54.095Z</time></trkpt><trkpt lat="41.8787511" lon="1.8295708"><ele>433.0</ele><time>2026-04-25T08:29:55.095Z</time></trkpt><trkpt lat="41.8787192" lon="1.8293445"><ele>433.0</ele><time>2026-04-25T08:29:56.094Z</time></trkpt><trkpt lat="41.8787426" lon="1.8291211"><ele>433.0</ele><time>2026-04-25T08:29:57.096Z</time></trkpt><trkpt lat="41.8787935" lon="1.8288837"><ele>433.0</ele><time>2026-04-25T08:29:58.095Z</time></trkpt><trkpt lat="41.8788171" lon="1.8286689"><ele>433.6666666666667</ele><time>2026-04-25T08:29:59.095Z</time></trkpt><trkpt lat="41.8787846" lon="1.8284599"><ele>434.33333333333337</ele><time>2026-04-25T08:30:00.095Z</time></trkpt><trkpt lat="41.8786876" lon="1.8282361"><ele>435.0</ele><time>2026-04-25T08:30:01.095Z</time></trkpt><trkpt lat="41.8785733" lon="1.8279788"><ele>435.0</ele><time>2026-04-25T08:30:02.095Z</time></trkpt><trkpt lat="41.8784723" lon="1.8276826"><ele>435.0</ele><time>2026-04-25T08:30:03.095Z</time></trkpt><trkpt lat="41.8783863" lon="1.8273399"><ele>438.0</ele><time>2026-04-25T08:30:04.095Z</time></trkpt><trkpt lat="41.8783067" lon="1.8269635"><ele>441.0</ele><time>2026-04-25T08:30:05.095Z</time></trkpt><trkpt lat="41.8782253" lon="1.8265666"><ele>442.0</ele><time>2026-04-25T08:30:06.095Z</time></trkpt><trkpt lat="41.8781471" lon="1.8262083"><ele>443.0</ele><time>2026-04-25T08:30:07.094Z</time></trkpt><trkpt lat="41.8780554" lon="1.8258603"><ele>444.0</ele><time>2026-04-25T08:30:08.095Z</time></trkpt><trkpt lat="41.8779314" lon="1.8255227"><ele>445.0</ele><time>2026-04-25T08:30:09.096Z</time></trkpt><trkpt lat="41.8777849" lon="1.8252005"><ele>446.0</ele><time>2026-04-25T08:30:10.095Z</time></trkpt><trkpt lat="41.8776577" lon="1.8249259"><ele>447.0</ele><time>2026-04-25T08:30:11.094Z</time></trkpt><trkpt lat="41.8775567" lon="1.8246919"><ele>448.0</ele><time>2026-04-25T08:30:12.095Z</time></trkpt><trkpt lat="41.8774884" lon="1.8244793"><ele>449.6666666666667</ele><time>2026-04-25T08:30:13.095Z</time></trkpt><trkpt lat="41.8774754" lon="1.8242617"><ele>451.33333333333337</ele><time>2026-04-25T08:30:14.095Z</time></trkpt><trkpt lat="41.8775144" lon="1.8240161"><ele>453.0</ele><time>2026-04-25T08:30:15.094Z</time></trkpt><trkpt lat="41.8776089" lon="1.8237524"><ele>454.5</ele><time>2026-04-25T08:30:16.095Z</time></trkpt><trkpt lat="41.8777323" lon="1.8234685"><ele>456.0</ele><time>2026-04-25T08:30:17.094Z</time></trkpt><trkpt lat="41.8778307" lon="1.8232196"><ele>456.0</ele><time>2026-04-25T08:30:18.095Z</time></trkpt><trkpt lat="41.8779097" lon="1.8229671"><ele>456.0</ele><time>2026-04-25T08:30:19.094Z</time></trkpt><trkpt lat="41.8779433" lon="1.8227027"><ele>456.0</ele><time>2026-04-25T08:30:20.095Z</time></trkpt><trkpt lat="41.8779191" lon="1.8224263"><ele>457.66666666666663</ele><time>2026-04-25T08:30:21.095Z</time></trkpt><trkpt lat="41.8778688" lon="1.8221701"><ele>459.3333333333333</ele><time>2026-04-25T08:30:22.094Z</time></trkpt><trkpt lat="41.8778619" lon="1.8219318"><ele>461.0</ele><time>2026-04-25T08:30:23.096Z</time></trkpt><trkpt lat="41.8779088" lon="1.8216853"><ele>462.0</ele><time>2026-04-25T08:30:24.095Z</time></trkpt><trkpt lat="41.8779371" lon="1.8214513"><ele>463.0</ele><time>2026-04-25T08:30:25.094Z</time></trkpt><trkpt lat="41.8779175" lon="1.8212084"><ele>464.0</ele><time>2026-04-25T08:30:26.095Z</time></trkpt><trkpt lat="41.8778557" lon="1.8209327"><ele>467.0</ele><time>2026-04-25T08:30:27.094Z</time></trkpt><trkpt lat="41.8777783" lon="1.8206172"><ele>470.0</ele><time>2026-04-25T08:30:28.094Z</time></trkpt><trkpt lat="41.8776947" lon="1.8202828"><ele>473.0</ele><time>2026-04-25T08:30:29.095Z</time></trkpt><trkpt lat="41.8776188" lon="1.8199808"><ele>476.0</ele><time>2026-04-25T08:30:30.095Z</time></trkpt><trkpt lat="41.8775482" lon="1.8197051"><ele>476.0</ele><time>2026-04-25T08:30:31.095Z</time></trkpt><trkpt lat="41.8774935" lon="1.8194533"><ele>476.0</ele><time>2026-04-25T08:30:32.095Z</time></trkpt><trkpt lat="41.8774521" lon="1.8191875"><ele>476.0</ele><time>2026-04-25T08:30:33.094Z</time></trkpt><trkpt lat="41.8774348" lon="1.8188857"><ele>475.0</ele><time>2026-04-25T08:30:34.095Z</time></trkpt><trkpt lat="41.8774259" lon="1.8185391"><ele>474.0</ele><time>2026-04-25T08:30:35.095Z</time></trkpt><trkpt lat="41.8774156" lon="1.8181515"><ele>473.0</ele><time>2026-04-25T08:30:36.095Z</time></trkpt><trkpt lat="41.8774003" lon="1.8177276"><ele>472.0</ele><time>2026-04-25T08:30:37.095Z</time></trkpt><trkpt lat="41.8773883" lon="1.8172966"><ele>471.5</ele><time>2026-04-25T08:30:38.095Z</time></trkpt><trkpt lat="41.8773737" lon="1.816901"><ele>471.0</ele><time>2026-04-25T08:30:39.094Z</time></trkpt><trkpt lat="41.8773349" lon="1.8165225"><ele>470.5</ele><time>2026-04-25T08:30:40.095Z</time></trkpt><trkpt lat="41.8772701" lon="1.8161311"><ele>470.0</ele><time>2026-04-25T08:30:41.095Z</time></trkpt><trkpt lat="41.877165" lon="1.8157298"><ele>470.0</ele><time>2026-04-25T08:30:42.094Z</time></trkpt><trkpt lat="41.8770639" lon="1.8153385"><ele>470.0</ele><time>2026-04-25T08:30:43.095Z</time></trkpt><trkpt lat="41.8769653" lon="1.8149745"><ele>469.5</ele><time>2026-04-25T08:30:44.094Z</time></trkpt><trkpt lat="41.8768566" lon="1.814633"><ele>469.0</ele><time>2026-04-25T08:30:45.095Z</time></trkpt><trkpt lat="41.8767118" lon="1.8142898"><ele>468.5</ele><time>2026-04-25T08:30:46.094Z</time></trkpt><trkpt lat="41.8765361" lon="1.813946"><ele>468.0</ele><time>2026-04-25T08:30:47.094Z</time></trkpt><trkpt lat="41.876358" lon="1.813598"><ele>469.0</ele><time>2026-04-25T08:30:48.095Z</time></trkpt><trkpt lat="41.8761834" lon="1.8132403"><ele>470.0</ele><time>2026-04-25T08:30:49.095Z</time></trkpt><trkpt lat="41.8760059" lon="1.8128842"><ele>470.5</ele><time>2026-04-25T08:30:50.095Z</time></trkpt><trkpt lat="41.8758274" lon="1.8125294"><ele>471.0</ele><time>2026-04-25T08:30:51.094Z</time></trkpt><trkpt lat="41.8756569" lon="1.8121916"><ele>471.0</ele><time>2026-04-25T08:30:52.094Z</time></trkpt><trkpt lat="41.8755008" lon="1.8118789"><ele>471.0</ele><time>2026-04-25T08:30:53.095Z</time></trkpt><trkpt lat="41.8753553" lon="1.8115912"><ele>473.5</ele><time>2026-04-25T08:30:54.095Z</time></trkpt><trkpt lat="41.8752254" lon="1.8113168"><ele>476.0</ele><time>2026-04-25T08:30:55.094Z</time></trkpt><trkpt lat="41.8751095" lon="1.8110306"><ele>476.0</ele><time>2026-04-25T08:30:56.095Z</time></trkpt><trkpt lat="41.8749991" lon="1.8107163"><ele>476.0</ele><time>2026-04-25T08:30:57.095Z</time></trkpt><trkpt lat="41.8748848" lon="1.8103946"><ele>476.5</ele><time>2026-04-25T08:30:58.094Z</time></trkpt><trkpt lat="41.8747828" lon="1.8101059"><ele>477.0</ele><time>2026-04-25T08:30:59.095Z</time></trkpt><trkpt lat="41.8746758" lon="1.8098367"><ele>477.0</ele><time>2026-04-25T08:31:00.095Z</time></trkpt><trkpt lat="41.8745369" lon="1.8095984"><ele>477.0</ele><time>2026-04-25T08:31:01.094Z</time></trkpt><trkpt lat="41.874337" lon="1.8093908"><ele>472.0</ele><time>2026-04-25T08:31:02.094Z</time></trkpt><trkpt lat="41.8740936" lon="1.8092135"><ele>467.0</ele><time>2026-04-25T08:31:03.096Z</time></trkpt><trkpt lat="41.8738189" lon="1.8090453"><ele>467.0</ele><time>2026-04-25T08:31:04.095Z</time></trkpt><trkpt lat="41.873535" lon="1.8088869"><ele>467.0</ele><time>2026-04-25T08:31:05.095Z</time></trkpt><trkpt lat="41.8732796" lon="1.808745"><ele>466.0</ele><time>2026-04-25T08:31:06.095Z</time></trkpt><trkpt lat="41.87304" lon="1.8086142"><ele>465.0</ele><time>2026-04-25T08:31:07.095Z</time></trkpt><trkpt lat="41.8728196" lon="1.8084936"><ele>465.0</ele><time>2026-04-25T08:31:08.095Z</time></trkpt><trkpt lat="41.8726174" lon="1.8083854"><ele>465.0</ele><time>2026-04-25T08:31:09.094Z</time></trkpt><trkpt lat="41.8724398" lon="1.8082782"><ele>465.0</ele><time>2026-04-25T08:31:10.095Z</time></trkpt><trkpt lat="41.8722828" lon="1.8081368"><ele>464.66666666666663</ele><time>2026-04-25T08:31:11.096Z</time></trkpt><trkpt lat="41.8721417" lon="1.8079427"><ele>464.3333333333333</ele><time>2026-04-25T08:31:12.094Z</time></trkpt><trkpt lat="41.8720338" lon="1.8076977"><ele>464.0</ele><time>2026-04-25T08:31:13.094Z</time></trkpt><trkpt lat="41.8719604" lon="1.8074022"><ele>463.0</ele><time>2026-04-25T08:31:14.094Z</time></trkpt><trkpt lat="41.8719017" lon="1.8070653"><ele>462.0</ele><time>2026-04-25T08:31:15.096Z</time></trkpt><trkpt lat="41.8718352" lon="1.8067077"><ele>459.5</ele><time>2026-04-25T08:31:16.094Z</time></trkpt><trkpt lat="41.8717612" lon="1.8063692"><ele>457.0</ele><time>2026-04-25T08:31:17.096Z</time></trkpt><trkpt lat="41.871658" lon="1.8060492"><ele>455.0</ele><time>2026-04-25T08:31:18.094Z</time></trkpt><trkpt lat="41.8715142" lon="1.8057223"><ele>453.0</ele><time>2026-04-25T08:31:19.095Z</time></trkpt><trkpt lat="41.8713662" lon="1.8054042"><ele>452.0</ele><time>2026-04-25T08:31:20.095Z</time></trkpt><trkpt lat="41.8712334" lon="1.8051092"><ele>451.0</ele><time>2026-04-25T08:31:21.096Z</time></trkpt><trkpt lat="41.8710873" lon="1.8048204"><ele>453.0</ele><time>2026-04-25T08:31:22.095Z</time></trkpt><trkpt lat="41.8709021" lon="1.8045454"><ele>455.0</ele><time>2026-04-25T08:31:23.094Z</time></trkpt><trkpt lat="41.8706949" lon="1.8042733"><ele>449.5</ele><time>2026-04-25T08:31:24.094Z</time></trkpt><trkpt lat="41.8704794" lon="1.8039876"><ele>444.0</ele><time>2026-04-25T08:31:25.094Z</time></trkpt><trkpt lat="41.8702734" lon="1.8037107"><ele>443.0</ele><time>2026-04-25T08:31:26.095Z</time></trkpt><trkpt lat="41.8700779" lon="1.8034527"><ele>442.0</ele><time>2026-04-25T08:31:27.095Z</time></trkpt><trkpt lat="41.8698908" lon="1.8032071"><ele>442.0</ele><time>2026-04-25T08:31:28.094Z</time></trkpt><trkpt lat="41.8697147" lon="1.8029774"><ele>442.0</ele><time>2026-04-25T08:31:29.095Z</time></trkpt><trkpt lat="41.8695497" lon="1.8027622"><ele>440.6666666666667</ele><time>2026-04-25T08:31:30.094Z</time></trkpt><trkpt lat="41.869405" lon="1.8025767"><ele>439.33333333333337</ele><time>2026-04-25T08:31:31.096Z</time></trkpt><trkpt lat="41.8692922" lon="1.8024193"><ele>438.0</ele><time>2026-04-25T08:31:32.095Z</time></trkpt><trkpt lat="41.869215" lon="1.802257"><ele>438.0</ele><time>2026-04-25T08:31:33.095Z</time></trkpt><trkpt lat="41.8691833" lon="1.802079"><ele>438.0</ele><time>2026-04-25T08:31:34.095Z</time></trkpt><trkpt lat="41.8691966" lon="1.8018675"><ele>438.0</ele><time>2026-04-25T08:31:35.095Z</time></trkpt><trkpt lat="41.8692411" lon="1.8016298"><ele>437.0</ele><time>2026-04-25T08:31:36.096Z</time></trkpt><trkpt lat="41.8692822" lon="1.801403"><ele>436.0</ele><time>2026-04-25T08:31:37.095Z</time></trkpt><trkpt lat="41.8692851" lon="1.8012175"><ele>435.0</ele><time>2026-04-25T08:31:38.096Z</time></trkpt><trkpt lat="41.8692356" lon="1.8010472"><ele>434.0</ele><time>2026-04-25T08:31:39.095Z</time></trkpt><trkpt lat="41.8691387" lon="1.8009173"><ele>434.0</ele><time>2026-04-25T08:31:40.095Z</time></trkpt><trkpt lat="41.868997" lon="1.8008482"><ele>434.0</ele><time>2026-04-25T08:31:41.094Z</time></trkpt><trkpt lat="41.8688187" lon="1.8008039"><ele>434.0</ele><time>2026-04-25T08:31:42.095Z</time></trkpt><trkpt lat="41.8686431" lon="1.800768"><ele>434.0</ele><time>2026-04-25T08:31:43.095Z</time></trkpt><trkpt lat="41.868478" lon="1.8007301"><ele>434.0</ele><time>2026-04-25T08:31:44.095Z</time></trkpt><trkpt lat="41.8683054" lon="1.8006891"><ele>434.0</ele><time>2026-04-25T08:31:45.095Z</time></trkpt><trkpt lat="41.8681259" lon="1.800637"><ele>434.5</ele><time>2026-04-25T08:31:46.096Z</time></trkpt><trkpt lat="41.8679268" lon="1.8005434"><ele>435.0</ele><time>2026-04-25T08:31:47.095Z</time></trkpt><trkpt lat="41.8676957" lon="1.8004001"><ele>436.0</ele><time>2026-04-25T08:31:48.096Z</time></trkpt><trkpt lat="41.8674353" lon="1.8002159"><ele>437.0</ele><time>2026-04-25T08:31:49.096Z</time></trkpt><trkpt lat="41.8671516" lon="1.8000031"><ele>437.0</ele><time>2026-04-25T08:31:50.094Z</time></trkpt><trkpt lat="41.8668894" lon="1.7998062"><ele>437.0</ele><time>2026-04-25T08:31:51.095Z</time></trkpt><trkpt lat="41.8666553" lon="1.7996355"><ele>433.5</ele><time>2026-04-25T08:31:52.095Z</time></trkpt><trkpt lat="41.8664404" lon="1.7995005"><ele>430.0</ele><time>2026-04-25T08:31:53.094Z</time></trkpt><trkpt lat="41.8662245" lon="1.7994332"><ele>430.0</ele><time>2026-04-25T08:31:54.094Z</time></trkpt><trkpt lat="41.8659812" lon="1.7994338"><ele>430.0</ele><time>2026-04-25T08:31:55.095Z</time></trkpt><trkpt lat="41.8657124" lon="1.7994918"><ele>428.0</ele><time>2026-04-25T08:31:56.094Z</time></trkpt><trkpt lat="41.8654284" lon="1.7996109"><ele>426.0</ele><time>2026-04-25T08:31:57.095Z</time></trkpt><trkpt lat="41.8651272" lon="1.7997692"><ele>428.5</ele><time>2026-04-25T08:31:58.095Z</time></trkpt><trkpt lat="41.8648575" lon="1.7999102"><ele>431.0</ele><time>2026-04-25T08:31:59.095Z</time></trkpt><trkpt lat="41.8646187" lon="1.800039"><ele>431.0</ele><time>2026-04-25T08:32:00.094Z</time></trkpt><trkpt lat="41.8644284" lon="1.800138"><ele>431.0</ele><time>2026-04-25T08:32:01.096Z</time></trkpt><trkpt lat="41.864267" lon="1.8002066"><ele>431.0</ele><time>2026-04-25T08:32:02.094Z</time></trkpt><trkpt lat="41.8641124" lon="1.8002128"><ele>432.3333333333333</ele><time>2026-04-25T08:32:03.094Z</time></trkpt><trkpt lat="41.8639591" lon="1.8001352"><ele>433.66666666666663</ele><time>2026-04-25T08:32:04.096Z</time></trkpt><trkpt lat="41.8638006" lon="1.7999915"><ele>435.0</ele><time>2026-04-25T08:32:05.095Z</time></trkpt><trkpt lat="41.8636836" lon="1.7998266"><ele>435.0</ele><time>2026-04-25T08:32:06.095Z</time></trkpt><trkpt lat="41.8636065" lon="1.7996129"><ele>435.0</ele><time>2026-04-25T08:32:07.095Z</time></trkpt><trkpt lat="41.8635642" lon="1.7993288"><ele>435.0</ele><time>2026-04-25T08:32:08.095Z</time></trkpt><trkpt lat="41.8635311" lon="1.7990039"><ele>432.0</ele><time>2026-04-25T08:32:09.095Z</time></trkpt><trkpt lat="41.863481" lon="1.7986702"><ele>429.0</ele><time>2026-04-25T08:32:10.095Z</time></trkpt><trkpt lat="41.8633918" lon="1.7983587"><ele>429.0</ele><time>2026-04-25T08:32:11.095Z</time></trkpt><trkpt lat="41.8632697" lon="1.7980875"><ele>429.0</ele><time>2026-04-25T08:32:12.096Z</time></trkpt><trkpt lat="41.8630998" lon="1.7978392"><ele>432.5</ele><time>2026-04-25T08:32:13.095Z</time></trkpt><trkpt lat="41.8628862" lon="1.7976065"><ele>436.0</ele><time>2026-04-25T08:32:14.095Z</time></trkpt><trkpt lat="41.8626723" lon="1.7973903"><ele>426.5</ele><time>2026-04-25T08:32:15.095Z</time></trkpt><trkpt lat="41.8624812" lon="1.797215"><ele>417.0</ele><time>2026-04-25T08:32:16.096Z</time></trkpt><trkpt lat="41.8622745" lon="1.7970852"><ele>417.0</ele><time>2026-04-25T08:32:17.095Z</time></trkpt><trkpt lat="41.8620292" lon="1.7970096"><ele>417.0</ele><time>2026-04-25T08:32:18.095Z</time></trkpt><trkpt lat="41.8617875" lon="1.7969438"><ele>419.5</ele><time>2026-04-25T08:32:19.095Z</time></trkpt><trkpt lat="41.8615624" lon="1.7968448"><ele>422.0</ele><time>2026-04-25T08:32:20.095Z</time></trkpt><trkpt lat="41.8613196" lon="1.7966812"><ele>422.0</ele><time>2026-04-25T08:32:21.095Z</time></trkpt><trkpt lat="41.8610859" lon="1.7964971"><ele>422.0</ele><time>2026-04-25T08:32:22.095Z</time></trkpt><trkpt lat="41.8608891" lon="1.796341"><ele>421.3333333333333</ele><time>2026-04-25T08:32:23.095Z</time></trkpt><trkpt lat="41.8607269" lon="1.7962054"><ele>420.66666666666663</ele><time>2026-04-25T08:32:24.094Z</time></trkpt><trkpt lat="41.8606132" lon="1.7960564"><ele>420.0</ele><time>2026-04-25T08:32:25.094Z</time></trkpt><trkpt lat="41.8605556" lon="1.7958652"><ele>420.0</ele><time>2026-04-25T08:32:26.095Z</time></trkpt><trkpt lat="41.8605565" lon="1.7956243"><ele>420.0</ele><time>2026-04-25T08:32:27.095Z</time></trkpt><trkpt lat="41.8605833" lon="1.7953362"><ele>420.0</ele><time>2026-04-25T08:32:28.095Z</time></trkpt><trkpt lat="41.8605947" lon="1.7950732"><ele>419.33333333333337</ele><time>2026-04-25T08:32:29.095Z</time></trkpt><trkpt lat="41.8605653" lon="1.7948345"><ele>418.6666666666667</ele><time>2026-04-25T08:32:30.095Z</time></trkpt><trkpt lat="41.8604693" lon="1.7946041"><ele>418.0</ele><time>2026-04-25T08:32:31.095Z</time></trkpt><trkpt lat="41.8603131" lon="1.7943867"><ele>416.5</ele><time>2026-04-25T08:32:32.094Z</time></trkpt><trkpt lat="41.8601155" lon="1.7941917"><ele>415.0</ele><time>2026-04-25T08:32:33.095Z</time></trkpt><trkpt lat="41.8599281" lon="1.79404"><ele>415.0</ele><time>2026-04-25T08:32:34.095Z</time></trkpt><trkpt lat="41.8597442" lon="1.7939252"><ele>415.0</ele><time>2026-04-25T08:32:35.096Z</time></trkpt><trkpt lat="41.8595753" lon="1.7938439"><ele>415.0</ele><time>2026-04-25T08:32:36.095Z</time></trkpt><trkpt lat="41.8594273" lon="1.7937728"><ele>415.0</ele><time>2026-04-25T08:32:37.095Z</time></trkpt><trkpt lat="41.8593121" lon="1.7936729"><ele>415.0</ele><time>2026-04-25T08:32:38.095Z</time></trkpt><trkpt lat="41.8592402" lon="1.7935356"><ele>415.0</ele><time>2026-04-25T08:32:39.095Z</time></trkpt><trkpt lat="41.8591949" lon="1.7933496"><ele>415.0</ele><time>2026-04-25T08:32:40.096Z</time></trkpt><trkpt lat="41.8591742" lon="1.793105"><ele>413.5</ele><time>2026-04-25T08:32:41.095Z</time></trkpt><trkpt lat="41.8591539" lon="1.7928151"><ele>412.0</ele><time>2026-04-25T08:32:42.095Z</time></trkpt><trkpt lat="41.8590911" lon="1.7924841"><ele>412.0</ele><time>2026-04-25T08:32:43.094Z</time></trkpt><trkpt lat="41.8590125" lon="1.7921477"><ele>412.0</ele><time>2026-04-25T08:32:44.095Z</time></trkpt><trkpt lat="41.8589506" lon="1.7918718"><ele>410.6666666666667</ele><time>2026-04-25T08:32:45.095Z</time></trkpt><trkpt lat="41.8588967" lon="1.7916455"><ele>409.33333333333337</ele><time>2026-04-25T08:32:46.094Z</time></trkpt><trkpt lat="41.8588286" lon="1.7914671"><ele>408.0</ele><time>2026-04-25T08:32:47.095Z</time></trkpt><trkpt lat="41.8587099" lon="1.7913478"><ele>408.0</ele><time>2026-04-25T08:32:48.095Z</time></trkpt><trkpt lat="41.8585286" lon="1.791269"><ele>408.0</ele><time>2026-04-25T08:32:49.095Z</time></trkpt><trkpt lat="41.8583005" lon="1.7912117"><ele>408.0</ele><time>2026-04-25T08:32:50.094Z</time></trkpt><trkpt lat="41.8580385" lon="1.7911938"><ele>406.0</ele><time>2026-04-25T08:32:51.094Z</time></trkpt><trkpt lat="41.8578207" lon="1.7912044"><ele>404.0</ele><time>2026-04-25T08:32:52.095Z</time></trkpt><trkpt lat="41.8576276" lon="1.7912118"><ele>402.0</ele><time>2026-04-25T08:32:53.094Z</time></trkpt><trkpt lat="41.8574449" lon="1.7911746"><ele>400.66666666666663</ele><time>2026-04-25T08:32:54.094Z</time></trkpt><trkpt lat="41.857247" lon="1.791054"><ele>399.3333333333333</ele><time>2026-04-25T08:32:55.095Z</time></trkpt><trkpt lat="41.8570584" lon="1.7909013"><ele>398.0</ele><time>2026-04-25T08:32:56.095Z</time></trkpt><trkpt lat="41.8569214" lon="1.7907604"><ele>397.66666666666663</ele><time>2026-04-25T08:32:57.095Z</time></trkpt><trkpt lat="41.8568244" lon="1.790605"><ele>397.33333333333337</ele><time>2026-04-25T08:32:58.095Z</time></trkpt><trkpt lat="41.8567865" lon="1.7904029"><ele>397.0</ele><time>2026-04-25T08:32:59.095Z</time></trkpt><trkpt lat="41.8567795" lon="1.7901455"><ele>397.0</ele><time>2026-04-25T08:33:00.095Z</time></trkpt><trkpt lat="41.8567307" lon="1.7898452"><ele>397.0</ele><time>2026-04-25T08:33:01.095Z</time></trkpt><trkpt lat="41.8566467" lon="1.7894941"><ele>400.0</ele><time>2026-04-25T08:33:02.095Z</time></trkpt><trkpt lat="41.8565615" lon="1.7891766"><ele>403.0</ele><time>2026-04-25T08:33:03.095Z</time></trkpt><trkpt lat="41.8564892" lon="1.7889277"><ele>403.0</ele><time>2026-04-25T08:33:04.095Z</time></trkpt><trkpt lat="41.8564001" lon="1.7887329"><ele>403.0</ele><time>2026-04-25T08:33:05.095Z</time></trkpt><trkpt lat="41.8562576" lon="1.7885908"><ele>403.0</ele><time>2026-04-25T08:33:06.096Z</time></trkpt><trkpt lat="41.8560642" lon="1.7884909"><ele>401.0</ele><time>2026-04-25T08:33:07.095Z</time></trkpt><trkpt lat="41.8558122" lon="1.7884132"><ele>399.0</ele><time>2026-04-25T08:33:08.095Z</time></trkpt><trkpt lat="41.855542" lon="1.7883099"><ele>399.0</ele><time>2026-04-25T08:33:09.096Z</time></trkpt><trkpt lat="41.8552972" lon="1.7882123"><ele>399.0</ele><time>2026-04-25T08:33:10.094Z</time></trkpt><trkpt lat="41.8550882" lon="1.7881377"><ele>395.66666666666663</ele><time>2026-04-25T08:33:11.096Z</time></trkpt><trkpt lat="41.8549034" lon="1.7880742"><ele>392.3333333333333</ele><time>2026-04-25T08:33:12.094Z</time></trkpt><trkpt lat="41.8547505" lon="1.7879879"><ele>389.0</ele><time>2026-04-25T08:33:13.095Z</time></trkpt><trkpt lat="41.8546392" lon="1.7878397"><ele>390.3333333333333</ele><time>2026-04-25T08:33:14.095Z</time></trkpt><trkpt lat="41.8545643" lon="1.7876282"><ele>391.66666666666663</ele><time>2026-04-25T08:33:15.094Z</time></trkpt><trkpt lat="41.854493" lon="1.7873729"><ele>393.0</ele><time>2026-04-25T08:33:16.095Z</time></trkpt><trkpt lat="41.8543918" lon="1.7871681"><ele>390.66666666666663</ele><time>2026-04-25T08:33:17.095Z</time></trkpt><trkpt lat="41.85423" lon="1.7869997"><ele>388.3333333333333</ele><time>2026-04-25T08:33:18.096Z</time></trkpt><trkpt lat="41.8540627" lon="1.7868452"><ele>386.0</ele><time>2026-04-25T08:33:19.094Z</time></trkpt><trkpt lat="41.8539312" lon="1.7867171"><ele>386.0</ele><time>2026-04-25T08:33:20.095Z</time></trkpt><trkpt lat="41.8538392" lon="1.7865522"><ele>386.0</ele><time>2026-04-25T08:33:21.095Z</time></trkpt><trkpt lat="41.8538016" lon="1.7863511"><ele>386.0</ele><time>2026-04-25T08:33:22.095Z</time></trkpt><trkpt lat="41.853809" lon="1.7860854"><ele>384.3333333333333</ele><time>2026-04-25T08:33:23.095Z</time></trkpt><trkpt lat="41.8538275" lon="1.7858268"><ele>382.66666666666663</ele><time>2026-04-25T08:33:24.095Z</time></trkpt><trkpt lat="41.8538756" lon="1.7855893"><ele>381.0</ele><time>2026-04-25T08:33:25.096Z</time></trkpt><trkpt lat="41.8539853" lon="1.7853639"><ele>378.0</ele><time>2026-04-25T08:33:26.094Z</time></trkpt><trkpt lat="41.8541412" lon="1.7851165"><ele>375.0</ele><time>2026-04-25T08:33:27.095Z</time></trkpt><trkpt lat="41.8543127" lon="1.7848488"><ele>376.0</ele><time>2026-04-25T08:33:28.095Z</time></trkpt><trkpt lat="41.8544644" lon="1.7846225"><ele>377.0</ele><time>2026-04-25T08:33:29.096Z</time></trkpt><trkpt lat="41.8545959" lon="1.784412"><ele>378.0</ele><time>2026-04-25T08:33:30.095Z</time></trkpt><trkpt lat="41.8546863" lon="1.7841728"><ele>378.0</ele><time>2026-04-25T08:33:31.095Z</time></trkpt><trkpt lat="41.854746" lon="1.7838706"><ele>378.0</ele><time>2026-04-25T08:33:32.095Z</time></trkpt><trkpt lat="41.8548047" lon="1.7835432"><ele>375.0</ele><time>2026-04-25T08:33:33.095Z</time></trkpt><trkpt lat="41.8548858" lon="1.7832678"><ele>372.0</ele><time>2026-04-25T08:33:34.095Z</time></trkpt><trkpt lat="41.8549651" lon="1.7830337"><ele>369.0</ele><time>2026-04-25T08:33:35.094Z</time></trkpt><trkpt lat="41.8549977" lon="1.7828152"><ele>367.3333333333333</ele><time>2026-04-25T08:33:36.095Z</time></trkpt><trkpt lat="41.8549786" lon="1.7826065"><ele>365.66666666666663</ele><time>2026-04-25T08:33:37.095Z</time></trkpt><trkpt lat="41.8549009" lon="1.7823848"><ele>364.0</ele><time>2026-04-25T08:33:38.095Z</time></trkpt><trkpt lat="41.8547882" lon="1.7821501"><ele>364.0</ele><time>2026-04-25T08:33:39.095Z</time></trkpt><trkpt lat="41.8546785" lon="1.7819675"><ele>364.0</ele><time>2026-04-25T08:33:40.095Z</time></trkpt><trkpt lat="41.8545364" lon="1.7818402"><ele>364.0</ele><time>2026-04-25T08:33:41.094Z</time></trkpt><trkpt lat="41.8543575" lon="1.7817673"><ele>367.0</ele><time>2026-04-25T08:33:42.096Z</time></trkpt><trkpt lat="41.8541377" lon="1.781756"><ele>370.0</ele><time>2026-04-25T08:33:43.095Z</time></trkpt><trkpt lat="41.853899" lon="1.7817897"><ele>370.0</ele><time>2026-04-25T08:33:44.095Z</time></trkpt><trkpt lat="41.8536986" lon="1.7818232"><ele>370.0</ele><time>2026-04-25T08:33:45.094Z</time></trkpt><trkpt lat="41.8534886" lon="1.7817879"><ele>370.0</ele><time>2026-04-25T08:33:46.094Z</time></trkpt><trkpt lat="41.8532537" lon="1.7816912"><ele>369.5</ele><time>2026-04-25T08:33:47.094Z</time></trkpt><trkpt lat="41.8530262" lon="1.7815782"><ele>369.0</ele><time>2026-04-25T08:33:48.096Z</time></trkpt><trkpt lat="41.8528269" lon="1.7814886"><ele>369.0</ele><time>2026-04-25T08:33:49.095Z</time></trkpt><trkpt lat="41.852614" lon="1.7814519"><ele>369.0</ele><time>2026-04-25T08:33:50.094Z</time></trkpt><trkpt lat="41.8523811" lon="1.7814831"><ele>369.0</ele><time>2026-04-25T08:33:51.095Z</time></trkpt><trkpt lat="41.8521246" lon="1.781578"><ele>369.0</ele><time>2026-04-25T08:33:52.095Z</time></trkpt><trkpt lat="41.8519091" lon="1.7816556"><ele>369.0</ele><time>2026-04-25T08:33:53.095Z</time></trkpt><trkpt lat="41.85172" lon="1.781688"><ele>369.0</ele><time>2026-04-25T08:33:54.095Z</time></trkpt><trkpt lat="41.8515283" lon="1.7816876"><ele>369.5</ele><time>2026-04-25T08:33:55.095Z</time></trkpt><trkpt lat="41.8513001" lon="1.7816541"><ele>370.0</ele><time>2026-04-25T08:33:56.096Z</time></trkpt><trkpt lat="41.8510402" lon="1.7816189"><ele>370.5</ele><time>2026-04-25T08:33:57.094Z</time></trkpt><trkpt lat="41.8507956" lon="1.7815829"><ele>371.0</ele><time>2026-04-25T08:33:58.095Z</time></trkpt><trkpt lat="41.8505712" lon="1.7815397"><ele>371.0</ele><time>2026-04-25T08:33:59.095Z</time></trkpt><trkpt lat="41.8503425" lon="1.7814485"><ele>371.0</ele><time>2026-04-25T08:34:00.095Z</time></trkpt><trkpt lat="41.8501039" lon="1.7813028"><ele>369.0</ele><time>2026-04-25T08:34:01.096Z</time></trkpt><trkpt lat="41.84985" lon="1.7811329"><ele>367.0</ele><time>2026-04-25T08:34:02.095Z</time></trkpt><trkpt lat="41.849603" lon="1.7809591"><ele>367.0</ele><time>2026-04-25T08:34:03.095Z</time></trkpt><trkpt lat="41.8493985" lon="1.7808139"><ele>367.0</ele><time>2026-04-25T08:34:04.096Z</time></trkpt><trkpt lat="41.8492253" lon="1.7806711"><ele>367.0</ele><time>2026-04-25T08:34:05.096Z</time></trkpt><trkpt lat="41.8490848" lon="1.7805036"><ele>367.0</ele><time>2026-04-25T08:34:06.096Z</time></trkpt><trkpt lat="41.8489662" lon="1.7802652"><ele>367.0</ele><time>2026-04-25T08:34:07.095Z</time></trkpt><trkpt lat="41.8488775" lon="1.7800025"><ele>367.0</ele><time>2026-04-25T08:34:08.096Z</time></trkpt><trkpt lat="41.8487848" lon="1.7797785"><ele>369.66666666666663</ele><time>2026-04-25T08:34:09.097Z</time></trkpt><trkpt lat="41.8486504" lon="1.7795868"><ele>372.3333333333333</ele><time>2026-04-25T08:34:10.096Z</time></trkpt><trkpt lat="41.8484486" lon="1.779465"><ele>375.0</ele><time>2026-04-25T08:34:11.096Z</time></trkpt><trkpt lat="41.848212" lon="1.7793506"><ele>373.5</ele><time>2026-04-25T08:34:12.097Z</time></trkpt><trkpt lat="41.8479395" lon="1.7792263"><ele>372.0</ele><time>2026-04-25T08:34:13.096Z</time></trkpt><trkpt lat="41.8476871" lon="1.7791058"><ele>366.0</ele><time>2026-04-25T08:34:14.096Z</time></trkpt><trkpt lat="41.8474497" lon="1.7789773"><ele>360.0</ele><time>2026-04-25T08:34:15.095Z</time></trkpt><trkpt lat="41.8472402" lon="1.7788353"><ele>360.0</ele><time>2026-04-25T08:34:16.097Z</time></trkpt><trkpt lat="41.8470492" lon="1.7786842"><ele>360.0</ele><time>2026-04-25T08:34:17.096Z</time></trkpt><trkpt lat="41.8468824" lon="1.778502"><ele>360.0</ele><time>2026-04-25T08:34:18.096Z</time></trkpt><trkpt lat="41.8467496" lon="1.7782676"><ele>361.6666666666667</ele><time>2026-04-25T08:34:19.095Z</time></trkpt><trkpt lat="41.8466108" lon="1.7780469"><ele>363.33333333333337</ele><time>2026-04-25T08:34:20.097Z</time></trkpt><trkpt lat="41.8464247" lon="1.7778656"><ele>365.0</ele><time>2026-04-25T08:34:21.095Z</time></trkpt><trkpt lat="41.8462121" lon="1.7777021"><ele>363.0</ele><time>2026-04-25T08:34:22.095Z</time></trkpt><trkpt lat="41.8460372" lon="1.7775617"><ele>361.0</ele><time>2026-04-25T08:34:23.096Z</time></trkpt><trkpt lat="41.8459013" lon="1.7773838"><ele>359.0</ele><time>2026-04-25T08:34:24.095Z</time></trkpt><trkpt lat="41.8457819" lon="1.7771551"><ele>359.0</ele><time>2026-04-25T08:34:25.096Z</time></trkpt><trkpt lat="41.8456204" lon="1.7769705"><ele>359.0</ele><time>2026-04-25T08:34:26.096Z</time></trkpt><trkpt lat="41.8454511" lon="1.7767983"><ele>359.0</ele><time>2026-04-25T08:34:27.096Z</time></trkpt><trkpt lat="41.8453225" lon="1.7766496"><ele>356.25</ele><time>2026-04-25T08:34:28.096Z</time></trkpt><trkpt lat="41.845243" lon="1.7764776"><ele>353.5</ele><time>2026-04-25T08:34:29.096Z</time></trkpt><trkpt lat="41.8452117" lon="1.7762851"><ele>350.75</ele><time>2026-04-25T08:34:30.096Z</time></trkpt><trkpt lat="41.8451654" lon="1.776134"><ele>348.0</ele><time>2026-04-25T08:34:31.096Z</time></trkpt><trkpt lat="41.8450695" lon="1.7760319"><ele>348.0</ele><time>2026-04-25T08:34:32.095Z</time></trkpt><trkpt lat="41.8449325" lon="1.7760011"><ele>348.0</ele><time>2026-04-25T08:34:33.097Z</time></trkpt><trkpt lat="41.8447918" lon="1.7759879"><ele>348.0</ele><time>2026-04-25T08:34:34.095Z</time></trkpt><trkpt lat="41.8445256" lon="1.7760951"><ele>348.0</ele><time>2026-04-25T08:34:35.096Z</time></trkpt><trkpt lat="41.844302" lon="1.776152"><ele>348.0</ele><time>2026-04-25T08:34:36.096Z</time></trkpt><trkpt lat="41.8441198" lon="1.7762014"><ele>348.0</ele><time>2026-04-25T08:34:37.096Z</time></trkpt><trkpt lat="41.8439661" lon="1.7762286"><ele>349.75</ele><time>2026-04-25T08:34:38.096Z</time></trkpt><trkpt lat="41.8438326" lon="1.7761955"><ele>351.5</ele><time>2026-04-25T08:34:39.096Z</time></trkpt><trkpt lat="41.8437266" lon="1.7760801"><ele>353.25</ele><time>2026-04-25T08:34:40.096Z</time></trkpt><trkpt lat="41.8436439" lon="1.7758816"><ele>355.0</ele><time>2026-04-25T08:34:41.095Z</time></trkpt><trkpt lat="41.8435841" lon="1.775608"><ele>355.0</ele><time>2026-04-25T08:34:42.096Z</time></trkpt><trkpt lat="41.8435193" lon="1.77534"><ele>355.0</ele><time>2026-04-25T08:34:43.097Z</time></trkpt><trkpt lat="41.8434178" lon="1.7751142"><ele>355.0</ele><time>2026-04-25T08:34:44.095Z</time></trkpt><trkpt lat="41.8432619" lon="1.7748807"><ele>353.5</ele><time>2026-04-25T08:34:45.096Z</time></trkpt><trkpt lat="41.8430803" lon="1.7746105"><ele>352.0</ele><time>2026-04-25T08:34:46.096Z</time></trkpt><trkpt lat="41.8429301" lon="1.7742849"><ele>352.0</ele><time>2026-04-25T08:34:47.096Z</time></trkpt><trkpt lat="41.842787" lon="1.7739144"><ele>352.0</ele><time>2026-04-25T08:34:48.096Z</time></trkpt><trkpt lat="41.8426504" lon="1.7735395"><ele>341.0</ele><time>2026-04-25T08:34:49.096Z</time></trkpt><trkpt lat="41.8425324" lon="1.7731917"><ele>330.0</ele><time>2026-04-25T08:34:50.095Z</time></trkpt><trkpt lat="41.8424371" lon="1.7728696"><ele>331.3333333333333</ele><time>2026-04-25T08:34:51.096Z</time></trkpt><trkpt lat="41.8423726" lon="1.7726057"><ele>332.66666666666663</ele><time>2026-04-25T08:34:52.096Z</time></trkpt><trkpt lat="41.8422893" lon="1.772366"><ele>334.0</ele><time>2026-04-25T08:34:53.096Z</time></trkpt><trkpt lat="41.8421579" lon="1.7721693"><ele>334.0</ele><time>2026-04-25T08:34:54.095Z</time></trkpt><trkpt lat="41.8420165" lon="1.7720252"><ele>334.0</ele><time>2026-04-25T08:34:55.096Z</time></trkpt><trkpt lat="41.8418387" lon="1.7719551"><ele>334.0</ele><time>2026-04-25T08:34:56.096Z</time></trkpt><trkpt lat="41.8416172" lon="1.7719291"><ele>326.5</ele><time>2026-04-25T08:34:57.096Z</time></trkpt><trkpt lat="41.8413687" lon="1.7719142"><ele>319.0</ele><time>2026-04-25T08:34:58.096Z</time></trkpt><trkpt lat="41.8411394" lon="1.7719019"><ele>315.5</ele><time>2026-04-25T08:34:59.096Z</time></trkpt><trkpt lat="41.8408982" lon="1.7719648"><ele>312.0</ele><time>2026-04-25T08:35:00.096Z</time></trkpt><trkpt lat="41.8406986" lon="1.7720399"><ele>312.0</ele><time>2026-04-25T08:35:01.096Z</time></trkpt><trkpt lat="41.8405297" lon="1.7720859"><ele>312.0</ele><time>2026-04-25T08:35:02.096Z</time></trkpt><trkpt lat="41.8403743" lon="1.7720662"><ele>312.0</ele><time>2026-04-25T08:35:03.095Z</time></trkpt><trkpt lat="41.8402061" lon="1.7719616"><ele>317.5</ele><time>2026-04-25T08:35:04.096Z</time></trkpt><trkpt lat="41.8400305" lon="1.7717966"><ele>323.0</ele><time>2026-04-25T08:35:05.096Z</time></trkpt><trkpt lat="41.8398579" lon="1.771575"><ele>323.0</ele><time>2026-04-25T08:35:06.095Z</time></trkpt><trkpt lat="41.8396984" lon="1.7712904"><ele>323.0</ele><time>2026-04-25T08:35:07.097Z</time></trkpt><trkpt lat="41.8395625" lon="1.7710522"><ele>326.0</ele><time>2026-04-25T08:35:08.095Z</time></trkpt><trkpt lat="41.8394617" lon="1.7708436"><ele>329.0</ele><time>2026-04-25T08:35:09.096Z</time></trkpt><trkpt lat="41.8394155" lon="1.7706163"><ele>332.0</ele><time>2026-04-25T08:35:10.097Z</time></trkpt><trkpt lat="41.839374" lon="1.7703436"><ele>323.5</ele><time>2026-04-25T08:35:11.096Z</time></trkpt><trkpt lat="41.8392734" lon="1.7700515"><ele>315.0</ele><time>2026-04-25T08:35:12.096Z</time></trkpt><trkpt lat="41.8391493" lon="1.7697163"><ele>319.5</ele><time>2026-04-25T08:35:13.096Z</time></trkpt><trkpt lat="41.8389989" lon="1.7693335"><ele>324.0</ele><time>2026-04-25T08:35:14.096Z</time></trkpt><trkpt lat="41.8388466" lon="1.7689541"><ele>324.0</ele><time>2026-04-25T08:35:15.096Z</time></trkpt><trkpt lat="41.838722" lon="1.7686297"><ele>324.0</ele><time>2026-04-25T08:35:16.096Z</time></trkpt><trkpt lat="41.8386105" lon="1.7683407"><ele>325.6666666666667</ele><time>2026-04-25T08:35:17.096Z</time></trkpt><trkpt lat="41.8385118" lon="1.7681076"><ele>327.33333333333337</ele><time>2026-04-25T08:35:18.096Z</time></trkpt><trkpt lat="41.8383916" lon="1.7679279"><ele>329.0</ele><time>2026-04-25T08:35:19.096Z</time></trkpt><trkpt lat="41.8382405" lon="1.7678058"><ele>322.6666666666667</ele><time>2026-04-25T08:35:20.096Z</time></trkpt><trkpt lat="41.8380568" lon="1.7677311"><ele>316.3333333333333</ele><time>2026-04-25T08:35:21.097Z</time></trkpt><trkpt lat="41.8378429" lon="1.7677132"><ele>310.0</ele><time>2026-04-25T08:35:22.096Z</time></trkpt><trkpt lat="41.8375903" lon="1.7677592"><ele>307.66666666666663</ele><time>2026-04-25T08:35:23.096Z</time></trkpt><trkpt lat="41.8373619" lon="1.7678255"><ele>305.3333333333333</ele><time>2026-04-25T08:35:24.097Z</time></trkpt><trkpt lat="41.8371531" lon="1.7678621"><ele>303.0</ele><time>2026-04-25T08:35:25.096Z</time></trkpt><trkpt lat="41.8369525" lon="1.7678581"><ele>302.0</ele><time>2026-04-25T08:35:26.096Z</time></trkpt><trkpt lat="41.8367633" lon="1.7678226"><ele>301.0</ele><time>2026-04-25T08:35:27.096Z</time></trkpt><trkpt lat="41.8365793" lon="1.7677461"><ele>300.0</ele><time>2026-04-25T08:35:28.097Z</time></trkpt><trkpt lat="41.8364016" lon="1.7675936"><ele>302.3333333333333</ele><time>2026-04-25T08:35:29.096Z</time></trkpt><trkpt lat="41.8362621" lon="1.7674286"><ele>304.66666666666663</ele><time>2026-04-25T08:35:30.096Z</time></trkpt><trkpt lat="41.8361527" lon="1.7672391"><ele>307.0</ele><time>2026-04-25T08:35:31.095Z</time></trkpt><trkpt lat="41.8360679" lon="1.7670076"><ele>309.3333333333333</ele><time>2026-04-25T08:35:32.095Z</time></trkpt><trkpt lat="41.8360187" lon="1.7667729"><ele>311.6666666666667</ele><time>2026-04-25T08:35:33.097Z</time></trkpt><trkpt lat="41.8359942" lon="1.7665423"><ele>314.0</ele><time>2026-04-25T08:35:34.096Z</time></trkpt><trkpt lat="41.8359867" lon="1.7663113"><ele>314.0</ele><time>2026-04-25T08:35:35.095Z</time></trkpt><trkpt lat="41.835978" lon="1.7660916"><ele>314.0</ele><time>2026-04-25T08:35:36.096Z</time></trkpt><trkpt lat="41.835961" lon="1.765887"><ele>314.0</ele><time>2026-04-25T08:35:37.096Z</time></trkpt><trkpt lat="41.835928" lon="1.7656989"><ele>310.75</ele><time>2026-04-25T08:35:38.096Z</time></trkpt><trkpt lat="41.8358757" lon="1.7655257"><ele>307.5</ele><time>2026-04-25T08:35:39.095Z</time></trkpt><trkpt lat="41.8358081" lon="1.7653767"><ele>304.25</ele><time>2026-04-25T08:35:40.095Z</time></trkpt><trkpt lat="41.8357389" lon="1.765235"><ele>301.0</ele><time>2026-04-25T08:35:41.096Z</time></trkpt><trkpt lat="41.835676" lon="1.7650974"><ele>300.25</ele><time>2026-04-25T08:35:42.097Z</time></trkpt><trkpt lat="41.8356207" lon="1.7649563"><ele>299.5</ele><time>2026-04-25T08:35:43.096Z</time></trkpt><trkpt lat="41.8355601" lon="1.7648248"><ele>298.75</ele><time>2026-04-25T08:35:44.095Z</time></trkpt><trkpt lat="41.8355027" lon="1.7646953"><ele>298.0</ele><time>2026-04-25T08:35:45.096Z</time></trkpt><trkpt lat="41.8354422" lon="1.7645754"><ele>298.0</ele><time>2026-04-25T08:35:46.096Z</time></trkpt><trkpt lat="41.8353878" lon="1.7644581"><ele>298.0</ele><time>2026-04-25T08:35:47.095Z</time></trkpt><trkpt lat="41.8353437" lon="1.7643452"><ele>298.0</ele><time>2026-04-25T08:35:48.096Z</time></trkpt><trkpt lat="41.8352993" lon="1.7642436"><ele>298.0</ele><time>2026-04-25T08:35:49.096Z</time></trkpt><trkpt lat="41.8352577" lon="1.7641488"><ele>298.0</ele><time>2026-04-25T08:35:50.096Z</time></trkpt><trkpt lat="41.8352196" lon="1.764058"><ele>298.0</ele><time>2026-04-25T08:35:51.097Z</time></trkpt><trkpt lat="41.8351858" lon="1.7639698"><ele>298.3333333333333</ele><time>2026-04-25T08:35:52.097Z</time></trkpt><trkpt lat="41.835155" lon="1.7638898"><ele>298.66666666666663</ele><time>2026-04-25T08:35:53.096Z</time></trkpt><trkpt lat="41.8350956" lon="1.7637558"><ele>299.0</ele><time>2026-04-25T08:35:55.096Z</time></trkpt><trkpt lat="41.8350598" lon="1.7636565"><ele>299.3333333333333</ele><time>2026-04-25T08:35:57.096Z</time></trkpt><trkpt lat="41.8350215" lon="1.7635854"><ele>299.6666666666667</ele><time>2026-04-25T08:35:59.095Z</time></trkpt><trkpt lat="41.8349541" lon="1.7635166"><ele>300.0</ele><time>2026-04-25T08:38:56.095Z</time></trkpt><trkpt lat="41.834884" lon="1.7634129"><ele>298.6</ele><time>2026-04-25T08:38:58.096Z</time></trkpt><trkpt lat="41.834845" lon="1.7633273"><ele>297.2</ele><time>2026-04-25T08:38:59.095Z</time></trkpt><trkpt lat="41.8347968" lon="1.7632309"><ele>295.8</ele><time>2026-04-25T08:39:00.096Z</time></trkpt><trkpt lat="41.834744" lon="1.7631249"><ele>294.4</ele><time>2026-04-25T08:39:01.096Z</time></trkpt><trkpt lat="41.8346877" lon="1.7630115"><ele>293.0</ele><time>2026-04-25T08:39:02.096Z</time></trkpt><trkpt lat="41.83463" lon="1.7628956"><ele>293.0</ele><time>2026-04-25T08:39:03.096Z</time></trkpt><trkpt lat="41.8345706" lon="1.7627764"><ele>293.0</ele><time>2026-04-25T08:39:04.096Z</time></trkpt><trkpt lat="41.8345116" lon="1.7626514"><ele>293.0</ele><time>2026-04-25T08:39:05.096Z</time></trkpt><trkpt lat="41.8344517" lon="1.7625277"><ele>293.0</ele><time>2026-04-25T08:39:06.095Z</time></trkpt><trkpt lat="41.834395" lon="1.7624026"><ele>293.0</ele><time>2026-04-25T08:39:07.096Z</time></trkpt><trkpt lat="41.8343389" lon="1.7622751"><ele>293.0</ele><time>2026-04-25T08:39:08.096Z</time></trkpt><trkpt lat="41.834282" lon="1.7621444"><ele>293.0</ele><time>2026-04-25T08:39:09.095Z</time></trkpt><trkpt lat="41.8342296" lon="1.7620103"><ele>293.0</ele><time>2026-04-25T08:39:10.096Z</time></trkpt><trkpt lat="41.8341752" lon="1.7618753"><ele>293.0</ele><time>2026-04-25T08:39:11.097Z</time></trkpt><trkpt lat="41.8341274" lon="1.7617384"><ele>293.0</ele><time>2026-04-25T08:39:12.096Z</time></trkpt><trkpt lat="41.8340818" lon="1.7615989"><ele>293.0</ele><time>2026-04-25T08:39:13.096Z</time></trkpt><trkpt lat="41.8340383" lon="1.7614582"><ele>293.0</ele><time>2026-04-25T08:39:14.095Z</time></trkpt><trkpt lat="41.8339994" lon="1.761319"><ele>293.0</ele><time>2026-04-25T08:39:15.096Z</time></trkpt><trkpt lat="41.8339577" lon="1.7611745"><ele>293.5</ele><time>2026-04-25T08:39:16.097Z</time></trkpt><trkpt lat="41.833916" lon="1.7610311"><ele>294.0</ele><time>2026-04-25T08:39:17.096Z</time></trkpt><trkpt lat="41.8338756" lon="1.7608904"><ele>294.5</ele><time>2026-04-25T08:39:18.096Z</time></trkpt><trkpt lat="41.8338371" lon="1.7607459"><ele>295.0</ele><time>2026-04-25T08:39:19.095Z</time></trkpt><trkpt lat="41.8337959" lon="1.7606036"><ele>295.0</ele><time>2026-04-25T08:39:20.096Z</time></trkpt><trkpt lat="41.8337567" lon="1.7604591"><ele>295.0</ele><time>2026-04-25T08:39:21.096Z</time></trkpt><trkpt lat="41.833718" lon="1.7603176"><ele>295.0</ele><time>2026-04-25T08:39:22.096Z</time></trkpt><trkpt lat="41.833678" lon="1.7601803"><ele>295.0</ele><time>2026-04-25T08:39:23.095Z</time></trkpt><trkpt lat="41.8336451" lon="1.7600585"><ele>295.0</ele><time>2026-04-25T08:39:24.096Z</time></trkpt><trkpt lat="41.8336096" lon="1.7599359"><ele>295.2</ele><time>2026-04-25T08:39:25.097Z</time></trkpt><trkpt lat="41.8335763" lon="1.7598184"><ele>295.4</ele><time>2026-04-25T08:39:26.096Z</time></trkpt><trkpt lat="41.8335359" lon="1.7596899"><ele>295.6</ele><time>2026-04-25T08:39:27.095Z</time></trkpt><trkpt lat="41.8334938" lon="1.7595519"><ele>295.8</ele><time>2026-04-25T08:39:28.096Z</time></trkpt><trkpt lat="41.8334459" lon="1.7594037"><ele>296.0</ele><time>2026-04-25T08:39:29.097Z</time></trkpt><trkpt lat="41.8333935" lon="1.7592451"><ele>294.0</ele><time>2026-04-25T08:39:30.095Z</time></trkpt><trkpt lat="41.8333378" lon="1.7590839"><ele>292.0</ele><time>2026-04-25T08:39:31.096Z</time></trkpt><trkpt lat="41.8332849" lon="1.7589204"><ele>290.0</ele><time>2026-04-25T08:39:32.096Z</time></trkpt><trkpt lat="41.8332313" lon="1.7587555"><ele>288.0</ele><time>2026-04-25T08:39:33.096Z</time></trkpt><trkpt lat="41.8331772" lon="1.7585983"><ele>290.5</ele><time>2026-04-25T08:39:34.095Z</time></trkpt><trkpt lat="41.8331201" lon="1.7584431"><ele>293.0</ele><time>2026-04-25T08:39:35.095Z</time></trkpt><trkpt lat="41.8330517" lon="1.7582931"><ele>295.5</ele><time>2026-04-25T08:39:36.095Z</time></trkpt><trkpt lat="41.8329838" lon="1.7581477"><ele>298.0</ele><time>2026-04-25T08:39:37.095Z</time></trkpt><trkpt lat="41.8329144" lon="1.7580052"><ele>298.0</ele><time>2026-04-25T08:39:38.095Z</time></trkpt><trkpt lat="41.8328492" lon="1.7578582"><ele>298.0</ele><time>2026-04-25T08:39:39.096Z</time></trkpt><trkpt lat="41.8327857" lon="1.7577071"><ele>298.0</ele><time>2026-04-25T08:39:40.096Z</time></trkpt><trkpt lat="41.8327222" lon="1.7575528"><ele>298.0</ele><time>2026-04-25T08:39:41.096Z</time></trkpt><trkpt lat="41.832662" lon="1.7573924"><ele>297.25</ele><time>2026-04-25T08:39:42.096Z</time></trkpt><trkpt lat="41.8326019" lon="1.7572281"><ele>296.5</ele><time>2026-04-25T08:39:43.096Z</time></trkpt><trkpt lat="41.8325443" lon="1.7570558"><ele>295.75</ele><time>2026-04-25T08:39:44.096Z</time></trkpt><trkpt lat="41.8324872" lon="1.7568821"><ele>295.0</ele><time>2026-04-25T08:39:45.095Z</time></trkpt><trkpt lat="41.8324258" lon="1.7567099"><ele>295.0</ele><time>2026-04-25T08:39:46.095Z</time></trkpt><trkpt lat="41.8323537" lon="1.7565447"><ele>295.0</ele><time>2026-04-25T08:39:47.097Z</time></trkpt><trkpt lat="41.832272" lon="1.7563895"><ele>295.0</ele><time>2026-04-25T08:39:48.096Z</time></trkpt><trkpt lat="41.8321829" lon="1.7562492"><ele>295.0</ele><time>2026-04-25T08:39:49.097Z</time></trkpt><trkpt lat="41.8320796" lon="1.7561337"><ele>293.75</ele><time>2026-04-25T08:39:50.096Z</time></trkpt><trkpt lat="41.8319687" lon="1.7560347"><ele>292.5</ele><time>2026-04-25T08:39:51.095Z</time></trkpt><trkpt lat="41.8318577" lon="1.755938"><ele>291.25</ele><time>2026-04-25T08:39:52.096Z</time></trkpt><trkpt lat="41.8317536" lon="1.7558273"><ele>290.0</ele><time>2026-04-25T08:39:53.096Z</time></trkpt><trkpt lat="41.8316579" lon="1.7557019"><ele>290.0</ele><time>2026-04-25T08:39:54.095Z</time></trkpt><trkpt lat="41.8315763" lon="1.7555726"><ele>290.0</ele><time>2026-04-25T08:39:55.096Z</time></trkpt><trkpt lat="41.8314987" lon="1.7554563"><ele>290.0</ele><time>2026-04-25T08:39:56.095Z</time></trkpt><trkpt lat="41.8314196" lon="1.7553535"><ele>290.0</ele><time>2026-04-25T08:39:57.097Z</time></trkpt><trkpt lat="41.8313335" lon="1.755272"><ele>290.0</ele><time>2026-04-25T08:39:58.095Z</time></trkpt><trkpt lat="41.8312568" lon="1.7552165"><ele>290.0</ele><time>2026-04-25T08:39:59.096Z</time></trkpt><trkpt lat="41.8311879" lon="1.7551704"><ele>290.0</ele><time>2026-04-25T08:40:01.095Z</time></trkpt><trkpt lat="41.8311073" lon="1.7551133"><ele>290.0</ele><time>2026-04-25T08:40:25.096Z</time></trkpt><trkpt lat="41.831026" lon="1.7550166"><ele>290.0</ele><time>2026-04-25T08:40:27.096Z</time></trkpt><trkpt lat="41.8309241" lon="1.7549027"><ele>289.6666666666667</ele><time>2026-04-25T08:40:29.096Z</time></trkpt><trkpt lat="41.8308659" lon="1.7548375"><ele>289.33333333333337</ele><time>2026-04-25T08:40:30.096Z</time></trkpt><trkpt lat="41.8308041" lon="1.7547638"><ele>289.0</ele><time>2026-04-25T08:40:31.095Z</time></trkpt><trkpt lat="41.8307374" lon="1.7546872"><ele>288.6666666666667</ele><time>2026-04-25T08:40:32.096Z</time></trkpt><trkpt lat="41.8306687" lon="1.7546104"><ele>288.3333333333333</ele><time>2026-04-25T08:40:33.096Z</time></trkpt><trkpt lat="41.8305971" lon="1.7545321"><ele>288.0</ele><time>2026-04-25T08:40:34.096Z</time></trkpt><trkpt lat="41.8305284" lon="1.7544526"><ele>288.00000000000006</ele><time>2026-04-25T08:40:35.096Z</time></trkpt><trkpt lat="41.8304661" lon="1.7543788"><ele>288.0</ele><time>2026-04-25T08:40:36.097Z</time></trkpt><trkpt lat="41.8304103" lon="1.7543112"><ele>288.0</ele><time>2026-04-25T08:40:37.095Z</time></trkpt><trkpt lat="41.8303632" lon="1.7542507"><ele>288.0</ele><time>2026-04-25T08:40:38.096Z</time></trkpt><trkpt lat="41.8303148" lon="1.7541926"><ele>288.0</ele><time>2026-04-25T08:40:39.096Z</time></trkpt><trkpt lat="41.8302652" lon="1.7541359"><ele>288.00000000000006</ele><time>2026-04-25T08:40:40.096Z</time></trkpt><trkpt lat="41.8302185" lon="1.7540779"><ele>288.0</ele><time>2026-04-25T08:40:41.096Z</time></trkpt><trkpt lat="41.830137" lon="1.7539852"><ele>287.8333333333333</ele><time>2026-04-25T08:40:43.075Z</time></trkpt><trkpt lat="41.8300567" lon="1.7538922"><ele>287.6666666666667</ele><time>2026-04-25T08:40:45.075Z</time></trkpt><trkpt lat="41.8299935" lon="1.7538176"><ele>287.5</ele><time>2026-04-25T08:40:47.078Z</time></trkpt><trkpt lat="41.8299567" lon="1.7537342"><ele>287.33333333333337</ele><time>2026-04-25T08:40:56.078Z</time></trkpt><trkpt lat="41.829977" lon="1.7536439"><ele>287.1666666666667</ele><time>2026-04-25T08:40:58.078Z</time></trkpt><trkpt lat="41.8300319" lon="1.7535599"><ele>287.0</ele><time>2026-04-25T08:41:00.078Z</time></trkpt><trkpt lat="41.8301007" lon="1.7534724"><ele>287.6666666666667</ele><time>2026-04-25T08:41:02.077Z</time></trkpt><trkpt lat="41.8301612" lon="1.7533858"><ele>288.33333333333337</ele><time>2026-04-25T08:41:04.077Z</time></trkpt><trkpt lat="41.8302234" lon="1.7532927"><ele>289.0</ele><time>2026-04-25T08:41:06.078Z</time></trkpt><trkpt lat="41.8303004" lon="1.7531696"><ele>289.6666666666667</ele><time>2026-04-25T08:41:08.078Z</time></trkpt><trkpt lat="41.8303463" lon="1.753101"><ele>290.3333333333333</ele><time>2026-04-25T08:41:09.077Z</time></trkpt><trkpt lat="41.8303963" lon="1.7530282"><ele>291.0</ele><time>2026-04-25T08:41:10.078Z</time></trkpt><trkpt lat="41.8304452" lon="1.7529499"><ele>291.0</ele><time>2026-04-25T08:41:11.078Z</time></trkpt><trkpt lat="41.830492" lon="1.7528731"><ele>291.0</ele><time>2026-04-25T08:41:12.077Z</time></trkpt><trkpt lat="41.8305319" lon="1.7528004"><ele>291.0</ele><time>2026-04-25T08:41:13.077Z</time></trkpt><trkpt lat="41.8306054" lon="1.7526828"><ele>291.0</ele><time>2026-04-25T08:41:15.078Z</time></trkpt><trkpt lat="41.8306903" lon="1.7525622"><ele>291.0</ele><time>2026-04-25T08:41:17.078Z</time></trkpt><trkpt lat="41.8307354" lon="1.752494"><ele>291.0</ele><time>2026-04-25T08:41:18.078Z</time></trkpt><trkpt lat="41.8307807" lon="1.7524241"><ele>290.8333333333333</ele><time>2026-04-25T08:41:19.078Z</time></trkpt><trkpt lat="41.8308268" lon="1.7523542"><ele>290.6666666666667</ele><time>2026-04-25T08:41:20.078Z</time></trkpt><trkpt lat="41.8308732" lon="1.7522849"><ele>290.5</ele><time>2026-04-25T08:41:21.078Z</time></trkpt><trkpt lat="41.8309163" lon="1.7522175"><ele>290.33333333333337</ele><time>2026-04-25T08:41:22.078Z</time></trkpt><trkpt lat="41.830964" lon="1.7521433"><ele>290.1666666666667</ele><time>2026-04-25T08:41:23.078Z</time></trkpt><trkpt lat="41.8310043" lon="1.7520756"><ele>290.0</ele><time>2026-04-25T08:41:24.077Z</time></trkpt><trkpt lat="41.83108" lon="1.7519477"><ele>290.4</ele><time>2026-04-25T08:41:26.078Z</time></trkpt><trkpt lat="41.8311547" lon="1.7518308"><ele>290.8</ele><time>2026-04-25T08:41:28.077Z</time></trkpt><trkpt lat="41.8312226" lon="1.751744"><ele>291.2</ele><time>2026-04-25T08:41:30.078Z</time></trkpt><trkpt lat="41.8312955" lon="1.7517375"><ele>291.6</ele><time>2026-04-25T08:41:32.077Z</time></trkpt><trkpt lat="41.8313337" lon="1.7518248"><ele>292.0</ele><time>2026-04-25T08:41:34.077Z</time></trkpt><trkpt lat="41.8313563" lon="1.7519522"><ele>293.2</ele><time>2026-04-25T08:41:36.078Z</time></trkpt><trkpt lat="41.8313775" lon="1.7520951"><ele>294.4</ele><time>2026-04-25T08:41:38.078Z</time></trkpt><trkpt lat="41.8313899" lon="1.7521797"><ele>295.6</ele><time>2026-04-25T08:41:39.078Z</time></trkpt><trkpt lat="41.8314085" lon="1.752322"><ele>296.8</ele><time>2026-04-25T08:41:41.077Z</time></trkpt><trkpt lat="41.8314192" lon="1.7524322"><ele>298.0</ele><time>2026-04-25T08:41:43.077Z</time></trkpt><trkpt lat="41.8314423" lon="1.7525753"><ele>298.0</ele><time>2026-04-25T08:41:45.078Z</time></trkpt><trkpt lat="41.8314601" lon="1.7526619"><ele>298.0</ele><time>2026-04-25T08:41:46.078Z</time></trkpt><trkpt lat="41.8314787" lon="1.7527589"><ele>298.0</ele><time>2026-04-25T08:41:47.078Z</time></trkpt><trkpt lat="41.8314936" lon="1.7528614"><ele>298.0</ele><time>2026-04-25T08:41:48.078Z</time></trkpt><trkpt lat="41.8315079" lon="1.752969"><ele>298.0</ele><time>2026-04-25T08:41:49.078Z</time></trkpt><trkpt lat="41.8315214" lon="1.7530789"><ele>298.0</ele><time>2026-04-25T08:41:50.077Z</time></trkpt><trkpt lat="41.8315338" lon="1.7531891"><ele>298.5</ele><time>2026-04-25T08:41:51.078Z</time></trkpt><trkpt lat="41.8315388" lon="1.7532963"><ele>299.0</ele><time>2026-04-25T08:41:52.097Z</time></trkpt><trkpt lat="41.831553" lon="1.7533994"><ele>299.5</ele><time>2026-04-25T08:41:53.096Z</time></trkpt><trkpt lat="41.831567" lon="1.7535009"><ele>300.0</ele><time>2026-04-25T08:41:54.095Z</time></trkpt><trkpt lat="41.8315798" lon="1.7535876"><ele>300.5</ele><time>2026-04-25T08:41:55.095Z</time></trkpt><trkpt lat="41.8315493" lon="1.7537246"><ele>301.0</ele><time>2026-04-25T08:41:57.095Z</time></trkpt><trkpt lat="41.8315152" lon="1.7538012"><ele>301.0</ele><time>2026-04-25T08:41:58.096Z</time></trkpt><trkpt lat="41.831471" lon="1.7538939"><ele>301.0</ele><time>2026-04-25T08:41:59.095Z</time></trkpt><trkpt lat="41.8314337" lon="1.7540104"><ele>301.0</ele><time>2026-04-25T08:42:00.076Z</time></trkpt><trkpt lat="41.831403" lon="1.7541342"><ele>301.0</ele><time>2026-04-25T08:42:01.076Z</time></trkpt><trkpt lat="41.831375" lon="1.7542613"><ele>301.0</ele><time>2026-04-25T08:42:02.077Z</time></trkpt><trkpt lat="41.8313427" lon="1.7543863"><ele>300.66666666666663</ele><time>2026-04-25T08:42:03.078Z</time></trkpt><trkpt lat="41.8313014" lon="1.7545052"><ele>300.3333333333333</ele><time>2026-04-25T08:42:04.085Z</time></trkpt><trkpt lat="41.8312545" lon="1.7546009"><ele>300.0</ele><time>2026-04-25T08:42:05.076Z</time></trkpt><trkpt lat="41.8311977" lon="1.7546905"><ele>299.6666666666667</ele><time>2026-04-25T08:42:06.076Z</time></trkpt><trkpt lat="41.8311524" lon="1.7547579"><ele>299.33333333333337</ele><time>2026-04-25T08:42:07.077Z</time></trkpt><trkpt lat="41.8311029" lon="1.7548365"><ele>299.0</ele><time>2026-04-25T08:42:09.077Z</time></trkpt><trkpt lat="41.831041" lon="1.7549396"><ele>299.0</ele><time>2026-04-25T08:42:19.077Z</time></trkpt><trkpt lat="41.8310348" lon="1.7550435"><ele>299.0</ele><time>2026-04-25T08:42:21.077Z</time></trkpt><trkpt lat="41.831125" lon="1.7551612"><ele>299.0</ele><time>2026-04-25T08:42:23.077Z</time></trkpt><trkpt lat="41.8311945" lon="1.7552161"><ele>299.0</ele><time>2026-04-25T08:42:24.077Z</time></trkpt><trkpt lat="41.8312714" lon="1.7552757"><ele>299.0</ele><time>2026-04-25T08:42:25.077Z</time></trkpt><trkpt lat="41.8313455" lon="1.755343"><ele>297.2</ele><time>2026-04-25T08:42:26.077Z</time></trkpt><trkpt lat="41.8314299" lon="1.7554388"><ele>295.4</ele><time>2026-04-25T08:42:27.076Z</time></trkpt><trkpt lat="41.8315032" lon="1.7555439"><ele>293.6</ele><time>2026-04-25T08:42:28.076Z</time></trkpt><trkpt lat="41.8315788" lon="1.7556607"><ele>291.8</ele><time>2026-04-25T08:42:29.096Z</time></trkpt><trkpt lat="41.8316542" lon="1.7557735"><ele>290.0</ele><time>2026-04-25T08:42:30.096Z</time></trkpt><trkpt lat="41.8317409" lon="1.7558731"><ele>291.25</ele><time>2026-04-25T08:42:31.095Z</time></trkpt><trkpt lat="41.8318403" lon="1.7559599"><ele>292.5</ele><time>2026-04-25T08:42:32.095Z</time></trkpt><trkpt lat="41.8319436" lon="1.7560356"><ele>293.75</ele><time>2026-04-25T08:42:33.097Z</time></trkpt><trkpt lat="41.8320452" lon="1.756119"><ele>295.0</ele><time>2026-04-25T08:42:34.095Z</time></trkpt><trkpt lat="41.832136" lon="1.7562265"><ele>295.0</ele><time>2026-04-25T08:42:35.097Z</time></trkpt><trkpt lat="41.8322193" lon="1.7563538"><ele>295.0</ele><time>2026-04-25T08:42:36.096Z</time></trkpt><trkpt lat="41.832295" lon="1.7564965"><ele>295.0</ele><time>2026-04-25T08:42:37.097Z</time></trkpt><trkpt lat="41.8323622" lon="1.756649"><ele>295.0</ele><time>2026-04-25T08:42:38.097Z</time></trkpt><trkpt lat="41.8324221" lon="1.7568108"><ele>292.75</ele><time>2026-04-25T08:42:39.095Z</time></trkpt><trkpt lat="41.8324816" lon="1.75698"><ele>290.5</ele><time>2026-04-25T08:42:40.096Z</time></trkpt><trkpt lat="41.8325428" lon="1.7571536"><ele>288.25</ele><time>2026-04-25T08:42:41.097Z</time></trkpt><trkpt lat="41.8326058" lon="1.7573318"><ele>286.0</ele><time>2026-04-25T08:42:42.097Z</time></trkpt><trkpt lat="41.8326726" lon="1.7575108"><ele>289.0</ele><time>2026-04-25T08:42:43.096Z</time></trkpt><trkpt lat="41.8327432" lon="1.7576834"><ele>292.0</ele><time>2026-04-25T08:42:44.096Z</time></trkpt><trkpt lat="41.8328173" lon="1.7578465"><ele>295.0</ele><time>2026-04-25T08:42:45.096Z</time></trkpt><trkpt lat="41.8328945" lon="1.7580082"><ele>298.0</ele><time>2026-04-25T08:42:46.096Z</time></trkpt><trkpt lat="41.8329716" lon="1.7581687"><ele>298.0</ele><time>2026-04-25T08:42:47.096Z</time></trkpt><trkpt lat="41.8330445" lon="1.7583313"><ele>298.0</ele><time>2026-04-25T08:42:48.096Z</time></trkpt><trkpt lat="41.8331101" lon="1.7584982"><ele>298.0</ele><time>2026-04-25T08:42:49.096Z</time></trkpt><trkpt lat="41.8331741" lon="1.7586668"><ele>298.0</ele><time>2026-04-25T08:42:50.097Z</time></trkpt><trkpt lat="41.833232" lon="1.7588385"><ele>295.5</ele><time>2026-04-25T08:42:51.096Z</time></trkpt><trkpt lat="41.833288" lon="1.759011"><ele>293.0</ele><time>2026-04-25T08:42:52.096Z</time></trkpt><trkpt lat="41.8333443" lon="1.7591819"><ele>290.5</ele><time>2026-04-25T08:42:53.095Z</time></trkpt><trkpt lat="41.8334008" lon="1.7593496"><ele>288.0</ele><time>2026-04-25T08:42:54.096Z</time></trkpt><trkpt lat="41.8334544" lon="1.7595138"><ele>289.6</ele><time>2026-04-25T08:42:55.095Z</time></trkpt><trkpt lat="41.8335019" lon="1.759665"><ele>291.20000000000005</ele><time>2026-04-25T08:42:56.096Z</time></trkpt><trkpt lat="41.8335436" lon="1.7597965"><ele>292.8</ele><time>2026-04-25T08:42:57.095Z</time></trkpt><trkpt lat="41.8335798" lon="1.7599137"><ele>294.40000000000003</ele><time>2026-04-25T08:42:58.096Z</time></trkpt><trkpt lat="41.8336153" lon="1.760034"><ele>296.0</ele><time>2026-04-25T08:42:59.095Z</time></trkpt><trkpt lat="41.8336541" lon="1.76017"><ele>295.75</ele><time>2026-04-25T08:43:00.095Z</time></trkpt><trkpt lat="41.8336924" lon="1.7603164"><ele>295.5</ele><time>2026-04-25T08:43:01.097Z</time></trkpt><trkpt lat="41.8337347" lon="1.7604683"><ele>295.25</ele><time>2026-04-25T08:43:02.095Z</time></trkpt><trkpt lat="41.8337755" lon="1.7606297"><ele>295.0</ele><time>2026-04-25T08:43:03.096Z</time></trkpt><trkpt lat="41.83382" lon="1.7607923"><ele>295.0</ele><time>2026-04-25T08:43:04.095Z</time></trkpt><trkpt lat="41.8338701" lon="1.7609626"><ele>295.0</ele><time>2026-04-25T08:43:05.096Z</time></trkpt><trkpt lat="41.8339179" lon="1.7611252"><ele>295.0</ele><time>2026-04-25T08:43:06.096Z</time></trkpt><trkpt lat="41.8339654" lon="1.7612899"><ele>295.0</ele><time>2026-04-25T08:43:07.096Z</time></trkpt><trkpt lat="41.8340128" lon="1.7614474"><ele>294.5</ele><time>2026-04-25T08:43:08.096Z</time></trkpt><trkpt lat="41.8340598" lon="1.7615995"><ele>294.0</ele><time>2026-04-25T08:43:09.096Z</time></trkpt><trkpt lat="41.8341069" lon="1.7617508"><ele>293.5</ele><time>2026-04-25T08:43:10.096Z</time></trkpt><trkpt lat="41.834158" lon="1.7618977"><ele>293.0</ele><time>2026-04-25T08:43:11.095Z</time></trkpt><trkpt lat="41.8342105" lon="1.7620404"><ele>293.0</ele><time>2026-04-25T08:43:12.096Z</time></trkpt><trkpt lat="41.8342671" lon="1.7621798"><ele>293.0</ele><time>2026-04-25T08:43:13.096Z</time></trkpt><trkpt lat="41.8343269" lon="1.7623161"><ele>293.0</ele><time>2026-04-25T08:43:14.096Z</time></trkpt><trkpt lat="41.8343865" lon="1.7624494"><ele>293.0</ele><time>2026-04-25T08:43:15.096Z</time></trkpt><trkpt lat="41.8344472" lon="1.762579"><ele>293.0</ele><time>2026-04-25T08:43:16.097Z</time></trkpt><trkpt lat="41.8345103" lon="1.7627075"><ele>293.0</ele><time>2026-04-25T08:43:17.096Z</time></trkpt><trkpt lat="41.8345717" lon="1.7628352"><ele>293.0</ele><time>2026-04-25T08:43:18.097Z</time></trkpt><trkpt lat="41.8346349" lon="1.7629633"><ele>293.0</ele><time>2026-04-25T08:43:19.096Z</time></trkpt><trkpt lat="41.8346896" lon="1.7630735"><ele>293.0</ele><time>2026-04-25T08:43:20.095Z</time></trkpt><trkpt lat="41.8347437" lon="1.7631846"><ele>293.0</ele><time>2026-04-25T08:43:21.096Z</time></trkpt><trkpt lat="41.8348053" lon="1.7632999"><ele>293.0</ele><time>2026-04-25T08:43:22.096Z</time></trkpt><trkpt lat="41.8348673" lon="1.7634223"><ele>293.0</ele><time>2026-04-25T08:43:23.097Z</time></trkpt><trkpt lat="41.8349289" lon="1.7635455"><ele>293.0</ele><time>2026-04-25T08:43:24.096Z</time></trkpt><trkpt lat="41.8349885" lon="1.7636691"><ele>293.0</ele><time>2026-04-25T08:43:25.096Z</time></trkpt><trkpt lat="41.8350528" lon="1.7637945"><ele>293.0</ele><time>2026-04-25T08:43:26.096Z</time></trkpt><trkpt lat="41.8351222" lon="1.7639361"><ele>293.0</ele><time>2026-04-25T08:43:27.097Z</time></trkpt><trkpt lat="41.8351974" lon="1.7640819"><ele>293.0</ele><time>2026-04-25T08:43:28.096Z</time></trkpt><trkpt lat="41.8352714" lon="1.764234"><ele>293.0</ele><time>2026-04-25T08:43:29.095Z</time></trkpt><trkpt lat="41.8353428" lon="1.7643871"><ele>294.0</ele><time>2026-04-25T08:43:30.095Z</time></trkpt><trkpt lat="41.8354107" lon="1.7645289"><ele>295.0</ele><time>2026-04-25T08:43:31.096Z</time></trkpt><trkpt lat="41.8354754" lon="1.7646608"><ele>296.0</ele><time>2026-04-25T08:43:32.095Z</time></trkpt><trkpt lat="41.8355286" lon="1.7647815"><ele>297.0</ele><time>2026-04-25T08:43:33.096Z</time></trkpt><trkpt lat="41.8355751" lon="1.7648867"><ele>298.0</ele><time>2026-04-25T08:43:34.096Z</time></trkpt><trkpt lat="41.835617" lon="1.7649575"><ele>298.0</ele><time>2026-04-25T08:43:35.095Z</time></trkpt><trkpt lat="41.8356831" lon="1.7649849"><ele>298.0</ele><time>2026-04-25T08:43:37.095Z</time></trkpt><trkpt lat="41.8356481" lon="1.7649034"><ele>298.0</ele><time>2026-04-25T08:59:15.094Z</time></trkpt><trkpt lat="41.8355692" lon="1.7648177"><ele>298.0</ele><time>2026-04-25T08:59:18.096Z</time></trkpt><trkpt lat="41.8354951" lon="1.7646956"><ele>298.0</ele><time>2026-04-25T08:59:20.095Z</time></trkpt><trkpt lat="41.8354559" lon="1.7646238"><ele>298.0</ele><time>2026-04-25T08:59:21.094Z</time></trkpt><trkpt lat="41.8354177" lon="1.7645435"><ele>298.0</ele><time>2026-04-25T08:59:22.095Z</time></trkpt><trkpt lat="41.8353776" lon="1.7644569"><ele>298.0</ele><time>2026-04-25T08:59:23.095Z</time></trkpt><trkpt lat="41.8353346" lon="1.7643645"><ele>298.0</ele><time>2026-04-25T08:59:24.095Z</time></trkpt><trkpt lat="41.8352934" lon="1.764277"><ele>298.0</ele><time>2026-04-25T08:59:25.095Z</time></trkpt><trkpt lat="41.8352537" lon="1.7641945"><ele>298.0</ele><time>2026-04-25T08:59:26.095Z</time></trkpt><trkpt lat="41.8352171" lon="1.7641113"><ele>298.0</ele><time>2026-04-25T08:59:27.094Z</time></trkpt><trkpt lat="41.8351765" lon="1.7640306"><ele>297.16666666666663</ele><time>2026-04-25T08:59:28.093Z</time></trkpt><trkpt lat="41.8351362" lon="1.7639501"><ele>296.3333333333333</ele><time>2026-04-25T08:59:29.094Z</time></trkpt><trkpt lat="41.8350958" lon="1.7638685"><ele>295.5</ele><time>2026-04-25T08:59:30.095Z</time></trkpt><trkpt lat="41.8350579" lon="1.7637864"><ele>294.6666666666667</ele><time>2026-04-25T08:59:31.093Z</time></trkpt><trkpt lat="41.8350231" lon="1.7637126"><ele>293.83333333333337</ele><time>2026-04-25T08:59:32.094Z</time></trkpt><trkpt lat="41.8349592" lon="1.7635791"><ele>293.0</ele><time>2026-04-25T08:59:34.094Z</time></trkpt><trkpt lat="41.8349181" lon="1.7635092"><ele>293.0</ele><time>2026-04-25T08:59:35.094Z</time></trkpt><trkpt lat="41.8348816" lon="1.7634273"><ele>293.0</ele><time>2026-04-25T08:59:36.094Z</time></trkpt><trkpt lat="41.8348398" lon="1.7633449"><ele>293.0</ele><time>2026-04-25T08:59:37.094Z</time></trkpt><trkpt lat="41.8347987" lon="1.7632584"><ele>293.0</ele><time>2026-04-25T08:59:38.094Z</time></trkpt><trkpt lat="41.8347539" lon="1.7631683"><ele>293.0</ele><time>2026-04-25T08:59:39.094Z</time></trkpt><trkpt lat="41.8347063" lon="1.7630792"><ele>293.0</ele><time>2026-04-25T08:59:40.094Z</time></trkpt><trkpt lat="41.8356481" lon="1.7649034"><ele>293.83333333333337</ele><time>2026-04-25T08:59:15.094Z</time></trkpt><trkpt lat="41.8355692" lon="1.7648177"><ele>294.6666666666667</ele><time>2026-04-25T08:59:18.096Z</time></trkpt><trkpt lat="41.8354951" lon="1.7646956"><ele>295.5</ele><time>2026-04-25T08:59:20.095Z</time></trkpt><trkpt lat="41.8354559" lon="1.7646238"><ele>296.3333333333333</ele><time>2026-04-25T08:59:21.094Z</time></trkpt><trkpt lat="41.8354177" lon="1.7645435"><ele>297.16666666666663</ele><time>2026-04-25T08:59:22.095Z</time></trkpt><trkpt lat="41.8353776" lon="1.7644569"><ele>298.0</ele><time>2026-04-25T08:59:23.095Z</time></trkpt><trkpt lat="41.8353346" lon="1.7643645"><ele>298.2857142857143</ele><time>2026-04-25T08:59:24.095Z</time></trkpt><trkpt lat="41.8352934" lon="1.764277"><ele>298.57142857142856</ele><time>2026-04-25T08:59:25.095Z</time></trkpt><trkpt lat="41.8352537" lon="1.7641945"><ele>298.85714285714283</ele><time>2026-04-25T08:59:26.095Z</time></trkpt><trkpt lat="41.8352171" lon="1.7641113"><ele>299.1428571428571</ele><time>2026-04-25T08:59:27.094Z</time></trkpt><trkpt lat="41.8351765" lon="1.7640306"><ele>299.42857142857144</ele><time>2026-04-25T08:59:28.093Z</time></trkpt><trkpt lat="41.8351362" lon="1.7639501"><ele>299.71428571428567</ele><time>2026-04-25T08:59:29.094Z</time></trkpt><trkpt lat="41.8350958" lon="1.7638685"><ele>300.0</ele><time>2026-04-25T08:59:30.095Z</time></trkpt><trkpt lat="41.8350579" lon="1.7637864"><ele>298.8333333333333</ele><time>2026-04-25T08:59:31.093Z</time></trkpt><trkpt lat="41.8350231" lon="1.7637126"><ele>297.6666666666667</ele><time>2026-04-25T08:59:32.094Z</time></trkpt><trkpt lat="41.8349592" lon="1.7635791"><ele>296.5</ele><time>2026-04-25T08:59:34.094Z</time></trkpt><trkpt lat="41.8349181" lon="1.7635092"><ele>295.33333333333337</ele><time>2026-04-25T08:59:35.094Z</time></trkpt><trkpt lat="41.8348816" lon="1.7634273"><ele>294.1666666666667</ele><time>2026-04-25T08:59:36.094Z</time></trkpt><trkpt lat="41.8348398" lon="1.7633449"><ele>293.0</ele><time>2026-04-25T08:59:37.094Z</time></trkpt><trkpt lat="41.8347987" lon="1.7632584"><ele>293.0</ele><time>2026-04-25T08:59:38.094Z</time></trkpt><trkpt lat="41.8347539" lon="1.7631683"><ele>293.0</ele><time>2026-04-25T08:59:39.094Z</time></trkpt><trkpt lat="41.8347063" lon="1.7630792"><ele>293.0</ele><time>2026-04-25T08:59:40.094Z</time></trkpt><trkpt lat="41.8346586" lon="1.7629863"><ele>293.0</ele><time>2026-04-25T08:59:41.094Z</time></trkpt><trkpt lat="41.8346103" lon="1.7628929"><ele>293.0</ele><time>2026-04-25T08:59:42.094Z</time></trkpt><trkpt lat="41.834565" lon="1.7627944"><ele>293.0</ele><time>2026-04-25T08:59:43.095Z</time></trkpt><trkpt lat="41.83452" lon="1.7626965"><ele>293.0</ele><time>2026-04-25T08:59:44.094Z</time></trkpt><trkpt lat="41.8344712" lon="1.7625998"><ele>293.0</ele><time>2026-04-25T08:59:45.094Z</time></trkpt><trkpt lat="41.8344287" lon="1.7624983"><ele>293.0</ele><time>2026-04-25T08:59:46.094Z</time></trkpt><trkpt lat="41.8343832" lon="1.762402"><ele>293.0</ele><time>2026-04-25T08:59:47.094Z</time></trkpt><trkpt lat="41.8343375" lon="1.7623048"><ele>293.0</ele><time>2026-04-25T08:59:48.093Z</time></trkpt><trkpt lat="41.8342947" lon="1.7622076"><ele>293.0</ele><time>2026-04-25T08:59:49.094Z</time></trkpt><trkpt lat="41.8342546" lon="1.762107"><ele>293.0</ele><time>2026-04-25T08:59:50.093Z</time></trkpt><trkpt lat="41.834213" lon="1.7620057"><ele>293.0</ele><time>2026-04-25T08:59:51.094Z</time></trkpt><trkpt lat="41.8341743" lon="1.7619026"><ele>293.0</ele><time>2026-04-25T08:59:52.094Z</time></trkpt><trkpt lat="41.8341376" lon="1.7617965"><ele>293.0</ele><time>2026-04-25T08:59:53.094Z</time></trkpt><trkpt lat="41.8341008" lon="1.7616907"><ele>293.0</ele><time>2026-04-25T08:59:54.094Z</time></trkpt><trkpt lat="41.8340637" lon="1.7615834"><ele>293.0</ele><time>2026-04-25T08:59:55.094Z</time></trkpt><trkpt lat="41.8340294" lon="1.7614741"><ele>293.0</ele><time>2026-04-25T08:59:56.093Z</time></trkpt><trkpt lat="41.8339956" lon="1.7613613"><ele>293.0</ele><time>2026-04-25T08:59:57.093Z</time></trkpt><trkpt lat="41.8339621" lon="1.7612479"><ele>293.0</ele><time>2026-04-25T08:59:58.094Z</time></trkpt><trkpt lat="41.8339319" lon="1.761134"><ele>293.0</ele><time>2026-04-25T08:59:59.095Z</time></trkpt><trkpt lat="41.8338989" lon="1.7610217"><ele>293.0</ele><time>2026-04-25T09:00:00.094Z</time></trkpt><trkpt lat="41.8338642" lon="1.7609094"><ele>293.4</ele><time>2026-04-25T09:00:01.095Z</time></trkpt><trkpt lat="41.8338298" lon="1.7607937"><ele>293.8</ele><time>2026-04-25T09:00:02.094Z</time></trkpt><trkpt lat="41.8337946" lon="1.760679"><ele>294.2</ele><time>2026-04-25T09:00:03.094Z</time></trkpt><trkpt lat="41.8337629" lon="1.7605586"><ele>294.6</ele><time>2026-04-25T09:00:04.093Z</time></trkpt><trkpt lat="41.8337329" lon="1.7604387"><ele>295.0</ele><time>2026-04-25T09:00:05.094Z</time></trkpt><trkpt lat="41.8337021" lon="1.7603171"><ele>295.2</ele><time>2026-04-25T09:00:06.094Z</time></trkpt><trkpt lat="41.8336683" lon="1.7601922"><ele>295.4</ele><time>2026-04-25T09:00:07.095Z</time></trkpt><trkpt lat="41.8336336" lon="1.7600703"><ele>295.6</ele><time>2026-04-25T09:00:08.094Z</time></trkpt><trkpt lat="41.8335963" lon="1.7599557"><ele>295.8</ele><time>2026-04-25T09:00:09.093Z</time></trkpt><trkpt lat="41.8335617" lon="1.7598462"><ele>296.0</ele><time>2026-04-25T09:00:10.094Z</time></trkpt><trkpt lat="41.8335264" lon="1.7597273"><ele>296.0</ele><time>2026-04-25T09:00:11.095Z</time></trkpt><trkpt lat="41.8334814" lon="1.7595968"><ele>296.0</ele><time>2026-04-25T09:00:12.094Z</time></trkpt><trkpt lat="41.8334346" lon="1.7594585"><ele>296.0</ele><time>2026-04-25T09:00:13.094Z</time></trkpt><trkpt lat="41.8333883" lon="1.7593189"><ele>296.0</ele><time>2026-04-25T09:00:14.094Z</time></trkpt><trkpt lat="41.8333416" lon="1.7591796"><ele>296.0</ele><time>2026-04-25T09:00:15.094Z</time></trkpt><trkpt lat="41.8332974" lon="1.7590387"><ele>296.40000000000003</ele><time>2026-04-25T09:00:16.094Z</time></trkpt><trkpt lat="41.8332565" lon="1.7589034"><ele>296.8</ele><time>2026-04-25T09:00:17.094Z</time></trkpt><trkpt lat="41.833212" lon="1.758771"><ele>297.20000000000005</ele><time>2026-04-25T09:00:18.094Z</time></trkpt><trkpt lat="41.833169" lon="1.7586426"><ele>297.6</ele><time>2026-04-25T09:00:19.093Z</time></trkpt><trkpt lat="41.8331231" lon="1.7585185"><ele>298.0</ele><time>2026-04-25T09:00:20.094Z</time></trkpt><trkpt lat="41.8330722" lon="1.7584003"><ele>298.0</ele><time>2026-04-25T09:00:21.094Z</time></trkpt><trkpt lat="41.8330221" lon="1.7582833"><ele>298.0</ele><time>2026-04-25T09:00:22.095Z</time></trkpt><trkpt lat="41.8329713" lon="1.7581638"><ele>298.0</ele><time>2026-04-25T09:00:23.093Z</time></trkpt><trkpt lat="41.8329143" lon="1.7580495"><ele>298.0</ele><time>2026-04-25T09:00:24.094Z</time></trkpt><trkpt lat="41.8328543" lon="1.7579388"><ele>298.0</ele><time>2026-04-25T09:00:25.093Z</time></trkpt><trkpt lat="41.8328025" lon="1.7578251"><ele>298.0</ele><time>2026-04-25T09:00:26.094Z</time></trkpt><trkpt lat="41.8327505" lon="1.7577071"><ele>298.0</ele><time>2026-04-25T09:00:27.094Z</time></trkpt><trkpt lat="41.832702" lon="1.7575828"><ele>298.0</ele><time>2026-04-25T09:00:28.093Z</time></trkpt><trkpt lat="41.8326573" lon="1.7574618"><ele>298.0</ele><time>2026-04-25T09:00:29.093Z</time></trkpt><trkpt lat="41.8326115" lon="1.7573357"><ele>298.0</ele><time>2026-04-25T09:00:30.094Z</time></trkpt><trkpt lat="41.8325668" lon="1.7572086"><ele>297.25</ele><time>2026-04-25T09:00:31.093Z</time></trkpt><trkpt lat="41.8325215" lon="1.7570729"><ele>296.5</ele><time>2026-04-25T09:00:32.093Z</time></trkpt><trkpt lat="41.8324722" lon="1.7569336"><ele>295.75</ele><time>2026-04-25T09:00:33.093Z</time></trkpt><trkpt lat="41.8324156" lon="1.7567859"><ele>295.0</ele><time>2026-04-25T09:00:34.094Z</time></trkpt><trkpt lat="41.8323569" lon="1.756635"><ele>295.0</ele><time>2026-04-25T09:00:35.094Z</time></trkpt><trkpt lat="41.8322874" lon="1.7564883"><ele>295.0</ele><time>2026-04-25T09:00:36.094Z</time></trkpt><trkpt lat="41.8322132" lon="1.7563447"><ele>295.0</ele><time>2026-04-25T09:00:37.093Z</time></trkpt><trkpt lat="41.8321316" lon="1.7562153"><ele>295.0</ele><time>2026-04-25T09:00:38.094Z</time></trkpt><trkpt lat="41.8320334" lon="1.7561102"><ele>293.75</ele><time>2026-04-25T09:00:39.094Z</time></trkpt><trkpt lat="41.8319257" lon="1.7560258"><ele>292.5</ele><time>2026-04-25T09:00:40.095Z</time></trkpt><trkpt lat="41.8318216" lon="1.7559419"><ele>291.25</ele><time>2026-04-25T09:00:41.094Z</time></trkpt><trkpt lat="41.8317201" lon="1.7558479"><ele>290.0</ele><time>2026-04-25T09:00:42.094Z</time></trkpt><trkpt lat="41.8316298" lon="1.7557341"><ele>290.0</ele><time>2026-04-25T09:00:43.094Z</time></trkpt><trkpt lat="41.8315516" lon="1.7556088"><ele>290.0</ele><time>2026-04-25T09:00:44.093Z</time></trkpt><trkpt lat="41.8314749" lon="1.7554846"><ele>290.0</ele><time>2026-04-25T09:00:45.094Z</time></trkpt><trkpt lat="41.8313953" lon="1.7553748"><ele>290.0</ele><time>2026-04-25T09:00:46.093Z</time></trkpt><trkpt lat="41.8313137" lon="1.7552945"><ele>290.0</ele><time>2026-04-25T09:00:47.094Z</time></trkpt><trkpt lat="41.8312438" lon="1.7552414"><ele>290.0</ele><time>2026-04-25T09:00:48.093Z</time></trkpt><trkpt lat="41.8311746" lon="1.7551911"><ele>290.0</ele><time>2026-04-25T09:00:50.094Z</time></trkpt><trkpt lat="41.8310755" lon="1.755103"><ele>290.0</ele><time>2026-04-25T09:01:24.094Z</time></trkpt><trkpt lat="41.8310193" lon="1.7550383"><ele>290.0</ele><time>2026-04-25T09:01:25.095Z</time></trkpt><trkpt lat="41.830961" lon="1.7549655"><ele>290.0</ele><time>2026-04-25T09:01:26.095Z</time></trkpt><trkpt lat="41.8308924" lon="1.7548827"><ele>289.6</ele><time>2026-04-25T09:01:27.094Z</time></trkpt><trkpt lat="41.8308222" lon="1.754798"><ele>289.2</ele><time>2026-04-25T09:01:28.093Z</time></trkpt><trkpt lat="41.8307516" lon="1.7547144"><ele>288.8</ele><time>2026-04-25T09:01:29.093Z</time></trkpt><trkpt lat="41.8306776" lon="1.7546312"><ele>288.4</ele><time>2026-04-25T09:01:30.094Z</time></trkpt><trkpt lat="41.8306042" lon="1.7545498"><ele>288.0</ele><time>2026-04-25T09:01:31.094Z</time></trkpt><trkpt lat="41.8305355" lon="1.7544703"><ele>288.0</ele><time>2026-04-25T09:01:32.094Z</time></trkpt><trkpt lat="41.8304736" lon="1.754398"><ele>288.0</ele><time>2026-04-25T09:01:33.094Z</time></trkpt><trkpt lat="41.8304178" lon="1.7543345"><ele>288.0</ele><time>2026-04-25T09:01:34.093Z</time></trkpt><trkpt lat="41.8303686" lon="1.7542778"><ele>288.0</ele><time>2026-04-25T09:01:35.094Z</time></trkpt><trkpt lat="41.8302713" lon="1.7541616"><ele>288.0</ele><time>2026-04-25T09:01:37.093Z</time></trkpt><trkpt lat="41.8302128" lon="1.7540981"><ele>288.0</ele><time>2026-04-25T09:01:38.094Z</time></trkpt><trkpt lat="41.8301594" lon="1.7540404"><ele>287.8571428571429</ele><time>2026-04-25T09:01:39.095Z</time></trkpt><trkpt lat="41.8301009" lon="1.7539756"><ele>287.7142857142857</ele><time>2026-04-25T09:01:40.093Z</time></trkpt><trkpt lat="41.8300407" lon="1.7539055"><ele>287.57142857142856</ele><time>2026-04-25T09:01:41.094Z</time></trkpt><trkpt lat="41.8299816" lon="1.7538371"><ele>287.42857142857144</ele><time>2026-04-25T09:01:42.095Z</time></trkpt><trkpt lat="41.8299278" lon="1.7537748"><ele>287.2857142857143</ele><time>2026-04-25T09:01:43.094Z</time></trkpt><trkpt lat="41.8298775" lon="1.7537186"><ele>287.14285714285717</ele><time>2026-04-25T09:01:44.093Z</time></trkpt><trkpt lat="41.8298196" lon="1.7536525"><ele>287.0</ele><time>2026-04-25T09:01:46.094Z</time></trkpt><trkpt lat="41.8297533" lon="1.7535796"><ele>287.0</ele><time>2026-04-25T09:01:58.093Z</time></trkpt><trkpt lat="41.8296842" lon="1.7535111"><ele>287.0</ele><time>2026-04-25T09:02:00.094Z</time></trkpt><trkpt lat="41.8296082" lon="1.7535029"><ele>287.0</ele><time>2026-04-25T09:02:02.095Z</time></trkpt><trkpt lat="41.8295285" lon="1.7536112"><ele>287.0</ele><time>2026-04-25T09:02:04.093Z</time></trkpt><trkpt lat="41.8294809" lon="1.7536948"><ele>287.0</ele><time>2026-04-25T09:02:05.093Z</time></trkpt><trkpt lat="41.8294254" lon="1.7537837"><ele>287.0</ele><time>2026-04-25T09:02:06.093Z</time></trkpt><trkpt lat="41.8293674" lon="1.753875"><ele>286.2</ele><time>2026-04-25T09:02:07.093Z</time></trkpt><trkpt lat="41.8293027" lon="1.7539657"><ele>285.4</ele><time>2026-04-25T09:02:08.093Z</time></trkpt><trkpt lat="41.8292321" lon="1.7540579"><ele>284.6</ele><time>2026-04-25T09:02:09.094Z</time></trkpt><trkpt lat="41.8291568" lon="1.75415"><ele>283.8</ele><time>2026-04-25T09:02:10.094Z</time></trkpt><trkpt lat="41.829077" lon="1.7542381"><ele>283.0</ele><time>2026-04-25T09:02:11.094Z</time></trkpt><trkpt lat="41.8289933" lon="1.7543238"><ele>282.8</ele><time>2026-04-25T09:02:12.094Z</time></trkpt><trkpt lat="41.8289065" lon="1.7544098"><ele>282.6</ele><time>2026-04-25T09:02:13.093Z</time></trkpt><trkpt lat="41.8288166" lon="1.7544953"><ele>282.4</ele><time>2026-04-25T09:02:14.094Z</time></trkpt><trkpt lat="41.8287241" lon="1.7545824"><ele>282.2</ele><time>2026-04-25T09:02:15.093Z</time></trkpt><trkpt lat="41.8286367" lon="1.7546655"><ele>282.0</ele><time>2026-04-25T09:02:16.094Z</time></trkpt><trkpt lat="41.8285534" lon="1.7547469"><ele>281.6</ele><time>2026-04-25T09:02:17.093Z</time></trkpt><trkpt lat="41.8284715" lon="1.7548251"><ele>281.2</ele><time>2026-04-25T09:02:18.094Z</time></trkpt><trkpt lat="41.8283914" lon="1.7549004"><ele>280.8</ele><time>2026-04-25T09:02:19.094Z</time></trkpt><trkpt lat="41.8283118" lon="1.7549794"><ele>280.4</ele><time>2026-04-25T09:02:20.093Z</time></trkpt><trkpt lat="41.8282312" lon="1.7550595"><ele>280.0</ele><time>2026-04-25T09:02:21.094Z</time></trkpt><trkpt lat="41.8281528" lon="1.755143"><ele>279.6</ele><time>2026-04-25T09:02:22.093Z</time></trkpt><trkpt lat="41.8280779" lon="1.7552269"><ele>279.2</ele><time>2026-04-25T09:02:23.094Z</time></trkpt><trkpt lat="41.8280024" lon="1.755315"><ele>278.8</ele><time>2026-04-25T09:02:24.094Z</time></trkpt><trkpt lat="41.8279316" lon="1.7554132"><ele>278.4</ele><time>2026-04-25T09:02:25.095Z</time></trkpt><trkpt lat="41.8278623" lon="1.7555128"><ele>278.0</ele><time>2026-04-25T09:02:26.094Z</time></trkpt><trkpt lat="41.8277928" lon="1.7556111"><ele>278.0</ele><time>2026-04-25T09:02:27.094Z</time></trkpt><trkpt lat="41.8277209" lon="1.7557127"><ele>278.0</ele><time>2026-04-25T09:02:28.094Z</time></trkpt><trkpt lat="41.8276481" lon="1.755812"><ele>278.0</ele><time>2026-04-25T09:02:29.094Z</time></trkpt><trkpt lat="41.8275754" lon="1.7559144"><ele>278.0</ele><time>2026-04-25T09:02:30.093Z</time></trkpt><trkpt lat="41.8275022" lon="1.7560176"><ele>278.0</ele><time>2026-04-25T09:02:31.093Z</time></trkpt><trkpt lat="41.8274301" lon="1.7561206"><ele>277.8</ele><time>2026-04-25T09:02:32.094Z</time></trkpt><trkpt lat="41.827358" lon="1.7562254"><ele>277.6</ele><time>2026-04-25T09:02:33.093Z</time></trkpt><trkpt lat="41.8272838" lon="1.7563328"><ele>277.4</ele><time>2026-04-25T09:02:34.094Z</time></trkpt><trkpt lat="41.8272118" lon="1.7564419"><ele>277.2</ele><time>2026-04-25T09:02:35.094Z</time></trkpt><trkpt lat="41.8271383" lon="1.7565496"><ele>277.0</ele><time>2026-04-25T09:02:36.093Z</time></trkpt><trkpt lat="41.827063" lon="1.7566571"><ele>277.0</ele><time>2026-04-25T09:02:37.094Z</time></trkpt><trkpt lat="41.8269881" lon="1.7567653"><ele>277.0</ele><time>2026-04-25T09:02:38.093Z</time></trkpt><trkpt lat="41.8269107" lon="1.7568772"><ele>277.0</ele><time>2026-04-25T09:02:39.094Z</time></trkpt><trkpt lat="41.8268385" lon="1.7569859"><ele>277.0</ele><time>2026-04-25T09:02:40.095Z</time></trkpt><trkpt lat="41.8267726" lon="1.7570844"><ele>277.0</ele><time>2026-04-25T09:02:41.094Z</time></trkpt><trkpt lat="41.8267025" lon="1.7571643"><ele>278.0</ele><time>2026-04-25T09:02:42.093Z</time></trkpt><trkpt lat="41.8266267" lon="1.757219"><ele>279.0</ele><time>2026-04-25T09:02:43.094Z</time></trkpt><trkpt lat="41.826546" lon="1.7572415"><ele>280.0</ele><time>2026-04-25T09:02:44.094Z</time></trkpt><trkpt lat="41.8264729" lon="1.7572776"><ele>281.0</ele><time>2026-04-25T09:02:45.094Z</time></trkpt><trkpt lat="41.8264145" lon="1.7573467"><ele>282.0</ele><time>2026-04-25T09:02:46.094Z</time></trkpt><trkpt lat="41.8263766" lon="1.7574491"><ele>283.0</ele><time>2026-04-25T09:02:47.094Z</time></trkpt><trkpt lat="41.826352" lon="1.7575718"><ele>283.0</ele><time>2026-04-25T09:02:48.094Z</time></trkpt><trkpt lat="41.8263092" lon="1.757701"><ele>283.0</ele><time>2026-04-25T09:02:49.093Z</time></trkpt><trkpt lat="41.8262405" lon="1.7578247"><ele>283.0</ele><time>2026-04-25T09:02:50.093Z</time></trkpt><trkpt lat="41.8261521" lon="1.7579489"><ele>283.0</ele><time>2026-04-25T09:02:51.093Z</time></trkpt><trkpt lat="41.8260554" lon="1.7580763"><ele>283.0</ele><time>2026-04-25T09:02:52.094Z</time></trkpt><trkpt lat="41.8259571" lon="1.7582199"><ele>283.0</ele><time>2026-04-25T09:02:53.094Z</time></trkpt><trkpt lat="41.8258534" lon="1.7583734"><ele>283.0</ele><time>2026-04-25T09:02:54.094Z</time></trkpt><trkpt lat="41.8257449" lon="1.7585259"><ele>285.3333333333333</ele><time>2026-04-25T09:02:55.093Z</time></trkpt><trkpt lat="41.8256346" lon="1.7586814"><ele>287.6666666666667</ele><time>2026-04-25T09:02:56.093Z</time></trkpt><trkpt lat="41.8255235" lon="1.7588426"><ele>290.0</ele><time>2026-04-25T09:02:57.095Z</time></trkpt><trkpt lat="41.8254184" lon="1.7590084"><ele>290.0</ele><time>2026-04-25T09:02:58.094Z</time></trkpt><trkpt lat="41.8253284" lon="1.7591819"><ele>290.0</ele><time>2026-04-25T09:02:59.094Z</time></trkpt><trkpt lat="41.8252599" lon="1.7593649"><ele>290.0</ele><time>2026-04-25T09:03:00.093Z</time></trkpt><trkpt lat="41.8252034" lon="1.7595509"><ele>290.0</ele><time>2026-04-25T09:03:01.094Z</time></trkpt><trkpt lat="41.8251425" lon="1.7597348"><ele>290.0</ele><time>2026-04-25T09:03:02.093Z</time></trkpt><trkpt lat="41.8250734" lon="1.7599127"><ele>290.0</ele><time>2026-04-25T09:03:03.094Z</time></trkpt><trkpt lat="41.8249945" lon="1.7600792"><ele>290.0</ele><time>2026-04-25T09:03:04.094Z</time></trkpt><trkpt lat="41.8249073" lon="1.7602352"><ele>290.0</ele><time>2026-04-25T09:03:05.094Z</time></trkpt><trkpt lat="41.8248121" lon="1.7603829"><ele>290.0</ele><time>2026-04-25T09:03:06.093Z</time></trkpt><trkpt lat="41.8247136" lon="1.7605266"><ele>290.0</ele><time>2026-04-25T09:03:07.095Z</time></trkpt><trkpt lat="41.824611" lon="1.7606634"><ele>290.0</ele><time>2026-04-25T09:03:08.093Z</time></trkpt><trkpt lat="41.8245021" lon="1.7607934"><ele>290.0</ele><time>2026-04-25T09:03:09.094Z</time></trkpt><trkpt lat="41.8243882" lon="1.760923"><ele>290.0</ele><time>2026-04-25T09:03:10.094Z</time></trkpt><trkpt lat="41.8242658" lon="1.7610449"><ele>290.0</ele><time>2026-04-25T09:03:11.094Z</time></trkpt><trkpt lat="41.8241287" lon="1.7611435"><ele>291.0</ele><time>2026-04-25T09:03:12.095Z</time></trkpt><trkpt lat="41.8239795" lon="1.7612197"><ele>292.0</ele><time>2026-04-25T09:03:13.095Z</time></trkpt><trkpt lat="41.823824" lon="1.7612924"><ele>293.0</ele><time>2026-04-25T09:03:14.094Z</time></trkpt><trkpt lat="41.8236647" lon="1.7613651"><ele>293.0</ele><time>2026-04-25T09:03:15.094Z</time></trkpt><trkpt lat="41.8235047" lon="1.7614375"><ele>293.0</ele><time>2026-04-25T09:03:16.094Z</time></trkpt><trkpt lat="41.8233461" lon="1.7615113"><ele>293.0</ele><time>2026-04-25T09:03:17.093Z</time></trkpt><trkpt lat="41.8231906" lon="1.7615835"><ele>290.33333333333337</ele><time>2026-04-25T09:03:18.093Z</time></trkpt><trkpt lat="41.8230386" lon="1.7616531"><ele>287.6666666666667</ele><time>2026-04-25T09:03:19.095Z</time></trkpt><trkpt lat="41.8228879" lon="1.7617109"><ele>285.0</ele><time>2026-04-25T09:03:20.094Z</time></trkpt><trkpt lat="41.8227369" lon="1.7617437"><ele>284.6666666666667</ele><time>2026-04-25T09:03:21.093Z</time></trkpt><trkpt lat="41.8225856" lon="1.761743"><ele>284.33333333333337</ele><time>2026-04-25T09:03:22.093Z</time></trkpt><trkpt lat="41.8224293" lon="1.7617176"><ele>284.0</ele><time>2026-04-25T09:03:23.094Z</time></trkpt><trkpt lat="41.8222694" lon="1.7616808"><ele>284.0</ele><time>2026-04-25T09:03:24.094Z</time></trkpt><trkpt lat="41.8221043" lon="1.7616434"><ele>284.0</ele><time>2026-04-25T09:03:25.093Z</time></trkpt><trkpt lat="41.8219352" lon="1.7616085"><ele>284.0</ele><time>2026-04-25T09:03:26.094Z</time></trkpt><trkpt lat="41.821769" lon="1.7615708"><ele>284.6666666666667</ele><time>2026-04-25T09:03:27.094Z</time></trkpt><trkpt lat="41.8216035" lon="1.7615312"><ele>285.3333333333333</ele><time>2026-04-25T09:03:28.094Z</time></trkpt><trkpt lat="41.8214353" lon="1.7614894"><ele>286.0</ele><time>2026-04-25T09:03:29.094Z</time></trkpt><trkpt lat="41.8212667" lon="1.7614495"><ele>286.0</ele><time>2026-04-25T09:03:30.093Z</time></trkpt><trkpt lat="41.8210966" lon="1.7614084"><ele>286.0</ele><time>2026-04-25T09:03:31.095Z</time></trkpt><trkpt lat="41.8209245" lon="1.7613681"><ele>286.0</ele><time>2026-04-25T09:03:32.094Z</time></trkpt><trkpt lat="41.8207502" lon="1.7613292"><ele>287.3333333333333</ele><time>2026-04-25T09:03:33.094Z</time></trkpt><trkpt lat="41.8205734" lon="1.761289"><ele>288.6666666666667</ele><time>2026-04-25T09:03:34.094Z</time></trkpt><trkpt lat="41.8203954" lon="1.7612465"><ele>290.0</ele><time>2026-04-25T09:03:35.094Z</time></trkpt><trkpt lat="41.8202162" lon="1.761204"><ele>292.33333333333337</ele><time>2026-04-25T09:03:36.095Z</time></trkpt><trkpt lat="41.820037" lon="1.7611613"><ele>294.6666666666667</ele><time>2026-04-25T09:03:37.093Z</time></trkpt><trkpt lat="41.8198591" lon="1.7611181"><ele>297.0</ele><time>2026-04-25T09:03:38.094Z</time></trkpt><trkpt lat="41.8196839" lon="1.7610778"><ele>297.0</ele><time>2026-04-25T09:03:39.094Z</time></trkpt><trkpt lat="41.819514" lon="1.7610391"><ele>297.0</ele><time>2026-04-25T09:03:40.095Z</time></trkpt><trkpt lat="41.8193514" lon="1.7610014"><ele>297.0</ele><time>2026-04-25T09:03:41.093Z</time></trkpt><trkpt lat="41.8191946" lon="1.760965"><ele>293.75</ele><time>2026-04-25T09:03:42.094Z</time></trkpt><trkpt lat="41.8190444" lon="1.7609283"><ele>290.5</ele><time>2026-04-25T09:03:43.093Z</time></trkpt><trkpt lat="41.8188986" lon="1.7608912"><ele>287.25</ele><time>2026-04-25T09:03:44.094Z</time></trkpt><trkpt lat="41.8187594" lon="1.7608571"><ele>284.0</ele><time>2026-04-25T09:03:45.095Z</time></trkpt><trkpt lat="41.8186281" lon="1.7608244"><ele>284.0</ele><time>2026-04-25T09:03:46.093Z</time></trkpt><trkpt lat="41.8185011" lon="1.7607932"><ele>284.0</ele><time>2026-04-25T09:03:47.093Z</time></trkpt><trkpt lat="41.8183851" lon="1.7607645"><ele>284.0</ele><time>2026-04-25T09:03:48.094Z</time></trkpt><trkpt lat="41.8182763" lon="1.7607432"><ele>284.0</ele><time>2026-04-25T09:03:49.093Z</time></trkpt><trkpt lat="41.8181713" lon="1.7607321"><ele>282.8</ele><time>2026-04-25T09:03:50.094Z</time></trkpt><trkpt lat="41.8180708" lon="1.7607337"><ele>281.59999999999997</ele><time>2026-04-25T09:03:51.093Z</time></trkpt><trkpt lat="41.8179791" lon="1.760753"><ele>280.4</ele><time>2026-04-25T09:03:52.094Z</time></trkpt><trkpt lat="41.8178947" lon="1.7607876"><ele>279.2</ele><time>2026-04-25T09:03:53.094Z</time></trkpt><trkpt lat="41.8178071" lon="1.7608319"><ele>278.0</ele><time>2026-04-25T09:03:54.094Z</time></trkpt><trkpt lat="41.8177278" lon="1.7608862"><ele>278.0</ele><time>2026-04-25T09:03:55.093Z</time></trkpt><trkpt lat="41.8176516" lon="1.760939"><ele>278.0</ele><time>2026-04-25T09:03:56.094Z</time></trkpt><trkpt lat="41.8175796" lon="1.7609887"><ele>278.0</ele><time>2026-04-25T09:03:57.094Z</time></trkpt><trkpt lat="41.817506" lon="1.7610394"><ele>278.0</ele><time>2026-04-25T09:03:58.094Z</time></trkpt><trkpt lat="41.8174317" lon="1.7610923"><ele>278.0</ele><time>2026-04-25T09:03:59.094Z</time></trkpt><trkpt lat="41.8173535" lon="1.7611481"><ele>278.0</ele><time>2026-04-25T09:04:00.094Z</time></trkpt><trkpt lat="41.8172705" lon="1.7612066"><ele>278.0</ele><time>2026-04-25T09:04:01.095Z</time></trkpt><trkpt lat="41.817182" lon="1.7612669"><ele>278.0</ele><time>2026-04-25T09:04:02.095Z</time></trkpt><trkpt lat="41.8170856" lon="1.7613314"><ele>278.0</ele><time>2026-04-25T09:04:03.094Z</time></trkpt><trkpt lat="41.816982" lon="1.7614025"><ele>278.0</ele><time>2026-04-25T09:04:04.094Z</time></trkpt><trkpt lat="41.8168756" lon="1.7614773"><ele>278.0</ele><time>2026-04-25T09:04:05.093Z</time></trkpt><trkpt lat="41.816766" lon="1.7615483"><ele>276.5</ele><time>2026-04-25T09:04:06.093Z</time></trkpt><trkpt lat="41.8166538" lon="1.7616206"><ele>275.0</ele><time>2026-04-25T09:04:07.094Z</time></trkpt><trkpt lat="41.8165379" lon="1.7616963"><ele>273.5</ele><time>2026-04-25T09:04:08.093Z</time></trkpt><trkpt lat="41.816419" lon="1.7617753"><ele>272.0</ele><time>2026-04-25T09:04:09.093Z</time></trkpt><trkpt lat="41.8162972" lon="1.7618575"><ele>272.75</ele><time>2026-04-25T09:04:10.093Z</time></trkpt><trkpt lat="41.8161734" lon="1.7619396"><ele>273.5</ele><time>2026-04-25T09:04:11.093Z</time></trkpt><trkpt lat="41.8160513" lon="1.7620245"><ele>274.25</ele><time>2026-04-25T09:04:12.095Z</time></trkpt><trkpt lat="41.8159279" lon="1.7621122"><ele>275.0</ele><time>2026-04-25T09:04:13.093Z</time></trkpt><trkpt lat="41.8158037" lon="1.762202"><ele>275.0</ele><time>2026-04-25T09:04:14.095Z</time></trkpt><trkpt lat="41.8156762" lon="1.7622924"><ele>275.0</ele><time>2026-04-25T09:04:15.093Z</time></trkpt><trkpt lat="41.8155462" lon="1.7623803"><ele>275.0</ele><time>2026-04-25T09:04:16.093Z</time></trkpt><trkpt lat="41.8154139" lon="1.7624681"><ele>275.0</ele><time>2026-04-25T09:04:17.094Z</time></trkpt><trkpt lat="41.8152841" lon="1.7625591"><ele>273.75</ele><time>2026-04-25T09:04:18.093Z</time></trkpt><trkpt lat="41.8151521" lon="1.7626465"><ele>272.5</ele><time>2026-04-25T09:04:19.094Z</time></trkpt><trkpt lat="41.8150217" lon="1.7627315"><ele>271.25</ele><time>2026-04-25T09:04:20.094Z</time></trkpt><trkpt lat="41.81489" lon="1.7628159"><ele>270.0</ele><time>2026-04-25T09:04:21.094Z</time></trkpt><trkpt lat="41.8147567" lon="1.7628953"><ele>274.25</ele><time>2026-04-25T09:04:22.093Z</time></trkpt><trkpt lat="41.8146206" lon="1.7629651"><ele>278.5</ele><time>2026-04-25T09:04:23.094Z</time></trkpt><trkpt lat="41.8144787" lon="1.7630227"><ele>282.75</ele><time>2026-04-25T09:04:24.095Z</time></trkpt><trkpt lat="41.8143315" lon="1.7630645"><ele>287.0</ele><time>2026-04-25T09:04:25.094Z</time></trkpt><trkpt lat="41.8141836" lon="1.7630883"><ele>287.0</ele><time>2026-04-25T09:04:26.094Z</time></trkpt><trkpt lat="41.814037" lon="1.7630996"><ele>287.0</ele><time>2026-04-25T09:04:27.095Z</time></trkpt><trkpt lat="41.8138925" lon="1.7630955"><ele>287.0</ele><time>2026-04-25T09:04:28.095Z</time></trkpt><trkpt lat="41.8137492" lon="1.7630746"><ele>287.0</ele><time>2026-04-25T09:04:29.093Z</time></trkpt><trkpt lat="41.8136093" lon="1.7630346"><ele>289.75</ele><time>2026-04-25T09:04:30.094Z</time></trkpt><trkpt lat="41.8134683" lon="1.7629766"><ele>292.5</ele><time>2026-04-25T09:04:31.093Z</time></trkpt><trkpt lat="41.8133304" lon="1.7629002"><ele>295.25</ele><time>2026-04-25T09:04:32.094Z</time></trkpt><trkpt lat="41.8131963" lon="1.7628046"><ele>298.0</ele><time>2026-04-25T09:04:33.094Z</time></trkpt><trkpt lat="41.8130645" lon="1.7626944"><ele>288.66666666666663</ele><time>2026-04-25T09:04:34.093Z</time></trkpt><trkpt lat="41.8129349" lon="1.7625723"><ele>279.3333333333333</ele><time>2026-04-25T09:04:35.093Z</time></trkpt><trkpt lat="41.8128106" lon="1.7624407"><ele>270.0</ele><time>2026-04-25T09:04:36.094Z</time></trkpt><trkpt lat="41.8126902" lon="1.762302"><ele>270.3333333333333</ele><time>2026-04-25T09:04:37.094Z</time></trkpt><trkpt lat="41.8125759" lon="1.7621527"><ele>270.66666666666663</ele><time>2026-04-25T09:04:38.094Z</time></trkpt><trkpt lat="41.8124672" lon="1.7619959"><ele>271.0</ele><time>2026-04-25T09:04:39.093Z</time></trkpt><trkpt lat="41.8123616" lon="1.7618301"><ele>271.0</ele><time>2026-04-25T09:04:40.094Z</time></trkpt><trkpt lat="41.8122611" lon="1.76166"><ele>271.0</ele><time>2026-04-25T09:04:41.094Z</time></trkpt><trkpt lat="41.8121602" lon="1.7614928"><ele>271.0</ele><time>2026-04-25T09:04:42.094Z</time></trkpt><trkpt lat="41.8120497" lon="1.7613364"><ele>271.0</ele><time>2026-04-25T09:04:43.094Z</time></trkpt><trkpt lat="41.8119265" lon="1.7611962"><ele>271.0</ele><time>2026-04-25T09:04:44.094Z</time></trkpt><trkpt lat="41.8117972" lon="1.761067"><ele>271.0</ele><time>2026-04-25T09:04:45.093Z</time></trkpt><trkpt lat="41.8116669" lon="1.7609478"><ele>269.3333333333333</ele><time>2026-04-25T09:04:46.094Z</time></trkpt><trkpt lat="41.8115307" lon="1.7608406"><ele>267.6666666666667</ele><time>2026-04-25T09:04:47.093Z</time></trkpt><trkpt lat="41.8113899" lon="1.7607473"><ele>266.0</ele><time>2026-04-25T09:04:48.094Z</time></trkpt><trkpt lat="41.81124" lon="1.7606668"><ele>266.0</ele><time>2026-04-25T09:04:49.093Z</time></trkpt><trkpt lat="41.811084" lon="1.760615"><ele>266.0</ele><time>2026-04-25T09:04:50.094Z</time></trkpt><trkpt lat="41.8109187" lon="1.7605831"><ele>266.0</ele><time>2026-04-25T09:04:51.093Z</time></trkpt><trkpt lat="41.8107577" lon="1.7606018"><ele>266.6666666666667</ele><time>2026-04-25T09:04:52.094Z</time></trkpt><trkpt lat="41.8105944" lon="1.7606401"><ele>267.3333333333333</ele><time>2026-04-25T09:04:53.093Z</time></trkpt><trkpt lat="41.8104385" lon="1.7606989"><ele>268.0</ele><time>2026-04-25T09:04:54.094Z</time></trkpt><trkpt lat="41.8102872" lon="1.760778"><ele>267.3333333333333</ele><time>2026-04-25T09:04:55.094Z</time></trkpt><trkpt lat="41.8101376" lon="1.7608675"><ele>266.6666666666667</ele><time>2026-04-25T09:04:56.094Z</time></trkpt><trkpt lat="41.8099832" lon="1.7609477"><ele>266.0</ele><time>2026-04-25T09:04:57.093Z</time></trkpt><trkpt lat="41.8098253" lon="1.7610152"><ele>270.6666666666667</ele><time>2026-04-25T09:04:58.094Z</time></trkpt><trkpt lat="41.8096629" lon="1.7610757"><ele>275.3333333333333</ele><time>2026-04-25T09:04:59.093Z</time></trkpt><trkpt lat="41.809494" lon="1.7611305"><ele>280.0</ele><time>2026-04-25T09:05:00.093Z</time></trkpt><trkpt lat="41.8093201" lon="1.7611793"><ele>280.0</ele><time>2026-04-25T09:05:01.094Z</time></trkpt><trkpt lat="41.8091416" lon="1.7612223"><ele>280.0</ele><time>2026-04-25T09:05:02.094Z</time></trkpt><trkpt lat="41.8089587" lon="1.7612608"><ele>280.0</ele><time>2026-04-25T09:05:03.094Z</time></trkpt><trkpt lat="41.8087721" lon="1.7613012"><ele>280.0</ele><time>2026-04-25T09:05:04.094Z</time></trkpt><trkpt lat="41.8085815" lon="1.7613463"><ele>280.0</ele><time>2026-04-25T09:05:05.094Z</time></trkpt><trkpt lat="41.8083902" lon="1.7613935"><ele>280.0</ele><time>2026-04-25T09:05:06.093Z</time></trkpt><trkpt lat="41.808199" lon="1.7614515"><ele>278.66666666666663</ele><time>2026-04-25T09:05:07.093Z</time></trkpt><trkpt lat="41.8080079" lon="1.7615219"><ele>277.3333333333333</ele><time>2026-04-25T09:05:08.094Z</time></trkpt><trkpt lat="41.8078166" lon="1.7616019"><ele>276.0</ele><time>2026-04-25T09:05:09.094Z</time></trkpt><trkpt lat="41.8076231" lon="1.7616893"><ele>273.3333333333333</ele><time>2026-04-25T09:05:10.094Z</time></trkpt><trkpt lat="41.8074253" lon="1.7617834"><ele>270.66666666666663</ele><time>2026-04-25T09:05:11.094Z</time></trkpt><trkpt lat="41.8072259" lon="1.7618825"><ele>268.0</ele><time>2026-04-25T09:05:12.095Z</time></trkpt><trkpt lat="41.8070282" lon="1.761982"><ele>271.66666666666663</ele><time>2026-04-25T09:05:13.093Z</time></trkpt><trkpt lat="41.8068327" lon="1.7620754"><ele>275.3333333333333</ele><time>2026-04-25T09:05:14.095Z</time></trkpt><trkpt lat="41.8066363" lon="1.7621678"><ele>279.0</ele><time>2026-04-25T09:05:15.094Z</time></trkpt><trkpt lat="41.8064375" lon="1.7622603"><ele>279.0</ele><time>2026-04-25T09:05:16.094Z</time></trkpt><trkpt lat="41.8062394" lon="1.7623501"><ele>279.0</ele><time>2026-04-25T09:05:17.094Z</time></trkpt><trkpt lat="41.8060448" lon="1.7624375"><ele>279.0</ele><time>2026-04-25T09:05:18.094Z</time></trkpt><trkpt lat="41.8058532" lon="1.7625257"><ele>276.3333333333333</ele><time>2026-04-25T09:05:19.093Z</time></trkpt><trkpt lat="41.8056676" lon="1.762617"><ele>273.66666666666663</ele><time>2026-04-25T09:05:20.093Z</time></trkpt><trkpt lat="41.8054904" lon="1.7627181"><ele>271.0</ele><time>2026-04-25T09:05:21.094Z</time></trkpt><trkpt lat="41.8053206" lon="1.7628417"><ele>271.66666666666663</ele><time>2026-04-25T09:05:22.094Z</time></trkpt><trkpt lat="41.8051567" lon="1.7629949"><ele>272.3333333333333</ele><time>2026-04-25T09:05:23.095Z</time></trkpt><trkpt lat="41.8050009" lon="1.7631756"><ele>273.0</ele><time>2026-04-25T09:05:24.094Z</time></trkpt><trkpt lat="41.804851" lon="1.7633684"><ele>277.0</ele><time>2026-04-25T09:05:25.094Z</time></trkpt><trkpt lat="41.8047013" lon="1.7635662"><ele>281.0</ele><time>2026-04-25T09:05:26.094Z</time></trkpt><trkpt lat="41.8045512" lon="1.7637612"><ele>285.0</ele><time>2026-04-25T09:05:27.093Z</time></trkpt><trkpt lat="41.8044014" lon="1.763961"><ele>281.6666666666667</ele><time>2026-04-25T09:05:28.094Z</time></trkpt><trkpt lat="41.8042508" lon="1.7641599"><ele>278.33333333333337</ele><time>2026-04-25T09:05:29.094Z</time></trkpt><trkpt lat="41.8041" lon="1.7643596"><ele>275.0</ele><time>2026-04-25T09:05:30.094Z</time></trkpt><trkpt lat="41.8039513" lon="1.7645614"><ele>275.0</ele><time>2026-04-25T09:05:31.094Z</time></trkpt><trkpt lat="41.8038047" lon="1.7647598"><ele>275.0</ele><time>2026-04-25T09:05:32.093Z</time></trkpt><trkpt lat="41.8036575" lon="1.7649486"><ele>275.0</ele><time>2026-04-25T09:05:33.095Z</time></trkpt><trkpt lat="41.8035107" lon="1.7651386"><ele>276.6666666666667</ele><time>2026-04-25T09:05:34.093Z</time></trkpt><trkpt lat="41.8033617" lon="1.7653252"><ele>278.3333333333333</ele><time>2026-04-25T09:05:35.094Z</time></trkpt><trkpt lat="41.8032065" lon="1.7655069"><ele>280.0</ele><time>2026-04-25T09:05:36.093Z</time></trkpt><trkpt lat="41.8030381" lon="1.7656812"><ele>280.0</ele><time>2026-04-25T09:05:37.094Z</time></trkpt><trkpt lat="41.8028592" lon="1.7658413"><ele>280.0</ele><time>2026-04-25T09:05:38.094Z</time></trkpt><trkpt lat="41.8026739" lon="1.7659855"><ele>280.0</ele><time>2026-04-25T09:05:39.094Z</time></trkpt><trkpt lat="41.8024863" lon="1.7661255"><ele>280.66666666666663</ele><time>2026-04-25T09:05:40.094Z</time></trkpt><trkpt lat="41.8022952" lon="1.7662654"><ele>281.3333333333333</ele><time>2026-04-25T09:05:41.094Z</time></trkpt><trkpt lat="41.8021069" lon="1.7664071"><ele>282.0</ele><time>2026-04-25T09:05:42.093Z</time></trkpt><trkpt lat="41.8019227" lon="1.7665601"><ele>281.6666666666667</ele><time>2026-04-25T09:05:43.094Z</time></trkpt><trkpt lat="41.8017419" lon="1.7667222"><ele>281.33333333333337</ele><time>2026-04-25T09:05:44.094Z</time></trkpt><trkpt lat="41.8015702" lon="1.7668996"><ele>281.0</ele><time>2026-04-25T09:05:45.093Z</time></trkpt><trkpt lat="41.8014106" lon="1.7670969"><ele>281.0</ele><time>2026-04-25T09:05:46.093Z</time></trkpt><trkpt lat="41.8012599" lon="1.7673026"><ele>281.0</ele><time>2026-04-25T09:05:47.094Z</time></trkpt><trkpt lat="41.8011139" lon="1.7675158"><ele>281.0</ele><time>2026-04-25T09:05:48.094Z</time></trkpt><trkpt lat="41.8009718" lon="1.7677331"><ele>281.0</ele><time>2026-04-25T09:05:49.094Z</time></trkpt><trkpt lat="41.8008281" lon="1.7679545"><ele>281.0</ele><time>2026-04-25T09:05:50.095Z</time></trkpt><trkpt lat="41.8006848" lon="1.7681766"><ele>281.0</ele><time>2026-04-25T09:05:51.093Z</time></trkpt><trkpt lat="41.8005412" lon="1.7683996"><ele>281.0</ele><time>2026-04-25T09:05:52.094Z</time></trkpt><trkpt lat="41.8003969" lon="1.7686252"><ele>281.0</ele><time>2026-04-25T09:05:53.095Z</time></trkpt><trkpt lat="41.8002534" lon="1.7688513"><ele>281.0</ele><time>2026-04-25T09:05:54.093Z</time></trkpt><trkpt lat="41.8001102" lon="1.7690762"><ele>281.0</ele><time>2026-04-25T09:05:55.094Z</time></trkpt><trkpt lat="41.7999656" lon="1.7693011"><ele>281.0</ele><time>2026-04-25T09:05:56.094Z</time></trkpt><trkpt lat="41.7998234" lon="1.7695245"><ele>281.0</ele><time>2026-04-25T09:05:57.093Z</time></trkpt><trkpt lat="41.7996862" lon="1.769747"><ele>281.0</ele><time>2026-04-25T09:05:58.093Z</time></trkpt><trkpt lat="41.7995498" lon="1.7699663"><ele>281.0</ele><time>2026-04-25T09:05:59.094Z</time></trkpt><trkpt lat="41.7994177" lon="1.7701783"><ele>281.0</ele><time>2026-04-25T09:06:00.094Z</time></trkpt><trkpt lat="41.7992923" lon="1.7703836"><ele>280.0</ele><time>2026-04-25T09:06:01.094Z</time></trkpt><trkpt lat="41.7991765" lon="1.7705885"><ele>279.0</ele><time>2026-04-25T09:06:02.093Z</time></trkpt><trkpt lat="41.799069" lon="1.7708009"><ele>278.0</ele><time>2026-04-25T09:06:03.094Z</time></trkpt><trkpt lat="41.7989687" lon="1.7710179"><ele>277.0</ele><time>2026-04-25T09:06:04.094Z</time></trkpt><trkpt lat="41.7988785" lon="1.7712427"><ele>276.0</ele><time>2026-04-25T09:06:05.094Z</time></trkpt><trkpt lat="41.7987966" lon="1.7714779"><ele>275.0</ele><time>2026-04-25T09:06:06.094Z</time></trkpt><trkpt lat="41.7987313" lon="1.7717231"><ele>274.6666666666667</ele><time>2026-04-25T09:06:07.093Z</time></trkpt><trkpt lat="41.7986753" lon="1.7719777"><ele>274.3333333333333</ele><time>2026-04-25T09:06:08.094Z</time></trkpt><trkpt lat="41.7986285" lon="1.772229"><ele>274.0</ele><time>2026-04-25T09:06:09.093Z</time></trkpt><trkpt lat="41.7985823" lon="1.7724766"><ele>274.66666666666663</ele><time>2026-04-25T09:06:10.094Z</time></trkpt><trkpt lat="41.7985363" lon="1.7727252"><ele>275.3333333333333</ele><time>2026-04-25T09:06:11.095Z</time></trkpt><trkpt lat="41.7984889" lon="1.7729707"><ele>276.0</ele><time>2026-04-25T09:06:12.094Z</time></trkpt><trkpt lat="41.7984363" lon="1.7732127"><ele>274.6666666666667</ele><time>2026-04-25T09:06:13.094Z</time></trkpt><trkpt lat="41.7983844" lon="1.7734555"><ele>273.33333333333337</ele><time>2026-04-25T09:06:14.094Z</time></trkpt><trkpt lat="41.7983329" lon="1.7737012"><ele>272.0</ele><time>2026-04-25T09:06:15.093Z</time></trkpt><trkpt lat="41.7982793" lon="1.7739494"><ele>271.33333333333337</ele><time>2026-04-25T09:06:16.093Z</time></trkpt><trkpt lat="41.7982249" lon="1.7742047"><ele>270.6666666666667</ele><time>2026-04-25T09:06:17.094Z</time></trkpt><trkpt lat="41.7981572" lon="1.7744524"><ele>270.0</ele><time>2026-04-25T09:06:18.095Z</time></trkpt><trkpt lat="41.7980691" lon="1.7746938"><ele>269.0</ele><time>2026-04-25T09:06:19.094Z</time></trkpt><trkpt lat="41.7979524" lon="1.7749164"><ele>268.0</ele><time>2026-04-25T09:06:20.093Z</time></trkpt><trkpt lat="41.7978151" lon="1.7751197"><ele>267.0</ele><time>2026-04-25T09:06:21.094Z</time></trkpt><trkpt lat="41.7976619" lon="1.7753073"><ele>266.3333333333333</ele><time>2026-04-25T09:06:22.094Z</time></trkpt><trkpt lat="41.7975022" lon="1.7754842"><ele>265.66666666666663</ele><time>2026-04-25T09:06:23.093Z</time></trkpt><trkpt lat="41.7973375" lon="1.7756657"><ele>265.0</ele><time>2026-04-25T09:06:24.094Z</time></trkpt><trkpt lat="41.7971725" lon="1.7758497"><ele>265.0</ele><time>2026-04-25T09:06:25.095Z</time></trkpt><trkpt lat="41.7970056" lon="1.7760354"><ele>265.0</ele><time>2026-04-25T09:06:26.093Z</time></trkpt><trkpt lat="41.7968392" lon="1.7762208"><ele>265.0</ele><time>2026-04-25T09:06:27.094Z</time></trkpt><trkpt lat="41.7966733" lon="1.7764086"><ele>265.0</ele><time>2026-04-25T09:06:28.094Z</time></trkpt><trkpt lat="41.7965104" lon="1.7765939"><ele>265.0</ele><time>2026-04-25T09:06:29.094Z</time></trkpt><trkpt lat="41.7963471" lon="1.7767759"><ele>265.0</ele><time>2026-04-25T09:06:30.093Z</time></trkpt><trkpt lat="41.7961832" lon="1.7769506"><ele>265.3333333333333</ele><time>2026-04-25T09:06:31.094Z</time></trkpt><trkpt lat="41.7960106" lon="1.7771159"><ele>265.6666666666667</ele><time>2026-04-25T09:06:32.094Z</time></trkpt><trkpt lat="41.7958317" lon="1.7772665"><ele>266.0</ele><time>2026-04-25T09:06:33.093Z</time></trkpt><trkpt lat="41.7956439" lon="1.7773952"><ele>266.0</ele><time>2026-04-25T09:06:34.094Z</time></trkpt><trkpt lat="41.7954472" lon="1.7775007"><ele>266.0</ele><time>2026-04-25T09:06:35.093Z</time></trkpt><trkpt lat="41.7952442" lon="1.7775834"><ele>266.0</ele><time>2026-04-25T09:06:36.094Z</time></trkpt><trkpt lat="41.7950385" lon="1.7776393"><ele>262.6666666666667</ele><time>2026-04-25T09:06:37.094Z</time></trkpt><trkpt lat="41.7948329" lon="1.7776777"><ele>259.3333333333333</ele><time>2026-04-25T09:06:38.094Z</time></trkpt><trkpt lat="41.7946249" lon="1.7776996"><ele>256.0</ele><time>2026-04-25T09:06:39.093Z</time></trkpt><trkpt lat="41.7944143" lon="1.7777095"><ele>265.0</ele><time>2026-04-25T09:06:40.094Z</time></trkpt><trkpt lat="41.7942053" lon="1.7777177"><ele>274.0</ele><time>2026-04-25T09:06:41.093Z</time></trkpt><trkpt lat="41.7939952" lon="1.7777262"><ele>283.0</ele><time>2026-04-25T09:06:42.094Z</time></trkpt><trkpt lat="41.7937855" lon="1.7777496"><ele>283.0</ele><time>2026-04-25T09:06:43.094Z</time></trkpt><trkpt lat="41.7935819" lon="1.777792"><ele>283.0</ele><time>2026-04-25T09:06:44.094Z</time></trkpt><trkpt lat="41.7933907" lon="1.7778531"><ele>283.0</ele><time>2026-04-25T09:06:45.094Z</time></trkpt><trkpt lat="41.79321" lon="1.7779282"><ele>278.0</ele><time>2026-04-25T09:06:46.094Z</time></trkpt><trkpt lat="41.7930387" lon="1.7780016"><ele>273.0</ele><time>2026-04-25T09:06:47.094Z</time></trkpt><trkpt lat="41.7928705" lon="1.7780762"><ele>268.0</ele><time>2026-04-25T09:06:48.095Z</time></trkpt><trkpt lat="41.7927045" lon="1.7781469"><ele>263.3333333333333</ele><time>2026-04-25T09:06:49.093Z</time></trkpt><trkpt lat="41.7925404" lon="1.778218"><ele>258.6666666666667</ele><time>2026-04-25T09:06:50.093Z</time></trkpt><trkpt lat="41.7923804" lon="1.7782883"><ele>254.0</ele><time>2026-04-25T09:06:51.095Z</time></trkpt><trkpt lat="41.7922203" lon="1.7783593"><ele>254.0</ele><time>2026-04-25T09:06:52.093Z</time></trkpt><trkpt lat="41.7920613" lon="1.7784334"><ele>254.0</ele><time>2026-04-25T09:06:53.094Z</time></trkpt><trkpt lat="41.7919059" lon="1.7785114"><ele>254.0</ele><time>2026-04-25T09:06:54.093Z</time></trkpt><trkpt lat="41.7917504" lon="1.7785987"><ele>255.33333333333334</ele><time>2026-04-25T09:06:55.093Z</time></trkpt><trkpt lat="41.7915962" lon="1.7786935"><ele>256.6666666666667</ele><time>2026-04-25T09:06:56.094Z</time></trkpt><trkpt lat="41.7914467" lon="1.7787921"><ele>258.0</ele><time>2026-04-25T09:06:57.094Z</time></trkpt><trkpt lat="41.7913035" lon="1.778888"><ele>258.0</ele><time>2026-04-25T09:06:58.094Z</time></trkpt><trkpt lat="41.7911727" lon="1.7789756"><ele>258.0</ele><time>2026-04-25T09:06:59.094Z</time></trkpt><trkpt lat="41.7910588" lon="1.7790484"><ele>258.0</ele><time>2026-04-25T09:07:00.093Z</time></trkpt><trkpt lat="41.7909651" lon="1.7791038"><ele>258.0</ele><time>2026-04-25T09:07:01.093Z</time></trkpt><trkpt lat="41.790879" lon="1.7791407"><ele>258.0</ele><time>2026-04-25T09:07:02.094Z</time></trkpt><trkpt lat="41.7907894" lon="1.7791697"><ele>258.0</ele><time>2026-04-25T09:07:03.095Z</time></trkpt><trkpt lat="41.7906996" lon="1.7792191"><ele>258.0</ele><time>2026-04-25T09:07:04.094Z</time></trkpt><trkpt lat="41.7906171" lon="1.7793037"><ele>258.0</ele><time>2026-04-25T09:07:05.094Z</time></trkpt><trkpt lat="41.7905289" lon="1.779396"><ele>258.0</ele><time>2026-04-25T09:07:06.093Z</time></trkpt><trkpt lat="41.7904246" lon="1.779482"><ele>258.0</ele><time>2026-04-25T09:07:07.094Z</time></trkpt><trkpt lat="41.7903139" lon="1.7795732"><ele>258.0</ele><time>2026-04-25T09:07:08.093Z</time></trkpt><trkpt lat="41.7902008" lon="1.7796769"><ele>258.0</ele><time>2026-04-25T09:07:09.093Z</time></trkpt><trkpt lat="41.7900875" lon="1.7797879"><ele>258.0</ele><time>2026-04-25T09:07:10.094Z</time></trkpt><trkpt lat="41.789983" lon="1.7799083"><ele>256.0</ele><time>2026-04-25T09:07:11.094Z</time></trkpt><trkpt lat="41.7898832" lon="1.7800549"><ele>254.0</ele><time>2026-04-25T09:07:12.095Z</time></trkpt><trkpt lat="41.7897802" lon="1.7802191"><ele>252.0</ele><time>2026-04-25T09:07:13.093Z</time></trkpt><trkpt lat="41.7896684" lon="1.7803794"><ele>252.33333333333331</ele><time>2026-04-25T09:07:14.094Z</time></trkpt><trkpt lat="41.7895405" lon="1.7805257"><ele>252.66666666666666</ele><time>2026-04-25T09:07:15.094Z</time></trkpt><trkpt lat="41.7894048" lon="1.7806655"><ele>253.0</ele><time>2026-04-25T09:07:16.094Z</time></trkpt><trkpt lat="41.7892652" lon="1.7808024"><ele>253.0</ele><time>2026-04-25T09:07:17.094Z</time></trkpt><trkpt lat="41.789122" lon="1.7809304"><ele>253.0</ele><time>2026-04-25T09:07:18.095Z</time></trkpt><trkpt lat="41.7889718" lon="1.781034"><ele>253.0</ele><time>2026-04-25T09:07:19.094Z</time></trkpt><trkpt lat="41.7888133" lon="1.7811076"><ele>254.33333333333331</ele><time>2026-04-25T09:07:20.093Z</time></trkpt><trkpt lat="41.7886433" lon="1.7811607"><ele>255.66666666666669</ele><time>2026-04-25T09:07:21.094Z</time></trkpt><trkpt lat="41.7884658" lon="1.7812065"><ele>257.0</ele><time>2026-04-25T09:07:22.094Z</time></trkpt><trkpt lat="41.7882813" lon="1.7812527"><ele>257.0</ele><time>2026-04-25T09:07:23.094Z</time></trkpt><trkpt lat="41.7880958" lon="1.7812987"><ele>257.0</ele><time>2026-04-25T09:07:24.094Z</time></trkpt><trkpt lat="41.7879062" lon="1.7813433"><ele>257.0</ele><time>2026-04-25T09:07:25.093Z</time></trkpt><trkpt lat="41.7877171" lon="1.7813897"><ele>256.0</ele><time>2026-04-25T09:07:26.094Z</time></trkpt><trkpt lat="41.7875278" lon="1.7814382"><ele>255.0</ele><time>2026-04-25T09:07:27.093Z</time></trkpt><trkpt lat="41.7873414" lon="1.781489"><ele>254.0</ele><time>2026-04-25T09:07:28.094Z</time></trkpt><trkpt lat="41.7871582" lon="1.7815484"><ele>254.0</ele><time>2026-04-25T09:07:29.093Z</time></trkpt><trkpt lat="41.7869798" lon="1.7816171"><ele>254.0</ele><time>2026-04-25T09:07:30.094Z</time></trkpt><trkpt lat="41.7868022" lon="1.7816924"><ele>254.0</ele><time>2026-04-25T09:07:31.094Z</time></trkpt><trkpt lat="41.7866259" lon="1.7817521"><ele>251.33333333333334</ele><time>2026-04-25T09:07:32.094Z</time></trkpt><trkpt lat="41.7864513" lon="1.7817906"><ele>248.66666666666669</ele><time>2026-04-25T09:07:33.094Z</time></trkpt><trkpt lat="41.7862879" lon="1.7818153"><ele>246.0</ele><time>2026-04-25T09:07:34.093Z</time></trkpt><trkpt lat="41.7861298" lon="1.7818321"><ele>245.25</ele><time>2026-04-25T09:07:35.094Z</time></trkpt><trkpt lat="41.7859838" lon="1.7818452"><ele>244.5</ele><time>2026-04-25T09:07:36.094Z</time></trkpt><trkpt lat="41.7858488" lon="1.7818607"><ele>243.75</ele><time>2026-04-25T09:07:37.094Z</time></trkpt><trkpt lat="41.785719" lon="1.7818814"><ele>243.0</ele><time>2026-04-25T09:07:38.094Z</time></trkpt><trkpt lat="41.7855932" lon="1.7819078"><ele>245.0</ele><time>2026-04-25T09:07:39.094Z</time></trkpt><trkpt lat="41.7854785" lon="1.781949"><ele>247.0</ele><time>2026-04-25T09:07:40.094Z</time></trkpt><trkpt lat="41.7853772" lon="1.7819968"><ele>249.0</ele><time>2026-04-25T09:07:41.094Z</time></trkpt><trkpt lat="41.7852977" lon="1.7820416"><ele>251.0</ele><time>2026-04-25T09:07:42.094Z</time></trkpt><trkpt lat="41.7852337" lon="1.7820666"><ele>253.0</ele><time>2026-04-25T09:07:43.094Z</time></trkpt><trkpt lat="41.785132" lon="1.7820251"><ele>253.0</ele><time>2026-04-25T09:07:45.094Z</time></trkpt><trkpt lat="41.7850859" lon="1.7818624"><ele>253.0</ele><time>2026-04-25T09:07:47.095Z</time></trkpt><trkpt lat="41.7850805" lon="1.7817421"><ele>253.0</ele><time>2026-04-25T09:07:48.093Z</time></trkpt><trkpt lat="41.7850796" lon="1.7816064"><ele>253.0</ele><time>2026-04-25T09:07:49.094Z</time></trkpt><trkpt lat="41.7850785" lon="1.7814564"><ele>253.0</ele><time>2026-04-25T09:07:50.094Z</time></trkpt><trkpt lat="41.7850727" lon="1.7812912"><ele>250.25</ele><time>2026-04-25T09:07:51.093Z</time></trkpt><trkpt lat="41.7850703" lon="1.7811152"><ele>247.5</ele><time>2026-04-25T09:07:52.094Z</time></trkpt><trkpt lat="41.7850694" lon="1.7809406"><ele>244.75</ele><time>2026-04-25T09:07:53.094Z</time></trkpt><trkpt lat="41.7850681" lon="1.7807623"><ele>242.0</ele><time>2026-04-25T09:07:54.094Z</time></trkpt><trkpt lat="41.785072" lon="1.7806046"><ele>242.0</ele><time>2026-04-25T09:07:55.094Z</time></trkpt><trkpt lat="41.7850897" lon="1.7804568"><ele>242.0</ele><time>2026-04-25T09:07:56.093Z</time></trkpt><trkpt lat="41.7851256" lon="1.7803131"><ele>242.0</ele><time>2026-04-25T09:07:57.093Z</time></trkpt><trkpt lat="41.7851807" lon="1.7801811"><ele>242.0</ele><time>2026-04-25T09:07:58.094Z</time></trkpt><trkpt lat="41.7852548" lon="1.7800689"><ele>242.0</ele><time>2026-04-25T09:07:59.095Z</time></trkpt><trkpt lat="41.7853463" lon="1.7799703"><ele>243.2</ele><time>2026-04-25T09:08:00.094Z</time></trkpt><trkpt lat="41.7854378" lon="1.7798861"><ele>244.39999999999998</ele><time>2026-04-25T09:08:01.094Z</time></trkpt><trkpt lat="41.7855156" lon="1.7798121"><ele>245.60000000000002</ele><time>2026-04-25T09:08:02.093Z</time></trkpt><trkpt lat="41.7855829" lon="1.7797456"><ele>246.8</ele><time>2026-04-25T09:08:03.094Z</time></trkpt><trkpt lat="41.7856591" lon="1.7796702"><ele>248.0</ele><time>2026-04-25T09:08:04.094Z</time></trkpt><trkpt lat="41.7857467" lon="1.7795841"><ele>248.0</ele><time>2026-04-25T09:08:05.094Z</time></trkpt><trkpt lat="41.7858445" lon="1.7794949"><ele>248.0</ele><time>2026-04-25T09:08:06.094Z</time></trkpt><trkpt lat="41.7859509" lon="1.7793973"><ele>248.0</ele><time>2026-04-25T09:08:07.094Z</time></trkpt><trkpt lat="41.7860643" lon="1.7792917"><ele>248.0</ele><time>2026-04-25T09:08:08.094Z</time></trkpt><trkpt lat="41.7861736" lon="1.7791913"><ele>248.60000000000002</ele><time>2026-04-25T09:08:09.094Z</time></trkpt><trkpt lat="41.78627" lon="1.7791025"><ele>249.20000000000002</ele><time>2026-04-25T09:08:10.094Z</time></trkpt><trkpt lat="41.7863521" lon="1.7790244"><ele>249.8</ele><time>2026-04-25T09:08:11.093Z</time></trkpt><trkpt lat="41.7864257" lon="1.7789568"><ele>250.4</ele><time>2026-04-25T09:08:12.094Z</time></trkpt><trkpt lat="41.7865081" lon="1.7788823"><ele>251.0</ele><time>2026-04-25T09:08:13.094Z</time></trkpt><trkpt lat="41.7866018" lon="1.7787948"><ele>251.0</ele><time>2026-04-25T09:08:14.094Z</time></trkpt><trkpt lat="41.7867073" lon="1.7787004"><ele>251.0</ele><time>2026-04-25T09:08:15.094Z</time></trkpt><trkpt lat="41.786821" lon="1.7785941"><ele>251.0</ele><time>2026-04-25T09:08:16.093Z</time></trkpt><trkpt lat="41.7869377" lon="1.7784839"><ele>251.0</ele><time>2026-04-25T09:08:17.094Z</time></trkpt><trkpt lat="41.7870605" lon="1.7783695"><ele>252.33333333333334</ele><time>2026-04-25T09:08:18.094Z</time></trkpt><trkpt lat="41.787186" lon="1.7782504"><ele>253.66666666666669</ele><time>2026-04-25T09:08:19.094Z</time></trkpt><trkpt lat="41.7873099" lon="1.7781342"><ele>255.0</ele><time>2026-04-25T09:08:20.093Z</time></trkpt><trkpt lat="41.7874308" lon="1.7780181"><ele>255.0</ele><time>2026-04-25T09:08:21.094Z</time></trkpt><trkpt lat="41.7875492" lon="1.7778977"><ele>255.0</ele><time>2026-04-25T09:08:22.093Z</time></trkpt><trkpt lat="41.787657" lon="1.7777533"><ele>255.0</ele><time>2026-04-25T09:08:23.094Z</time></trkpt><trkpt lat="41.78774" lon="1.7775698"><ele>256.0</ele><time>2026-04-25T09:08:24.094Z</time></trkpt><trkpt lat="41.7878206" lon="1.77737"><ele>257.0</ele><time>2026-04-25T09:08:25.095Z</time></trkpt><trkpt lat="41.7879159" lon="1.7771897"><ele>258.0</ele><time>2026-04-25T09:08:26.093Z</time></trkpt><trkpt lat="41.7880373" lon="1.7770301"><ele>258.0</ele><time>2026-04-25T09:08:27.094Z</time></trkpt><trkpt lat="41.7881817" lon="1.7768863"><ele>258.0</ele><time>2026-04-25T09:08:28.094Z</time></trkpt><trkpt lat="41.7883403" lon="1.7767429"><ele>258.0</ele><time>2026-04-25T09:08:29.094Z</time></trkpt><trkpt lat="41.7885055" lon="1.7765862"><ele>257.0</ele><time>2026-04-25T09:08:30.094Z</time></trkpt><trkpt lat="41.788677" lon="1.7764246"><ele>256.0</ele><time>2026-04-25T09:08:31.095Z</time></trkpt><trkpt lat="41.7888392" lon="1.7762777"><ele>255.0</ele><time>2026-04-25T09:08:32.094Z</time></trkpt><trkpt lat="41.788988" lon="1.7761414"><ele>256.3333333333333</ele><time>2026-04-25T09:08:33.094Z</time></trkpt><trkpt lat="41.789112" lon="1.7760002"><ele>257.66666666666663</ele><time>2026-04-25T09:08:34.094Z</time></trkpt><trkpt lat="41.789206" lon="1.775827"><ele>259.0</ele><time>2026-04-25T09:08:35.094Z</time></trkpt><trkpt lat="41.7892708" lon="1.7756109"><ele>259.0</ele><time>2026-04-25T09:08:36.094Z</time></trkpt><trkpt lat="41.7893321" lon="1.7753565"><ele>259.0</ele><time>2026-04-25T09:08:37.094Z</time></trkpt><trkpt lat="41.7893962" lon="1.7751052"><ele>259.0</ele><time>2026-04-25T09:08:38.094Z</time></trkpt><trkpt lat="41.7894467" lon="1.7749053"><ele>260.25</ele><time>2026-04-25T09:08:39.094Z</time></trkpt><trkpt lat="41.7895175" lon="1.7747574"><ele>261.5</ele><time>2026-04-25T09:08:40.094Z</time></trkpt><trkpt lat="41.7896355" lon="1.77467"><ele>262.75</ele><time>2026-04-25T09:08:41.094Z</time></trkpt><trkpt lat="41.7897952" lon="1.7746327"><ele>264.0</ele><time>2026-04-25T09:08:42.095Z</time></trkpt><trkpt lat="41.7899863" lon="1.7746112"><ele>263.5</ele><time>2026-04-25T09:08:43.094Z</time></trkpt><trkpt lat="41.7902078" lon="1.7745743"><ele>263.0</ele><time>2026-04-25T09:08:44.095Z</time></trkpt><trkpt lat="41.7904467" lon="1.7745103"><ele>263.0</ele><time>2026-04-25T09:08:45.093Z</time></trkpt><trkpt lat="41.7907057" lon="1.7744155"><ele>263.0</ele><time>2026-04-25T09:08:46.095Z</time></trkpt><trkpt lat="41.7909851" lon="1.7743066"><ele>273.5</ele><time>2026-04-25T09:08:47.094Z</time></trkpt><trkpt lat="41.791269" lon="1.7742002"><ele>284.0</ele><time>2026-04-25T09:08:48.094Z</time></trkpt><trkpt lat="41.7915328" lon="1.7741136"><ele>284.0</ele><time>2026-04-25T09:08:49.094Z</time></trkpt><trkpt lat="41.7917891" lon="1.7740554"><ele>284.0</ele><time>2026-04-25T09:08:50.095Z</time></trkpt><trkpt lat="41.7920426" lon="1.7740315"><ele>282.0</ele><time>2026-04-25T09:08:51.094Z</time></trkpt><trkpt lat="41.7922671" lon="1.7740152"><ele>280.0</ele><time>2026-04-25T09:08:52.095Z</time></trkpt><trkpt lat="41.7924902" lon="1.773968"><ele>279.0</ele><time>2026-04-25T09:08:53.093Z</time></trkpt><trkpt lat="41.7927142" lon="1.7738934"><ele>278.0</ele><time>2026-04-25T09:08:54.094Z</time></trkpt><trkpt lat="41.7928929" lon="1.7738161"><ele>277.0</ele><time>2026-04-25T09:08:55.094Z</time></trkpt><trkpt lat="41.7930309" lon="1.7737353"><ele>277.0</ele><time>2026-04-25T09:08:56.094Z</time></trkpt><trkpt lat="41.7931329" lon="1.7736353"><ele>277.0</ele><time>2026-04-25T09:08:57.094Z</time></trkpt><trkpt lat="41.7931872" lon="1.7735033"><ele>277.0</ele><time>2026-04-25T09:08:58.093Z</time></trkpt><trkpt lat="41.7931922" lon="1.7733277"><ele>277.0</ele><time>2026-04-25T09:08:59.093Z</time></trkpt><trkpt lat="41.7931712" lon="1.7731123"><ele>281.66666666666663</ele><time>2026-04-25T09:09:00.094Z</time></trkpt><trkpt lat="41.7931322" lon="1.7728471"><ele>286.3333333333333</ele><time>2026-04-25T09:09:01.094Z</time></trkpt><trkpt lat="41.7930869" lon="1.7726401"><ele>291.0</ele><time>2026-04-25T09:09:02.094Z</time></trkpt><trkpt lat="41.7930094" lon="1.7724773"><ele>292.6666666666667</ele><time>2026-04-25T09:09:03.095Z</time></trkpt><trkpt lat="41.7929024" lon="1.7723701"><ele>294.33333333333337</ele><time>2026-04-25T09:09:04.094Z</time></trkpt><trkpt lat="41.7927539" lon="1.7723071"><ele>296.0</ele><time>2026-04-25T09:09:05.093Z</time></trkpt><trkpt lat="41.7925787" lon="1.7722688"><ele>298.25</ele><time>2026-04-25T09:09:06.095Z</time></trkpt><trkpt lat="41.7924152" lon="1.7722325"><ele>300.5</ele><time>2026-04-25T09:09:07.094Z</time></trkpt><trkpt lat="41.7922857" lon="1.7721624"><ele>302.75</ele><time>2026-04-25T09:09:08.094Z</time></trkpt><trkpt lat="41.7921916" lon="1.7720261"><ele>305.0</ele><time>2026-04-25T09:09:09.093Z</time></trkpt><trkpt lat="41.7921159" lon="1.7718148"><ele>305.0</ele><time>2026-04-25T09:09:10.094Z</time></trkpt><trkpt lat="41.7920318" lon="1.7715651"><ele>305.0</ele><time>2026-04-25T09:09:11.093Z</time></trkpt><trkpt lat="41.7919427" lon="1.7712766"><ele>305.0</ele><time>2026-04-25T09:09:12.094Z</time></trkpt><trkpt lat="41.791852" lon="1.7709766"><ele>309.33333333333337</ele><time>2026-04-25T09:09:13.093Z</time></trkpt><trkpt lat="41.7917973" lon="1.770709"><ele>313.6666666666667</ele><time>2026-04-25T09:09:14.095Z</time></trkpt><trkpt lat="41.7917798" lon="1.7704502"><ele>318.0</ele><time>2026-04-25T09:09:15.093Z</time></trkpt><trkpt lat="41.7918041" lon="1.7702203"><ele>318.5</ele><time>2026-04-25T09:09:16.094Z</time></trkpt><trkpt lat="41.7918431" lon="1.7700394"><ele>319.0</ele><time>2026-04-25T09:09:17.094Z</time></trkpt><trkpt lat="41.7918446" lon="1.7698749"><ele>319.5</ele><time>2026-04-25T09:09:18.095Z</time></trkpt><trkpt lat="41.7917968" lon="1.7697266"><ele>320.0</ele><time>2026-04-25T09:09:19.094Z</time></trkpt><trkpt lat="41.7917006" lon="1.7695942"><ele>320.0</ele><time>2026-04-25T09:09:20.093Z</time></trkpt><trkpt lat="41.7915787" lon="1.7694739"><ele>320.0</ele><time>2026-04-25T09:09:21.094Z</time></trkpt><trkpt lat="41.7914512" lon="1.7693477"><ele>320.0</ele><time>2026-04-25T09:09:22.094Z</time></trkpt><trkpt lat="41.7913697" lon="1.7691934"><ele>320.25</ele><time>2026-04-25T09:09:23.093Z</time></trkpt><trkpt lat="41.7913368" lon="1.7690152"><ele>320.5</ele><time>2026-04-25T09:09:24.094Z</time></trkpt><trkpt lat="41.7913251" lon="1.7688177"><ele>320.75</ele><time>2026-04-25T09:09:25.095Z</time></trkpt><trkpt lat="41.7912685" lon="1.768666"><ele>321.0</ele><time>2026-04-25T09:09:26.093Z</time></trkpt><trkpt lat="41.7911653" lon="1.7685591"><ele>322.3333333333333</ele><time>2026-04-25T09:09:27.094Z</time></trkpt><trkpt lat="41.7910249" lon="1.7684528"><ele>323.66666666666663</ele><time>2026-04-25T09:09:28.093Z</time></trkpt><trkpt lat="41.7908915" lon="1.7682796"><ele>325.0</ele><time>2026-04-25T09:09:29.094Z</time></trkpt><trkpt lat="41.7907684" lon="1.7680802"><ele>326.66666666666663</ele><time>2026-04-25T09:09:30.095Z</time></trkpt><trkpt lat="41.7905978" lon="1.7679053"><ele>328.3333333333333</ele><time>2026-04-25T09:09:31.094Z</time></trkpt><trkpt lat="41.7903979" lon="1.767747"><ele>330.0</ele><time>2026-04-25T09:09:32.094Z</time></trkpt><trkpt lat="41.7902184" lon="1.7676078"><ele>333.0</ele><time>2026-04-25T09:09:33.095Z</time></trkpt><trkpt lat="41.790064" lon="1.7674721"><ele>336.0</ele><time>2026-04-25T09:09:34.094Z</time></trkpt><trkpt lat="41.7899444" lon="1.7673031"><ele>339.0</ele><time>2026-04-25T09:09:35.093Z</time></trkpt><trkpt lat="41.7898445" lon="1.767074"><ele>339.6666666666667</ele><time>2026-04-25T09:09:36.094Z</time></trkpt><trkpt lat="41.789754" lon="1.7668156"><ele>340.33333333333337</ele><time>2026-04-25T09:09:37.094Z</time></trkpt><trkpt lat="41.7896776" lon="1.7665674"><ele>341.0</ele><time>2026-04-25T09:09:38.094Z</time></trkpt><trkpt lat="41.7896204" lon="1.7663294"><ele>341.0</ele><time>2026-04-25T09:09:39.094Z</time></trkpt><trkpt lat="41.7895824" lon="1.7661021"><ele>341.0</ele><time>2026-04-25T09:09:40.094Z</time></trkpt><trkpt lat="41.7895724" lon="1.7658927"><ele>341.0</ele><time>2026-04-25T09:09:41.093Z</time></trkpt><trkpt lat="41.7896037" lon="1.7656747"><ele>343.0</ele><time>2026-04-25T09:09:42.093Z</time></trkpt><trkpt lat="41.7896896" lon="1.7654599"><ele>345.0</ele><time>2026-04-25T09:09:43.093Z</time></trkpt><trkpt lat="41.789807" lon="1.7652592"><ele>347.0</ele><time>2026-04-25T09:09:44.093Z</time></trkpt><trkpt lat="41.7899064" lon="1.7651245"><ele>347.0</ele><time>2026-04-25T09:09:45.094Z</time></trkpt><trkpt lat="41.7900028" lon="1.7650535"><ele>347.0</ele><time>2026-04-25T09:09:46.094Z</time></trkpt><trkpt lat="41.7900899" lon="1.7650596"><ele>347.0</ele><time>2026-04-25T09:09:47.094Z</time></trkpt><trkpt lat="41.7901517" lon="1.76513"><ele>347.0</ele><time>2026-04-25T09:09:48.094Z</time></trkpt><trkpt lat="41.7901872" lon="1.7652694"><ele>347.0</ele><time>2026-04-25T09:09:49.093Z</time></trkpt><trkpt lat="41.7902132" lon="1.765467"><ele>348.25</ele><time>2026-04-25T09:09:50.093Z</time></trkpt><trkpt lat="41.7902426" lon="1.7656835"><ele>349.5</ele><time>2026-04-25T09:09:51.094Z</time></trkpt><trkpt lat="41.7902812" lon="1.7658533"><ele>350.75</ele><time>2026-04-25T09:09:52.094Z</time></trkpt><trkpt lat="41.7903479" lon="1.7659784"><ele>352.0</ele><time>2026-04-25T09:09:53.093Z</time></trkpt><trkpt lat="41.7904387" lon="1.7660434"><ele>352.0</ele><time>2026-04-25T09:09:54.094Z</time></trkpt><trkpt lat="41.7905398" lon="1.7660446"><ele>352.0</ele><time>2026-04-25T09:09:55.093Z</time></trkpt><trkpt lat="41.7906558" lon="1.7659893"><ele>352.0</ele><time>2026-04-25T09:09:56.094Z</time></trkpt><trkpt lat="41.7907656" lon="1.7658698"><ele>352.0</ele><time>2026-04-25T09:09:57.095Z</time></trkpt><trkpt lat="41.7908508" lon="1.7656722"><ele>352.0</ele><time>2026-04-25T09:09:58.094Z</time></trkpt><trkpt lat="41.7909304" lon="1.7654118"><ele>352.0</ele><time>2026-04-25T09:09:59.093Z</time></trkpt><trkpt lat="41.7909897" lon="1.765124"><ele>352.0</ele><time>2026-04-25T09:10:00.093Z</time></trkpt><trkpt lat="41.7909984" lon="1.7648374"><ele>354.75</ele><time>2026-04-25T09:10:01.094Z</time></trkpt><trkpt lat="41.7909864" lon="1.7646087"><ele>357.5</ele><time>2026-04-25T09:10:02.093Z</time></trkpt><trkpt lat="41.7910052" lon="1.7644188"><ele>360.25</ele><time>2026-04-25T09:10:03.094Z</time></trkpt><trkpt lat="41.7910666" lon="1.7642863"><ele>363.0</ele><time>2026-04-25T09:10:04.094Z</time></trkpt><trkpt lat="41.7911679" lon="1.7642126"><ele>368.75</ele><time>2026-04-25T09:10:05.093Z</time></trkpt><trkpt lat="41.7913034" lon="1.7641513"><ele>374.5</ele><time>2026-04-25T09:10:06.094Z</time></trkpt><trkpt lat="41.791413" lon="1.7640443"><ele>380.25</ele><time>2026-04-25T09:10:07.094Z</time></trkpt><trkpt lat="41.7915013" lon="1.7638857"><ele>386.0</ele><time>2026-04-25T09:10:08.094Z</time></trkpt><trkpt lat="41.7915944" lon="1.7636686"><ele>382.0</ele><time>2026-04-25T09:10:09.094Z</time></trkpt><trkpt lat="41.7916831" lon="1.7634767"><ele>378.0</ele><time>2026-04-25T09:10:10.093Z</time></trkpt><trkpt lat="41.7917969" lon="1.7633144"><ele>374.0</ele><time>2026-04-25T09:10:11.094Z</time></trkpt><trkpt lat="41.7919552" lon="1.7631709"><ele>382.75</ele><time>2026-04-25T09:10:12.093Z</time></trkpt><trkpt lat="41.7921176" lon="1.7630743"><ele>391.5</ele><time>2026-04-25T09:10:13.093Z</time></trkpt><trkpt lat="41.7922461" lon="1.7630083"><ele>400.25</ele><time>2026-04-25T09:10:14.095Z</time></trkpt><trkpt lat="41.7923404" lon="1.762912"><ele>409.0</ele><time>2026-04-25T09:10:15.095Z</time></trkpt><trkpt lat="41.7923881" lon="1.7627903"><ele>405.6666666666667</ele><time>2026-04-25T09:10:16.093Z</time></trkpt><trkpt lat="41.7923771" lon="1.7626403"><ele>402.33333333333337</ele><time>2026-04-25T09:10:17.095Z</time></trkpt><trkpt lat="41.7923101" lon="1.7624546"><ele>399.0</ele><time>2026-04-25T09:10:18.094Z</time></trkpt><trkpt lat="41.7922142" lon="1.7622218"><ele>399.0</ele><time>2026-04-25T09:10:19.093Z</time></trkpt><trkpt lat="41.7921324" lon="1.7620007"><ele>399.0</ele><time>2026-04-25T09:10:20.094Z</time></trkpt><trkpt lat="41.7920795" lon="1.7617899"><ele>399.0</ele><time>2026-04-25T09:10:21.094Z</time></trkpt><trkpt lat="41.7920698" lon="1.7615741"><ele>400.33333333333337</ele><time>2026-04-25T09:10:22.094Z</time></trkpt><trkpt lat="41.792113" lon="1.7613611"><ele>401.6666666666667</ele><time>2026-04-25T09:10:23.094Z</time></trkpt><trkpt lat="41.7922043" lon="1.7611722"><ele>403.0</ele><time>2026-04-25T09:10:24.093Z</time></trkpt><trkpt lat="41.7923382" lon="1.76102"><ele>399.6666666666667</ele><time>2026-04-25T09:10:25.094Z</time></trkpt><trkpt lat="41.792483" lon="1.7609318"><ele>396.33333333333337</ele><time>2026-04-25T09:10:26.094Z</time></trkpt><trkpt lat="41.7926278" lon="1.7609112"><ele>393.0</ele><time>2026-04-25T09:10:27.094Z</time></trkpt><trkpt lat="41.7927831" lon="1.7609648"><ele>399.66666666666663</ele><time>2026-04-25T09:10:28.094Z</time></trkpt><trkpt lat="41.7929516" lon="1.7610555"><ele>406.3333333333333</ele><time>2026-04-25T09:10:29.094Z</time></trkpt><trkpt lat="41.7931239" lon="1.7611068"><ele>413.0</ele><time>2026-04-25T09:10:30.093Z</time></trkpt><trkpt lat="41.7932744" lon="1.7611235"><ele>413.0</ele><time>2026-04-25T09:10:31.094Z</time></trkpt><trkpt lat="41.7933951" lon="1.7611252"><ele>413.0</ele><time>2026-04-25T09:10:32.094Z</time></trkpt><trkpt lat="41.793488" lon="1.7610697"><ele>413.0</ele><time>2026-04-25T09:10:33.094Z</time></trkpt><trkpt lat="41.7935425" lon="1.7609598"><ele>413.0</ele><time>2026-04-25T09:10:34.094Z</time></trkpt><trkpt lat="41.7935442" lon="1.7608015"><ele>413.0</ele><time>2026-04-25T09:10:35.094Z</time></trkpt><trkpt lat="41.7935083" lon="1.7605992"><ele>410.0</ele><time>2026-04-25T09:10:36.094Z</time></trkpt><trkpt lat="41.7934845" lon="1.7603634"><ele>407.0</ele><time>2026-04-25T09:10:37.094Z</time></trkpt><trkpt lat="41.7935017" lon="1.7601582"><ele>404.0</ele><time>2026-04-25T09:10:38.094Z</time></trkpt><trkpt lat="41.7935531" lon="1.7599911"><ele>404.0</ele><time>2026-04-25T09:10:39.094Z</time></trkpt><trkpt lat="41.7936479" lon="1.7598554"><ele>404.0</ele><time>2026-04-25T09:10:40.094Z</time></trkpt><trkpt lat="41.7937749" lon="1.7597822"><ele>404.0</ele><time>2026-04-25T09:10:41.093Z</time></trkpt><trkpt lat="41.7939413" lon="1.7597624"><ele>404.0</ele><time>2026-04-25T09:10:42.094Z</time></trkpt><trkpt lat="41.794136" lon="1.7597525"><ele>404.0</ele><time>2026-04-25T09:10:43.095Z</time></trkpt><trkpt lat="41.7943029" lon="1.7597349"><ele>404.0</ele><time>2026-04-25T09:10:44.094Z</time></trkpt><trkpt lat="41.7944358" lon="1.7596696"><ele>404.0</ele><time>2026-04-25T09:10:45.094Z</time></trkpt><trkpt lat="41.7945454" lon="1.7595343"><ele>407.0</ele><time>2026-04-25T09:10:46.094Z</time></trkpt><trkpt lat="41.7946567" lon="1.7593228"><ele>410.0</ele><time>2026-04-25T09:10:47.095Z</time></trkpt><trkpt lat="41.7947785" lon="1.7590957"><ele>413.0</ele><time>2026-04-25T09:10:48.094Z</time></trkpt><trkpt lat="41.7949068" lon="1.7589194"><ele>413.0</ele><time>2026-04-25T09:10:49.094Z</time></trkpt><trkpt lat="41.7950541" lon="1.7587992"><ele>413.0</ele><time>2026-04-25T09:10:50.095Z</time></trkpt><trkpt lat="41.7952355" lon="1.75872"><ele>413.0</ele><time>2026-04-25T09:10:51.094Z</time></trkpt><trkpt lat="41.7954551" lon="1.7586966"><ele>419.0</ele><time>2026-04-25T09:10:52.093Z</time></trkpt><trkpt lat="41.7956825" lon="1.7587121"><ele>425.0</ele><time>2026-04-25T09:10:53.093Z</time></trkpt><trkpt lat="41.7958671" lon="1.7587242"><ele>431.0</ele><time>2026-04-25T09:10:54.095Z</time></trkpt><trkpt lat="41.7960223" lon="1.7586908"><ele>431.3333333333333</ele><time>2026-04-25T09:10:55.094Z</time></trkpt><trkpt lat="41.796149" lon="1.7585926"><ele>431.66666666666663</ele><time>2026-04-25T09:10:56.094Z</time></trkpt><trkpt lat="41.7962397" lon="1.7584294"><ele>432.0</ele><time>2026-04-25T09:10:57.093Z</time></trkpt><trkpt lat="41.796306" lon="1.758245"><ele>432.0</ele><time>2026-04-25T09:10:58.094Z</time></trkpt><trkpt lat="41.7963873" lon="1.7581074"><ele>432.0</ele><time>2026-04-25T09:10:59.093Z</time></trkpt><trkpt lat="41.796536" lon="1.7579887"><ele>432.0</ele><time>2026-04-25T09:11:00.095Z</time></trkpt><trkpt lat="41.7967222" lon="1.7578572"><ele>432.0</ele><time>2026-04-25T09:11:01.095Z</time></trkpt><trkpt lat="41.796924" lon="1.757695"><ele>432.0</ele><time>2026-04-25T09:11:02.094Z</time></trkpt><trkpt lat="41.7970908" lon="1.7575159"><ele>432.0</ele><time>2026-04-25T09:11:03.093Z</time></trkpt><trkpt lat="41.7972431" lon="1.7573754"><ele>432.0</ele><time>2026-04-25T09:11:04.094Z</time></trkpt><trkpt lat="41.7974337" lon="1.7572979"><ele>432.0</ele><time>2026-04-25T09:11:05.094Z</time></trkpt><trkpt lat="41.7976296" lon="1.7572125"><ele>432.0</ele><time>2026-04-25T09:11:06.094Z</time></trkpt><trkpt lat="41.797807" lon="1.7570543"><ele>432.0</ele><time>2026-04-25T09:11:07.094Z</time></trkpt><trkpt lat="41.7979885" lon="1.7568628"><ele>432.0</ele><time>2026-04-25T09:11:08.094Z</time></trkpt><trkpt lat="41.7981541" lon="1.7567214"><ele>432.0</ele><time>2026-04-25T09:11:09.094Z</time></trkpt><trkpt lat="41.7983563" lon="1.7566265"><ele>436.0</ele><time>2026-04-25T09:11:10.094Z</time></trkpt><trkpt lat="41.7985828" lon="1.756589"><ele>440.0</ele><time>2026-04-25T09:11:11.093Z</time></trkpt><trkpt lat="41.7988" lon="1.7565888"><ele>444.0</ele><time>2026-04-25T09:11:12.095Z</time></trkpt><trkpt lat="41.7989874" lon="1.7565649"><ele>444.0</ele><time>2026-04-25T09:11:13.094Z</time></trkpt><trkpt lat="41.7991505" lon="1.7565273"><ele>444.0</ele><time>2026-04-25T09:11:14.094Z</time></trkpt><trkpt lat="41.7992642" lon="1.7564593"><ele>444.0</ele><time>2026-04-25T09:11:15.094Z</time></trkpt><trkpt lat="41.7993337" lon="1.7563538"><ele>444.0</ele><time>2026-04-25T09:11:16.093Z</time></trkpt><trkpt lat="41.7993427" lon="1.7562264"><ele>444.0</ele><time>2026-04-25T09:11:17.094Z</time></trkpt><trkpt lat="41.7992852" lon="1.7561081"><ele>444.0</ele><time>2026-04-25T09:11:18.095Z</time></trkpt><trkpt lat="41.7991725" lon="1.7559889"><ele>444.0</ele><time>2026-04-25T09:11:19.094Z</time></trkpt><trkpt lat="41.7990795" lon="1.7558556"><ele>444.0</ele><time>2026-04-25T09:11:20.093Z</time></trkpt><trkpt lat="41.7990444" lon="1.7557093"><ele>443.66666666666663</ele><time>2026-04-25T09:11:21.095Z</time></trkpt><trkpt lat="41.7990712" lon="1.7555527"><ele>443.3333333333333</ele><time>2026-04-25T09:11:22.094Z</time></trkpt><trkpt lat="41.7991545" lon="1.7553727"><ele>443.0</ele><time>2026-04-25T09:11:23.093Z</time></trkpt><trkpt lat="41.7992683" lon="1.7551624"><ele>448.0</ele><time>2026-04-25T09:11:24.095Z</time></trkpt><trkpt lat="41.799408" lon="1.7549654"><ele>453.0</ele><time>2026-04-25T09:11:25.094Z</time></trkpt><trkpt lat="41.7995936" lon="1.7548046"><ele>458.0</ele><time>2026-04-25T09:11:26.094Z</time></trkpt><trkpt lat="41.7997707" lon="1.7546886"><ele>458.0</ele><time>2026-04-25T09:11:27.094Z</time></trkpt><trkpt lat="41.7999463" lon="1.7545477"><ele>458.0</ele><time>2026-04-25T09:11:28.093Z</time></trkpt><trkpt lat="41.8000839" lon="1.7543368"><ele>458.0</ele><time>2026-04-25T09:11:29.094Z</time></trkpt><trkpt lat="41.8002187" lon="1.7540709"><ele>458.66666666666663</ele><time>2026-04-25T09:11:30.095Z</time></trkpt><trkpt lat="41.8003281" lon="1.7538435"><ele>459.33333333333337</ele><time>2026-04-25T09:11:31.093Z</time></trkpt><trkpt lat="41.8004725" lon="1.7536696"><ele>460.0</ele><time>2026-04-25T09:11:32.094Z</time></trkpt><trkpt lat="41.8006712" lon="1.7535006"><ele>460.0</ele><time>2026-04-25T09:11:33.094Z</time></trkpt><trkpt lat="41.8008864" lon="1.7533283"><ele>460.0</ele><time>2026-04-25T09:11:34.094Z</time></trkpt><trkpt lat="41.8011063" lon="1.7531395"><ele>463.5</ele><time>2026-04-25T09:11:35.094Z</time></trkpt><trkpt lat="41.8012989" lon="1.7529255"><ele>467.0</ele><time>2026-04-25T09:11:36.093Z</time></trkpt><trkpt lat="41.8014776" lon="1.7526796"><ele>467.0</ele><time>2026-04-25T09:11:37.094Z</time></trkpt><trkpt lat="41.8016335" lon="1.7524168"><ele>467.0</ele><time>2026-04-25T09:11:38.093Z</time></trkpt><trkpt lat="41.8017499" lon="1.7521639"><ele>466.5</ele><time>2026-04-25T09:11:39.094Z</time></trkpt><trkpt lat="41.8018235" lon="1.7518683"><ele>466.0</ele><time>2026-04-25T09:11:40.094Z</time></trkpt><trkpt lat="41.8018819" lon="1.7515304"><ele>464.6666666666667</ele><time>2026-04-25T09:11:41.093Z</time></trkpt><trkpt lat="41.8019355" lon="1.7512243"><ele>463.33333333333337</ele><time>2026-04-25T09:11:42.094Z</time></trkpt><trkpt lat="41.8019813" lon="1.7509635"><ele>462.0</ele><time>2026-04-25T09:11:43.095Z</time></trkpt><trkpt lat="41.802006" lon="1.750743"><ele>461.25</ele><time>2026-04-25T09:11:44.093Z</time></trkpt><trkpt lat="41.8019775" lon="1.750543"><ele>460.5</ele><time>2026-04-25T09:11:45.094Z</time></trkpt><trkpt lat="41.8019016" lon="1.7503915"><ele>459.75</ele><time>2026-04-25T09:11:46.094Z</time></trkpt><trkpt lat="41.8017947" lon="1.7503051"><ele>459.0</ele><time>2026-04-25T09:11:47.094Z</time></trkpt><trkpt lat="41.801685" lon="1.7503055"><ele>463.33333333333337</ele><time>2026-04-25T09:11:48.094Z</time></trkpt><trkpt lat="41.8015818" lon="1.7503988"><ele>467.6666666666667</ele><time>2026-04-25T09:11:49.093Z</time></trkpt><trkpt lat="41.8014737" lon="1.7505723"><ele>472.0</ele><time>2026-04-25T09:11:50.094Z</time></trkpt><trkpt lat="41.8013442" lon="1.7507797"><ele>472.0</ele><time>2026-04-25T09:11:51.094Z</time></trkpt><trkpt lat="41.8011997" lon="1.7509675"><ele>472.0</ele><time>2026-04-25T09:11:52.093Z</time></trkpt><trkpt lat="41.8010812" lon="1.7511204"><ele>472.0</ele><time>2026-04-25T09:11:53.093Z</time></trkpt><trkpt lat="41.800987" lon="1.7512168"><ele>472.0</ele><time>2026-04-25T09:11:54.094Z</time></trkpt><trkpt lat="41.8008979" lon="1.7512334"><ele>472.00000000000006</ele><time>2026-04-25T09:11:55.094Z</time></trkpt><trkpt lat="41.8008488" lon="1.7511764"><ele>472.00000000000006</ele><time>2026-04-25T09:11:56.094Z</time></trkpt><trkpt lat="41.8008535" lon="1.7510759"><ele>472.0</ele><time>2026-04-25T09:11:57.094Z</time></trkpt><trkpt lat="41.8009168" lon="1.7509387"><ele>472.0</ele><time>2026-04-25T09:11:58.093Z</time></trkpt><trkpt lat="41.8010184" lon="1.7507787"><ele>472.0</ele><time>2026-04-25T09:11:59.094Z</time></trkpt><trkpt lat="41.8011272" lon="1.7505812"><ele>472.0</ele><time>2026-04-25T09:12:00.094Z</time></trkpt><trkpt lat="41.8011983" lon="1.7503777"><ele>472.0</ele><time>2026-04-25T09:12:01.093Z</time></trkpt><trkpt lat="41.8012414" lon="1.7501119"><ele>477.0</ele><time>2026-04-25T09:12:02.094Z</time></trkpt><trkpt lat="41.8012603" lon="1.7497995"><ele>482.0</ele><time>2026-04-25T09:12:03.095Z</time></trkpt><trkpt lat="41.8012775" lon="1.7494585"><ele>485.0</ele><time>2026-04-25T09:12:04.094Z</time></trkpt><trkpt lat="41.8013108" lon="1.7491046"><ele>488.0</ele><time>2026-04-25T09:12:05.095Z</time></trkpt><trkpt lat="41.8013573" lon="1.7487962"><ele>491.0</ele><time>2026-04-25T09:12:06.093Z</time></trkpt><trkpt lat="41.8013973" lon="1.7485284"><ele>494.0</ele><time>2026-04-25T09:12:07.094Z</time></trkpt><trkpt lat="41.8014338" lon="1.7483063"><ele>497.0</ele><time>2026-04-25T09:12:08.093Z</time></trkpt><trkpt lat="41.8015045" lon="1.7481407"><ele>497.0</ele><time>2026-04-25T09:12:09.094Z</time></trkpt><trkpt lat="41.8016125" lon="1.7480293"><ele>497.0</ele><time>2026-04-25T09:12:10.094Z</time></trkpt><trkpt lat="41.8017701" lon="1.7479644"><ele>497.0</ele><time>2026-04-25T09:12:11.093Z</time></trkpt><trkpt lat="41.8019199" lon="1.7479018"><ele>492.25</ele><time>2026-04-25T09:12:12.094Z</time></trkpt><trkpt lat="41.8020208" lon="1.7478212"><ele>487.5</ele><time>2026-04-25T09:12:13.094Z</time></trkpt><trkpt lat="41.8020881" lon="1.7476865"><ele>482.75</ele><time>2026-04-25T09:12:14.093Z</time></trkpt><trkpt lat="41.8021055" lon="1.7475446"><ele>478.0</ele><time>2026-04-25T09:12:15.094Z</time></trkpt><trkpt lat="41.8020657" lon="1.7474124"><ele>478.0</ele><time>2026-04-25T09:12:16.094Z</time></trkpt><trkpt lat="41.8019646" lon="1.7473117"><ele>478.0</ele><time>2026-04-25T09:12:17.094Z</time></trkpt><trkpt lat="41.8018029" lon="1.747226"><ele>478.0</ele><time>2026-04-25T09:12:18.093Z</time></trkpt><trkpt lat="41.8016087" lon="1.7471167"><ele>481.0</ele><time>2026-04-25T09:12:19.094Z</time></trkpt><trkpt lat="41.8014155" lon="1.7469539"><ele>484.0</ele><time>2026-04-25T09:12:20.093Z</time></trkpt><trkpt lat="41.8012481" lon="1.7467733"><ele>487.0</ele><time>2026-04-25T09:12:21.094Z</time></trkpt><trkpt lat="41.8011134" lon="1.7466075"><ele>487.0</ele><time>2026-04-25T09:12:22.094Z</time></trkpt><trkpt lat="41.801036" lon="1.7464272"><ele>487.0</ele><time>2026-04-25T09:12:23.095Z</time></trkpt><trkpt lat="41.801021" lon="1.7462293"><ele>487.0</ele><time>2026-04-25T09:12:24.093Z</time></trkpt><trkpt lat="41.8010455" lon="1.7459755"><ele>483.5</ele><time>2026-04-25T09:12:25.094Z</time></trkpt><trkpt lat="41.8010892" lon="1.7456794"><ele>480.0</ele><time>2026-04-25T09:12:26.093Z</time></trkpt><trkpt lat="41.8011479" lon="1.7453823"><ele>485.66666666666663</ele><time>2026-04-25T09:12:27.093Z</time></trkpt><trkpt lat="41.8012363" lon="1.7451218"><ele>491.3333333333333</ele><time>2026-04-25T09:12:28.093Z</time></trkpt><trkpt lat="41.8013378" lon="1.7448993"><ele>497.0</ele><time>2026-04-25T09:12:29.093Z</time></trkpt><trkpt lat="41.8014116" lon="1.7446745"><ele>497.0</ele><time>2026-04-25T09:12:30.095Z</time></trkpt><trkpt lat="41.8014438" lon="1.7444152"><ele>497.0</ele><time>2026-04-25T09:12:31.095Z</time></trkpt><trkpt lat="41.8014492" lon="1.7440914"><ele>497.0</ele><time>2026-04-25T09:12:32.094Z</time></trkpt><trkpt lat="41.8014466" lon="1.7437261"><ele>502.0</ele><time>2026-04-25T09:12:33.093Z</time></trkpt><trkpt lat="41.8014462" lon="1.7433169"><ele>507.0</ele><time>2026-04-25T09:12:34.094Z</time></trkpt><trkpt lat="41.8014508" lon="1.742902"><ele>505.5</ele><time>2026-04-25T09:12:35.094Z</time></trkpt><trkpt lat="41.8014555" lon="1.7425331"><ele>504.0</ele><time>2026-04-25T09:12:36.094Z</time></trkpt><trkpt lat="41.8014572" lon="1.7422057"><ele>504.0</ele><time>2026-04-25T09:12:37.094Z</time></trkpt><trkpt lat="41.8014512" lon="1.7419034"><ele>504.0</ele><time>2026-04-25T09:12:38.093Z</time></trkpt><trkpt lat="41.8013987" lon="1.7416023"><ele>502.0</ele><time>2026-04-25T09:12:39.095Z</time></trkpt><trkpt lat="41.8013095" lon="1.7412766"><ele>500.0</ele><time>2026-04-25T09:12:40.094Z</time></trkpt><trkpt lat="41.8012173" lon="1.7409718"><ele>498.0</ele><time>2026-04-25T09:12:41.093Z</time></trkpt><trkpt lat="41.8011077" lon="1.7407123"><ele>496.0</ele><time>2026-04-25T09:12:42.094Z</time></trkpt><trkpt lat="41.8009706" lon="1.7405029"><ele>494.0</ele><time>2026-04-25T09:12:43.093Z</time></trkpt><trkpt lat="41.8008321" lon="1.7403177"><ele>502.66666666666663</ele><time>2026-04-25T09:12:44.093Z</time></trkpt><trkpt lat="41.8007462" lon="1.7401044"><ele>511.33333333333337</ele><time>2026-04-25T09:12:45.093Z</time></trkpt><trkpt lat="41.8006964" lon="1.7398421"><ele>520.0</ele><time>2026-04-25T09:12:46.093Z</time></trkpt><trkpt lat="41.8006759" lon="1.7395448"><ele>520.0</ele><time>2026-04-25T09:12:47.094Z</time></trkpt><trkpt lat="41.8006701" lon="1.7392813"><ele>520.0</ele><time>2026-04-25T09:12:48.094Z</time></trkpt><trkpt lat="41.8006706" lon="1.7390386"><ele>520.0</ele><time>2026-04-25T09:12:49.093Z</time></trkpt><trkpt lat="41.8006836" lon="1.7388148"><ele>520.0</ele><time>2026-04-25T09:12:50.094Z</time></trkpt><trkpt lat="41.8007239" lon="1.7385939"><ele>520.0</ele><time>2026-04-25T09:12:51.094Z</time></trkpt><trkpt lat="41.8007886" lon="1.7383699"><ele>520.0</ele><time>2026-04-25T09:12:52.094Z</time></trkpt><trkpt lat="41.8008544" lon="1.7381398"><ele>521.0</ele><time>2026-04-25T09:12:53.093Z</time></trkpt><trkpt lat="41.8009217" lon="1.7379016"><ele>522.0</ele><time>2026-04-25T09:12:54.094Z</time></trkpt><trkpt lat="41.8009878" lon="1.7376605"><ele>523.0</ele><time>2026-04-25T09:12:55.093Z</time></trkpt><trkpt lat="41.8010504" lon="1.7374061"><ele>521.0</ele><time>2026-04-25T09:12:56.094Z</time></trkpt><trkpt lat="41.8011001" lon="1.7371332"><ele>519.0</ele><time>2026-04-25T09:12:57.095Z</time></trkpt><trkpt lat="41.8011494" lon="1.7368464"><ele>517.0</ele><time>2026-04-25T09:12:58.095Z</time></trkpt><trkpt lat="41.8012235" lon="1.736545"><ele>517.0</ele><time>2026-04-25T09:12:59.093Z</time></trkpt><trkpt lat="41.8013076" lon="1.7362924"><ele>517.0</ele><time>2026-04-25T09:13:00.094Z</time></trkpt><trkpt lat="41.8013813" lon="1.7360707"><ele>517.0</ele><time>2026-04-25T09:13:01.093Z</time></trkpt><trkpt lat="41.8014079" lon="1.7358592"><ele>520.6666666666667</ele><time>2026-04-25T09:13:02.093Z</time></trkpt><trkpt lat="41.8013845" lon="1.7356189"><ele>524.3333333333334</ele><time>2026-04-25T09:13:03.094Z</time></trkpt><trkpt lat="41.8013581" lon="1.7353454"><ele>528.0</ele><time>2026-04-25T09:13:04.094Z</time></trkpt><trkpt lat="41.8013543" lon="1.7350489"><ele>528.0</ele><time>2026-04-25T09:13:05.093Z</time></trkpt><trkpt lat="41.8013147" lon="1.734747"><ele>528.0</ele><time>2026-04-25T09:13:06.094Z</time></trkpt><trkpt lat="41.8012381" lon="1.7344271"><ele>527.0</ele><time>2026-04-25T09:13:07.095Z</time></trkpt><trkpt lat="41.8011831" lon="1.7341156"><ele>526.0</ele><time>2026-04-25T09:13:08.093Z</time></trkpt><trkpt lat="41.8011612" lon="1.7338234"><ele>522.0</ele><time>2026-04-25T09:13:09.093Z</time></trkpt><trkpt lat="41.8011511" lon="1.7335543"><ele>518.0</ele><time>2026-04-25T09:13:10.094Z</time></trkpt><trkpt lat="41.8010943" lon="1.733281"><ele>514.0</ele><time>2026-04-25T09:13:11.094Z</time></trkpt><trkpt lat="41.8009928" lon="1.73301"><ele>530.5</ele><time>2026-04-25T09:13:12.094Z</time></trkpt><trkpt lat="41.8008748" lon="1.732729"><ele>547.0</ele><time>2026-04-25T09:13:13.094Z</time></trkpt><trkpt lat="41.8008037" lon="1.7324445"><ele>547.0</ele><time>2026-04-25T09:13:14.094Z</time></trkpt><trkpt lat="41.8007659" lon="1.7321474"><ele>547.0</ele><time>2026-04-25T09:13:15.094Z</time></trkpt><trkpt lat="41.8007717" lon="1.7318496"><ele>547.0</ele><time>2026-04-25T09:13:16.094Z</time></trkpt><trkpt lat="41.8008121" lon="1.7315366"><ele>547.5</ele><time>2026-04-25T09:13:17.095Z</time></trkpt><trkpt lat="41.8008458" lon="1.7312234"><ele>548.0</ele><time>2026-04-25T09:13:18.093Z</time></trkpt><trkpt lat="41.8008426" lon="1.730913"><ele>549.0</ele><time>2026-04-25T09:13:19.094Z</time></trkpt><trkpt lat="41.8008104" lon="1.7306216"><ele>550.0</ele><time>2026-04-25T09:13:20.094Z</time></trkpt><trkpt lat="41.8007973" lon="1.7303539"><ele>551.0</ele><time>2026-04-25T09:13:21.094Z</time></trkpt><trkpt lat="41.8008319" lon="1.7300799"><ele>551.6666666666666</ele><time>2026-04-25T09:13:22.094Z</time></trkpt><trkpt lat="41.8008988" lon="1.729795"><ele>552.3333333333334</ele><time>2026-04-25T09:13:23.094Z</time></trkpt><trkpt lat="41.8009475" lon="1.7295123"><ele>553.0</ele><time>2026-04-25T09:13:24.093Z</time></trkpt><trkpt lat="41.8009506" lon="1.7292019"><ele>554.0</ele><time>2026-04-25T09:13:25.094Z</time></trkpt><trkpt lat="41.8009684" lon="1.7289024"><ele>555.0</ele><time>2026-04-25T09:13:26.094Z</time></trkpt><trkpt lat="41.8010082" lon="1.7286435"><ele>556.0</ele><time>2026-04-25T09:13:27.094Z</time></trkpt><trkpt lat="41.8010044" lon="1.7283982"><ele>555.3333333333334</ele><time>2026-04-25T09:13:28.095Z</time></trkpt><trkpt lat="41.800951" lon="1.7281502"><ele>554.6666666666666</ele><time>2026-04-25T09:13:29.094Z</time></trkpt><trkpt lat="41.8009127" lon="1.7279253"><ele>554.0</ele><time>2026-04-25T09:13:30.095Z</time></trkpt><trkpt lat="41.8009287" lon="1.727719"><ele>553.3333333333333</ele><time>2026-04-25T09:13:31.095Z</time></trkpt><trkpt lat="41.8009938" lon="1.727491"><ele>552.6666666666666</ele><time>2026-04-25T09:13:32.093Z</time></trkpt><trkpt lat="41.8010887" lon="1.7272334"><ele>552.0</ele><time>2026-04-25T09:13:33.094Z</time></trkpt><trkpt lat="41.8011641" lon="1.7269598"><ele>544.0</ele><time>2026-04-25T09:13:34.094Z</time></trkpt><trkpt lat="41.8012027" lon="1.7266683"><ele>536.0</ele><time>2026-04-25T09:13:35.094Z</time></trkpt><trkpt lat="41.8011911" lon="1.7263391"><ele>543.0</ele><time>2026-04-25T09:13:36.094Z</time></trkpt><trkpt lat="41.8011607" lon="1.7259765"><ele>550.0</ele><time>2026-04-25T09:13:37.093Z</time></trkpt><trkpt lat="41.8011293" lon="1.725603"><ele>550.0</ele><time>2026-04-25T09:13:38.094Z</time></trkpt><trkpt lat="41.801097" lon="1.7252658"><ele>550.0</ele><time>2026-04-25T09:13:39.095Z</time></trkpt><trkpt lat="41.8010684" lon="1.7249485"><ele>553.5</ele><time>2026-04-25T09:13:40.094Z</time></trkpt><trkpt lat="41.8010691" lon="1.7246258"><ele>557.0</ele><time>2026-04-25T09:13:41.093Z</time></trkpt><trkpt lat="41.8011093" lon="1.7242884"><ele>561.0</ele><time>2026-04-25T09:13:42.093Z</time></trkpt><trkpt lat="41.8011792" lon="1.7239677"><ele>565.0</ele><time>2026-04-25T09:13:43.094Z</time></trkpt><trkpt lat="41.8012662" lon="1.7236939"><ele>565.3333333333334</ele><time>2026-04-25T09:13:44.093Z</time></trkpt><trkpt lat="41.8013636" lon="1.7234664"><ele>565.6666666666666</ele><time>2026-04-25T09:13:45.094Z</time></trkpt><trkpt lat="41.8014321" lon="1.7232719"><ele>566.0</ele><time>2026-04-25T09:13:46.093Z</time></trkpt><trkpt lat="41.8014372" lon="1.723038"><ele>566.0</ele><time>2026-04-25T09:13:47.095Z</time></trkpt><trkpt lat="41.8013944" lon="1.7227504"><ele>566.0</ele><time>2026-04-25T09:13:48.093Z</time></trkpt><trkpt lat="41.8013329" lon="1.722433"><ele>566.0</ele><time>2026-04-25T09:13:49.094Z</time></trkpt><trkpt lat="41.8012626" lon="1.7220991"><ele>566.0</ele><time>2026-04-25T09:13:50.095Z</time></trkpt><trkpt lat="41.8012075" lon="1.7218312"><ele>566.25</ele><time>2026-04-25T09:13:51.093Z</time></trkpt><trkpt lat="41.8011651" lon="1.7216269"><ele>566.5</ele><time>2026-04-25T09:13:52.093Z</time></trkpt><trkpt lat="41.801156" lon="1.7214621"><ele>566.75</ele><time>2026-04-25T09:13:53.094Z</time></trkpt><trkpt lat="41.8012058" lon="1.7213168"><ele>567.0</ele><time>2026-04-25T09:13:54.094Z</time></trkpt><trkpt lat="41.8013118" lon="1.7211948"><ele>567.0</ele><time>2026-04-25T09:13:55.094Z</time></trkpt><trkpt lat="41.8014686" lon="1.721129"><ele>567.0</ele><time>2026-04-25T09:13:56.094Z</time></trkpt><trkpt lat="41.8016538" lon="1.7211098"><ele>567.0</ele><time>2026-04-25T09:13:57.095Z</time></trkpt><trkpt lat="41.8018249" lon="1.7210909"><ele>566.25</ele><time>2026-04-25T09:13:58.094Z</time></trkpt><trkpt lat="41.8019632" lon="1.7210222"><ele>565.5</ele><time>2026-04-25T09:13:59.094Z</time></trkpt><trkpt lat="41.8020523" lon="1.7208991"><ele>564.75</ele><time>2026-04-25T09:14:00.094Z</time></trkpt><trkpt lat="41.8021064" lon="1.7207475"><ele>564.0</ele><time>2026-04-25T09:14:01.094Z</time></trkpt><trkpt lat="41.8021738" lon="1.720648"><ele>564.0</ele><time>2026-04-25T09:14:02.095Z</time></trkpt><trkpt lat="41.8022746" lon="1.7206008"><ele>564.0</ele><time>2026-04-25T09:14:03.094Z</time></trkpt><trkpt lat="41.8023935" lon="1.7206253"><ele>564.0</ele><time>2026-04-25T09:14:04.094Z</time></trkpt><trkpt lat="41.8025327" lon="1.7207016"><ele>564.0</ele><time>2026-04-25T09:14:05.095Z</time></trkpt><trkpt lat="41.8026767" lon="1.7207347"><ele>566.5</ele><time>2026-04-25T09:14:06.094Z</time></trkpt><trkpt lat="41.8028127" lon="1.7206995"><ele>569.0</ele><time>2026-04-25T09:14:07.094Z</time></trkpt><trkpt lat="41.8029312" lon="1.7206025"><ele>571.5</ele><time>2026-04-25T09:14:08.094Z</time></trkpt><trkpt lat="41.8030179" lon="1.7204455"><ele>574.0</ele><time>2026-04-25T09:14:09.094Z</time></trkpt><trkpt lat="41.8030992" lon="1.7202979"><ele>571.5</ele><time>2026-04-25T09:14:10.095Z</time></trkpt><trkpt lat="41.8032154" lon="1.7201727"><ele>569.0</ele><time>2026-04-25T09:14:11.094Z</time></trkpt><trkpt lat="41.803348" lon="1.7200678"><ele>566.5</ele><time>2026-04-25T09:14:12.094Z</time></trkpt><trkpt lat="41.8034324" lon="1.7199328"><ele>564.0</ele><time>2026-04-25T09:14:13.094Z</time></trkpt><trkpt lat="41.8034815" lon="1.7197526"><ele>566.2</ele><time>2026-04-25T09:14:14.095Z</time></trkpt><trkpt lat="41.8035242" lon="1.7196031"><ele>568.4</ele><time>2026-04-25T09:14:15.093Z</time></trkpt><trkpt lat="41.8035928" lon="1.7195135"><ele>570.6</ele><time>2026-04-25T09:14:16.093Z</time></trkpt><trkpt lat="41.803687" lon="1.7194833"><ele>572.8</ele><time>2026-04-25T09:14:17.095Z</time></trkpt><trkpt lat="41.8038113" lon="1.7195182"><ele>575.0</ele><time>2026-04-25T09:14:18.093Z</time></trkpt><trkpt lat="41.8039149" lon="1.719523"><ele>575.0</ele><time>2026-04-25T09:14:19.095Z</time></trkpt><trkpt lat="41.8040029" lon="1.7194547"><ele>575.0</ele><time>2026-04-25T09:14:20.093Z</time></trkpt><trkpt lat="41.8040578" lon="1.7193455"><ele>575.0</ele><time>2026-04-25T09:14:21.094Z</time></trkpt><trkpt lat="41.8040539" lon="1.7191872"><ele>575.0</ele><time>2026-04-25T09:14:22.095Z</time></trkpt><trkpt lat="41.8039894" lon="1.7189924"><ele>574.6666666666666</ele><time>2026-04-25T09:14:23.093Z</time></trkpt><trkpt lat="41.8038806" lon="1.7187532"><ele>574.3333333333334</ele><time>2026-04-25T09:14:24.093Z</time></trkpt><trkpt lat="41.8037417" lon="1.7185315"><ele>574.0</ele><time>2026-04-25T09:14:25.094Z</time></trkpt><trkpt lat="41.8036311" lon="1.7183778"><ele>575.5</ele><time>2026-04-25T09:14:26.094Z</time></trkpt><trkpt lat="41.8035607" lon="1.7182276"><ele>577.0</ele><time>2026-04-25T09:14:27.093Z</time></trkpt><trkpt lat="41.8035522" lon="1.7180514"><ele>578.5</ele><time>2026-04-25T09:14:28.093Z</time></trkpt><trkpt lat="41.8035982" lon="1.7178582"><ele>580.0</ele><time>2026-04-25T09:14:29.094Z</time></trkpt><trkpt lat="41.8036699" lon="1.7176635"><ele>580.0</ele><time>2026-04-25T09:14:30.095Z</time></trkpt><trkpt lat="41.8037641" lon="1.7175161"><ele>580.0</ele><time>2026-04-25T09:14:31.093Z</time></trkpt><trkpt lat="41.8039235" lon="1.7173735"><ele>580.0</ele><time>2026-04-25T09:14:32.094Z</time></trkpt><trkpt lat="41.8040954" lon="1.7172066"><ele>580.0</ele><time>2026-04-25T09:14:33.094Z</time></trkpt><trkpt lat="41.8042379" lon="1.7169802"><ele>580.0</ele><time>2026-04-25T09:14:34.094Z</time></trkpt><trkpt lat="41.8043455" lon="1.716758"><ele>580.0</ele><time>2026-04-25T09:14:35.094Z</time></trkpt><trkpt lat="41.8044267" lon="1.7165584"><ele>583.6666666666667</ele><time>2026-04-25T09:14:36.093Z</time></trkpt><trkpt lat="41.8045111" lon="1.7163947"><ele>587.3333333333334</ele><time>2026-04-25T09:14:37.093Z</time></trkpt><trkpt lat="41.8046285" lon="1.7162551"><ele>591.0</ele><time>2026-04-25T09:14:38.094Z</time></trkpt><trkpt lat="41.8047599" lon="1.7161486"><ele>591.0</ele><time>2026-04-25T09:14:39.093Z</time></trkpt><trkpt lat="41.8049434" lon="1.716078"><ele>591.0</ele><time>2026-04-25T09:14:40.093Z</time></trkpt><trkpt lat="41.8051722" lon="1.7160211"><ele>591.0</ele><time>2026-04-25T09:14:41.094Z</time></trkpt><trkpt lat="41.805431" lon="1.7159633"><ele>583.5</ele><time>2026-04-25T09:14:42.094Z</time></trkpt><trkpt lat="41.8056782" lon="1.7159013"><ele>576.0</ele><time>2026-04-25T09:14:43.094Z</time></trkpt><trkpt lat="41.8059054" lon="1.7158654"><ele>577.3333333333334</ele><time>2026-04-25T09:14:44.095Z</time></trkpt><trkpt lat="41.8061085" lon="1.7158795"><ele>578.6666666666667</ele><time>2026-04-25T09:14:45.094Z</time></trkpt><trkpt lat="41.8062772" lon="1.7159077"><ele>580.0</ele><time>2026-04-25T09:14:46.095Z</time></trkpt><trkpt lat="41.8064222" lon="1.7159144"><ele>580.0</ele><time>2026-04-25T09:14:47.093Z</time></trkpt><trkpt lat="41.8065611" lon="1.7158534"><ele>580.0</ele><time>2026-04-25T09:14:48.094Z</time></trkpt><trkpt lat="41.8067109" lon="1.7157151"><ele>580.0</ele><time>2026-04-25T09:14:49.093Z</time></trkpt><trkpt lat="41.8068562" lon="1.7155116"><ele>581.6666666666667</ele><time>2026-04-25T09:14:50.094Z</time></trkpt><trkpt lat="41.8069782" lon="1.7152764"><ele>583.3333333333334</ele><time>2026-04-25T09:14:51.094Z</time></trkpt><trkpt lat="41.807087" lon="1.7150709"><ele>585.0</ele><time>2026-04-25T09:14:52.094Z</time></trkpt><trkpt lat="41.8072137" lon="1.7149023"><ele>585.0</ele><time>2026-04-25T09:14:53.094Z</time></trkpt><trkpt lat="41.8073601" lon="1.7147407"><ele>585.0</ele><time>2026-04-25T09:14:54.094Z</time></trkpt><trkpt lat="41.8075079" lon="1.7146396"><ele>585.0</ele><time>2026-04-25T09:14:55.094Z</time></trkpt><trkpt lat="41.8076884" lon="1.7145883"><ele>590.5</ele><time>2026-04-25T09:14:56.094Z</time></trkpt><trkpt lat="41.8079125" lon="1.7145757"><ele>596.0</ele><time>2026-04-25T09:14:57.094Z</time></trkpt><trkpt lat="41.8081506" lon="1.7145937"><ele>596.0</ele><time>2026-04-25T09:14:58.094Z</time></trkpt><trkpt lat="41.8083535" lon="1.7146554"><ele>596.0</ele><time>2026-04-25T09:14:59.093Z</time></trkpt><trkpt lat="41.8085167" lon="1.7147336"><ele>596.0</ele><time>2026-04-25T09:15:00.094Z</time></trkpt><trkpt lat="41.808658" lon="1.714767"><ele>596.0</ele><time>2026-04-25T09:15:01.094Z</time></trkpt><trkpt lat="41.8087558" lon="1.7147112"><ele>596.0</ele><time>2026-04-25T09:15:02.094Z</time></trkpt><trkpt lat="41.8088458" lon="1.7145921"><ele>596.0</ele><time>2026-04-25T09:15:03.094Z</time></trkpt><trkpt lat="41.8088981" lon="1.7144031"><ele>596.0</ele><time>2026-04-25T09:15:04.093Z</time></trkpt><trkpt lat="41.8089361" lon="1.7141719"><ele>596.25</ele><time>2026-04-25T09:15:05.095Z</time></trkpt><trkpt lat="41.8089777" lon="1.7139755"><ele>596.5</ele><time>2026-04-25T09:15:06.093Z</time></trkpt><trkpt lat="41.8090576" lon="1.7138388"><ele>596.75</ele><time>2026-04-25T09:15:07.094Z</time></trkpt><trkpt lat="41.8091898" lon="1.713723"><ele>597.0</ele><time>2026-04-25T09:15:08.094Z</time></trkpt><trkpt lat="41.8093438" lon="1.7136229"><ele>600.0</ele><time>2026-04-25T09:15:09.094Z</time></trkpt><trkpt lat="41.8094453" lon="1.713496"><ele>603.0</ele><time>2026-04-25T09:15:10.094Z</time></trkpt><trkpt lat="41.8095004" lon="1.7133255"><ele>606.0</ele><time>2026-04-25T09:15:11.094Z</time></trkpt><trkpt lat="41.8095135" lon="1.7131182"><ele>609.0</ele><time>2026-04-25T09:15:12.093Z</time></trkpt><trkpt lat="41.8095229" lon="1.7129541"><ele>609.0</ele><time>2026-04-25T09:15:13.095Z</time></trkpt><trkpt lat="41.8095808" lon="1.7128181"><ele>609.0</ele><time>2026-04-25T09:15:14.094Z</time></trkpt><trkpt lat="41.8096981" lon="1.712719"><ele>609.0</ele><time>2026-04-25T09:15:15.093Z</time></trkpt><trkpt lat="41.8061085" lon="1.7158795"><ele>599.3333333333334</ele><time>2026-04-25T09:14:45.094Z</time></trkpt><trkpt lat="41.8062772" lon="1.7159077"><ele>589.6666666666667</ele><time>2026-04-25T09:14:46.095Z</time></trkpt><trkpt lat="41.8064222" lon="1.7159144"><ele>580.0</ele><time>2026-04-25T09:14:47.093Z</time></trkpt><trkpt lat="41.8065611" lon="1.7158534"><ele>580.0</ele><time>2026-04-25T09:14:48.094Z</time></trkpt><trkpt lat="41.8067109" lon="1.7157151"><ele>580.0</ele><time>2026-04-25T09:14:49.093Z</time></trkpt><trkpt lat="41.8068562" lon="1.7155116"><ele>580.0</ele><time>2026-04-25T09:14:50.094Z</time></trkpt><trkpt lat="41.8069782" lon="1.7152764"><ele>581.6666666666667</ele><time>2026-04-25T09:14:51.094Z</time></trkpt><trkpt lat="41.807087" lon="1.7150709"><ele>583.3333333333334</ele><time>2026-04-25T09:14:52.094Z</time></trkpt><trkpt lat="41.8072137" lon="1.7149023"><ele>585.0</ele><time>2026-04-25T09:14:53.094Z</time></trkpt><trkpt lat="41.8073601" lon="1.7147407"><ele>585.0</ele><time>2026-04-25T09:14:54.094Z</time></trkpt><trkpt lat="41.8075079" lon="1.7146396"><ele>585.0</ele><time>2026-04-25T09:14:55.094Z</time></trkpt><trkpt lat="41.8076884" lon="1.7145883"><ele>585.0</ele><time>2026-04-25T09:14:56.094Z</time></trkpt><trkpt lat="41.8079125" lon="1.7145757"><ele>588.6666666666666</ele><time>2026-04-25T09:14:57.094Z</time></trkpt><trkpt lat="41.8081506" lon="1.7145937"><ele>592.3333333333333</ele><time>2026-04-25T09:14:58.094Z</time></trkpt><trkpt lat="41.8083535" lon="1.7146554"><ele>596.0</ele><time>2026-04-25T09:14:59.093Z</time></trkpt><trkpt lat="41.8085167" lon="1.7147336"><ele>596.0</ele><time>2026-04-25T09:15:00.094Z</time></trkpt><trkpt lat="41.808658" lon="1.714767"><ele>596.0</ele><time>2026-04-25T09:15:01.094Z</time></trkpt><trkpt lat="41.8087558" lon="1.7147112"><ele>596.0</ele><time>2026-04-25T09:15:02.094Z</time></trkpt><trkpt lat="41.8088458" lon="1.7145921"><ele>596.0</ele><time>2026-04-25T09:15:03.094Z</time></trkpt><trkpt lat="41.8088981" lon="1.7144031"><ele>596.3333333333333</ele><time>2026-04-25T09:15:04.093Z</time></trkpt><trkpt lat="41.8089361" lon="1.7141719"><ele>596.6666666666666</ele><time>2026-04-25T09:15:05.095Z</time></trkpt><trkpt lat="41.8089777" lon="1.7139755"><ele>597.0</ele><time>2026-04-25T09:15:06.093Z</time></trkpt><trkpt lat="41.8090576" lon="1.7138388"><ele>597.0</ele><time>2026-04-25T09:15:07.094Z</time></trkpt><trkpt lat="41.8091898" lon="1.713723"><ele>597.0</ele><time>2026-04-25T09:15:08.094Z</time></trkpt><trkpt lat="41.8093438" lon="1.7136229"><ele>597.0</ele><time>2026-04-25T09:15:09.094Z</time></trkpt><trkpt lat="41.8094453" lon="1.713496"><ele>600.0</ele><time>2026-04-25T09:15:10.094Z</time></trkpt><trkpt lat="41.8095004" lon="1.7133255"><ele>603.0</ele><time>2026-04-25T09:15:11.094Z</time></trkpt><trkpt lat="41.8095135" lon="1.7131182"><ele>606.0</ele><time>2026-04-25T09:15:12.093Z</time></trkpt><trkpt lat="41.8095229" lon="1.7129541"><ele>609.0</ele><time>2026-04-25T09:15:13.095Z</time></trkpt><trkpt lat="41.8095808" lon="1.7128181"><ele>606.3333333333334</ele><time>2026-04-25T09:15:14.094Z</time></trkpt><trkpt lat="41.8096981" lon="1.712719"><ele>603.6666666666667</ele><time>2026-04-25T09:15:15.093Z</time></trkpt><trkpt lat="41.8098694" lon="1.7126545"><ele>601.0</ele><time>2026-04-25T09:15:16.095Z</time></trkpt><trkpt lat="41.8100574" lon="1.712572"><ele>603.3333333333334</ele><time>2026-04-25T09:15:17.094Z</time></trkpt><trkpt lat="41.8102196" lon="1.7124153"><ele>605.6666666666666</ele><time>2026-04-25T09:15:18.093Z</time></trkpt><trkpt lat="41.8103722" lon="1.7121984"><ele>608.0</ele><time>2026-04-25T09:15:19.095Z</time></trkpt><trkpt lat="41.8105" lon="1.7119969"><ele>607.6666666666666</ele><time>2026-04-25T09:15:20.093Z</time></trkpt><trkpt lat="41.8106572" lon="1.7118643"><ele>607.3333333333334</ele><time>2026-04-25T09:15:21.094Z</time></trkpt><trkpt lat="41.8108662" lon="1.7117505"><ele>607.0</ele><time>2026-04-25T09:15:22.093Z</time></trkpt><trkpt lat="41.8110965" lon="1.7116493"><ele>610.3333333333334</ele><time>2026-04-25T09:15:23.094Z</time></trkpt><trkpt lat="41.8112728" lon="1.7115696"><ele>613.6666666666666</ele><time>2026-04-25T09:15:24.094Z</time></trkpt><trkpt lat="41.8114192" lon="1.7114968"><ele>617.0</ele><time>2026-04-25T09:15:25.094Z</time></trkpt><trkpt lat="41.8115244" lon="1.711386"><ele>617.0</ele><time>2026-04-25T09:15:26.093Z</time></trkpt><trkpt lat="41.8115888" lon="1.7112358"><ele>617.0</ele><time>2026-04-25T09:15:27.094Z</time></trkpt><trkpt lat="41.8115995" lon="1.7110565"><ele>617.0</ele><time>2026-04-25T09:15:28.094Z</time></trkpt><trkpt lat="41.8115527" lon="1.7109078"><ele>617.0</ele><time>2026-04-25T09:15:29.094Z</time></trkpt><trkpt lat="41.811464" lon="1.7108042"><ele>616.0</ele><time>2026-04-25T09:15:30.095Z</time></trkpt><trkpt lat="41.8113291" lon="1.7107614"><ele>615.0</ele><time>2026-04-25T09:15:31.095Z</time></trkpt><trkpt lat="41.8111503" lon="1.7107755"><ele>614.0</ele><time>2026-04-25T09:15:32.094Z</time></trkpt><trkpt lat="41.8109312" lon="1.7108035"><ele>614.0</ele><time>2026-04-25T09:15:33.094Z</time></trkpt><trkpt lat="41.8106855" lon="1.7108342"><ele>614.0</ele><time>2026-04-25T09:15:34.094Z</time></trkpt><trkpt lat="41.810464" lon="1.7108994"><ele>614.0</ele><time>2026-04-25T09:15:35.094Z</time></trkpt><trkpt lat="41.8102381" lon="1.711021"><ele>614.0</ele><time>2026-04-25T09:15:36.094Z</time></trkpt><trkpt lat="41.8100381" lon="1.7111488"><ele>611.6666666666666</ele><time>2026-04-25T09:15:37.095Z</time></trkpt><trkpt lat="41.8098667" lon="1.7112615"><ele>609.3333333333334</ele><time>2026-04-25T09:15:38.093Z</time></trkpt><trkpt lat="41.8097316" lon="1.7113274"><ele>607.0</ele><time>2026-04-25T09:15:39.093Z</time></trkpt><trkpt lat="41.8096135" lon="1.7113376"><ele>607.0</ele><time>2026-04-25T09:15:40.094Z</time></trkpt><trkpt lat="41.8095144" lon="1.7112747"><ele>607.0</ele><time>2026-04-25T09:15:41.093Z</time></trkpt><trkpt lat="41.8094686" lon="1.7111556"><ele>607.0</ele><time>2026-04-25T09:15:42.094Z</time></trkpt><trkpt lat="41.8094855" lon="1.710999"><ele>607.0</ele><time>2026-04-25T09:15:43.095Z</time></trkpt><trkpt lat="41.8095494" lon="1.710793"><ele>616.0</ele><time>2026-04-25T09:15:44.094Z</time></trkpt><trkpt lat="41.8096449" lon="1.7105394"><ele>625.0</ele><time>2026-04-25T09:15:45.093Z</time></trkpt><trkpt lat="41.8097575" lon="1.7102365"><ele>626.5</ele><time>2026-04-25T09:15:46.093Z</time></trkpt><trkpt lat="41.8098839" lon="1.7099049"><ele>628.0</ele><time>2026-04-25T09:15:47.093Z</time></trkpt><trkpt lat="41.8099917" lon="1.709565"><ele>629.0</ele><time>2026-04-25T09:15:48.093Z</time></trkpt><trkpt lat="41.8100582" lon="1.7092069"><ele>630.0</ele><time>2026-04-25T09:15:49.094Z</time></trkpt><trkpt lat="41.8100911" lon="1.7088269"><ele>631.5</ele><time>2026-04-25T09:15:50.093Z</time></trkpt><trkpt lat="41.8100794" lon="1.708417"><ele>633.0</ele><time>2026-04-25T09:15:51.094Z</time></trkpt><trkpt lat="41.8100783" lon="1.707987"><ele>635.0</ele><time>2026-04-25T09:15:52.094Z</time></trkpt><trkpt lat="41.8100761" lon="1.707588"><ele>637.0</ele><time>2026-04-25T09:15:53.094Z</time></trkpt><trkpt lat="41.8100741" lon="1.7072304"><ele>639.0</ele><time>2026-04-25T09:15:54.094Z</time></trkpt><trkpt lat="41.8100665" lon="1.7069098"><ele>641.0</ele><time>2026-04-25T09:15:55.095Z</time></trkpt><trkpt lat="41.8100309" lon="1.7066115"><ele>641.0</ele><time>2026-04-25T09:15:56.094Z</time></trkpt><trkpt lat="41.8099509" lon="1.7063079"><ele>641.0</ele><time>2026-04-25T09:15:57.093Z</time></trkpt><trkpt lat="41.8098369" lon="1.7059872"><ele>644.0</ele><time>2026-04-25T09:15:58.095Z</time></trkpt><trkpt lat="41.809743" lon="1.7056872"><ele>647.0</ele><time>2026-04-25T09:15:59.094Z</time></trkpt><trkpt lat="41.8096691" lon="1.7053666"><ele>650.0</ele><time>2026-04-25T09:16:00.094Z</time></trkpt><trkpt lat="41.8096256" lon="1.7050377"><ele>653.0</ele><time>2026-04-25T09:16:01.094Z</time></trkpt><trkpt lat="41.8095971" lon="1.7047587"><ele>653.0</ele><time>2026-04-25T09:16:02.094Z</time></trkpt><trkpt lat="41.8096103" lon="1.7045141"><ele>653.0</ele><time>2026-04-25T09:16:03.094Z</time></trkpt><trkpt lat="41.8096718" lon="1.7043153"><ele>653.0</ele><time>2026-04-25T09:16:04.095Z</time></trkpt><trkpt lat="41.8097816" lon="1.7041296"><ele>653.0</ele><time>2026-04-25T09:16:05.093Z</time></trkpt><trkpt lat="41.8099373" lon="1.7039038"><ele>653.0</ele><time>2026-04-25T09:16:06.093Z</time></trkpt><trkpt lat="41.8101231" lon="1.7036495"><ele>657.0</ele><time>2026-04-25T09:16:07.093Z</time></trkpt><trkpt lat="41.8103326" lon="1.7033663"><ele>661.0</ele><time>2026-04-25T09:16:08.094Z</time></trkpt><trkpt lat="41.8105566" lon="1.703062"><ele>661.0</ele><time>2026-04-25T09:16:09.094Z</time></trkpt><trkpt lat="41.8107604" lon="1.7027822"><ele>661.0</ele><time>2026-04-25T09:16:10.094Z</time></trkpt><trkpt lat="41.8109471" lon="1.7025291"><ele>660.0</ele><time>2026-04-25T09:16:11.094Z</time></trkpt><trkpt lat="41.8111331" lon="1.7023206"><ele>659.0</ele><time>2026-04-25T09:16:12.095Z</time></trkpt><trkpt lat="41.8113089" lon="1.7021631"><ele>659.0</ele><time>2026-04-25T09:16:13.093Z</time></trkpt><trkpt lat="41.8114652" lon="1.7020557"><ele>659.0</ele><time>2026-04-25T09:16:14.094Z</time></trkpt><trkpt lat="41.8116189" lon="1.7020205"><ele>659.0</ele><time>2026-04-25T09:16:15.095Z</time></trkpt><trkpt lat="41.8117698" lon="1.7020484"><ele>657.0</ele><time>2026-04-25T09:16:16.094Z</time></trkpt><trkpt lat="41.8119174" lon="1.7021251"><ele>655.0</ele><time>2026-04-25T09:16:17.094Z</time></trkpt><trkpt lat="41.8120641" lon="1.7022931"><ele>653.0</ele><time>2026-04-25T09:16:18.094Z</time></trkpt><trkpt lat="41.8122054" lon="1.7025169"><ele>653.0</ele><time>2026-04-25T09:16:19.093Z</time></trkpt><trkpt lat="41.8123007" lon="1.7027288"><ele>653.0</ele><time>2026-04-25T09:16:20.094Z</time></trkpt><trkpt lat="41.8123724" lon="1.7028945"><ele>653.0</ele><time>2026-04-25T09:16:21.094Z</time></trkpt><trkpt lat="41.8124571" lon="1.7030024"><ele>653.0</ele><time>2026-04-25T09:16:22.094Z</time></trkpt><trkpt lat="41.8125548" lon="1.7030417"><ele>654.25</ele><time>2026-04-25T09:16:23.093Z</time></trkpt><trkpt lat="41.8126573" lon="1.7030025"><ele>655.5</ele><time>2026-04-25T09:16:24.095Z</time></trkpt><trkpt lat="41.8127385" lon="1.7029187"><ele>656.75</ele><time>2026-04-25T09:16:25.093Z</time></trkpt><trkpt lat="41.8128284" lon="1.7027779"><ele>658.0</ele><time>2026-04-25T09:16:26.094Z</time></trkpt><trkpt lat="41.8128669" lon="1.7024694"><ele>658.0</ele><time>2026-04-25T09:16:27.094Z</time></trkpt><trkpt lat="41.8129526" lon="1.7023503"><ele>658.0</ele><time>2026-04-25T09:16:28.094Z</time></trkpt><trkpt lat="41.8130765" lon="1.7022349"><ele>658.0</ele><time>2026-04-25T09:16:29.094Z</time></trkpt><trkpt lat="41.8132126" lon="1.7021207"><ele>658.0</ele><time>2026-04-25T09:16:30.094Z</time></trkpt><trkpt lat="41.8134397" lon="1.7020041"><ele>658.6666666666667</ele><time>2026-04-25T09:16:31.094Z</time></trkpt><trkpt lat="41.8135963" lon="1.7018396"><ele>659.3333333333334</ele><time>2026-04-25T09:16:32.094Z</time></trkpt><trkpt lat="41.8137148" lon="1.7017333"><ele>660.0</ele><time>2026-04-25T09:16:33.094Z</time></trkpt><trkpt lat="41.8138406" lon="1.7016882"><ele>660.0</ele><time>2026-04-25T09:16:34.094Z</time></trkpt><trkpt lat="41.8140063" lon="1.7017069"><ele>660.0</ele><time>2026-04-25T09:16:35.095Z</time></trkpt><trkpt lat="41.8142188" lon="1.7017582"><ele>660.0</ele><time>2026-04-25T09:16:36.094Z</time></trkpt><trkpt lat="41.8144661" lon="1.7018279"><ele>661.5</ele><time>2026-04-25T09:16:37.095Z</time></trkpt><trkpt lat="41.8147167" lon="1.701901"><ele>663.0</ele><time>2026-04-25T09:16:38.095Z</time></trkpt><trkpt lat="41.8149266" lon="1.7019724"><ele>668.0</ele><time>2026-04-25T09:16:39.094Z</time></trkpt><trkpt lat="41.8151256" lon="1.7020748"><ele>673.0</ele><time>2026-04-25T09:16:40.094Z</time></trkpt><trkpt lat="41.8153244" lon="1.7022254"><ele>678.0</ele><time>2026-04-25T09:16:41.093Z</time></trkpt><trkpt lat="41.8155322" lon="1.7023578"><ele>678.0</ele><time>2026-04-25T09:16:42.095Z</time></trkpt><trkpt lat="41.8157516" lon="1.7024227"><ele>678.0</ele><time>2026-04-25T09:16:43.093Z</time></trkpt><trkpt lat="41.8159437" lon="1.7024612"><ele>678.0</ele><time>2026-04-25T09:16:44.095Z</time></trkpt><trkpt lat="41.8161143" lon="1.7024563"><ele>679.75</ele><time>2026-04-25T09:16:45.093Z</time></trkpt><trkpt lat="41.8162707" lon="1.7023864"><ele>681.5</ele><time>2026-04-25T09:16:46.094Z</time></trkpt><trkpt lat="41.8163942" lon="1.7022835"><ele>683.25</ele><time>2026-04-25T09:16:47.094Z</time></trkpt><trkpt lat="41.8164639" lon="1.7021334"><ele>685.0</ele><time>2026-04-25T09:16:48.094Z</time></trkpt><trkpt lat="41.8164843" lon="1.7019538"><ele>686.3333333333334</ele><time>2026-04-25T09:16:49.094Z</time></trkpt><trkpt lat="41.8164395" lon="1.701734"><ele>687.6666666666666</ele><time>2026-04-25T09:16:50.094Z</time></trkpt><trkpt lat="41.8163925" lon="1.7015285"><ele>689.0</ele><time>2026-04-25T09:16:51.094Z</time></trkpt><trkpt lat="41.8163869" lon="1.7013643"><ele>689.0</ele><time>2026-04-25T09:16:52.093Z</time></trkpt><trkpt lat="41.8164447" lon="1.7012116"><ele>689.0</ele><time>2026-04-25T09:16:53.093Z</time></trkpt><trkpt lat="41.8165501" lon="1.7010861"><ele>689.0</ele><time>2026-04-25T09:16:54.094Z</time></trkpt><trkpt lat="41.8166445" lon="1.7009366"><ele>689.0</ele><time>2026-04-25T09:16:55.093Z</time></trkpt><trkpt lat="41.8167059" lon="1.700761"><ele>689.5</ele><time>2026-04-25T09:16:56.094Z</time></trkpt><trkpt lat="41.8167183" lon="1.7006118"><ele>690.0</ele><time>2026-04-25T09:16:57.093Z</time></trkpt><trkpt lat="41.8166685" lon="1.7004799"><ele>690.5</ele><time>2026-04-25T09:16:58.093Z</time></trkpt><trkpt lat="41.8165582" lon="1.7003805"><ele>691.0</ele><time>2026-04-25T09:16:59.094Z</time></trkpt><trkpt lat="41.8164043" lon="1.700297"><ele>694.6666666666667</ele><time>2026-04-25T09:17:00.094Z</time></trkpt><trkpt lat="41.8162885" lon="1.7002044"><ele>698.3333333333334</ele><time>2026-04-25T09:17:01.094Z</time></trkpt><trkpt lat="41.8161946" lon="1.7000376"><ele>702.0</ele><time>2026-04-25T09:17:02.093Z</time></trkpt><trkpt lat="41.8161256" lon="1.6998097"><ele>702.0</ele><time>2026-04-25T09:17:03.095Z</time></trkpt><trkpt lat="41.8160988" lon="1.699566"><ele>702.0</ele><time>2026-04-25T09:17:04.095Z</time></trkpt><trkpt lat="41.8161276" lon="1.6993394"><ele>702.0</ele><time>2026-04-25T09:17:05.093Z</time></trkpt><trkpt lat="41.8161891" lon="1.6990974"><ele>706.5</ele><time>2026-04-25T09:17:06.094Z</time></trkpt><trkpt lat="41.8162107" lon="1.6988099"><ele>711.0</ele><time>2026-04-25T09:17:07.094Z</time></trkpt><trkpt lat="41.8162094" lon="1.6984866"><ele>714.0</ele><time>2026-04-25T09:17:08.094Z</time></trkpt><trkpt lat="41.8162351" lon="1.6981457"><ele>717.0</ele><time>2026-04-25T09:17:09.093Z</time></trkpt><trkpt lat="41.8162672" lon="1.6978618"><ele>719.3333333333334</ele><time>2026-04-25T09:17:10.095Z</time></trkpt><trkpt lat="41.8162567" lon="1.6976141"><ele>721.6666666666667</ele><time>2026-04-25T09:17:11.094Z</time></trkpt><trkpt lat="41.8162099" lon="1.6974118"><ele>724.0</ele><time>2026-04-25T09:17:12.093Z</time></trkpt><trkpt lat="41.8161075" lon="1.6972565"><ele>722.3333333333334</ele><time>2026-04-25T09:17:13.093Z</time></trkpt><trkpt lat="41.8159703" lon="1.6971265"><ele>720.6666666666666</ele><time>2026-04-25T09:17:14.093Z</time></trkpt><trkpt lat="41.8158243" lon="1.697003"><ele>719.0</ele><time>2026-04-25T09:17:15.094Z</time></trkpt><trkpt lat="41.8157307" lon="1.6968075"><ele>719.0</ele><time>2026-04-25T09:17:16.094Z</time></trkpt><trkpt lat="41.8156293" lon="1.6965409"><ele>719.0</ele><time>2026-04-25T09:17:17.095Z</time></trkpt><trkpt lat="41.8155226" lon="1.6962279"><ele>725.5</ele><time>2026-04-25T09:17:18.094Z</time></trkpt><trkpt lat="41.8154052" lon="1.6958766"><ele>732.0</ele><time>2026-04-25T09:17:19.094Z</time></trkpt><trkpt lat="41.8152886" lon="1.6955213"><ele>730.0</ele><time>2026-04-25T09:17:20.094Z</time></trkpt><trkpt lat="41.8151869" lon="1.6951853"><ele>728.0</ele><time>2026-04-25T09:17:21.094Z</time></trkpt><trkpt lat="41.8151054" lon="1.6948276"><ele>728.0</ele><time>2026-04-25T09:17:22.095Z</time></trkpt><trkpt lat="41.8150237" lon="1.6944504"><ele>728.0</ele><time>2026-04-25T09:17:23.094Z</time></trkpt><trkpt lat="41.8149329" lon="1.6940648"><ele>731.0</ele><time>2026-04-25T09:17:24.094Z</time></trkpt><trkpt lat="41.814848" lon="1.6937039"><ele>734.0</ele><time>2026-04-25T09:17:25.094Z</time></trkpt><trkpt lat="41.8147745" lon="1.6933647"><ele>738.5</ele><time>2026-04-25T09:17:26.093Z</time></trkpt><trkpt lat="41.8147111" lon="1.6930148"><ele>743.0</ele><time>2026-04-25T09:17:27.093Z</time></trkpt><trkpt lat="41.8146471" lon="1.6926581"><ele>746.5</ele><time>2026-04-25T09:17:28.093Z</time></trkpt><trkpt lat="41.8145985" lon="1.6922816"><ele>750.0</ele><time>2026-04-25T09:17:29.094Z</time></trkpt><trkpt lat="41.8145679" lon="1.6919149"><ele>753.5</ele><time>2026-04-25T09:17:30.093Z</time></trkpt><trkpt lat="41.8145447" lon="1.6915828"><ele>757.0</ele><time>2026-04-25T09:17:31.093Z</time></trkpt><trkpt lat="41.8145472" lon="1.6912588"><ele>759.0</ele><time>2026-04-25T09:17:32.093Z</time></trkpt><trkpt lat="41.8145859" lon="1.6909303"><ele>761.0</ele><time>2026-04-25T09:17:33.094Z</time></trkpt><trkpt lat="41.8146031" lon="1.6905989"><ele>761.0</ele><time>2026-04-25T09:17:34.094Z</time></trkpt><trkpt lat="41.8145756" lon="1.6902375"><ele>761.0</ele><time>2026-04-25T09:17:35.095Z</time></trkpt><trkpt lat="41.8145389" lon="1.6898417"><ele>761.0</ele><time>2026-04-25T09:17:36.094Z</time></trkpt><trkpt lat="41.8145023" lon="1.6894265"><ele>761.0</ele><time>2026-04-25T09:17:37.094Z</time></trkpt><trkpt lat="41.8144602" lon="1.6890379"><ele>761.5</ele><time>2026-04-25T09:17:38.093Z</time></trkpt><trkpt lat="41.8143909" lon="1.6886931"><ele>762.0</ele><time>2026-04-25T09:17:39.094Z</time></trkpt><trkpt lat="41.8142839" lon="1.6883651"><ele>763.5</ele><time>2026-04-25T09:17:40.095Z</time></trkpt><trkpt lat="41.8141862" lon="1.6880545"><ele>765.0</ele><time>2026-04-25T09:17:41.093Z</time></trkpt><trkpt lat="41.8141115" lon="1.6876932"><ele>765.0</ele><time>2026-04-25T09:17:42.094Z</time></trkpt><trkpt lat="41.8140331" lon="1.6873088"><ele>765.0</ele><time>2026-04-25T09:17:43.094Z</time></trkpt><trkpt lat="41.81395" lon="1.6869028"><ele>767.5</ele><time>2026-04-25T09:17:44.095Z</time></trkpt><trkpt lat="41.8138685" lon="1.6864834"><ele>770.0</ele><time>2026-04-25T09:17:45.094Z</time></trkpt><trkpt lat="41.813801" lon="1.6860982"><ele>770.0</ele><time>2026-04-25T09:17:46.094Z</time></trkpt><trkpt lat="41.8137243" lon="1.6857447"><ele>770.0</ele><time>2026-04-25T09:17:47.095Z</time></trkpt><trkpt lat="41.8136113" lon="1.685389"><ele>771.0</ele><time>2026-04-25T09:17:48.094Z</time></trkpt><trkpt lat="41.8134696" lon="1.685014"><ele>772.0</ele><time>2026-04-25T09:17:49.094Z</time></trkpt><trkpt lat="41.813328" lon="1.6846287"><ele>774.5</ele><time>2026-04-25T09:17:50.093Z</time></trkpt><trkpt lat="41.8131801" lon="1.6842322"><ele>777.0</ele><time>2026-04-25T09:17:51.094Z</time></trkpt><trkpt lat="41.813026" lon="1.6838255"><ele>777.0</ele><time>2026-04-25T09:17:52.093Z</time></trkpt><trkpt lat="41.8128611" lon="1.6834146"><ele>777.0</ele><time>2026-04-25T09:17:53.093Z</time></trkpt><trkpt lat="41.812693" lon="1.6830062"><ele>780.5</ele><time>2026-04-25T09:17:54.094Z</time></trkpt><trkpt lat="41.8125318" lon="1.6826236"><ele>784.0</ele><time>2026-04-25T09:17:55.094Z</time></trkpt><trkpt lat="41.8123868" lon="1.682287"><ele>784.0</ele><time>2026-04-25T09:17:56.093Z</time></trkpt><trkpt lat="41.8122575" lon="1.681986"><ele>784.0</ele><time>2026-04-25T09:17:57.093Z</time></trkpt><trkpt lat="41.8121513" lon="1.6816853"><ele>789.0</ele><time>2026-04-25T09:17:58.093Z</time></trkpt><trkpt lat="41.8120776" lon="1.6813574"><ele>794.0</ele><time>2026-04-25T09:17:59.093Z</time></trkpt><trkpt lat="41.8120017" lon="1.6810257"><ele>789.5</ele><time>2026-04-25T09:18:00.094Z</time></trkpt><trkpt lat="41.8118787" lon="1.6807026"><ele>785.0</ele><time>2026-04-25T09:18:01.093Z</time></trkpt><trkpt lat="41.8117234" lon="1.6803959"><ele>794.0</ele><time>2026-04-25T09:18:02.094Z</time></trkpt><trkpt lat="41.8115872" lon="1.6801437"><ele>803.0</ele><time>2026-04-25T09:18:03.093Z</time></trkpt><trkpt lat="41.811465" lon="1.6798935"><ele>803.0</ele><time>2026-04-25T09:18:04.094Z</time></trkpt><trkpt lat="41.8113781" lon="1.6796055"><ele>803.0</ele><time>2026-04-25T09:18:05.094Z</time></trkpt><trkpt lat="41.8113096" lon="1.6792785"><ele>808.5</ele><time>2026-04-25T09:18:06.093Z</time></trkpt><trkpt lat="41.8112364" lon="1.6789262"><ele>814.0</ele><time>2026-04-25T09:18:07.094Z</time></trkpt><trkpt lat="41.8111585" lon="1.6786046"><ele>819.5</ele><time>2026-04-25T09:18:08.093Z</time></trkpt><trkpt lat="41.8110607" lon="1.6783168"><ele>825.0</ele><time>2026-04-25T09:18:09.094Z</time></trkpt><trkpt lat="41.8109416" lon="1.6780639"><ele>822.0</ele><time>2026-04-25T09:18:10.093Z</time></trkpt><trkpt lat="41.8107952" lon="1.6778427"><ele>819.0</ele><time>2026-04-25T09:18:11.093Z</time></trkpt><trkpt lat="41.8106129" lon="1.6776329"><ele>819.0</ele><time>2026-04-25T09:18:12.094Z</time></trkpt><trkpt lat="41.8104072" lon="1.6774452"><ele>819.0</ele><time>2026-04-25T09:18:13.093Z</time></trkpt><trkpt lat="41.8102172" lon="1.677298"><ele>819.3333333333333</ele><time>2026-04-25T09:18:14.094Z</time></trkpt><trkpt lat="41.8100443" lon="1.6771604"><ele>819.6666666666666</ele><time>2026-04-25T09:18:15.093Z</time></trkpt><trkpt lat="41.8098939" lon="1.6770001"><ele>820.0</ele><time>2026-04-25T09:18:16.091Z</time></trkpt><trkpt lat="41.8097706" lon="1.6768324"><ele>820.0</ele><time>2026-04-25T09:18:17.094Z</time></trkpt><trkpt lat="41.8096525" lon="1.6766715"><ele>820.0</ele><time>2026-04-25T09:18:18.095Z</time></trkpt><trkpt lat="41.8095474" lon="1.6765129"><ele>820.0</ele><time>2026-04-25T09:18:19.094Z</time></trkpt><trkpt lat="41.8094605" lon="1.6763639"><ele>820.0</ele><time>2026-04-25T09:18:20.093Z</time></trkpt><trkpt lat="41.8093967" lon="1.6762199"><ele>820.0</ele><time>2026-04-25T09:18:21.094Z</time></trkpt><trkpt lat="41.8093394" lon="1.676081"><ele>820.0</ele><time>2026-04-25T09:18:22.094Z</time></trkpt><trkpt lat="41.8092845" lon="1.6759458"><ele>820.0</ele><time>2026-04-25T09:18:23.094Z</time></trkpt><trkpt lat="41.8092329" lon="1.6758096"><ele>819.4</ele><time>2026-04-25T09:18:24.094Z</time></trkpt><trkpt lat="41.8091885" lon="1.6756723"><ele>818.8</ele><time>2026-04-25T09:18:25.094Z</time></trkpt><trkpt lat="41.8091514" lon="1.6755392"><ele>818.2</ele><time>2026-04-25T09:18:26.094Z</time></trkpt><trkpt lat="41.8091189" lon="1.6754125"><ele>817.6</ele><time>2026-04-25T09:18:27.094Z</time></trkpt><trkpt lat="41.8090925" lon="1.675295"><ele>817.0</ele><time>2026-04-25T09:18:28.094Z</time></trkpt><trkpt lat="41.8090744" lon="1.6751893"><ele>816.9999999999999</ele><time>2026-04-25T09:18:29.095Z</time></trkpt><trkpt lat="41.8090641" lon="1.6751053"><ele>817.0</ele><time>2026-04-25T09:18:30.093Z</time></trkpt><trkpt lat="41.8090479" lon="1.6750167"><ele>817.0</ele><time>2026-04-25T09:18:32.094Z</time></trkpt><trkpt lat="41.809012" lon="1.6749387"><ele>817.0</ele><time>2026-04-25T09:21:30.094Z</time></trkpt><trkpt lat="41.8089783" lon="1.6748097"><ele>816.9999999999999</ele><time>2026-04-25T09:21:32.094Z</time></trkpt><trkpt lat="41.8089386" lon="1.6746468"><ele>817.0</ele><time>2026-04-25T09:21:34.094Z</time></trkpt><trkpt lat="41.8089162" lon="1.674553"><ele>816.9999999999999</ele><time>2026-04-25T09:21:35.093Z</time></trkpt><trkpt lat="41.8088935" lon="1.6744547"><ele>817.0</ele><time>2026-04-25T09:21:36.094Z</time></trkpt><trkpt lat="41.8088672" lon="1.674349"><ele>817.0</ele><time>2026-04-25T09:21:37.093Z</time></trkpt><trkpt lat="41.8088347" lon="1.6742433"><ele>817.0</ele><time>2026-04-25T09:21:38.094Z</time></trkpt><trkpt lat="41.8087997" lon="1.6741329"><ele>816.9999999999999</ele><time>2026-04-25T09:21:39.095Z</time></trkpt><trkpt lat="41.8087626" lon="1.6740165"><ele>817.0</ele><time>2026-04-25T09:21:40.093Z</time></trkpt><trkpt lat="41.808722" lon="1.6738935"><ele>819.2</ele><time>2026-04-25T09:21:41.094Z</time></trkpt><trkpt lat="41.8086815" lon="1.6737702"><ele>821.4000000000001</ele><time>2026-04-25T09:21:42.094Z</time></trkpt><trkpt lat="41.808639" lon="1.6736426"><ele>823.5999999999999</ele><time>2026-04-25T09:21:43.093Z</time></trkpt><trkpt lat="41.8085897" lon="1.673515"><ele>825.8</ele><time>2026-04-25T09:21:44.093Z</time></trkpt><trkpt lat="41.8085454" lon="1.6733863"><ele>828.0</ele><time>2026-04-25T09:21:45.093Z</time></trkpt><trkpt lat="41.8085022" lon="1.6732574"><ele>827.5999999999999</ele><time>2026-04-25T09:21:46.094Z</time></trkpt><trkpt lat="41.8084585" lon="1.6731273"><ele>827.1999999999999</ele><time>2026-04-25T09:21:47.094Z</time></trkpt><trkpt lat="41.8084153" lon="1.6729956"><ele>826.8</ele><time>2026-04-25T09:21:48.094Z</time></trkpt><trkpt lat="41.8083742" lon="1.6728637"><ele>826.4</ele><time>2026-04-25T09:21:49.093Z</time></trkpt><trkpt lat="41.8083374" lon="1.6727246"><ele>826.0</ele><time>2026-04-25T09:21:50.093Z</time></trkpt><trkpt lat="41.8083039" lon="1.6725824"><ele>826.0</ele><time>2026-04-25T09:21:51.093Z</time></trkpt><trkpt lat="41.8082834" lon="1.6724356"><ele>826.0</ele><time>2026-04-25T09:21:52.094Z</time></trkpt><trkpt lat="41.8082795" lon="1.6722775"><ele>826.0</ele><time>2026-04-25T09:21:53.095Z</time></trkpt><trkpt lat="41.8082844" lon="1.6721055"><ele>826.0</ele><time>2026-04-25T09:21:54.094Z</time></trkpt><trkpt lat="41.8082833" lon="1.6719255"><ele>827.6666666666666</ele><time>2026-04-25T09:21:55.094Z</time></trkpt><trkpt lat="41.8082763" lon="1.6717279"><ele>829.3333333333333</ele><time>2026-04-25T09:21:56.094Z</time></trkpt><trkpt lat="41.8082765" lon="1.6715181"><ele>831.0</ele><time>2026-04-25T09:21:57.094Z</time></trkpt><trkpt lat="41.8082849" lon="1.6713053"><ele>832.0</ele><time>2026-04-25T09:21:58.094Z</time></trkpt><trkpt lat="41.8083009" lon="1.6710953"><ele>833.0</ele><time>2026-04-25T09:21:59.093Z</time></trkpt><trkpt lat="41.8083198" lon="1.670891"><ele>834.0</ele><time>2026-04-25T09:22:00.094Z</time></trkpt><trkpt lat="41.8083282" lon="1.6706859"><ele>834.0</ele><time>2026-04-25T09:22:01.094Z</time></trkpt><trkpt lat="41.808324" lon="1.6704827"><ele>834.0</ele><time>2026-04-25T09:22:02.094Z</time></trkpt><trkpt lat="41.8083109" lon="1.6702836"><ele>834.0</ele><time>2026-04-25T09:22:03.095Z</time></trkpt><trkpt lat="41.8082861" lon="1.6700836"><ele>836.0</ele><time>2026-04-25T09:22:04.094Z</time></trkpt><trkpt lat="41.8082573" lon="1.669885"><ele>838.0</ele><time>2026-04-25T09:22:05.094Z</time></trkpt><trkpt lat="41.8082247" lon="1.6696834"><ele>840.0</ele><time>2026-04-25T09:22:06.095Z</time></trkpt><trkpt lat="41.808183" lon="1.6694788"><ele>841.0</ele><time>2026-04-25T09:22:07.095Z</time></trkpt><trkpt lat="41.8081295" lon="1.6692749"><ele>842.0</ele><time>2026-04-25T09:22:08.093Z</time></trkpt><trkpt lat="41.8080624" lon="1.6690627"><ele>843.0</ele><time>2026-04-25T09:22:09.094Z</time></trkpt><trkpt lat="41.8079968" lon="1.6688452"><ele>843.0</ele><time>2026-04-25T09:22:10.095Z</time></trkpt><trkpt lat="41.8079361" lon="1.6686438"><ele>843.0</ele><time>2026-04-25T09:22:11.095Z</time></trkpt><trkpt lat="41.8078812" lon="1.6684536"><ele>843.0</ele><time>2026-04-25T09:22:12.094Z</time></trkpt><trkpt lat="41.8078368" lon="1.6682555"><ele>842.0</ele><time>2026-04-25T09:22:13.093Z</time></trkpt><trkpt lat="41.8078032" lon="1.6680532"><ele>841.0</ele><time>2026-04-25T09:22:14.093Z</time></trkpt><trkpt lat="41.8077774" lon="1.6678558"><ele>840.0</ele><time>2026-04-25T09:22:15.093Z</time></trkpt><trkpt lat="41.8077555" lon="1.6676746"><ele>839.0</ele><time>2026-04-25T09:22:16.094Z</time></trkpt><trkpt lat="41.8077289" lon="1.6674922"><ele>836.75</ele><time>2026-04-25T09:22:17.095Z</time></trkpt><trkpt lat="41.807701" lon="1.6673038"><ele>834.5</ele><time>2026-04-25T09:22:18.093Z</time></trkpt><trkpt lat="41.8076667" lon="1.6671146"><ele>832.25</ele><time>2026-04-25T09:22:19.094Z</time></trkpt><trkpt lat="41.8076216" lon="1.6669456"><ele>830.0</ele><time>2026-04-25T09:22:20.094Z</time></trkpt><trkpt lat="41.8075568" lon="1.6667905"><ele>836.3333333333334</ele><time>2026-04-25T09:22:21.093Z</time></trkpt><trkpt lat="41.8074636" lon="1.6666344"><ele>842.6666666666667</ele><time>2026-04-25T09:22:22.094Z</time></trkpt><trkpt lat="41.8073566" lon="1.666483"><ele>849.0</ele><time>2026-04-25T09:22:23.094Z</time></trkpt><trkpt lat="41.8072402" lon="1.6663151"><ele>849.0</ele><time>2026-04-25T09:22:24.094Z</time></trkpt><trkpt lat="41.8071259" lon="1.6661356"><ele>849.0</ele><time>2026-04-25T09:22:25.093Z</time></trkpt><trkpt lat="41.807011" lon="1.6659481"><ele>849.0</ele><time>2026-04-25T09:22:26.094Z</time></trkpt><trkpt lat="41.8068946" lon="1.6657589"><ele>851.0</ele><time>2026-04-25T09:22:27.093Z</time></trkpt><trkpt lat="41.8067813" lon="1.665568"><ele>853.0</ele><time>2026-04-25T09:22:28.094Z</time></trkpt><trkpt lat="41.8066733" lon="1.6653779"><ele>855.0</ele><time>2026-04-25T09:22:29.093Z</time></trkpt><trkpt lat="41.8065694" lon="1.6651942"><ele>855.75</ele><time>2026-04-25T09:22:30.094Z</time></trkpt><trkpt lat="41.8064831" lon="1.6650241"><ele>856.5</ele><time>2026-04-25T09:22:31.094Z</time></trkpt><trkpt lat="41.8064193" lon="1.6648634"><ele>857.25</ele><time>2026-04-25T09:22:32.094Z</time></trkpt><trkpt lat="41.8063825" lon="1.6646986"><ele>858.0</ele><time>2026-04-25T09:22:33.094Z</time></trkpt><trkpt lat="41.8063686" lon="1.6645236"><ele>857.0</ele><time>2026-04-25T09:22:34.093Z</time></trkpt><trkpt lat="41.8063656" lon="1.6643348"><ele>856.0</ele><time>2026-04-25T09:22:35.094Z</time></trkpt><trkpt lat="41.8063605" lon="1.6641307"><ele>855.0</ele><time>2026-04-25T09:22:36.093Z</time></trkpt><trkpt lat="41.806361" lon="1.6639146"><ele>855.0</ele><time>2026-04-25T09:22:37.094Z</time></trkpt><trkpt lat="41.8063651" lon="1.6636834"><ele>855.0</ele><time>2026-04-25T09:22:38.093Z</time></trkpt><trkpt lat="41.8063706" lon="1.6634496"><ele>855.0</ele><time>2026-04-25T09:22:39.093Z</time></trkpt><trkpt lat="41.8063762" lon="1.6632232"><ele>854.3333333333333</ele><time>2026-04-25T09:22:40.094Z</time></trkpt><trkpt lat="41.8063834" lon="1.6630105"><ele>853.6666666666666</ele><time>2026-04-25T09:22:41.094Z</time></trkpt><trkpt lat="41.806398" lon="1.6627999"><ele>853.0</ele><time>2026-04-25T09:22:42.093Z</time></trkpt><trkpt lat="41.8064403" lon="1.6625846"><ele>855.0</ele><time>2026-04-25T09:22:43.094Z</time></trkpt><trkpt lat="41.8064916" lon="1.6623645"><ele>857.0</ele><time>2026-04-25T09:22:44.094Z</time></trkpt><trkpt lat="41.8065351" lon="1.6621559"><ele>859.0</ele><time>2026-04-25T09:22:45.093Z</time></trkpt><trkpt lat="41.8065707" lon="1.6619554"><ele>860.25</ele><time>2026-04-25T09:22:46.094Z</time></trkpt><trkpt lat="41.8065943" lon="1.661769"><ele>861.5</ele><time>2026-04-25T09:22:47.094Z</time></trkpt><trkpt lat="41.8066049" lon="1.6615883"><ele>862.75</ele><time>2026-04-25T09:22:48.094Z</time></trkpt><trkpt lat="41.8065958" lon="1.6614091"><ele>864.0</ele><time>2026-04-25T09:22:49.094Z</time></trkpt><trkpt lat="41.8065644" lon="1.6612298"><ele>866.3333333333333</ele><time>2026-04-25T09:22:50.095Z</time></trkpt><trkpt lat="41.8065173" lon="1.6610432"><ele>868.6666666666666</ele><time>2026-04-25T09:22:51.095Z</time></trkpt><trkpt lat="41.8064648" lon="1.6608434"><ele>871.0</ele><time>2026-04-25T09:22:52.094Z</time></trkpt><trkpt lat="41.806413" lon="1.6606344"><ele>871.0</ele><time>2026-04-25T09:22:53.093Z</time></trkpt><trkpt lat="41.806363" lon="1.6604269"><ele>871.0</ele><time>2026-04-25T09:22:54.093Z</time></trkpt><trkpt lat="41.8063021" lon="1.6602403"><ele>871.0</ele><time>2026-04-25T09:22:55.095Z</time></trkpt><trkpt lat="41.8062221" lon="1.660052"><ele>870.6666666666666</ele><time>2026-04-25T09:22:56.094Z</time></trkpt><trkpt lat="41.8061261" lon="1.6598628"><ele>870.3333333333333</ele><time>2026-04-25T09:22:57.094Z</time></trkpt><trkpt lat="41.8060235" lon="1.65967"><ele>870.0</ele><time>2026-04-25T09:22:58.093Z</time></trkpt><trkpt lat="41.8059166" lon="1.6594748"><ele>875.0</ele><time>2026-04-25T09:22:59.094Z</time></trkpt><trkpt lat="41.8058086" lon="1.6592791"><ele>880.0</ele><time>2026-04-25T09:23:00.094Z</time></trkpt><trkpt lat="41.8057003" lon="1.6590825"><ele>885.0</ele><time>2026-04-25T09:23:01.094Z</time></trkpt><trkpt lat="41.805602" lon="1.6588973"><ele>885.0</ele><time>2026-04-25T09:23:02.093Z</time></trkpt><trkpt lat="41.8055113" lon="1.6587296"><ele>885.0</ele><time>2026-04-25T09:23:03.094Z</time></trkpt><trkpt lat="41.8054233" lon="1.6585941"><ele>885.0</ele><time>2026-04-25T09:23:04.093Z</time></trkpt><trkpt lat="41.8053332" lon="1.6584632"><ele>885.0</ele><time>2026-04-25T09:23:05.094Z</time></trkpt><trkpt lat="41.8052267" lon="1.6583319"><ele>885.0</ele><time>2026-04-25T09:23:06.094Z</time></trkpt><trkpt lat="41.8051029" lon="1.6581903"><ele>885.0</ele><time>2026-04-25T09:23:07.094Z</time></trkpt><trkpt lat="41.804971" lon="1.6580342"><ele>885.0</ele><time>2026-04-25T09:23:08.095Z</time></trkpt><trkpt lat="41.804839" lon="1.6578611"><ele>882.6666666666667</ele><time>2026-04-25T09:23:09.094Z</time></trkpt><trkpt lat="41.8047104" lon="1.6576879"><ele>880.3333333333334</ele><time>2026-04-25T09:23:10.094Z</time></trkpt><trkpt lat="41.8045909" lon="1.6575381"><ele>878.0</ele><time>2026-04-25T09:23:11.094Z</time></trkpt><trkpt lat="41.8044661" lon="1.657398"><ele>878.0</ele><time>2026-04-25T09:23:12.094Z</time></trkpt><trkpt lat="41.804335" lon="1.657258"><ele>878.0</ele><time>2026-04-25T09:23:13.094Z</time></trkpt><trkpt lat="41.8041978" lon="1.6571136"><ele>878.0</ele><time>2026-04-25T09:23:14.094Z</time></trkpt><trkpt lat="41.8040583" lon="1.6569642"><ele>878.0</ele><time>2026-04-25T09:23:15.094Z</time></trkpt><trkpt lat="41.8039183" lon="1.6568173"><ele>878.0</ele><time>2026-04-25T09:23:16.093Z</time></trkpt><trkpt lat="41.8037826" lon="1.6566737"><ele>878.0</ele><time>2026-04-25T09:23:17.094Z</time></trkpt><trkpt lat="41.8036496" lon="1.6565267"><ele>878.0</ele><time>2026-04-25T09:23:18.094Z</time></trkpt><trkpt lat="41.8035213" lon="1.6563724"><ele>878.0</ele><time>2026-04-25T09:23:19.093Z</time></trkpt><trkpt lat="41.8034031" lon="1.6562073"><ele>878.0</ele><time>2026-04-25T09:23:20.093Z</time></trkpt><trkpt lat="41.8032909" lon="1.6560424"><ele>881.0</ele><time>2026-04-25T09:23:21.094Z</time></trkpt><trkpt lat="41.8032069" lon="1.6558632"><ele>884.0</ele><time>2026-04-25T09:23:22.093Z</time></trkpt><trkpt lat="41.8031223" lon="1.6556829"><ele>887.0</ele><time>2026-04-25T09:23:23.094Z</time></trkpt><trkpt lat="41.8030812" lon="1.6554791"><ele>887.0</ele><time>2026-04-25T09:23:24.093Z</time></trkpt><trkpt lat="41.8030181" lon="1.6552877"><ele>887.0</ele><time>2026-04-25T09:23:25.094Z</time></trkpt><trkpt lat="41.8029367" lon="1.6550974"><ele>887.0</ele><time>2026-04-25T09:23:26.094Z</time></trkpt><trkpt lat="41.8028407" lon="1.6548979"><ele>890.3333333333334</ele><time>2026-04-25T09:23:27.093Z</time></trkpt><trkpt lat="41.8027541" lon="1.6546826"><ele>893.6666666666667</ele><time>2026-04-25T09:23:28.094Z</time></trkpt><trkpt lat="41.8026791" lon="1.6544501"><ele>897.0</ele><time>2026-04-25T09:23:29.094Z</time></trkpt><trkpt lat="41.8026106" lon="1.654207"><ele>897.0</ele><time>2026-04-25T09:23:30.093Z</time></trkpt><trkpt lat="41.8025392" lon="1.6539662"><ele>897.0</ele><time>2026-04-25T09:23:31.093Z</time></trkpt><trkpt lat="41.8024707" lon="1.653731"><ele>897.0</ele><time>2026-04-25T09:23:32.094Z</time></trkpt><trkpt lat="41.8024157" lon="1.6535061"><ele>894.3333333333333</ele><time>2026-04-25T09:23:33.095Z</time></trkpt><trkpt lat="41.8023656" lon="1.6532867"><ele>891.6666666666666</ele><time>2026-04-25T09:23:34.094Z</time></trkpt><trkpt lat="41.8023252" lon="1.6530847"><ele>889.0</ele><time>2026-04-25T09:23:35.094Z</time></trkpt><trkpt lat="41.8022963" lon="1.6528801"><ele>888.0</ele><time>2026-04-25T09:23:36.095Z</time></trkpt><trkpt lat="41.8022943" lon="1.6526623"><ele>887.0</ele><time>2026-04-25T09:23:37.093Z</time></trkpt><trkpt lat="41.8022931" lon="1.6524284"><ele>886.0</ele><time>2026-04-25T09:23:38.094Z</time></trkpt><trkpt lat="41.8022934" lon="1.652175"><ele>886.0</ele><time>2026-04-25T09:23:39.094Z</time></trkpt><trkpt lat="41.8022785" lon="1.6519235"><ele>886.0</ele><time>2026-04-25T09:23:40.093Z</time></trkpt><trkpt lat="41.8022625" lon="1.6516851"><ele>886.0</ele><time>2026-04-25T09:23:41.094Z</time></trkpt><trkpt lat="41.8022647" lon="1.6514484"><ele>886.0</ele><time>2026-04-25T09:23:42.094Z</time></trkpt><trkpt lat="41.8022912" lon="1.651202"><ele>886.0</ele><time>2026-04-25T09:23:43.094Z</time></trkpt><trkpt lat="41.8023193" lon="1.6509425"><ele>886.0</ele><time>2026-04-25T09:23:44.094Z</time></trkpt><trkpt lat="41.8023541" lon="1.6506779"><ele>886.6666666666666</ele><time>2026-04-25T09:23:45.094Z</time></trkpt><trkpt lat="41.8023869" lon="1.6504256"><ele>887.3333333333333</ele><time>2026-04-25T09:23:46.093Z</time></trkpt><trkpt lat="41.8023963" lon="1.6501983"><ele>888.0</ele><time>2026-04-25T09:23:47.093Z</time></trkpt><trkpt lat="41.8023812" lon="1.6499639"><ele>888.3333333333333</ele><time>2026-04-25T09:23:48.094Z</time></trkpt><trkpt lat="41.8023408" lon="1.649724"><ele>888.6666666666666</ele><time>2026-04-25T09:23:49.093Z</time></trkpt><trkpt lat="41.802284" lon="1.6494926"><ele>889.0</ele><time>2026-04-25T09:23:50.094Z</time></trkpt><trkpt lat="41.802206" lon="1.649289"><ele>889.6666666666666</ele><time>2026-04-25T09:23:51.094Z</time></trkpt><trkpt lat="41.8020983" lon="1.6491089"><ele>890.3333333333333</ele><time>2026-04-25T09:23:52.093Z</time></trkpt><trkpt lat="41.8019694" lon="1.6489674"><ele>891.0</ele><time>2026-04-25T09:23:53.094Z</time></trkpt><trkpt lat="41.8018241" lon="1.6488621"><ele>891.0</ele><time>2026-04-25T09:23:54.095Z</time></trkpt><trkpt lat="41.8016726" lon="1.6487458"><ele>891.0</ele><time>2026-04-25T09:23:55.093Z</time></trkpt><trkpt lat="41.80153" lon="1.6485968"><ele>891.0</ele><time>2026-04-25T09:23:56.094Z</time></trkpt><trkpt lat="41.8014028" lon="1.6484405"><ele>887.3333333333333</ele><time>2026-04-25T09:23:57.094Z</time></trkpt><trkpt lat="41.8012871" lon="1.6482719"><ele>883.6666666666666</ele><time>2026-04-25T09:23:58.094Z</time></trkpt><trkpt lat="41.801169" lon="1.6481116"><ele>880.0</ele><time>2026-04-25T09:23:59.093Z</time></trkpt><trkpt lat="41.8010475" lon="1.6479787"><ele>876.0</ele><time>2026-04-25T09:24:00.094Z</time></trkpt><trkpt lat="41.8009036" lon="1.6478742"><ele>872.0</ele><time>2026-04-25T09:24:01.094Z</time></trkpt><trkpt lat="41.8007463" lon="1.6477693"><ele>868.0</ele><time>2026-04-25T09:24:02.093Z</time></trkpt><trkpt lat="41.800612" lon="1.6476505"><ele>868.0</ele><time>2026-04-25T09:24:03.093Z</time></trkpt><trkpt lat="41.8005012" lon="1.6475283"><ele>868.0</ele><time>2026-04-25T09:24:04.094Z</time></trkpt><trkpt lat="41.8004171" lon="1.6473607"><ele>868.0</ele><time>2026-04-25T09:24:05.094Z</time></trkpt><trkpt lat="41.8003474" lon="1.6471669"><ele>868.0</ele><time>2026-04-25T09:24:06.095Z</time></trkpt><trkpt lat="41.8002729" lon="1.6469715"><ele>868.0</ele><time>2026-04-25T09:24:07.093Z</time></trkpt><trkpt lat="41.8001933" lon="1.6467703"><ele>868.0</ele><time>2026-04-25T09:24:08.094Z</time></trkpt><trkpt lat="41.8001118" lon="1.6465616"><ele>867.3333333333333</ele><time>2026-04-25T09:24:09.094Z</time></trkpt><trkpt lat="41.8000437" lon="1.6463502"><ele>866.6666666666667</ele><time>2026-04-25T09:24:10.093Z</time></trkpt><trkpt lat="41.7999836" lon="1.6461361"><ele>866.0</ele><time>2026-04-25T09:24:11.093Z</time></trkpt><trkpt lat="41.7999351" lon="1.6459172"><ele>866.0</ele><time>2026-04-25T09:24:12.093Z</time></trkpt><trkpt lat="41.7998898" lon="1.6456936"><ele>866.0</ele><time>2026-04-25T09:24:13.094Z</time></trkpt><trkpt lat="41.7998441" lon="1.6454641"><ele>866.0</ele><time>2026-04-25T09:24:14.094Z</time></trkpt><trkpt lat="41.7998013" lon="1.6452246"><ele>860.6666666666667</ele><time>2026-04-25T09:24:15.094Z</time></trkpt><trkpt lat="41.7997618" lon="1.6449768"><ele>855.3333333333333</ele><time>2026-04-25T09:24:16.093Z</time></trkpt><trkpt lat="41.7997175" lon="1.6447281"><ele>850.0</ele><time>2026-04-25T09:24:17.095Z</time></trkpt><trkpt lat="41.7996772" lon="1.6444878"><ele>848.6666666666666</ele><time>2026-04-25T09:24:18.094Z</time></trkpt><trkpt lat="41.7996395" lon="1.6442578"><ele>847.3333333333333</ele><time>2026-04-25T09:24:19.094Z</time></trkpt><trkpt lat="41.7996147" lon="1.6440294"><ele>846.0</ele><time>2026-04-25T09:24:20.094Z</time></trkpt><trkpt lat="41.7996083" lon="1.6437992"><ele>846.6666666666667</ele><time>2026-04-25T09:24:21.094Z</time></trkpt><trkpt lat="41.7996186" lon="1.6435547"><ele>847.3333333333334</ele><time>2026-04-25T09:24:22.094Z</time></trkpt><trkpt lat="41.7996285" lon="1.6433075"><ele>848.0</ele><time>2026-04-25T09:24:23.094Z</time></trkpt><trkpt lat="41.7996311" lon="1.6430661"><ele>848.0</ele><time>2026-04-25T09:24:24.095Z</time></trkpt><trkpt lat="41.7996377" lon="1.6428381"><ele>848.0</ele><time>2026-04-25T09:24:25.094Z</time></trkpt><trkpt lat="41.7996609" lon="1.642629"><ele>848.0</ele><time>2026-04-25T09:24:26.093Z</time></trkpt><trkpt lat="41.7997056" lon="1.6424208"><ele>851.0</ele><time>2026-04-25T09:24:27.095Z</time></trkpt><trkpt lat="41.7997796" lon="1.6422176"><ele>854.0</ele><time>2026-04-25T09:24:28.094Z</time></trkpt><trkpt lat="41.7998414" lon="1.6420124"><ele>857.0</ele><time>2026-04-25T09:24:29.094Z</time></trkpt><trkpt lat="41.7998943" lon="1.6418237"><ele>859.0</ele><time>2026-04-25T09:24:30.094Z</time></trkpt><trkpt lat="41.7999372" lon="1.6416468"><ele>861.0</ele><time>2026-04-25T09:24:31.094Z</time></trkpt><trkpt lat="41.7999892" lon="1.6414573"><ele>863.0</ele><time>2026-04-25T09:24:32.093Z</time></trkpt><trkpt lat="41.8000495" lon="1.6412632"><ele>865.0</ele><time>2026-04-25T09:24:33.093Z</time></trkpt><trkpt lat="41.8000876" lon="1.641069"><ele>865.0</ele><time>2026-04-25T09:24:34.094Z</time></trkpt><trkpt lat="41.8000826" lon="1.6408823"><ele>865.0</ele><time>2026-04-25T09:24:35.093Z</time></trkpt><trkpt lat="41.8000362" lon="1.6407013"><ele>865.0</ele><time>2026-04-25T09:24:36.094Z</time></trkpt><trkpt lat="41.7999723" lon="1.6405019"><ele>865.0</ele><time>2026-04-25T09:24:37.095Z</time></trkpt><trkpt lat="41.7999254" lon="1.6402812"><ele>864.5</ele><time>2026-04-25T09:24:38.094Z</time></trkpt><trkpt lat="41.7999041" lon="1.6400736"><ele>864.0</ele><time>2026-04-25T09:24:39.094Z</time></trkpt><trkpt lat="41.7998839" lon="1.6398865"><ele>863.5</ele><time>2026-04-25T09:24:40.095Z</time></trkpt><trkpt lat="41.7998451" lon="1.6397113"><ele>863.0</ele><time>2026-04-25T09:24:41.094Z</time></trkpt><trkpt lat="41.7997717" lon="1.6395313"><ele>859.6666666666667</ele><time>2026-04-25T09:24:42.093Z</time></trkpt><trkpt lat="41.7996869" lon="1.6393426"><ele>856.3333333333333</ele><time>2026-04-25T09:24:43.095Z</time></trkpt><trkpt lat="41.7996005" lon="1.6391389"><ele>853.0</ele><time>2026-04-25T09:24:44.093Z</time></trkpt><trkpt lat="41.7995083" lon="1.63893"><ele>853.0</ele><time>2026-04-25T09:24:45.093Z</time></trkpt><trkpt lat="41.7994164" lon="1.6387156"><ele>853.0</ele><time>2026-04-25T09:24:46.094Z</time></trkpt><trkpt lat="41.7993276" lon="1.6385033"><ele>853.0</ele><time>2026-04-25T09:24:47.093Z</time></trkpt><trkpt lat="41.7992423" lon="1.6382896"><ele>858.0</ele><time>2026-04-25T09:24:48.093Z</time></trkpt><trkpt lat="41.7991549" lon="1.6380791"><ele>863.0</ele><time>2026-04-25T09:24:49.094Z</time></trkpt><trkpt lat="41.7990719" lon="1.6378757"><ele>868.0</ele><time>2026-04-25T09:24:50.094Z</time></trkpt><trkpt lat="41.7989851" lon="1.6376757"><ele>868.0</ele><time>2026-04-25T09:24:51.095Z</time></trkpt><trkpt lat="41.7988905" lon="1.6374768"><ele>868.0</ele><time>2026-04-25T09:24:52.093Z</time></trkpt><trkpt lat="41.7987874" lon="1.6372789"><ele>868.0</ele><time>2026-04-25T09:24:53.095Z</time></trkpt><trkpt lat="41.7986823" lon="1.6370775"><ele>872.0</ele><time>2026-04-25T09:24:54.094Z</time></trkpt><trkpt lat="41.7985793" lon="1.636867"><ele>876.0</ele><time>2026-04-25T09:24:55.093Z</time></trkpt><trkpt lat="41.7984845" lon="1.6366542"><ele>880.0</ele><time>2026-04-25T09:24:56.094Z</time></trkpt><trkpt lat="41.7984082" lon="1.6364468"><ele>880.0</ele><time>2026-04-25T09:24:57.094Z</time></trkpt><trkpt lat="41.7983508" lon="1.6362382"><ele>880.0</ele><time>2026-04-25T09:24:58.094Z</time></trkpt><trkpt lat="41.7983154" lon="1.6360209"><ele>880.0</ele><time>2026-04-25T09:24:59.094Z</time></trkpt><trkpt lat="41.7982934" lon="1.6357924"><ele>877.3333333333333</ele><time>2026-04-25T09:25:00.093Z</time></trkpt><trkpt lat="41.7982849" lon="1.6355538"><ele>874.6666666666667</ele><time>2026-04-25T09:25:01.094Z</time></trkpt><trkpt lat="41.7982919" lon="1.6353332"><ele>872.0</ele><time>2026-04-25T09:25:02.093Z</time></trkpt><trkpt lat="41.7983182" lon="1.6351349"><ele>871.5</ele><time>2026-04-25T09:25:03.094Z</time></trkpt><trkpt lat="41.7983601" lon="1.6349626"><ele>871.0</ele><time>2026-04-25T09:25:04.094Z</time></trkpt><trkpt lat="41.7984236" lon="1.6348159"><ele>870.5</ele><time>2026-04-25T09:25:05.093Z</time></trkpt><trkpt lat="41.7985186" lon="1.6346932"><ele>870.0</ele><time>2026-04-25T09:25:06.093Z</time></trkpt><trkpt lat="41.7986321" lon="1.6345653"><ele>866.6666666666667</ele><time>2026-04-25T09:25:07.094Z</time></trkpt><trkpt lat="41.7987292" lon="1.6343924"><ele>863.3333333333334</ele><time>2026-04-25T09:25:08.093Z</time></trkpt><trkpt lat="41.7988231" lon="1.6341915"><ele>860.0</ele><time>2026-04-25T09:25:09.094Z</time></trkpt><trkpt lat="41.798918" lon="1.6340278"><ele>860.0</ele><time>2026-04-25T09:25:10.093Z</time></trkpt><trkpt lat="41.7990197" lon="1.6338925"><ele>860.0</ele><time>2026-04-25T09:25:11.095Z</time></trkpt><trkpt lat="41.7991306" lon="1.6337792"><ele>860.0</ele><time>2026-04-25T09:25:12.093Z</time></trkpt><trkpt lat="41.7992344" lon="1.6336687"><ele>860.0</ele><time>2026-04-25T09:25:13.095Z</time></trkpt><trkpt lat="41.7992989" lon="1.6335507"><ele>862.0</ele><time>2026-04-25T09:25:14.094Z</time></trkpt><trkpt lat="41.799329" lon="1.6334127"><ele>864.0</ele><time>2026-04-25T09:25:15.093Z</time></trkpt><trkpt lat="41.7993208" lon="1.6332548"><ele>866.0</ele><time>2026-04-25T09:25:16.094Z</time></trkpt><trkpt lat="41.79928" lon="1.6330807"><ele>868.0</ele><time>2026-04-25T09:25:17.093Z</time></trkpt><trkpt lat="41.7992108" lon="1.6328858"><ele>869.0</ele><time>2026-04-25T09:25:18.093Z</time></trkpt><trkpt lat="41.7991277" lon="1.6326797"><ele>870.0</ele><time>2026-04-25T09:25:19.094Z</time></trkpt><trkpt lat="41.7990551" lon="1.6325048"><ele>871.0</ele><time>2026-04-25T09:25:20.094Z</time></trkpt><trkpt lat="41.799001" lon="1.6323497"><ele>871.0</ele><time>2026-04-25T09:25:21.094Z</time></trkpt><trkpt lat="41.7989783" lon="1.6322035"><ele>871.0</ele><time>2026-04-25T09:25:22.094Z</time></trkpt><trkpt lat="41.7989807" lon="1.6320344"><ele>871.0</ele><time>2026-04-25T09:25:23.093Z</time></trkpt><trkpt lat="41.7990201" lon="1.6318499"><ele>871.0</ele><time>2026-04-25T09:25:24.093Z</time></trkpt><trkpt lat="41.799064" lon="1.6316652"><ele>871.0</ele><time>2026-04-25T09:25:25.093Z</time></trkpt><trkpt lat="41.7990632" lon="1.6314955"><ele>871.0</ele><time>2026-04-25T09:25:26.093Z</time></trkpt><trkpt lat="41.7990251" lon="1.6313235"><ele>871.0</ele><time>2026-04-25T09:25:27.094Z</time></trkpt><trkpt lat="41.7989524" lon="1.6311679"><ele>871.0</ele><time>2026-04-25T09:25:28.093Z</time></trkpt><trkpt lat="41.7988576" lon="1.6310226"><ele>872.0</ele><time>2026-04-25T09:25:29.094Z</time></trkpt><trkpt lat="41.7987651" lon="1.6309072"><ele>872.9999999999999</ele><time>2026-04-25T09:25:30.095Z</time></trkpt><trkpt lat="41.798695" lon="1.6307925"><ele>873.9999999999999</ele><time>2026-04-25T09:25:31.094Z</time></trkpt><trkpt lat="41.798654" lon="1.6306769"><ele>875.0</ele><time>2026-04-25T09:25:32.094Z</time></trkpt><trkpt lat="41.798644" lon="1.6305614"><ele>876.0</ele><time>2026-04-25T09:25:33.094Z</time></trkpt><trkpt lat="41.7986487" lon="1.6304283"><ele>877.0</ele><time>2026-04-25T09:25:34.093Z</time></trkpt><trkpt lat="41.7986655" lon="1.6302716"><ele>878.0</ele><time>2026-04-25T09:25:35.094Z</time></trkpt><trkpt lat="41.7986655" lon="1.6300822"><ele>879.0</ele><time>2026-04-25T09:25:36.093Z</time></trkpt><trkpt lat="41.7986546" lon="1.6299013"><ele>880.0</ele><time>2026-04-25T09:25:37.093Z</time></trkpt><trkpt lat="41.7986299" lon="1.6297463"><ele>880.0</ele><time>2026-04-25T09:25:38.094Z</time></trkpt><trkpt lat="41.7985778" lon="1.6296178"><ele>880.0</ele><time>2026-04-25T09:25:39.094Z</time></trkpt><trkpt lat="41.7984962" lon="1.6295184"><ele>880.0</ele><time>2026-04-25T09:25:40.093Z</time></trkpt><trkpt lat="41.7983851" lon="1.6294448"><ele>880.0</ele><time>2026-04-25T09:25:41.094Z</time></trkpt><trkpt lat="41.7982632" lon="1.6293875"><ele>878.75</ele><time>2026-04-25T09:25:42.094Z</time></trkpt><trkpt lat="41.7981548" lon="1.6293805"><ele>877.5</ele><time>2026-04-25T09:25:43.094Z</time></trkpt><trkpt lat="41.7980369" lon="1.6294319"><ele>876.25</ele><time>2026-04-25T09:25:44.095Z</time></trkpt><trkpt lat="41.7979162" lon="1.6294753"><ele>875.0</ele><time>2026-04-25T09:25:45.093Z</time></trkpt><trkpt lat="41.7977881" lon="1.6294776"><ele>874.5</ele><time>2026-04-25T09:25:46.094Z</time></trkpt><trkpt lat="41.7976514" lon="1.6294604"><ele>874.0</ele><time>2026-04-25T09:25:47.094Z</time></trkpt><trkpt lat="41.7975172" lon="1.6294058"><ele>873.5</ele><time>2026-04-25T09:25:48.093Z</time></trkpt><trkpt lat="41.7973863" lon="1.6293197"><ele>873.0</ele><time>2026-04-25T09:25:49.093Z</time></trkpt><trkpt lat="41.7972896" lon="1.629247"><ele>873.0</ele><time>2026-04-25T09:25:50.094Z</time></trkpt><trkpt lat="41.7972034" lon="1.6291676"><ele>873.0</ele><time>2026-04-25T09:25:51.094Z</time></trkpt><trkpt lat="41.7971434" lon="1.6290691"><ele>873.0</ele><time>2026-04-25T09:25:52.095Z</time></trkpt><trkpt lat="41.7971088" lon="1.6289544"><ele>873.0</ele><time>2026-04-25T09:25:53.094Z</time></trkpt><trkpt lat="41.7971067" lon="1.6288289"><ele>873.0</ele><time>2026-04-25T09:25:54.094Z</time></trkpt><trkpt lat="41.7971411" lon="1.6287002"><ele>873.75</ele><time>2026-04-25T09:25:55.094Z</time></trkpt><trkpt lat="41.797209" lon="1.6285753"><ele>874.5</ele><time>2026-04-25T09:25:56.094Z</time></trkpt><trkpt lat="41.7972957" lon="1.6284525"><ele>875.25</ele><time>2026-04-25T09:25:57.095Z</time></trkpt><trkpt lat="41.7973491" lon="1.6283265"><ele>876.0</ele><time>2026-04-25T09:25:58.094Z</time></trkpt><trkpt lat="41.7973681" lon="1.6281563"><ele>876.0</ele><time>2026-04-25T09:25:59.094Z</time></trkpt><trkpt lat="41.797353" lon="1.627962"><ele>876.0</ele><time>2026-04-25T09:26:00.095Z</time></trkpt><trkpt lat="41.7972976" lon="1.6277717"><ele>876.0</ele><time>2026-04-25T09:26:01.094Z</time></trkpt><trkpt lat="41.7972082" lon="1.6276104"><ele>876.0</ele><time>2026-04-25T09:26:02.094Z</time></trkpt><trkpt lat="41.7971111" lon="1.6274742"><ele>876.75</ele><time>2026-04-25T09:26:03.094Z</time></trkpt><trkpt lat="41.7970485" lon="1.6273407"><ele>877.5</ele><time>2026-04-25T09:26:04.094Z</time></trkpt><trkpt lat="41.7970181" lon="1.6271757"><ele>878.25</ele><time>2026-04-25T09:26:05.094Z</time></trkpt><trkpt lat="41.7969959" lon="1.6269818"><ele>879.0</ele><time>2026-04-25T09:26:06.093Z</time></trkpt><trkpt lat="41.7969548" lon="1.6268014"><ele>881.0</ele><time>2026-04-25T09:26:07.094Z</time></trkpt><trkpt lat="41.7968754" lon="1.6266192"><ele>883.0</ele><time>2026-04-25T09:26:08.093Z</time></trkpt><trkpt lat="41.796773" lon="1.6264346"><ele>885.0</ele><time>2026-04-25T09:26:09.093Z</time></trkpt><trkpt lat="41.7966772" lon="1.6262283"><ele>881.6666666666667</ele><time>2026-04-25T09:26:10.094Z</time></trkpt><trkpt lat="41.7966004" lon="1.6260368"><ele>878.3333333333334</ele><time>2026-04-25T09:26:11.094Z</time></trkpt><trkpt lat="41.7964904" lon="1.6258752"><ele>875.0</ele><time>2026-04-25T09:26:12.093Z</time></trkpt><trkpt lat="41.796345" lon="1.6257274"><ele>875.0</ele><time>2026-04-25T09:26:13.093Z</time></trkpt><trkpt lat="41.7961822" lon="1.6255914"><ele>875.0</ele><time>2026-04-25T09:26:14.093Z</time></trkpt><trkpt lat="41.7960353" lon="1.6254493"><ele>875.0</ele><time>2026-04-25T09:26:15.094Z</time></trkpt><trkpt lat="41.7959147" lon="1.6253252"><ele>875.8</ele><time>2026-04-25T09:26:16.093Z</time></trkpt><trkpt lat="41.7958212" lon="1.6252221"><ele>876.6</ele><time>2026-04-25T09:26:17.093Z</time></trkpt><trkpt lat="41.7957595" lon="1.6251172"><ele>877.4000000000001</ele><time>2026-04-25T09:26:18.095Z</time></trkpt><trkpt lat="41.7957321" lon="1.6249924"><ele>878.2</ele><time>2026-04-25T09:26:19.094Z</time></trkpt><trkpt lat="41.7957542" lon="1.624874"><ele>879.0</ele><time>2026-04-25T09:26:20.094Z</time></trkpt><trkpt lat="41.7958103" lon="1.6247531"><ele>879.0</ele><time>2026-04-25T09:26:21.095Z</time></trkpt><trkpt lat="41.7959001" lon="1.6246473"><ele>879.0</ele><time>2026-04-25T09:26:22.094Z</time></trkpt><trkpt lat="41.7960014" lon="1.624531"><ele>879.0</ele><time>2026-04-25T09:26:23.093Z</time></trkpt><trkpt lat="41.7960751" lon="1.6243754"><ele>879.0</ele><time>2026-04-25T09:26:24.094Z</time></trkpt><trkpt lat="41.7961169" lon="1.6242183"><ele>878.5</ele><time>2026-04-25T09:26:25.094Z</time></trkpt><trkpt lat="41.7961154" lon="1.6240586"><ele>878.0</ele><time>2026-04-25T09:26:26.093Z</time></trkpt><trkpt lat="41.7960698" lon="1.6238741"><ele>877.5</ele><time>2026-04-25T09:26:27.093Z</time></trkpt><trkpt lat="41.7960138" lon="1.6236658"><ele>877.0</ele><time>2026-04-25T09:26:28.094Z</time></trkpt><trkpt lat="41.79597" lon="1.6234418"><ele>877.0</ele><time>2026-04-25T09:26:29.093Z</time></trkpt><trkpt lat="41.7959522" lon="1.6232265"><ele>877.0</ele><time>2026-04-25T09:26:30.093Z</time></trkpt><trkpt lat="41.795962" lon="1.6230329"><ele>877.0</ele><time>2026-04-25T09:26:31.093Z</time></trkpt><trkpt lat="41.7960087" lon="1.6228279"><ele>882.6666666666666</ele><time>2026-04-25T09:26:32.095Z</time></trkpt><trkpt lat="41.7960864" lon="1.62261"><ele>888.3333333333333</ele><time>2026-04-25T09:26:33.094Z</time></trkpt><trkpt lat="41.7961873" lon="1.6223826"><ele>894.0</ele><time>2026-04-25T09:26:34.095Z</time></trkpt><trkpt lat="41.7963" lon="1.6221569"><ele>893.0</ele><time>2026-04-25T09:26:35.095Z</time></trkpt><trkpt lat="41.7963902" lon="1.6219713"><ele>892.0</ele><time>2026-04-25T09:26:36.094Z</time></trkpt><trkpt lat="41.7964557" lon="1.621813"><ele>891.0</ele><time>2026-04-25T09:26:37.093Z</time></trkpt><trkpt lat="41.7965001" lon="1.6216747"><ele>890.0</ele><time>2026-04-25T09:26:38.094Z</time></trkpt><trkpt lat="41.7965283" lon="1.6215648"><ele>890.0000000000001</ele><time>2026-04-25T09:26:39.094Z</time></trkpt><trkpt lat="41.7965595" lon="1.6214906"><ele>890.0</ele><time>2026-04-25T09:26:40.093Z</time></trkpt><trkpt lat="41.7965993" lon="1.6214138"><ele>890.0</ele><time>2026-04-25T09:26:42.094Z</time></trkpt><trkpt lat="41.7966434" lon="1.6213382"><ele>890.0</ele><time>2026-04-25T09:27:09.093Z</time></trkpt><trkpt lat="41.7966275" lon="1.6211572"><ele>890.0000000000001</ele><time>2026-04-25T09:27:11.093Z</time></trkpt><trkpt lat="41.7966152" lon="1.6210259"><ele>890.0</ele><time>2026-04-25T09:27:12.093Z</time></trkpt><trkpt lat="41.7966174" lon="1.62087"><ele>888.75</ele><time>2026-04-25T09:27:13.094Z</time></trkpt><trkpt lat="41.7966224" lon="1.6207013"><ele>887.5</ele><time>2026-04-25T09:27:14.094Z</time></trkpt><trkpt lat="41.7966301" lon="1.6205312"><ele>886.25</ele><time>2026-04-25T09:27:15.094Z</time></trkpt><trkpt lat="41.796636" lon="1.6203607"><ele>885.0</ele><time>2026-04-25T09:27:16.093Z</time></trkpt><trkpt lat="41.7966442" lon="1.620191"><ele>884.25</ele><time>2026-04-25T09:27:17.094Z</time></trkpt><trkpt lat="41.7966645" lon="1.6200076"><ele>883.5</ele><time>2026-04-25T09:27:18.094Z</time></trkpt><trkpt lat="41.7966978" lon="1.6198313"><ele>882.75</ele><time>2026-04-25T09:27:19.095Z</time></trkpt><trkpt lat="41.7967239" lon="1.6196722"><ele>882.0</ele><time>2026-04-25T09:27:20.095Z</time></trkpt><trkpt lat="41.7967562" lon="1.6195348"><ele>882.8</ele><time>2026-04-25T09:27:21.094Z</time></trkpt><trkpt lat="41.7968118" lon="1.6194249"><ele>883.6</ele><time>2026-04-25T09:27:22.095Z</time></trkpt><trkpt lat="41.7968953" lon="1.6193487"><ele>884.3999999999999</ele><time>2026-04-25T09:27:23.094Z</time></trkpt><trkpt lat="41.7969978" lon="1.6192921"><ele>885.1999999999999</ele><time>2026-04-25T09:27:24.093Z</time></trkpt><trkpt lat="41.797088" lon="1.6192331"><ele>886.0</ele><time>2026-04-25T09:27:25.095Z</time></trkpt><trkpt lat="41.7971622" lon="1.6191398"><ele>881.75</ele><time>2026-04-25T09:27:26.094Z</time></trkpt><trkpt lat="41.7972323" lon="1.6190074"><ele>877.5</ele><time>2026-04-25T09:27:27.093Z</time></trkpt><trkpt lat="41.7972975" lon="1.6188548"><ele>873.25</ele><time>2026-04-25T09:27:28.094Z</time></trkpt><trkpt lat="41.7973494" lon="1.6186518"><ele>869.0</ele><time>2026-04-25T09:27:29.094Z</time></trkpt><trkpt lat="41.7973911" lon="1.618402"><ele>869.0</ele><time>2026-04-25T09:27:30.094Z</time></trkpt><trkpt lat="41.7974587" lon="1.6181961"><ele>869.0</ele><time>2026-04-25T09:27:31.094Z</time></trkpt><trkpt lat="41.7975424" lon="1.6179955"><ele>869.0</ele><time>2026-04-25T09:27:32.095Z</time></trkpt><trkpt lat="41.7976375" lon="1.6177974"><ele>864.0</ele><time>2026-04-25T09:27:33.093Z</time></trkpt><trkpt lat="41.797733" lon="1.6176055"><ele>859.0</ele><time>2026-04-25T09:27:34.094Z</time></trkpt><trkpt lat="41.7978253" lon="1.6174257"><ele>854.0</ele><time>2026-04-25T09:27:35.093Z</time></trkpt><trkpt lat="41.7979115" lon="1.6172312"><ele>854.0</ele><time>2026-04-25T09:27:36.093Z</time></trkpt><trkpt lat="41.7979831" lon="1.6170458"><ele>854.0</ele><time>2026-04-25T09:27:37.093Z</time></trkpt><trkpt lat="41.7980409" lon="1.6168991"><ele>854.0</ele><time>2026-04-25T09:27:38.094Z</time></trkpt><trkpt lat="41.7980812" lon="1.61677"><ele>854.0</ele><time>2026-04-25T09:27:39.094Z</time></trkpt><trkpt lat="41.7980849" lon="1.616662"><ele>853.4000000000001</ele><time>2026-04-25T09:27:40.094Z</time></trkpt><trkpt lat="41.7980526" lon="1.6165596"><ele>852.8000000000001</ele><time>2026-04-25T09:27:41.094Z</time></trkpt><trkpt lat="41.7979824" lon="1.6164823"><ele>852.2</ele><time>2026-04-25T09:27:42.093Z</time></trkpt><trkpt lat="41.7978744" lon="1.6164273"><ele>851.5999999999999</ele><time>2026-04-25T09:27:43.094Z</time></trkpt><trkpt lat="41.7977475" lon="1.6163775"><ele>851.0</ele><time>2026-04-25T09:27:44.093Z</time></trkpt><trkpt lat="41.7976336" lon="1.6163216"><ele>851.0</ele><time>2026-04-25T09:27:45.094Z</time></trkpt><trkpt lat="41.7975371" lon="1.6162377"><ele>851.0</ele><time>2026-04-25T09:27:46.095Z</time></trkpt><trkpt lat="41.7974582" lon="1.6161208"><ele>851.0</ele><time>2026-04-25T09:27:47.093Z</time></trkpt><trkpt lat="41.7974014" lon="1.6159857"><ele>851.0</ele><time>2026-04-25T09:27:48.093Z</time></trkpt><trkpt lat="41.7973771" lon="1.6158494"><ele>850.25</ele><time>2026-04-25T09:27:49.094Z</time></trkpt><trkpt lat="41.7973892" lon="1.6156873"><ele>849.5</ele><time>2026-04-25T09:27:50.094Z</time></trkpt><trkpt lat="41.7974329" lon="1.6155208"><ele>848.75</ele><time>2026-04-25T09:27:51.093Z</time></trkpt><trkpt lat="41.797503" lon="1.6153548"><ele>848.0</ele><time>2026-04-25T09:27:52.094Z</time></trkpt><trkpt lat="41.7975871" lon="1.6151908"><ele>840.6666666666667</ele><time>2026-04-25T09:27:53.093Z</time></trkpt><trkpt lat="41.7976803" lon="1.6150234"><ele>833.3333333333333</ele><time>2026-04-25T09:27:54.094Z</time></trkpt><trkpt lat="41.7978022" lon="1.6148604"><ele>826.0</ele><time>2026-04-25T09:27:55.094Z</time></trkpt><trkpt lat="41.7979364" lon="1.6146836"><ele>827.6666666666666</ele><time>2026-04-25T09:27:56.094Z</time></trkpt><trkpt lat="41.7980658" lon="1.6144816"><ele>829.3333333333333</ele><time>2026-04-25T09:27:57.094Z</time></trkpt><trkpt lat="41.7982014" lon="1.6142977"><ele>831.0</ele><time>2026-04-25T09:27:58.093Z</time></trkpt><trkpt lat="41.7983652" lon="1.6141277"><ele>828.3333333333333</ele><time>2026-04-25T09:27:59.094Z</time></trkpt><trkpt lat="41.7985242" lon="1.6139547"><ele>825.6666666666666</ele><time>2026-04-25T09:28:00.094Z</time></trkpt><trkpt lat="41.7986666" lon="1.6137559"><ele>823.0</ele><time>2026-04-25T09:28:01.094Z</time></trkpt><trkpt lat="41.798796" lon="1.6135632"><ele>823.0</ele><time>2026-04-25T09:28:02.094Z</time></trkpt><trkpt lat="41.7989065" lon="1.6134016"><ele>823.0</ele><time>2026-04-25T09:28:03.094Z</time></trkpt><trkpt lat="41.7989981" lon="1.6132694"><ele>823.0</ele><time>2026-04-25T09:28:04.095Z</time></trkpt><trkpt lat="41.7990728" lon="1.6131482"><ele>823.0</ele><time>2026-04-25T09:28:05.094Z</time></trkpt><trkpt lat="41.7991052" lon="1.6130257"><ele>823.0</ele><time>2026-04-25T09:28:06.094Z</time></trkpt><trkpt lat="41.799111" lon="1.6128756"><ele>823.0</ele><time>2026-04-25T09:28:07.094Z</time></trkpt><trkpt lat="41.7990826" lon="1.6127112"><ele>823.0</ele><time>2026-04-25T09:28:08.094Z</time></trkpt><trkpt lat="41.7990325" lon="1.6125565"><ele>823.0</ele><time>2026-04-25T09:28:09.094Z</time></trkpt><trkpt lat="41.7989822" lon="1.6124238"><ele>821.5</ele><time>2026-04-25T09:28:10.094Z</time></trkpt><trkpt lat="41.7989147" lon="1.6123219"><ele>820.0</ele><time>2026-04-25T09:28:11.094Z</time></trkpt><trkpt lat="41.7988196" lon="1.6122332"><ele>818.5</ele><time>2026-04-25T09:28:12.093Z</time></trkpt><trkpt lat="41.7986786" lon="1.6121583"><ele>817.0</ele><time>2026-04-25T09:28:13.094Z</time></trkpt><trkpt lat="41.7985559" lon="1.6120867"><ele>816.8</ele><time>2026-04-25T09:28:14.095Z</time></trkpt><trkpt lat="41.7984668" lon="1.6119916"><ele>816.6</ele><time>2026-04-25T09:28:15.093Z</time></trkpt><trkpt lat="41.7983978" lon="1.61187"><ele>816.4</ele><time>2026-04-25T09:28:16.095Z</time></trkpt><trkpt lat="41.7983652" lon="1.6117455"><ele>816.1999999999999</ele><time>2026-04-25T09:28:17.094Z</time></trkpt><trkpt lat="41.7983887" lon="1.6116174"><ele>816.0</ele><time>2026-04-25T09:28:18.094Z</time></trkpt><trkpt lat="41.798456" lon="1.6114909"><ele>814.0</ele><time>2026-04-25T09:28:19.094Z</time></trkpt><trkpt lat="41.7985582" lon="1.6113737"><ele>812.0</ele><time>2026-04-25T09:28:20.093Z</time></trkpt><trkpt lat="41.7986814" lon="1.6112638"><ele>810.0</ele><time>2026-04-25T09:28:21.093Z</time></trkpt><trkpt lat="41.7987818" lon="1.6111728"><ele>808.0</ele><time>2026-04-25T09:28:22.095Z</time></trkpt><trkpt lat="41.7988498" lon="1.6110593"><ele>808.0</ele><time>2026-04-25T09:28:23.094Z</time></trkpt><trkpt lat="41.7988851" lon="1.6109331"><ele>808.0</ele><time>2026-04-25T09:28:24.093Z</time></trkpt><trkpt lat="41.7988823" lon="1.6108081"><ele>808.0</ele><time>2026-04-25T09:28:25.094Z</time></trkpt><trkpt lat="41.7988432" lon="1.6106864"><ele>808.0</ele><time>2026-04-25T09:28:26.093Z</time></trkpt><trkpt lat="41.7987672" lon="1.6105764"><ele>808.0</ele><time>2026-04-25T09:28:27.094Z</time></trkpt><trkpt lat="41.7986622" lon="1.6105016"><ele>808.0</ele><time>2026-04-25T09:28:28.093Z</time></trkpt><trkpt lat="41.7985234" lon="1.6104553"><ele>808.0</ele><time>2026-04-25T09:28:29.093Z</time></trkpt><trkpt lat="41.798359" lon="1.6104102"><ele>808.0</ele><time>2026-04-25T09:28:30.093Z</time></trkpt><trkpt lat="41.798229" lon="1.610355"><ele>808.0</ele><time>2026-04-25T09:28:31.095Z</time></trkpt><trkpt lat="41.7981245" lon="1.6102832"><ele>807.8</ele><time>2026-04-25T09:28:32.094Z</time></trkpt><trkpt lat="41.7980519" lon="1.6101814"><ele>807.5999999999999</ele><time>2026-04-25T09:28:33.094Z</time></trkpt><trkpt lat="41.7980249" lon="1.6100562"><ele>807.4000000000001</ele><time>2026-04-25T09:28:34.093Z</time></trkpt><trkpt lat="41.7980453" lon="1.6099416"><ele>807.2</ele><time>2026-04-25T09:28:35.093Z</time></trkpt><trkpt lat="41.7981237" lon="1.6098392"><ele>807.0</ele><time>2026-04-25T09:28:36.094Z</time></trkpt><trkpt lat="41.7982467" lon="1.6097485"><ele>807.0</ele><time>2026-04-25T09:28:37.093Z</time></trkpt><trkpt lat="41.7984077" lon="1.6096556"><ele>807.0</ele><time>2026-04-25T09:28:38.094Z</time></trkpt><trkpt lat="41.7985816" lon="1.6095621"><ele>807.0</ele><time>2026-04-25T09:28:39.093Z</time></trkpt><trkpt lat="41.7987565" lon="1.6094723"><ele>804.6666666666667</ele><time>2026-04-25T09:28:40.093Z</time></trkpt><trkpt lat="41.7989183" lon="1.6093832"><ele>802.3333333333334</ele><time>2026-04-25T09:28:41.094Z</time></trkpt><trkpt lat="41.7990771" lon="1.6092609"><ele>800.0</ele><time>2026-04-25T09:28:42.095Z</time></trkpt><trkpt lat="41.7992399" lon="1.6091109"><ele>797.3333333333334</ele><time>2026-04-25T09:28:43.093Z</time></trkpt><trkpt lat="41.7994086" lon="1.608939"><ele>794.6666666666667</ele><time>2026-04-25T09:28:44.094Z</time></trkpt><trkpt lat="41.7995668" lon="1.6087779"><ele>792.0</ele><time>2026-04-25T09:28:45.093Z</time></trkpt><trkpt lat="41.7997191" lon="1.6086322"><ele>792.0</ele><time>2026-04-25T09:28:46.093Z</time></trkpt><trkpt lat="41.7998608" lon="1.6084945"><ele>792.0</ele><time>2026-04-25T09:28:47.095Z</time></trkpt><trkpt lat="41.7999886" lon="1.6083715"><ele>792.0</ele><time>2026-04-25T09:28:48.093Z</time></trkpt><trkpt lat="41.8000909" lon="1.6082649"><ele>792.0</ele><time>2026-04-25T09:28:49.094Z</time></trkpt><trkpt lat="41.8001589" lon="1.6081603"><ele>792.0</ele><time>2026-04-25T09:28:50.094Z</time></trkpt><trkpt lat="41.8001959" lon="1.6080463"><ele>792.0</ele><time>2026-04-25T09:28:51.094Z</time></trkpt><trkpt lat="41.800187" lon="1.6079153"><ele>792.0</ele><time>2026-04-25T09:28:52.094Z</time></trkpt><trkpt lat="41.8001339" lon="1.6077846"><ele>792.0</ele><time>2026-04-25T09:28:53.094Z</time></trkpt><trkpt lat="41.8000391" lon="1.6076574"><ele>789.6666666666667</ele><time>2026-04-25T09:28:54.094Z</time></trkpt><trkpt lat="41.7999077" lon="1.6075412"><ele>787.3333333333334</ele><time>2026-04-25T09:28:55.093Z</time></trkpt><trkpt lat="41.7997493" lon="1.6074351"><ele>785.0</ele><time>2026-04-25T09:28:56.093Z</time></trkpt><trkpt lat="41.7995818" lon="1.6073263"><ele>785.0</ele><time>2026-04-25T09:28:57.093Z</time></trkpt><trkpt lat="41.799434" lon="1.6072375"><ele>785.0</ele><time>2026-04-25T09:28:58.094Z</time></trkpt><trkpt lat="41.7993237" lon="1.6071515"><ele>785.0</ele><time>2026-04-25T09:28:59.094Z</time></trkpt><trkpt lat="41.7992625" lon="1.6070521"><ele>785.0</ele><time>2026-04-25T09:29:00.093Z</time></trkpt><trkpt lat="41.799236" lon="1.6069184"><ele>786.0</ele><time>2026-04-25T09:29:01.095Z</time></trkpt><trkpt lat="41.7992563" lon="1.6067902"><ele>787.0</ele><time>2026-04-25T09:29:02.095Z</time></trkpt><trkpt lat="41.7993269" lon="1.606677"><ele>788.0</ele><time>2026-04-25T09:29:03.093Z</time></trkpt><trkpt lat="41.7994449" lon="1.6065719"><ele>789.0</ele><time>2026-04-25T09:29:04.094Z</time></trkpt><trkpt lat="41.7995989" lon="1.6064797"><ele>785.3333333333333</ele><time>2026-04-25T09:29:05.094Z</time></trkpt><trkpt lat="41.7997743" lon="1.6063622"><ele>781.6666666666666</ele><time>2026-04-25T09:29:06.093Z</time></trkpt><trkpt lat="41.7999285" lon="1.6062452"><ele>778.0</ele><time>2026-04-25T09:29:07.094Z</time></trkpt><trkpt lat="41.8000606" lon="1.6061362"><ele>778.0</ele><time>2026-04-25T09:29:08.094Z</time></trkpt><trkpt lat="41.8001585" lon="1.6060396"><ele>778.0</ele><time>2026-04-25T09:29:09.094Z</time></trkpt><trkpt lat="41.8002266" lon="1.6059312"><ele>778.0</ele><time>2026-04-25T09:29:10.094Z</time></trkpt><trkpt lat="41.8002629" lon="1.6057996"><ele>778.0</ele><time>2026-04-25T09:29:11.094Z</time></trkpt><trkpt lat="41.800266" lon="1.6056547"><ele>778.0</ele><time>2026-04-25T09:29:12.093Z</time></trkpt><trkpt lat="41.8002308" lon="1.6054867"><ele>775.75</ele><time>2026-04-25T09:29:13.094Z</time></trkpt><trkpt lat="41.8001721" lon="1.6053268"><ele>773.5</ele><time>2026-04-25T09:29:14.094Z</time></trkpt><trkpt lat="41.8001064" lon="1.605199"><ele>771.25</ele><time>2026-04-25T09:29:15.093Z</time></trkpt><trkpt lat="41.8000174" lon="1.6051023"><ele>769.0</ele><time>2026-04-25T09:29:16.094Z</time></trkpt><trkpt lat="41.7998875" lon="1.6050188"><ele>769.0</ele><time>2026-04-25T09:29:17.094Z</time></trkpt><trkpt lat="41.7997342" lon="1.6049384"><ele>769.0</ele><time>2026-04-25T09:29:18.095Z</time></trkpt><trkpt lat="41.799629" lon="1.6048538"><ele>769.0</ele><time>2026-04-25T09:29:19.093Z</time></trkpt><trkpt lat="41.7995518" lon="1.6047566"><ele>769.0</ele><time>2026-04-25T09:29:20.095Z</time></trkpt><trkpt lat="41.7995285" lon="1.6046366"><ele>769.0</ele><time>2026-04-25T09:29:21.093Z</time></trkpt><trkpt lat="41.7995413" lon="1.6045248"><ele>769.0</ele><time>2026-04-25T09:29:22.094Z</time></trkpt><trkpt lat="41.7995936" lon="1.6044115"><ele>769.0</ele><time>2026-04-25T09:29:23.094Z</time></trkpt><trkpt lat="41.7996665" lon="1.6043043"><ele>769.0</ele><time>2026-04-25T09:29:24.094Z</time></trkpt><trkpt lat="41.7997909" lon="1.604097"><ele>768.25</ele><time>2026-04-25T09:29:25.093Z</time></trkpt><trkpt lat="41.7998756" lon="1.6039401"><ele>767.5</ele><time>2026-04-25T09:29:26.095Z</time></trkpt><trkpt lat="41.7999758" lon="1.6038313"><ele>766.75</ele><time>2026-04-25T09:29:27.094Z</time></trkpt><trkpt lat="41.8000873" lon="1.6037852"><ele>766.0</ele><time>2026-04-25T09:29:28.095Z</time></trkpt><trkpt lat="41.8002124" lon="1.6037982"><ele>765.5</ele><time>2026-04-25T09:29:29.094Z</time></trkpt><trkpt lat="41.8003541" lon="1.6038626"><ele>765.0</ele><time>2026-04-25T09:29:30.095Z</time></trkpt><trkpt lat="41.8005025" lon="1.6039316"><ele>764.5</ele><time>2026-04-25T09:29:31.095Z</time></trkpt><trkpt lat="41.8006246" lon="1.6039511"><ele>764.0</ele><time>2026-04-25T09:29:32.093Z</time></trkpt><trkpt lat="41.8007409" lon="1.6039254"><ele>764.0</ele><time>2026-04-25T09:29:33.095Z</time></trkpt><trkpt lat="41.8008549" lon="1.6038323"><ele>764.0</ele><time>2026-04-25T09:29:34.094Z</time></trkpt><trkpt lat="41.8009818" lon="1.6036943"><ele>764.0</ele><time>2026-04-25T09:29:35.094Z</time></trkpt><trkpt lat="41.8011238" lon="1.6035938"><ele>763.5</ele><time>2026-04-25T09:29:36.094Z</time></trkpt><trkpt lat="41.8012829" lon="1.6035449"><ele>763.0</ele><time>2026-04-25T09:29:37.093Z</time></trkpt><trkpt lat="41.8014059" lon="1.6035096"><ele>762.5</ele><time>2026-04-25T09:29:38.093Z</time></trkpt><trkpt lat="41.8015087" lon="1.6034442"><ele>762.0</ele><time>2026-04-25T09:29:39.094Z</time></trkpt><trkpt lat="41.8015706" lon="1.6033535"><ele>762.0</ele><time>2026-04-25T09:29:40.093Z</time></trkpt><trkpt lat="41.8015974" lon="1.6032263"><ele>762.0</ele><time>2026-04-25T09:29:41.094Z</time></trkpt><trkpt lat="41.8015686" lon="1.6030687"><ele>762.0</ele><time>2026-04-25T09:29:42.094Z</time></trkpt><trkpt lat="41.8014912" lon="1.6028977"><ele>762.0</ele><time>2026-04-25T09:29:43.094Z</time></trkpt><trkpt lat="41.801391" lon="1.6027125"><ele>760.25</ele><time>2026-04-25T09:29:44.094Z</time></trkpt><trkpt lat="41.8013183" lon="1.6025132"><ele>758.5</ele><time>2026-04-25T09:29:45.094Z</time></trkpt><trkpt lat="41.8012721" lon="1.6023356"><ele>756.75</ele><time>2026-04-25T09:29:46.093Z</time></trkpt><trkpt lat="41.8012094" lon="1.6021794"><ele>755.0</ele><time>2026-04-25T09:29:47.094Z</time></trkpt><trkpt lat="41.8010942" lon="1.6020373"><ele>754.5</ele><time>2026-04-25T09:29:48.094Z</time></trkpt><trkpt lat="41.8009709" lon="1.6018959"><ele>754.0</ele><time>2026-04-25T09:29:49.093Z</time></trkpt><trkpt lat="41.8008929" lon="1.6017406"><ele>753.5</ele><time>2026-04-25T09:29:50.095Z</time></trkpt><trkpt lat="41.8008412" lon="1.6015683"><ele>753.0</ele><time>2026-04-25T09:29:51.093Z</time></trkpt><trkpt lat="41.8008132" lon="1.6013778"><ele>753.0</ele><time>2026-04-25T09:29:52.094Z</time></trkpt><trkpt lat="41.8008145" lon="1.6012093"><ele>753.0</ele><time>2026-04-25T09:29:53.094Z</time></trkpt><trkpt lat="41.8008456" lon="1.6010541"><ele>753.0</ele><time>2026-04-25T09:29:54.093Z</time></trkpt><trkpt lat="41.8009277" lon="1.6008862"><ele>753.0</ele><time>2026-04-25T09:29:55.094Z</time></trkpt><trkpt lat="41.8010487" lon="1.6007076"><ele>746.0</ele><time>2026-04-25T09:29:56.094Z</time></trkpt><trkpt lat="41.801199" lon="1.6005444"><ele>739.0</ele><time>2026-04-25T09:29:57.094Z</time></trkpt><trkpt lat="41.8013484" lon="1.6004119"><ele>732.0</ele><time>2026-04-25T09:29:58.093Z</time></trkpt><trkpt lat="41.8014671" lon="1.600286"><ele>732.0</ele><time>2026-04-25T09:29:59.094Z</time></trkpt><trkpt lat="41.801529" lon="1.6001437"><ele>732.0</ele><time>2026-04-25T09:30:00.094Z</time></trkpt><trkpt lat="41.8015578" lon="1.5999563"><ele>732.0</ele><time>2026-04-25T09:30:01.094Z</time></trkpt><trkpt lat="41.8015601" lon="1.5997321"><ele>732.0</ele><time>2026-04-25T09:30:02.093Z</time></trkpt><trkpt lat="41.8015828" lon="1.5995138"><ele>731.0</ele><time>2026-04-25T09:30:03.095Z</time></trkpt><trkpt lat="41.801633" lon="1.5992799"><ele>730.0</ele><time>2026-04-25T09:30:04.094Z</time></trkpt><trkpt lat="41.8016981" lon="1.5990779"><ele>729.0</ele><time>2026-04-25T09:30:05.094Z</time></trkpt><trkpt lat="41.801766" lon="1.5989198"><ele>726.5</ele><time>2026-04-25T09:30:06.094Z</time></trkpt><trkpt lat="41.801861" lon="1.5988221"><ele>724.0</ele><time>2026-04-25T09:30:07.094Z</time></trkpt><trkpt lat="41.8019723" lon="1.5987907"><ele>721.5</ele><time>2026-04-25T09:30:08.093Z</time></trkpt><trkpt lat="41.8021175" lon="1.5988088"><ele>719.0</ele><time>2026-04-25T09:30:09.094Z</time></trkpt><trkpt lat="41.802288" lon="1.5988304"><ele>719.0</ele><time>2026-04-25T09:30:10.093Z</time></trkpt><trkpt lat="41.8024679" lon="1.5988243"><ele>719.0</ele><time>2026-04-25T09:30:11.094Z</time></trkpt><trkpt lat="41.8026176" lon="1.5988231"><ele>719.0</ele><time>2026-04-25T09:30:12.094Z</time></trkpt><trkpt lat="41.8027446" lon="1.5987954"><ele>717.25</ele><time>2026-04-25T09:30:13.095Z</time></trkpt><trkpt lat="41.8028521" lon="1.5987362"><ele>715.5</ele><time>2026-04-25T09:30:14.094Z</time></trkpt><trkpt lat="41.8029353" lon="1.5986354"><ele>713.75</ele><time>2026-04-25T09:30:15.094Z</time></trkpt><trkpt lat="41.8030024" lon="1.5984841"><ele>712.0</ele><time>2026-04-25T09:30:16.093Z</time></trkpt><trkpt lat="41.8030612" lon="1.5982773"><ele>712.0</ele><time>2026-04-25T09:30:17.093Z</time></trkpt><trkpt lat="41.8031372" lon="1.5980195"><ele>712.0</ele><time>2026-04-25T09:30:18.093Z</time></trkpt><trkpt lat="41.8032542" lon="1.5977088"><ele>712.5</ele><time>2026-04-25T09:30:19.093Z</time></trkpt><trkpt lat="41.803393" lon="1.5973517"><ele>713.0</ele><time>2026-04-25T09:30:20.095Z</time></trkpt><trkpt lat="41.8035471" lon="1.596968"><ele>708.5</ele><time>2026-04-25T09:30:21.094Z</time></trkpt><trkpt lat="41.803683" lon="1.5966591"><ele>704.0</ele><time>2026-04-25T09:30:22.094Z</time></trkpt><trkpt lat="41.803827" lon="1.5963986"><ele>704.0</ele><time>2026-04-25T09:30:23.094Z</time></trkpt><trkpt lat="41.8039712" lon="1.5962029"><ele>704.0</ele><time>2026-04-25T09:30:24.093Z</time></trkpt><trkpt lat="41.8041018" lon="1.5960446"><ele>704.0</ele><time>2026-04-25T09:30:25.094Z</time></trkpt><trkpt lat="41.8042141" lon="1.5958719"><ele>705.0</ele><time>2026-04-25T09:30:26.093Z</time></trkpt><trkpt lat="41.8043074" lon="1.5957072"><ele>706.0</ele><time>2026-04-25T09:30:27.093Z</time></trkpt><trkpt lat="41.8044084" lon="1.5955409"><ele>707.0</ele><time>2026-04-25T09:30:28.094Z</time></trkpt><trkpt lat="41.8045137" lon="1.5953695"><ele>708.5</ele><time>2026-04-25T09:30:29.094Z</time></trkpt><trkpt lat="41.8045941" lon="1.5951956"><ele>710.0</ele><time>2026-04-25T09:30:30.094Z</time></trkpt><trkpt lat="41.8046532" lon="1.5950519"><ele>711.5</ele><time>2026-04-25T09:30:31.093Z</time></trkpt><trkpt lat="41.8047183" lon="1.5949498"><ele>713.0</ele><time>2026-04-25T09:30:32.093Z</time></trkpt><trkpt lat="41.804804" lon="1.5949043"><ele>713.0</ele><time>2026-04-25T09:30:33.095Z</time></trkpt><trkpt lat="41.8049017" lon="1.5949029"><ele>713.0</ele><time>2026-04-25T09:30:34.093Z</time></trkpt><trkpt lat="41.8050018" lon="1.5949417"><ele>713.0</ele><time>2026-04-25T09:30:35.095Z</time></trkpt><trkpt lat="41.8050952" lon="1.5950311"><ele>713.0</ele><time>2026-04-25T09:30:36.093Z</time></trkpt><trkpt lat="41.8051811" lon="1.5951552"><ele>713.0</ele><time>2026-04-25T09:30:37.094Z</time></trkpt><trkpt lat="41.8052601" lon="1.5953147"><ele>716.3333333333333</ele><time>2026-04-25T09:30:38.094Z</time></trkpt><trkpt lat="41.8053325" lon="1.5954948"><ele>719.6666666666666</ele><time>2026-04-25T09:30:39.094Z</time></trkpt><trkpt lat="41.8054152" lon="1.5956798"><ele>723.0</ele><time>2026-04-25T09:30:40.094Z</time></trkpt><trkpt lat="41.8055016" lon="1.5958677"><ele>723.0</ele><time>2026-04-25T09:30:41.095Z</time></trkpt><trkpt lat="41.8055917" lon="1.5960673"><ele>723.0</ele><time>2026-04-25T09:30:42.094Z</time></trkpt><trkpt lat="41.8056982" lon="1.5962701"><ele>723.0</ele><time>2026-04-25T09:30:43.095Z</time></trkpt><trkpt lat="41.8058188" lon="1.5964672"><ele>723.6666666666666</ele><time>2026-04-25T09:30:44.094Z</time></trkpt><trkpt lat="41.8059505" lon="1.5966609"><ele>724.3333333333333</ele><time>2026-04-25T09:30:45.094Z</time></trkpt><trkpt lat="41.8060741" lon="1.596841"><ele>725.0</ele><time>2026-04-25T09:30:46.094Z</time></trkpt><trkpt lat="41.8061819" lon="1.5970272"><ele>723.25</ele><time>2026-04-25T09:30:47.094Z</time></trkpt><trkpt lat="41.8062724" lon="1.5972186"><ele>721.5</ele><time>2026-04-25T09:30:48.094Z</time></trkpt><trkpt lat="41.8063501" lon="1.5973852"><ele>719.75</ele><time>2026-04-25T09:30:49.094Z</time></trkpt><trkpt lat="41.8064203" lon="1.5975204"><ele>718.0</ele><time>2026-04-25T09:30:50.093Z</time></trkpt><trkpt lat="41.8064911" lon="1.5976121"><ele>718.0</ele><time>2026-04-25T09:30:51.094Z</time></trkpt><trkpt lat="41.8065634" lon="1.5976742"><ele>718.0</ele><time>2026-04-25T09:30:52.095Z</time></trkpt><trkpt lat="41.8066379" lon="1.5976969"><ele>718.0</ele><time>2026-04-25T09:30:53.094Z</time></trkpt><trkpt lat="41.8067114" lon="1.5976794"><ele>718.0</ele><time>2026-04-25T09:30:54.094Z</time></trkpt><trkpt lat="41.8067806" lon="1.5976218"><ele>718.0</ele><time>2026-04-25T09:30:55.094Z</time></trkpt><trkpt lat="41.8068362" lon="1.5975365"><ele>718.0</ele><time>2026-04-25T09:30:56.094Z</time></trkpt><trkpt lat="41.806889" lon="1.5974207"><ele>716.75</ele><time>2026-04-25T09:30:57.094Z</time></trkpt><trkpt lat="41.8069539" lon="1.5972765"><ele>715.5</ele><time>2026-04-25T09:30:58.094Z</time></trkpt><trkpt lat="41.8070363" lon="1.5971115"><ele>714.25</ele><time>2026-04-25T09:30:59.094Z</time></trkpt><trkpt lat="41.8071393" lon="1.5969335"><ele>713.0</ele><time>2026-04-25T09:31:00.094Z</time></trkpt><trkpt lat="41.8072585" lon="1.5967472"><ele>713.0</ele><time>2026-04-25T09:31:01.094Z</time></trkpt><trkpt lat="41.8073848" lon="1.5965631"><ele>713.0</ele><time>2026-04-25T09:31:02.093Z</time></trkpt><trkpt lat="41.8075118" lon="1.596399"><ele>713.0</ele><time>2026-04-25T09:31:03.094Z</time></trkpt><trkpt lat="41.8076315" lon="1.5962533"><ele>708.0</ele><time>2026-04-25T09:31:04.094Z</time></trkpt><trkpt lat="41.807734" lon="1.5961"><ele>703.0</ele><time>2026-04-25T09:31:05.093Z</time></trkpt><trkpt lat="41.8078262" lon="1.5959049"><ele>698.0</ele><time>2026-04-25T09:31:06.094Z</time></trkpt><trkpt lat="41.8079111" lon="1.5956726"><ele>698.0</ele><time>2026-04-25T09:31:07.094Z</time></trkpt><trkpt lat="41.8079986" lon="1.5954551"><ele>698.0</ele><time>2026-04-25T09:31:08.093Z</time></trkpt><trkpt lat="41.8081033" lon="1.5952626"><ele>698.0</ele><time>2026-04-25T09:31:09.094Z</time></trkpt><trkpt lat="41.8082099" lon="1.5950635"><ele>699.0</ele><time>2026-04-25T09:31:10.094Z</time></trkpt><trkpt lat="41.8082941" lon="1.5948557"><ele>700.0</ele><time>2026-04-25T09:31:11.093Z</time></trkpt><trkpt lat="41.8083564" lon="1.5946508"><ele>701.0</ele><time>2026-04-25T09:31:12.094Z</time></trkpt><trkpt lat="41.8083978" lon="1.5944391"><ele>701.0</ele><time>2026-04-25T09:31:13.094Z</time></trkpt><trkpt lat="41.8084132" lon="1.5941842"><ele>701.0</ele><time>2026-04-25T09:31:14.094Z</time></trkpt><trkpt lat="41.8084183" lon="1.5939005"><ele>701.0</ele><time>2026-04-25T09:31:15.093Z</time></trkpt><trkpt lat="41.8084155" lon="1.5936229"><ele>699.6666666666666</ele><time>2026-04-25T09:31:16.094Z</time></trkpt><trkpt lat="41.8084115" lon="1.5933676"><ele>698.3333333333334</ele><time>2026-04-25T09:31:17.093Z</time></trkpt><trkpt lat="41.808418" lon="1.5931424"><ele>697.0</ele><time>2026-04-25T09:31:18.093Z</time></trkpt><trkpt lat="41.8084535" lon="1.5929659"><ele>698.0</ele><time>2026-04-25T09:31:19.094Z</time></trkpt><trkpt lat="41.8085052" lon="1.5928302"><ele>699.0</ele><time>2026-04-25T09:31:20.094Z</time></trkpt><trkpt lat="41.808578" lon="1.5927428"><ele>700.0</ele><time>2026-04-25T09:31:21.095Z</time></trkpt><trkpt lat="41.8086675" lon="1.5927137"><ele>701.0</ele><time>2026-04-25T09:31:22.094Z</time></trkpt><trkpt lat="41.8087626" lon="1.5927482"><ele>702.0</ele><time>2026-04-25T09:31:23.094Z</time></trkpt><trkpt lat="41.8088346" lon="1.5928367"><ele>699.3333333333334</ele><time>2026-04-25T09:31:24.093Z</time></trkpt><trkpt lat="41.808897" lon="1.5929842"><ele>696.6666666666667</ele><time>2026-04-25T09:31:25.093Z</time></trkpt><trkpt lat="41.8089664" lon="1.5931716"><ele>694.0</ele><time>2026-04-25T09:31:26.095Z</time></trkpt><trkpt lat="41.8090513" lon="1.5933665"><ele>694.0</ele><time>2026-04-25T09:31:27.094Z</time></trkpt><trkpt lat="41.809143" lon="1.5935322"><ele>694.0</ele><time>2026-04-25T09:31:28.095Z</time></trkpt><trkpt lat="41.8092721" lon="1.5937081"><ele>694.0</ele><time>2026-04-25T09:31:29.093Z</time></trkpt><trkpt lat="41.8094163" lon="1.5938966"><ele>697.6666666666667</ele><time>2026-04-25T09:31:30.095Z</time></trkpt><trkpt lat="41.8095825" lon="1.5940784"><ele>701.3333333333334</ele><time>2026-04-25T09:31:31.093Z</time></trkpt><trkpt lat="41.8097647" lon="1.5942467"><ele>705.0</ele><time>2026-04-25T09:31:32.095Z</time></trkpt><trkpt lat="41.8099212" lon="1.5943914"><ele>705.0</ele><time>2026-04-25T09:31:33.093Z</time></trkpt><trkpt lat="41.8100522" lon="1.5945182"><ele>705.0</ele><time>2026-04-25T09:31:34.094Z</time></trkpt><trkpt lat="41.8101468" lon="1.5946253"><ele>705.0</ele><time>2026-04-25T09:31:35.094Z</time></trkpt><trkpt lat="41.8102578" lon="1.5946937"><ele>705.0</ele><time>2026-04-25T09:31:36.095Z</time></trkpt><trkpt lat="41.8103707" lon="1.5947181"><ele>705.0</ele><time>2026-04-25T09:31:37.094Z</time></trkpt><trkpt lat="41.8105061" lon="1.5947044"><ele>705.0</ele><time>2026-04-25T09:31:38.095Z</time></trkpt><trkpt lat="41.8106728" lon="1.5947063"><ele>705.0</ele><time>2026-04-25T09:31:39.094Z</time></trkpt><trkpt lat="41.8108633" lon="1.594718"><ele>709.0</ele><time>2026-04-25T09:31:40.094Z</time></trkpt><trkpt lat="41.8110749" lon="1.5946913"><ele>713.0</ele><time>2026-04-25T09:31:41.095Z</time></trkpt><trkpt lat="41.8113112" lon="1.5946547"><ele>713.0</ele><time>2026-04-25T09:31:42.094Z</time></trkpt><trkpt lat="41.8115294" lon="1.5946147"><ele>713.0</ele><time>2026-04-25T09:31:43.094Z</time></trkpt><trkpt lat="41.8117225" lon="1.5945878"><ele>713.0</ele><time>2026-04-25T09:31:44.094Z</time></trkpt><trkpt lat="41.8119012" lon="1.5946016"><ele>714.3333333333333</ele><time>2026-04-25T09:31:45.095Z</time></trkpt><trkpt lat="41.812075" lon="1.5946416"><ele>715.6666666666666</ele><time>2026-04-25T09:31:46.094Z</time></trkpt><trkpt lat="41.8122269" lon="1.594659"><ele>717.0</ele><time>2026-04-25T09:31:47.094Z</time></trkpt><trkpt lat="41.8123782" lon="1.5946761"><ele>717.0</ele><time>2026-04-25T09:31:48.094Z</time></trkpt><trkpt lat="41.8124918" lon="1.5947187"><ele>717.0</ele><time>2026-04-25T09:31:49.093Z</time></trkpt><trkpt lat="41.8125664" lon="1.594793"><ele>717.0</ele><time>2026-04-25T09:31:50.094Z</time></trkpt><trkpt lat="41.8126063" lon="1.5949195"><ele>717.0</ele><time>2026-04-25T09:31:51.093Z</time></trkpt><trkpt lat="41.8126323" lon="1.595122"><ele>720.3333333333334</ele><time>2026-04-25T09:31:52.093Z</time></trkpt><trkpt lat="41.8126594" lon="1.595359"><ele>723.6666666666667</ele><time>2026-04-25T09:31:53.094Z</time></trkpt><trkpt lat="41.8126897" lon="1.5956448"><ele>727.0</ele><time>2026-04-25T09:31:54.095Z</time></trkpt><trkpt lat="41.812721" lon="1.5959515"><ele>730.5</ele><time>2026-04-25T09:31:55.094Z</time></trkpt><trkpt lat="41.8127516" lon="1.5962751"><ele>734.0</ele><time>2026-04-25T09:31:56.094Z</time></trkpt><trkpt lat="41.8127814" lon="1.5965704"><ele>734.0</ele><time>2026-04-25T09:31:57.093Z</time></trkpt><trkpt lat="41.8128076" lon="1.5968527"><ele>734.0</ele><time>2026-04-25T09:31:58.094Z</time></trkpt><trkpt lat="41.8128283" lon="1.5971286"><ele>734.0</ele><time>2026-04-25T09:31:59.094Z</time></trkpt><trkpt lat="41.8128358" lon="1.5973728"><ele>737.0</ele><time>2026-04-25T09:32:00.094Z</time></trkpt><trkpt lat="41.8128307" lon="1.5976166"><ele>740.0</ele><time>2026-04-25T09:32:01.093Z</time></trkpt><trkpt lat="41.8128279" lon="1.5978554"><ele>743.0</ele><time>2026-04-25T09:32:02.094Z</time></trkpt><trkpt lat="41.8128394" lon="1.5980528"><ele>743.6666666666666</ele><time>2026-04-25T09:32:03.093Z</time></trkpt><trkpt lat="41.8128762" lon="1.5982323"><ele>744.3333333333334</ele><time>2026-04-25T09:32:04.093Z</time></trkpt><trkpt lat="41.8129481" lon="1.5984139"><ele>745.0</ele><time>2026-04-25T09:32:05.093Z</time></trkpt><trkpt lat="41.8130544" lon="1.5985816"><ele>746.6666666666667</ele><time>2026-04-25T09:32:06.094Z</time></trkpt><trkpt lat="41.8131926" lon="1.5987499"><ele>748.3333333333334</ele><time>2026-04-25T09:32:07.094Z</time></trkpt><trkpt lat="41.813359" lon="1.598918"><ele>750.0</ele><time>2026-04-25T09:32:08.094Z</time></trkpt><trkpt lat="41.8135147" lon="1.5990802"><ele>750.0</ele><time>2026-04-25T09:32:09.093Z</time></trkpt><trkpt lat="41.8136706" lon="1.5992546"><ele>750.0</ele><time>2026-04-25T09:32:10.095Z</time></trkpt><trkpt lat="41.8138093" lon="1.5994638"><ele>750.0</ele><time>2026-04-25T09:32:11.094Z</time></trkpt><trkpt lat="41.8139178" lon="1.5996876"><ele>749.3333333333334</ele><time>2026-04-25T09:32:12.094Z</time></trkpt><trkpt lat="41.814019" lon="1.5999369"><ele>748.6666666666667</ele><time>2026-04-25T09:32:13.094Z</time></trkpt><trkpt lat="41.8140874" lon="1.6001877"><ele>748.0</ele><time>2026-04-25T09:32:14.094Z</time></trkpt><trkpt lat="41.8141269" lon="1.6004541"><ele>748.0</ele><time>2026-04-25T09:32:15.094Z</time></trkpt><trkpt lat="41.8141411" lon="1.6006826"><ele>748.0</ele><time>2026-04-25T09:32:16.093Z</time></trkpt><trkpt lat="41.8141593" lon="1.600883"><ele>748.0</ele><time>2026-04-25T09:32:17.094Z</time></trkpt><trkpt lat="41.8142136" lon="1.6010534"><ele>748.0</ele><time>2026-04-25T09:32:18.095Z</time></trkpt><trkpt lat="41.8143095" lon="1.6012385"><ele>748.0</ele><time>2026-04-25T09:32:19.094Z</time></trkpt><trkpt lat="41.8144378" lon="1.6014287"><ele>748.0</ele><time>2026-04-25T09:32:20.094Z</time></trkpt><trkpt lat="41.8145862" lon="1.6016386"><ele>751.0</ele><time>2026-04-25T09:32:21.093Z</time></trkpt><trkpt lat="41.8147375" lon="1.6018612"><ele>754.0</ele><time>2026-04-25T09:32:22.094Z</time></trkpt><trkpt lat="41.814913" lon="1.602069"><ele>754.0</ele><time>2026-04-25T09:32:23.094Z</time></trkpt><trkpt lat="41.815086" lon="1.6022432"><ele>754.0</ele><time>2026-04-25T09:32:24.094Z</time></trkpt><trkpt lat="41.815242" lon="1.6024418"><ele>754.0</ele><time>2026-04-25T09:32:25.093Z</time></trkpt><trkpt lat="41.8153797" lon="1.60264"><ele>755.6666666666667</ele><time>2026-04-25T09:32:26.094Z</time></trkpt><trkpt lat="41.8155028" lon="1.6028634"><ele>757.3333333333334</ele><time>2026-04-25T09:32:27.095Z</time></trkpt><trkpt lat="41.8155945" lon="1.6031082"><ele>759.0</ele><time>2026-04-25T09:32:28.093Z</time></trkpt><trkpt lat="41.8156598" lon="1.6033453"><ele>759.0</ele><time>2026-04-25T09:32:29.093Z</time></trkpt><trkpt lat="41.8157112" lon="1.603563"><ele>759.0</ele><time>2026-04-25T09:32:30.094Z</time></trkpt><trkpt lat="41.8157521" lon="1.6037732"><ele>759.0</ele><time>2026-04-25T09:32:31.093Z</time></trkpt><trkpt lat="41.8157745" lon="1.6039942"><ele>759.0</ele><time>2026-04-25T09:32:32.094Z</time></trkpt><trkpt lat="41.8157842" lon="1.6042165"><ele>759.0</ele><time>2026-04-25T09:32:33.093Z</time></trkpt><trkpt lat="41.8158306" lon="1.6044354"><ele>759.0</ele><time>2026-04-25T09:32:34.093Z</time></trkpt><trkpt lat="41.815918" lon="1.604679"><ele>754.5</ele><time>2026-04-25T09:32:35.093Z</time></trkpt><trkpt lat="41.8160172" lon="1.6049547"><ele>750.0</ele><time>2026-04-25T09:32:36.093Z</time></trkpt><trkpt lat="41.8161217" lon="1.6052509"><ele>751.3333333333334</ele><time>2026-04-25T09:32:37.094Z</time></trkpt><trkpt lat="41.8162187" lon="1.6055281"><ele>752.6666666666667</ele><time>2026-04-25T09:32:38.094Z</time></trkpt><trkpt lat="41.816283" lon="1.6057967"><ele>754.0</ele><time>2026-04-25T09:32:39.093Z</time></trkpt><trkpt lat="41.8162995" lon="1.6060619"><ele>754.6666666666667</ele><time>2026-04-25T09:32:40.093Z</time></trkpt><trkpt lat="41.8162884" lon="1.6063403"><ele>755.3333333333334</ele><time>2026-04-25T09:32:41.094Z</time></trkpt><trkpt lat="41.8162867" lon="1.6066224"><ele>756.0</ele><time>2026-04-25T09:32:42.094Z</time></trkpt><trkpt lat="41.8162877" lon="1.6068737"><ele>755.0</ele><time>2026-04-25T09:32:43.094Z</time></trkpt><trkpt lat="41.8163009" lon="1.607113"><ele>754.0</ele><time>2026-04-25T09:32:44.094Z</time></trkpt><trkpt lat="41.8163518" lon="1.6073625"><ele>753.0</ele><time>2026-04-25T09:32:45.093Z</time></trkpt><trkpt lat="41.8164164" lon="1.6076345"><ele>751.0</ele><time>2026-04-25T09:32:46.093Z</time></trkpt><trkpt lat="41.8164926" lon="1.6079354"><ele>749.0</ele><time>2026-04-25T09:32:47.093Z</time></trkpt><trkpt lat="41.8165752" lon="1.6082522"><ele>749.0</ele><time>2026-04-25T09:32:48.094Z</time></trkpt><trkpt lat="41.8166668" lon="1.6085725"><ele>749.0</ele><time>2026-04-25T09:32:49.093Z</time></trkpt><trkpt lat="41.8167687" lon="1.6088597"><ele>748.0</ele><time>2026-04-25T09:32:50.094Z</time></trkpt><trkpt lat="41.8168799" lon="1.6091152"><ele>747.0</ele><time>2026-04-25T09:32:51.094Z</time></trkpt><trkpt lat="41.8169837" lon="1.6093496"><ele>746.0</ele><time>2026-04-25T09:32:52.093Z</time></trkpt><trkpt lat="41.8170629" lon="1.609579"><ele>746.0</ele><time>2026-04-25T09:32:53.093Z</time></trkpt><trkpt lat="41.8171196" lon="1.6098317"><ele>746.0</ele><time>2026-04-25T09:32:54.094Z</time></trkpt><trkpt lat="41.8171832" lon="1.6100929"><ele>746.0</ele><time>2026-04-25T09:32:55.094Z</time></trkpt><trkpt lat="41.8172681" lon="1.6103182"><ele>745.3333333333333</ele><time>2026-04-25T09:32:56.094Z</time></trkpt><trkpt lat="41.8173861" lon="1.6105342"><ele>744.6666666666666</ele><time>2026-04-25T09:32:57.094Z</time></trkpt><trkpt lat="41.8175237" lon="1.6107371"><ele>744.0</ele><time>2026-04-25T09:32:58.094Z</time></trkpt><trkpt lat="41.8176457" lon="1.6109378"><ele>743.6666666666666</ele><time>2026-04-25T09:32:59.094Z</time></trkpt><trkpt lat="41.8177417" lon="1.6111542"><ele>743.3333333333333</ele><time>2026-04-25T09:33:00.094Z</time></trkpt><trkpt lat="41.8178509" lon="1.6113818"><ele>743.0</ele><time>2026-04-25T09:33:01.094Z</time></trkpt><trkpt lat="41.817965" lon="1.6115828"><ele>743.6666666666666</ele><time>2026-04-25T09:33:02.095Z</time></trkpt><trkpt lat="41.8180724" lon="1.6117601"><ele>744.3333333333334</ele><time>2026-04-25T09:33:03.094Z</time></trkpt><trkpt lat="41.81817" lon="1.6119024"><ele>745.0</ele><time>2026-04-25T09:33:04.093Z</time></trkpt><trkpt lat="41.818268" lon="1.6120274"><ele>744.0</ele><time>2026-04-25T09:33:05.094Z</time></trkpt><trkpt lat="41.8183659" lon="1.6121186"><ele>743.0</ele><time>2026-04-25T09:33:06.093Z</time></trkpt><trkpt lat="41.8184597" lon="1.6121701"><ele>742.0</ele><time>2026-04-25T09:33:07.094Z</time></trkpt><trkpt lat="41.8185572" lon="1.6121764"><ele>741.0</ele><time>2026-04-25T09:33:08.093Z</time></trkpt><trkpt lat="41.8186848" lon="1.6121398"><ele>740.0</ele><time>2026-04-25T09:33:09.093Z</time></trkpt><trkpt lat="41.8188445" lon="1.6120763"><ele>739.5</ele><time>2026-04-25T09:33:10.093Z</time></trkpt><trkpt lat="41.8190031" lon="1.6119994"><ele>739.0</ele><time>2026-04-25T09:33:11.093Z</time></trkpt><trkpt lat="41.8191378" lon="1.6119392"><ele>738.5</ele><time>2026-04-25T09:33:12.094Z</time></trkpt><trkpt lat="41.8192521" lon="1.6119324"><ele>738.0</ele><time>2026-04-25T09:33:13.094Z</time></trkpt><trkpt lat="41.8193592" lon="1.611965"><ele>736.3333333333334</ele><time>2026-04-25T09:33:14.094Z</time></trkpt><trkpt lat="41.8194901" lon="1.6120447"><ele>734.6666666666667</ele><time>2026-04-25T09:33:15.094Z</time></trkpt><trkpt lat="41.8196386" lon="1.6121561"><ele>733.0</ele><time>2026-04-25T09:33:16.094Z</time></trkpt><trkpt lat="41.8198088" lon="1.6122967"><ele>733.0</ele><time>2026-04-25T09:33:17.094Z</time></trkpt><trkpt lat="41.8199991" lon="1.612469"><ele>733.0</ele><time>2026-04-25T09:33:18.094Z</time></trkpt><trkpt lat="41.8201988" lon="1.6126575"><ele>730.6666666666667</ele><time>2026-04-25T09:33:19.094Z</time></trkpt><trkpt lat="41.8203767" lon="1.6128278"><ele>728.3333333333334</ele><time>2026-04-25T09:33:20.094Z</time></trkpt><trkpt lat="41.8205446" lon="1.612993"><ele>726.0</ele><time>2026-04-25T09:33:21.094Z</time></trkpt><trkpt lat="41.820696" lon="1.6131412"><ele>726.0</ele><time>2026-04-25T09:33:22.093Z</time></trkpt><trkpt lat="41.8208493" lon="1.613259"><ele>726.0</ele><time>2026-04-25T09:33:23.094Z</time></trkpt><trkpt lat="41.8210036" lon="1.6133532"><ele>726.0</ele><time>2026-04-25T09:33:24.094Z</time></trkpt><trkpt lat="41.8211574" lon="1.6134211"><ele>723.3333333333334</ele><time>2026-04-25T09:33:25.094Z</time></trkpt><trkpt lat="41.8213113" lon="1.6134568"><ele>720.6666666666667</ele><time>2026-04-25T09:33:26.095Z</time></trkpt><trkpt lat="41.8214867" lon="1.6134475"><ele>718.0</ele><time>2026-04-25T09:33:27.094Z</time></trkpt><trkpt lat="41.8216929" lon="1.6134076"><ele>715.3333333333334</ele><time>2026-04-25T09:33:28.093Z</time></trkpt><trkpt lat="41.8219154" lon="1.6133585"><ele>712.6666666666666</ele><time>2026-04-25T09:33:29.094Z</time></trkpt><trkpt lat="41.8220986" lon="1.6133243"><ele>710.0</ele><time>2026-04-25T09:33:30.094Z</time></trkpt><trkpt lat="41.8222668" lon="1.6133067"><ele>710.0</ele><time>2026-04-25T09:33:31.094Z</time></trkpt><trkpt lat="41.822436" lon="1.6133343"><ele>710.0</ele><time>2026-04-25T09:33:32.093Z</time></trkpt><trkpt lat="41.8226294" lon="1.613389"><ele>710.0</ele><time>2026-04-25T09:33:33.093Z</time></trkpt><trkpt lat="41.8228499" lon="1.6134335"><ele>707.5</ele><time>2026-04-25T09:33:34.094Z</time></trkpt><trkpt lat="41.8230904" lon="1.613493"><ele>705.0</ele><time>2026-04-25T09:33:35.094Z</time></trkpt><trkpt lat="41.8233428" lon="1.6135777"><ele>705.0</ele><time>2026-04-25T09:33:36.094Z</time></trkpt><trkpt lat="41.8235908" lon="1.6136393"><ele>705.0</ele><time>2026-04-25T09:33:37.095Z</time></trkpt><trkpt lat="41.823817" lon="1.6136786"><ele>705.0</ele><time>2026-04-25T09:33:38.093Z</time></trkpt><trkpt lat="41.824013" lon="1.6137196"><ele>705.0</ele><time>2026-04-25T09:33:39.093Z</time></trkpt><trkpt lat="41.824174" lon="1.6137643"><ele>705.0</ele><time>2026-04-25T09:33:40.094Z</time></trkpt><trkpt lat="41.8243029" lon="1.6138062"><ele>703.75</ele><time>2026-04-25T09:33:41.094Z</time></trkpt><trkpt lat="41.8244096" lon="1.6138547"><ele>702.5</ele><time>2026-04-25T09:33:42.095Z</time></trkpt><trkpt lat="41.8245073" lon="1.613931"><ele>701.25</ele><time>2026-04-25T09:33:43.094Z</time></trkpt><trkpt lat="41.8246142" lon="1.6140769"><ele>700.0</ele><time>2026-04-25T09:33:44.093Z</time></trkpt><trkpt lat="41.824743" lon="1.6142771"><ele>700.5</ele><time>2026-04-25T09:33:45.095Z</time></trkpt><trkpt lat="41.8248871" lon="1.6145154"><ele>701.0</ele><time>2026-04-25T09:33:46.094Z</time></trkpt><trkpt lat="41.8250325" lon="1.6147822"><ele>697.5</ele><time>2026-04-25T09:33:47.094Z</time></trkpt><trkpt lat="41.8251701" lon="1.6150732"><ele>694.0</ele><time>2026-04-25T09:33:48.094Z</time></trkpt><trkpt lat="41.8252842" lon="1.6153512"><ele>694.0</ele><time>2026-04-25T09:33:49.095Z</time></trkpt><trkpt lat="41.8253816" lon="1.6156099"><ele>694.0</ele><time>2026-04-25T09:33:50.094Z</time></trkpt><trkpt lat="41.8254644" lon="1.6158283"><ele>694.0</ele><time>2026-04-25T09:33:51.094Z</time></trkpt><trkpt lat="41.8255424" lon="1.6160148"><ele>694.25</ele><time>2026-04-25T09:33:52.094Z</time></trkpt><trkpt lat="41.8256219" lon="1.6161689"><ele>694.5</ele><time>2026-04-25T09:33:53.094Z</time></trkpt><trkpt lat="41.8257288" lon="1.6162852"><ele>694.75</ele><time>2026-04-25T09:33:54.094Z</time></trkpt><trkpt lat="41.8258641" lon="1.6163985"><ele>695.0</ele><time>2026-04-25T09:33:55.094Z</time></trkpt><trkpt lat="41.8259872" lon="1.6164849"><ele>694.5</ele><time>2026-04-25T09:33:56.094Z</time></trkpt><trkpt lat="41.8261027" lon="1.6165313"><ele>694.0</ele><time>2026-04-25T09:33:57.094Z</time></trkpt><trkpt lat="41.8262357" lon="1.6165263"><ele>693.5</ele><time>2026-04-25T09:33:58.094Z</time></trkpt><trkpt lat="41.8263819" lon="1.6164973"><ele>693.0</ele><time>2026-04-25T09:33:59.093Z</time></trkpt><trkpt lat="41.8265097" lon="1.6164774"><ele>693.0</ele><time>2026-04-25T09:34:00.094Z</time></trkpt><trkpt lat="41.826616" lon="1.6164334"><ele>693.0</ele><time>2026-04-25T09:34:01.094Z</time></trkpt><trkpt lat="41.8267075" lon="1.6163289"><ele>693.0</ele><time>2026-04-25T09:34:02.094Z</time></trkpt><trkpt lat="41.8268047" lon="1.6161851"><ele>693.0</ele><time>2026-04-25T09:34:03.094Z</time></trkpt><trkpt lat="41.8268995" lon="1.6160684"><ele>687.25</ele><time>2026-04-25T09:34:04.094Z</time></trkpt><trkpt lat="41.827002" lon="1.6159966"><ele>681.5</ele><time>2026-04-25T09:34:05.095Z</time></trkpt><trkpt lat="41.8271175" lon="1.6159626"><ele>675.75</ele><time>2026-04-25T09:34:06.094Z</time></trkpt><trkpt lat="41.8272418" lon="1.6159777"><ele>670.0</ele><time>2026-04-25T09:34:07.094Z</time></trkpt><trkpt lat="41.827353" lon="1.6160245"><ele>670.0</ele><time>2026-04-25T09:34:08.093Z</time></trkpt><trkpt lat="41.8274641" lon="1.6161198"><ele>670.0</ele><time>2026-04-25T09:34:09.094Z</time></trkpt><trkpt lat="41.8275694" lon="1.6162412"><ele>670.0</ele><time>2026-04-25T09:34:10.094Z</time></trkpt><trkpt lat="41.8276742" lon="1.6163125"><ele>670.0</ele><time>2026-04-25T09:34:11.094Z</time></trkpt><trkpt lat="41.8278167" lon="1.6163381"><ele>669.75</ele><time>2026-04-25T09:34:12.093Z</time></trkpt><trkpt lat="41.8279631" lon="1.6163601"><ele>669.5</ele><time>2026-04-25T09:34:13.094Z</time></trkpt><trkpt lat="41.8280909" lon="1.6164143"><ele>669.25</ele><time>2026-04-25T09:34:14.094Z</time></trkpt><trkpt lat="41.8282229" lon="1.6165086"><ele>669.0</ele><time>2026-04-25T09:34:15.093Z</time></trkpt><trkpt lat="41.8283725" lon="1.616623"><ele>665.75</ele><time>2026-04-25T09:34:16.093Z</time></trkpt><trkpt lat="41.8285214" lon="1.6166944"><ele>662.5</ele><time>2026-04-25T09:34:17.094Z</time></trkpt><trkpt lat="41.8286499" lon="1.6167423"><ele>659.25</ele><time>2026-04-25T09:34:18.093Z</time></trkpt><trkpt lat="41.8287633" lon="1.6167477"><ele>656.0</ele><time>2026-04-25T09:34:19.093Z</time></trkpt><trkpt lat="41.8288698" lon="1.6166908"><ele>656.0</ele><time>2026-04-25T09:34:20.093Z</time></trkpt><trkpt lat="41.8289706" lon="1.6165656"><ele>656.0</ele><time>2026-04-25T09:34:21.094Z</time></trkpt><trkpt lat="41.8290735" lon="1.6163952"><ele>656.0</ele><time>2026-04-25T09:34:22.095Z</time></trkpt><trkpt lat="41.8292051" lon="1.6162125"><ele>650.0</ele><time>2026-04-25T09:34:23.095Z</time></trkpt><trkpt lat="41.8293276" lon="1.6160375"><ele>644.0</ele><time>2026-04-25T09:34:24.094Z</time></trkpt><trkpt lat="41.8294207" lon="1.6158666"><ele>638.0</ele><time>2026-04-25T09:34:25.094Z</time></trkpt><trkpt lat="41.8295091" lon="1.6157219"><ele>638.0</ele><time>2026-04-25T09:34:26.093Z</time></trkpt><trkpt lat="41.8296082" lon="1.6156223"><ele>638.0</ele><time>2026-04-25T09:34:27.095Z</time></trkpt><trkpt lat="41.8297221" lon="1.6155698"><ele>638.0</ele><time>2026-04-25T09:34:28.093Z</time></trkpt><trkpt lat="41.8298713" lon="1.6155493"><ele>638.0</ele><time>2026-04-25T09:34:29.094Z</time></trkpt><trkpt lat="41.8300127" lon="1.6155764"><ele>638.0</ele><time>2026-04-25T09:34:30.094Z</time></trkpt><trkpt lat="41.8301359" lon="1.6156496"><ele>638.0</ele><time>2026-04-25T09:34:31.094Z</time></trkpt><trkpt lat="41.8302558" lon="1.6157739"><ele>638.0</ele><time>2026-04-25T09:34:32.094Z</time></trkpt><trkpt lat="41.8303612" lon="1.6159343"><ele>638.0</ele><time>2026-04-25T09:34:33.093Z</time></trkpt><trkpt lat="41.8304497" lon="1.6161077"><ele>633.25</ele><time>2026-04-25T09:34:34.094Z</time></trkpt><trkpt lat="41.8305294" lon="1.6162599"><ele>628.5</ele><time>2026-04-25T09:34:35.094Z</time></trkpt><trkpt lat="41.8306188" lon="1.6163776"><ele>623.75</ele><time>2026-04-25T09:34:36.093Z</time></trkpt><trkpt lat="41.8307415" lon="1.6164531"><ele>619.0</ele><time>2026-04-25T09:34:37.093Z</time></trkpt><trkpt lat="41.8309007" lon="1.6165202"><ele>615.6666666666667</ele><time>2026-04-25T09:34:38.094Z</time></trkpt><trkpt lat="41.8310733" lon="1.6166122"><ele>612.3333333333334</ele><time>2026-04-25T09:34:39.093Z</time></trkpt><trkpt lat="41.8312478" lon="1.6167556"><ele>609.0</ele><time>2026-04-25T09:34:40.095Z</time></trkpt><trkpt lat="41.8314275" lon="1.6169212"><ele>608.3333333333334</ele><time>2026-04-25T09:34:41.094Z</time></trkpt><trkpt lat="41.8315933" lon="1.6170807"><ele>607.6666666666667</ele><time>2026-04-25T09:34:42.094Z</time></trkpt><trkpt lat="41.831741" lon="1.617231"><ele>607.0</ele><time>2026-04-25T09:34:43.094Z</time></trkpt><trkpt lat="41.831874" lon="1.6173555"><ele>607.0</ele><time>2026-04-25T09:34:44.094Z</time></trkpt><trkpt lat="41.8320232" lon="1.6174279"><ele>607.0</ele><time>2026-04-25T09:34:45.094Z</time></trkpt><trkpt lat="41.8321986" lon="1.6174645"><ele>607.0</ele><time>2026-04-25T09:34:46.094Z</time></trkpt><trkpt lat="41.8323848" lon="1.6174859"><ele>607.0</ele><time>2026-04-25T09:34:47.093Z</time></trkpt><trkpt lat="41.8325621" lon="1.6174798"><ele>607.0</ele><time>2026-04-25T09:34:48.094Z</time></trkpt><trkpt lat="41.832769" lon="1.6174621"><ele>607.0</ele><time>2026-04-25T09:34:49.094Z</time></trkpt><trkpt lat="41.8329671" lon="1.6174569"><ele>605.75</ele><time>2026-04-25T09:34:50.094Z</time></trkpt><trkpt lat="41.8331289" lon="1.6174623"><ele>604.5</ele><time>2026-04-25T09:34:51.094Z</time></trkpt><trkpt lat="41.8332698" lon="1.6174965"><ele>603.25</ele><time>2026-04-25T09:34:52.094Z</time></trkpt><trkpt lat="41.8333959" lon="1.6175886"><ele>602.0</ele><time>2026-04-25T09:34:53.094Z</time></trkpt><trkpt lat="41.8335486" lon="1.6177132"><ele>600.0</ele><time>2026-04-25T09:34:54.093Z</time></trkpt><trkpt lat="41.8337293" lon="1.6178573"><ele>598.0</ele><time>2026-04-25T09:34:55.094Z</time></trkpt><trkpt lat="41.8339384" lon="1.6180129"><ele>596.0</ele><time>2026-04-25T09:34:56.093Z</time></trkpt><trkpt lat="41.8341563" lon="1.6181794"><ele>594.0</ele><time>2026-04-25T09:34:57.093Z</time></trkpt><trkpt lat="41.8343559" lon="1.6183354"><ele>592.0</ele><time>2026-04-25T09:34:58.094Z</time></trkpt><trkpt lat="41.8345565" lon="1.6184822"><ele>592.0</ele><time>2026-04-25T09:34:59.094Z</time></trkpt><trkpt lat="41.834771" lon="1.6186015"><ele>592.0</ele><time>2026-04-25T09:35:00.093Z</time></trkpt><trkpt lat="41.8349933" lon="1.6186966"><ele>591.6666666666667</ele><time>2026-04-25T09:35:01.094Z</time></trkpt><trkpt lat="41.8351988" lon="1.6187898"><ele>591.3333333333334</ele><time>2026-04-25T09:35:02.093Z</time></trkpt><trkpt lat="41.8353892" lon="1.6188828"><ele>591.0</ele><time>2026-04-25T09:35:03.094Z</time></trkpt><trkpt lat="41.8355571" lon="1.6189908"><ele>591.0</ele><time>2026-04-25T09:35:04.094Z</time></trkpt><trkpt lat="41.8357072" lon="1.6191266"><ele>591.0</ele><time>2026-04-25T09:35:05.094Z</time></trkpt><trkpt lat="41.8358569" lon="1.6193041"><ele>591.0</ele><time>2026-04-25T09:35:06.095Z</time></trkpt><trkpt lat="41.8360204" lon="1.6194971"><ele>591.5</ele><time>2026-04-25T09:35:07.093Z</time></trkpt><trkpt lat="41.8362003" lon="1.6196958"><ele>592.0</ele><time>2026-04-25T09:35:08.095Z</time></trkpt><trkpt lat="41.8363828" lon="1.6198862"><ele>592.0</ele><time>2026-04-25T09:35:09.094Z</time></trkpt><trkpt lat="41.836536" lon="1.620052"><ele>592.0</ele><time>2026-04-25T09:35:10.095Z</time></trkpt><trkpt lat="41.8366572" lon="1.6202002"><ele>592.0</ele><time>2026-04-25T09:35:11.095Z</time></trkpt><trkpt lat="41.8367344" lon="1.6203553"><ele>593.0</ele><time>2026-04-25T09:35:12.093Z</time></trkpt><trkpt lat="41.8367882" lon="1.6205427"><ele>594.0</ele><time>2026-04-25T09:35:13.095Z</time></trkpt><trkpt lat="41.836839" lon="1.6207733"><ele>595.0</ele><time>2026-04-25T09:35:14.094Z</time></trkpt><trkpt lat="41.8368841" lon="1.6210228"><ele>593.0</ele><time>2026-04-25T09:35:15.094Z</time></trkpt><trkpt lat="41.8369084" lon="1.6212538"><ele>591.0</ele><time>2026-04-25T09:35:16.094Z</time></trkpt><trkpt lat="41.8369322" lon="1.6214462"><ele>589.0</ele><time>2026-04-25T09:35:17.094Z</time></trkpt><trkpt lat="41.8369758" lon="1.6216236"><ele>589.0</ele><time>2026-04-25T09:35:18.094Z</time></trkpt><trkpt lat="41.8370657" lon="1.6218132"><ele>589.0</ele><time>2026-04-25T09:35:19.094Z</time></trkpt><trkpt lat="41.8371871" lon="1.622003"><ele>589.0</ele><time>2026-04-25T09:35:20.094Z</time></trkpt><trkpt lat="41.8373288" lon="1.6222053"><ele>584.5</ele><time>2026-04-25T09:35:21.094Z</time></trkpt><trkpt lat="41.8374837" lon="1.6224316"><ele>580.0</ele><time>2026-04-25T09:35:22.093Z</time></trkpt><trkpt lat="41.8376457" lon="1.6226696"><ele>574.0</ele><time>2026-04-25T09:35:23.093Z</time></trkpt><trkpt lat="41.8378203" lon="1.6229164"><ele>568.0</ele><time>2026-04-25T09:35:24.094Z</time></trkpt><trkpt lat="41.8380024" lon="1.6231844"><ele>568.0</ele><time>2026-04-25T09:35:25.093Z</time></trkpt><trkpt lat="41.8381804" lon="1.6234284"><ele>568.0</ele><time>2026-04-25T09:35:26.094Z</time></trkpt><trkpt lat="41.8383439" lon="1.6236496"><ele>564.3333333333334</ele><time>2026-04-25T09:35:27.094Z</time></trkpt><trkpt lat="41.8384806" lon="1.6238553"><ele>560.6666666666666</ele><time>2026-04-25T09:35:28.095Z</time></trkpt><trkpt lat="41.8386043" lon="1.6240374"><ele>557.0</ele><time>2026-04-25T09:35:29.093Z</time></trkpt><trkpt lat="41.8387313" lon="1.6241943"><ele>557.0</ele><time>2026-04-25T09:35:30.095Z</time></trkpt><trkpt lat="41.8388415" lon="1.6243536"><ele>557.0</ele><time>2026-04-25T09:35:31.094Z</time></trkpt><trkpt lat="41.8389366" lon="1.6245363"><ele>557.0</ele><time>2026-04-25T09:35:32.093Z</time></trkpt><trkpt lat="41.8390186" lon="1.6247421"><ele>557.3333333333333</ele><time>2026-04-25T09:35:33.093Z</time></trkpt><trkpt lat="41.8390781" lon="1.6249719"><ele>557.6666666666666</ele><time>2026-04-25T09:35:34.093Z</time></trkpt><trkpt lat="41.8391217" lon="1.6251921"><ele>558.0</ele><time>2026-04-25T09:35:35.093Z</time></trkpt><trkpt lat="41.8391781" lon="1.6253843"><ele>556.5</ele><time>2026-04-25T09:35:36.094Z</time></trkpt><trkpt lat="41.8392467" lon="1.6255576"><ele>555.0</ele><time>2026-04-25T09:35:37.094Z</time></trkpt><trkpt lat="41.8393272" lon="1.6257266"><ele>553.5</ele><time>2026-04-25T09:35:38.094Z</time></trkpt><trkpt lat="41.8393959" lon="1.625872"><ele>552.0</ele><time>2026-04-25T09:35:39.093Z</time></trkpt><trkpt lat="41.8394303" lon="1.6260171"><ele>552.0</ele><time>2026-04-25T09:35:40.094Z</time></trkpt><trkpt lat="41.8394169" lon="1.6261518"><ele>552.0</ele><time>2026-04-25T09:35:41.094Z</time></trkpt><trkpt lat="41.8393582" lon="1.6262681"><ele>552.0</ele><time>2026-04-25T09:35:42.094Z</time></trkpt><trkpt lat="41.8392681" lon="1.6263926"><ele>552.0</ele><time>2026-04-25T09:35:43.094Z</time></trkpt><trkpt lat="41.8391776" lon="1.6265071"><ele>551.0</ele><time>2026-04-25T09:35:44.094Z</time></trkpt><trkpt lat="41.8391123" lon="1.6266336"><ele>550.0</ele><time>2026-04-25T09:35:45.094Z</time></trkpt><trkpt lat="41.8390814" lon="1.6267857"><ele>549.0</ele><time>2026-04-25T09:35:46.094Z</time></trkpt><trkpt lat="41.8390838" lon="1.6269523"><ele>548.0</ele><time>2026-04-25T09:35:47.094Z</time></trkpt><trkpt lat="41.8391083" lon="1.6271121"><ele>548.75</ele><time>2026-04-25T09:35:48.093Z</time></trkpt><trkpt lat="41.8391511" lon="1.627241"><ele>549.5</ele><time>2026-04-25T09:35:49.094Z</time></trkpt><trkpt lat="41.8392307" lon="1.6273412"><ele>550.25</ele><time>2026-04-25T09:35:50.094Z</time></trkpt><trkpt lat="41.8393308" lon="1.627432"><ele>551.0</ele><time>2026-04-25T09:35:51.094Z</time></trkpt><trkpt lat="41.83942" lon="1.6275468"><ele>551.0</ele><time>2026-04-25T09:35:52.093Z</time></trkpt><trkpt lat="41.8395142" lon="1.6277222"><ele>551.0</ele><time>2026-04-25T09:35:53.094Z</time></trkpt><trkpt lat="41.8396185" lon="1.6279435"><ele>551.0</ele><time>2026-04-25T09:35:54.094Z</time></trkpt><trkpt lat="41.8397118" lon="1.6281376"><ele>546.3333333333333</ele><time>2026-04-25T09:35:55.093Z</time></trkpt><trkpt lat="41.8397984" lon="1.6282972"><ele>541.6666666666666</ele><time>2026-04-25T09:35:56.093Z</time></trkpt><trkpt lat="41.8399272" lon="1.6284377"><ele>537.0</ele><time>2026-04-25T09:35:57.095Z</time></trkpt><trkpt lat="41.8400515" lon="1.6285758"><ele>534.6666666666666</ele><time>2026-04-25T09:35:58.094Z</time></trkpt><trkpt lat="41.8401419" lon="1.6287363"><ele>532.3333333333333</ele><time>2026-04-25T09:35:59.095Z</time></trkpt><trkpt lat="41.8402439" lon="1.6288904"><ele>530.0</ele><time>2026-04-25T09:36:00.094Z</time></trkpt><trkpt lat="41.8403791" lon="1.6290307"><ele>530.0</ele><time>2026-04-25T09:36:01.094Z</time></trkpt><trkpt lat="41.840508" lon="1.6291532"><ele>530.0</ele><time>2026-04-25T09:36:02.093Z</time></trkpt><trkpt lat="41.8406559" lon="1.629252"><ele>530.0</ele><time>2026-04-25T09:36:03.095Z</time></trkpt><trkpt lat="41.8408088" lon="1.6293342"><ele>530.0</ele><time>2026-04-25T09:36:04.094Z</time></trkpt><trkpt lat="41.8409527" lon="1.6293948"><ele>530.0</ele><time>2026-04-25T09:36:05.094Z</time></trkpt><trkpt lat="41.8411213" lon="1.6294083"><ele>530.0</ele><time>2026-04-25T09:36:06.094Z</time></trkpt><trkpt lat="41.8413126" lon="1.6294101"><ele>527.6666666666666</ele><time>2026-04-25T09:36:07.093Z</time></trkpt><trkpt lat="41.8415167" lon="1.6294518"><ele>525.3333333333334</ele><time>2026-04-25T09:36:08.093Z</time></trkpt><trkpt lat="41.8417287" lon="1.6295251"><ele>523.0</ele><time>2026-04-25T09:36:09.094Z</time></trkpt><trkpt lat="41.841907" lon="1.6295859"><ele>517.75</ele><time>2026-04-25T09:36:10.093Z</time></trkpt><trkpt lat="41.8420607" lon="1.6296294"><ele>512.5</ele><time>2026-04-25T09:36:11.095Z</time></trkpt><trkpt lat="41.8422133" lon="1.6296437"><ele>507.25</ele><time>2026-04-25T09:36:12.093Z</time></trkpt><trkpt lat="41.8423519" lon="1.6296388"><ele>502.0</ele><time>2026-04-25T09:36:13.094Z</time></trkpt><trkpt lat="41.8424776" lon="1.6296605"><ele>502.0</ele><time>2026-04-25T09:36:14.094Z</time></trkpt><trkpt lat="41.8426016" lon="1.6297053"><ele>502.0</ele><time>2026-04-25T09:36:15.094Z</time></trkpt><trkpt lat="41.8427251" lon="1.6298018"><ele>502.0</ele><time>2026-04-25T09:36:16.094Z</time></trkpt><trkpt lat="41.8428609" lon="1.6299437"><ele>502.0</ele><time>2026-04-25T09:36:17.094Z</time></trkpt><trkpt lat="41.8430115" lon="1.6300919"><ele>499.0</ele><time>2026-04-25T09:36:18.093Z</time></trkpt><trkpt lat="41.8431483" lon="1.6302139"><ele>496.0</ele><time>2026-04-25T09:36:19.093Z</time></trkpt><trkpt lat="41.8432702" lon="1.6303458"><ele>493.0</ele><time>2026-04-25T09:36:20.093Z</time></trkpt><trkpt lat="41.8433625" lon="1.6304829"><ele>493.0</ele><time>2026-04-25T09:36:21.094Z</time></trkpt><trkpt lat="41.843433" lon="1.6306187"><ele>492.99999999999994</ele><time>2026-04-25T09:36:22.094Z</time></trkpt><trkpt lat="41.8434852" lon="1.6307424"><ele>492.99999999999994</ele><time>2026-04-25T09:36:23.094Z</time></trkpt><trkpt lat="41.8435235" lon="1.630835"><ele>493.0</ele><time>2026-04-25T09:36:24.093Z</time></trkpt><trkpt lat="41.8435744" lon="1.6309132"><ele>493.0</ele><time>2026-04-25T09:36:26.093Z</time></trkpt><trkpt lat="41.8436383" lon="1.630905"><ele>492.1666666666667</ele><time>2026-04-25T09:36:28.094Z</time></trkpt><trkpt lat="41.8437364" lon="1.6308253"><ele>491.33333333333337</ele><time>2026-04-25T09:36:30.093Z</time></trkpt><trkpt lat="41.8438083" lon="1.630799"><ele>490.5</ele><time>2026-04-25T09:36:31.093Z</time></trkpt><trkpt lat="41.8438825" lon="1.6307722"><ele>489.66666666666663</ele><time>2026-04-25T09:36:32.094Z</time></trkpt><trkpt lat="41.8439496" lon="1.6307455"><ele>488.8333333333333</ele><time>2026-04-25T09:36:33.094Z</time></trkpt><trkpt lat="41.8440499" lon="1.6307296"><ele>488.0</ele><time>2026-04-25T09:36:35.094Z</time></trkpt><trkpt lat="41.8441176" lon="1.6307417"><ele>488.0</ele><time>2026-04-25T09:36:37.094Z</time></trkpt><trkpt lat="41.8441299" lon="1.6306451"><ele>487.99999999999994</ele><time>2026-04-25T09:36:41.093Z</time></trkpt><trkpt lat="41.8440906" lon="1.6305505"><ele>487.99999999999994</ele><time>2026-04-25T09:38:24.093Z</time></trkpt><trkpt lat="41.8440403" lon="1.6304001"><ele>488.0</ele><time>2026-04-25T09:38:26.095Z</time></trkpt><trkpt lat="41.8439996" lon="1.6302994"><ele>488.0</ele><time>2026-04-25T09:38:27.094Z</time></trkpt><trkpt lat="41.8439586" lon="1.6301879"><ele>490.0</ele><time>2026-04-25T09:38:28.094Z</time></trkpt><trkpt lat="41.8439109" lon="1.6300548"><ele>492.0</ele><time>2026-04-25T09:38:29.093Z</time></trkpt><trkpt lat="41.8438573" lon="1.6299022"><ele>494.0</ele><time>2026-04-25T09:38:30.095Z</time></trkpt><trkpt lat="41.8437993" lon="1.6297338"><ele>496.0</ele><time>2026-04-25T09:38:31.095Z</time></trkpt><trkpt lat="41.8437379" lon="1.6295608"><ele>499.0</ele><time>2026-04-25T09:38:32.094Z</time></trkpt><trkpt lat="41.8436654" lon="1.6293752"><ele>502.0</ele><time>2026-04-25T09:38:33.095Z</time></trkpt><trkpt lat="41.8435726" lon="1.6291956"><ele>505.0</ele><time>2026-04-25T09:38:34.094Z</time></trkpt><trkpt lat="41.8434659" lon="1.6290232"><ele>502.0</ele><time>2026-04-25T09:38:35.093Z</time></trkpt><trkpt lat="41.843358" lon="1.6288462"><ele>499.0</ele><time>2026-04-25T09:38:36.094Z</time></trkpt><trkpt lat="41.8432549" lon="1.6286567"><ele>496.0</ele><time>2026-04-25T09:38:37.094Z</time></trkpt><trkpt lat="41.843163" lon="1.6284461"><ele>496.0</ele><time>2026-04-25T09:38:38.094Z</time></trkpt><trkpt lat="41.8430797" lon="1.6282156"><ele>496.0</ele><time>2026-04-25T09:38:39.094Z</time></trkpt><trkpt lat="41.8429919" lon="1.6279773"><ele>496.0</ele><time>2026-04-25T09:38:40.094Z</time></trkpt><trkpt lat="41.8428929" lon="1.6277309"><ele>499.0</ele><time>2026-04-25T09:38:41.094Z</time></trkpt><trkpt lat="41.8427768" lon="1.6274781"><ele>502.0</ele><time>2026-04-25T09:38:42.094Z</time></trkpt><trkpt lat="41.8426512" lon="1.6272177"><ele>501.5</ele><time>2026-04-25T09:38:43.095Z</time></trkpt><trkpt lat="41.8425234" lon="1.626948"><ele>501.0</ele><time>2026-04-25T09:38:44.093Z</time></trkpt><trkpt lat="41.8423986" lon="1.6266644"><ele>501.0</ele><time>2026-04-25T09:38:45.094Z</time></trkpt><trkpt lat="41.8422755" lon="1.6263596"><ele>501.0</ele><time>2026-04-25T09:38:46.094Z</time></trkpt><trkpt lat="41.8421661" lon="1.6260358"><ele>506.5</ele><time>2026-04-25T09:38:47.093Z</time></trkpt><trkpt lat="41.8420719" lon="1.6257238"><ele>512.0</ele><time>2026-04-25T09:38:48.094Z</time></trkpt><trkpt lat="41.8419849" lon="1.6254245"><ele>516.0</ele><time>2026-04-25T09:38:49.095Z</time></trkpt><trkpt lat="41.8418855" lon="1.6251344"><ele>520.0</ele><time>2026-04-25T09:38:50.093Z</time></trkpt><trkpt lat="41.8417445" lon="1.6248464"><ele>513.0</ele><time>2026-04-25T09:38:51.094Z</time></trkpt><trkpt lat="41.8415801" lon="1.6245483"><ele>506.0</ele><time>2026-04-25T09:38:52.094Z</time></trkpt><trkpt lat="41.8414171" lon="1.6242654"><ele>506.0</ele><time>2026-04-25T09:38:53.094Z</time></trkpt><trkpt lat="41.8412643" lon="1.6240085"><ele>506.0</ele><time>2026-04-25T09:38:54.094Z</time></trkpt><trkpt lat="41.8411364" lon="1.6237607"><ele>509.0</ele><time>2026-04-25T09:38:55.093Z</time></trkpt><trkpt lat="41.8410412" lon="1.6234703"><ele>512.0</ele><time>2026-04-25T09:38:56.095Z</time></trkpt><trkpt lat="41.8409812" lon="1.6231419"><ele>506.5</ele><time>2026-04-25T09:38:57.094Z</time></trkpt><trkpt lat="41.840939" lon="1.6228291"><ele>501.0</ele><time>2026-04-25T09:38:58.094Z</time></trkpt><trkpt lat="41.8409087" lon="1.6225429"><ele>501.0</ele><time>2026-04-25T09:38:59.093Z</time></trkpt><trkpt lat="41.8409203" lon="1.6222597"><ele>501.0</ele><time>2026-04-25T09:39:00.093Z</time></trkpt><trkpt lat="41.8409822" lon="1.6219793"><ele>501.0</ele><time>2026-04-25T09:39:01.093Z</time></trkpt><trkpt lat="41.8411014" lon="1.6217014"><ele>503.5</ele><time>2026-04-25T09:39:02.094Z</time></trkpt><trkpt lat="41.8412595" lon="1.6214095"><ele>506.0</ele><time>2026-04-25T09:39:03.093Z</time></trkpt><trkpt lat="41.8414157" lon="1.6211302"><ele>506.0</ele><time>2026-04-25T09:39:04.093Z</time></trkpt><trkpt lat="41.8415361" lon="1.6208723"><ele>506.0</ele><time>2026-04-25T09:39:05.094Z</time></trkpt><trkpt lat="41.8416135" lon="1.6206064"><ele>506.0</ele><time>2026-04-25T09:39:06.094Z</time></trkpt><trkpt lat="41.8416352" lon="1.6203017"><ele>508.0</ele><time>2026-04-25T09:39:07.094Z</time></trkpt><trkpt lat="41.8416353" lon="1.6199555"><ele>510.0</ele><time>2026-04-25T09:39:08.094Z</time></trkpt><trkpt lat="41.8416331" lon="1.6195949"><ele>511.0</ele><time>2026-04-25T09:39:09.093Z</time></trkpt><trkpt lat="41.8416162" lon="1.6192381"><ele>512.0</ele><time>2026-04-25T09:39:10.094Z</time></trkpt><trkpt lat="41.841585" lon="1.61892"><ele>512.6666666666666</ele><time>2026-04-25T09:39:11.095Z</time></trkpt><trkpt lat="41.8415544" lon="1.6186251"><ele>513.3333333333334</ele><time>2026-04-25T09:39:12.094Z</time></trkpt><trkpt lat="41.8414853" lon="1.6183492"><ele>514.0</ele><time>2026-04-25T09:39:13.094Z</time></trkpt><trkpt lat="41.8413605" lon="1.6180903"><ele>515.5</ele><time>2026-04-25T09:39:14.094Z</time></trkpt><trkpt lat="41.8411889" lon="1.617818"><ele>517.0</ele><time>2026-04-25T09:39:15.093Z</time></trkpt><trkpt lat="41.8410046" lon="1.6175056"><ele>513.5</ele><time>2026-04-25T09:39:16.094Z</time></trkpt><trkpt lat="41.8408366" lon="1.6171788"><ele>510.0</ele><time>2026-04-25T09:39:17.095Z</time></trkpt><trkpt lat="41.8406654" lon="1.6169068"><ele>510.0</ele><time>2026-04-25T09:39:18.095Z</time></trkpt><trkpt lat="41.8405029" lon="1.6166712"><ele>510.0</ele><time>2026-04-25T09:39:19.095Z</time></trkpt><trkpt lat="41.8403784" lon="1.6164265"><ele>510.0</ele><time>2026-04-25T09:39:20.094Z</time></trkpt><trkpt lat="41.8403008" lon="1.6161649"><ele>510.0</ele><time>2026-04-25T09:39:21.093Z</time></trkpt><trkpt lat="41.8402701" lon="1.6158625"><ele>510.0</ele><time>2026-04-25T09:39:22.094Z</time></trkpt><trkpt lat="41.8402626" lon="1.6155264"><ele>510.0</ele><time>2026-04-25T09:39:23.093Z</time></trkpt><trkpt lat="41.8402421" lon="1.615232"><ele>510.0</ele><time>2026-04-25T09:39:24.094Z</time></trkpt><trkpt lat="41.840169" lon="1.6149607"><ele>510.0</ele><time>2026-04-25T09:39:25.094Z</time></trkpt><trkpt lat="41.8400378" lon="1.6147078"><ele>511.0</ele><time>2026-04-25T09:39:26.093Z</time></trkpt><trkpt lat="41.8398658" lon="1.6144606"><ele>512.0</ele><time>2026-04-25T09:39:27.093Z</time></trkpt><trkpt lat="41.8396425" lon="1.6142108"><ele>512.0</ele><time>2026-04-25T09:39:28.093Z</time></trkpt><trkpt lat="41.8394751" lon="1.6139851"><ele>512.0</ele><time>2026-04-25T09:39:29.093Z</time></trkpt><trkpt lat="41.8393391" lon="1.6137173"><ele>512.5</ele><time>2026-04-25T09:39:30.094Z</time></trkpt><trkpt lat="41.8392018" lon="1.6134459"><ele>513.0</ele><time>2026-04-25T09:39:31.094Z</time></trkpt><trkpt lat="41.8391743" lon="1.6130344"><ele>516.0</ele><time>2026-04-25T09:39:32.094Z</time></trkpt><trkpt lat="41.8391301" lon="1.6126567"><ele>519.0</ele><time>2026-04-25T09:39:33.094Z</time></trkpt><trkpt lat="41.8390484" lon="1.6123138"><ele>523.5</ele><time>2026-04-25T09:39:34.093Z</time></trkpt><trkpt lat="41.8389267" lon="1.6119717"><ele>528.0</ele><time>2026-04-25T09:39:35.093Z</time></trkpt><trkpt lat="41.8387861" lon="1.611639"><ele>528.0</ele><time>2026-04-25T09:39:36.093Z</time></trkpt><trkpt lat="41.8386704" lon="1.6113469"><ele>528.0</ele><time>2026-04-25T09:39:37.093Z</time></trkpt><trkpt lat="41.838567" lon="1.611"><ele>527.5</ele><time>2026-04-25T09:39:38.094Z</time></trkpt><trkpt lat="41.8384672" lon="1.6106058"><ele>527.0</ele><time>2026-04-25T09:39:39.094Z</time></trkpt><trkpt lat="41.8383659" lon="1.6101864"><ele>530.0</ele><time>2026-04-25T09:39:40.094Z</time></trkpt><trkpt lat="41.838263" lon="1.6097671"><ele>533.0</ele><time>2026-04-25T09:39:41.094Z</time></trkpt><trkpt lat="41.8381714" lon="1.6093975"><ele>535.5</ele><time>2026-04-25T09:39:42.094Z</time></trkpt><trkpt lat="41.8380859" lon="1.6090377"><ele>538.0</ele><time>2026-04-25T09:39:43.093Z</time></trkpt><trkpt lat="41.838004" lon="1.6086657"><ele>540.0</ele><time>2026-04-25T09:39:44.094Z</time></trkpt><trkpt lat="41.8379412" lon="1.6083248"><ele>542.0</ele><time>2026-04-25T09:39:45.094Z</time></trkpt><trkpt lat="41.837875" lon="1.6079866"><ele>543.0</ele><time>2026-04-25T09:39:46.094Z</time></trkpt><trkpt lat="41.8377953" lon="1.6076582"><ele>544.0</ele><time>2026-04-25T09:39:47.094Z</time></trkpt><trkpt lat="41.8376788" lon="1.6073689"><ele>542.5</ele><time>2026-04-25T09:39:48.094Z</time></trkpt><trkpt lat="41.8375246" lon="1.6071149"><ele>541.0</ele><time>2026-04-25T09:39:49.094Z</time></trkpt><trkpt lat="41.8373361" lon="1.6069178"><ele>541.0</ele><time>2026-04-25T09:39:50.094Z</time></trkpt><trkpt lat="41.8371153" lon="1.6067373"><ele>541.0</ele><time>2026-04-25T09:39:51.094Z</time></trkpt><trkpt lat="41.8369145" lon="1.6065513"><ele>537.3333333333334</ele><time>2026-04-25T09:39:52.094Z</time></trkpt><trkpt lat="41.8367369" lon="1.6063853"><ele>533.6666666666666</ele><time>2026-04-25T09:39:53.094Z</time></trkpt><trkpt lat="41.8365412" lon="1.6062851"><ele>530.0</ele><time>2026-04-25T09:39:54.093Z</time></trkpt><trkpt lat="41.8363239" lon="1.6062134"><ele>530.0</ele><time>2026-04-25T09:39:55.094Z</time></trkpt><trkpt lat="41.8361254" lon="1.6061779"><ele>530.0</ele><time>2026-04-25T09:39:56.093Z</time></trkpt><trkpt lat="41.8359516" lon="1.6061"><ele>530.0</ele><time>2026-04-25T09:39:57.094Z</time></trkpt><trkpt lat="41.8358008" lon="1.6059652"><ele>530.5</ele><time>2026-04-25T09:39:58.094Z</time></trkpt><trkpt lat="41.8356476" lon="1.6057581"><ele>531.0</ele><time>2026-04-25T09:39:59.094Z</time></trkpt><trkpt lat="41.8354803" lon="1.6054906"><ele>532.5</ele><time>2026-04-25T09:40:00.093Z</time></trkpt><trkpt lat="41.8352926" lon="1.6051909"><ele>534.0</ele><time>2026-04-25T09:40:01.095Z</time></trkpt><trkpt lat="41.8351089" lon="1.6049132"><ele>532.6666666666666</ele><time>2026-04-25T09:40:02.095Z</time></trkpt><trkpt lat="41.8349526" lon="1.6046894"><ele>531.3333333333333</ele><time>2026-04-25T09:40:03.093Z</time></trkpt><trkpt lat="41.8348302" lon="1.6044935"><ele>530.0</ele><time>2026-04-25T09:40:04.094Z</time></trkpt><trkpt lat="41.8347546" lon="1.604307"><ele>530.0</ele><time>2026-04-25T09:40:05.094Z</time></trkpt><trkpt lat="41.8347432" lon="1.6041116"><ele>530.0</ele><time>2026-04-25T09:40:06.094Z</time></trkpt><trkpt lat="41.8347726" lon="1.6038626"><ele>530.0</ele><time>2026-04-25T09:40:07.094Z</time></trkpt><trkpt lat="41.8348051" lon="1.6035695"><ele>531.5</ele><time>2026-04-25T09:40:08.093Z</time></trkpt><trkpt lat="41.8348004" lon="1.603259"><ele>533.0</ele><time>2026-04-25T09:40:09.094Z</time></trkpt><trkpt lat="41.8347529" lon="1.6029304"><ele>536.5</ele><time>2026-04-25T09:40:10.094Z</time></trkpt><trkpt lat="41.8346678" lon="1.6025764"><ele>540.0</ele><time>2026-04-25T09:40:11.093Z</time></trkpt><trkpt lat="41.8345525" lon="1.6022125"><ele>546.5</ele><time>2026-04-25T09:40:12.094Z</time></trkpt><trkpt lat="41.8344522" lon="1.6018791"><ele>553.0</ele><time>2026-04-25T09:40:13.095Z</time></trkpt><trkpt lat="41.8343654" lon="1.6015939"><ele>551.0</ele><time>2026-04-25T09:40:14.094Z</time></trkpt><trkpt lat="41.8342865" lon="1.6013419"><ele>549.0</ele><time>2026-04-25T09:40:15.094Z</time></trkpt><trkpt lat="41.8341854" lon="1.6010553"><ele>547.0</ele><time>2026-04-25T09:40:16.094Z</time></trkpt><trkpt lat="41.834034" lon="1.6007492"><ele>547.0</ele><time>2026-04-25T09:40:17.094Z</time></trkpt><trkpt lat="41.8338381" lon="1.6004193"><ele>547.0</ele><time>2026-04-25T09:40:18.095Z</time></trkpt><trkpt lat="41.8336182" lon="1.6000647"><ele>545.5</ele><time>2026-04-25T09:40:19.093Z</time></trkpt><trkpt lat="41.8334157" lon="1.599762"><ele>544.0</ele><time>2026-04-25T09:40:20.093Z</time></trkpt><trkpt lat="41.8331933" lon="1.5995039"><ele>547.5</ele><time>2026-04-25T09:40:21.094Z</time></trkpt><trkpt lat="41.8329544" lon="1.5992164"><ele>551.0</ele><time>2026-04-25T09:40:22.094Z</time></trkpt><trkpt lat="41.832698" lon="1.5989238"><ele>549.0</ele><time>2026-04-25T09:40:23.095Z</time></trkpt><trkpt lat="41.8324424" lon="1.598677"><ele>547.0</ele><time>2026-04-25T09:40:24.093Z</time></trkpt><trkpt lat="41.8321917" lon="1.5984238"><ele>547.0</ele><time>2026-04-25T09:40:25.093Z</time></trkpt><trkpt lat="41.8319377" lon="1.5981254"><ele>547.0</ele><time>2026-04-25T09:40:26.094Z</time></trkpt><trkpt lat="41.8317081" lon="1.5978435"><ele>546.0</ele><time>2026-04-25T09:40:27.095Z</time></trkpt><trkpt lat="41.8314768" lon="1.5975653"><ele>545.0</ele><time>2026-04-25T09:40:28.094Z</time></trkpt><trkpt lat="41.8312785" lon="1.597297"><ele>545.0</ele><time>2026-04-25T09:40:29.094Z</time></trkpt><trkpt lat="41.8311189" lon="1.5970194"><ele>545.0</ele><time>2026-04-25T09:40:30.094Z</time></trkpt><trkpt lat="41.8309734" lon="1.5967804"><ele>546.6666666666666</ele><time>2026-04-25T09:40:31.094Z</time></trkpt><trkpt lat="41.8308005" lon="1.5966129"><ele>548.3333333333334</ele><time>2026-04-25T09:40:32.093Z</time></trkpt><trkpt lat="41.8306077" lon="1.5964828"><ele>550.0</ele><time>2026-04-25T09:40:33.094Z</time></trkpt><trkpt lat="41.8304113" lon="1.5963803"><ele>550.0</ele><time>2026-04-25T09:40:34.094Z</time></trkpt><trkpt lat="41.8302205" lon="1.5962589"><ele>550.0</ele><time>2026-04-25T09:40:35.093Z</time></trkpt><trkpt lat="41.8300723" lon="1.5959491"><ele>550.5</ele><time>2026-04-25T09:40:36.093Z</time></trkpt><trkpt lat="41.8299105" lon="1.5956664"><ele>551.0</ele><time>2026-04-25T09:40:37.095Z</time></trkpt><trkpt lat="41.8297566" lon="1.5953376"><ele>553.5</ele><time>2026-04-25T09:40:38.093Z</time></trkpt><trkpt lat="41.8296214" lon="1.5950107"><ele>556.0</ele><time>2026-04-25T09:40:39.095Z</time></trkpt><trkpt lat="41.8294834" lon="1.5946575"><ele>554.5</ele><time>2026-04-25T09:40:40.093Z</time></trkpt><trkpt lat="41.8293374" lon="1.5942797"><ele>553.0</ele><time>2026-04-25T09:40:41.094Z</time></trkpt><trkpt lat="41.8291652" lon="1.5939124"><ele>553.0</ele><time>2026-04-25T09:40:42.094Z</time></trkpt><trkpt lat="41.8289749" lon="1.5935878"><ele>553.0</ele><time>2026-04-25T09:40:43.094Z</time></trkpt><trkpt lat="41.8287861" lon="1.5933126"><ele>553.0</ele><time>2026-04-25T09:40:44.093Z</time></trkpt><trkpt lat="41.828614" lon="1.5930871"><ele>553.0</ele><time>2026-04-25T09:40:45.094Z</time></trkpt><trkpt lat="41.8284807" lon="1.5928812"><ele>553.0</ele><time>2026-04-25T09:40:46.093Z</time></trkpt><trkpt lat="41.8283877" lon="1.59266"><ele>553.0</ele><time>2026-04-25T09:40:47.094Z</time></trkpt><trkpt lat="41.8283154" lon="1.5923947"><ele>553.0</ele><time>2026-04-25T09:40:48.094Z</time></trkpt><trkpt lat="41.8282471" lon="1.5920802"><ele>555.5</ele><time>2026-04-25T09:40:49.094Z</time></trkpt><trkpt lat="41.8281764" lon="1.5917684"><ele>558.0</ele><time>2026-04-25T09:40:50.093Z</time></trkpt><trkpt lat="41.8280828" lon="1.5914991"><ele>558.0</ele><time>2026-04-25T09:40:51.094Z</time></trkpt><trkpt lat="41.8279559" lon="1.5912378"><ele>558.0</ele><time>2026-04-25T09:40:52.094Z</time></trkpt><trkpt lat="41.827788" lon="1.5909621"><ele>557.0</ele><time>2026-04-25T09:40:53.094Z</time></trkpt><trkpt lat="41.8276252" lon="1.5906416"><ele>556.0</ele><time>2026-04-25T09:40:54.093Z</time></trkpt><trkpt lat="41.8274668" lon="1.5902722"><ele>561.5</ele><time>2026-04-25T09:40:55.093Z</time></trkpt><trkpt lat="41.8273004" lon="1.5898914"><ele>567.0</ele><time>2026-04-25T09:40:56.094Z</time></trkpt><trkpt lat="41.8271511" lon="1.5895528"><ele>567.5</ele><time>2026-04-25T09:40:57.093Z</time></trkpt><trkpt lat="41.826994" lon="1.5892525"><ele>568.0</ele><time>2026-04-25T09:40:58.093Z</time></trkpt><trkpt lat="41.8267913" lon="1.5889952"><ele>568.0</ele><time>2026-04-25T09:40:59.093Z</time></trkpt><trkpt lat="41.8265558" lon="1.5887487"><ele>568.0</ele><time>2026-04-25T09:41:00.094Z</time></trkpt><trkpt lat="41.8263109" lon="1.5884627"><ele>565.5</ele><time>2026-04-25T09:41:01.094Z</time></trkpt><trkpt lat="41.8260478" lon="1.5881561"><ele>563.0</ele><time>2026-04-25T09:41:02.094Z</time></trkpt><trkpt lat="41.8257532" lon="1.5878741"><ele>568.5</ele><time>2026-04-25T09:41:03.094Z</time></trkpt><trkpt lat="41.8254559" lon="1.5875729"><ele>574.0</ele><time>2026-04-25T09:41:04.094Z</time></trkpt><trkpt lat="41.8251819" lon="1.5872264"><ele>573.5</ele><time>2026-04-25T09:41:05.094Z</time></trkpt><trkpt lat="41.8249098" lon="1.5868615"><ele>573.0</ele><time>2026-04-25T09:41:06.094Z</time></trkpt><trkpt lat="41.8246751" lon="1.5865417"><ele>573.0</ele><time>2026-04-25T09:41:07.095Z</time></trkpt><trkpt lat="41.8244539" lon="1.5862438"><ele>573.0</ele><time>2026-04-25T09:41:08.095Z</time></trkpt><trkpt lat="41.8242484" lon="1.5859351"><ele>574.0</ele><time>2026-04-25T09:41:09.095Z</time></trkpt><trkpt lat="41.8240597" lon="1.5856075"><ele>575.0</ele><time>2026-04-25T09:41:10.093Z</time></trkpt><trkpt lat="41.8238882" lon="1.5852962"><ele>575.0</ele><time>2026-04-25T09:41:11.094Z</time></trkpt><trkpt lat="41.8237354" lon="1.5850195"><ele>575.0</ele><time>2026-04-25T09:41:12.094Z</time></trkpt><trkpt lat="41.8236019" lon="1.5847353"><ele>575.0</ele><time>2026-04-25T09:41:13.094Z</time></trkpt><trkpt lat="41.8234767" lon="1.5844184"><ele>575.0</ele><time>2026-04-25T09:41:14.094Z</time></trkpt><trkpt lat="41.8233768" lon="1.5841463"><ele>575.0</ele><time>2026-04-25T09:41:15.094Z</time></trkpt><trkpt lat="41.8232585" lon="1.5839089"><ele>575.0</ele><time>2026-04-25T09:41:16.095Z</time></trkpt><trkpt lat="41.8231145" lon="1.5837313"><ele>575.0</ele><time>2026-04-25T09:41:17.095Z</time></trkpt><trkpt lat="41.8229399" lon="1.5836164"><ele>580.0</ele><time>2026-04-25T09:41:18.094Z</time></trkpt><trkpt lat="41.8227292" lon="1.5835596"><ele>585.0</ele><time>2026-04-25T09:41:19.094Z</time></trkpt><trkpt lat="41.8225165" lon="1.5835106"><ele>590.0</ele><time>2026-04-25T09:41:20.095Z</time></trkpt><trkpt lat="41.8223355" lon="1.583414"><ele>590.0</ele><time>2026-04-25T09:41:21.093Z</time></trkpt><trkpt lat="41.8221778" lon="1.5832538"><ele>590.0</ele><time>2026-04-25T09:41:22.093Z</time></trkpt><trkpt lat="41.8220344" lon="1.5830143"><ele>590.0</ele><time>2026-04-25T09:41:23.094Z</time></trkpt><trkpt lat="41.8218935" lon="1.5827129"><ele>591.0</ele><time>2026-04-25T09:41:24.094Z</time></trkpt><trkpt lat="41.8217425" lon="1.5823687"><ele>592.0</ele><time>2026-04-25T09:41:25.093Z</time></trkpt><trkpt lat="41.8215934" lon="1.5819863"><ele>597.5</ele><time>2026-04-25T09:41:26.094Z</time></trkpt><trkpt lat="41.8214821" lon="1.5816065"><ele>603.0</ele><time>2026-04-25T09:41:27.093Z</time></trkpt><trkpt lat="41.8213923" lon="1.5812639"><ele>608.5</ele><time>2026-04-25T09:41:28.093Z</time></trkpt><trkpt lat="41.8213128" lon="1.5809299"><ele>614.0</ele><time>2026-04-25T09:41:29.093Z</time></trkpt><trkpt lat="41.8212514" lon="1.5805805"><ele>615.5</ele><time>2026-04-25T09:41:30.094Z</time></trkpt><trkpt lat="41.8212198" lon="1.5801824"><ele>617.0</ele><time>2026-04-25T09:41:31.094Z</time></trkpt><trkpt lat="41.821209" lon="1.5797487"><ele>616.5</ele><time>2026-04-25T09:41:32.094Z</time></trkpt><trkpt lat="41.8211692" lon="1.5792825"><ele>616.0</ele><time>2026-04-25T09:41:33.094Z</time></trkpt><trkpt lat="41.821116" lon="1.5787929"><ele>617.0</ele><time>2026-04-25T09:41:34.094Z</time></trkpt><trkpt lat="41.8210435" lon="1.5782753"><ele>618.0</ele><time>2026-04-25T09:41:35.094Z</time></trkpt><trkpt lat="41.8209585" lon="1.5777846"><ele>609.5</ele><time>2026-04-25T09:41:36.094Z</time></trkpt><trkpt lat="41.8208793" lon="1.5773386"><ele>601.0</ele><time>2026-04-25T09:41:37.094Z</time></trkpt><trkpt lat="41.8208276" lon="1.5769064"><ele>601.0</ele><time>2026-04-25T09:41:38.093Z</time></trkpt><trkpt lat="41.8208131" lon="1.5764742"><ele>601.0</ele><time>2026-04-25T09:41:39.094Z</time></trkpt><trkpt lat="41.8208112" lon="1.5760868"><ele>602.0</ele><time>2026-04-25T09:41:40.095Z</time></trkpt><trkpt lat="41.8208094" lon="1.575751"><ele>603.0</ele><time>2026-04-25T09:41:41.095Z</time></trkpt><trkpt lat="41.8207953" lon="1.5754573"><ele>605.3333333333334</ele><time>2026-04-25T09:41:42.094Z</time></trkpt><trkpt lat="41.820743" lon="1.5751922"><ele>607.6666666666667</ele><time>2026-04-25T09:41:43.094Z</time></trkpt><trkpt lat="41.8206352" lon="1.5749493"><ele>610.0</ele><time>2026-04-25T09:41:44.093Z</time></trkpt><trkpt lat="41.8205022" lon="1.5746943"><ele>616.0</ele><time>2026-04-25T09:41:45.093Z</time></trkpt><trkpt lat="41.820396" lon="1.5744015"><ele>622.0</ele><time>2026-04-25T09:41:46.095Z</time></trkpt><trkpt lat="41.820289" lon="1.5740724"><ele>622.0</ele><time>2026-04-25T09:41:47.093Z</time></trkpt><trkpt lat="41.8201588" lon="1.5737788"><ele>622.0</ele><time>2026-04-25T09:41:48.094Z</time></trkpt><trkpt lat="41.8199873" lon="1.5735164"><ele>617.5</ele><time>2026-04-25T09:41:49.094Z</time></trkpt><trkpt lat="41.8197634" lon="1.5732566"><ele>613.0</ele><time>2026-04-25T09:41:50.094Z</time></trkpt><trkpt lat="41.81952" lon="1.5730114"><ele>614.5</ele><time>2026-04-25T09:41:51.094Z</time></trkpt><trkpt lat="41.8193265" lon="1.5727902"><ele>616.0</ele><time>2026-04-25T09:41:52.094Z</time></trkpt><trkpt lat="41.8191637" lon="1.572567"><ele>616.0</ele><time>2026-04-25T09:41:53.093Z</time></trkpt><trkpt lat="41.8190359" lon="1.5722964"><ele>616.0</ele><time>2026-04-25T09:41:54.094Z</time></trkpt><trkpt lat="41.818922" lon="1.5719648"><ele>618.5</ele><time>2026-04-25T09:41:55.094Z</time></trkpt><trkpt lat="41.8188042" lon="1.571586"><ele>621.0</ele><time>2026-04-25T09:41:56.094Z</time></trkpt><trkpt lat="41.8186686" lon="1.5711789"><ele>623.5</ele><time>2026-04-25T09:41:57.093Z</time></trkpt><trkpt lat="41.8185597" lon="1.5708457"><ele>626.0</ele><time>2026-04-25T09:41:58.094Z</time></trkpt><trkpt lat="41.8184618" lon="1.5705456"><ele>623.0</ele><time>2026-04-25T09:41:59.094Z</time></trkpt><trkpt lat="41.8183739" lon="1.5702326"><ele>620.0</ele><time>2026-04-25T09:42:00.093Z</time></trkpt><trkpt lat="41.8183323" lon="1.5698986"><ele>620.0</ele><time>2026-04-25T09:42:01.095Z</time></trkpt><trkpt lat="41.8183241" lon="1.569531"><ele>620.0</ele><time>2026-04-25T09:42:02.094Z</time></trkpt><trkpt lat="41.8183025" lon="1.5691388"><ele>621.0</ele><time>2026-04-25T09:42:03.094Z</time></trkpt><trkpt lat="41.8182662" lon="1.5688013"><ele>622.0</ele><time>2026-04-25T09:42:04.094Z</time></trkpt><trkpt lat="41.8182494" lon="1.568485"><ele>623.0</ele><time>2026-04-25T09:42:05.093Z</time></trkpt><trkpt lat="41.8182746" lon="1.56816"><ele>624.0</ele><time>2026-04-25T09:42:06.093Z</time></trkpt><trkpt lat="41.8183346" lon="1.5678279"><ele>624.5</ele><time>2026-04-25T09:42:07.093Z</time></trkpt><trkpt lat="41.8184509" lon="1.5674869"><ele>625.0</ele><time>2026-04-25T09:42:08.094Z</time></trkpt><trkpt lat="41.8186189" lon="1.5671328"><ele>629.0</ele><time>2026-04-25T09:42:09.094Z</time></trkpt><trkpt lat="41.8188321" lon="1.566754"><ele>633.0</ele><time>2026-04-25T09:42:10.093Z</time></trkpt><trkpt lat="41.8190668" lon="1.5663502"><ele>633.5</ele><time>2026-04-25T09:42:11.093Z</time></trkpt><trkpt lat="41.8192989" lon="1.5659171"><ele>634.0</ele><time>2026-04-25T09:42:12.093Z</time></trkpt><trkpt lat="41.8194903" lon="1.5655067"><ele>635.0</ele><time>2026-04-25T09:42:13.093Z</time></trkpt><trkpt lat="41.8196647" lon="1.5651122"><ele>636.0</ele><time>2026-04-25T09:42:14.093Z</time></trkpt><trkpt lat="41.8198389" lon="1.5647674"><ele>636.0</ele><time>2026-04-25T09:42:15.094Z</time></trkpt><trkpt lat="41.819993" lon="1.5644682"><ele>636.0</ele><time>2026-04-25T09:42:16.094Z</time></trkpt><trkpt lat="41.8201212" lon="1.5641856"><ele>639.0</ele><time>2026-04-25T09:42:17.094Z</time></trkpt><trkpt lat="41.820233" lon="1.5639388"><ele>642.0</ele><time>2026-04-25T09:42:18.095Z</time></trkpt><trkpt lat="41.8203188" lon="1.5637334"><ele>645.0</ele><time>2026-04-25T09:42:19.094Z</time></trkpt><trkpt lat="41.8203562" lon="1.5635435"><ele>645.0</ele><time>2026-04-25T09:42:20.094Z</time></trkpt><trkpt lat="41.8203397" lon="1.5633441"><ele>645.0</ele><time>2026-04-25T09:42:21.095Z</time></trkpt><trkpt lat="41.8202665" lon="1.5631681"><ele>645.0</ele><time>2026-04-25T09:42:22.094Z</time></trkpt><trkpt lat="41.8201372" lon="1.5630027"><ele>644.5</ele><time>2026-04-25T09:42:23.093Z</time></trkpt><trkpt lat="41.8199472" lon="1.5628189"><ele>644.0</ele><time>2026-04-25T09:42:24.094Z</time></trkpt><trkpt lat="41.8197201" lon="1.5626006"><ele>644.0</ele><time>2026-04-25T09:42:25.093Z</time></trkpt><trkpt lat="41.8194568" lon="1.5623518"><ele>644.0</ele><time>2026-04-25T09:42:26.094Z</time></trkpt><trkpt lat="41.8191586" lon="1.5620841"><ele>649.0</ele><time>2026-04-25T09:42:27.093Z</time></trkpt><trkpt lat="41.8188408" lon="1.5618295"><ele>654.0</ele><time>2026-04-25T09:42:28.093Z</time></trkpt><trkpt lat="41.8185647" lon="1.5616195"><ele>658.5</ele><time>2026-04-25T09:42:29.095Z</time></trkpt><trkpt lat="41.8183148" lon="1.5614314"><ele>663.0</ele><time>2026-04-25T09:42:30.095Z</time></trkpt><trkpt lat="41.8180961" lon="1.5612643"><ele>667.0</ele><time>2026-04-25T09:42:31.094Z</time></trkpt><trkpt lat="41.8178963" lon="1.5610628"><ele>671.0</ele><time>2026-04-25T09:42:32.094Z</time></trkpt><trkpt lat="41.8177403" lon="1.5608384"><ele>672.3333333333333</ele><time>2026-04-25T09:42:33.094Z</time></trkpt><trkpt lat="41.8176231" lon="1.5606036"><ele>673.6666666666666</ele><time>2026-04-25T09:42:34.094Z</time></trkpt><trkpt lat="41.8175399" lon="1.5603372"><ele>675.0</ele><time>2026-04-25T09:42:35.094Z</time></trkpt><trkpt lat="41.8174614" lon="1.5599989"><ele>675.0</ele><time>2026-04-25T09:42:36.093Z</time></trkpt><trkpt lat="41.8173527" lon="1.5596194"><ele>675.0</ele><time>2026-04-25T09:42:37.094Z</time></trkpt><trkpt lat="41.8172043" lon="1.5592043"><ele>676.5</ele><time>2026-04-25T09:42:38.094Z</time></trkpt><trkpt lat="41.8170291" lon="1.5587509"><ele>678.0</ele><time>2026-04-25T09:42:39.094Z</time></trkpt><trkpt lat="41.8168442" lon="1.5582996"><ele>672.5</ele><time>2026-04-25T09:42:40.094Z</time></trkpt><trkpt lat="41.8166879" lon="1.5579064"><ele>667.0</ele><time>2026-04-25T09:42:41.094Z</time></trkpt><trkpt lat="41.8165296" lon="1.5575781"><ele>667.0</ele><time>2026-04-25T09:42:42.094Z</time></trkpt><trkpt lat="41.816349" lon="1.5572917"><ele>667.0</ele><time>2026-04-25T09:42:43.093Z</time></trkpt><trkpt lat="41.8161635" lon="1.5569779"><ele>666.0</ele><time>2026-04-25T09:42:44.094Z</time></trkpt><trkpt lat="41.8159729" lon="1.5566131"><ele>665.0</ele><time>2026-04-25T09:42:45.093Z</time></trkpt><trkpt lat="41.8157807" lon="1.5562193"><ele>665.5</ele><time>2026-04-25T09:42:46.093Z</time></trkpt><trkpt lat="41.8155944" lon="1.5558585"><ele>666.0</ele><time>2026-04-25T09:42:47.094Z</time></trkpt><trkpt lat="41.8153949" lon="1.5555326"><ele>667.0</ele><time>2026-04-25T09:42:48.093Z</time></trkpt><trkpt lat="41.8151555" lon="1.5552211"><ele>668.0</ele><time>2026-04-25T09:42:49.094Z</time></trkpt><trkpt lat="41.8149275" lon="1.5549691"><ele>670.0</ele><time>2026-04-25T09:42:50.093Z</time></trkpt><trkpt lat="41.8147138" lon="1.5547342"><ele>672.0</ele><time>2026-04-25T09:42:51.094Z</time></trkpt><trkpt lat="41.8145271" lon="1.5544722"><ele>673.5</ele><time>2026-04-25T09:42:52.094Z</time></trkpt><trkpt lat="41.8143528" lon="1.5541623"><ele>675.0</ele><time>2026-04-25T09:42:53.095Z</time></trkpt><trkpt lat="41.8141982" lon="1.5538134"><ele>679.0</ele><time>2026-04-25T09:42:54.094Z</time></trkpt><trkpt lat="41.8140537" lon="1.5534884"><ele>683.0</ele><time>2026-04-25T09:42:55.094Z</time></trkpt><trkpt lat="41.8139353" lon="1.553185"><ele>688.0</ele><time>2026-04-25T09:42:56.093Z</time></trkpt><trkpt lat="41.8138421" lon="1.5528303"><ele>693.0</ele><time>2026-04-25T09:42:57.094Z</time></trkpt><trkpt lat="41.8137564" lon="1.552433"><ele>693.0</ele><time>2026-04-25T09:42:58.094Z</time></trkpt><trkpt lat="41.8136746" lon="1.5520589"><ele>693.0</ele><time>2026-04-25T09:42:59.094Z</time></trkpt><trkpt lat="41.8136169" lon="1.5517153"><ele>694.0</ele><time>2026-04-25T09:43:00.094Z</time></trkpt><trkpt lat="41.8135784" lon="1.5514046"><ele>695.0</ele><time>2026-04-25T09:43:01.094Z</time></trkpt><trkpt lat="41.8135308" lon="1.551131"><ele>696.0</ele><time>2026-04-25T09:43:02.095Z</time></trkpt><trkpt lat="41.8134701" lon="1.5509012"><ele>693.4</ele><time>2026-04-25T09:43:03.093Z</time></trkpt><trkpt lat="41.8134173" lon="1.5506976"><ele>690.8</ele><time>2026-04-25T09:43:04.093Z</time></trkpt><trkpt lat="41.8133776" lon="1.5505427"><ele>688.1999999999999</ele><time>2026-04-25T09:43:05.093Z</time></trkpt><trkpt lat="41.8133602" lon="1.5504249"><ele>685.5999999999999</ele><time>2026-04-25T09:43:06.094Z</time></trkpt><trkpt lat="41.8133693" lon="1.5503319"><ele>683.0</ele><time>2026-04-25T09:43:07.094Z</time></trkpt><trkpt lat="41.813448" lon="1.5502483"><ele>683.8</ele><time>2026-04-25T09:43:09.093Z</time></trkpt><trkpt lat="41.8135129" lon="1.5501966"><ele>684.5999999999999</ele><time>2026-04-25T09:46:54.093Z</time></trkpt><trkpt lat="41.813572" lon="1.5501362"><ele>685.4000000000001</ele><time>2026-04-25T09:46:56.095Z</time></trkpt><trkpt lat="41.8136934" lon="1.5500155"><ele>686.2</ele><time>2026-04-25T09:46:58.093Z</time></trkpt><trkpt lat="41.8137756" lon="1.5499257"><ele>687.0</ele><time>2026-04-25T09:46:59.093Z</time></trkpt><trkpt lat="41.8138674" lon="1.5498187"><ele>687.0</ele><time>2026-04-25T09:47:00.094Z</time></trkpt><trkpt lat="41.8139614" lon="1.5496921"><ele>687.0</ele><time>2026-04-25T09:47:01.093Z</time></trkpt><trkpt lat="41.8140552" lon="1.5495357"><ele>687.0</ele><time>2026-04-25T09:47:02.093Z</time></trkpt><trkpt lat="41.8141463" lon="1.5493597"><ele>687.0</ele><time>2026-04-25T09:47:03.094Z</time></trkpt><trkpt lat="41.814239" lon="1.5491697"><ele>692.3333333333334</ele><time>2026-04-25T09:47:04.094Z</time></trkpt><trkpt lat="41.8143283" lon="1.5489934"><ele>697.6666666666667</ele><time>2026-04-25T09:47:05.094Z</time></trkpt><trkpt lat="41.8144265" lon="1.548821"><ele>703.0</ele><time>2026-04-25T09:47:06.094Z</time></trkpt><trkpt lat="41.8145527" lon="1.5486408"><ele>703.0</ele><time>2026-04-25T09:47:07.094Z</time></trkpt><trkpt lat="41.8146978" lon="1.5484533"><ele>703.0</ele><time>2026-04-25T09:47:08.093Z</time></trkpt><trkpt lat="41.8148586" lon="1.5482494"><ele>703.0</ele><time>2026-04-25T09:47:09.094Z</time></trkpt><trkpt lat="41.8150231" lon="1.5480418"><ele>706.3333333333334</ele><time>2026-04-25T09:47:10.094Z</time></trkpt><trkpt lat="41.8151673" lon="1.5478621"><ele>709.6666666666666</ele><time>2026-04-25T09:47:11.093Z</time></trkpt><trkpt lat="41.8153034" lon="1.5477031"><ele>713.0</ele><time>2026-04-25T09:47:12.094Z</time></trkpt><trkpt lat="41.8154463" lon="1.5475569"><ele>713.0</ele><time>2026-04-25T09:47:13.094Z</time></trkpt><trkpt lat="41.8156069" lon="1.5474287"><ele>713.0</ele><time>2026-04-25T09:47:14.094Z</time></trkpt><trkpt lat="41.8157844" lon="1.5473035"><ele>713.0</ele><time>2026-04-25T09:47:15.094Z</time></trkpt><trkpt lat="41.8159654" lon="1.5471697"><ele>716.6666666666666</ele><time>2026-04-25T09:47:16.093Z</time></trkpt><trkpt lat="41.8161473" lon="1.5470293"><ele>720.3333333333334</ele><time>2026-04-25T09:47:17.093Z</time></trkpt><trkpt lat="41.8163217" lon="1.5468972"><ele>724.0</ele><time>2026-04-25T09:47:18.095Z</time></trkpt><trkpt lat="41.816477" lon="1.5467936"><ele>724.0</ele><time>2026-04-25T09:47:19.095Z</time></trkpt><trkpt lat="41.8166209" lon="1.5467246"><ele>724.0</ele><time>2026-04-25T09:47:20.094Z</time></trkpt><trkpt lat="41.8167522" lon="1.5466912"><ele>724.0</ele><time>2026-04-25T09:47:21.093Z</time></trkpt><trkpt lat="41.816874" lon="1.5467027"><ele>724.0</ele><time>2026-04-25T09:47:22.094Z</time></trkpt><trkpt lat="41.8169963" lon="1.546767"><ele>729.6666666666667</ele><time>2026-04-25T09:47:23.094Z</time></trkpt><trkpt lat="41.8171325" lon="1.5468641"><ele>735.3333333333334</ele><time>2026-04-25T09:47:24.094Z</time></trkpt><trkpt lat="41.8172837" lon="1.5469342"><ele>741.0</ele><time>2026-04-25T09:47:25.094Z</time></trkpt><trkpt lat="41.8174238" lon="1.5469744"><ele>741.0</ele><time>2026-04-25T09:47:26.094Z</time></trkpt><trkpt lat="41.8175729" lon="1.5469705"><ele>741.0</ele><time>2026-04-25T09:47:27.094Z</time></trkpt><trkpt lat="41.8177199" lon="1.5469053"><ele>741.0</ele><time>2026-04-25T09:47:28.093Z</time></trkpt><trkpt lat="41.8178797" lon="1.5467791"><ele>738.0</ele><time>2026-04-25T09:47:29.093Z</time></trkpt><trkpt lat="41.8180582" lon="1.5466222"><ele>735.0</ele><time>2026-04-25T09:47:30.094Z</time></trkpt><trkpt lat="41.818248" lon="1.5464773"><ele>732.0</ele><time>2026-04-25T09:47:31.093Z</time></trkpt><trkpt lat="41.8184262" lon="1.5463755"><ele>732.6666666666666</ele><time>2026-04-25T09:47:32.093Z</time></trkpt><trkpt lat="41.8186083" lon="1.5462998"><ele>733.3333333333333</ele><time>2026-04-25T09:47:33.093Z</time></trkpt><trkpt lat="41.8187642" lon="1.5462258"><ele>734.0</ele><time>2026-04-25T09:47:34.094Z</time></trkpt><trkpt lat="41.8188934" lon="1.5461237"><ele>734.0</ele><time>2026-04-25T09:47:35.094Z</time></trkpt><trkpt lat="41.8190001" lon="1.545975"><ele>734.0</ele><time>2026-04-25T09:47:36.094Z</time></trkpt><trkpt lat="41.8190802" lon="1.5457808"><ele>734.0</ele><time>2026-04-25T09:47:37.093Z</time></trkpt><trkpt lat="41.8191432" lon="1.5455586"><ele>734.0</ele><time>2026-04-25T09:47:38.093Z</time></trkpt><trkpt lat="41.8192115" lon="1.5453821"><ele>734.0</ele><time>2026-04-25T09:47:39.093Z</time></trkpt><trkpt lat="41.8193095" lon="1.5452374"><ele>734.0</ele><time>2026-04-25T09:47:40.094Z</time></trkpt><trkpt lat="41.8194376" lon="1.5451329"><ele>734.0</ele><time>2026-04-25T09:47:41.094Z</time></trkpt><trkpt lat="41.8195949" lon="1.5450758"><ele>735.6666666666666</ele><time>2026-04-25T09:47:42.094Z</time></trkpt><trkpt lat="41.8197684" lon="1.5450276"><ele>737.3333333333334</ele><time>2026-04-25T09:47:43.094Z</time></trkpt><trkpt lat="41.8199332" lon="1.544937"><ele>739.0</ele><time>2026-04-25T09:47:44.093Z</time></trkpt><trkpt lat="41.8200997" lon="1.5447883"><ele>738.0</ele><time>2026-04-25T09:47:45.093Z</time></trkpt><trkpt lat="41.8202813" lon="1.5445939"><ele>737.0</ele><time>2026-04-25T09:47:46.094Z</time></trkpt><trkpt lat="41.8204748" lon="1.5443768"><ele>739.5</ele><time>2026-04-25T09:47:47.094Z</time></trkpt><trkpt lat="41.8206779" lon="1.5441286"><ele>742.0</ele><time>2026-04-25T09:47:48.094Z</time></trkpt><trkpt lat="41.8208901" lon="1.5438611"><ele>745.0</ele><time>2026-04-25T09:47:49.094Z</time></trkpt><trkpt lat="41.8211145" lon="1.543585"><ele>748.0</ele><time>2026-04-25T09:47:50.094Z</time></trkpt><trkpt lat="41.8213404" lon="1.5433088"><ele>748.0</ele><time>2026-04-25T09:47:51.095Z</time></trkpt><trkpt lat="41.8215404" lon="1.5430621"><ele>748.0</ele><time>2026-04-25T09:47:52.093Z</time></trkpt><trkpt lat="41.8217246" lon="1.5428386"><ele>750.0</ele><time>2026-04-25T09:47:53.094Z</time></trkpt><trkpt lat="41.8218908" lon="1.5426403"><ele>752.0</ele><time>2026-04-25T09:47:54.093Z</time></trkpt><trkpt lat="41.8220445" lon="1.5424673"><ele>754.0</ele><time>2026-04-25T09:47:55.093Z</time></trkpt><trkpt lat="41.8221977" lon="1.542317"><ele>754.0</ele><time>2026-04-25T09:47:56.094Z</time></trkpt><trkpt lat="41.8223635" lon="1.5421921"><ele>754.0</ele><time>2026-04-25T09:47:57.094Z</time></trkpt><trkpt lat="41.8225439" lon="1.5420992"><ele>754.0</ele><time>2026-04-25T09:47:58.093Z</time></trkpt><trkpt lat="41.8227401" lon="1.542046"><ele>755.0</ele><time>2026-04-25T09:47:59.093Z</time></trkpt><trkpt lat="41.8229618" lon="1.5420034"><ele>756.0</ele><time>2026-04-25T09:48:00.094Z</time></trkpt><trkpt lat="41.8231984" lon="1.5419332"><ele>756.0</ele><time>2026-04-25T09:48:01.094Z</time></trkpt><trkpt lat="41.823447" lon="1.5418351"><ele>756.0</ele><time>2026-04-25T09:48:02.094Z</time></trkpt><trkpt lat="41.8237142" lon="1.5417378"><ele>755.5</ele><time>2026-04-25T09:48:03.093Z</time></trkpt><trkpt lat="41.8239778" lon="1.5416434"><ele>755.0</ele><time>2026-04-25T09:48:04.093Z</time></trkpt><trkpt lat="41.8242213" lon="1.541554"><ele>758.5</ele><time>2026-04-25T09:48:05.093Z</time></trkpt><trkpt lat="41.8244602" lon="1.5414569"><ele>762.0</ele><time>2026-04-25T09:48:06.094Z</time></trkpt><trkpt lat="41.8246945" lon="1.5413436"><ele>762.0</ele><time>2026-04-25T09:48:07.094Z</time></trkpt><trkpt lat="41.824909" lon="1.5412251"><ele>762.0</ele><time>2026-04-25T09:48:08.094Z</time></trkpt><trkpt lat="41.8251072" lon="1.5410882"><ele>767.5</ele><time>2026-04-25T09:48:09.093Z</time></trkpt><trkpt lat="41.8253026" lon="1.5408983"><ele>773.0</ele><time>2026-04-25T09:48:10.094Z</time></trkpt><trkpt lat="41.8255116" lon="1.5406816"><ele>773.0</ele><time>2026-04-25T09:48:11.094Z</time></trkpt><trkpt lat="41.8257379" lon="1.5404545"><ele>773.0</ele><time>2026-04-25T09:48:12.094Z</time></trkpt><trkpt lat="41.8259733" lon="1.5402131"><ele>778.5</ele><time>2026-04-25T09:48:13.094Z</time></trkpt><trkpt lat="41.8261837" lon="1.5399623"><ele>784.0</ele><time>2026-04-25T09:48:14.093Z</time></trkpt><trkpt lat="41.8263677" lon="1.5397093"><ele>776.5</ele><time>2026-04-25T09:48:15.094Z</time></trkpt><trkpt lat="41.8265377" lon="1.5394729"><ele>769.0</ele><time>2026-04-25T09:48:16.094Z</time></trkpt><trkpt lat="41.8267007" lon="1.5392764"><ele>772.6666666666666</ele><time>2026-04-25T09:48:17.093Z</time></trkpt><trkpt lat="41.826851" lon="1.5391244"><ele>776.3333333333333</ele><time>2026-04-25T09:48:18.095Z</time></trkpt><trkpt lat="41.8270086" lon="1.539035"><ele>780.0</ele><time>2026-04-25T09:48:19.094Z</time></trkpt><trkpt lat="41.8272081" lon="1.5389942"><ele>780.0</ele><time>2026-04-25T09:48:20.094Z</time></trkpt><trkpt lat="41.8274491" lon="1.5389627"><ele>780.0</ele><time>2026-04-25T09:48:21.094Z</time></trkpt><trkpt lat="41.8277153" lon="1.5389524"><ele>779.0</ele><time>2026-04-25T09:48:22.094Z</time></trkpt><trkpt lat="41.8280019" lon="1.5389425"><ele>778.0</ele><time>2026-04-25T09:48:23.094Z</time></trkpt><trkpt lat="41.8283034" lon="1.5388862"><ele>777.5</ele><time>2026-04-25T09:48:24.094Z</time></trkpt><trkpt lat="41.8286093" lon="1.5388014"><ele>777.0</ele><time>2026-04-25T09:48:25.094Z</time></trkpt><trkpt lat="41.8289146" lon="1.5386908"><ele>781.0</ele><time>2026-04-25T09:48:26.094Z</time></trkpt><trkpt lat="41.8291997" lon="1.5385771"><ele>785.0</ele><time>2026-04-25T09:48:27.093Z</time></trkpt><trkpt lat="41.8294486" lon="1.5384719"><ele>785.0</ele><time>2026-04-25T09:48:28.094Z</time></trkpt><trkpt lat="41.8296653" lon="1.5383801"><ele>785.0</ele><time>2026-04-25T09:48:29.094Z</time></trkpt><trkpt lat="41.8298447" lon="1.5383025"><ele>785.0</ele><time>2026-04-25T09:48:30.094Z</time></trkpt><trkpt lat="41.8299859" lon="1.5382165"><ele>785.0</ele><time>2026-04-25T09:48:31.094Z</time></trkpt><trkpt lat="41.8300877" lon="1.5380751"><ele>785.0</ele><time>2026-04-25T09:48:32.094Z</time></trkpt><trkpt lat="41.8301638" lon="1.5378737"><ele>785.0</ele><time>2026-04-25T09:48:33.093Z</time></trkpt><trkpt lat="41.8302275" lon="1.5376256"><ele>788.0</ele><time>2026-04-25T09:48:34.094Z</time></trkpt><trkpt lat="41.830318" lon="1.537375"><ele>791.0</ele><time>2026-04-25T09:48:35.095Z</time></trkpt><trkpt lat="41.8304364" lon="1.537183"><ele>794.0</ele><time>2026-04-25T09:48:36.095Z</time></trkpt><trkpt lat="41.8305944" lon="1.5370416"><ele>801.5</ele><time>2026-04-25T09:48:37.094Z</time></trkpt><trkpt lat="41.8307973" lon="1.5369346"><ele>809.0</ele><time>2026-04-25T09:48:38.094Z</time></trkpt><trkpt lat="41.8310366" lon="1.5368435"><ele>812.0</ele><time>2026-04-25T09:48:39.093Z</time></trkpt><trkpt lat="41.8312599" lon="1.5367474"><ele>815.0</ele><time>2026-04-25T09:48:40.094Z</time></trkpt><trkpt lat="41.8314524" lon="1.536676"><ele>818.0</ele><time>2026-04-25T09:48:41.094Z</time></trkpt><trkpt lat="41.8316168" lon="1.5366512"><ele>818.0</ele><time>2026-04-25T09:48:42.094Z</time></trkpt><trkpt lat="41.8317594" lon="1.5366834"><ele>818.0</ele><time>2026-04-25T09:48:43.093Z</time></trkpt><trkpt lat="41.8318533" lon="1.5367796"><ele>818.0</ele><time>2026-04-25T09:48:44.094Z</time></trkpt><trkpt lat="41.8319051" lon="1.5369215"><ele>818.0</ele><time>2026-04-25T09:48:45.095Z</time></trkpt><trkpt lat="41.8319495" lon="1.5370628"><ele>816.6666666666667</ele><time>2026-04-25T09:48:46.094Z</time></trkpt><trkpt lat="41.8318637" lon="1.5373321"><ele>815.3333333333333</ele><time>2026-04-25T09:48:47.094Z</time></trkpt><trkpt lat="41.8318036" lon="1.5375769"><ele>814.0</ele><time>2026-04-25T09:48:48.094Z</time></trkpt><trkpt lat="41.8317736" lon="1.5377812"><ele>815.6666666666666</ele><time>2026-04-25T09:48:49.093Z</time></trkpt><trkpt lat="41.8317799" lon="1.5379967"><ele>817.3333333333333</ele><time>2026-04-25T09:48:50.093Z</time></trkpt><trkpt lat="41.8318296" lon="1.5382287"><ele>819.0</ele><time>2026-04-25T09:48:51.093Z</time></trkpt><trkpt lat="41.8318926" lon="1.5384488"><ele>823.0</ele><time>2026-04-25T09:48:52.094Z</time></trkpt><trkpt lat="41.831951" lon="1.5386163"><ele>827.0</ele><time>2026-04-25T09:48:53.094Z</time></trkpt><trkpt lat="41.8320404" lon="1.5387409"><ele>831.0</ele><time>2026-04-25T09:48:54.094Z</time></trkpt><trkpt lat="41.8321682" lon="1.5388221"><ele>835.0</ele><time>2026-04-25T09:48:55.093Z</time></trkpt><trkpt lat="41.8323372" lon="1.5388469"><ele>835.0</ele><time>2026-04-25T09:48:56.094Z</time></trkpt><trkpt lat="41.8325458" lon="1.5388312"><ele>835.0</ele><time>2026-04-25T09:48:57.093Z</time></trkpt><trkpt lat="41.8327751" lon="1.5388334"><ele>835.0</ele><time>2026-04-25T09:48:58.093Z</time></trkpt><trkpt lat="41.8329918" lon="1.5388986"><ele>843.6666666666666</ele><time>2026-04-25T09:48:59.094Z</time></trkpt><trkpt lat="41.8331889" lon="1.5390145"><ele>852.3333333333333</ele><time>2026-04-25T09:49:00.094Z</time></trkpt><trkpt lat="41.8333545" lon="1.5391852"><ele>861.0</ele><time>2026-04-25T09:49:01.094Z</time></trkpt><trkpt lat="41.8334905" lon="1.5393864"><ele>858.0</ele><time>2026-04-25T09:49:02.094Z</time></trkpt><trkpt lat="41.833589" lon="1.5395473"><ele>855.0</ele><time>2026-04-25T09:49:03.095Z</time></trkpt><trkpt lat="41.8336814" lon="1.5396567"><ele>852.0</ele><time>2026-04-25T09:49:04.094Z</time></trkpt><trkpt lat="41.8337829" lon="1.5396977"><ele>849.0</ele><time>2026-04-25T09:49:05.094Z</time></trkpt><trkpt lat="41.8338974" lon="1.5396565"><ele>849.0</ele><time>2026-04-25T09:49:06.094Z</time></trkpt><trkpt lat="41.8340047" lon="1.5396069"><ele>849.0</ele><time>2026-04-25T09:49:07.093Z</time></trkpt><trkpt lat="41.8342056" lon="1.5394108"><ele>849.0</ele><time>2026-04-25T09:49:08.094Z</time></trkpt><trkpt lat="41.8343923" lon="1.5392866"><ele>857.5</ele><time>2026-04-25T09:49:09.094Z</time></trkpt><trkpt lat="41.8346197" lon="1.5391425"><ele>866.0</ele><time>2026-04-25T09:49:10.094Z</time></trkpt><trkpt lat="41.8348408" lon="1.5389751"><ele>866.0</ele><time>2026-04-25T09:49:11.094Z</time></trkpt><trkpt lat="41.8350232" lon="1.5388152"><ele>866.0</ele><time>2026-04-25T09:49:12.094Z</time></trkpt><trkpt lat="41.8351883" lon="1.5386942"><ele>866.0</ele><time>2026-04-25T09:49:13.093Z</time></trkpt><trkpt lat="41.8353478" lon="1.5386277"><ele>874.3333333333334</ele><time>2026-04-25T09:49:14.094Z</time></trkpt><trkpt lat="41.8355285" lon="1.5386302"><ele>882.6666666666667</ele><time>2026-04-25T09:49:15.094Z</time></trkpt><trkpt lat="41.8357428" lon="1.5386695"><ele>891.0</ele><time>2026-04-25T09:49:16.093Z</time></trkpt><trkpt lat="41.835976" lon="1.5387338"><ele>891.0</ele><time>2026-04-25T09:49:17.094Z</time></trkpt><trkpt lat="41.8361671" lon="1.5387874"><ele>891.0</ele><time>2026-04-25T09:49:18.093Z</time></trkpt><trkpt lat="41.8363364" lon="1.5388517"><ele>891.0</ele><time>2026-04-25T09:49:19.095Z</time></trkpt><trkpt lat="41.8364977" lon="1.5389434"><ele>891.0</ele><time>2026-04-25T09:49:20.095Z</time></trkpt><trkpt lat="41.836655" lon="1.5390653"><ele>891.0</ele><time>2026-04-25T09:49:21.094Z</time></trkpt><trkpt lat="41.8368188" lon="1.5392122"><ele>891.0</ele><time>2026-04-25T09:49:22.094Z</time></trkpt><trkpt lat="41.8369857" lon="1.5393498"><ele>892.25</ele><time>2026-04-25T09:49:23.094Z</time></trkpt><trkpt lat="41.8371258" lon="1.5394649"><ele>893.5</ele><time>2026-04-25T09:49:24.095Z</time></trkpt><trkpt lat="41.8372524" lon="1.5395646"><ele>894.75</ele><time>2026-04-25T09:49:25.094Z</time></trkpt><trkpt lat="41.8373638" lon="1.539638"><ele>896.0</ele><time>2026-04-25T09:49:26.094Z</time></trkpt><trkpt lat="41.8374732" lon="1.5396841"><ele>896.0</ele><time>2026-04-25T09:49:27.094Z</time></trkpt><trkpt lat="41.8375807" lon="1.5396972"><ele>895.9999999999999</ele><time>2026-04-25T09:49:28.093Z</time></trkpt><trkpt lat="41.8376733" lon="1.5396939"><ele>895.9999999999999</ele><time>2026-04-25T09:49:29.094Z</time></trkpt><trkpt lat="41.8377527" lon="1.53969"><ele>896.0</ele><time>2026-04-25T09:49:30.094Z</time></trkpt><trkpt lat="41.8378175" lon="1.5396938"><ele>896.0</ele><time>2026-04-25T09:49:31.093Z</time></trkpt><trkpt lat="41.837918" lon="1.5397653"><ele>896.8333333333334</ele><time>2026-04-25T09:49:33.094Z</time></trkpt><trkpt lat="41.8379479" lon="1.5398743"><ele>897.6666666666667</ele><time>2026-04-25T09:49:35.094Z</time></trkpt><trkpt lat="41.8380084" lon="1.5398369"><ele>898.5</ele><time>2026-04-25T10:15:28.095Z</time></trkpt><trkpt lat="41.8380836" lon="1.5398445"><ele>899.3333333333333</ele><time>2026-04-25T10:16:23.094Z</time></trkpt><trkpt lat="41.8381736" lon="1.5399184"><ele>900.1666666666666</ele><time>2026-04-25T10:16:26.094Z</time></trkpt><trkpt lat="41.8382339" lon="1.5399615"><ele>901.0</ele><time>2026-04-25T10:16:27.094Z</time></trkpt><trkpt lat="41.8382847" lon="1.5400122"><ele>900.9999999999999</ele><time>2026-04-25T10:16:28.094Z</time></trkpt><trkpt lat="41.8383351" lon="1.5400738"><ele>901.0</ele><time>2026-04-25T10:16:29.094Z</time></trkpt><trkpt lat="41.838384" lon="1.5401482"><ele>901.0</ele><time>2026-04-25T10:16:30.094Z</time></trkpt><trkpt lat="41.8384296" lon="1.5402351"><ele>901.0</ele><time>2026-04-25T10:16:31.094Z</time></trkpt><trkpt lat="41.8384737" lon="1.5403271"><ele>900.9999999999999</ele><time>2026-04-25T10:16:32.094Z</time></trkpt><trkpt lat="41.8385173" lon="1.5404211"><ele>901.0</ele><time>2026-04-25T10:16:33.094Z</time></trkpt><trkpt lat="41.8385646" lon="1.5405204"><ele>898.9999999999999</ele><time>2026-04-25T10:16:34.093Z</time></trkpt><trkpt lat="41.8386137" lon="1.5406176"><ele>897.0</ele><time>2026-04-25T10:16:35.094Z</time></trkpt><trkpt lat="41.8386714" lon="1.5407007"><ele>895.0</ele><time>2026-04-25T10:16:36.093Z</time></trkpt><trkpt lat="41.8387404" lon="1.5407684"><ele>893.0</ele><time>2026-04-25T10:16:37.093Z</time></trkpt><trkpt lat="41.8388163" lon="1.540819"><ele>890.9999999999999</ele><time>2026-04-25T10:16:38.094Z</time></trkpt><trkpt lat="41.8388969" lon="1.5408662"><ele>889.0</ele><time>2026-04-25T10:16:39.094Z</time></trkpt><trkpt lat="41.8389782" lon="1.5409088"><ele>889.0</ele><time>2026-04-25T10:16:40.094Z</time></trkpt><trkpt lat="41.8390593" lon="1.5409585"><ele>889.0000000000001</ele><time>2026-04-25T10:16:41.093Z</time></trkpt><trkpt lat="41.8391333" lon="1.5410252"><ele>889.0000000000001</ele><time>2026-04-25T10:16:42.093Z</time></trkpt><trkpt lat="41.8391967" lon="1.5411122"><ele>889.0</ele><time>2026-04-25T10:16:43.094Z</time></trkpt><trkpt lat="41.8392435" lon="1.5412205"><ele>889.0</ele><time>2026-04-25T10:16:44.095Z</time></trkpt><trkpt lat="41.8392754" lon="1.5413527"><ele>887.25</ele><time>2026-04-25T10:16:45.094Z</time></trkpt><trkpt lat="41.8393137" lon="1.5414969"><ele>885.5</ele><time>2026-04-25T10:16:46.094Z</time></trkpt><trkpt lat="41.8393748" lon="1.5416439"><ele>883.75</ele><time>2026-04-25T10:16:47.093Z</time></trkpt><trkpt lat="41.8394465" lon="1.5417867"><ele>882.0</ele><time>2026-04-25T10:16:48.094Z</time></trkpt><trkpt lat="41.8395298" lon="1.541927"><ele>884.75</ele><time>2026-04-25T10:16:49.093Z</time></trkpt><trkpt lat="41.8396252" lon="1.5420621"><ele>887.5</ele><time>2026-04-25T10:16:50.094Z</time></trkpt><trkpt lat="41.8397272" lon="1.5421881"><ele>890.25</ele><time>2026-04-25T10:16:51.094Z</time></trkpt><trkpt lat="41.839824" lon="1.5423025"><ele>893.0</ele><time>2026-04-25T10:16:52.094Z</time></trkpt><trkpt lat="41.8399204" lon="1.5424051"><ele>893.0</ele><time>2026-04-25T10:16:53.093Z</time></trkpt><trkpt lat="41.8400269" lon="1.5424718"><ele>893.0</ele><time>2026-04-25T10:16:54.093Z</time></trkpt><trkpt lat="41.8401453" lon="1.5424954"><ele>893.0</ele><time>2026-04-25T10:16:55.094Z</time></trkpt><trkpt lat="41.8402732" lon="1.542491"><ele>893.0</ele><time>2026-04-25T10:16:56.094Z</time></trkpt><trkpt lat="41.8404068" lon="1.5424905"><ele>892.5</ele><time>2026-04-25T10:16:57.094Z</time></trkpt><trkpt lat="41.8405461" lon="1.5425061"><ele>892.0</ele><time>2026-04-25T10:16:58.094Z</time></trkpt><trkpt lat="41.8406851" lon="1.5425541"><ele>891.5</ele><time>2026-04-25T10:16:59.093Z</time></trkpt><trkpt lat="41.8408295" lon="1.5426208"><ele>891.0</ele><time>2026-04-25T10:17:00.094Z</time></trkpt><trkpt lat="41.8409749" lon="1.5426884"><ele>892.0</ele><time>2026-04-25T10:17:01.093Z</time></trkpt><trkpt lat="41.841124" lon="1.5427615"><ele>893.0</ele><time>2026-04-25T10:17:02.094Z</time></trkpt><trkpt lat="41.8412671" lon="1.5428355"><ele>894.0</ele><time>2026-04-25T10:17:03.093Z</time></trkpt><trkpt lat="41.8413986" lon="1.5429187"><ele>894.0</ele><time>2026-04-25T10:17:04.094Z</time></trkpt><trkpt lat="41.8415211" lon="1.5430084"><ele>894.0</ele><time>2026-04-25T10:17:05.094Z</time></trkpt><trkpt lat="41.8416501" lon="1.5430793"><ele>894.0</ele><time>2026-04-25T10:17:06.093Z</time></trkpt><trkpt lat="41.8417903" lon="1.5431088"><ele>894.0</ele><time>2026-04-25T10:17:07.094Z</time></trkpt><trkpt lat="41.841935" lon="1.5431011"><ele>893.0</ele><time>2026-04-25T10:17:08.094Z</time></trkpt><trkpt lat="41.8420866" lon="1.5430721"><ele>892.0</ele><time>2026-04-25T10:17:09.093Z</time></trkpt><trkpt lat="41.8422328" lon="1.5430541"><ele>891.0</ele><time>2026-04-25T10:17:10.094Z</time></trkpt><trkpt lat="41.8423754" lon="1.543069"><ele>890.0</ele><time>2026-04-25T10:17:11.094Z</time></trkpt><trkpt lat="41.8425116" lon="1.5431287"><ele>887.3333333333334</ele><time>2026-04-25T10:17:12.094Z</time></trkpt><trkpt lat="41.8426428" lon="1.543222"><ele>884.6666666666667</ele><time>2026-04-25T10:17:13.093Z</time></trkpt><trkpt lat="41.8427691" lon="1.5433465"><ele>882.0</ele><time>2026-04-25T10:17:14.094Z</time></trkpt><trkpt lat="41.842871" lon="1.5435192"><ele>882.0</ele><time>2026-04-25T10:17:15.094Z</time></trkpt><trkpt lat="41.8429868" lon="1.5436951"><ele>882.0</ele><time>2026-04-25T10:17:16.093Z</time></trkpt><trkpt lat="41.8431139" lon="1.5438755"><ele>882.0</ele><time>2026-04-25T10:17:17.095Z</time></trkpt><trkpt lat="41.8432403" lon="1.5440615"><ele>882.6666666666667</ele><time>2026-04-25T10:17:18.093Z</time></trkpt><trkpt lat="41.8433486" lon="1.5442688"><ele>883.3333333333334</ele><time>2026-04-25T10:17:19.094Z</time></trkpt><trkpt lat="41.8434417" lon="1.5444961"><ele>884.0</ele><time>2026-04-25T10:17:20.094Z</time></trkpt><trkpt lat="41.8435241" lon="1.5447276"><ele>879.0</ele><time>2026-04-25T10:17:21.094Z</time></trkpt><trkpt lat="41.8435998" lon="1.5449445"><ele>874.0</ele><time>2026-04-25T10:17:22.094Z</time></trkpt><trkpt lat="41.8436852" lon="1.5451353"><ele>869.0</ele><time>2026-04-25T10:17:23.093Z</time></trkpt><trkpt lat="41.8438016" lon="1.5452756"><ele>868.3333333333334</ele><time>2026-04-25T10:17:24.094Z</time></trkpt><trkpt lat="41.8439467" lon="1.5454074"><ele>867.6666666666667</ele><time>2026-04-25T10:17:25.093Z</time></trkpt><trkpt lat="41.8441163" lon="1.5455247"><ele>867.0</ele><time>2026-04-25T10:17:26.093Z</time></trkpt><trkpt lat="41.8443017" lon="1.5456413"><ele>859.0</ele><time>2026-04-25T10:17:27.093Z</time></trkpt><trkpt lat="41.8444972" lon="1.5457813"><ele>851.0</ele><time>2026-04-25T10:17:28.093Z</time></trkpt><trkpt lat="41.8446903" lon="1.5459447"><ele>851.0</ele><time>2026-04-25T10:17:29.094Z</time></trkpt><trkpt lat="41.8448813" lon="1.5461158"><ele>851.0</ele><time>2026-04-25T10:17:30.094Z</time></trkpt><trkpt lat="41.8450693" lon="1.5462788"><ele>848.6666666666667</ele><time>2026-04-25T10:17:31.093Z</time></trkpt><trkpt lat="41.8452572" lon="1.5464362"><ele>846.3333333333333</ele><time>2026-04-25T10:17:32.094Z</time></trkpt><trkpt lat="41.8454412" lon="1.5465825"><ele>844.0</ele><time>2026-04-25T10:17:33.093Z</time></trkpt><trkpt lat="41.8456183" lon="1.5467269"><ele>844.0</ele><time>2026-04-25T10:17:34.093Z</time></trkpt><trkpt lat="41.8457784" lon="1.5468922"><ele>844.0</ele><time>2026-04-25T10:17:35.094Z</time></trkpt><trkpt lat="41.8459207" lon="1.5470807"><ele>844.0</ele><time>2026-04-25T10:17:36.094Z</time></trkpt><trkpt lat="41.8460737" lon="1.5472507"><ele>844.3333333333333</ele><time>2026-04-25T10:17:37.094Z</time></trkpt><trkpt lat="41.8462521" lon="1.5473815"><ele>844.6666666666667</ele><time>2026-04-25T10:17:38.094Z</time></trkpt><trkpt lat="41.846447" lon="1.5474841"><ele>845.0</ele><time>2026-04-25T10:17:39.093Z</time></trkpt><trkpt lat="41.846646" lon="1.5475767"><ele>846.3333333333334</ele><time>2026-04-25T10:17:40.094Z</time></trkpt><trkpt lat="41.8468286" lon="1.547679"><ele>847.6666666666667</ele><time>2026-04-25T10:17:41.094Z</time></trkpt><trkpt lat="41.8469995" lon="1.5478216"><ele>849.0</ele><time>2026-04-25T10:17:42.093Z</time></trkpt><trkpt lat="41.8471658" lon="1.5479834"><ele>849.0</ele><time>2026-04-25T10:17:43.094Z</time></trkpt><trkpt lat="41.8473285" lon="1.5481651"><ele>849.0</ele><time>2026-04-25T10:17:44.094Z</time></trkpt><trkpt lat="41.8474898" lon="1.5483539"><ele>849.0</ele><time>2026-04-25T10:17:45.093Z</time></trkpt><trkpt lat="41.8476492" lon="1.5485377"><ele>848.0</ele><time>2026-04-25T10:17:46.094Z</time></trkpt><trkpt lat="41.8478162" lon="1.5487011"><ele>847.0</ele><time>2026-04-25T10:17:47.094Z</time></trkpt><trkpt lat="41.8480016" lon="1.5488459"><ele>846.0</ele><time>2026-04-25T10:17:48.094Z</time></trkpt><trkpt lat="41.8481952" lon="1.5489855"><ele>846.0</ele><time>2026-04-25T10:17:49.094Z</time></trkpt><trkpt lat="41.8483733" lon="1.5491232"><ele>846.0</ele><time>2026-04-25T10:17:50.094Z</time></trkpt><trkpt lat="41.8485604" lon="1.5492446"><ele>846.0</ele><time>2026-04-25T10:17:51.093Z</time></trkpt><trkpt lat="41.8487585" lon="1.5493241"><ele>843.3333333333333</ele><time>2026-04-25T10:17:52.095Z</time></trkpt><trkpt lat="41.8489514" lon="1.5493642"><ele>840.6666666666666</ele><time>2026-04-25T10:17:53.094Z</time></trkpt><trkpt lat="41.8491431" lon="1.5493625"><ele>838.0</ele><time>2026-04-25T10:17:54.094Z</time></trkpt><trkpt lat="41.8493418" lon="1.5493053"><ele>836.3333333333333</ele><time>2026-04-25T10:17:55.094Z</time></trkpt><trkpt lat="41.8495511" lon="1.5492321"><ele>834.6666666666667</ele><time>2026-04-25T10:17:56.094Z</time></trkpt><trkpt lat="41.8497715" lon="1.5491996"><ele>833.0</ele><time>2026-04-25T10:17:57.094Z</time></trkpt><trkpt lat="41.8499855" lon="1.5492266"><ele>834.0</ele><time>2026-04-25T10:17:58.094Z</time></trkpt><trkpt lat="41.8501915" lon="1.5492863"><ele>835.0</ele><time>2026-04-25T10:17:59.094Z</time></trkpt><trkpt lat="41.8503954" lon="1.5493318"><ele>836.0</ele><time>2026-04-25T10:18:00.094Z</time></trkpt><trkpt lat="41.8505951" lon="1.5493445"><ele>836.0</ele><time>2026-04-25T10:18:01.094Z</time></trkpt><trkpt lat="41.850791" lon="1.5493214"><ele>836.0</ele><time>2026-04-25T10:18:02.093Z</time></trkpt><trkpt lat="41.8509923" lon="1.5492763"><ele>836.0</ele><time>2026-04-25T10:18:03.093Z</time></trkpt><trkpt lat="41.8512013" lon="1.5492267"><ele>836.0</ele><time>2026-04-25T10:18:04.094Z</time></trkpt><trkpt lat="41.8514177" lon="1.5491917"><ele>836.0</ele><time>2026-04-25T10:18:05.094Z</time></trkpt><trkpt lat="41.8516435" lon="1.549187"><ele>836.0</ele><time>2026-04-25T10:18:06.094Z</time></trkpt><trkpt lat="41.8518709" lon="1.549183"><ele>832.0</ele><time>2026-04-25T10:18:07.094Z</time></trkpt><trkpt lat="41.8521099" lon="1.5491679"><ele>828.0</ele><time>2026-04-25T10:18:08.094Z</time></trkpt><trkpt lat="41.8523525" lon="1.5491445"><ele>828.0</ele><time>2026-04-25T10:18:09.094Z</time></trkpt><trkpt lat="41.8525806" lon="1.549107"><ele>828.0</ele><time>2026-04-25T10:18:10.094Z</time></trkpt><trkpt lat="41.8528044" lon="1.5490327"><ele>827.5</ele><time>2026-04-25T10:18:11.095Z</time></trkpt><trkpt lat="41.8530235" lon="1.5489379"><ele>827.0</ele><time>2026-04-25T10:18:12.094Z</time></trkpt><trkpt lat="41.8532383" lon="1.5488469"><ele>827.0</ele><time>2026-04-25T10:18:13.094Z</time></trkpt><trkpt lat="41.8534428" lon="1.5487847"><ele>827.0</ele><time>2026-04-25T10:18:14.095Z</time></trkpt><trkpt lat="41.8536361" lon="1.5487804"><ele>827.0</ele><time>2026-04-25T10:18:15.093Z</time></trkpt><trkpt lat="41.8538323" lon="1.5488177"><ele>826.6666666666667</ele><time>2026-04-25T10:18:16.093Z</time></trkpt><trkpt lat="41.8540269" lon="1.5488884"><ele>826.3333333333333</ele><time>2026-04-25T10:18:17.094Z</time></trkpt><trkpt lat="41.8542167" lon="1.5489517"><ele>826.0</ele><time>2026-04-25T10:18:18.093Z</time></trkpt><trkpt lat="41.854407" lon="1.5490105"><ele>826.0</ele><time>2026-04-25T10:18:19.094Z</time></trkpt><trkpt lat="41.8546047" lon="1.5490773"><ele>826.0</ele><time>2026-04-25T10:18:20.094Z</time></trkpt><trkpt lat="41.8548152" lon="1.5491702"><ele>826.0</ele><time>2026-04-25T10:18:21.093Z</time></trkpt><trkpt lat="41.8550342" lon="1.5492822"><ele>821.0</ele><time>2026-04-25T10:18:22.093Z</time></trkpt><trkpt lat="41.8552642" lon="1.5494093"><ele>816.0</ele><time>2026-04-25T10:18:23.094Z</time></trkpt><trkpt lat="41.8555028" lon="1.5495452"><ele>816.0</ele><time>2026-04-25T10:18:24.093Z</time></trkpt><trkpt lat="41.8557473" lon="1.5496893"><ele>816.0</ele><time>2026-04-25T10:18:25.093Z</time></trkpt><trkpt lat="41.8560033" lon="1.5498332"><ele>812.5</ele><time>2026-04-25T10:18:26.093Z</time></trkpt><trkpt lat="41.8562482" lon="1.5499817"><ele>809.0</ele><time>2026-04-25T10:18:27.094Z</time></trkpt><trkpt lat="41.8564779" lon="1.5501338"><ele>809.0</ele><time>2026-04-25T10:18:28.094Z</time></trkpt><trkpt lat="41.8566917" lon="1.5502953"><ele>809.0</ele><time>2026-04-25T10:18:29.094Z</time></trkpt><trkpt lat="41.8568903" lon="1.5504582"><ele>809.3333333333334</ele><time>2026-04-25T10:18:30.093Z</time></trkpt><trkpt lat="41.8570726" lon="1.550614"><ele>809.6666666666667</ele><time>2026-04-25T10:18:31.094Z</time></trkpt><trkpt lat="41.8572442" lon="1.5507683"><ele>810.0</ele><time>2026-04-25T10:18:32.094Z</time></trkpt><trkpt lat="41.8574101" lon="1.5509177"><ele>810.0</ele><time>2026-04-25T10:18:33.093Z</time></trkpt><trkpt lat="41.8575619" lon="1.5510598"><ele>810.0</ele><time>2026-04-25T10:18:34.093Z</time></trkpt><trkpt lat="41.8577087" lon="1.5511957"><ele>810.0</ele><time>2026-04-25T10:18:35.093Z</time></trkpt><trkpt lat="41.857842" lon="1.5513135"><ele>809.5</ele><time>2026-04-25T10:18:36.094Z</time></trkpt><trkpt lat="41.8579645" lon="1.5514139"><ele>809.0</ele><time>2026-04-25T10:18:37.094Z</time></trkpt><trkpt lat="41.8580819" lon="1.5515076"><ele>808.5</ele><time>2026-04-25T10:18:38.094Z</time></trkpt><trkpt lat="41.8581989" lon="1.5516185"><ele>808.0</ele><time>2026-04-25T10:18:39.094Z</time></trkpt><trkpt lat="41.8583184" lon="1.5517519"><ele>808.0</ele><time>2026-04-25T10:18:40.094Z</time></trkpt><trkpt lat="41.8584506" lon="1.5518984"><ele>808.0</ele><time>2026-04-25T10:18:41.093Z</time></trkpt><trkpt lat="41.858591" lon="1.5520513"><ele>808.0</ele><time>2026-04-25T10:18:42.095Z</time></trkpt><trkpt lat="41.8587427" lon="1.5522181"><ele>807.0</ele><time>2026-04-25T10:18:43.095Z</time></trkpt><trkpt lat="41.8589022" lon="1.5523865"><ele>806.0</ele><time>2026-04-25T10:18:44.094Z</time></trkpt><trkpt lat="41.8590687" lon="1.5525668"><ele>805.0</ele><time>2026-04-25T10:18:45.093Z</time></trkpt><trkpt lat="41.8592391" lon="1.5527589"><ele>805.5</ele><time>2026-04-25T10:18:46.095Z</time></trkpt><trkpt lat="41.8594144" lon="1.5529584"><ele>806.0</ele><time>2026-04-25T10:18:47.094Z</time></trkpt><trkpt lat="41.859594" lon="1.5531621"><ele>806.0</ele><time>2026-04-25T10:18:48.094Z</time></trkpt><trkpt lat="41.8597773" lon="1.5533655"><ele>806.0</ele><time>2026-04-25T10:18:49.094Z</time></trkpt><trkpt lat="41.8599639" lon="1.5535741"><ele>804.0</ele><time>2026-04-25T10:18:50.094Z</time></trkpt><trkpt lat="41.8601445" lon="1.5537811"><ele>802.0</ele><time>2026-04-25T10:18:51.094Z</time></trkpt><trkpt lat="41.8603222" lon="1.5539731"><ele>802.0</ele><time>2026-04-25T10:18:52.093Z</time></trkpt><trkpt lat="41.8605124" lon="1.5541428"><ele>802.0</ele><time>2026-04-25T10:18:53.094Z</time></trkpt><trkpt lat="41.8607184" lon="1.5543001"><ele>802.0</ele><time>2026-04-25T10:18:54.095Z</time></trkpt><trkpt lat="41.8609284" lon="1.5544637"><ele>802.0</ele><time>2026-04-25T10:18:55.094Z</time></trkpt><trkpt lat="41.8611378" lon="1.5546402"><ele>801.0</ele><time>2026-04-25T10:18:56.094Z</time></trkpt><trkpt lat="41.8613467" lon="1.5548146"><ele>800.0</ele><time>2026-04-25T10:18:57.094Z</time></trkpt><trkpt lat="41.861561" lon="1.5549693"><ele>800.0</ele><time>2026-04-25T10:18:58.093Z</time></trkpt><trkpt lat="41.8617801" lon="1.5550869"><ele>800.0</ele><time>2026-04-25T10:18:59.094Z</time></trkpt><trkpt lat="41.8620012" lon="1.5551818"><ele>802.5</ele><time>2026-04-25T10:19:00.095Z</time></trkpt><trkpt lat="41.8622066" lon="1.5553079"><ele>805.0</ele><time>2026-04-25T10:19:01.094Z</time></trkpt><trkpt lat="41.8623991" lon="1.5554776"><ele>805.0</ele><time>2026-04-25T10:19:02.094Z</time></trkpt><trkpt lat="41.8625843" lon="1.5556639"><ele>805.0</ele><time>2026-04-25T10:19:03.093Z</time></trkpt><trkpt lat="41.8627671" lon="1.5558492"><ele>806.0</ele><time>2026-04-25T10:19:04.094Z</time></trkpt><trkpt lat="41.8629343" lon="1.5560109"><ele>807.0</ele><time>2026-04-25T10:19:05.093Z</time></trkpt><trkpt lat="41.863111" lon="1.5561334"><ele>808.0</ele><time>2026-04-25T10:19:06.094Z</time></trkpt><trkpt lat="41.8633053" lon="1.5562024"><ele>806.0</ele><time>2026-04-25T10:19:07.094Z</time></trkpt><trkpt lat="41.8635163" lon="1.5562463"><ele>804.0</ele><time>2026-04-25T10:19:08.094Z</time></trkpt><trkpt lat="41.8637421" lon="1.5563036"><ele>802.0</ele><time>2026-04-25T10:19:09.093Z</time></trkpt><trkpt lat="41.8639734" lon="1.5563728"><ele>802.0</ele><time>2026-04-25T10:19:10.094Z</time></trkpt><trkpt lat="41.864206" lon="1.5564463"><ele>802.0</ele><time>2026-04-25T10:19:11.094Z</time></trkpt><trkpt lat="41.864428" lon="1.5565028"><ele>800.3333333333333</ele><time>2026-04-25T10:19:12.095Z</time></trkpt><trkpt lat="41.8646429" lon="1.5564992"><ele>798.6666666666667</ele><time>2026-04-25T10:19:13.093Z</time></trkpt><trkpt lat="41.8648343" lon="1.5564614"><ele>797.0</ele><time>2026-04-25T10:19:14.094Z</time></trkpt><trkpt lat="41.8650049" lon="1.5563714"><ele>798.3333333333334</ele><time>2026-04-25T10:19:15.094Z</time></trkpt><trkpt lat="41.8651485" lon="1.5562323"><ele>799.6666666666667</ele><time>2026-04-25T10:19:16.094Z</time></trkpt><trkpt lat="41.8652699" lon="1.5560809"><ele>801.0</ele><time>2026-04-25T10:19:17.094Z</time></trkpt><trkpt lat="41.8654142" lon="1.5559622"><ele>801.6666666666667</ele><time>2026-04-25T10:19:18.094Z</time></trkpt><trkpt lat="41.865598" lon="1.5558779"><ele>802.3333333333334</ele><time>2026-04-25T10:19:19.094Z</time></trkpt><trkpt lat="41.865791" lon="1.5558162"><ele>803.0</ele><time>2026-04-25T10:19:20.094Z</time></trkpt><trkpt lat="41.8659884" lon="1.5557524"><ele>803.0</ele><time>2026-04-25T10:19:21.095Z</time></trkpt><trkpt lat="41.8661826" lon="1.5556978"><ele>803.0</ele><time>2026-04-25T10:19:22.094Z</time></trkpt><trkpt lat="41.8663774" lon="1.5556286"><ele>803.0</ele><time>2026-04-25T10:19:23.094Z</time></trkpt><trkpt lat="41.8665783" lon="1.5555462"><ele>801.3333333333334</ele><time>2026-04-25T10:19:24.094Z</time></trkpt><trkpt lat="41.8667883" lon="1.5554578"><ele>799.6666666666667</ele><time>2026-04-25T10:19:25.094Z</time></trkpt><trkpt lat="41.8670026" lon="1.5553628"><ele>798.0</ele><time>2026-04-25T10:19:26.094Z</time></trkpt><trkpt lat="41.8672143" lon="1.5552371"><ele>798.0</ele><time>2026-04-25T10:19:27.094Z</time></trkpt><trkpt lat="41.8674282" lon="1.555091"><ele>798.0</ele><time>2026-04-25T10:19:28.094Z</time></trkpt><trkpt lat="41.8676337" lon="1.5549687"><ele>796.6666666666667</ele><time>2026-04-25T10:19:29.095Z</time></trkpt><trkpt lat="41.8678294" lon="1.5548803"><ele>795.3333333333334</ele><time>2026-04-25T10:19:30.094Z</time></trkpt><trkpt lat="41.8680179" lon="1.5548409"><ele>794.0</ele><time>2026-04-25T10:19:31.093Z</time></trkpt><trkpt lat="41.8682026" lon="1.5548687"><ele>794.0</ele><time>2026-04-25T10:19:32.093Z</time></trkpt><trkpt lat="41.8683982" lon="1.554945"><ele>794.0</ele><time>2026-04-25T10:19:33.093Z</time></trkpt><trkpt lat="41.8686051" lon="1.5550183"><ele>794.0</ele><time>2026-04-25T10:19:34.094Z</time></trkpt><trkpt lat="41.8688279" lon="1.5550948"><ele>792.5</ele><time>2026-04-25T10:19:35.095Z</time></trkpt><trkpt lat="41.8690587" lon="1.5551712"><ele>791.0</ele><time>2026-04-25T10:19:36.093Z</time></trkpt><trkpt lat="41.8693001" lon="1.5552174"><ele>788.5</ele><time>2026-04-25T10:19:37.094Z</time></trkpt><trkpt lat="41.8695503" lon="1.5552428"><ele>786.0</ele><time>2026-04-25T10:19:38.094Z</time></trkpt><trkpt lat="41.8698073" lon="1.5552557"><ele>786.0</ele><time>2026-04-25T10:19:39.094Z</time></trkpt><trkpt lat="41.870052" lon="1.5552898"><ele>786.0</ele><time>2026-04-25T10:19:40.094Z</time></trkpt><trkpt lat="41.8702912" lon="1.5553552"><ele>782.5</ele><time>2026-04-25T10:19:41.093Z</time></trkpt><trkpt lat="41.8705285" lon="1.5554366"><ele>779.0</ele><time>2026-04-25T10:19:42.095Z</time></trkpt><trkpt lat="41.8707647" lon="1.5555017"><ele>778.3333333333334</ele><time>2026-04-25T10:19:43.093Z</time></trkpt><trkpt lat="41.8709892" lon="1.5555421"><ele>777.6666666666667</ele><time>2026-04-25T10:19:44.093Z</time></trkpt><trkpt lat="41.8711975" lon="1.5555474"><ele>777.0</ele><time>2026-04-25T10:19:45.093Z</time></trkpt><trkpt lat="41.8714" lon="1.5555108"><ele>777.0</ele><time>2026-04-25T10:19:46.094Z</time></trkpt><trkpt lat="41.8716131" lon="1.5554514"><ele>777.0</ele><time>2026-04-25T10:19:47.093Z</time></trkpt><trkpt lat="41.8718007" lon="1.5554432"><ele>777.0</ele><time>2026-04-25T10:19:48.094Z</time></trkpt><trkpt lat="41.8719803" lon="1.5555048"><ele>776.0</ele><time>2026-04-25T10:19:49.094Z</time></trkpt><trkpt lat="41.8721503" lon="1.5556329"><ele>775.0</ele><time>2026-04-25T10:19:50.094Z</time></trkpt><trkpt lat="41.8723256" lon="1.5557977"><ele>774.0</ele><time>2026-04-25T10:19:51.095Z</time></trkpt><trkpt lat="41.8725235" lon="1.5559558"><ele>775.5</ele><time>2026-04-25T10:19:52.094Z</time></trkpt><trkpt lat="41.872733" lon="1.5561108"><ele>777.0</ele><time>2026-04-25T10:19:53.094Z</time></trkpt><trkpt lat="41.872934" lon="1.5562599"><ele>774.6666666666667</ele><time>2026-04-25T10:19:54.094Z</time></trkpt><trkpt lat="41.8731232" lon="1.5564176"><ele>772.3333333333334</ele><time>2026-04-25T10:19:55.094Z</time></trkpt><trkpt lat="41.8732928" lon="1.5565987"><ele>770.0</ele><time>2026-04-25T10:19:56.093Z</time></trkpt><trkpt lat="41.8734415" lon="1.5567886"><ele>769.0</ele><time>2026-04-25T10:19:57.094Z</time></trkpt><trkpt lat="41.8735594" lon="1.5569957"><ele>768.0</ele><time>2026-04-25T10:19:58.095Z</time></trkpt><trkpt lat="41.873654" lon="1.5572007"><ele>767.0</ele><time>2026-04-25T10:19:59.093Z</time></trkpt><trkpt lat="41.8737745" lon="1.5573624"><ele>764.0</ele><time>2026-04-25T10:20:00.093Z</time></trkpt><trkpt lat="41.8739223" lon="1.5574938"><ele>761.0</ele><time>2026-04-25T10:20:01.094Z</time></trkpt><trkpt lat="41.8741084" lon="1.5575714"><ele>758.0</ele><time>2026-04-25T10:20:02.094Z</time></trkpt><trkpt lat="41.8743249" lon="1.5575989"><ele>757.5</ele><time>2026-04-25T10:20:03.094Z</time></trkpt><trkpt lat="41.874559" lon="1.5575958"><ele>757.0</ele><time>2026-04-25T10:20:04.093Z</time></trkpt><trkpt lat="41.874807" lon="1.5575858"><ele>757.0</ele><time>2026-04-25T10:20:05.094Z</time></trkpt><trkpt lat="41.8750455" lon="1.557613"><ele>757.0</ele><time>2026-04-25T10:20:06.094Z</time></trkpt><trkpt lat="41.8752705" lon="1.5576595"><ele>756.3333333333334</ele><time>2026-04-25T10:20:07.094Z</time></trkpt><trkpt lat="41.8754872" lon="1.5577333"><ele>755.6666666666666</ele><time>2026-04-25T10:20:08.093Z</time></trkpt><trkpt lat="41.8756859" lon="1.5578517"><ele>755.0</ele><time>2026-04-25T10:20:09.093Z</time></trkpt><trkpt lat="41.8758802" lon="1.5580109"><ele>753.5</ele><time>2026-04-25T10:20:10.094Z</time></trkpt><trkpt lat="41.8760697" lon="1.5581964"><ele>752.0</ele><time>2026-04-25T10:20:11.093Z</time></trkpt><trkpt lat="41.8762453" lon="1.5583882"><ele>752.0</ele><time>2026-04-25T10:20:12.094Z</time></trkpt><trkpt lat="41.8764003" lon="1.5585751"><ele>752.0</ele><time>2026-04-25T10:20:13.095Z</time></trkpt><trkpt lat="41.8765146" lon="1.5587846"><ele>752.0</ele><time>2026-04-25T10:20:14.095Z</time></trkpt><trkpt lat="41.8765963" lon="1.559026"><ele>752.0</ele><time>2026-04-25T10:20:15.094Z</time></trkpt><trkpt lat="41.8766446" lon="1.5592965"><ele>752.0</ele><time>2026-04-25T10:20:16.095Z</time></trkpt><trkpt lat="41.8766695" lon="1.5595817"><ele>752.0</ele><time>2026-04-25T10:20:17.094Z</time></trkpt><trkpt lat="41.8767071" lon="1.559873"><ele>752.0</ele><time>2026-04-25T10:20:18.094Z</time></trkpt><trkpt lat="41.8767506" lon="1.5601733"><ele>752.0</ele><time>2026-04-25T10:20:19.094Z</time></trkpt><trkpt lat="41.876804" lon="1.5604864"><ele>757.5</ele><time>2026-04-25T10:20:20.095Z</time></trkpt><trkpt lat="41.8768622" lon="1.5608013"><ele>763.0</ele><time>2026-04-25T10:20:21.094Z</time></trkpt><trkpt lat="41.8769255" lon="1.5611082"><ele>763.3333333333334</ele><time>2026-04-25T10:20:22.094Z</time></trkpt><trkpt lat="41.8769967" lon="1.5613842"><ele>763.6666666666666</ele><time>2026-04-25T10:20:23.093Z</time></trkpt><trkpt lat="41.8770703" lon="1.5616265"><ele>764.0</ele><time>2026-04-25T10:20:24.093Z</time></trkpt><trkpt lat="41.8771516" lon="1.5618319"><ele>764.0</ele><time>2026-04-25T10:20:25.093Z</time></trkpt><trkpt lat="41.8772718" lon="1.5619696"><ele>764.0</ele><time>2026-04-25T10:20:26.094Z</time></trkpt><trkpt lat="41.877407" lon="1.5620713"><ele>764.0</ele><time>2026-04-25T10:20:27.093Z</time></trkpt><trkpt lat="41.8775715" lon="1.5621143"><ele>758.3333333333333</ele><time>2026-04-25T10:20:28.094Z</time></trkpt><trkpt lat="41.8777658" lon="1.5621119"><ele>752.6666666666666</ele><time>2026-04-25T10:20:29.093Z</time></trkpt><trkpt lat="41.8779717" lon="1.5621162"><ele>747.0</ele><time>2026-04-25T10:20:30.094Z</time></trkpt><trkpt lat="41.8781979" lon="1.5621576"><ele>747.0</ele><time>2026-04-25T10:20:31.094Z</time></trkpt><trkpt lat="41.8784339" lon="1.5622193"><ele>747.0</ele><time>2026-04-25T10:20:32.093Z</time></trkpt><trkpt lat="41.8786801" lon="1.5622926"><ele>748.5</ele><time>2026-04-25T10:20:33.093Z</time></trkpt><trkpt lat="41.8789264" lon="1.5623819"><ele>750.0</ele><time>2026-04-25T10:20:34.094Z</time></trkpt><trkpt lat="41.8791606" lon="1.5624642"><ele>750.0</ele><time>2026-04-25T10:20:35.094Z</time></trkpt><trkpt lat="41.8794073" lon="1.5624947"><ele>750.0</ele><time>2026-04-25T10:20:36.094Z</time></trkpt><trkpt lat="41.8796573" lon="1.562511"><ele>750.0</ele><time>2026-04-25T10:20:37.094Z</time></trkpt><trkpt lat="41.879915" lon="1.5625377"><ele>750.0</ele><time>2026-04-25T10:20:38.093Z</time></trkpt><trkpt lat="41.8801695" lon="1.5625708"><ele>748.5</ele><time>2026-04-25T10:20:39.094Z</time></trkpt><trkpt lat="41.8804211" lon="1.5626032"><ele>747.0</ele><time>2026-04-25T10:20:40.094Z</time></trkpt><trkpt lat="41.8806515" lon="1.5626455"><ele>747.0</ele><time>2026-04-25T10:20:41.094Z</time></trkpt><trkpt lat="41.8808558" lon="1.5626787"><ele>747.0</ele><time>2026-04-25T10:20:42.094Z</time></trkpt><trkpt lat="41.8810511" lon="1.5626709"><ele>747.0</ele><time>2026-04-25T10:20:43.094Z</time></trkpt><trkpt lat="41.8812409" lon="1.5625915"><ele>744.0</ele><time>2026-04-25T10:20:44.093Z</time></trkpt><trkpt lat="41.8814243" lon="1.5624688"><ele>741.0</ele><time>2026-04-25T10:20:45.094Z</time></trkpt><trkpt lat="41.8815941" lon="1.5623069"><ele>738.0</ele><time>2026-04-25T10:20:46.093Z</time></trkpt><trkpt lat="41.88177" lon="1.5621297"><ele>737.0</ele><time>2026-04-25T10:20:47.094Z</time></trkpt><trkpt lat="41.8819613" lon="1.5619492"><ele>736.0</ele><time>2026-04-25T10:20:48.094Z</time></trkpt><trkpt lat="41.8821457" lon="1.5617785"><ele>736.0</ele><time>2026-04-25T10:20:49.093Z</time></trkpt><trkpt lat="41.8823181" lon="1.5616199"><ele>736.0</ele><time>2026-04-25T10:20:50.093Z</time></trkpt><trkpt lat="41.8824764" lon="1.5614951"><ele>736.0</ele><time>2026-04-25T10:20:51.094Z</time></trkpt><trkpt lat="41.8826371" lon="1.5614131"><ele>733.6666666666667</ele><time>2026-04-25T10:20:52.094Z</time></trkpt><trkpt lat="41.8828128" lon="1.5613672"><ele>731.3333333333334</ele><time>2026-04-25T10:20:53.094Z</time></trkpt><trkpt lat="41.8830034" lon="1.5613664"><ele>729.0</ele><time>2026-04-25T10:20:54.094Z</time></trkpt><trkpt lat="41.8832049" lon="1.5614122"><ele>729.0</ele><time>2026-04-25T10:20:55.094Z</time></trkpt><trkpt lat="41.8834065" lon="1.5614902"><ele>729.0</ele><time>2026-04-25T10:20:56.094Z</time></trkpt><trkpt lat="41.8835817" lon="1.5616156"><ele>729.0</ele><time>2026-04-25T10:20:57.094Z</time></trkpt><trkpt lat="41.883739" lon="1.5617735"><ele>730.0</ele><time>2026-04-25T10:20:58.094Z</time></trkpt><trkpt lat="41.8838771" lon="1.5619238"><ele>731.0</ele><time>2026-04-25T10:20:59.094Z</time></trkpt><trkpt lat="41.8840355" lon="1.5620257"><ele>732.0</ele><time>2026-04-25T10:21:00.094Z</time></trkpt><trkpt lat="41.8842185" lon="1.5620987"><ele>729.6666666666666</ele><time>2026-04-25T10:21:01.094Z</time></trkpt><trkpt lat="41.8844206" lon="1.5621227"><ele>727.3333333333333</ele><time>2026-04-25T10:21:02.094Z</time></trkpt><trkpt lat="41.884635" lon="1.5620953"><ele>725.0</ele><time>2026-04-25T10:21:03.095Z</time></trkpt><trkpt lat="41.8848623" lon="1.5620633"><ele>725.0</ele><time>2026-04-25T10:21:04.094Z</time></trkpt><trkpt lat="41.8850835" lon="1.5620647"><ele>725.0</ele><time>2026-04-25T10:21:05.094Z</time></trkpt><trkpt lat="41.8853029" lon="1.562106"><ele>725.0</ele><time>2026-04-25T10:21:06.094Z</time></trkpt><trkpt lat="41.8855215" lon="1.5621743"><ele>725.0</ele><time>2026-04-25T10:21:07.094Z</time></trkpt><trkpt lat="41.8857199" lon="1.5622596"><ele>725.0</ele><time>2026-04-25T10:21:08.095Z</time></trkpt><trkpt lat="41.8859354" lon="1.5623247"><ele>725.0</ele><time>2026-04-25T10:21:09.094Z</time></trkpt><trkpt lat="41.8861639" lon="1.5623586"><ele>724.0</ele><time>2026-04-25T10:21:10.093Z</time></trkpt><trkpt lat="41.8863986" lon="1.5623608"><ele>723.0</ele><time>2026-04-25T10:21:11.094Z</time></trkpt><trkpt lat="41.8866363" lon="1.5623139"><ele>720.0</ele><time>2026-04-25T10:21:12.093Z</time></trkpt><trkpt lat="41.8868794" lon="1.5622306"><ele>717.0</ele><time>2026-04-25T10:21:13.093Z</time></trkpt><trkpt lat="41.8871054" lon="1.5621525"><ele>717.0</ele><time>2026-04-25T10:21:14.093Z</time></trkpt><trkpt lat="41.8873207" lon="1.562086"><ele>717.0</ele><time>2026-04-25T10:21:15.093Z</time></trkpt><trkpt lat="41.8875311" lon="1.5620247"><ele>717.0</ele><time>2026-04-25T10:21:16.094Z</time></trkpt><trkpt lat="41.8877122" lon="1.5619848"><ele>717.3333333333334</ele><time>2026-04-25T10:21:17.094Z</time></trkpt><trkpt lat="41.8878823" lon="1.5619964"><ele>717.6666666666667</ele><time>2026-04-25T10:21:18.093Z</time></trkpt><trkpt lat="41.8880445" lon="1.5620515"><ele>718.0</ele><time>2026-04-25T10:21:19.094Z</time></trkpt><trkpt lat="41.8882089" lon="1.5621418"><ele>718.0</ele><time>2026-04-25T10:21:20.094Z</time></trkpt><trkpt lat="41.8883836" lon="1.5622533"><ele>718.0</ele><time>2026-04-25T10:21:21.095Z</time></trkpt><trkpt lat="41.8885605" lon="1.5623725"><ele>718.0</ele><time>2026-04-25T10:21:22.094Z</time></trkpt><trkpt lat="41.8887363" lon="1.5624973"><ele>720.0</ele><time>2026-04-25T10:21:23.094Z</time></trkpt><trkpt lat="41.8889063" lon="1.5626072"><ele>722.0</ele><time>2026-04-25T10:21:24.094Z</time></trkpt><trkpt lat="41.8890643" lon="1.5626953"><ele>724.0</ele><time>2026-04-25T10:21:25.095Z</time></trkpt><trkpt lat="41.889217" lon="1.5627679"><ele>724.5</ele><time>2026-04-25T10:21:26.093Z</time></trkpt><trkpt lat="41.8893606" lon="1.5628255"><ele>725.0</ele><time>2026-04-25T10:21:27.094Z</time></trkpt><trkpt lat="41.8894888" lon="1.5628826"><ele>725.5</ele><time>2026-04-25T10:21:28.093Z</time></trkpt><trkpt lat="41.8895907" lon="1.5629799"><ele>726.0</ele><time>2026-04-25T10:21:29.093Z</time></trkpt><trkpt lat="41.8896709" lon="1.5631169"><ele>726.75</ele><time>2026-04-25T10:21:30.094Z</time></trkpt><trkpt lat="41.889746" lon="1.5632715"><ele>727.5</ele><time>2026-04-25T10:21:31.093Z</time></trkpt><trkpt lat="41.8898316" lon="1.5634264"><ele>728.25</ele><time>2026-04-25T10:21:32.094Z</time></trkpt><trkpt lat="41.8899182" lon="1.5635733"><ele>729.0</ele><time>2026-04-25T10:21:33.093Z</time></trkpt><trkpt lat="41.890019" lon="1.5637173"><ele>730.5</ele><time>2026-04-25T10:21:34.094Z</time></trkpt><trkpt lat="41.8901221" lon="1.5638604"><ele>732.0</ele><time>2026-04-25T10:21:35.094Z</time></trkpt><trkpt lat="41.890223" lon="1.5640037"><ele>733.5</ele><time>2026-04-25T10:21:36.094Z</time></trkpt><trkpt lat="41.8903104" lon="1.5641459"><ele>735.0</ele><time>2026-04-25T10:21:37.095Z</time></trkpt><trkpt lat="41.8903893" lon="1.5642808"><ele>735.0</ele><time>2026-04-25T10:21:38.093Z</time></trkpt><trkpt lat="41.8904593" lon="1.5644071"><ele>735.0</ele><time>2026-04-25T10:21:39.093Z</time></trkpt><trkpt lat="41.8905163" lon="1.5645159"><ele>735.0</ele><time>2026-04-25T10:21:40.094Z</time></trkpt><trkpt lat="41.8905619" lon="1.5646126"><ele>735.0</ele><time>2026-04-25T10:21:41.094Z</time></trkpt><trkpt lat="41.8905947" lon="1.5647021"><ele>735.0</ele><time>2026-04-25T10:21:42.093Z</time></trkpt><trkpt lat="41.8906217" lon="1.5648606"><ele>735.1666666666666</ele><time>2026-04-25T10:21:44.094Z</time></trkpt><trkpt lat="41.890619" lon="1.5649468"><ele>735.3333333333334</ele><time>2026-04-25T10:21:45.095Z</time></trkpt><trkpt lat="41.8905968" lon="1.5650311"><ele>735.5</ele><time>2026-04-25T10:21:46.094Z</time></trkpt><trkpt lat="41.8905587" lon="1.5651175"><ele>735.6666666666667</ele><time>2026-04-25T10:21:47.093Z</time></trkpt><trkpt lat="41.8905115" lon="1.5652043"><ele>735.8333333333334</ele><time>2026-04-25T10:21:48.095Z</time></trkpt><trkpt lat="41.8904548" lon="1.5653181"><ele>736.0</ele><time>2026-04-25T10:21:49.095Z</time></trkpt><trkpt lat="41.8903965" lon="1.5654533"><ele>737.25</ele><time>2026-04-25T10:21:50.094Z</time></trkpt><trkpt lat="41.8903348" lon="1.5656077"><ele>738.5</ele><time>2026-04-25T10:21:51.094Z</time></trkpt><trkpt lat="41.8902691" lon="1.5657842"><ele>739.75</ele><time>2026-04-25T10:21:52.094Z</time></trkpt><trkpt lat="41.8901981" lon="1.5659717"><ele>741.0</ele><time>2026-04-25T10:21:53.093Z</time></trkpt><trkpt lat="41.8901313" lon="1.5661745"><ele>737.3333333333334</ele><time>2026-04-25T10:21:54.094Z</time></trkpt><trkpt lat="41.8900728" lon="1.5663994"><ele>733.6666666666667</ele><time>2026-04-25T10:21:55.093Z</time></trkpt><trkpt lat="41.8900172" lon="1.5666317"><ele>730.0</ele><time>2026-04-25T10:21:56.093Z</time></trkpt><trkpt lat="41.889971" lon="1.5668707"><ele>730.6666666666667</ele><time>2026-04-25T10:21:57.094Z</time></trkpt><trkpt lat="41.8899326" lon="1.5671268"><ele>731.3333333333334</ele><time>2026-04-25T10:21:58.094Z</time></trkpt><trkpt lat="41.8899061" lon="1.567386"><ele>732.0</ele><time>2026-04-25T10:21:59.094Z</time></trkpt><trkpt lat="41.8898912" lon="1.5676549"><ele>733.0</ele><time>2026-04-25T10:22:00.094Z</time></trkpt><trkpt lat="41.8898902" lon="1.5679313"><ele>734.0</ele><time>2026-04-25T10:22:01.093Z</time></trkpt><trkpt lat="41.8899013" lon="1.5682177"><ele>735.0</ele><time>2026-04-25T10:22:02.094Z</time></trkpt><trkpt lat="41.8899258" lon="1.5685077"><ele>735.6666666666666</ele><time>2026-04-25T10:22:03.094Z</time></trkpt><trkpt lat="41.8899657" lon="1.5687973"><ele>736.3333333333333</ele><time>2026-04-25T10:22:04.094Z</time></trkpt><trkpt lat="41.8900254" lon="1.5690875"><ele>737.0</ele><time>2026-04-25T10:22:05.094Z</time></trkpt><trkpt lat="41.8901012" lon="1.569378"><ele>738.0</ele><time>2026-04-25T10:22:06.093Z</time></trkpt><trkpt lat="41.8901955" lon="1.569667"><ele>739.0</ele><time>2026-04-25T10:22:07.094Z</time></trkpt><trkpt lat="41.8903078" lon="1.5699491"><ele>739.0</ele><time>2026-04-25T10:22:08.093Z</time></trkpt><trkpt lat="41.8904378" lon="1.570224"><ele>739.0</ele><time>2026-04-25T10:22:09.094Z</time></trkpt><trkpt lat="41.8905836" lon="1.5704986"><ele>736.0</ele><time>2026-04-25T10:22:10.094Z</time></trkpt><trkpt lat="41.8907337" lon="1.5707715"><ele>733.0</ele><time>2026-04-25T10:22:11.094Z</time></trkpt><trkpt lat="41.8908842" lon="1.5710399"><ele>736.0</ele><time>2026-04-25T10:22:12.095Z</time></trkpt><trkpt lat="41.8910315" lon="1.5713056"><ele>739.0</ele><time>2026-04-25T10:22:13.093Z</time></trkpt><trkpt lat="41.8911669" lon="1.5715843"><ele>739.0</ele><time>2026-04-25T10:22:14.094Z</time></trkpt><trkpt lat="41.8912832" lon="1.5718854"><ele>739.0</ele><time>2026-04-25T10:22:15.094Z</time></trkpt><trkpt lat="41.89138" lon="1.5721972"><ele>736.0</ele><time>2026-04-25T10:22:16.095Z</time></trkpt><trkpt lat="41.8914526" lon="1.5725192"><ele>733.0</ele><time>2026-04-25T10:22:17.094Z</time></trkpt><trkpt lat="41.8915032" lon="1.5728519"><ele>732.0</ele><time>2026-04-25T10:22:18.094Z</time></trkpt><trkpt lat="41.891532" lon="1.573191"><ele>731.0</ele><time>2026-04-25T10:22:19.094Z</time></trkpt><trkpt lat="41.8915435" lon="1.5735316"><ele>730.0</ele><time>2026-04-25T10:22:20.094Z</time></trkpt><trkpt lat="41.8915435" lon="1.5738721"><ele>729.0</ele><time>2026-04-25T10:22:21.094Z</time></trkpt><trkpt lat="41.8915453" lon="1.5742137"><ele>728.0</ele><time>2026-04-25T10:22:22.094Z</time></trkpt><trkpt lat="41.891546" lon="1.5745492"><ele>727.0</ele><time>2026-04-25T10:22:23.093Z</time></trkpt><trkpt lat="41.8915455" lon="1.5748665"><ele>727.0</ele><time>2026-04-25T10:22:24.093Z</time></trkpt><trkpt lat="41.8915459" lon="1.5751642"><ele>727.0</ele><time>2026-04-25T10:22:25.094Z</time></trkpt><trkpt lat="41.8915454" lon="1.5754427"><ele>727.0</ele><time>2026-04-25T10:22:26.093Z</time></trkpt><trkpt lat="41.8915471" lon="1.575704"><ele>726.3333333333334</ele><time>2026-04-25T10:22:27.093Z</time></trkpt><trkpt lat="41.8915452" lon="1.5759543"><ele>725.6666666666666</ele><time>2026-04-25T10:22:28.094Z</time></trkpt><trkpt lat="41.8915215" lon="1.5761907"><ele>725.0</ele><time>2026-04-25T10:22:29.094Z</time></trkpt><trkpt lat="41.8914597" lon="1.5763933"><ele>725.0</ele><time>2026-04-25T10:22:30.094Z</time></trkpt><trkpt lat="41.8913578" lon="1.5765733"><ele>725.0</ele><time>2026-04-25T10:22:31.094Z</time></trkpt><trkpt lat="41.891222" lon="1.5767153"><ele>725.0</ele><time>2026-04-25T10:22:32.094Z</time></trkpt><trkpt lat="41.8910646" lon="1.5768377"><ele>723.6666666666666</ele><time>2026-04-25T10:22:33.093Z</time></trkpt><trkpt lat="41.8908962" lon="1.5769443"><ele>722.3333333333334</ele><time>2026-04-25T10:22:34.094Z</time></trkpt><trkpt lat="41.8907271" lon="1.5770066"><ele>721.0</ele><time>2026-04-25T10:22:35.095Z</time></trkpt><trkpt lat="41.8905443" lon="1.5770188"><ele>721.0</ele><time>2026-04-25T10:22:36.094Z</time></trkpt><trkpt lat="41.8903523" lon="1.5769951"><ele>721.0</ele><time>2026-04-25T10:22:37.093Z</time></trkpt><trkpt lat="41.8901591" lon="1.5769765"><ele>721.0</ele><time>2026-04-25T10:22:38.095Z</time></trkpt><trkpt lat="41.889978" lon="1.576994"><ele>722.0</ele><time>2026-04-25T10:22:39.095Z</time></trkpt><trkpt lat="41.8898084" lon="1.5770535"><ele>723.0</ele><time>2026-04-25T10:22:40.094Z</time></trkpt><trkpt lat="41.8896601" lon="1.5771378"><ele>724.0</ele><time>2026-04-25T10:22:41.094Z</time></trkpt><trkpt lat="41.8895373" lon="1.5772647"><ele>724.0</ele><time>2026-04-25T10:22:42.094Z</time></trkpt><trkpt lat="41.8894339" lon="1.5774522"><ele>724.0</ele><time>2026-04-25T10:22:43.094Z</time></trkpt><trkpt lat="41.8893538" lon="1.5776868"><ele>724.0</ele><time>2026-04-25T10:22:44.094Z</time></trkpt><trkpt lat="41.8892813" lon="1.5779684"><ele>720.5</ele><time>2026-04-25T10:22:45.094Z</time></trkpt><trkpt lat="41.8891982" lon="1.578269"><ele>717.0</ele><time>2026-04-25T10:22:46.093Z</time></trkpt><trkpt lat="41.8891101" lon="1.5785928"><ele>718.0</ele><time>2026-04-25T10:22:47.094Z</time></trkpt><trkpt lat="41.8890187" lon="1.5789312"><ele>719.0</ele><time>2026-04-25T10:22:48.095Z</time></trkpt><trkpt lat="41.8889324" lon="1.5792425"><ele>719.6666666666666</ele><time>2026-04-25T10:22:49.093Z</time></trkpt><trkpt lat="41.8888507" lon="1.5795317"><ele>720.3333333333334</ele><time>2026-04-25T10:22:50.094Z</time></trkpt><trkpt lat="41.8887834" lon="1.5797902"><ele>721.0</ele><time>2026-04-25T10:22:51.094Z</time></trkpt><trkpt lat="41.8887424" lon="1.5800196"><ele>721.0</ele><time>2026-04-25T10:22:52.094Z</time></trkpt><trkpt lat="41.8887507" lon="1.5802329"><ele>721.0</ele><time>2026-04-25T10:22:53.093Z</time></trkpt><trkpt lat="41.8888056" lon="1.5804555"><ele>721.0</ele><time>2026-04-25T10:22:54.093Z</time></trkpt><trkpt lat="41.8889125" lon="1.5806903"><ele>720.6666666666667</ele><time>2026-04-25T10:22:55.093Z</time></trkpt><trkpt lat="41.8890436" lon="1.5809385"><ele>720.3333333333334</ele><time>2026-04-25T10:22:56.094Z</time></trkpt><trkpt lat="41.8891697" lon="1.5811827"><ele>720.0</ele><time>2026-04-25T10:22:57.094Z</time></trkpt><trkpt lat="41.8892484" lon="1.5814365"><ele>719.6666666666666</ele><time>2026-04-25T10:22:58.094Z</time></trkpt><trkpt lat="41.889287" lon="1.5816997"><ele>719.3333333333333</ele><time>2026-04-25T10:22:59.093Z</time></trkpt><trkpt lat="41.8892749" lon="1.5819571"><ele>719.0</ele><time>2026-04-25T10:23:00.093Z</time></trkpt><trkpt lat="41.8892155" lon="1.5822313"><ele>716.5</ele><time>2026-04-25T10:23:01.093Z</time></trkpt><trkpt lat="41.8891289" lon="1.5825175"><ele>714.0</ele><time>2026-04-25T10:23:02.094Z</time></trkpt><trkpt lat="41.8890489" lon="1.5828079"><ele>714.3333333333334</ele><time>2026-04-25T10:23:03.094Z</time></trkpt><trkpt lat="41.888985" lon="1.58307"><ele>714.6666666666667</ele><time>2026-04-25T10:23:04.093Z</time></trkpt><trkpt lat="41.888953" lon="1.5833431"><ele>715.0</ele><time>2026-04-25T10:23:05.094Z</time></trkpt><trkpt lat="41.8889652" lon="1.5836358"><ele>715.0</ele><time>2026-04-25T10:23:06.094Z</time></trkpt><trkpt lat="41.8890141" lon="1.5839446"><ele>715.0</ele><time>2026-04-25T10:23:07.094Z</time></trkpt><trkpt lat="41.8890762" lon="1.5842676"><ele>714.0</ele><time>2026-04-25T10:23:08.094Z</time></trkpt><trkpt lat="41.8891393" lon="1.5845963"><ele>713.0</ele><time>2026-04-25T10:23:09.094Z</time></trkpt><trkpt lat="41.8892026" lon="1.5849251"><ele>719.5</ele><time>2026-04-25T10:23:10.093Z</time></trkpt><trkpt lat="41.8892592" lon="1.5852413"><ele>726.0</ele><time>2026-04-25T10:23:11.093Z</time></trkpt><trkpt lat="41.8892936" lon="1.5855602"><ele>726.0</ele><time>2026-04-25T10:23:12.094Z</time></trkpt><trkpt lat="41.8892953" lon="1.5858963"><ele>726.0</ele><time>2026-04-25T10:23:13.094Z</time></trkpt><trkpt lat="41.8892878" lon="1.5862334"><ele>726.0</ele><time>2026-04-25T10:23:14.093Z</time></trkpt><trkpt lat="41.889281" lon="1.5865397"><ele>726.0</ele><time>2026-04-25T10:23:15.094Z</time></trkpt><trkpt lat="41.8892572" lon="1.5867943"><ele>726.0</ele><time>2026-04-25T10:23:16.094Z</time></trkpt><trkpt lat="41.8891915" lon="1.58701"><ele>721.3333333333334</ele><time>2026-04-25T10:23:17.095Z</time></trkpt><trkpt lat="41.8890803" lon="1.5872113"><ele>716.6666666666667</ele><time>2026-04-25T10:23:18.093Z</time></trkpt><trkpt lat="41.8889422" lon="1.5873879"><ele>712.0</ele><time>2026-04-25T10:23:19.094Z</time></trkpt><trkpt lat="41.8888404" lon="1.5875606"><ele>712.0</ele><time>2026-04-25T10:23:20.094Z</time></trkpt><trkpt lat="41.8887674" lon="1.5877837"><ele>712.0</ele><time>2026-04-25T10:23:21.093Z</time></trkpt><trkpt lat="41.8887234" lon="1.5880617"><ele>712.0</ele><time>2026-04-25T10:23:22.093Z</time></trkpt><trkpt lat="41.888681" lon="1.5883716"><ele>715.0</ele><time>2026-04-25T10:23:23.094Z</time></trkpt><trkpt lat="41.8886335" lon="1.5886835"><ele>718.0</ele><time>2026-04-25T10:23:24.093Z</time></trkpt><trkpt lat="41.8885917" lon="1.5889738"><ele>718.0</ele><time>2026-04-25T10:23:25.093Z</time></trkpt><trkpt lat="41.8885566" lon="1.589229"><ele>718.0</ele><time>2026-04-25T10:23:26.095Z</time></trkpt><trkpt lat="41.8885552" lon="1.5894612"><ele>718.0</ele><time>2026-04-25T10:23:27.094Z</time></trkpt><trkpt lat="41.8886037" lon="1.5896797"><ele>715.6666666666667</ele><time>2026-04-25T10:23:28.094Z</time></trkpt><trkpt lat="41.888701" lon="1.5899169"><ele>713.3333333333334</ele><time>2026-04-25T10:23:29.094Z</time></trkpt><trkpt lat="41.8888119" lon="1.590165"><ele>711.0</ele><time>2026-04-25T10:23:30.094Z</time></trkpt><trkpt lat="41.8889339" lon="1.5904345"><ele>709.0</ele><time>2026-04-25T10:23:31.094Z</time></trkpt><trkpt lat="41.8890586" lon="1.5907091"><ele>707.0</ele><time>2026-04-25T10:23:32.094Z</time></trkpt><trkpt lat="41.8891689" lon="1.5909608"><ele>706.6666666666666</ele><time>2026-04-25T10:23:33.093Z</time></trkpt><trkpt lat="41.8892422" lon="1.5911945"><ele>706.3333333333334</ele><time>2026-04-25T10:23:34.095Z</time></trkpt><trkpt lat="41.8892791" lon="1.5914188"><ele>706.0</ele><time>2026-04-25T10:23:35.094Z</time></trkpt><trkpt lat="41.889274" lon="1.5916511"><ele>706.0</ele><time>2026-04-25T10:23:36.094Z</time></trkpt><trkpt lat="41.889217" lon="1.5918619"><ele>706.0</ele><time>2026-04-25T10:23:37.094Z</time></trkpt><trkpt lat="41.8891121" lon="1.592064"><ele>706.0</ele><time>2026-04-25T10:23:38.094Z</time></trkpt><trkpt lat="41.8889612" lon="1.5922424"><ele>706.0</ele><time>2026-04-25T10:23:39.095Z</time></trkpt><trkpt lat="41.8887839" lon="1.5924168"><ele>706.0</ele><time>2026-04-25T10:23:40.094Z</time></trkpt><trkpt lat="41.8886108" lon="1.5926196"><ele>706.0</ele><time>2026-04-25T10:23:41.093Z</time></trkpt><trkpt lat="41.8884627" lon="1.5928226"><ele>705.6666666666667</ele><time>2026-04-25T10:23:42.094Z</time></trkpt><trkpt lat="41.8883413" lon="1.5930141"><ele>705.3333333333334</ele><time>2026-04-25T10:23:43.094Z</time></trkpt><trkpt lat="41.8882618" lon="1.5931997"><ele>705.0</ele><time>2026-04-25T10:23:44.094Z</time></trkpt><trkpt lat="41.8882267" lon="1.5933839"><ele>705.0</ele><time>2026-04-25T10:23:45.093Z</time></trkpt><trkpt lat="41.8882397" lon="1.5935776"><ele>705.0</ele><time>2026-04-25T10:23:46.094Z</time></trkpt><trkpt lat="41.8883045" lon="1.5937865"><ele>705.0</ele><time>2026-04-25T10:23:47.093Z</time></trkpt><trkpt lat="41.8884101" lon="1.5940136"><ele>704.3333333333334</ele><time>2026-04-25T10:23:48.094Z</time></trkpt><trkpt lat="41.8885331" lon="1.5942649"><ele>703.6666666666667</ele><time>2026-04-25T10:23:49.095Z</time></trkpt><trkpt lat="41.888642" lon="1.594522"><ele>703.0</ele><time>2026-04-25T10:23:50.094Z</time></trkpt><trkpt lat="41.888755" lon="1.594768"><ele>703.0</ele><time>2026-04-25T10:23:51.094Z</time></trkpt><trkpt lat="41.8888691" lon="1.5949853"><ele>703.0</ele><time>2026-04-25T10:23:52.093Z</time></trkpt><trkpt lat="41.8890138" lon="1.5951591"><ele>703.0</ele><time>2026-04-25T10:23:53.093Z</time></trkpt><trkpt lat="41.8891948" lon="1.5953215"><ele>702.5</ele><time>2026-04-25T10:23:54.094Z</time></trkpt><trkpt lat="41.8893922" lon="1.595483"><ele>702.0</ele><time>2026-04-25T10:23:55.094Z</time></trkpt><trkpt lat="41.8895901" lon="1.5956772"><ele>702.0</ele><time>2026-04-25T10:23:56.094Z</time></trkpt><trkpt lat="41.8897624" lon="1.5959145"><ele>702.0</ele><time>2026-04-25T10:23:57.095Z</time></trkpt><trkpt lat="41.889918" lon="1.5961772"><ele>700.6666666666666</ele><time>2026-04-25T10:23:58.095Z</time></trkpt><trkpt lat="41.890058" lon="1.5964198"><ele>699.3333333333333</ele><time>2026-04-25T10:23:59.094Z</time></trkpt><trkpt lat="41.8901738" lon="1.5966412"><ele>698.0</ele><time>2026-04-25T10:24:00.093Z</time></trkpt><trkpt lat="41.8902556" lon="1.5968528"><ele>694.6666666666666</ele><time>2026-04-25T10:24:01.094Z</time></trkpt><trkpt lat="41.890283" lon="1.5970601"><ele>691.3333333333334</ele><time>2026-04-25T10:24:02.095Z</time></trkpt><trkpt lat="41.8902587" lon="1.597251"><ele>688.0</ele><time>2026-04-25T10:24:03.094Z</time></trkpt><trkpt lat="41.8901859" lon="1.5974259"><ele>686.6666666666667</ele><time>2026-04-25T10:24:04.094Z</time></trkpt><trkpt lat="41.8900707" lon="1.5975578"><ele>685.3333333333334</ele><time>2026-04-25T10:24:05.094Z</time></trkpt><trkpt lat="41.8899156" lon="1.5976418"><ele>684.0</ele><time>2026-04-25T10:24:06.094Z</time></trkpt><trkpt lat="41.8897211" lon="1.5976735"><ele>684.0</ele><time>2026-04-25T10:24:07.094Z</time></trkpt><trkpt lat="41.889501" lon="1.5976961"><ele>684.0</ele><time>2026-04-25T10:24:08.093Z</time></trkpt><trkpt lat="41.8892529" lon="1.5977123"><ele>683.5</ele><time>2026-04-25T10:24:09.093Z</time></trkpt><trkpt lat="41.8889861" lon="1.5977356"><ele>683.0</ele><time>2026-04-25T10:24:10.094Z</time></trkpt><trkpt lat="41.8887404" lon="1.5977308"><ele>683.0</ele><time>2026-04-25T10:24:11.094Z</time></trkpt><trkpt lat="41.888513" lon="1.5976884"><ele>683.0</ele><time>2026-04-25T10:24:12.094Z</time></trkpt><trkpt lat="41.8883058" lon="1.5975886"><ele>682.3333333333333</ele><time>2026-04-25T10:24:13.094Z</time></trkpt><trkpt lat="41.8881107" lon="1.5974578"><ele>681.6666666666666</ele><time>2026-04-25T10:24:14.093Z</time></trkpt><trkpt lat="41.8879257" lon="1.5973619"><ele>681.0</ele><time>2026-04-25T10:24:15.094Z</time></trkpt><trkpt lat="41.8877259" lon="1.5973095"><ele>679.0</ele><time>2026-04-25T10:24:16.093Z</time></trkpt><trkpt lat="41.8875285" lon="1.5973022"><ele>677.0</ele><time>2026-04-25T10:24:17.094Z</time></trkpt><trkpt lat="41.8873538" lon="1.5973358"><ele>675.0</ele><time>2026-04-25T10:24:18.093Z</time></trkpt><trkpt lat="41.8871974" lon="1.597396"><ele>675.0</ele><time>2026-04-25T10:24:19.093Z</time></trkpt><trkpt lat="41.8870652" lon="1.5974945"><ele>675.0</ele><time>2026-04-25T10:24:20.093Z</time></trkpt><trkpt lat="41.8869497" lon="1.5976263"><ele>675.0</ele><time>2026-04-25T10:24:21.093Z</time></trkpt><trkpt lat="41.8868584" lon="1.5977733"><ele>675.0</ele><time>2026-04-25T10:24:22.093Z</time></trkpt><trkpt lat="41.8867973" lon="1.5979716"><ele>677.0</ele><time>2026-04-25T10:24:23.094Z</time></trkpt><trkpt lat="41.8867704" lon="1.5982233"><ele>679.0</ele><time>2026-04-25T10:24:24.094Z</time></trkpt><trkpt lat="41.8867526" lon="1.5985222"><ele>681.0</ele><time>2026-04-25T10:24:25.094Z</time></trkpt><trkpt lat="41.8867323" lon="1.5988487"><ele>670.0</ele><time>2026-04-25T10:24:26.094Z</time></trkpt><trkpt lat="41.8867104" lon="1.5992013"><ele>659.0</ele><time>2026-04-25T10:24:27.094Z</time></trkpt><trkpt lat="41.8866854" lon="1.5995678"><ele>655.0</ele><time>2026-04-25T10:24:28.093Z</time></trkpt><trkpt lat="41.886663" lon="1.599946"><ele>651.0</ele><time>2026-04-25T10:24:29.095Z</time></trkpt><trkpt lat="41.88666" lon="1.6003244"><ele>649.5</ele><time>2026-04-25T10:24:30.094Z</time></trkpt><trkpt lat="41.8866818" lon="1.6006834"><ele>648.0</ele><time>2026-04-25T10:24:31.093Z</time></trkpt><trkpt lat="41.8867238" lon="1.6010376"><ele>648.5</ele><time>2026-04-25T10:24:32.094Z</time></trkpt><trkpt lat="41.8867723" lon="1.6013834"><ele>649.0</ele><time>2026-04-25T10:24:33.094Z</time></trkpt><trkpt lat="41.8868235" lon="1.6017216"><ele>648.0</ele><time>2026-04-25T10:24:34.094Z</time></trkpt><trkpt lat="41.8868745" lon="1.6020589"><ele>647.0</ele><time>2026-04-25T10:24:35.093Z</time></trkpt><trkpt lat="41.8869311" lon="1.6024009"><ele>647.0</ele><time>2026-04-25T10:24:36.093Z</time></trkpt><trkpt lat="41.8869883" lon="1.6027444"><ele>647.0</ele><time>2026-04-25T10:24:37.094Z</time></trkpt><trkpt lat="41.8870453" lon="1.6030905"><ele>645.0</ele><time>2026-04-25T10:24:38.094Z</time></trkpt><trkpt lat="41.8871035" lon="1.6034375"><ele>643.0</ele><time>2026-04-25T10:24:39.093Z</time></trkpt><trkpt lat="41.8871625" lon="1.6037878"><ele>641.5</ele><time>2026-04-25T10:24:40.094Z</time></trkpt><trkpt lat="41.8872188" lon="1.6041402"><ele>640.0</ele><time>2026-04-25T10:24:41.093Z</time></trkpt><trkpt lat="41.8872758" lon="1.6044937"><ele>639.0</ele><time>2026-04-25T10:24:42.094Z</time></trkpt><trkpt lat="41.8873327" lon="1.6048507"><ele>638.0</ele><time>2026-04-25T10:24:43.094Z</time></trkpt><trkpt lat="41.8873894" lon="1.6052082"><ele>638.5</ele><time>2026-04-25T10:24:44.094Z</time></trkpt><trkpt lat="41.887451" lon="1.6055664"><ele>639.0</ele><time>2026-04-25T10:24:45.094Z</time></trkpt><trkpt lat="41.8875081" lon="1.6059248"><ele>639.5</ele><time>2026-04-25T10:24:46.095Z</time></trkpt><trkpt lat="41.8875659" lon="1.60628"><ele>640.0</ele><time>2026-04-25T10:24:47.093Z</time></trkpt><trkpt lat="41.8876234" lon="1.6066366"><ele>640.5</ele><time>2026-04-25T10:24:48.094Z</time></trkpt><trkpt lat="41.8876837" lon="1.606993"><ele>641.0</ele><time>2026-04-25T10:24:49.094Z</time></trkpt><trkpt lat="41.8877378" lon="1.6073479"><ele>640.0</ele><time>2026-04-25T10:24:50.094Z</time></trkpt><trkpt lat="41.8877926" lon="1.6076993"><ele>639.0</ele><time>2026-04-25T10:24:51.094Z</time></trkpt><trkpt lat="41.8878482" lon="1.6080459"><ele>638.5</ele><time>2026-04-25T10:24:52.094Z</time></trkpt><trkpt lat="41.8879046" lon="1.6083921"><ele>638.0</ele><time>2026-04-25T10:24:53.094Z</time></trkpt><trkpt lat="41.8879618" lon="1.6087367"><ele>638.0</ele><time>2026-04-25T10:24:54.094Z</time></trkpt><trkpt lat="41.8880175" lon="1.6090771"><ele>638.0</ele><time>2026-04-25T10:24:55.094Z</time></trkpt><trkpt lat="41.8880752" lon="1.6094182"><ele>638.0</ele><time>2026-04-25T10:24:56.094Z</time></trkpt><trkpt lat="41.8881353" lon="1.6097552"><ele>638.0</ele><time>2026-04-25T10:24:57.094Z</time></trkpt><trkpt lat="41.8881956" lon="1.610095"><ele>638.0</ele><time>2026-04-25T10:24:58.093Z</time></trkpt><trkpt lat="41.8882549" lon="1.6104388"><ele>638.0</ele><time>2026-04-25T10:24:59.093Z</time></trkpt><trkpt lat="41.8883117" lon="1.6107797"><ele>638.0</ele><time>2026-04-25T10:25:00.094Z</time></trkpt><trkpt lat="41.8883664" lon="1.6111202"><ele>638.0</ele><time>2026-04-25T10:25:01.093Z</time></trkpt><trkpt lat="41.8884207" lon="1.6114493"><ele>638.5</ele><time>2026-04-25T10:25:02.093Z</time></trkpt><trkpt lat="41.8884715" lon="1.6117572"><ele>639.0</ele><time>2026-04-25T10:25:03.094Z</time></trkpt><trkpt lat="41.8885153" lon="1.6120418"><ele>639.6666666666666</ele><time>2026-04-25T10:25:04.094Z</time></trkpt><trkpt lat="41.8885521" lon="1.6123071"><ele>640.3333333333333</ele><time>2026-04-25T10:25:05.094Z</time></trkpt><trkpt lat="41.8885761" lon="1.6125538"><ele>641.0</ele><time>2026-04-25T10:25:06.093Z</time></trkpt><trkpt lat="41.8885655" lon="1.6127724"><ele>642.0</ele><time>2026-04-25T10:25:07.093Z</time></trkpt><trkpt lat="41.8885252" lon="1.6129774"><ele>643.0</ele><time>2026-04-25T10:25:08.093Z</time></trkpt><trkpt lat="41.8884333" lon="1.6131688"><ele>644.0</ele><time>2026-04-25T10:25:09.094Z</time></trkpt><trkpt lat="41.8883152" lon="1.6133766"><ele>645.5</ele><time>2026-04-25T10:25:10.093Z</time></trkpt><trkpt lat="41.8881764" lon="1.6136037"><ele>647.0</ele><time>2026-04-25T10:25:11.093Z</time></trkpt><trkpt lat="41.888025" lon="1.6138551"><ele>647.0</ele><time>2026-04-25T10:25:12.094Z</time></trkpt><trkpt lat="41.8878633" lon="1.6141183"><ele>647.0</ele><time>2026-04-25T10:25:13.094Z</time></trkpt><trkpt lat="41.8876972" lon="1.6143865"><ele>649.5</ele><time>2026-04-25T10:25:14.094Z</time></trkpt><trkpt lat="41.8875511" lon="1.6146312"><ele>652.0</ele><time>2026-04-25T10:25:15.094Z</time></trkpt><trkpt lat="41.8874381" lon="1.6149022"><ele>652.0</ele><time>2026-04-25T10:25:16.094Z</time></trkpt><trkpt lat="41.8873594" lon="1.6152056"><ele>652.0</ele><time>2026-04-25T10:25:17.094Z</time></trkpt><trkpt lat="41.8872962" lon="1.6155348"><ele>653.6666666666667</ele><time>2026-04-25T10:25:18.094Z</time></trkpt><trkpt lat="41.8872313" lon="1.6158297"><ele>655.3333333333334</ele><time>2026-04-25T10:25:19.093Z</time></trkpt><trkpt lat="41.8871746" lon="1.6160987"><ele>657.0</ele><time>2026-04-25T10:25:20.093Z</time></trkpt><trkpt lat="41.8871369" lon="1.6163564"><ele>658.0</ele><time>2026-04-25T10:25:21.094Z</time></trkpt><trkpt lat="41.8871433" lon="1.6166019"><ele>659.0</ele><time>2026-04-25T10:25:22.094Z</time></trkpt><trkpt lat="41.8871887" lon="1.6168597"><ele>660.0</ele><time>2026-04-25T10:25:23.093Z</time></trkpt><trkpt lat="41.8872611" lon="1.6171354"><ele>662.5</ele><time>2026-04-25T10:25:24.093Z</time></trkpt><trkpt lat="41.8873413" lon="1.6174365"><ele>665.0</ele><time>2026-04-25T10:25:25.094Z</time></trkpt><trkpt lat="41.8874272" lon="1.6177572"><ele>667.0</ele><time>2026-04-25T10:25:26.093Z</time></trkpt><trkpt lat="41.8875205" lon="1.6180842"><ele>669.0</ele><time>2026-04-25T10:25:27.093Z</time></trkpt><trkpt lat="41.887618" lon="1.6184254"><ele>673.5</ele><time>2026-04-25T10:25:28.094Z</time></trkpt><trkpt lat="41.887722" lon="1.6187765"><ele>678.0</ele><time>2026-04-25T10:25:29.094Z</time></trkpt><trkpt lat="41.8878273" lon="1.61913"><ele>682.0</ele><time>2026-04-25T10:25:30.095Z</time></trkpt><trkpt lat="41.8879323" lon="1.6194848"><ele>686.0</ele><time>2026-04-25T10:25:31.093Z</time></trkpt><trkpt lat="41.8880316" lon="1.619827"><ele>686.0</ele><time>2026-04-25T10:25:32.093Z</time></trkpt><trkpt lat="41.8881113" lon="1.6201407"><ele>686.0</ele><time>2026-04-25T10:25:33.094Z</time></trkpt><trkpt lat="41.8881691" lon="1.6204548"><ele>686.5</ele><time>2026-04-25T10:25:34.093Z</time></trkpt><trkpt lat="41.8882047" lon="1.6207823"><ele>687.0</ele><time>2026-04-25T10:25:35.093Z</time></trkpt><trkpt lat="41.888228" lon="1.6210998"><ele>687.3333333333334</ele><time>2026-04-25T10:25:36.095Z</time></trkpt><trkpt lat="41.8882523" lon="1.6213941"><ele>687.6666666666667</ele><time>2026-04-25T10:25:37.094Z</time></trkpt><trkpt lat="41.8883032" lon="1.6216775"><ele>688.0</ele><time>2026-04-25T10:25:38.094Z</time></trkpt><trkpt lat="41.8883827" lon="1.6219664"><ele>689.5</ele><time>2026-04-25T10:25:39.093Z</time></trkpt><trkpt lat="41.8884855" lon="1.6222665"><ele>691.0</ele><time>2026-04-25T10:25:40.094Z</time></trkpt><trkpt lat="41.8885956" lon="1.6225889"><ele>689.5</ele><time>2026-04-25T10:25:41.093Z</time></trkpt><trkpt lat="41.8886938" lon="1.6229056"><ele>688.0</ele><time>2026-04-25T10:25:42.094Z</time></trkpt><trkpt lat="41.8888001" lon="1.6231969"><ele>688.0</ele><time>2026-04-25T10:25:43.094Z</time></trkpt><trkpt lat="41.8889393" lon="1.6234952"><ele>688.0</ele><time>2026-04-25T10:25:44.093Z</time></trkpt><trkpt lat="41.8890818" lon="1.6237863"><ele>686.0</ele><time>2026-04-25T10:25:45.095Z</time></trkpt><trkpt lat="41.8892109" lon="1.6240461"><ele>684.0</ele><time>2026-04-25T10:25:46.093Z</time></trkpt><trkpt lat="41.8893138" lon="1.6242769"><ele>682.0</ele><time>2026-04-25T10:25:47.094Z</time></trkpt><trkpt lat="41.8893756" lon="1.6245047"><ele>682.0</ele><time>2026-04-25T10:25:48.095Z</time></trkpt><trkpt lat="41.8893988" lon="1.6247428"><ele>682.0</ele><time>2026-04-25T10:25:49.094Z</time></trkpt><trkpt lat="41.8894108" lon="1.6249272"><ele>682.0</ele><time>2026-04-25T10:25:50.093Z</time></trkpt><trkpt lat="41.8894639" lon="1.6250786"><ele>682.0</ele><time>2026-04-25T10:25:51.093Z</time></trkpt><trkpt lat="41.8895711" lon="1.6252099"><ele>682.0</ele><time>2026-04-25T10:25:52.094Z</time></trkpt><trkpt lat="41.8897409" lon="1.6253078"><ele>682.0</ele><time>2026-04-25T10:25:53.093Z</time></trkpt><trkpt lat="41.889927" lon="1.6254412"><ele>682.0</ele><time>2026-04-25T10:25:54.093Z</time></trkpt><trkpt lat="41.8901141" lon="1.6256325"><ele>680.0</ele><time>2026-04-25T10:25:55.094Z</time></trkpt><trkpt lat="41.8903149" lon="1.6258476"><ele>678.0</ele><time>2026-04-25T10:25:56.095Z</time></trkpt><trkpt lat="41.8905169" lon="1.6260907"><ele>671.0</ele><time>2026-04-25T10:25:57.094Z</time></trkpt><trkpt lat="41.8907136" lon="1.6263665"><ele>664.0</ele><time>2026-04-25T10:25:58.095Z</time></trkpt><trkpt lat="41.8909047" lon="1.6266715"><ele>666.5</ele><time>2026-04-25T10:25:59.093Z</time></trkpt><trkpt lat="41.8910839" lon="1.6269865"><ele>669.0</ele><time>2026-04-25T10:26:00.094Z</time></trkpt><trkpt lat="41.8912372" lon="1.6272955"><ele>669.0</ele><time>2026-04-25T10:26:01.093Z</time></trkpt><trkpt lat="41.8913784" lon="1.6275837"><ele>669.0</ele><time>2026-04-25T10:26:02.093Z</time></trkpt><trkpt lat="41.8915187" lon="1.6278268"><ele>665.0</ele><time>2026-04-25T10:26:03.093Z</time></trkpt><trkpt lat="41.8916303" lon="1.6280662"><ele>661.0</ele><time>2026-04-25T10:26:04.094Z</time></trkpt><trkpt lat="41.8916937" lon="1.6283337"><ele>657.0</ele><time>2026-04-25T10:26:05.094Z</time></trkpt><trkpt lat="41.8917299" lon="1.6285934"><ele>658.3333333333334</ele><time>2026-04-25T10:26:06.093Z</time></trkpt><trkpt lat="41.8917907" lon="1.6288155"><ele>659.6666666666667</ele><time>2026-04-25T10:26:07.094Z</time></trkpt><trkpt lat="41.8919129" lon="1.6290214"><ele>661.0</ele><time>2026-04-25T10:26:08.093Z</time></trkpt><trkpt lat="41.8920792" lon="1.6292322"><ele>661.0</ele><time>2026-04-25T10:26:09.093Z</time></trkpt><trkpt lat="41.8922778" lon="1.6294562"><ele>661.0</ele><time>2026-04-25T10:26:10.094Z</time></trkpt><trkpt lat="41.8924789" lon="1.6296922"><ele>661.0</ele><time>2026-04-25T10:26:11.093Z</time></trkpt><trkpt lat="41.8926454" lon="1.6299142"><ele>661.0</ele><time>2026-04-25T10:26:12.093Z</time></trkpt><trkpt lat="41.8927901" lon="1.630171"><ele>655.0</ele><time>2026-04-25T10:26:13.093Z</time></trkpt><trkpt lat="41.8928999" lon="1.6304725"><ele>649.0</ele><time>2026-04-25T10:26:14.094Z</time></trkpt><trkpt lat="41.8929931" lon="1.6307875"><ele>649.0</ele><time>2026-04-25T10:26:15.094Z</time></trkpt><trkpt lat="41.8930756" lon="1.6310546"><ele>649.0</ele><time>2026-04-25T10:26:16.093Z</time></trkpt><trkpt lat="41.8931626" lon="1.6312666"><ele>649.0</ele><time>2026-04-25T10:26:17.094Z</time></trkpt><trkpt lat="41.8932941" lon="1.6314507"><ele>650.6666666666667</ele><time>2026-04-25T10:26:18.094Z</time></trkpt><trkpt lat="41.8934539" lon="1.6316166"><ele>652.3333333333334</ele><time>2026-04-25T10:26:19.094Z</time></trkpt><trkpt lat="41.8935687" lon="1.6317722"><ele>654.0</ele><time>2026-04-25T10:26:20.094Z</time></trkpt><trkpt lat="41.8936422" lon="1.6319761"><ele>650.0</ele><time>2026-04-25T10:26:21.093Z</time></trkpt><trkpt lat="41.893679" lon="1.6322426"><ele>646.0</ele><time>2026-04-25T10:26:22.094Z</time></trkpt><trkpt lat="41.8937172" lon="1.632493"><ele>642.0</ele><time>2026-04-25T10:26:23.093Z</time></trkpt><trkpt lat="41.8937721" lon="1.6327151"><ele>638.6666666666666</ele><time>2026-04-25T10:26:24.093Z</time></trkpt><trkpt lat="41.8938623" lon="1.6329135"><ele>635.3333333333333</ele><time>2026-04-25T10:26:25.095Z</time></trkpt><trkpt lat="41.8939964" lon="1.6330725"><ele>632.0</ele><time>2026-04-25T10:26:26.093Z</time></trkpt><trkpt lat="41.8941661" lon="1.6332273"><ele>630.0</ele><time>2026-04-25T10:26:27.094Z</time></trkpt><trkpt lat="41.8943469" lon="1.6334173"><ele>628.0</ele><time>2026-04-25T10:26:28.095Z</time></trkpt><trkpt lat="41.8945077" lon="1.6336171"><ele>626.0</ele><time>2026-04-25T10:26:29.093Z</time></trkpt><trkpt lat="41.8946982" lon="1.6337822"><ele>626.0</ele><time>2026-04-25T10:26:30.094Z</time></trkpt><trkpt lat="41.8948834" lon="1.6339089"><ele>626.0</ele><time>2026-04-25T10:26:31.094Z</time></trkpt><trkpt lat="41.8950776" lon="1.6339812"><ele>626.0</ele><time>2026-04-25T10:26:32.094Z</time></trkpt><trkpt lat="41.8952476" lon="1.6340402"><ele>628.0</ele><time>2026-04-25T10:26:33.095Z</time></trkpt><trkpt lat="41.8954018" lon="1.6341615"><ele>630.0</ele><time>2026-04-25T10:26:34.093Z</time></trkpt><trkpt lat="41.8955397" lon="1.6343535"><ele>632.0</ele><time>2026-04-25T10:26:35.094Z</time></trkpt><trkpt lat="41.8956527" lon="1.6346115"><ele>632.0</ele><time>2026-04-25T10:26:36.093Z</time></trkpt><trkpt lat="41.8957641" lon="1.6349032"><ele>632.0</ele><time>2026-04-25T10:26:37.094Z</time></trkpt><trkpt lat="41.8958777" lon="1.635219"><ele>638.5</ele><time>2026-04-25T10:26:38.094Z</time></trkpt><trkpt lat="41.8959707" lon="1.6355511"><ele>645.0</ele><time>2026-04-25T10:26:39.093Z</time></trkpt><trkpt lat="41.8960302" lon="1.6358722"><ele>661.0</ele><time>2026-04-25T10:26:40.094Z</time></trkpt><trkpt lat="41.8922778" lon="1.6294562"><ele>661.0</ele><time>2026-04-25T10:26:10.094Z</time></trkpt><trkpt lat="41.8924789" lon="1.6296922"><ele>661.0</ele><time>2026-04-25T10:26:11.093Z</time></trkpt><trkpt lat="41.8926454" lon="1.6299142"><ele>661.0</ele><time>2026-04-25T10:26:12.093Z</time></trkpt><trkpt lat="41.8927901" lon="1.630171"><ele>661.0</ele><time>2026-04-25T10:26:13.093Z</time></trkpt><trkpt lat="41.8928999" lon="1.6304725"><ele>655.0</ele><time>2026-04-25T10:26:14.094Z</time></trkpt><trkpt lat="41.8929931" lon="1.6307875"><ele>649.0</ele><time>2026-04-25T10:26:15.094Z</time></trkpt><trkpt lat="41.8930756" lon="1.6310546"><ele>650.6666666666667</ele><time>2026-04-25T10:26:16.093Z</time></trkpt><trkpt lat="41.8931626" lon="1.6312666"><ele>652.3333333333334</ele><time>2026-04-25T10:26:17.094Z</time></trkpt><trkpt lat="41.8932941" lon="1.6314507"><ele>654.0</ele><time>2026-04-25T10:26:18.094Z</time></trkpt><trkpt lat="41.8934539" lon="1.6316166"><ele>654.0</ele><time>2026-04-25T10:26:19.094Z</time></trkpt><trkpt lat="41.8935687" lon="1.6317722"><ele>654.0</ele><time>2026-04-25T10:26:20.094Z</time></trkpt><trkpt lat="41.8936422" lon="1.6319761"><ele>654.0</ele><time>2026-04-25T10:26:21.093Z</time></trkpt><trkpt lat="41.893679" lon="1.6322426"><ele>650.0</ele><time>2026-04-25T10:26:22.094Z</time></trkpt><trkpt lat="41.8937172" lon="1.632493"><ele>646.0</ele><time>2026-04-25T10:26:23.093Z</time></trkpt><trkpt lat="41.8937721" lon="1.6327151"><ele>642.0</ele><time>2026-04-25T10:26:24.093Z</time></trkpt><trkpt lat="41.8938623" lon="1.6329135"><ele>641.3333333333334</ele><time>2026-04-25T10:26:25.095Z</time></trkpt><trkpt lat="41.8939964" lon="1.6330725"><ele>640.6666666666667</ele><time>2026-04-25T10:26:26.093Z</time></trkpt><trkpt lat="41.8941661" lon="1.6332273"><ele>640.0</ele><time>2026-04-25T10:26:27.094Z</time></trkpt><trkpt lat="41.8943469" lon="1.6334173"><ele>640.0</ele><time>2026-04-25T10:26:28.095Z</time></trkpt><trkpt lat="41.8945077" lon="1.6336171"><ele>640.0</ele><time>2026-04-25T10:26:29.093Z</time></trkpt><trkpt lat="41.8946982" lon="1.6337822"><ele>640.0</ele><time>2026-04-25T10:26:30.094Z</time></trkpt><trkpt lat="41.8948834" lon="1.6339089"><ele>640.3333333333334</ele><time>2026-04-25T10:26:31.094Z</time></trkpt><trkpt lat="41.8950776" lon="1.6339812"><ele>640.6666666666666</ele><time>2026-04-25T10:26:32.094Z</time></trkpt><trkpt lat="41.8952476" lon="1.6340402"><ele>641.0</ele><time>2026-04-25T10:26:33.095Z</time></trkpt><trkpt lat="41.8954018" lon="1.6341615"><ele>641.0</ele><time>2026-04-25T10:26:34.093Z</time></trkpt><trkpt lat="41.8955397" lon="1.6343535"><ele>641.0</ele><time>2026-04-25T10:26:35.094Z</time></trkpt><trkpt lat="41.8956527" lon="1.6346115"><ele>641.0</ele><time>2026-04-25T10:26:36.093Z</time></trkpt><trkpt lat="41.8957641" lon="1.6349032"><ele>643.0</ele><time>2026-04-25T10:26:37.094Z</time></trkpt><trkpt lat="41.8958777" lon="1.635219"><ele>645.0</ele><time>2026-04-25T10:26:38.094Z</time></trkpt><trkpt lat="41.8959707" lon="1.6355511"><ele>645.0</ele><time>2026-04-25T10:26:39.093Z</time></trkpt><trkpt lat="41.8960302" lon="1.6358722"><ele>645.0</ele><time>2026-04-25T10:26:40.094Z</time></trkpt><trkpt lat="41.8960595" lon="1.6361771"><ele>641.0</ele><time>2026-04-25T10:26:41.093Z</time></trkpt><trkpt lat="41.8960882" lon="1.6364651"><ele>637.0</ele><time>2026-04-25T10:26:42.093Z</time></trkpt><trkpt lat="41.8961225" lon="1.6367201"><ele>633.0</ele><time>2026-04-25T10:26:43.094Z</time></trkpt><trkpt lat="41.8962097" lon="1.636972"><ele>626.5</ele><time>2026-04-25T10:26:44.094Z</time></trkpt><trkpt lat="41.8963416" lon="1.6372327"><ele>620.0</ele><time>2026-04-25T10:26:45.093Z</time></trkpt><trkpt lat="41.8965064" lon="1.6374971"><ele>620.0</ele><time>2026-04-25T10:26:46.093Z</time></trkpt><trkpt lat="41.8967005" lon="1.6377552"><ele>620.0</ele><time>2026-04-25T10:26:47.094Z</time></trkpt><trkpt lat="41.8969065" lon="1.6380254"><ele>617.5</ele><time>2026-04-25T10:26:48.093Z</time></trkpt><trkpt lat="41.8971087" lon="1.6382864"><ele>615.0</ele><time>2026-04-25T10:26:49.093Z</time></trkpt><trkpt lat="41.8973075" lon="1.6385247"><ele>612.5</ele><time>2026-04-25T10:26:50.094Z</time></trkpt><trkpt lat="41.8975229" lon="1.6387451"><ele>610.0</ele><time>2026-04-25T10:26:51.094Z</time></trkpt><trkpt lat="41.8977547" lon="1.6389473"><ele>610.0</ele><time>2026-04-25T10:26:52.095Z</time></trkpt><trkpt lat="41.8979872" lon="1.6391395"><ele>610.0</ele><time>2026-04-25T10:26:53.095Z</time></trkpt><trkpt lat="41.898199" lon="1.6393256"><ele>611.0</ele><time>2026-04-25T10:26:54.093Z</time></trkpt><trkpt lat="41.8983893" lon="1.6395246"><ele>612.0</ele><time>2026-04-25T10:26:55.094Z</time></trkpt><trkpt lat="41.8985444" lon="1.6397628"><ele>612.0</ele><time>2026-04-25T10:26:56.095Z</time></trkpt><trkpt lat="41.8986735" lon="1.640052"><ele>612.0</ele><time>2026-04-25T10:26:57.094Z</time></trkpt><trkpt lat="41.8987869" lon="1.640372"><ele>609.0</ele><time>2026-04-25T10:26:58.094Z</time></trkpt><trkpt lat="41.8988828" lon="1.6407159"><ele>606.0</ele><time>2026-04-25T10:26:59.094Z</time></trkpt><trkpt lat="41.8989677" lon="1.6410883"><ele>604.0</ele><time>2026-04-25T10:27:00.094Z</time></trkpt><trkpt lat="41.8990488" lon="1.6414766"><ele>602.0</ele><time>2026-04-25T10:27:01.093Z</time></trkpt><trkpt lat="41.8991301" lon="1.6418629"><ele>601.0</ele><time>2026-04-25T10:27:02.093Z</time></trkpt><trkpt lat="41.8992045" lon="1.642216"><ele>600.0</ele><time>2026-04-25T10:27:03.094Z</time></trkpt><trkpt lat="41.8992751" lon="1.6425489"><ele>604.0</ele><time>2026-04-25T10:27:04.093Z</time></trkpt><trkpt lat="41.8993563" lon="1.6428532"><ele>608.0</ele><time>2026-04-25T10:27:05.093Z</time></trkpt><trkpt lat="41.8994722" lon="1.6431389"><ele>608.0</ele><time>2026-04-25T10:27:06.094Z</time></trkpt><trkpt lat="41.8996087" lon="1.6434252"><ele>608.0</ele><time>2026-04-25T10:27:07.094Z</time></trkpt><trkpt lat="41.8997496" lon="1.643718"><ele>605.0</ele><time>2026-04-25T10:27:08.094Z</time></trkpt><trkpt lat="41.8998886" lon="1.6440145"><ele>602.0</ele><time>2026-04-25T10:27:09.093Z</time></trkpt><trkpt lat="41.9000187" lon="1.6442933"><ele>602.5</ele><time>2026-04-25T10:27:10.095Z</time></trkpt><trkpt lat="41.9001447" lon="1.6445605"><ele>603.0</ele><time>2026-04-25T10:27:11.094Z</time></trkpt><trkpt lat="41.900273" lon="1.6448235"><ele>603.0</ele><time>2026-04-25T10:27:12.094Z</time></trkpt><trkpt lat="41.9004162" lon="1.6450978"><ele>603.0</ele><time>2026-04-25T10:27:13.094Z</time></trkpt><trkpt lat="41.9005792" lon="1.6453717"><ele>601.5</ele><time>2026-04-25T10:27:14.094Z</time></trkpt><trkpt lat="41.9007667" lon="1.6456442"><ele>600.0</ele><time>2026-04-25T10:27:15.094Z</time></trkpt><trkpt lat="41.9009696" lon="1.6459222"><ele>601.5</ele><time>2026-04-25T10:27:16.094Z</time></trkpt><trkpt lat="41.9011736" lon="1.6462134"><ele>603.0</ele><time>2026-04-25T10:27:17.093Z</time></trkpt><trkpt lat="41.9013632" lon="1.6465268"><ele>603.0</ele><time>2026-04-25T10:27:18.094Z</time></trkpt><trkpt lat="41.9015414" lon="1.6468602"><ele>603.0</ele><time>2026-04-25T10:27:19.094Z</time></trkpt><trkpt lat="41.9017182" lon="1.6471934"><ele>606.0</ele><time>2026-04-25T10:27:20.094Z</time></trkpt><trkpt lat="41.9018804" lon="1.647499"><ele>609.0</ele><time>2026-04-25T10:27:21.094Z</time></trkpt><trkpt lat="41.9020336" lon="1.6477889"><ele>606.5</ele><time>2026-04-25T10:27:22.093Z</time></trkpt><trkpt lat="41.9021724" lon="1.648054"><ele>604.0</ele><time>2026-04-25T10:27:23.094Z</time></trkpt><trkpt lat="41.9022973" lon="1.6483057"><ele>604.0</ele><time>2026-04-25T10:27:24.093Z</time></trkpt><trkpt lat="41.9024068" lon="1.6485615"><ele>604.0</ele><time>2026-04-25T10:27:25.094Z</time></trkpt><trkpt lat="41.9025071" lon="1.648836"><ele>604.0</ele><time>2026-04-25T10:27:26.093Z</time></trkpt><trkpt lat="41.9026094" lon="1.6491304"><ele>603.0</ele><time>2026-04-25T10:27:27.094Z</time></trkpt><trkpt lat="41.9027141" lon="1.6494414"><ele>602.0</ele><time>2026-04-25T10:27:28.093Z</time></trkpt><trkpt lat="41.9028218" lon="1.6497682"><ele>599.0</ele><time>2026-04-25T10:27:29.095Z</time></trkpt><trkpt lat="41.9029325" lon="1.6501029"><ele>596.0</ele><time>2026-04-25T10:27:30.093Z</time></trkpt><trkpt lat="41.9030482" lon="1.6504472"><ele>596.0</ele><time>2026-04-25T10:27:31.093Z</time></trkpt><trkpt lat="41.9031625" lon="1.6507971"><ele>596.0</ele><time>2026-04-25T10:27:32.093Z</time></trkpt><trkpt lat="41.9032748" lon="1.651148"><ele>595.5</ele><time>2026-04-25T10:27:33.094Z</time></trkpt><trkpt lat="41.903388" lon="1.6514969"><ele>595.0</ele><time>2026-04-25T10:27:34.094Z</time></trkpt><trkpt lat="41.9035057" lon="1.651845"><ele>591.5</ele><time>2026-04-25T10:27:35.093Z</time></trkpt><trkpt lat="41.9036213" lon="1.6521987"><ele>588.0</ele><time>2026-04-25T10:27:36.094Z</time></trkpt><trkpt lat="41.9037383" lon="1.6525565"><ele>587.5</ele><time>2026-04-25T10:27:37.094Z</time></trkpt><trkpt lat="41.9038541" lon="1.6529113"><ele>587.0</ele><time>2026-04-25T10:27:38.093Z</time></trkpt><trkpt lat="41.9039673" lon="1.653256"><ele>587.0</ele><time>2026-04-25T10:27:39.094Z</time></trkpt><trkpt lat="41.9040783" lon="1.6535953"><ele>587.0</ele><time>2026-04-25T10:27:40.094Z</time></trkpt><trkpt lat="41.9041892" lon="1.6539349"><ele>582.0</ele><time>2026-04-25T10:27:41.093Z</time></trkpt><trkpt lat="41.9042969" lon="1.6542639"><ele>577.0</ele><time>2026-04-25T10:27:42.095Z</time></trkpt><trkpt lat="41.9043995" lon="1.6545727"><ele>577.0</ele><time>2026-04-25T10:27:43.093Z</time></trkpt><trkpt lat="41.9044961" lon="1.65486"><ele>577.0</ele><time>2026-04-25T10:27:44.094Z</time></trkpt><trkpt lat="41.9045805" lon="1.6551347"><ele>579.5</ele><time>2026-04-25T10:27:45.094Z</time></trkpt><trkpt lat="41.9046543" lon="1.6554254"><ele>582.0</ele><time>2026-04-25T10:27:46.094Z</time></trkpt><trkpt lat="41.90472" lon="1.6557392"><ele>582.0</ele><time>2026-04-25T10:27:47.094Z</time></trkpt><trkpt lat="41.9047822" lon="1.6560679"><ele>582.0</ele><time>2026-04-25T10:27:48.093Z</time></trkpt><trkpt lat="41.9048463" lon="1.6563973"><ele>584.5</ele><time>2026-04-25T10:27:49.093Z</time></trkpt><trkpt lat="41.9049197" lon="1.6567059"><ele>587.0</ele><time>2026-04-25T10:27:50.093Z</time></trkpt><trkpt lat="41.9050216" lon="1.6570018"><ele>584.5</ele><time>2026-04-25T10:27:51.094Z</time></trkpt><trkpt lat="41.9051496" lon="1.6572908"><ele>582.0</ele><time>2026-04-25T10:27:52.094Z</time></trkpt><trkpt lat="41.9052814" lon="1.6575804"><ele>584.5</ele><time>2026-04-25T10:27:53.093Z</time></trkpt><trkpt lat="41.9054116" lon="1.657874"><ele>587.0</ele><time>2026-04-25T10:27:54.093Z</time></trkpt><trkpt lat="41.9055414" lon="1.6581638"><ele>587.0</ele><time>2026-04-25T10:27:55.094Z</time></trkpt><trkpt lat="41.9056705" lon="1.6584529"><ele>587.0</ele><time>2026-04-25T10:27:56.095Z</time></trkpt><trkpt lat="41.9058083" lon="1.6587361"><ele>587.0</ele><time>2026-04-25T10:27:57.093Z</time></trkpt><trkpt lat="41.9059352" lon="1.6590015"><ele>587.0</ele><time>2026-04-25T10:27:58.093Z</time></trkpt><trkpt lat="41.9060486" lon="1.6592461"><ele>587.0</ele><time>2026-04-25T10:27:59.095Z</time></trkpt><trkpt lat="41.9061518" lon="1.6594734"><ele>588.0</ele><time>2026-04-25T10:28:00.095Z</time></trkpt><trkpt lat="41.9062369" lon="1.6596967"><ele>589.0</ele><time>2026-04-25T10:28:01.093Z</time></trkpt><trkpt lat="41.9062995" lon="1.6599284"><ele>590.0</ele><time>2026-04-25T10:28:02.094Z</time></trkpt><trkpt lat="41.9063294" lon="1.660188"><ele>591.3333333333333</ele><time>2026-04-25T10:28:03.094Z</time></trkpt><trkpt lat="41.9063217" lon="1.6604701"><ele>592.6666666666666</ele><time>2026-04-25T10:28:04.094Z</time></trkpt><trkpt lat="41.9062981" lon="1.6607773"><ele>594.0</ele><time>2026-04-25T10:28:05.094Z</time></trkpt><trkpt lat="41.9062859" lon="1.6610982"><ele>596.0</ele><time>2026-04-25T10:28:06.094Z</time></trkpt><trkpt lat="41.9062699" lon="1.6614386"><ele>598.0</ele><time>2026-04-25T10:28:07.094Z</time></trkpt><trkpt lat="41.9062512" lon="1.6617578"><ele>598.0</ele><time>2026-04-25T10:28:08.094Z</time></trkpt><trkpt lat="41.9062334" lon="1.6620701"><ele>598.0</ele><time>2026-04-25T10:28:09.093Z</time></trkpt><trkpt lat="41.9062158" lon="1.6623548"><ele>598.0</ele><time>2026-04-25T10:28:10.093Z</time></trkpt><trkpt lat="41.9062091" lon="1.6626067"><ele>596.0</ele><time>2026-04-25T10:28:11.093Z</time></trkpt><trkpt lat="41.9062376" lon="1.6628345"><ele>594.0</ele><time>2026-04-25T10:28:12.094Z</time></trkpt><trkpt lat="41.906303" lon="1.6630367"><ele>592.0</ele><time>2026-04-25T10:28:13.093Z</time></trkpt><trkpt lat="41.9063996" lon="1.6632369"><ele>592.0</ele><time>2026-04-25T10:28:14.093Z</time></trkpt><trkpt lat="41.9065101" lon="1.6634353"><ele>592.0</ele><time>2026-04-25T10:28:15.094Z</time></trkpt><trkpt lat="41.9066235" lon="1.6636453"><ele>592.0</ele><time>2026-04-25T10:28:16.093Z</time></trkpt><trkpt lat="41.9067158" lon="1.6638452"><ele>589.75</ele><time>2026-04-25T10:28:17.094Z</time></trkpt><trkpt lat="41.9067742" lon="1.6640278"><ele>587.5</ele><time>2026-04-25T10:28:18.093Z</time></trkpt><trkpt lat="41.9067977" lon="1.6642032"><ele>585.25</ele><time>2026-04-25T10:28:19.093Z</time></trkpt><trkpt lat="41.906792" lon="1.6643577"><ele>583.0</ele><time>2026-04-25T10:28:20.094Z</time></trkpt><trkpt lat="41.9068322" lon="1.6644926"><ele>583.0</ele><time>2026-04-25T10:28:21.093Z</time></trkpt><trkpt lat="41.9068985" lon="1.6645942"><ele>583.0</ele><time>2026-04-25T10:28:22.094Z</time></trkpt><trkpt lat="41.9069717" lon="1.6646835"><ele>583.0</ele><time>2026-04-25T10:28:23.093Z</time></trkpt><trkpt lat="41.9070415" lon="1.6647765"><ele>583.0</ele><time>2026-04-25T10:28:24.095Z</time></trkpt><trkpt lat="41.9071019" lon="1.6648808"><ele>583.0</ele><time>2026-04-25T10:28:25.093Z</time></trkpt><trkpt lat="41.907149" lon="1.6649981"><ele>583.0</ele><time>2026-04-25T10:28:26.093Z</time></trkpt><trkpt lat="41.9071798" lon="1.6651284"><ele>583.0</ele><time>2026-04-25T10:28:27.094Z</time></trkpt><trkpt lat="41.9072047" lon="1.6652738"><ele>583.0</ele><time>2026-04-25T10:28:28.095Z</time></trkpt><trkpt lat="41.9072362" lon="1.6654169"><ele>583.0</ele><time>2026-04-25T10:28:29.093Z</time></trkpt><trkpt lat="41.9072836" lon="1.6655387"><ele>583.0</ele><time>2026-04-25T10:28:30.093Z</time></trkpt><trkpt lat="41.907349" lon="1.6656362"><ele>585.1999999999999</ele><time>2026-04-25T10:28:31.093Z</time></trkpt><trkpt lat="41.9074294" lon="1.6657135"><ele>587.4</ele><time>2026-04-25T10:28:32.094Z</time></trkpt><trkpt lat="41.9075199" lon="1.6657698"><ele>589.5999999999999</ele><time>2026-04-25T10:28:33.093Z</time></trkpt><trkpt lat="41.9076128" lon="1.6658171"><ele>591.8</ele><time>2026-04-25T10:28:34.094Z</time></trkpt><trkpt lat="41.9077032" lon="1.6658678"><ele>594.0</ele><time>2026-04-25T10:28:35.095Z</time></trkpt><trkpt lat="41.9077821" lon="1.6659429"><ele>591.0</ele><time>2026-04-25T10:28:36.093Z</time></trkpt><trkpt lat="41.9078505" lon="1.6660403"><ele>588.0</ele><time>2026-04-25T10:28:37.094Z</time></trkpt><trkpt lat="41.9079037" lon="1.6661559"><ele>585.0</ele><time>2026-04-25T10:28:38.094Z</time></trkpt><trkpt lat="41.907938" lon="1.6662933"><ele>582.0</ele><time>2026-04-25T10:28:39.095Z</time></trkpt><trkpt lat="41.9079464" lon="1.6664316"><ele>579.0</ele><time>2026-04-25T10:28:40.094Z</time></trkpt><trkpt lat="41.9079331" lon="1.6665694"><ele>579.0</ele><time>2026-04-25T10:28:41.093Z</time></trkpt><trkpt lat="41.9079194" lon="1.6667096"><ele>579.0</ele><time>2026-04-25T10:28:42.094Z</time></trkpt><trkpt lat="41.9079311" lon="1.6668785"><ele>579.0</ele><time>2026-04-25T10:28:43.093Z</time></trkpt><trkpt lat="41.9079687" lon="1.667112"><ele>579.0</ele><time>2026-04-25T10:28:44.094Z</time></trkpt><trkpt lat="41.9080161" lon="1.6673802"><ele>580.6666666666666</ele><time>2026-04-25T10:28:45.094Z</time></trkpt><trkpt lat="41.9080563" lon="1.6676224"><ele>582.3333333333333</ele><time>2026-04-25T10:28:46.093Z</time></trkpt><trkpt lat="41.9080588" lon="1.6678289"><ele>584.0</ele><time>2026-04-25T10:28:47.094Z</time></trkpt><trkpt lat="41.9080109" lon="1.6680109"><ele>584.25</ele><time>2026-04-25T10:28:48.093Z</time></trkpt><trkpt lat="41.9079203" lon="1.6681776"><ele>584.5</ele><time>2026-04-25T10:28:49.094Z</time></trkpt><trkpt lat="41.9078704" lon="1.6683372"><ele>584.75</ele><time>2026-04-25T10:28:50.093Z</time></trkpt><trkpt lat="41.9078691" lon="1.6685335"><ele>585.0</ele><time>2026-04-25T10:28:51.094Z</time></trkpt><trkpt lat="41.9079171" lon="1.6687631"><ele>584.3333333333334</ele><time>2026-04-25T10:28:52.094Z</time></trkpt><trkpt lat="41.9079671" lon="1.6690002"><ele>583.6666666666667</ele><time>2026-04-25T10:28:53.094Z</time></trkpt><trkpt lat="41.9080114" lon="1.6691993"><ele>583.0</ele><time>2026-04-25T10:28:54.094Z</time></trkpt><trkpt lat="41.9080959" lon="1.6693607"><ele>580.6666666666667</ele><time>2026-04-25T10:28:55.095Z</time></trkpt><trkpt lat="41.9082337" lon="1.6695186"><ele>578.3333333333334</ele><time>2026-04-25T10:28:56.094Z</time></trkpt><trkpt lat="41.9084007" lon="1.6696784"><ele>576.0</ele><time>2026-04-25T10:28:57.094Z</time></trkpt><trkpt lat="41.908572" lon="1.6698381"><ele>576.0</ele><time>2026-04-25T10:28:58.094Z</time></trkpt><trkpt lat="41.9087118" lon="1.6700099"><ele>576.0</ele><time>2026-04-25T10:28:59.094Z</time></trkpt><trkpt lat="41.9088344" lon="1.6702022"><ele>576.0</ele><time>2026-04-25T10:29:00.093Z</time></trkpt><trkpt lat="41.9089334" lon="1.6703898"><ele>573.5</ele><time>2026-04-25T10:29:01.093Z</time></trkpt><trkpt lat="41.909022" lon="1.6705319"><ele>571.0</ele><time>2026-04-25T10:29:02.094Z</time></trkpt><trkpt lat="41.9091209" lon="1.6706134"><ele>568.5</ele><time>2026-04-25T10:29:03.093Z</time></trkpt><trkpt lat="41.9092321" lon="1.6706165"><ele>566.0</ele><time>2026-04-25T10:29:04.094Z</time></trkpt><trkpt lat="41.9093598" lon="1.6705966"><ele>564.5</ele><time>2026-04-25T10:29:05.094Z</time></trkpt><trkpt lat="41.9094814" lon="1.6706381"><ele>563.0</ele><time>2026-04-25T10:29:06.095Z</time></trkpt><trkpt lat="41.9095953" lon="1.6707443"><ele>561.5</ele><time>2026-04-25T10:29:07.094Z</time></trkpt><trkpt lat="41.9097064" lon="1.6709183"><ele>560.0</ele><time>2026-04-25T10:29:08.094Z</time></trkpt><trkpt lat="41.9098262" lon="1.671128"><ele>558.3333333333333</ele><time>2026-04-25T10:29:09.093Z</time></trkpt><trkpt lat="41.9099428" lon="1.6713591"><ele>556.6666666666666</ele><time>2026-04-25T10:29:10.094Z</time></trkpt><trkpt lat="41.910044" lon="1.6715717"><ele>555.0</ele><time>2026-04-25T10:29:11.094Z</time></trkpt><trkpt lat="41.9101228" lon="1.6717694"><ele>555.3333333333334</ele><time>2026-04-25T10:29:12.094Z</time></trkpt><trkpt lat="41.9101613" lon="1.6719556"><ele>555.6666666666667</ele><time>2026-04-25T10:29:13.094Z</time></trkpt><trkpt lat="41.9101637" lon="1.6721632"><ele>556.0</ele><time>2026-04-25T10:29:14.093Z</time></trkpt><trkpt lat="41.9101317" lon="1.6723901"><ele>556.0</ele><time>2026-04-25T10:29:15.093Z</time></trkpt><trkpt lat="41.9100982" lon="1.6726377"><ele>556.0</ele><time>2026-04-25T10:29:16.093Z</time></trkpt><trkpt lat="41.910043" lon="1.6729052"><ele>556.0</ele><time>2026-04-25T10:29:17.094Z</time></trkpt><trkpt lat="41.9099515" lon="1.6731615"><ele>557.0</ele><time>2026-04-25T10:29:18.093Z</time></trkpt><trkpt lat="41.9098561" lon="1.6733869"><ele>558.0</ele><time>2026-04-25T10:29:19.094Z</time></trkpt><trkpt lat="41.9097781" lon="1.6736029"><ele>559.0</ele><time>2026-04-25T10:29:20.095Z</time></trkpt><trkpt lat="41.909712" lon="1.6737936"><ele>560.5</ele><time>2026-04-25T10:29:21.094Z</time></trkpt><trkpt lat="41.9096155" lon="1.6739383"><ele>562.0</ele><time>2026-04-25T10:29:22.094Z</time></trkpt><trkpt lat="41.9094894" lon="1.6740334"><ele>563.5</ele><time>2026-04-25T10:29:23.094Z</time></trkpt><trkpt lat="41.909351" lon="1.6740891"><ele>565.0</ele><time>2026-04-25T10:29:24.095Z</time></trkpt><trkpt lat="41.9092467" lon="1.6742069"><ele>561.75</ele><time>2026-04-25T10:29:25.093Z</time></trkpt><trkpt lat="41.909147" lon="1.6743476"><ele>558.5</ele><time>2026-04-25T10:29:26.094Z</time></trkpt><trkpt lat="41.9090394" lon="1.6744238"><ele>555.25</ele><time>2026-04-25T10:29:27.094Z</time></trkpt><trkpt lat="41.9089041" lon="1.6744509"><ele>552.0</ele><time>2026-04-25T10:29:28.094Z</time></trkpt><trkpt lat="41.9087469" lon="1.6744739"><ele>552.0</ele><time>2026-04-25T10:29:29.094Z</time></trkpt><trkpt lat="41.9086193" lon="1.6745392"><ele>552.0</ele><time>2026-04-25T10:29:30.094Z</time></trkpt><trkpt lat="41.9085143" lon="1.6746465"><ele>552.0</ele><time>2026-04-25T10:29:31.093Z</time></trkpt><trkpt lat="41.908425" lon="1.674811"><ele>552.0</ele><time>2026-04-25T10:29:32.094Z</time></trkpt><trkpt lat="41.9083635" lon="1.6750181"><ele>546.0</ele><time>2026-04-25T10:29:33.094Z</time></trkpt><trkpt lat="41.9083378" lon="1.6752549"><ele>540.0</ele><time>2026-04-25T10:29:34.094Z</time></trkpt><trkpt lat="41.9083321" lon="1.6754865"><ele>534.0</ele><time>2026-04-25T10:29:35.094Z</time></trkpt><trkpt lat="41.9083655" lon="1.6757206"><ele>532.0</ele><time>2026-04-25T10:29:36.093Z</time></trkpt><trkpt lat="41.9084334" lon="1.6759823"><ele>530.0</ele><time>2026-04-25T10:29:37.093Z</time></trkpt><trkpt lat="41.90849" lon="1.6762185"><ele>528.0</ele><time>2026-04-25T10:29:38.095Z</time></trkpt><trkpt lat="41.9085349" lon="1.6764164"><ele>528.0</ele><time>2026-04-25T10:29:39.093Z</time></trkpt><trkpt lat="41.9085972" lon="1.6765784"><ele>528.0</ele><time>2026-04-25T10:29:40.094Z</time></trkpt><trkpt lat="41.9086793" lon="1.676707"><ele>528.0</ele><time>2026-04-25T10:29:41.093Z</time></trkpt><trkpt lat="41.9087737" lon="1.6767814"><ele>528.0</ele><time>2026-04-25T10:29:42.095Z</time></trkpt><trkpt lat="41.9088788" lon="1.6767828"><ele>528.0</ele><time>2026-04-25T10:29:43.094Z</time></trkpt><trkpt lat="41.9089821" lon="1.676725"><ele>528.0</ele><time>2026-04-25T10:29:44.094Z</time></trkpt><trkpt lat="41.9090807" lon="1.6766621"><ele>528.0</ele><time>2026-04-25T10:29:45.094Z</time></trkpt><trkpt lat="41.9091771" lon="1.6766075"><ele>528.0</ele><time>2026-04-25T10:29:46.093Z</time></trkpt><trkpt lat="41.9092692" lon="1.6765567"><ele>528.0</ele><time>2026-04-25T10:29:47.094Z</time></trkpt><trkpt lat="41.9093584" lon="1.6765247"><ele>529.1666666666666</ele><time>2026-04-25T10:29:48.094Z</time></trkpt><trkpt lat="41.9094423" lon="1.6765217"><ele>530.3333333333334</ele><time>2026-04-25T10:29:49.095Z</time></trkpt><trkpt lat="41.9095115" lon="1.6765568"><ele>531.5</ele><time>2026-04-25T10:29:50.093Z</time></trkpt><trkpt lat="41.9095643" lon="1.6766213"><ele>532.6666666666667</ele><time>2026-04-25T10:29:51.093Z</time></trkpt><trkpt lat="41.9095977" lon="1.6767036"><ele>533.8333333333334</ele><time>2026-04-25T10:29:52.094Z</time></trkpt><trkpt lat="41.9096332" lon="1.6767782"><ele>535.0</ele><time>2026-04-25T10:29:53.094Z</time></trkpt><trkpt lat="41.9096933" lon="1.6769024"><ele>534.0</ele><time>2026-04-25T10:29:55.093Z</time></trkpt><trkpt lat="41.909736" lon="1.6769979"><ele>533.0</ele><time>2026-04-25T10:29:57.094Z</time></trkpt><trkpt lat="41.9098052" lon="1.6770713"><ele>532.0</ele><time>2026-04-25T10:30:47.095Z</time></trkpt><trkpt lat="41.9098446" lon="1.6771615"><ele>531.0</ele><time>2026-04-25T10:30:49.094Z</time></trkpt><trkpt lat="41.9098536" lon="1.6772714"><ele>530.0</ele><time>2026-04-25T10:30:51.094Z</time></trkpt><trkpt lat="41.9098163" lon="1.6773912"><ele>529.0</ele><time>2026-04-25T10:30:53.093Z</time></trkpt><trkpt lat="41.9097422" lon="1.6775329"><ele>529.0</ele><time>2026-04-25T10:30:55.094Z</time></trkpt><trkpt lat="41.909692" lon="1.6776057"><ele>529.0</ele><time>2026-04-25T10:30:56.095Z</time></trkpt><trkpt lat="41.9096358" lon="1.6776941"><ele>529.0</ele><time>2026-04-25T10:30:57.094Z</time></trkpt><trkpt lat="41.9095903" lon="1.6778002"><ele>529.0</ele><time>2026-04-25T10:30:58.094Z</time></trkpt><trkpt lat="41.9095589" lon="1.6779207"><ele>529.0</ele><time>2026-04-25T10:30:59.094Z</time></trkpt><trkpt lat="41.909541" lon="1.6780553"><ele>529.0</ele><time>2026-04-25T10:31:00.093Z</time></trkpt><trkpt lat="41.9095483" lon="1.6781885"><ele>528.0</ele><time>2026-04-25T10:31:01.094Z</time></trkpt><trkpt lat="41.9095902" lon="1.6783103"><ele>527.0</ele><time>2026-04-25T10:31:02.094Z</time></trkpt><trkpt lat="41.9096546" lon="1.6784211"><ele>526.0</ele><time>2026-04-25T10:31:03.094Z</time></trkpt><trkpt lat="41.9097329" lon="1.6785093"><ele>525.0</ele><time>2026-04-25T10:31:04.094Z</time></trkpt><trkpt lat="41.9098182" lon="1.6785804"><ele>524.0</ele><time>2026-04-25T10:31:05.094Z</time></trkpt><trkpt lat="41.9099014" lon="1.6786523"><ele>521.8</ele><time>2026-04-25T10:31:06.093Z</time></trkpt><trkpt lat="41.9099819" lon="1.678725"><ele>519.5999999999999</ele><time>2026-04-25T10:31:07.094Z</time></trkpt><trkpt lat="41.9100593" lon="1.6787938"><ele>517.4</ele><time>2026-04-25T10:31:08.094Z</time></trkpt><trkpt lat="41.9101347" lon="1.6788564"><ele>515.1999999999999</ele><time>2026-04-25T10:31:09.095Z</time></trkpt><trkpt lat="41.9102131" lon="1.6788999"><ele>513.0</ele><time>2026-04-25T10:31:10.093Z</time></trkpt><trkpt lat="41.9103029" lon="1.6789188"><ele>513.0</ele><time>2026-04-25T10:31:11.093Z</time></trkpt><trkpt lat="41.9103943" lon="1.678916"><ele>513.0</ele><time>2026-04-25T10:31:12.094Z</time></trkpt><trkpt lat="41.9104829" lon="1.6788989"><ele>513.0</ele><time>2026-04-25T10:31:13.094Z</time></trkpt><trkpt lat="41.9105685" lon="1.6788785"><ele>513.0</ele><time>2026-04-25T10:31:14.093Z</time></trkpt><trkpt lat="41.9106493" lon="1.6788653"><ele>513.0</ele><time>2026-04-25T10:31:15.094Z</time></trkpt><trkpt lat="41.9107213" lon="1.6788541"><ele>513.0</ele><time>2026-04-25T10:31:16.094Z</time></trkpt><trkpt lat="41.9107908" lon="1.6788493"><ele>513.0000000000001</ele><time>2026-04-25T10:31:17.095Z</time></trkpt><trkpt lat="41.9108546" lon="1.6788557"><ele>513.0</ele><time>2026-04-25T10:31:18.094Z</time></trkpt><trkpt lat="41.9109205" lon="1.6788728"><ele>513.0</ele><time>2026-04-25T10:31:19.093Z</time></trkpt><trkpt lat="41.9109859" lon="1.6788992"><ele>513.0</ele><time>2026-04-25T10:31:20.094Z</time></trkpt><trkpt lat="41.9110504" lon="1.6789448"><ele>513.0</ele><time>2026-04-25T10:31:21.093Z</time></trkpt><trkpt lat="41.9111122" lon="1.6789917"><ele>513.0000000000001</ele><time>2026-04-25T10:31:22.094Z</time></trkpt><trkpt lat="41.9111754" lon="1.6790502"><ele>513.0</ele><time>2026-04-25T10:31:23.093Z</time></trkpt><trkpt lat="41.911239" lon="1.6791183"><ele>513.6666666666666</ele><time>2026-04-25T10:31:24.094Z</time></trkpt><trkpt lat="41.9113081" lon="1.679183"><ele>514.3333333333334</ele><time>2026-04-25T10:31:25.094Z</time></trkpt><trkpt lat="41.9113742" lon="1.6792491"><ele>515.0</ele><time>2026-04-25T10:31:26.094Z</time></trkpt><trkpt lat="41.9114363" lon="1.6793176"><ele>515.6666666666667</ele><time>2026-04-25T10:31:27.095Z</time></trkpt><trkpt lat="41.911504" lon="1.679385"><ele>516.3333333333334</ele><time>2026-04-25T10:31:28.094Z</time></trkpt><trkpt lat="41.91157" lon="1.6794468"><ele>517.0</ele><time>2026-04-25T10:31:29.094Z</time></trkpt><trkpt lat="41.9116424" lon="1.6795061"><ele>514.1666666666667</ele><time>2026-04-25T10:31:30.094Z</time></trkpt><trkpt lat="41.9117103" lon="1.6795599"><ele>511.33333333333337</ele><time>2026-04-25T10:31:31.093Z</time></trkpt><trkpt lat="41.9117787" lon="1.6796125"><ele>508.5</ele><time>2026-04-25T10:31:32.093Z</time></trkpt><trkpt lat="41.9118582" lon="1.6796543"><ele>505.66666666666663</ele><time>2026-04-25T10:31:33.094Z</time></trkpt><trkpt lat="41.9119472" lon="1.6796744"><ele>502.8333333333333</ele><time>2026-04-25T10:31:34.095Z</time></trkpt><trkpt lat="41.9120394" lon="1.6796443"><ele>500.0</ele><time>2026-04-25T10:31:35.093Z</time></trkpt><trkpt lat="41.9121238" lon="1.6795861"><ele>499.99999999999994</ele><time>2026-04-25T10:31:36.095Z</time></trkpt><trkpt lat="41.9121979" lon="1.6795018"><ele>500.0</ele><time>2026-04-25T10:31:37.094Z</time></trkpt><trkpt lat="41.912255" lon="1.6794249"><ele>500.0</ele><time>2026-04-25T10:31:38.093Z</time></trkpt><trkpt lat="41.9123016" lon="1.6793558"><ele>500.0</ele><time>2026-04-25T10:31:39.094Z</time></trkpt><trkpt lat="41.9123483" lon="1.6792854"><ele>499.99999999999994</ele><time>2026-04-25T10:31:40.094Z</time></trkpt><trkpt lat="41.9124434" lon="1.6791639"><ele>500.0</ele><time>2026-04-25T10:31:42.094Z</time></trkpt><trkpt lat="41.9125095" lon="1.6790856"><ele>501.2</ele><time>2026-04-25T10:31:43.094Z</time></trkpt><trkpt lat="41.9125738" lon="1.6790054"><ele>502.4</ele><time>2026-04-25T10:31:44.094Z</time></trkpt><trkpt lat="41.9126477" lon="1.6789114"><ele>503.6</ele><time>2026-04-25T10:31:45.095Z</time></trkpt><trkpt lat="41.9127195" lon="1.6788167"><ele>504.8</ele><time>2026-04-25T10:31:46.094Z</time></trkpt><trkpt lat="41.912793" lon="1.6787268"><ele>506.0</ele><time>2026-04-25T10:31:47.093Z</time></trkpt><trkpt lat="41.9128643" lon="1.6786572"><ele>506.00000000000006</ele><time>2026-04-25T10:31:48.095Z</time></trkpt><trkpt lat="41.9129385" lon="1.6786149"><ele>506.0</ele><time>2026-04-25T10:31:49.093Z</time></trkpt><trkpt lat="41.9130147" lon="1.6786104"><ele>506.00000000000006</ele><time>2026-04-25T10:31:50.094Z</time></trkpt><trkpt lat="41.9130785" lon="1.6786351"><ele>506.00000000000006</ele><time>2026-04-25T10:31:51.094Z</time></trkpt><trkpt lat="41.9131271" lon="1.6786953"><ele>506.0</ele><time>2026-04-25T10:31:52.095Z</time></trkpt><trkpt lat="41.9131575" lon="1.678777"><ele>506.00000000000006</ele><time>2026-04-25T10:31:53.093Z</time></trkpt><trkpt lat="41.9131663" lon="1.6788747"><ele>506.00000000000006</ele><time>2026-04-25T10:31:54.094Z</time></trkpt><trkpt lat="41.9131582" lon="1.6789777"><ele>506.0</ele><time>2026-04-25T10:31:55.093Z</time></trkpt><trkpt lat="41.913129" lon="1.6790857"><ele>506.0</ele><time>2026-04-25T10:31:56.094Z</time></trkpt><trkpt lat="41.9130872" lon="1.679195"><ele>506.0</ele><time>2026-04-25T10:31:57.095Z</time></trkpt><trkpt lat="41.9130444" lon="1.6793114"><ele>506.0</ele><time>2026-04-25T10:31:58.094Z</time></trkpt><trkpt lat="41.913012" lon="1.6794385"><ele>506.0</ele><time>2026-04-25T10:31:59.094Z</time></trkpt><trkpt lat="41.9129986" lon="1.6795727"><ele>506.6</ele><time>2026-04-25T10:32:00.094Z</time></trkpt><trkpt lat="41.9129913" lon="1.6797119"><ele>507.20000000000005</ele><time>2026-04-25T10:32:01.093Z</time></trkpt><trkpt lat="41.9129811" lon="1.6798387"><ele>507.79999999999995</ele><time>2026-04-25T10:32:02.095Z</time></trkpt><trkpt lat="41.9129621" lon="1.6799644"><ele>508.4</ele><time>2026-04-25T10:32:03.094Z</time></trkpt><trkpt lat="41.9129354" lon="1.6800889"><ele>509.0</ele><time>2026-04-25T10:32:04.094Z</time></trkpt><trkpt lat="41.9129033" lon="1.6802146"><ele>508.79999999999995</ele><time>2026-04-25T10:32:05.094Z</time></trkpt><trkpt lat="41.9128702" lon="1.6803475"><ele>508.59999999999997</ele><time>2026-04-25T10:32:06.095Z</time></trkpt><trkpt lat="41.9128412" lon="1.6804832"><ele>508.4</ele><time>2026-04-25T10:32:07.094Z</time></trkpt><trkpt lat="41.9128163" lon="1.680623"><ele>508.2</ele><time>2026-04-25T10:32:08.094Z</time></trkpt><trkpt lat="41.9128025" lon="1.6807672"><ele>508.0</ele><time>2026-04-25T10:32:09.095Z</time></trkpt><trkpt lat="41.9127995" lon="1.6809152"><ele>508.0</ele><time>2026-04-25T10:32:10.094Z</time></trkpt><trkpt lat="41.9128048" lon="1.681062"><ele>507.99999999999994</ele><time>2026-04-25T10:32:11.094Z</time></trkpt><trkpt lat="41.9128217" lon="1.6812123"><ele>507.99999999999994</ele><time>2026-04-25T10:32:12.093Z</time></trkpt><trkpt lat="41.9128468" lon="1.6813479"><ele>508.0</ele><time>2026-04-25T10:32:13.095Z</time></trkpt><trkpt lat="41.9128872" lon="1.6814725"><ele>508.0</ele><time>2026-04-25T10:32:14.094Z</time></trkpt><trkpt lat="41.9129405" lon="1.6815815"><ele>506.83333333333337</ele><time>2026-04-25T10:32:15.094Z</time></trkpt><trkpt lat="41.912996" lon="1.6816679"><ele>505.6666666666667</ele><time>2026-04-25T10:32:16.094Z</time></trkpt><trkpt lat="41.9130357" lon="1.6817493"><ele>504.5</ele><time>2026-04-25T10:32:17.094Z</time></trkpt><trkpt lat="41.9130539" lon="1.681833"><ele>503.33333333333337</ele><time>2026-04-25T10:32:18.094Z</time></trkpt><trkpt lat="41.9130627" lon="1.6819867"><ele>502.1666666666667</ele><time>2026-04-25T10:32:20.094Z</time></trkpt><trkpt lat="41.9131574" lon="1.6820422"><ele>501.0</ele><time>2026-04-25T10:32:22.095Z</time></trkpt><trkpt lat="41.9132847" lon="1.68204"><ele>500.0</ele><time>2026-04-25T10:32:24.094Z</time></trkpt><trkpt lat="41.9133484" lon="1.6820827"><ele>499.0</ele><time>2026-04-25T10:32:25.093Z</time></trkpt><trkpt lat="41.9134451" lon="1.6821831"><ele>498.0</ele><time>2026-04-25T10:32:27.093Z</time></trkpt><trkpt lat="41.9134959" lon="1.6822373"><ele>497.0</ele><time>2026-04-25T10:32:28.093Z</time></trkpt><trkpt lat="41.9135459" lon="1.6822941"><ele>496.0</ele><time>2026-04-25T10:32:29.094Z</time></trkpt><trkpt lat="41.9135979" lon="1.6823539"><ele>495.0</ele><time>2026-04-25T10:32:30.094Z</time></trkpt><trkpt lat="41.9136494" lon="1.6824167"><ele>497.1666666666667</ele><time>2026-04-25T10:32:31.094Z</time></trkpt><trkpt lat="41.913696" lon="1.6824944"><ele>499.33333333333337</ele><time>2026-04-25T10:32:32.093Z</time></trkpt><trkpt lat="41.9137233" lon="1.6825886"><ele>501.5</ele><time>2026-04-25T10:32:33.094Z</time></trkpt><trkpt lat="41.9137413" lon="1.6826869"><ele>503.6666666666667</ele><time>2026-04-25T10:32:34.094Z</time></trkpt><trkpt lat="41.9137482" lon="1.6827933"><ele>505.83333333333337</ele><time>2026-04-25T10:32:35.093Z</time></trkpt><trkpt lat="41.9137347" lon="1.6829083"><ele>508.0</ele><time>2026-04-25T10:32:36.094Z</time></trkpt><trkpt lat="41.9137019" lon="1.6830302"><ele>508.2</ele><time>2026-04-25T10:32:37.095Z</time></trkpt><trkpt lat="41.9136654" lon="1.6831541"><ele>508.4</ele><time>2026-04-25T10:32:38.093Z</time></trkpt><trkpt lat="41.9136391" lon="1.6832708"><ele>508.59999999999997</ele><time>2026-04-25T10:32:39.094Z</time></trkpt><trkpt lat="41.9136259" lon="1.6833787"><ele>508.79999999999995</ele><time>2026-04-25T10:32:40.093Z</time></trkpt><trkpt lat="41.9136396" lon="1.6834679"><ele>509.0</ele><time>2026-04-25T10:32:41.094Z</time></trkpt><trkpt lat="41.9137357" lon="1.6835453"><ele>508.99999999999994</ele><time>2026-04-25T10:32:43.095Z</time></trkpt><trkpt lat="41.9137951" lon="1.6835169"><ele>509.0</ele><time>2026-04-25T10:32:44.094Z</time></trkpt><trkpt lat="41.913879" lon="1.6834258"><ele>509.0</ele><time>2026-04-25T10:32:46.095Z</time></trkpt><trkpt lat="41.9139366" lon="1.6833424"><ele>509.0</ele><time>2026-04-25T10:32:56.094Z</time></trkpt><trkpt lat="41.9140021" lon="1.6832618"><ele>508.99999999999994</ele><time>2026-04-25T10:32:59.094Z</time></trkpt><trkpt lat="41.9140542" lon="1.683197"><ele>509.0</ele><time>2026-04-25T10:33:02.093Z</time></trkpt><trkpt lat="41.9141095" lon="1.6831402"><ele>509.0</ele><time>2026-04-25T10:33:05.094Z</time></trkpt><trkpt lat="41.914182" lon="1.6830879"><ele>509.0</ele><time>2026-04-25T10:33:09.094Z</time></trkpt><trkpt lat="41.9142651" lon="1.6830479"><ele>509.0</ele><time>2026-04-25T10:33:12.094Z</time></trkpt><trkpt lat="41.9143527" lon="1.6830525"><ele>509.0</ele><time>2026-04-25T10:33:14.094Z</time></trkpt><trkpt lat="41.9144548" lon="1.6830968"><ele>509.0</ele><time>2026-04-25T10:33:16.094Z</time></trkpt><trkpt lat="41.9145709" lon="1.6831621"><ele>507.49999999999994</ele><time>2026-04-25T10:33:18.095Z</time></trkpt><trkpt lat="41.914631" lon="1.6831976"><ele>506.0</ele><time>2026-04-25T10:33:19.095Z</time></trkpt><trkpt lat="41.9146927" lon="1.6832329"><ele>504.5</ele><time>2026-04-25T10:33:20.094Z</time></trkpt><trkpt lat="41.9147554" lon="1.6832687"><ele>503.0</ele><time>2026-04-25T10:33:21.093Z</time></trkpt><trkpt lat="41.914816" lon="1.683302"><ele>501.49999999999994</ele><time>2026-04-25T10:33:22.093Z</time></trkpt><trkpt lat="41.9149277" lon="1.683362"><ele>500.0</ele><time>2026-04-25T10:33:24.095Z</time></trkpt><trkpt lat="41.9150338" lon="1.6834208"><ele>497.16666666666663</ele><time>2026-04-25T10:33:26.093Z</time></trkpt><trkpt lat="41.9150956" lon="1.6834524"><ele>494.3333333333333</ele><time>2026-04-25T10:33:27.094Z</time></trkpt><trkpt lat="41.9151593" lon="1.6834936"><ele>491.5</ele><time>2026-04-25T10:33:28.094Z</time></trkpt><trkpt lat="41.9152238" lon="1.6835482"><ele>488.66666666666663</ele><time>2026-04-25T10:33:29.094Z</time></trkpt><trkpt lat="41.9152843" lon="1.6836244"><ele>485.8333333333333</ele><time>2026-04-25T10:33:30.094Z</time></trkpt><trkpt lat="41.9153487" lon="1.6837155"><ele>483.0</ele><time>2026-04-25T10:33:31.094Z</time></trkpt><trkpt lat="41.9154088" lon="1.683813"><ele>483.0</ele><time>2026-04-25T10:33:32.093Z</time></trkpt><trkpt lat="41.9154699" lon="1.6839198"><ele>482.99999999999994</ele><time>2026-04-25T10:33:33.094Z</time></trkpt><trkpt lat="41.9155259" lon="1.6840296"><ele>482.99999999999994</ele><time>2026-04-25T10:33:34.095Z</time></trkpt><trkpt lat="41.9155794" lon="1.6841346"><ele>483.0</ele><time>2026-04-25T10:33:35.093Z</time></trkpt><trkpt lat="41.9156291" lon="1.6842329"><ele>483.0</ele><time>2026-04-25T10:33:36.093Z</time></trkpt><trkpt lat="41.9156733" lon="1.6843196"><ele>483.0</ele><time>2026-04-25T10:33:37.094Z</time></trkpt><trkpt lat="41.9157089" lon="1.6843928"><ele>483.0</ele><time>2026-04-25T10:33:38.095Z</time></trkpt><trkpt lat="41.91575" lon="1.6844855"><ele>483.0</ele><time>2026-04-25T10:33:40.093Z</time></trkpt><trkpt lat="41.9157971" lon="1.6845635"><ele>483.0</ele><time>2026-04-25T10:33:42.094Z</time></trkpt><trkpt lat="41.9158765" lon="1.6846136"><ele>483.0</ele><time>2026-04-25T10:33:44.093Z</time></trkpt><trkpt lat="41.9159472" lon="1.684532"><ele>483.0</ele><time>2026-04-25T10:33:46.093Z</time></trkpt><trkpt lat="41.9159281" lon="1.6843723"><ele>483.0</ele><time>2026-04-25T10:33:48.094Z</time></trkpt><trkpt lat="41.9158973" lon="1.6842911"><ele>483.0</ele><time>2026-04-25T10:33:49.094Z</time></trkpt><trkpt lat="41.9158607" lon="1.6842098"><ele>483.0</ele><time>2026-04-25T10:33:50.094Z</time></trkpt><trkpt lat="41.9158249" lon="1.6841289"><ele>483.0</ele><time>2026-04-25T10:33:51.094Z</time></trkpt><trkpt lat="41.9157902" lon="1.6840495"><ele>483.0</ele><time>2026-04-25T10:33:52.094Z</time></trkpt><trkpt lat="41.9157582" lon="1.6839741"><ele>483.0</ele><time>2026-04-25T10:33:53.093Z</time></trkpt><trkpt lat="41.9157015" lon="1.6838455"><ele>483.0</ele><time>2026-04-25T10:33:55.095Z</time></trkpt><trkpt lat="41.915654" lon="1.6837478"><ele>482.99999999999994</ele><time>2026-04-25T10:33:57.094Z</time></trkpt><trkpt lat="41.9156188" lon="1.683629"><ele>482.99999999999994</ele><time>2026-04-25T10:33:59.095Z</time></trkpt><trkpt lat="41.915601" lon="1.6834942"><ele>483.0</ele><time>2026-04-25T10:34:01.094Z</time></trkpt><trkpt lat="41.9155529" lon="1.6833636"><ele>483.0</ele><time>2026-04-25T10:34:03.094Z</time></trkpt><trkpt lat="41.9155114" lon="1.683231"><ele>482.8333333333333</ele><time>2026-04-25T10:34:05.094Z</time></trkpt><trkpt lat="41.9155205" lon="1.6830911"><ele>482.66666666666663</ele><time>2026-04-25T10:34:07.094Z</time></trkpt><trkpt lat="41.9155536" lon="1.6829749"><ele>482.5</ele><time>2026-04-25T10:34:09.094Z</time></trkpt><trkpt lat="41.9155907" lon="1.6828862"><ele>482.3333333333333</ele><time>2026-04-25T10:34:11.094Z</time></trkpt><trkpt lat="41.9156317" lon="1.6828089"><ele>482.16666666666663</ele><time>2026-04-25T10:34:13.093Z</time></trkpt><trkpt lat="41.9156836" lon="1.6827287"><ele>482.0</ele><time>2026-04-25T10:34:15.094Z</time></trkpt><trkpt lat="41.9157601" lon="1.6826799"><ele>482.0</ele><time>2026-04-25T10:34:17.093Z</time></trkpt><trkpt lat="41.9158407" lon="1.6827022"><ele>482.00000000000006</ele><time>2026-04-25T10:34:19.093Z</time></trkpt><trkpt lat="41.9158978" lon="1.6827395"><ele>482.0</ele><time>2026-04-25T10:34:21.094Z</time></trkpt><trkpt lat="41.9159679" lon="1.6827901"><ele>482.0</ele><time>2026-04-25T10:34:26.094Z</time></trkpt><trkpt lat="41.9160357" lon="1.6828121"><ele>482.00000000000006</ele><time>2026-04-25T10:34:30.093Z</time></trkpt><trkpt lat="41.9160937" lon="1.6828458"><ele>482.0</ele><time>2026-04-25T10:34:32.094Z</time></trkpt><trkpt lat="41.9161646" lon="1.6828867"><ele>482.0</ele><time>2026-04-25T10:34:34.095Z</time></trkpt><trkpt lat="41.9162436" lon="1.6829341"><ele>478.8333333333333</ele><time>2026-04-25T10:34:36.094Z</time></trkpt><trkpt lat="41.9163247" lon="1.683007"><ele>475.66666666666663</ele><time>2026-04-25T10:34:38.094Z</time></trkpt><trkpt lat="41.9164079" lon="1.6830677"><ele>472.5</ele><time>2026-04-25T10:34:40.094Z</time></trkpt><trkpt lat="41.9164692" lon="1.6830956"><ele>469.33333333333337</ele><time>2026-04-25T10:34:42.094Z</time></trkpt><trkpt lat="41.9165288" lon="1.6831304"><ele>466.1666666666667</ele><time>2026-04-25T10:34:45.094Z</time></trkpt><trkpt lat="41.9165934" lon="1.683168"><ele>463.0</ele><time>2026-04-25T10:34:48.094Z</time></trkpt><trkpt lat="41.9167021" lon="1.6832423"><ele>462.00000000000006</ele><time>2026-04-25T10:34:50.094Z</time></trkpt><trkpt lat="41.916758" lon="1.6832898"><ele>461.0</ele><time>2026-04-25T10:34:51.094Z</time></trkpt><trkpt lat="41.9168085" lon="1.683342"><ele>460.0</ele><time>2026-04-25T10:34:52.094Z</time></trkpt><trkpt lat="41.9169029" lon="1.6834544"><ele>459.0</ele><time>2026-04-25T10:34:54.095Z</time></trkpt><trkpt lat="41.9169525" lon="1.68351"><ele>458.00000000000006</ele><time>2026-04-25T10:34:55.094Z</time></trkpt><trkpt lat="41.917045" lon="1.6836151"><ele>457.0</ele><time>2026-04-25T10:34:57.093Z</time></trkpt><trkpt lat="41.917135" lon="1.6837149"><ele>455.8</ele><time>2026-04-25T10:34:59.095Z</time></trkpt><trkpt lat="41.9172265" lon="1.6837877"><ele>454.6</ele><time>2026-04-25T10:35:01.094Z</time></trkpt><trkpt lat="41.9173298" lon="1.6838095"><ele>453.40000000000003</ele><time>2026-04-25T10:35:03.095Z</time></trkpt><trkpt lat="41.9174313" lon="1.6838236"><ele>452.20000000000005</ele><time>2026-04-25T10:35:05.093Z</time></trkpt><trkpt lat="41.9175438" lon="1.6838051"><ele>451.0</ele><time>2026-04-25T10:35:07.094Z</time></trkpt><trkpt lat="41.917652" lon="1.6838057"><ele>447.4</ele><time>2026-04-25T10:35:09.095Z</time></trkpt><trkpt lat="41.9177418" lon="1.6838501"><ele>443.8</ele><time>2026-04-25T10:35:11.094Z</time></trkpt><trkpt lat="41.9177932" lon="1.6839309"><ele>440.19999999999993</ele><time>2026-04-25T10:35:13.094Z</time></trkpt><trkpt lat="41.9178267" lon="1.6840551"><ele>436.59999999999997</ele><time>2026-04-25T10:35:15.095Z</time></trkpt><trkpt lat="41.9178636" lon="1.6841996"><ele>433.0</ele><time>2026-04-25T10:35:17.093Z</time></trkpt><trkpt lat="41.9178798" lon="1.6842818"><ele>433.00000000000006</ele><time>2026-04-25T10:35:18.093Z</time></trkpt><trkpt lat="41.9178986" lon="1.6843668"><ele>433.0</ele><time>2026-04-25T10:35:19.093Z</time></trkpt><trkpt lat="41.9179282" lon="1.6845214"><ele>433.0</ele><time>2026-04-25T10:35:21.094Z</time></trkpt><trkpt lat="41.91795" lon="1.6846408"><ele>433.0</ele><time>2026-04-25T10:35:23.093Z</time></trkpt><trkpt lat="41.917989" lon="1.6847344"><ele>433.00000000000006</ele><time>2026-04-25T10:35:25.093Z</time></trkpt><trkpt lat="41.9180692" lon="1.6847925"><ele>433.0</ele><time>2026-04-25T10:35:27.094Z</time></trkpt><trkpt lat="41.9181559" lon="1.6847338"><ele>433.0</ele><time>2026-04-25T10:35:29.094Z</time></trkpt><trkpt lat="41.9182114" lon="1.6845976"><ele>432.99999999999994</ele><time>2026-04-25T10:35:31.094Z</time></trkpt><trkpt lat="41.9182465" lon="1.6844515"><ele>432.99999999999994</ele><time>2026-04-25T10:35:33.094Z</time></trkpt><trkpt lat="41.9182695" lon="1.6843061"><ele>433.0</ele><time>2026-04-25T10:35:35.095Z</time></trkpt><trkpt lat="41.91827" lon="1.6841597"><ele>433.0</ele><time>2026-04-25T10:35:37.094Z</time></trkpt><trkpt lat="41.9182599" lon="1.6840448"><ele>433.00000000000006</ele><time>2026-04-25T10:35:39.093Z</time></trkpt><trkpt lat="41.9182602" lon="1.6839455"><ele>433.0</ele><time>2026-04-25T10:35:48.094Z</time></trkpt><trkpt lat="41.9182652" lon="1.6838324"><ele>433.0</ele><time>2026-04-25T10:35:51.094Z</time></trkpt><trkpt lat="41.9182669" lon="1.6836877"><ele>433.0</ele><time>2026-04-25T10:35:53.094Z</time></trkpt><trkpt lat="41.9182585" lon="1.6835961"><ele>433.00000000000006</ele><time>2026-04-25T10:35:54.094Z</time></trkpt><trkpt lat="41.9182481" lon="1.6834952"><ele>433.0</ele><time>2026-04-25T10:35:55.095Z</time></trkpt><trkpt lat="41.918239" lon="1.683396"><ele>432.6666666666667</ele><time>2026-04-25T10:35:56.094Z</time></trkpt><trkpt lat="41.9182346" lon="1.683303"><ele>432.33333333333337</ele><time>2026-04-25T10:35:57.094Z</time></trkpt><trkpt lat="41.9182442" lon="1.6832117"><ele>432.0</ele><time>2026-04-25T10:35:58.094Z</time></trkpt><trkpt lat="41.9182631" lon="1.6831302"><ele>431.66666666666663</ele><time>2026-04-25T10:35:59.094Z</time></trkpt><trkpt lat="41.9183018" lon="1.6830124"><ele>431.3333333333333</ele><time>2026-04-25T10:36:01.094Z</time></trkpt><trkpt lat="41.91835" lon="1.6828776"><ele>431.0</ele><time>2026-04-25T10:36:03.094Z</time></trkpt><trkpt lat="41.9183807" lon="1.6827911"><ele>426.8</ele><time>2026-04-25T10:36:04.094Z</time></trkpt><trkpt lat="41.9184127" lon="1.6826934"><ele>422.6</ele><time>2026-04-25T10:36:05.094Z</time></trkpt><trkpt lat="41.9184437" lon="1.6825807"><ele>418.4</ele><time>2026-04-25T10:36:06.094Z</time></trkpt><trkpt lat="41.9184655" lon="1.6824558"><ele>414.2</ele><time>2026-04-25T10:36:07.094Z</time></trkpt><trkpt lat="41.9184734" lon="1.6823135"><ele>410.0</ele><time>2026-04-25T10:36:08.095Z</time></trkpt><trkpt lat="41.9184755" lon="1.6821544"><ele>410.0</ele><time>2026-04-25T10:36:09.093Z</time></trkpt><trkpt lat="41.9184752" lon="1.6819898"><ele>410.0</ele><time>2026-04-25T10:36:10.094Z</time></trkpt><trkpt lat="41.9184716" lon="1.6818185"><ele>410.0</ele><time>2026-04-25T10:36:11.094Z</time></trkpt><trkpt lat="41.9184673" lon="1.6816583"><ele>410.0</ele><time>2026-04-25T10:36:12.094Z</time></trkpt><trkpt lat="41.9184543" lon="1.6814994"><ele>410.16666666666663</ele><time>2026-04-25T10:36:13.094Z</time></trkpt><trkpt lat="41.9184328" lon="1.6813533"><ele>410.3333333333333</ele><time>2026-04-25T10:36:14.094Z</time></trkpt><trkpt lat="41.9184123" lon="1.6812185"><ele>410.5</ele><time>2026-04-25T10:36:15.093Z</time></trkpt><trkpt lat="41.918393" lon="1.6811003"><ele>410.66666666666663</ele><time>2026-04-25T10:36:16.094Z</time></trkpt><trkpt lat="41.9183745" lon="1.6810013"><ele>410.8333333333333</ele><time>2026-04-25T10:36:17.094Z</time></trkpt><trkpt lat="41.9183641" lon="1.6809173"><ele>411.0</ele><time>2026-04-25T10:36:18.094Z</time></trkpt><trkpt lat="41.9183494" lon="1.6807731"><ele>411.0</ele><time>2026-04-25T10:36:20.094Z</time></trkpt><trkpt lat="41.9183576" lon="1.6806586"><ele>411.0</ele><time>2026-04-25T10:36:22.094Z</time></trkpt><trkpt lat="41.9184122" lon="1.6805667"><ele>411.0</ele><time>2026-04-25T10:36:24.093Z</time></trkpt><trkpt lat="41.9185088" lon="1.6805555"><ele>411.0</ele><time>2026-04-25T10:36:26.094Z</time></trkpt><trkpt lat="41.9186116" lon="1.6806594"><ele>411.0</ele><time>2026-04-25T10:36:28.095Z</time></trkpt><trkpt lat="41.9186504" lon="1.680742"><ele>411.0</ele><time>2026-04-25T10:36:29.094Z</time></trkpt><trkpt lat="41.9186798" lon="1.6808347"><ele>411.0</ele><time>2026-04-25T10:36:30.094Z</time></trkpt><trkpt lat="41.9187001" lon="1.6809396"><ele>411.0</ele><time>2026-04-25T10:36:31.094Z</time></trkpt><trkpt lat="41.9187149" lon="1.6810578"><ele>411.0</ele><time>2026-04-25T10:36:32.094Z</time></trkpt><trkpt lat="41.9187253" lon="1.6811861"><ele>411.0</ele><time>2026-04-25T10:36:33.095Z</time></trkpt><trkpt lat="41.9187407" lon="1.6813297"><ele>411.0</ele><time>2026-04-25T10:36:34.093Z</time></trkpt><trkpt lat="41.9187569" lon="1.6814801"><ele>411.0</ele><time>2026-04-25T10:36:35.094Z</time></trkpt><trkpt lat="41.9187735" lon="1.6816398"><ele>411.0</ele><time>2026-04-25T10:36:36.094Z</time></trkpt><trkpt lat="41.9187898" lon="1.6817975"><ele>411.0</ele><time>2026-04-25T10:36:37.093Z</time></trkpt><trkpt lat="41.9188044" lon="1.6819635"><ele>411.0</ele><time>2026-04-25T10:36:38.094Z</time></trkpt><trkpt lat="41.9188214" lon="1.6821224"><ele>410.8333333333333</ele><time>2026-04-25T10:36:39.094Z</time></trkpt><trkpt lat="41.9188558" lon="1.6822623"><ele>410.66666666666663</ele><time>2026-04-25T10:36:40.094Z</time></trkpt><trkpt lat="41.9189074" lon="1.6823716"><ele>410.5</ele><time>2026-04-25T10:36:41.095Z</time></trkpt><trkpt lat="41.9189744" lon="1.6824422"><ele>410.3333333333333</ele><time>2026-04-25T10:36:42.094Z</time></trkpt><trkpt lat="41.9190412" lon="1.6824969"><ele>410.16666666666663</ele><time>2026-04-25T10:36:43.093Z</time></trkpt><trkpt lat="41.9191151" lon="1.6825186"><ele>410.0</ele><time>2026-04-25T10:36:44.093Z</time></trkpt><trkpt lat="41.9191911" lon="1.6825575"><ele>409.66666666666663</ele><time>2026-04-25T10:36:45.093Z</time></trkpt><trkpt lat="41.9192602" lon="1.6826106"><ele>409.3333333333333</ele><time>2026-04-25T10:36:46.093Z</time></trkpt><trkpt lat="41.9193237" lon="1.6826684"><ele>409.0</ele><time>2026-04-25T10:36:47.093Z</time></trkpt><trkpt lat="41.9193849" lon="1.6827299"><ele>408.66666666666663</ele><time>2026-04-25T10:36:48.094Z</time></trkpt><trkpt lat="41.9194407" lon="1.6828075"><ele>408.3333333333333</ele><time>2026-04-25T10:36:49.095Z</time></trkpt><trkpt lat="41.919493" lon="1.6828825"><ele>408.0</ele><time>2026-04-25T10:36:50.093Z</time></trkpt><trkpt lat="41.9195469" lon="1.6829485"><ele>407.6666666666667</ele><time>2026-04-25T10:36:51.095Z</time></trkpt><trkpt lat="41.9196143" lon="1.6829999"><ele>407.33333333333337</ele><time>2026-04-25T10:36:52.094Z</time></trkpt><trkpt lat="41.9196926" lon="1.6830204"><ele>407.0</ele><time>2026-04-25T10:36:53.095Z</time></trkpt><trkpt lat="41.9197843" lon="1.6830155"><ele>406.6666666666667</ele><time>2026-04-25T10:36:54.094Z</time></trkpt><trkpt lat="41.9198821" lon="1.6829934"><ele>406.33333333333337</ele><time>2026-04-25T10:36:55.095Z</time></trkpt><trkpt lat="41.9199788" lon="1.6829711"><ele>406.0</ele><time>2026-04-25T10:36:56.094Z</time></trkpt><trkpt lat="41.9200795" lon="1.6829525"><ele>407.8</ele><time>2026-04-25T10:36:57.093Z</time></trkpt><trkpt lat="41.9201817" lon="1.6829301"><ele>409.6</ele><time>2026-04-25T10:36:58.094Z</time></trkpt><trkpt lat="41.9202815" lon="1.6829057"><ele>411.4</ele><time>2026-04-25T10:36:59.093Z</time></trkpt><trkpt lat="41.9203711" lon="1.682881"><ele>413.2</ele><time>2026-04-25T10:37:00.094Z</time></trkpt><trkpt lat="41.9204453" lon="1.6828634"><ele>415.0</ele><time>2026-04-25T10:37:01.095Z</time></trkpt><trkpt lat="41.9205423" lon="1.682872"><ele>415.0</ele><time>2026-04-25T10:37:03.094Z</time></trkpt><trkpt lat="41.9206149" lon="1.6829645"><ele>415.0</ele><time>2026-04-25T10:37:05.094Z</time></trkpt><trkpt lat="41.9206911" lon="1.6831139"><ele>415.0</ele><time>2026-04-25T10:37:07.094Z</time></trkpt><trkpt lat="41.9207453" lon="1.6831814"><ele>415.0</ele><time>2026-04-25T10:37:08.094Z</time></trkpt><trkpt lat="41.9208103" lon="1.6832271"><ele>415.0</ele><time>2026-04-25T10:37:09.095Z</time></trkpt><trkpt lat="41.9208875" lon="1.6832382"><ele>417.5</ele><time>2026-04-25T10:37:10.093Z</time></trkpt><trkpt lat="41.9209827" lon="1.6832102"><ele>420.0</ele><time>2026-04-25T10:37:11.093Z</time></trkpt><trkpt lat="41.9210965" lon="1.6831507"><ele>422.5</ele><time>2026-04-25T10:37:12.094Z</time></trkpt><trkpt lat="41.9212293" lon="1.6830725"><ele>425.0</ele><time>2026-04-25T10:37:13.093Z</time></trkpt><trkpt lat="41.9213851" lon="1.6829828"><ele>425.0</ele><time>2026-04-25T10:37:14.095Z</time></trkpt><trkpt lat="41.9215666" lon="1.6828956"><ele>425.0</ele><time>2026-04-25T10:37:15.094Z</time></trkpt><trkpt lat="41.9217646" lon="1.6828133"><ele>425.0</ele><time>2026-04-25T10:37:16.094Z</time></trkpt><trkpt lat="41.9219728" lon="1.6827211"><ele>425.3333333333333</ele><time>2026-04-25T10:37:17.093Z</time></trkpt><trkpt lat="41.922184" lon="1.6826208"><ele>425.66666666666663</ele><time>2026-04-25T10:37:18.094Z</time></trkpt><trkpt lat="41.9223875" lon="1.6825188"><ele>426.0</ele><time>2026-04-25T10:37:19.094Z</time></trkpt><trkpt lat="41.922573" lon="1.6824208"><ele>428.33333333333337</ele><time>2026-04-25T10:37:20.094Z</time></trkpt><trkpt lat="41.9227529" lon="1.6823305"><ele>430.6666666666667</ele><time>2026-04-25T10:37:21.094Z</time></trkpt><trkpt lat="41.9229279" lon="1.6822456"><ele>433.0</ele><time>2026-04-25T10:37:22.093Z</time></trkpt><trkpt lat="41.923105" lon="1.6821837"><ele>433.0</ele><time>2026-04-25T10:37:23.094Z</time></trkpt><trkpt lat="41.9232919" lon="1.6821752"><ele>433.0</ele><time>2026-04-25T10:37:24.095Z</time></trkpt><trkpt lat="41.9234864" lon="1.6821861"><ele>433.0</ele><time>2026-04-25T10:37:25.093Z</time></trkpt><trkpt lat="41.9236878" lon="1.6821907"><ele>435.0</ele><time>2026-04-25T10:37:26.095Z</time></trkpt><trkpt lat="41.9239003" lon="1.6821931"><ele>437.0</ele><time>2026-04-25T10:37:27.094Z</time></trkpt><trkpt lat="41.9241235" lon="1.6821958"><ele>439.0</ele><time>2026-04-25T10:37:28.093Z</time></trkpt><trkpt lat="41.9243571" lon="1.6822006"><ele>439.5</ele><time>2026-04-25T10:37:29.094Z</time></trkpt><trkpt lat="41.9245971" lon="1.6822055"><ele>440.0</ele><time>2026-04-25T10:37:30.094Z</time></trkpt><trkpt lat="41.9248446" lon="1.682209"><ele>442.0</ele><time>2026-04-25T10:37:31.093Z</time></trkpt><trkpt lat="41.9250995" lon="1.6822145"><ele>444.0</ele><time>2026-04-25T10:37:32.094Z</time></trkpt><trkpt lat="41.9253402" lon="1.682221"><ele>444.0</ele><time>2026-04-25T10:37:33.094Z</time></trkpt><trkpt lat="41.9255605" lon="1.6822276"><ele>444.0</ele><time>2026-04-25T10:37:34.093Z</time></trkpt><trkpt lat="41.925763" lon="1.6822341"><ele>444.0</ele><time>2026-04-25T10:37:35.093Z</time></trkpt><trkpt lat="41.9259556" lon="1.6822557"><ele>444.66666666666663</ele><time>2026-04-25T10:37:36.093Z</time></trkpt><trkpt lat="41.9261508" lon="1.6823206"><ele>445.3333333333333</ele><time>2026-04-25T10:37:37.093Z</time></trkpt><trkpt lat="41.926341" lon="1.682423"><ele>446.0</ele><time>2026-04-25T10:37:38.095Z</time></trkpt><trkpt lat="41.9265168" lon="1.682529"><ele>446.0</ele><time>2026-04-25T10:37:39.094Z</time></trkpt><trkpt lat="41.9266709" lon="1.682617"><ele>446.0</ele><time>2026-04-25T10:37:40.094Z</time></trkpt><trkpt lat="41.9268082" lon="1.6826926"><ele>446.0</ele><time>2026-04-25T10:37:41.093Z</time></trkpt><trkpt lat="41.9269448" lon="1.6827724"><ele>447.66666666666663</ele><time>2026-04-25T10:37:42.094Z</time></trkpt><trkpt lat="41.9270951" lon="1.6828678"><ele>449.33333333333337</ele><time>2026-04-25T10:37:43.095Z</time></trkpt><trkpt lat="41.927263" lon="1.6829695"><ele>451.0</ele><time>2026-04-25T10:37:44.093Z</time></trkpt><trkpt lat="41.9274512" lon="1.6830791"><ele>450.33333333333337</ele><time>2026-04-25T10:37:45.095Z</time></trkpt><trkpt lat="41.9276569" lon="1.6831992"><ele>449.66666666666663</ele><time>2026-04-25T10:37:46.094Z</time></trkpt><trkpt lat="41.9278508" lon="1.683315"><ele>449.0</ele><time>2026-04-25T10:37:47.094Z</time></trkpt><trkpt lat="41.9280226" lon="1.6834312"><ele>449.0</ele><time>2026-04-25T10:37:48.094Z</time></trkpt><trkpt lat="41.9281745" lon="1.6835751"><ele>449.0</ele><time>2026-04-25T10:37:49.094Z</time></trkpt><trkpt lat="41.9283103" lon="1.6837655"><ele>449.0</ele><time>2026-04-25T10:37:50.095Z</time></trkpt><trkpt lat="41.928435" lon="1.6840015"><ele>451.0</ele><time>2026-04-25T10:37:51.094Z</time></trkpt><trkpt lat="41.928546" lon="1.684262"><ele>453.0</ele><time>2026-04-25T10:37:52.094Z</time></trkpt><trkpt lat="41.9286654" lon="1.684534"><ele>453.0</ele><time>2026-04-25T10:37:53.095Z</time></trkpt><trkpt lat="41.9287828" lon="1.6848136"><ele>453.0</ele><time>2026-04-25T10:37:54.094Z</time></trkpt><trkpt lat="41.928904" lon="1.6851002"><ele>454.0</ele><time>2026-04-25T10:37:55.094Z</time></trkpt><trkpt lat="41.9290268" lon="1.6853879"><ele>455.0</ele><time>2026-04-25T10:37:56.093Z</time></trkpt><trkpt lat="41.9291513" lon="1.6856785"><ele>457.5</ele><time>2026-04-25T10:37:57.093Z</time></trkpt><trkpt lat="41.9292751" lon="1.6859754"><ele>460.0</ele><time>2026-04-25T10:37:58.094Z</time></trkpt><trkpt lat="41.9293991" lon="1.6862756"><ele>460.5</ele><time>2026-04-25T10:37:59.093Z</time></trkpt><trkpt lat="41.9295224" lon="1.6865817"><ele>461.0</ele><time>2026-04-25T10:38:00.094Z</time></trkpt><trkpt lat="41.9296456" lon="1.6868902"><ele>462.0</ele><time>2026-04-25T10:38:01.095Z</time></trkpt><trkpt lat="41.92977" lon="1.6871945"><ele>463.0</ele><time>2026-04-25T10:38:02.095Z</time></trkpt><trkpt lat="41.9298956" lon="1.6874948"><ele>463.5</ele><time>2026-04-25T10:38:03.093Z</time></trkpt><trkpt lat="41.9300198" lon="1.6877957"><ele>464.0</ele><time>2026-04-25T10:38:04.094Z</time></trkpt><trkpt lat="41.9301444" lon="1.6880988"><ele>466.0</ele><time>2026-04-25T10:38:05.093Z</time></trkpt><trkpt lat="41.9302686" lon="1.6884037"><ele>468.0</ele><time>2026-04-25T10:38:06.093Z</time></trkpt><trkpt lat="41.9303916" lon="1.6887099"><ele>468.5</ele><time>2026-04-25T10:38:07.094Z</time></trkpt><trkpt lat="41.9305161" lon="1.6890157"><ele>469.0</ele><time>2026-04-25T10:38:08.094Z</time></trkpt><trkpt lat="41.9306416" lon="1.6893246"><ele>469.0</ele><time>2026-04-25T10:38:09.093Z</time></trkpt><trkpt lat="41.9307693" lon="1.6896378"><ele>469.0</ele><time>2026-04-25T10:38:10.093Z</time></trkpt><trkpt lat="41.9308985" lon="1.6899552"><ele>472.0</ele><time>2026-04-25T10:38:11.094Z</time></trkpt><trkpt lat="41.9310289" lon="1.6902762"><ele>475.0</ele><time>2026-04-25T10:38:12.095Z</time></trkpt><trkpt lat="41.931163" lon="1.690597"><ele>475.0</ele><time>2026-04-25T10:38:13.094Z</time></trkpt><trkpt lat="41.9312992" lon="1.6909232"><ele>475.0</ele><time>2026-04-25T10:38:14.094Z</time></trkpt><trkpt lat="41.9314365" lon="1.6912535"><ele>474.5</ele><time>2026-04-25T10:38:15.094Z</time></trkpt><trkpt lat="41.9315727" lon="1.6915862"><ele>474.0</ele><time>2026-04-25T10:38:16.093Z</time></trkpt><trkpt lat="41.9317105" lon="1.6919193"><ele>477.5</ele><time>2026-04-25T10:38:17.094Z</time></trkpt><trkpt lat="41.9318492" lon="1.6922552"><ele>481.0</ele><time>2026-04-25T10:38:18.094Z</time></trkpt><trkpt lat="41.9319871" lon="1.6925909"><ele>482.5</ele><time>2026-04-25T10:38:19.094Z</time></trkpt><trkpt lat="41.9321238" lon="1.6929244"><ele>484.0</ele><time>2026-04-25T10:38:20.094Z</time></trkpt><trkpt lat="41.9322601" lon="1.6932567"><ele>484.0</ele><time>2026-04-25T10:38:21.093Z</time></trkpt><trkpt lat="41.9323991" lon="1.6935803"><ele>484.0</ele><time>2026-04-25T10:38:22.094Z</time></trkpt><trkpt lat="41.9325397" lon="1.6938966"><ele>488.0</ele><time>2026-04-25T10:38:23.094Z</time></trkpt><trkpt lat="41.9326697" lon="1.694191"><ele>492.0</ele><time>2026-04-25T10:38:24.094Z</time></trkpt><trkpt lat="41.9327962" lon="1.694478"><ele>492.0</ele><time>2026-04-25T10:38:25.093Z</time></trkpt><trkpt lat="41.9329241" lon="1.6947504"><ele>492.0</ele><time>2026-04-25T10:38:26.094Z</time></trkpt><trkpt lat="41.9330602" lon="1.6949804"><ele>492.0</ele><time>2026-04-25T10:38:27.094Z</time></trkpt><trkpt lat="41.933214" lon="1.6951697"><ele>492.0</ele><time>2026-04-25T10:38:28.095Z</time></trkpt><trkpt lat="41.9333896" lon="1.6953042"><ele>492.0</ele><time>2026-04-25T10:38:29.094Z</time></trkpt><trkpt lat="41.9335901" lon="1.6953912"><ele>492.5</ele><time>2026-04-25T10:38:30.093Z</time></trkpt><trkpt lat="41.9338179" lon="1.6954492"><ele>493.0</ele><time>2026-04-25T10:38:31.093Z</time></trkpt><trkpt lat="41.9340606" lon="1.6955012"><ele>494.33333333333337</ele><time>2026-04-25T10:38:32.094Z</time></trkpt><trkpt lat="41.9342845" lon="1.695543"><ele>495.66666666666663</ele><time>2026-04-25T10:38:33.094Z</time></trkpt><trkpt lat="41.9344886" lon="1.6955506"><ele>497.0</ele><time>2026-04-25T10:38:34.094Z</time></trkpt><trkpt lat="41.9347008" lon="1.6954984"><ele>497.0</ele><time>2026-04-25T10:38:35.095Z</time></trkpt><trkpt lat="41.9349302" lon="1.695408"><ele>497.0</ele><time>2026-04-25T10:38:36.094Z</time></trkpt><trkpt lat="41.935176" lon="1.6953063"><ele>502.5</ele><time>2026-04-25T10:38:37.093Z</time></trkpt><trkpt lat="41.9354241" lon="1.6952109"><ele>508.0</ele><time>2026-04-25T10:38:38.094Z</time></trkpt><trkpt lat="41.9356402" lon="1.695118"><ele>508.0</ele><time>2026-04-25T10:38:39.094Z</time></trkpt><trkpt lat="41.9358334" lon="1.6949915"><ele>508.0</ele><time>2026-04-25T10:38:40.094Z</time></trkpt><trkpt lat="41.936004" lon="1.6948152"><ele>508.0</ele><time>2026-04-25T10:38:41.094Z</time></trkpt><trkpt lat="41.9361506" lon="1.6946321"><ele>509.0</ele><time>2026-04-25T10:38:42.094Z</time></trkpt><trkpt lat="41.9363029" lon="1.694505"><ele>510.0</ele><time>2026-04-25T10:38:43.093Z</time></trkpt><trkpt lat="41.9364807" lon="1.6944398"><ele>511.0</ele><time>2026-04-25T10:38:44.093Z</time></trkpt><trkpt lat="41.9366798" lon="1.6943961"><ele>516.3333333333334</ele><time>2026-04-25T10:38:45.094Z</time></trkpt><trkpt lat="41.9368856" lon="1.6943699"><ele>521.6666666666666</ele><time>2026-04-25T10:38:46.094Z</time></trkpt><trkpt lat="41.9370604" lon="1.6944061"><ele>527.0</ele><time>2026-04-25T10:38:47.093Z</time></trkpt><trkpt lat="41.9372253" lon="1.6945009"><ele>527.0</ele><time>2026-04-25T10:38:48.093Z</time></trkpt><trkpt lat="41.9373975" lon="1.6946562"><ele>527.0</ele><time>2026-04-25T10:38:49.095Z</time></trkpt><trkpt lat="41.9375853" lon="1.6948341"><ele>527.0</ele><time>2026-04-25T10:38:50.094Z</time></trkpt><trkpt lat="41.9377573" lon="1.6950007"><ele>531.0</ele><time>2026-04-25T10:38:51.094Z</time></trkpt><trkpt lat="41.9379152" lon="1.6951396"><ele>535.0</ele><time>2026-04-25T10:38:52.094Z</time></trkpt><trkpt lat="41.9380688" lon="1.6952204"><ele>539.0</ele><time>2026-04-25T10:38:53.093Z</time></trkpt><trkpt lat="41.9382151" lon="1.6952369"><ele>539.0</ele><time>2026-04-25T10:38:54.093Z</time></trkpt><trkpt lat="41.9383544" lon="1.6951827"><ele>539.0</ele><time>2026-04-25T10:38:55.094Z</time></trkpt><trkpt lat="41.93849" lon="1.695059"><ele>539.0</ele><time>2026-04-25T10:38:56.094Z</time></trkpt><trkpt lat="41.9386486" lon="1.6949569"><ele>540.0</ele><time>2026-04-25T10:38:57.093Z</time></trkpt><trkpt lat="41.9388107" lon="1.6949289"><ele>541.0</ele><time>2026-04-25T10:38:58.093Z</time></trkpt><trkpt lat="41.9389651" lon="1.6949671"><ele>542.0</ele><time>2026-04-25T10:38:59.093Z</time></trkpt><trkpt lat="41.9391009" lon="1.6950837"><ele>542.0</ele><time>2026-04-25T10:39:00.093Z</time></trkpt><trkpt lat="41.9392244" lon="1.6952709"><ele>542.0</ele><time>2026-04-25T10:39:01.094Z</time></trkpt><trkpt lat="41.9393341" lon="1.6954592"><ele>542.0</ele><time>2026-04-25T10:39:02.094Z</time></trkpt><trkpt lat="41.9394579" lon="1.6955677"><ele>542.0</ele><time>2026-04-25T10:39:03.095Z</time></trkpt><trkpt lat="41.939618" lon="1.695598"><ele>542.0</ele><time>2026-04-25T10:39:04.094Z</time></trkpt><trkpt lat="41.9398169" lon="1.6955804"><ele>542.0</ele><time>2026-04-25T10:39:05.094Z</time></trkpt><trkpt lat="41.9400444" lon="1.695561"><ele>545.5</ele><time>2026-04-25T10:39:06.095Z</time></trkpt><trkpt lat="41.9402817" lon="1.6955703"><ele>549.0</ele><time>2026-04-25T10:39:07.093Z</time></trkpt><trkpt lat="41.940491" lon="1.6956214"><ele>549.0</ele><time>2026-04-25T10:39:08.095Z</time></trkpt><trkpt lat="41.9406902" lon="1.6957188"><ele>549.0</ele><time>2026-04-25T10:39:09.094Z</time></trkpt><trkpt lat="41.9408803" lon="1.6958929"><ele>549.0</ele><time>2026-04-25T10:39:10.093Z</time></trkpt><trkpt lat="41.9410783" lon="1.6960958"><ele>552.5</ele><time>2026-04-25T10:39:11.093Z</time></trkpt><trkpt lat="41.941274" lon="1.6963021"><ele>556.0</ele><time>2026-04-25T10:39:12.095Z</time></trkpt><trkpt lat="41.941451" lon="1.6964707"><ele>556.0</ele><time>2026-04-25T10:39:13.094Z</time></trkpt><trkpt lat="41.9416413" lon="1.696588"><ele>556.0</ele><time>2026-04-25T10:39:14.093Z</time></trkpt><trkpt lat="41.941851" lon="1.6966465"><ele>556.0</ele><time>2026-04-25T10:39:15.094Z</time></trkpt><trkpt lat="41.9420461" lon="1.6966826"><ele>557.0</ele><time>2026-04-25T10:39:16.094Z</time></trkpt><trkpt lat="41.9422191" lon="1.6967938"><ele>558.0</ele><time>2026-04-25T10:39:17.094Z</time></trkpt><trkpt lat="41.9423671" lon="1.6969722"><ele>559.0</ele><time>2026-04-25T10:39:18.094Z</time></trkpt><trkpt lat="41.942497" lon="1.6971872"><ele>562.3333333333334</ele><time>2026-04-25T10:39:19.094Z</time></trkpt><trkpt lat="41.9426017" lon="1.6973548"><ele>565.6666666666666</ele><time>2026-04-25T10:39:20.094Z</time></trkpt><trkpt lat="41.942733" lon="1.6974472"><ele>569.0</ele><time>2026-04-25T10:39:21.093Z</time></trkpt><trkpt lat="41.9429017" lon="1.6974748"><ele>569.0</ele><time>2026-04-25T10:39:22.094Z</time></trkpt><trkpt lat="41.9431093" lon="1.6974798"><ele>569.0</ele><time>2026-04-25T10:39:23.094Z</time></trkpt><trkpt lat="41.9433326" lon="1.6975225"><ele>569.0</ele><time>2026-04-25T10:39:24.095Z</time></trkpt><trkpt lat="41.9435649" lon="1.697614"><ele>570.5</ele><time>2026-04-25T10:39:25.094Z</time></trkpt><trkpt lat="41.9438107" lon="1.6977236"><ele>572.0</ele><time>2026-04-25T10:39:26.093Z</time></trkpt><trkpt lat="41.9440462" lon="1.6977913"><ele>571.5</ele><time>2026-04-25T10:39:27.093Z</time></trkpt><trkpt lat="41.9442983" lon="1.6978067"><ele>571.0</ele><time>2026-04-25T10:39:28.094Z</time></trkpt><trkpt lat="41.9445498" lon="1.6977829"><ele>574.0</ele><time>2026-04-25T10:39:29.094Z</time></trkpt><trkpt lat="41.9447981" lon="1.697714"><ele>577.0</ele><time>2026-04-25T10:39:30.095Z</time></trkpt><trkpt lat="41.9450387" lon="1.6975999"><ele>577.6666666666667</ele><time>2026-04-25T10:39:31.095Z</time></trkpt><trkpt lat="41.9452445" lon="1.6975051"><ele>578.3333333333334</ele><time>2026-04-25T10:39:32.094Z</time></trkpt><trkpt lat="41.9454229" lon="1.6974588"><ele>579.0</ele><time>2026-04-25T10:39:33.093Z</time></trkpt><trkpt lat="41.9455812" lon="1.6974843"><ele>579.0</ele><time>2026-04-25T10:39:34.094Z</time></trkpt><trkpt lat="41.945728" lon="1.6976081"><ele>579.0</ele><time>2026-04-25T10:39:35.093Z</time></trkpt><trkpt lat="41.9458797" lon="1.6978071"><ele>579.0</ele><time>2026-04-25T10:39:36.093Z</time></trkpt><trkpt lat="41.9460406" lon="1.6980308"><ele>581.5</ele><time>2026-04-25T10:39:37.093Z</time></trkpt><trkpt lat="41.9462266" lon="1.6982399"><ele>584.0</ele><time>2026-04-25T10:39:38.094Z</time></trkpt><trkpt lat="41.9464354" lon="1.698417"><ele>584.0</ele><time>2026-04-25T10:39:39.093Z</time></trkpt><trkpt lat="41.9466799" lon="1.6985651"><ele>584.0</ele><time>2026-04-25T10:39:40.093Z</time></trkpt><trkpt lat="41.9469415" lon="1.6986896"><ele>585.0</ele><time>2026-04-25T10:39:41.094Z</time></trkpt><trkpt lat="41.9472178" lon="1.6988254"><ele>586.0</ele><time>2026-04-25T10:39:42.095Z</time></trkpt><trkpt lat="41.9474939" lon="1.6989628"><ele>591.0</ele><time>2026-04-25T10:39:43.094Z</time></trkpt><trkpt lat="41.9477694" lon="1.6990989"><ele>596.0</ele><time>2026-04-25T10:39:44.094Z</time></trkpt><trkpt lat="41.9480462" lon="1.6992348"><ele>596.0</ele><time>2026-04-25T10:39:45.093Z</time></trkpt><trkpt lat="41.9483197" lon="1.6993702"><ele>596.0</ele><time>2026-04-25T10:39:46.093Z</time></trkpt><trkpt lat="41.9485915" lon="1.6995023"><ele>598.0</ele><time>2026-04-25T10:39:47.095Z</time></trkpt><trkpt lat="41.9488599" lon="1.6996382"><ele>600.0</ele><time>2026-04-25T10:39:48.093Z</time></trkpt><trkpt lat="41.9491294" lon="1.6997742"><ele>604.0</ele><time>2026-04-25T10:39:49.094Z</time></trkpt><trkpt lat="41.9493972" lon="1.6999102"><ele>608.0</ele><time>2026-04-25T10:39:50.094Z</time></trkpt><trkpt lat="41.9496647" lon="1.7000455"><ele>608.0</ele><time>2026-04-25T10:39:51.094Z</time></trkpt><trkpt lat="41.9499325" lon="1.7001821"><ele>608.0</ele><time>2026-04-25T10:39:52.093Z</time></trkpt><trkpt lat="41.950199" lon="1.7003162"><ele>607.5</ele><time>2026-04-25T10:39:53.094Z</time></trkpt><trkpt lat="41.9504577" lon="1.7004433"><ele>607.0</ele><time>2026-04-25T10:39:54.094Z</time></trkpt><trkpt lat="41.9506979" lon="1.7005637"><ele>604.0</ele><time>2026-04-25T10:39:55.094Z</time></trkpt><trkpt lat="41.9509246" lon="1.7006889"><ele>601.0</ele><time>2026-04-25T10:39:56.094Z</time></trkpt><trkpt lat="41.9511248" lon="1.7008649"><ele>600.0</ele><time>2026-04-25T10:39:57.094Z</time></trkpt><trkpt lat="41.9513105" lon="1.7010938"><ele>599.0</ele><time>2026-04-25T10:39:58.093Z</time></trkpt><trkpt lat="41.9514873" lon="1.7013427"><ele>599.0</ele><time>2026-04-25T10:39:59.094Z</time></trkpt><trkpt lat="41.951666" lon="1.7015512"><ele>599.0</ele><time>2026-04-25T10:40:00.093Z</time></trkpt><trkpt lat="41.9518644" lon="1.7017103"><ele>596.5</ele><time>2026-04-25T10:40:01.094Z</time></trkpt><trkpt lat="41.9520876" lon="1.7018218"><ele>594.0</ele><time>2026-04-25T10:40:02.093Z</time></trkpt><trkpt lat="41.9523404" lon="1.7018953"><ele>596.5</ele><time>2026-04-25T10:40:03.094Z</time></trkpt><trkpt lat="41.9526168" lon="1.7019499"><ele>599.0</ele><time>2026-04-25T10:40:04.093Z</time></trkpt><trkpt lat="41.9529074" lon="1.7020124"><ele>599.0</ele><time>2026-04-25T10:40:05.094Z</time></trkpt><trkpt lat="41.9532079" lon="1.7020725"><ele>599.0</ele><time>2026-04-25T10:40:06.094Z</time></trkpt><trkpt lat="41.9534922" lon="1.7021289"><ele>598.5</ele><time>2026-04-25T10:40:07.094Z</time></trkpt><trkpt lat="41.9537605" lon="1.7021921"><ele>598.0</ele><time>2026-04-25T10:40:08.094Z</time></trkpt><trkpt lat="41.9540268" lon="1.7022856"><ele>593.5</ele><time>2026-04-25T10:40:09.094Z</time></trkpt><trkpt lat="41.9542975" lon="1.702405"><ele>589.0</ele><time>2026-04-25T10:40:10.093Z</time></trkpt><trkpt lat="41.9545795" lon="1.7025345"><ele>589.0</ele><time>2026-04-25T10:40:11.094Z</time></trkpt><trkpt lat="41.9548619" lon="1.7026685"><ele>589.0</ele><time>2026-04-25T10:40:12.094Z</time></trkpt><trkpt lat="41.955134" lon="1.7027933"><ele>589.0</ele><time>2026-04-25T10:40:13.095Z</time></trkpt><trkpt lat="41.9553876" lon="1.7029138"><ele>589.0</ele><time>2026-04-25T10:40:14.094Z</time></trkpt><trkpt lat="41.9556139" lon="1.7030228"><ele>589.0</ele><time>2026-04-25T10:40:15.093Z</time></trkpt><trkpt lat="41.9558082" lon="1.7031238"><ele>589.0</ele><time>2026-04-25T10:40:16.095Z</time></trkpt><trkpt lat="41.9559912" lon="1.7031788"><ele>589.0</ele><time>2026-04-25T10:40:17.094Z</time></trkpt><trkpt lat="41.9561614" lon="1.7031437"><ele>589.3333333333334</ele><time>2026-04-25T10:40:18.094Z</time></trkpt><trkpt lat="41.9563349" lon="1.7030165"><ele>589.6666666666666</ele><time>2026-04-25T10:40:19.093Z</time></trkpt><trkpt lat="41.9565282" lon="1.702843"><ele>590.0</ele><time>2026-04-25T10:40:20.093Z</time></trkpt><trkpt lat="41.9567346" lon="1.7026559"><ele>590.0</ele><time>2026-04-25T10:40:21.094Z</time></trkpt><trkpt lat="41.9569469" lon="1.7024667"><ele>590.0</ele><time>2026-04-25T10:40:22.094Z</time></trkpt><trkpt lat="41.9571542" lon="1.7022794"><ele>590.0</ele><time>2026-04-25T10:40:23.094Z</time></trkpt><trkpt lat="41.9573433" lon="1.7021081"><ele>590.0</ele><time>2026-04-25T10:40:24.094Z</time></trkpt><trkpt lat="41.9575195" lon="1.7019509"><ele>590.0</ele><time>2026-04-25T10:40:25.094Z</time></trkpt><trkpt lat="41.9576746" lon="1.7018115"><ele>591.0</ele><time>2026-04-25T10:40:26.093Z</time></trkpt><trkpt lat="41.9578123" lon="1.7016884"><ele>592.0</ele><time>2026-04-25T10:40:27.095Z</time></trkpt><trkpt lat="41.9579432" lon="1.7015864"><ele>593.0</ele><time>2026-04-25T10:40:28.094Z</time></trkpt><trkpt lat="41.9580705" lon="1.7014986"><ele>593.0</ele><time>2026-04-25T10:40:29.093Z</time></trkpt><trkpt lat="41.9582057" lon="1.7014301"><ele>593.0</ele><time>2026-04-25T10:40:30.093Z</time></trkpt><trkpt lat="41.9583755" lon="1.7013636"><ele>593.0</ele><time>2026-04-25T10:40:31.094Z</time></trkpt><trkpt lat="41.9585697" lon="1.7013022"><ele>593.0</ele><time>2026-04-25T10:40:32.093Z</time></trkpt><trkpt lat="41.9587883" lon="1.7012506"><ele>593.0</ele><time>2026-04-25T10:40:33.094Z</time></trkpt><trkpt lat="41.95902" lon="1.7011982"><ele>592.0</ele><time>2026-04-25T10:40:34.094Z</time></trkpt><trkpt lat="41.9592624" lon="1.7011344"><ele>591.0</ele><time>2026-04-25T10:40:35.094Z</time></trkpt><trkpt lat="41.9594977" lon="1.7010684"><ele>590.3333333333334</ele><time>2026-04-25T10:40:36.095Z</time></trkpt><trkpt lat="41.9597178" lon="1.701004"><ele>589.6666666666667</ele><time>2026-04-25T10:40:37.094Z</time></trkpt><trkpt lat="41.9599241" lon="1.7009593"><ele>589.0</ele><time>2026-04-25T10:40:38.094Z</time></trkpt><trkpt lat="41.96012" lon="1.700956"><ele>588.3333333333334</ele><time>2026-04-25T10:40:39.095Z</time></trkpt><trkpt lat="41.9603221" lon="1.7010004"><ele>587.6666666666666</ele><time>2026-04-25T10:40:40.094Z</time></trkpt><trkpt lat="41.960537" lon="1.7010707"><ele>587.0</ele><time>2026-04-25T10:40:41.094Z</time></trkpt><trkpt lat="41.9607649" lon="1.7011431"><ele>585.5</ele><time>2026-04-25T10:40:42.093Z</time></trkpt><trkpt lat="41.9610031" lon="1.7012114"><ele>584.0</ele><time>2026-04-25T10:40:43.093Z</time></trkpt><trkpt lat="41.9612553" lon="1.7012817"><ele>584.0</ele><time>2026-04-25T10:40:44.095Z</time></trkpt><trkpt lat="41.9615113" lon="1.7013584"><ele>584.0</ele><time>2026-04-25T10:40:45.093Z</time></trkpt><trkpt lat="41.9617749" lon="1.7014417"><ele>582.5</ele><time>2026-04-25T10:40:46.095Z</time></trkpt><trkpt lat="41.9620435" lon="1.7015254"><ele>581.0</ele><time>2026-04-25T10:40:47.094Z</time></trkpt><trkpt lat="41.9623146" lon="1.701609"><ele>580.0</ele><time>2026-04-25T10:40:48.094Z</time></trkpt><trkpt lat="41.9625921" lon="1.7016929"><ele>579.0</ele><time>2026-04-25T10:40:49.093Z</time></trkpt><trkpt lat="41.9628741" lon="1.701774"><ele>579.0</ele><time>2026-04-25T10:40:50.094Z</time></trkpt><trkpt lat="41.9631584" lon="1.7018597"><ele>579.0</ele><time>2026-04-25T10:40:51.095Z</time></trkpt><trkpt lat="41.9634461" lon="1.701946"><ele>578.5</ele><time>2026-04-25T10:40:52.094Z</time></trkpt><trkpt lat="41.9637369" lon="1.7020362"><ele>578.0</ele><time>2026-04-25T10:40:53.094Z</time></trkpt><trkpt lat="41.964031" lon="1.702128"><ele>577.0</ele><time>2026-04-25T10:40:54.094Z</time></trkpt><trkpt lat="41.9643271" lon="1.7022197"><ele>576.0</ele><time>2026-04-25T10:40:55.094Z</time></trkpt><trkpt lat="41.9646226" lon="1.7023079"><ele>576.0</ele><time>2026-04-25T10:40:56.094Z</time></trkpt><trkpt lat="41.9649202" lon="1.7023977"><ele>576.0</ele><time>2026-04-25T10:40:57.095Z</time></trkpt><trkpt lat="41.9652146" lon="1.7024883"><ele>575.5</ele><time>2026-04-25T10:40:58.093Z</time></trkpt><trkpt lat="41.9655101" lon="1.702581"><ele>575.0</ele><time>2026-04-25T10:40:59.094Z</time></trkpt><trkpt lat="41.9658053" lon="1.702671"><ele>576.5</ele><time>2026-04-25T10:41:00.093Z</time></trkpt><trkpt lat="41.9660997" lon="1.7027604"><ele>578.0</ele><time>2026-04-25T10:41:01.094Z</time></trkpt><trkpt lat="41.9663914" lon="1.7028472"><ele>578.0</ele><time>2026-04-25T10:41:02.094Z</time></trkpt><trkpt lat="41.9666845" lon="1.7029359"><ele>578.0</ele><time>2026-04-25T10:41:03.093Z</time></trkpt><trkpt lat="41.9669773" lon="1.7030216"><ele>577.0</ele><time>2026-04-25T10:41:04.094Z</time></trkpt><trkpt lat="41.9672654" lon="1.7031104"><ele>576.0</ele><time>2026-04-25T10:41:05.094Z</time></trkpt><trkpt lat="41.9675498" lon="1.7031981"><ele>576.0</ele><time>2026-04-25T10:41:06.094Z</time></trkpt><trkpt lat="41.9678293" lon="1.7032845"><ele>576.0</ele><time>2026-04-25T10:41:07.094Z</time></trkpt><trkpt lat="41.9681081" lon="1.7033716"><ele>578.5</ele><time>2026-04-25T10:41:08.094Z</time></trkpt><trkpt lat="41.968381" lon="1.7034543"><ele>581.0</ele><time>2026-04-25T10:41:09.093Z</time></trkpt><trkpt lat="41.968636" lon="1.7035309"><ele>581.5</ele><time>2026-04-25T10:41:10.093Z</time></trkpt><trkpt lat="41.9688726" lon="1.7036037"><ele>582.0</ele><time>2026-04-25T10:41:11.094Z</time></trkpt><trkpt lat="41.9690989" lon="1.7036793"><ele>585.5</ele><time>2026-04-25T10:41:12.093Z</time></trkpt><trkpt lat="41.9693217" lon="1.7037628"><ele>589.0</ele><time>2026-04-25T10:41:13.093Z</time></trkpt><trkpt lat="41.9695382" lon="1.7038478"><ele>589.0</ele><time>2026-04-25T10:41:14.093Z</time></trkpt><trkpt lat="41.9697496" lon="1.7039306"><ele>589.0</ele><time>2026-04-25T10:41:15.093Z</time></trkpt><trkpt lat="41.9699689" lon="1.7040261"><ele>588.0</ele><time>2026-04-25T10:41:16.093Z</time></trkpt><trkpt lat="41.9701882" lon="1.7041499"><ele>587.0</ele><time>2026-04-25T10:41:17.093Z</time></trkpt><trkpt lat="41.9703973" lon="1.704304"><ele>589.0</ele><time>2026-04-25T10:41:18.093Z</time></trkpt><trkpt lat="41.9705975" lon="1.7044845"><ele>591.0</ele><time>2026-04-25T10:41:19.094Z</time></trkpt><trkpt lat="41.9707914" lon="1.7046839"><ele>591.0</ele><time>2026-04-25T10:41:20.094Z</time></trkpt><trkpt lat="41.9709758" lon="1.7048743"><ele>591.0</ele><time>2026-04-25T10:41:21.094Z</time></trkpt><trkpt lat="41.9711538" lon="1.70504"><ele>591.0</ele><time>2026-04-25T10:41:22.094Z</time></trkpt><trkpt lat="41.9713372" lon="1.7051432"><ele>591.0</ele><time>2026-04-25T10:41:23.095Z</time></trkpt><trkpt lat="41.9715509" lon="1.705199"><ele>591.0</ele><time>2026-04-25T10:41:24.093Z</time></trkpt><trkpt lat="41.9717823" lon="1.7052052"><ele>591.0</ele><time>2026-04-25T10:41:25.094Z</time></trkpt><trkpt lat="41.9720103" lon="1.7052116"><ele>592.6666666666666</ele><time>2026-04-25T10:41:26.095Z</time></trkpt><trkpt lat="41.9722077" lon="1.7052645"><ele>594.3333333333333</ele><time>2026-04-25T10:41:27.094Z</time></trkpt><trkpt lat="41.9724083" lon="1.7053767"><ele>596.0</ele><time>2026-04-25T10:41:28.093Z</time></trkpt><trkpt lat="41.9725987" lon="1.7055173"><ele>596.0</ele><time>2026-04-25T10:41:29.094Z</time></trkpt><trkpt lat="41.9727548" lon="1.7056579"><ele>596.0</ele><time>2026-04-25T10:41:30.094Z</time></trkpt><trkpt lat="41.9728823" lon="1.7058312"><ele>596.0</ele><time>2026-04-25T10:41:31.094Z</time></trkpt><trkpt lat="41.9729755" lon="1.7060475"><ele>596.0</ele><time>2026-04-25T10:41:32.093Z</time></trkpt><trkpt lat="41.9730622" lon="1.7062956"><ele>596.0</ele><time>2026-04-25T10:41:33.094Z</time></trkpt><trkpt lat="41.9731576" lon="1.7064982"><ele>596.0</ele><time>2026-04-25T10:41:34.094Z</time></trkpt><trkpt lat="41.9732801" lon="1.7066588"><ele>596.0</ele><time>2026-04-25T10:41:35.095Z</time></trkpt><trkpt lat="41.9734214" lon="1.7067681"><ele>596.0</ele><time>2026-04-25T10:41:36.095Z</time></trkpt><trkpt lat="41.9735707" lon="1.7068153"><ele>596.0</ele><time>2026-04-25T10:41:37.094Z</time></trkpt><trkpt lat="41.9737417" lon="1.7067866"><ele>596.0</ele><time>2026-04-25T10:41:38.093Z</time></trkpt><trkpt lat="41.9739393" lon="1.7067002"><ele>596.0</ele><time>2026-04-25T10:41:39.093Z</time></trkpt><trkpt lat="41.9741429" lon="1.706636"><ele>596.0</ele><time>2026-04-25T10:41:40.095Z</time></trkpt><trkpt lat="41.9743363" lon="1.706631"><ele>595.6666666666666</ele><time>2026-04-25T10:41:41.094Z</time></trkpt><trkpt lat="41.9745472" lon="1.7066811"><ele>595.3333333333334</ele><time>2026-04-25T10:41:42.093Z</time></trkpt><trkpt lat="41.9747649" lon="1.7067643"><ele>595.0</ele><time>2026-04-25T10:41:43.093Z</time></trkpt><trkpt lat="41.9749988" lon="1.7068659"><ele>599.0</ele><time>2026-04-25T10:41:44.094Z</time></trkpt><trkpt lat="41.975242" lon="1.7069714"><ele>603.0</ele><time>2026-04-25T10:41:45.095Z</time></trkpt><trkpt lat="41.9754884" lon="1.7070843"><ele>603.0</ele><time>2026-04-25T10:41:46.094Z</time></trkpt><trkpt lat="41.9757215" lon="1.707211"><ele>603.0</ele><time>2026-04-25T10:41:47.095Z</time></trkpt><trkpt lat="41.9759466" lon="1.7073735"><ele>603.5</ele><time>2026-04-25T10:41:48.094Z</time></trkpt><trkpt lat="41.9761689" lon="1.7075724"><ele>604.0</ele><time>2026-04-25T10:41:49.094Z</time></trkpt><trkpt lat="41.9763937" lon="1.7077798"><ele>606.0</ele><time>2026-04-25T10:41:50.094Z</time></trkpt><trkpt lat="41.9766249" lon="1.7079873"><ele>608.0</ele><time>2026-04-25T10:41:51.094Z</time></trkpt><trkpt lat="41.976861" lon="1.7082026"><ele>608.0</ele><time>2026-04-25T10:41:52.095Z</time></trkpt><trkpt lat="41.9771031" lon="1.708417"><ele>608.0</ele><time>2026-04-25T10:41:53.094Z</time></trkpt><trkpt lat="41.9773474" lon="1.7086321"><ele>611.5</ele><time>2026-04-25T10:41:54.094Z</time></trkpt><trkpt lat="41.9775656" lon="1.7088421"><ele>615.0</ele><time>2026-04-25T10:41:55.094Z</time></trkpt><trkpt lat="41.9777644" lon="1.7090335"><ele>615.0</ele><time>2026-04-25T10:41:56.093Z</time></trkpt><trkpt lat="41.977947" lon="1.7092029"><ele>615.0</ele><time>2026-04-25T10:41:57.094Z</time></trkpt><trkpt lat="41.9781311" lon="1.7093304"><ele>615.0</ele><time>2026-04-25T10:41:58.094Z</time></trkpt><trkpt lat="41.9783436" lon="1.7093846"><ele>616.6666666666666</ele><time>2026-04-25T10:41:59.094Z</time></trkpt><trkpt lat="41.9785478" lon="1.7094107"><ele>618.3333333333333</ele><time>2026-04-25T10:42:00.093Z</time></trkpt><trkpt lat="41.9787362" lon="1.7094365"><ele>620.0</ele><time>2026-04-25T10:42:01.094Z</time></trkpt><trkpt lat="41.9789193" lon="1.7094586"><ele>620.0</ele><time>2026-04-25T10:42:02.094Z</time></trkpt><trkpt lat="41.9791057" lon="1.709494"><ele>620.0</ele><time>2026-04-25T10:42:03.094Z</time></trkpt><trkpt lat="41.9792979" lon="1.7095567"><ele>620.0</ele><time>2026-04-25T10:42:04.094Z</time></trkpt><trkpt lat="41.9795092" lon="1.7096321"><ele>621.5</ele><time>2026-04-25T10:42:05.095Z</time></trkpt><trkpt lat="41.9797399" lon="1.70971"><ele>623.0</ele><time>2026-04-25T10:42:06.094Z</time></trkpt><trkpt lat="41.9799817" lon="1.7097801"><ele>626.0</ele><time>2026-04-25T10:42:07.094Z</time></trkpt><trkpt lat="41.980239" lon="1.7098284"><ele>629.0</ele><time>2026-04-25T10:42:08.094Z</time></trkpt><trkpt lat="41.9804962" lon="1.7098518"><ele>629.0</ele><time>2026-04-25T10:42:09.094Z</time></trkpt><trkpt lat="41.9807138" lon="1.7098785"><ele>629.0</ele><time>2026-04-25T10:42:10.094Z</time></trkpt><trkpt lat="41.9808996" lon="1.70992"><ele>629.0</ele><time>2026-04-25T10:42:11.093Z</time></trkpt><trkpt lat="41.981052" lon="1.7100073"><ele>631.0</ele><time>2026-04-25T10:42:12.094Z</time></trkpt><trkpt lat="41.981195" lon="1.7101762"><ele>633.0</ele><time>2026-04-25T10:42:13.094Z</time></trkpt><trkpt lat="41.9813472" lon="1.710399"><ele>635.0</ele><time>2026-04-25T10:42:14.094Z</time></trkpt><trkpt lat="41.9815088" lon="1.7106554"><ele>635.0</ele><time>2026-04-25T10:42:15.094Z</time></trkpt><trkpt lat="41.9816515" lon="1.7109067"><ele>635.0</ele><time>2026-04-25T10:42:16.093Z</time></trkpt><trkpt lat="41.9817712" lon="1.7111563"><ele>632.6666666666666</ele><time>2026-04-25T10:42:17.093Z</time></trkpt><trkpt lat="41.9819028" lon="1.7113929"><ele>630.3333333333334</ele><time>2026-04-25T10:42:18.095Z</time></trkpt><trkpt lat="41.9820713" lon="1.7115911"><ele>628.0</ele><time>2026-04-25T10:42:19.094Z</time></trkpt><trkpt lat="41.9822792" lon="1.7117817"><ele>629.5</ele><time>2026-04-25T10:42:20.093Z</time></trkpt><trkpt lat="41.9825069" lon="1.7119834"><ele>631.0</ele><time>2026-04-25T10:42:21.094Z</time></trkpt><trkpt lat="41.9827449" lon="1.7121981"><ele>631.5</ele><time>2026-04-25T10:42:22.094Z</time></trkpt><trkpt lat="41.9829558" lon="1.712389"><ele>632.0</ele><time>2026-04-25T10:42:23.094Z</time></trkpt><trkpt lat="41.9831411" lon="1.7125614"><ele>633.0</ele><time>2026-04-25T10:42:24.094Z</time></trkpt><trkpt lat="41.9832823" lon="1.7127437"><ele>634.0</ele><time>2026-04-25T10:42:25.094Z</time></trkpt><trkpt lat="41.9833743" lon="1.7129647"><ele>635.0</ele><time>2026-04-25T10:42:26.094Z</time></trkpt><trkpt lat="41.9834403" lon="1.7132258"><ele>636.6666666666666</ele><time>2026-04-25T10:42:27.094Z</time></trkpt><trkpt lat="41.9835113" lon="1.7134541"><ele>638.3333333333334</ele><time>2026-04-25T10:42:28.094Z</time></trkpt><trkpt lat="41.983612" lon="1.7136363"><ele>640.0</ele><time>2026-04-25T10:42:29.095Z</time></trkpt><trkpt lat="41.9837589" lon="1.7137919"><ele>640.0</ele><time>2026-04-25T10:42:30.094Z</time></trkpt><trkpt lat="41.9839542" lon="1.713921"><ele>640.0</ele><time>2026-04-25T10:42:31.095Z</time></trkpt><trkpt lat="41.9841776" lon="1.7140391"><ele>643.0</ele><time>2026-04-25T10:42:32.094Z</time></trkpt><trkpt lat="41.9843828" lon="1.7141397"><ele>646.0</ele><time>2026-04-25T10:42:33.095Z</time></trkpt><trkpt lat="41.9845969" lon="1.7141861"><ele>649.0</ele><time>2026-04-25T10:42:34.094Z</time></trkpt><trkpt lat="41.9848364" lon="1.7141745"><ele>650.0</ele><time>2026-04-25T10:42:35.094Z</time></trkpt><trkpt lat="41.9850942" lon="1.7141334"><ele>651.0</ele><time>2026-04-25T10:42:36.094Z</time></trkpt><trkpt lat="41.9853645" lon="1.7141039"><ele>651.0</ele><time>2026-04-25T10:42:37.094Z</time></trkpt><trkpt lat="41.9856323" lon="1.7140675"><ele>651.0</ele><time>2026-04-25T10:42:38.093Z</time></trkpt><trkpt lat="41.9859005" lon="1.7140339"><ele>649.5</ele><time>2026-04-25T10:42:39.095Z</time></trkpt><trkpt lat="41.9861662" lon="1.7140014"><ele>648.0</ele><time>2026-04-25T10:42:40.094Z</time></trkpt><trkpt lat="41.9864204" lon="1.7139709"><ele>648.0</ele><time>2026-04-25T10:42:41.094Z</time></trkpt><trkpt lat="41.9866535" lon="1.7139342"><ele>648.0</ele><time>2026-04-25T10:42:42.094Z</time></trkpt><trkpt lat="41.9868792" lon="1.7138615"><ele>651.5</ele><time>2026-04-25T10:42:43.093Z</time></trkpt><trkpt lat="41.9871118" lon="1.7137486"><ele>655.0</ele><time>2026-04-25T10:42:44.094Z</time></trkpt><trkpt lat="41.9873524" lon="1.713615"><ele>661.0</ele><time>2026-04-25T10:42:45.094Z</time></trkpt><trkpt lat="41.9876073" lon="1.7134813"><ele>667.0</ele><time>2026-04-25T10:42:46.093Z</time></trkpt><trkpt lat="41.9878653" lon="1.7133479"><ele>667.0</ele><time>2026-04-25T10:42:47.094Z</time></trkpt><trkpt lat="41.988123" lon="1.713207"><ele>667.0</ele><time>2026-04-25T10:42:48.094Z</time></trkpt><trkpt lat="41.988379" lon="1.7130523"><ele>667.5</ele><time>2026-04-25T10:42:49.095Z</time></trkpt><trkpt lat="41.9886321" lon="1.7128773"><ele>668.0</ele><time>2026-04-25T10:42:50.093Z</time></trkpt><trkpt lat="41.9888866" lon="1.7126966"><ele>667.5</ele><time>2026-04-25T10:42:51.094Z</time></trkpt><trkpt lat="41.9891422" lon="1.7125149"><ele>667.0</ele><time>2026-04-25T10:42:52.093Z</time></trkpt><trkpt lat="41.9893971" lon="1.712336"><ele>667.0</ele><time>2026-04-25T10:42:53.094Z</time></trkpt><trkpt lat="41.9896494" lon="1.7121558"><ele>667.0</ele><time>2026-04-25T10:42:54.095Z</time></trkpt><trkpt lat="41.9899006" lon="1.7119782"><ele>667.0</ele><time>2026-04-25T10:42:55.094Z</time></trkpt><trkpt lat="41.9901469" lon="1.7118022"><ele>667.0</ele><time>2026-04-25T10:42:56.094Z</time></trkpt><trkpt lat="41.9903765" lon="1.7116327"><ele>667.0</ele><time>2026-04-25T10:42:57.093Z</time></trkpt><trkpt lat="41.9906029" lon="1.7114675"><ele>667.0</ele><time>2026-04-25T10:42:58.094Z</time></trkpt><trkpt lat="41.9908157" lon="1.7113141"><ele>666.6666666666667</ele><time>2026-04-25T10:42:59.093Z</time></trkpt><trkpt lat="41.9910116" lon="1.7111745"><ele>666.3333333333334</ele><time>2026-04-25T10:43:00.094Z</time></trkpt><trkpt lat="41.9912048" lon="1.7110599"><ele>666.0</ele><time>2026-04-25T10:43:01.093Z</time></trkpt><trkpt lat="41.9914233" lon="1.7109805"><ele>666.0</ele><time>2026-04-25T10:43:02.093Z</time></trkpt><trkpt lat="41.9916618" lon="1.7109306"><ele>666.0</ele><time>2026-04-25T10:43:03.095Z</time></trkpt><trkpt lat="41.9918755" lon="1.7109026"><ele>668.0</ele><time>2026-04-25T10:43:04.093Z</time></trkpt><trkpt lat="41.9920688" lon="1.7108805"><ele>670.0</ele><time>2026-04-25T10:43:05.094Z</time></trkpt><trkpt lat="41.9922421" lon="1.710904"><ele>672.0</ele><time>2026-04-25T10:43:06.093Z</time></trkpt><trkpt lat="41.9924078" lon="1.7109916"><ele>672.3333333333334</ele><time>2026-04-25T10:43:07.093Z</time></trkpt><trkpt lat="41.9925733" lon="1.7111391"><ele>672.6666666666667</ele><time>2026-04-25T10:43:08.094Z</time></trkpt><trkpt lat="41.9927495" lon="1.7113196"><ele>673.0</ele><time>2026-04-25T10:43:09.094Z</time></trkpt><trkpt lat="41.9929365" lon="1.7115106"><ele>673.0</ele><time>2026-04-25T10:43:10.094Z</time></trkpt><trkpt lat="41.9930948" lon="1.7117041"><ele>673.0</ele><time>2026-04-25T10:43:11.093Z</time></trkpt><trkpt lat="41.9932229" lon="1.7118952"><ele>673.0</ele><time>2026-04-25T10:43:12.094Z</time></trkpt><trkpt lat="41.9933615" lon="1.7120405"><ele>675.0</ele><time>2026-04-25T10:43:13.095Z</time></trkpt><trkpt lat="41.9935283" lon="1.7121394"><ele>677.0</ele><time>2026-04-25T10:43:14.093Z</time></trkpt><trkpt lat="41.9937135" lon="1.7122363"><ele>679.0</ele><time>2026-04-25T10:43:15.093Z</time></trkpt><trkpt lat="41.9938623" lon="1.712356"><ele>679.0</ele><time>2026-04-25T10:43:16.093Z</time></trkpt><trkpt lat="41.9939788" lon="1.7124793"><ele>679.0</ele><time>2026-04-25T10:43:17.095Z</time></trkpt><trkpt lat="41.9940521" lon="1.7126232"><ele>679.0</ele><time>2026-04-25T10:43:18.094Z</time></trkpt><trkpt lat="41.9940677" lon="1.712781"><ele>679.0</ele><time>2026-04-25T10:43:19.094Z</time></trkpt><trkpt lat="41.9940369" lon="1.7129578"><ele>677.5</ele><time>2026-04-25T10:43:20.094Z</time></trkpt><trkpt lat="41.9940152" lon="1.7131148"><ele>676.0</ele><time>2026-04-25T10:43:21.094Z</time></trkpt><trkpt lat="41.9940535" lon="1.7132422"><ele>674.5</ele><time>2026-04-25T10:43:22.095Z</time></trkpt><trkpt lat="41.994137" lon="1.7133369"><ele>673.0</ele><time>2026-04-25T10:43:23.095Z</time></trkpt><trkpt lat="41.9942689" lon="1.7133802"><ele>676.0</ele><time>2026-04-25T10:43:24.093Z</time></trkpt><trkpt lat="41.9944434" lon="1.7133986"><ele>679.0</ele><time>2026-04-25T10:43:25.093Z</time></trkpt><trkpt lat="41.9946209" lon="1.7134718"><ele>682.0</ele><time>2026-04-25T10:43:26.093Z</time></trkpt><trkpt lat="41.9948116" lon="1.7135969"><ele>682.0</ele><time>2026-04-25T10:43:27.093Z</time></trkpt><trkpt lat="41.9949673" lon="1.7137406"><ele>682.0</ele><time>2026-04-25T10:43:28.094Z</time></trkpt><trkpt lat="41.9950773" lon="1.713894"><ele>682.0</ele><time>2026-04-25T10:43:29.094Z</time></trkpt><trkpt lat="41.9951235" lon="1.7140601"><ele>684.25</ele><time>2026-04-25T10:43:30.094Z</time></trkpt><trkpt lat="41.9951461" lon="1.7142251"><ele>686.5</ele><time>2026-04-25T10:43:31.094Z</time></trkpt><trkpt lat="41.9952108" lon="1.714367"><ele>688.75</ele><time>2026-04-25T10:43:32.094Z</time></trkpt><trkpt lat="41.9953261" lon="1.7144612"><ele>691.0</ele><time>2026-04-25T10:43:33.093Z</time></trkpt><trkpt lat="41.9954863" lon="1.7144992"><ele>686.6666666666667</ele><time>2026-04-25T10:43:34.094Z</time></trkpt><trkpt lat="41.9956703" lon="1.7144623"><ele>682.3333333333334</ele><time>2026-04-25T10:43:35.095Z</time></trkpt><trkpt lat="41.9958714" lon="1.7143583"><ele>678.0</ele><time>2026-04-25T10:43:36.093Z</time></trkpt><trkpt lat="41.996081" lon="1.7142141"><ele>678.0</ele><time>2026-04-25T10:43:37.094Z</time></trkpt><trkpt lat="41.9963067" lon="1.7140604"><ele>678.0</ele><time>2026-04-25T10:43:38.095Z</time></trkpt><trkpt lat="41.9965477" lon="1.7139281"><ele>675.0</ele><time>2026-04-25T10:43:39.093Z</time></trkpt><trkpt lat="41.9967725" lon="1.7138008"><ele>672.0</ele><time>2026-04-25T10:43:40.093Z</time></trkpt><trkpt lat="41.9969761" lon="1.7136526"><ele>681.6666666666666</ele><time>2026-04-25T10:43:41.095Z</time></trkpt><trkpt lat="41.9971625" lon="1.7135126"><ele>691.3333333333333</ele><time>2026-04-25T10:43:42.094Z</time></trkpt><trkpt lat="41.9973483" lon="1.7134088"><ele>701.0</ele><time>2026-04-25T10:43:43.095Z</time></trkpt><trkpt lat="41.997564" lon="1.7133521"><ele>701.0</ele><time>2026-04-25T10:43:44.094Z</time></trkpt><trkpt lat="41.9977916" lon="1.7133202"><ele>701.0</ele><time>2026-04-25T10:43:45.093Z</time></trkpt><trkpt lat="41.9980331" lon="1.7132978"><ele>701.0</ele><time>2026-04-25T10:43:46.094Z</time></trkpt><trkpt lat="41.9982812" lon="1.7132999"><ele>701.0</ele><time>2026-04-25T10:43:47.094Z</time></trkpt><trkpt lat="41.9984972" lon="1.7132827"><ele>703.0</ele><time>2026-04-25T10:43:48.094Z</time></trkpt><trkpt lat="41.9986987" lon="1.7132581"><ele>705.0</ele><time>2026-04-25T10:43:49.093Z</time></trkpt><trkpt lat="41.9988684" lon="1.7132697"><ele>707.0</ele><time>2026-04-25T10:43:50.094Z</time></trkpt><trkpt lat="41.9990232" lon="1.7133472"><ele>708.6666666666666</ele><time>2026-04-25T10:43:51.094Z</time></trkpt><trkpt lat="41.9991919" lon="1.7134581"><ele>710.3333333333334</ele><time>2026-04-25T10:43:52.094Z</time></trkpt><trkpt lat="41.9993674" lon="1.7135571"><ele>712.0</ele><time>2026-04-25T10:43:53.095Z</time></trkpt><trkpt lat="41.9995107" lon="1.7136646"><ele>712.0</ele><time>2026-04-25T10:43:54.095Z</time></trkpt><trkpt lat="41.9996476" lon="1.7138477"><ele>712.0</ele><time>2026-04-25T10:43:55.094Z</time></trkpt><trkpt lat="41.9997794" lon="1.7140453"><ele>712.0</ele><time>2026-04-25T10:43:56.094Z</time></trkpt><trkpt lat="41.9998853" lon="1.7141997"><ele>712.0</ele><time>2026-04-25T10:43:57.094Z</time></trkpt><trkpt lat="41.9999818" lon="1.7143031"><ele>712.0</ele><time>2026-04-25T10:43:58.094Z</time></trkpt><trkpt lat="42.0000831" lon="1.7143565"><ele>712.0</ele><time>2026-04-25T10:43:59.094Z</time></trkpt><trkpt lat="42.0001884" lon="1.7143431"><ele>712.0</ele><time>2026-04-25T10:44:00.094Z</time></trkpt><trkpt lat="42.0002864" lon="1.7142637"><ele>712.0</ele><time>2026-04-25T10:44:01.093Z</time></trkpt><trkpt lat="42.0003787" lon="1.7141078"><ele>712.0</ele><time>2026-04-25T10:44:02.094Z</time></trkpt><trkpt lat="42.0004843" lon="1.7139327"><ele>712.0</ele><time>2026-04-25T10:44:03.094Z</time></trkpt><trkpt lat="42.0006262" lon="1.7137851"><ele>712.0</ele><time>2026-04-25T10:44:04.093Z</time></trkpt><trkpt lat="42.0007775" lon="1.7136376"><ele>712.0</ele><time>2026-04-25T10:44:05.094Z</time></trkpt><trkpt lat="42.000916" lon="1.7134385"><ele>712.0</ele><time>2026-04-25T10:44:06.094Z</time></trkpt><trkpt lat="42.0010673" lon="1.7132394"><ele>714.6666666666667</ele><time>2026-04-25T10:44:07.093Z</time></trkpt><trkpt lat="42.001238" lon="1.7130753"><ele>717.3333333333334</ele><time>2026-04-25T10:44:08.093Z</time></trkpt><trkpt lat="42.0014241" lon="1.7129309"><ele>720.0</ele><time>2026-04-25T10:44:09.094Z</time></trkpt><trkpt lat="42.0016312" lon="1.7127982"><ele>724.5</ele><time>2026-04-25T10:44:10.094Z</time></trkpt><trkpt lat="42.0018525" lon="1.7126749"><ele>729.0</ele><time>2026-04-25T10:44:11.093Z</time></trkpt><trkpt lat="42.0020574" lon="1.7125581"><ele>729.0</ele><time>2026-04-25T10:44:12.094Z</time></trkpt><trkpt lat="42.0022472" lon="1.7124612"><ele>729.0</ele><time>2026-04-25T10:44:13.094Z</time></trkpt><trkpt lat="42.0024275" lon="1.712409"><ele>729.0</ele><time>2026-04-25T10:44:14.093Z</time></trkpt><trkpt lat="42.0026185" lon="1.7124038"><ele>728.0</ele><time>2026-04-25T10:44:15.093Z</time></trkpt><trkpt lat="42.0028178" lon="1.7124313"><ele>727.0</ele><time>2026-04-25T10:44:16.094Z</time></trkpt><trkpt lat="42.003018" lon="1.7124658"><ele>726.0</ele><time>2026-04-25T10:44:17.094Z</time></trkpt><trkpt lat="42.0031974" lon="1.71249"><ele>727.0</ele><time>2026-04-25T10:44:18.095Z</time></trkpt><trkpt lat="42.0033635" lon="1.7125128"><ele>728.0</ele><time>2026-04-25T10:44:19.093Z</time></trkpt><trkpt lat="42.0035214" lon="1.7125537"><ele>729.0</ele><time>2026-04-25T10:44:20.095Z</time></trkpt><trkpt lat="42.0036631" lon="1.7126425"><ele>722.0</ele><time>2026-04-25T10:44:21.095Z</time></trkpt><trkpt lat="42.0037938" lon="1.712772"><ele>715.0</ele><time>2026-04-25T10:44:22.094Z</time></trkpt><trkpt lat="42.0039152" lon="1.712934"><ele>708.0</ele><time>2026-04-25T10:44:23.093Z</time></trkpt><trkpt lat="42.0040347" lon="1.7130573"><ele>711.25</ele><time>2026-04-25T10:44:24.095Z</time></trkpt><trkpt lat="42.0041648" lon="1.7131417"><ele>714.5</ele><time>2026-04-25T10:44:25.094Z</time></trkpt><trkpt lat="42.0042879" lon="1.7132131"><ele>717.75</ele><time>2026-04-25T10:44:26.095Z</time></trkpt><trkpt lat="42.0043747" lon="1.713333"><ele>721.0</ele><time>2026-04-25T10:44:27.093Z</time></trkpt><trkpt lat="42.0044258" lon="1.7134938"><ele>715.5</ele><time>2026-04-25T10:44:28.095Z</time></trkpt><trkpt lat="42.0044644" lon="1.7136726"><ele>710.0</ele><time>2026-04-25T10:44:29.094Z</time></trkpt><trkpt lat="42.0045274" lon="1.7138114"><ele>704.5</ele><time>2026-04-25T10:44:30.094Z</time></trkpt><trkpt lat="42.0046375" lon="1.7139394"><ele>699.0</ele><time>2026-04-25T10:44:31.094Z</time></trkpt><trkpt lat="42.0047762" lon="1.7140405"><ele>699.0</ele><time>2026-04-25T10:44:32.093Z</time></trkpt><trkpt lat="42.0049227" lon="1.7140883"><ele>699.0</ele><time>2026-04-25T10:44:33.095Z</time></trkpt><trkpt lat="42.0050569" lon="1.7141112"><ele>699.0</ele><time>2026-04-25T10:44:34.094Z</time></trkpt><trkpt lat="42.0051724" lon="1.7141704"><ele>699.0</ele><time>2026-04-25T10:44:35.093Z</time></trkpt><trkpt lat="42.0052685" lon="1.7142632"><ele>698.25</ele><time>2026-04-25T10:44:36.094Z</time></trkpt><trkpt lat="42.0053434" lon="1.7143976"><ele>697.5</ele><time>2026-04-25T10:44:37.093Z</time></trkpt><trkpt lat="42.0054096" lon="1.7145809"><ele>696.75</ele><time>2026-04-25T10:44:38.094Z</time></trkpt><trkpt lat="42.0054914" lon="1.7147841"><ele>696.0</ele><time>2026-04-25T10:44:39.093Z</time></trkpt><trkpt lat="42.0055819" lon="1.715003"><ele>693.3333333333334</ele><time>2026-04-25T10:44:40.093Z</time></trkpt><trkpt lat="42.0056765" lon="1.715246"><ele>690.6666666666667</ele><time>2026-04-25T10:44:41.094Z</time></trkpt><trkpt lat="42.005776" lon="1.7155026"><ele>688.0</ele><time>2026-04-25T10:44:42.094Z</time></trkpt><trkpt lat="42.0058682" lon="1.7157363"><ele>692.3333333333334</ele><time>2026-04-25T10:44:43.095Z</time></trkpt><trkpt lat="42.0059516" lon="1.7159369"><ele>696.6666666666666</ele><time>2026-04-25T10:44:44.094Z</time></trkpt><trkpt lat="42.0060256" lon="1.7161082"><ele>701.0</ele><time>2026-04-25T10:44:45.095Z</time></trkpt><trkpt lat="42.0061074" lon="1.716248"><ele>701.0</ele><time>2026-04-25T10:44:46.093Z</time></trkpt><trkpt lat="42.0062184" lon="1.7163265"><ele>701.0</ele><time>2026-04-25T10:44:47.094Z</time></trkpt><trkpt lat="42.0063722" lon="1.7163772"><ele>701.0</ele><time>2026-04-25T10:44:48.094Z</time></trkpt><trkpt lat="42.0065472" lon="1.7164203"><ele>703.6666666666666</ele><time>2026-04-25T10:44:49.093Z</time></trkpt><trkpt lat="42.0067351" lon="1.716478"><ele>706.3333333333334</ele><time>2026-04-25T10:44:50.094Z</time></trkpt><trkpt lat="42.0068938" lon="1.7165307"><ele>709.0</ele><time>2026-04-25T10:44:51.093Z</time></trkpt><trkpt lat="42.0070234" lon="1.7165603"><ele>709.0</ele><time>2026-04-25T10:44:52.095Z</time></trkpt><trkpt lat="42.0071426" lon="1.7165466"><ele>709.0</ele><time>2026-04-25T10:44:53.094Z</time></trkpt><trkpt lat="42.0072614" lon="1.7164715"><ele>709.0</ele><time>2026-04-25T10:44:54.094Z</time></trkpt><trkpt lat="42.0073987" lon="1.7163498"><ele>709.0</ele><time>2026-04-25T10:44:55.093Z</time></trkpt><trkpt lat="42.0075496" lon="1.7162193"><ele>708.3333333333334</ele><time>2026-04-25T10:44:56.095Z</time></trkpt><trkpt lat="42.0077095" lon="1.716083"><ele>707.6666666666666</ele><time>2026-04-25T10:44:57.094Z</time></trkpt><trkpt lat="42.007857" lon="1.7159602"><ele>707.0</ele><time>2026-04-25T10:44:58.093Z</time></trkpt><trkpt lat="42.0080149" lon="1.7158555"><ele>708.0</ele><time>2026-04-25T10:44:59.094Z</time></trkpt><trkpt lat="42.0081673" lon="1.7157797"><ele>709.0</ele><time>2026-04-25T10:45:00.094Z</time></trkpt><trkpt lat="42.008304" lon="1.7157302"><ele>710.0</ele><time>2026-04-25T10:45:01.094Z</time></trkpt><trkpt lat="42.0084363" lon="1.715723"><ele>711.0</ele><time>2026-04-25T10:45:02.094Z</time></trkpt><trkpt lat="42.0085692" lon="1.7157775"><ele>711.0</ele><time>2026-04-25T10:45:03.094Z</time></trkpt><trkpt lat="42.0087" lon="1.7158876"><ele>711.0</ele><time>2026-04-25T10:45:04.094Z</time></trkpt><trkpt lat="42.00884" lon="1.7160406"><ele>711.0</ele><time>2026-04-25T10:45:05.095Z</time></trkpt><trkpt lat="42.0089936" lon="1.7162197"><ele>707.6666666666666</ele><time>2026-04-25T10:45:06.093Z</time></trkpt><trkpt lat="42.009162" lon="1.7164136"><ele>704.3333333333333</ele><time>2026-04-25T10:45:07.094Z</time></trkpt><trkpt lat="42.0093345" lon="1.7166121"><ele>701.0</ele><time>2026-04-25T10:45:08.094Z</time></trkpt><trkpt lat="42.0094873" lon="1.7167882"><ele>701.6666666666666</ele><time>2026-04-25T10:45:09.094Z</time></trkpt><trkpt lat="42.0096348" lon="1.7169411"><ele>702.3333333333334</ele><time>2026-04-25T10:45:10.094Z</time></trkpt><trkpt lat="42.0097924" lon="1.7170413"><ele>703.0</ele><time>2026-04-25T10:45:11.094Z</time></trkpt><trkpt lat="42.0099747" lon="1.7171111"><ele>703.0</ele><time>2026-04-25T10:45:12.094Z</time></trkpt><trkpt lat="42.0101662" lon="1.7171748"><ele>703.0</ele><time>2026-04-25T10:45:13.094Z</time></trkpt><trkpt lat="42.0103571" lon="1.7172506"><ele>703.0</ele><time>2026-04-25T10:45:14.093Z</time></trkpt><trkpt lat="42.010551" lon="1.7173198"><ele>703.0</ele><time>2026-04-25T10:45:15.094Z</time></trkpt><trkpt lat="42.010758" lon="1.7173721"><ele>703.0</ele><time>2026-04-25T10:45:16.094Z</time></trkpt><trkpt lat="42.0109779" lon="1.7174117"><ele>703.0</ele><time>2026-04-25T10:45:17.094Z</time></trkpt><trkpt lat="42.0111999" lon="1.7174444"><ele>705.0</ele><time>2026-04-25T10:45:18.094Z</time></trkpt><trkpt lat="42.0114101" lon="1.7174816"><ele>707.0</ele><time>2026-04-25T10:45:19.095Z</time></trkpt><trkpt lat="42.0116083" lon="1.7175203"><ele>709.0</ele><time>2026-04-25T10:45:20.094Z</time></trkpt><trkpt lat="42.0117911" lon="1.7175716"><ele>709.0</ele><time>2026-04-25T10:45:21.095Z</time></trkpt><trkpt lat="42.011956" lon="1.717643"><ele>709.0</ele><time>2026-04-25T10:45:22.095Z</time></trkpt><trkpt lat="42.0121135" lon="1.7177198"><ele>709.0</ele><time>2026-04-25T10:45:23.094Z</time></trkpt><trkpt lat="42.0122699" lon="1.7177956"><ele>707.6666666666667</ele><time>2026-04-25T10:45:24.094Z</time></trkpt><trkpt lat="42.0124273" lon="1.7178727"><ele>706.3333333333334</ele><time>2026-04-25T10:45:25.093Z</time></trkpt><trkpt lat="42.0125823" lon="1.7179452"><ele>705.0</ele><time>2026-04-25T10:45:26.094Z</time></trkpt><trkpt lat="42.0127413" lon="1.718024"><ele>704.6666666666666</ele><time>2026-04-25T10:45:27.094Z</time></trkpt><trkpt lat="42.0128997" lon="1.7181062"><ele>704.3333333333333</ele><time>2026-04-25T10:45:28.093Z</time></trkpt><trkpt lat="42.0130606" lon="1.7181873"><ele>704.0</ele><time>2026-04-25T10:45:29.095Z</time></trkpt><trkpt lat="42.0132255" lon="1.7182689"><ele>705.0</ele><time>2026-04-25T10:45:30.095Z</time></trkpt><trkpt lat="42.0133912" lon="1.7183526"><ele>706.0</ele><time>2026-04-25T10:45:31.094Z</time></trkpt><trkpt lat="42.0135559" lon="1.7184363"><ele>707.0</ele><time>2026-04-25T10:45:32.094Z</time></trkpt><trkpt lat="42.0137177" lon="1.7185166"><ele>706.3333333333333</ele><time>2026-04-25T10:45:33.094Z</time></trkpt><trkpt lat="42.0138784" lon="1.7185958"><ele>705.6666666666666</ele><time>2026-04-25T10:45:34.094Z</time></trkpt><trkpt lat="42.0140342" lon="1.7186727"><ele>705.0</ele><time>2026-04-25T10:45:35.094Z</time></trkpt><trkpt lat="42.0141838" lon="1.7187487"><ele>706.6666666666666</ele><time>2026-04-25T10:45:36.093Z</time></trkpt><trkpt lat="42.0143285" lon="1.7188229"><ele>708.3333333333333</ele><time>2026-04-25T10:45:37.094Z</time></trkpt><trkpt lat="42.0144731" lon="1.7188988"><ele>710.0</ele><time>2026-04-25T10:45:38.094Z</time></trkpt><trkpt lat="42.0146146" lon="1.7189671"><ele>710.0</ele><time>2026-04-25T10:45:39.093Z</time></trkpt><trkpt lat="42.0147524" lon="1.7190347"><ele>710.0</ele><time>2026-04-25T10:45:40.094Z</time></trkpt><trkpt lat="42.0148884" lon="1.7191026"><ele>710.0</ele><time>2026-04-25T10:45:41.095Z</time></trkpt><trkpt lat="42.0150231" lon="1.7191748"><ele>710.0</ele><time>2026-04-25T10:45:42.094Z</time></trkpt><trkpt lat="42.015153" lon="1.7192554"><ele>710.25</ele><time>2026-04-25T10:45:43.093Z</time></trkpt><trkpt lat="42.0152783" lon="1.7193511"><ele>710.5</ele><time>2026-04-25T10:45:44.094Z</time></trkpt><trkpt lat="42.0153984" lon="1.7194615"><ele>710.75</ele><time>2026-04-25T10:45:45.094Z</time></trkpt><trkpt lat="42.015508" lon="1.7195842"><ele>711.0</ele><time>2026-04-25T10:45:46.094Z</time></trkpt><trkpt lat="42.0156166" lon="1.7197101"><ele>711.0</ele><time>2026-04-25T10:45:47.093Z</time></trkpt><trkpt lat="42.0157274" lon="1.7198364"><ele>711.0</ele><time>2026-04-25T10:45:48.093Z</time></trkpt><trkpt lat="42.015836" lon="1.7199635"><ele>711.0</ele><time>2026-04-25T10:45:49.094Z</time></trkpt><trkpt lat="42.0159435" lon="1.7200895"><ele>711.0</ele><time>2026-04-25T10:45:50.093Z</time></trkpt><trkpt lat="42.0160514" lon="1.7202086"><ele>711.25</ele><time>2026-04-25T10:45:51.094Z</time></trkpt><trkpt lat="42.0161685" lon="1.7203105"><ele>711.5</ele><time>2026-04-25T10:45:52.093Z</time></trkpt><trkpt lat="42.0162972" lon="1.7204079"><ele>711.75</ele><time>2026-04-25T10:45:53.094Z</time></trkpt><trkpt lat="42.0164222" lon="1.7205216"><ele>712.0</ele><time>2026-04-25T10:45:54.094Z</time></trkpt><trkpt lat="42.0165412" lon="1.7206508"><ele>712.3333333333334</ele><time>2026-04-25T10:45:55.095Z</time></trkpt><trkpt lat="42.0166638" lon="1.7207844"><ele>712.6666666666666</ele><time>2026-04-25T10:45:56.094Z</time></trkpt><trkpt lat="42.016792" lon="1.7209203"><ele>713.0</ele><time>2026-04-25T10:45:57.095Z</time></trkpt><trkpt lat="42.0169195" lon="1.721059"><ele>712.5</ele><time>2026-04-25T10:45:58.093Z</time></trkpt><trkpt lat="42.0170416" lon="1.7211876"><ele>712.0</ele><time>2026-04-25T10:45:59.094Z</time></trkpt><trkpt lat="42.0171576" lon="1.7213095"><ele>711.5</ele><time>2026-04-25T10:46:00.094Z</time></trkpt><trkpt lat="42.0172686" lon="1.7214231"><ele>711.0</ele><time>2026-04-25T10:46:01.095Z</time></trkpt><trkpt lat="42.0173773" lon="1.7215289"><ele>711.0</ele><time>2026-04-25T10:46:02.095Z</time></trkpt><trkpt lat="42.0174845" lon="1.7216245"><ele>711.0</ele><time>2026-04-25T10:46:03.093Z</time></trkpt><trkpt lat="42.0175891" lon="1.7217154"><ele>711.0</ele><time>2026-04-25T10:46:04.094Z</time></trkpt><trkpt lat="42.0176914" lon="1.7218044"><ele>711.0</ele><time>2026-04-25T10:46:05.093Z</time></trkpt><trkpt lat="42.017794" lon="1.7218882"><ele>711.5999999999999</ele><time>2026-04-25T10:46:06.094Z</time></trkpt><trkpt lat="42.0178919" lon="1.7219649"><ele>712.2</ele><time>2026-04-25T10:46:07.094Z</time></trkpt><trkpt lat="42.0179867" lon="1.7220336"><ele>712.8</ele><time>2026-04-25T10:46:08.095Z</time></trkpt><trkpt lat="42.0180762" lon="1.7220929"><ele>713.4000000000001</ele><time>2026-04-25T10:46:09.093Z</time></trkpt><trkpt lat="42.0181568" lon="1.7221462"><ele>714.0</ele><time>2026-04-25T10:46:10.093Z</time></trkpt><trkpt lat="42.0182299" lon="1.7221961"><ele>714.0</ele><time>2026-04-25T10:46:11.093Z</time></trkpt><trkpt lat="42.0182954" lon="1.7222444"><ele>714.0</ele><time>2026-04-25T10:46:12.093Z</time></trkpt><trkpt lat="42.0183515" lon="1.7222974"><ele>714.0</ele><time>2026-04-25T10:46:13.094Z</time></trkpt><trkpt lat="42.0183985" lon="1.7223572"><ele>714.0</ele><time>2026-04-25T10:46:14.094Z</time></trkpt><trkpt lat="42.0184539" lon="1.7225004"><ele>714.0</ele><time>2026-04-25T10:46:16.094Z</time></trkpt><trkpt lat="42.0184791" lon="1.7226495"><ele>714.0</ele><time>2026-04-25T10:46:18.093Z</time></trkpt><trkpt lat="42.018465" lon="1.7227918"><ele>714.6</ele><time>2026-04-25T10:46:20.094Z</time></trkpt><trkpt lat="42.0184238" lon="1.7229338"><ele>715.2</ele><time>2026-04-25T10:46:22.094Z</time></trkpt><trkpt lat="42.0184035" lon="1.7230826"><ele>715.8000000000001</ele><time>2026-04-25T10:46:24.094Z</time></trkpt><trkpt lat="42.0184016" lon="1.7232228"><ele>716.4000000000001</ele><time>2026-04-25T10:46:26.095Z</time></trkpt><trkpt lat="42.018414" lon="1.7233102"><ele>717.0</ele><time>2026-04-25T10:46:29.093Z</time></trkpt><trkpt lat="42.0184769" lon="1.7234242"><ele>717.0</ele><time>2026-04-25T10:48:58.094Z</time></trkpt><trkpt lat="42.0185304" lon="1.7235486"><ele>717.0</ele><time>2026-04-25T10:49:00.093Z</time></trkpt><trkpt lat="42.018565" lon="1.7236265"><ele>717.0</ele><time>2026-04-25T10:49:01.093Z</time></trkpt><trkpt lat="42.0186083" lon="1.7237156"><ele>717.0</ele><time>2026-04-25T10:49:02.093Z</time></trkpt><trkpt lat="42.0186549" lon="1.7238179"><ele>717.0</ele><time>2026-04-25T10:49:03.093Z</time></trkpt><trkpt lat="42.0186988" lon="1.7239281"><ele>717.0</ele><time>2026-04-25T10:49:04.094Z</time></trkpt><trkpt lat="42.0187446" lon="1.7240563"><ele>718.75</ele><time>2026-04-25T10:49:05.093Z</time></trkpt><trkpt lat="42.0187867" lon="1.7241994"><ele>720.5</ele><time>2026-04-25T10:49:06.094Z</time></trkpt><trkpt lat="42.0188248" lon="1.7243551"><ele>722.25</ele><time>2026-04-25T10:49:07.094Z</time></trkpt><trkpt lat="42.0188581" lon="1.7245166"><ele>724.0</ele><time>2026-04-25T10:49:08.094Z</time></trkpt><trkpt lat="42.0188983" lon="1.7246913"><ele>725.3333333333334</ele><time>2026-04-25T10:49:09.094Z</time></trkpt><trkpt lat="42.0189403" lon="1.7248768"><ele>726.6666666666666</ele><time>2026-04-25T10:49:10.094Z</time></trkpt><trkpt lat="42.0189853" lon="1.7250738"><ele>728.0</ele><time>2026-04-25T10:49:11.094Z</time></trkpt><trkpt lat="42.0190293" lon="1.7252769"><ele>728.6666666666666</ele><time>2026-04-25T10:49:12.094Z</time></trkpt><trkpt lat="42.0190713" lon="1.7254932"><ele>729.3333333333334</ele><time>2026-04-25T10:49:13.094Z</time></trkpt><trkpt lat="42.0191151" lon="1.7257194"><ele>730.0</ele><time>2026-04-25T10:49:14.094Z</time></trkpt><trkpt lat="42.0191608" lon="1.7259497"><ele>729.3333333333334</ele><time>2026-04-25T10:49:15.094Z</time></trkpt><trkpt lat="42.0192061" lon="1.7261843"><ele>728.6666666666666</ele><time>2026-04-25T10:49:16.093Z</time></trkpt><trkpt lat="42.0192486" lon="1.7264306"><ele>728.0</ele><time>2026-04-25T10:49:17.094Z</time></trkpt><trkpt lat="42.01929" lon="1.7266787"><ele>729.0</ele><time>2026-04-25T10:49:18.094Z</time></trkpt><trkpt lat="42.0193426" lon="1.7269196"><ele>730.0</ele><time>2026-04-25T10:49:19.094Z</time></trkpt><trkpt lat="42.0194152" lon="1.7271568"><ele>731.0</ele><time>2026-04-25T10:49:20.094Z</time></trkpt><trkpt lat="42.0195095" lon="1.7273898"><ele>731.0</ele><time>2026-04-25T10:49:21.094Z</time></trkpt><trkpt lat="42.0196247" lon="1.7276221"><ele>731.0</ele><time>2026-04-25T10:49:22.093Z</time></trkpt><trkpt lat="42.0197455" lon="1.7278666"><ele>731.0</ele><time>2026-04-25T10:49:23.094Z</time></trkpt><trkpt lat="42.0198689" lon="1.7281175"><ele>732.0</ele><time>2026-04-25T10:49:24.094Z</time></trkpt><trkpt lat="42.0199833" lon="1.7283419"><ele>733.0</ele><time>2026-04-25T10:49:25.093Z</time></trkpt><trkpt lat="42.0200832" lon="1.7285467"><ele>734.0</ele><time>2026-04-25T10:49:26.093Z</time></trkpt><trkpt lat="42.0201517" lon="1.7287379"><ele>736.0</ele><time>2026-04-25T10:49:27.094Z</time></trkpt><trkpt lat="42.020184" lon="1.7289286"><ele>738.0</ele><time>2026-04-25T10:49:28.095Z</time></trkpt><trkpt lat="42.0201706" lon="1.7291179"><ele>740.0</ele><time>2026-04-25T10:49:29.095Z</time></trkpt><trkpt lat="42.0201116" lon="1.7293225"><ele>740.0</ele><time>2026-04-25T10:49:30.094Z</time></trkpt><trkpt lat="42.0200221" lon="1.7295489"><ele>740.0</ele><time>2026-04-25T10:49:31.094Z</time></trkpt><trkpt lat="42.0199225" lon="1.7297814"><ele>740.0</ele><time>2026-04-25T10:49:32.094Z</time></trkpt><trkpt lat="42.0198189" lon="1.7300231"><ele>740.6666666666666</ele><time>2026-04-25T10:49:33.093Z</time></trkpt><trkpt lat="42.0197087" lon="1.730271"><ele>741.3333333333334</ele><time>2026-04-25T10:49:34.094Z</time></trkpt><trkpt lat="42.019592" lon="1.7305227"><ele>742.0</ele><time>2026-04-25T10:49:35.095Z</time></trkpt><trkpt lat="42.019466" lon="1.7307695"><ele>742.0</ele><time>2026-04-25T10:49:36.094Z</time></trkpt><trkpt lat="42.0193277" lon="1.7310149"><ele>742.0</ele><time>2026-04-25T10:49:37.094Z</time></trkpt><trkpt lat="42.0191853" lon="1.731257"><ele>743.5</ele><time>2026-04-25T10:49:38.094Z</time></trkpt><trkpt lat="42.0190418" lon="1.7315012"><ele>745.0</ele><time>2026-04-25T10:49:39.094Z</time></trkpt><trkpt lat="42.0188948" lon="1.731746"><ele>745.6666666666667</ele><time>2026-04-25T10:49:40.094Z</time></trkpt><trkpt lat="42.0187495" lon="1.731988"><ele>746.3333333333334</ele><time>2026-04-25T10:49:41.094Z</time></trkpt><trkpt lat="42.0186144" lon="1.7322128"><ele>747.0</ele><time>2026-04-25T10:49:42.093Z</time></trkpt><trkpt lat="42.0184877" lon="1.7324211"><ele>747.0</ele><time>2026-04-25T10:49:43.094Z</time></trkpt><trkpt lat="42.018375" lon="1.7326148"><ele>747.0</ele><time>2026-04-25T10:49:44.094Z</time></trkpt><trkpt lat="42.0182774" lon="1.7327998"><ele>747.0</ele><time>2026-04-25T10:49:45.093Z</time></trkpt><trkpt lat="42.0181994" lon="1.732986"><ele>747.5</ele><time>2026-04-25T10:49:46.094Z</time></trkpt><trkpt lat="42.0181375" lon="1.7331744"><ele>748.0</ele><time>2026-04-25T10:49:47.094Z</time></trkpt><trkpt lat="42.018083" lon="1.7333614"><ele>748.5</ele><time>2026-04-25T10:49:48.094Z</time></trkpt><trkpt lat="42.0180311" lon="1.7335466"><ele>749.0</ele><time>2026-04-25T10:49:49.094Z</time></trkpt><trkpt lat="42.0179824" lon="1.7337305"><ele>749.5</ele><time>2026-04-25T10:49:50.095Z</time></trkpt><trkpt lat="42.0179346" lon="1.7339128"><ele>750.0</ele><time>2026-04-25T10:49:51.095Z</time></trkpt><trkpt lat="42.0178868" lon="1.7340943"><ele>750.5</ele><time>2026-04-25T10:49:52.095Z</time></trkpt><trkpt lat="42.0178413" lon="1.7342722"><ele>751.0</ele><time>2026-04-25T10:49:53.093Z</time></trkpt><trkpt lat="42.0178" lon="1.7344384"><ele>751.1999999999999</ele><time>2026-04-25T10:49:54.094Z</time></trkpt><trkpt lat="42.017766" lon="1.7345766"><ele>751.4</ele><time>2026-04-25T10:49:55.095Z</time></trkpt><trkpt lat="42.0177364" lon="1.734691"><ele>751.6</ele><time>2026-04-25T10:49:56.093Z</time></trkpt><trkpt lat="42.0177092" lon="1.7347957"><ele>751.8</ele><time>2026-04-25T10:49:57.093Z</time></trkpt><trkpt lat="42.0176841" lon="1.7348924"><ele>752.0</ele><time>2026-04-25T10:49:58.094Z</time></trkpt><trkpt lat="42.0176458" lon="1.7350339"><ele>752.0</ele><time>2026-04-25T10:50:00.094Z</time></trkpt><trkpt lat="42.0176222" lon="1.735176"><ele>752.0</ele><time>2026-04-25T10:50:02.094Z</time></trkpt><trkpt lat="42.017562" lon="1.7353151"><ele>752.0</ele><time>2026-04-25T10:50:04.094Z</time></trkpt><trkpt lat="42.0175079" lon="1.735369"><ele>752.0</ele><time>2026-04-25T10:50:05.093Z</time></trkpt><trkpt lat="42.0174488" lon="1.7354194"><ele>752.0</ele><time>2026-04-25T10:50:06.094Z</time></trkpt><trkpt lat="42.0173859" lon="1.7354752"><ele>752.0</ele><time>2026-04-25T10:50:07.094Z</time></trkpt><trkpt lat="42.0173162" lon="1.7355354"><ele>751.4000000000001</ele><time>2026-04-25T10:50:08.093Z</time></trkpt><trkpt lat="42.0172385" lon="1.7355951"><ele>750.8000000000001</ele><time>2026-04-25T10:50:09.094Z</time></trkpt><trkpt lat="42.0171575" lon="1.7356647"><ele>750.2</ele><time>2026-04-25T10:50:10.094Z</time></trkpt><trkpt lat="42.0170707" lon="1.7357429"><ele>749.6</ele><time>2026-04-25T10:50:11.093Z</time></trkpt><trkpt lat="42.0169807" lon="1.7358236"><ele>749.0</ele><time>2026-04-25T10:50:12.094Z</time></trkpt><trkpt lat="42.016875" lon="1.7359194"><ele>749.0</ele><time>2026-04-25T10:50:13.094Z</time></trkpt><trkpt lat="42.0167612" lon="1.7360223"><ele>749.0</ele><time>2026-04-25T10:50:14.094Z</time></trkpt><trkpt lat="42.0166393" lon="1.7361303"><ele>749.0</ele><time>2026-04-25T10:50:15.095Z</time></trkpt><trkpt lat="42.0165126" lon="1.7362402"><ele>749.0</ele><time>2026-04-25T10:50:16.094Z</time></trkpt><trkpt lat="42.0163941" lon="1.7363448"><ele>747.5</ele><time>2026-04-25T10:50:17.094Z</time></trkpt><trkpt lat="42.0162885" lon="1.7364342"><ele>746.0</ele><time>2026-04-25T10:50:18.094Z</time></trkpt><trkpt lat="42.0161963" lon="1.7365151"><ele>744.5</ele><time>2026-04-25T10:50:19.094Z</time></trkpt><trkpt lat="42.0160991" lon="1.7366054"><ele>743.0</ele><time>2026-04-25T10:50:20.093Z</time></trkpt><trkpt lat="42.0159915" lon="1.7367047"><ele>743.0</ele><time>2026-04-25T10:50:21.094Z</time></trkpt><trkpt lat="42.0158715" lon="1.7368098"><ele>743.0</ele><time>2026-04-25T10:50:22.093Z</time></trkpt><trkpt lat="42.0157413" lon="1.7369167"><ele>743.0</ele><time>2026-04-25T10:50:23.094Z</time></trkpt><trkpt lat="42.0156052" lon="1.7370257"><ele>742.3333333333333</ele><time>2026-04-25T10:50:24.095Z</time></trkpt><trkpt lat="42.0154739" lon="1.7371329"><ele>741.6666666666666</ele><time>2026-04-25T10:50:25.093Z</time></trkpt><trkpt lat="42.015346" lon="1.7372303"><ele>741.0</ele><time>2026-04-25T10:50:26.094Z</time></trkpt><trkpt lat="42.0152091" lon="1.7373222"><ele>741.0</ele><time>2026-04-25T10:50:27.093Z</time></trkpt><trkpt lat="42.0150535" lon="1.7374117"><ele>741.0</ele><time>2026-04-25T10:50:28.094Z</time></trkpt><trkpt lat="42.0148904" lon="1.7375053"><ele>741.0</ele><time>2026-04-25T10:50:29.094Z</time></trkpt><trkpt lat="42.0147226" lon="1.7376018"><ele>739.6666666666666</ele><time>2026-04-25T10:50:30.093Z</time></trkpt><trkpt lat="42.0145674" lon="1.7376943"><ele>738.3333333333333</ele><time>2026-04-25T10:50:31.093Z</time></trkpt><trkpt lat="42.0144176" lon="1.7377833"><ele>737.0</ele><time>2026-04-25T10:50:32.094Z</time></trkpt><trkpt lat="42.0142718" lon="1.7378638"><ele>735.6666666666666</ele><time>2026-04-25T10:50:33.095Z</time></trkpt><trkpt lat="42.0141197" lon="1.7379395"><ele>734.3333333333334</ele><time>2026-04-25T10:50:34.093Z</time></trkpt><trkpt lat="42.0139591" lon="1.7380071"><ele>733.0</ele><time>2026-04-25T10:50:35.093Z</time></trkpt><trkpt lat="42.0137876" lon="1.7380613"><ele>733.0</ele><time>2026-04-25T10:50:36.094Z</time></trkpt><trkpt lat="42.0136054" lon="1.7381163"><ele>733.0</ele><time>2026-04-25T10:50:37.094Z</time></trkpt><trkpt lat="42.0134223" lon="1.7381787"><ele>733.0</ele><time>2026-04-25T10:50:38.094Z</time></trkpt><trkpt lat="42.0132568" lon="1.7382552"><ele>731.0</ele><time>2026-04-25T10:50:39.094Z</time></trkpt><trkpt lat="42.0131032" lon="1.7383626"><ele>729.0</ele><time>2026-04-25T10:50:40.094Z</time></trkpt><trkpt lat="42.0129533" lon="1.7385007"><ele>727.0</ele><time>2026-04-25T10:50:41.093Z</time></trkpt><trkpt lat="42.0128068" lon="1.738618"><ele>727.0</ele><time>2026-04-25T10:50:42.093Z</time></trkpt><trkpt lat="42.0126578" lon="1.7387124"><ele>727.0</ele><time>2026-04-25T10:50:43.094Z</time></trkpt><trkpt lat="42.0125319" lon="1.7387966"><ele>727.0</ele><time>2026-04-25T10:50:44.094Z</time></trkpt><trkpt lat="42.0124285" lon="1.738867"><ele>727.0</ele><time>2026-04-25T10:50:45.094Z</time></trkpt><trkpt lat="42.0123265" lon="1.7389427"><ele>726.0</ele><time>2026-04-25T10:50:46.094Z</time></trkpt><trkpt lat="42.012234" lon="1.7390363"><ele>725.0</ele><time>2026-04-25T10:50:47.095Z</time></trkpt><trkpt lat="42.0121419" lon="1.7391554"><ele>724.0</ele><time>2026-04-25T10:50:48.094Z</time></trkpt><trkpt lat="42.0120545" lon="1.7392664"><ele>723.0</ele><time>2026-04-25T10:50:49.094Z</time></trkpt><trkpt lat="42.0119733" lon="1.7393963"><ele>723.0</ele><time>2026-04-25T10:50:50.093Z</time></trkpt><trkpt lat="42.0119318" lon="1.7395279"><ele>723.0</ele><time>2026-04-25T10:50:51.094Z</time></trkpt><trkpt lat="42.0119337" lon="1.7396797"><ele>723.0</ele><time>2026-04-25T10:50:52.094Z</time></trkpt><trkpt lat="42.0119499" lon="1.7398653"><ele>723.0</ele><time>2026-04-25T10:50:53.093Z</time></trkpt><trkpt lat="42.0119371" lon="1.7400632"><ele>723.3333333333334</ele><time>2026-04-25T10:50:54.094Z</time></trkpt><trkpt lat="42.0119058" lon="1.7402627"><ele>723.6666666666667</ele><time>2026-04-25T10:50:55.093Z</time></trkpt><trkpt lat="42.0118455" lon="1.740463"><ele>724.0</ele><time>2026-04-25T10:50:56.095Z</time></trkpt><trkpt lat="42.0117604" lon="1.740648"><ele>722.3333333333334</ele><time>2026-04-25T10:50:57.094Z</time></trkpt><trkpt lat="42.0116549" lon="1.7408108"><ele>720.6666666666666</ele><time>2026-04-25T10:50:58.094Z</time></trkpt><trkpt lat="42.0115219" lon="1.7409535"><ele>719.0</ele><time>2026-04-25T10:50:59.095Z</time></trkpt><trkpt lat="42.0113695" lon="1.7410843"><ele>718.0</ele><time>2026-04-25T10:51:00.094Z</time></trkpt><trkpt lat="42.0112157" lon="1.7412507"><ele>717.0</ele><time>2026-04-25T10:51:01.093Z</time></trkpt><trkpt lat="42.0110617" lon="1.7414631"><ele>716.0</ele><time>2026-04-25T10:51:02.093Z</time></trkpt><trkpt lat="42.0109028" lon="1.7416974"><ele>715.0</ele><time>2026-04-25T10:51:03.093Z</time></trkpt><trkpt lat="42.0107498" lon="1.7419253"><ele>714.0</ele><time>2026-04-25T10:51:04.093Z</time></trkpt><trkpt lat="42.0106142" lon="1.7421365"><ele>713.0</ele><time>2026-04-25T10:51:05.093Z</time></trkpt><trkpt lat="42.0105077" lon="1.7423567"><ele>713.0</ele><time>2026-04-25T10:51:06.094Z</time></trkpt><trkpt lat="42.0104231" lon="1.7426239"><ele>713.0</ele><time>2026-04-25T10:51:07.094Z</time></trkpt><trkpt lat="42.0103452" lon="1.7429122"><ele>713.0</ele><time>2026-04-25T10:51:08.094Z</time></trkpt><trkpt lat="42.0102706" lon="1.7431778"><ele>713.0</ele><time>2026-04-25T10:51:09.093Z</time></trkpt><trkpt lat="42.0101937" lon="1.7434062"><ele>713.0</ele><time>2026-04-25T10:51:10.093Z</time></trkpt><trkpt lat="42.0101195" lon="1.7436225"><ele>713.0</ele><time>2026-04-25T10:51:11.094Z</time></trkpt><trkpt lat="42.0100378" lon="1.7438067"><ele>713.0</ele><time>2026-04-25T10:51:12.093Z</time></trkpt><trkpt lat="42.0099274" lon="1.7439638"><ele>713.0</ele><time>2026-04-25T10:51:13.094Z</time></trkpt><trkpt lat="42.0097986" lon="1.7441012"><ele>713.0</ele><time>2026-04-25T10:51:14.093Z</time></trkpt><trkpt lat="42.0096979" lon="1.7442487"><ele>712.6666666666666</ele><time>2026-04-25T10:51:15.095Z</time></trkpt><trkpt lat="42.0096274" lon="1.7444546"><ele>712.3333333333334</ele><time>2026-04-25T10:51:16.094Z</time></trkpt><trkpt lat="42.0095626" lon="1.7446963"><ele>712.0</ele><time>2026-04-25T10:51:17.095Z</time></trkpt><trkpt lat="42.0094955" lon="1.7449455"><ele>712.0</ele><time>2026-04-25T10:51:18.094Z</time></trkpt><trkpt lat="42.0094229" lon="1.7452099"><ele>712.0</ele><time>2026-04-25T10:51:19.094Z</time></trkpt><trkpt lat="42.0093362" lon="1.7454635"><ele>712.0</ele><time>2026-04-25T10:51:20.094Z</time></trkpt><trkpt lat="42.0092431" lon="1.7456829"><ele>711.0</ele><time>2026-04-25T10:51:21.094Z</time></trkpt><trkpt lat="42.0091228" lon="1.7458878"><ele>710.0</ele><time>2026-04-25T10:51:22.094Z</time></trkpt><trkpt lat="42.0089705" lon="1.746087"><ele>709.0</ele><time>2026-04-25T10:51:23.095Z</time></trkpt><trkpt lat="42.0087897" lon="1.7462792"><ele>708.5</ele><time>2026-04-25T10:51:24.094Z</time></trkpt><trkpt lat="42.008588" lon="1.7464854"><ele>708.0</ele><time>2026-04-25T10:51:25.094Z</time></trkpt><trkpt lat="42.0083737" lon="1.7467069"><ele>707.0</ele><time>2026-04-25T10:51:26.094Z</time></trkpt><trkpt lat="42.0081591" lon="1.7469338"><ele>706.0</ele><time>2026-04-25T10:51:27.094Z</time></trkpt><trkpt lat="42.0079652" lon="1.7471421"><ele>706.0</ele><time>2026-04-25T10:51:28.093Z</time></trkpt><trkpt lat="42.0077794" lon="1.7473462"><ele>706.0</ele><time>2026-04-25T10:51:29.093Z</time></trkpt><trkpt lat="42.0076023" lon="1.7475759"><ele>707.5</ele><time>2026-04-25T10:51:30.093Z</time></trkpt><trkpt lat="42.0074285" lon="1.7478315"><ele>709.0</ele><time>2026-04-25T10:51:31.094Z</time></trkpt><trkpt lat="42.0072489" lon="1.7480983"><ele>709.0</ele><time>2026-04-25T10:51:32.095Z</time></trkpt><trkpt lat="42.0070712" lon="1.7483494"><ele>709.0</ele><time>2026-04-25T10:51:33.095Z</time></trkpt><trkpt lat="42.0069041" lon="1.7485789"><ele>706.0</ele><time>2026-04-25T10:51:34.094Z</time></trkpt><trkpt lat="42.0067233" lon="1.7487953"><ele>703.0</ele><time>2026-04-25T10:51:35.095Z</time></trkpt><trkpt lat="42.0065281" lon="1.7489941"><ele>703.0</ele><time>2026-04-25T10:51:36.094Z</time></trkpt><trkpt lat="42.0063302" lon="1.7491901"><ele>703.0</ele><time>2026-04-25T10:51:37.094Z</time></trkpt><trkpt lat="42.006139" lon="1.7494079"><ele>703.5</ele><time>2026-04-25T10:51:38.094Z</time></trkpt><trkpt lat="42.00594" lon="1.7496212"><ele>704.0</ele><time>2026-04-25T10:51:39.093Z</time></trkpt><trkpt lat="42.0057276" lon="1.7497953"><ele>702.0</ele><time>2026-04-25T10:51:40.093Z</time></trkpt><trkpt lat="42.0055281" lon="1.7499564"><ele>700.0</ele><time>2026-04-25T10:51:41.093Z</time></trkpt><trkpt lat="42.0053435" lon="1.7501391"><ele>699.6666666666667</ele><time>2026-04-25T10:51:42.093Z</time></trkpt><trkpt lat="42.0051812" lon="1.7503113"><ele>699.3333333333334</ele><time>2026-04-25T10:51:43.095Z</time></trkpt><trkpt lat="42.0050307" lon="1.7504628"><ele>699.0</ele><time>2026-04-25T10:51:44.094Z</time></trkpt><trkpt lat="42.0048772" lon="1.7505609"><ele>698.3333333333334</ele><time>2026-04-25T10:51:45.093Z</time></trkpt><trkpt lat="42.0047174" lon="1.7506016"><ele>697.6666666666667</ele><time>2026-04-25T10:51:46.093Z</time></trkpt><trkpt lat="42.004572" lon="1.7506354"><ele>697.0</ele><time>2026-04-25T10:51:47.094Z</time></trkpt><trkpt lat="42.0044405" lon="1.7507318"><ele>697.0</ele><time>2026-04-25T10:51:48.093Z</time></trkpt><trkpt lat="42.0042976" lon="1.7508902"><ele>697.0</ele><time>2026-04-25T10:51:49.095Z</time></trkpt><trkpt lat="42.0041473" lon="1.7510812"><ele>697.0</ele><time>2026-04-25T10:51:50.094Z</time></trkpt><trkpt lat="42.0039859" lon="1.751293"><ele>695.0</ele><time>2026-04-25T10:51:51.095Z</time></trkpt><trkpt lat="42.003824" lon="1.751514"><ele>693.0</ele><time>2026-04-25T10:51:52.094Z</time></trkpt><trkpt lat="42.0036834" lon="1.751719"><ele>691.0</ele><time>2026-04-25T10:51:53.094Z</time></trkpt><trkpt lat="42.0035456" lon="1.7519121"><ele>689.6666666666667</ele><time>2026-04-25T10:51:54.093Z</time></trkpt><trkpt lat="42.0033889" lon="1.752083"><ele>688.3333333333334</ele><time>2026-04-25T10:51:55.093Z</time></trkpt><trkpt lat="42.0032091" lon="1.7522527"><ele>687.0</ele><time>2026-04-25T10:51:56.093Z</time></trkpt><trkpt lat="42.0030092" lon="1.7524199"><ele>685.5</ele><time>2026-04-25T10:51:57.094Z</time></trkpt><trkpt lat="42.0028021" lon="1.752579"><ele>684.0</ele><time>2026-04-25T10:51:58.095Z</time></trkpt><trkpt lat="42.0026003" lon="1.7527186"><ele>681.6666666666666</ele><time>2026-04-25T10:51:59.093Z</time></trkpt><trkpt lat="42.0024135" lon="1.752867"><ele>679.3333333333333</ele><time>2026-04-25T10:52:00.094Z</time></trkpt><trkpt lat="42.0022365" lon="1.7530615"><ele>677.0</ele><time>2026-04-25T10:52:01.094Z</time></trkpt><trkpt lat="42.0020603" lon="1.7532702"><ele>677.0</ele><time>2026-04-25T10:52:02.094Z</time></trkpt><trkpt lat="42.0018921" lon="1.7534591"><ele>677.0</ele><time>2026-04-25T10:52:03.094Z</time></trkpt><trkpt lat="42.0017177" lon="1.7536268"><ele>677.0</ele><time>2026-04-25T10:52:04.094Z</time></trkpt><trkpt lat="42.0015353" lon="1.7537756"><ele>674.6666666666666</ele><time>2026-04-25T10:52:05.094Z</time></trkpt><trkpt lat="42.0013592" lon="1.7539278"><ele>672.3333333333334</ele><time>2026-04-25T10:52:06.093Z</time></trkpt><trkpt lat="42.0012076" lon="1.7541201"><ele>670.0</ele><time>2026-04-25T10:52:07.094Z</time></trkpt><trkpt lat="42.0010718" lon="1.7543237"><ele>668.6666666666667</ele><time>2026-04-25T10:52:08.093Z</time></trkpt><trkpt lat="42.0009224" lon="1.7544912"><ele>667.3333333333334</ele><time>2026-04-25T10:52:09.094Z</time></trkpt><trkpt lat="42.0007521" lon="1.7546412"><ele>666.0</ele><time>2026-04-25T10:52:10.094Z</time></trkpt><trkpt lat="42.0005709" lon="1.754789"><ele>665.6666666666666</ele><time>2026-04-25T10:52:11.094Z</time></trkpt><trkpt lat="42.0003906" lon="1.7549387"><ele>665.3333333333333</ele><time>2026-04-25T10:52:12.094Z</time></trkpt><trkpt lat="42.0002266" lon="1.7550897"><ele>665.0</ele><time>2026-04-25T10:52:13.093Z</time></trkpt><trkpt lat="42.0000823" lon="1.7552548"><ele>660.6666666666666</ele><time>2026-04-25T10:52:14.093Z</time></trkpt><trkpt lat="41.9999479" lon="1.7554335"><ele>656.3333333333334</ele><time>2026-04-25T10:52:15.094Z</time></trkpt><trkpt lat="41.9998222" lon="1.7556174"><ele>652.0</ele><time>2026-04-25T10:52:16.094Z</time></trkpt><trkpt lat="41.9997025" lon="1.7557955"><ele>652.0</ele><time>2026-04-25T10:52:17.094Z</time></trkpt><trkpt lat="41.9995811" lon="1.7559534"><ele>652.0</ele><time>2026-04-25T10:52:18.095Z</time></trkpt><trkpt lat="41.9994698" lon="1.7561133"><ele>652.0</ele><time>2026-04-25T10:52:19.094Z</time></trkpt><trkpt lat="41.9993755" lon="1.756325"><ele>648.3333333333334</ele><time>2026-04-25T10:52:20.094Z</time></trkpt><trkpt lat="41.9992802" lon="1.7565654"><ele>644.6666666666666</ele><time>2026-04-25T10:52:21.094Z</time></trkpt><trkpt lat="41.9991822" lon="1.7568111"><ele>641.0</ele><time>2026-04-25T10:52:22.093Z</time></trkpt><trkpt lat="41.9990865" lon="1.7570342"><ele>639.3333333333333</ele><time>2026-04-25T10:52:23.093Z</time></trkpt><trkpt lat="41.998981" lon="1.7572486"><ele>637.6666666666666</ele><time>2026-04-25T10:52:24.094Z</time></trkpt><trkpt lat="41.9988623" lon="1.7574553"><ele>636.0</ele><time>2026-04-25T10:52:25.094Z</time></trkpt><trkpt lat="41.9987403" lon="1.7576422"><ele>633.75</ele><time>2026-04-25T10:52:26.094Z</time></trkpt><trkpt lat="41.9986253" lon="1.7577975"><ele>631.5</ele><time>2026-04-25T10:52:27.094Z</time></trkpt><trkpt lat="41.9985233" lon="1.7579043"><ele>629.25</ele><time>2026-04-25T10:52:28.094Z</time></trkpt><trkpt lat="41.9984114" lon="1.7579601"><ele>627.0</ele><time>2026-04-25T10:52:29.093Z</time></trkpt><trkpt lat="41.9982785" lon="1.7579588"><ele>627.0</ele><time>2026-04-25T10:52:30.093Z</time></trkpt><trkpt lat="41.9981323" lon="1.7579775"><ele>627.0</ele><time>2026-04-25T10:52:31.093Z</time></trkpt><trkpt lat="41.9979979" lon="1.7580477"><ele>627.0</ele><time>2026-04-25T10:52:32.094Z</time></trkpt><trkpt lat="41.9978677" lon="1.7581496"><ele>627.0</ele><time>2026-04-25T10:52:33.094Z</time></trkpt><trkpt lat="41.9977365" lon="1.7582136"><ele>627.0</ele><time>2026-04-25T10:52:34.093Z</time></trkpt><trkpt lat="41.9975709" lon="1.758247"><ele>627.0</ele><time>2026-04-25T10:52:35.093Z</time></trkpt><trkpt lat="41.9973889" lon="1.7582687"><ele>627.0</ele><time>2026-04-25T10:52:36.094Z</time></trkpt><trkpt lat="41.9972415" lon="1.7583105"><ele>627.0</ele><time>2026-04-25T10:52:37.095Z</time></trkpt><trkpt lat="41.9971155" lon="1.7584046"><ele>627.0</ele><time>2026-04-25T10:52:38.093Z</time></trkpt><trkpt lat="41.997006" lon="1.7585541"><ele>627.0</ele><time>2026-04-25T10:52:39.093Z</time></trkpt><trkpt lat="41.996891" lon="1.7587038"><ele>623.3333333333334</ele><time>2026-04-25T10:52:40.094Z</time></trkpt><trkpt lat="41.9967707" lon="1.7588239"><ele>619.6666666666667</ele><time>2026-04-25T10:52:41.093Z</time></trkpt><trkpt lat="41.9966701" lon="1.7589857"><ele>616.0</ele><time>2026-04-25T10:52:42.094Z</time></trkpt><trkpt lat="41.9966021" lon="1.7591659"><ele>616.0</ele><time>2026-04-25T10:52:43.094Z</time></trkpt><trkpt lat="41.9965695" lon="1.759367"><ele>616.0</ele><time>2026-04-25T10:52:44.093Z</time></trkpt><trkpt lat="41.9965763" lon="1.7596001"><ele>616.0</ele><time>2026-04-25T10:52:45.094Z</time></trkpt><trkpt lat="41.9965965" lon="1.75986"><ele>613.0</ele><time>2026-04-25T10:52:46.093Z</time></trkpt><trkpt lat="41.9966026" lon="1.7600977"><ele>610.0</ele><time>2026-04-25T10:52:47.094Z</time></trkpt><trkpt lat="41.9965931" lon="1.7603035"><ele>607.0</ele><time>2026-04-25T10:52:48.094Z</time></trkpt><trkpt lat="41.9965548" lon="1.7604976"><ele>604.5</ele><time>2026-04-25T10:52:49.094Z</time></trkpt><trkpt lat="41.996478" lon="1.7606625"><ele>602.0</ele><time>2026-04-25T10:52:50.094Z</time></trkpt><trkpt lat="41.9963706" lon="1.7607867"><ele>599.5</ele><time>2026-04-25T10:52:51.093Z</time></trkpt><trkpt lat="41.9962453" lon="1.7608592"><ele>597.0</ele><time>2026-04-25T10:52:52.094Z</time></trkpt><trkpt lat="41.9960825" lon="1.7609032"><ele>597.0</ele><time>2026-04-25T10:52:53.094Z</time></trkpt><trkpt lat="41.9959146" lon="1.7609574"><ele>597.0</ele><time>2026-04-25T10:52:54.094Z</time></trkpt><trkpt lat="41.9957802" lon="1.7610319"><ele>597.0</ele><time>2026-04-25T10:52:55.094Z</time></trkpt><trkpt lat="41.9956791" lon="1.7611437"><ele>597.0</ele><time>2026-04-25T10:52:56.093Z</time></trkpt><trkpt lat="41.995601" lon="1.7613137"><ele>595.5</ele><time>2026-04-25T10:52:57.094Z</time></trkpt><trkpt lat="41.9955366" lon="1.7615116"><ele>594.0</ele><time>2026-04-25T10:52:58.094Z</time></trkpt><trkpt lat="41.9954928" lon="1.7616725"><ele>592.5</ele><time>2026-04-25T10:52:59.094Z</time></trkpt><trkpt lat="41.9954805" lon="1.7618191"><ele>591.0</ele><time>2026-04-25T10:53:00.093Z</time></trkpt><trkpt lat="41.9955139" lon="1.7619712"><ele>589.5</ele><time>2026-04-25T10:53:01.095Z</time></trkpt><trkpt lat="41.995596" lon="1.7621291"><ele>588.0</ele><time>2026-04-25T10:53:02.094Z</time></trkpt><trkpt lat="41.9956821" lon="1.7622929"><ele>586.5</ele><time>2026-04-25T10:53:03.094Z</time></trkpt><trkpt lat="41.9957263" lon="1.7624815"><ele>585.0</ele><time>2026-04-25T10:53:04.094Z</time></trkpt><trkpt lat="41.9957459" lon="1.7627208"><ele>584.3333333333334</ele><time>2026-04-25T10:53:05.093Z</time></trkpt><trkpt lat="41.9957517" lon="1.7629842"><ele>583.6666666666667</ele><time>2026-04-25T10:53:06.093Z</time></trkpt><trkpt lat="41.9957558" lon="1.7632388"><ele>583.0</ele><time>2026-04-25T10:53:07.095Z</time></trkpt><trkpt lat="41.995768" lon="1.7634546"><ele>584.1999999999999</ele><time>2026-04-25T10:53:08.095Z</time></trkpt><trkpt lat="41.9957866" lon="1.7636313"><ele>585.4</ele><time>2026-04-25T10:53:09.094Z</time></trkpt><trkpt lat="41.9957779" lon="1.7637729"><ele>586.5999999999999</ele><time>2026-04-25T10:53:10.094Z</time></trkpt><trkpt lat="41.995733" lon="1.7638826"><ele>587.8</ele><time>2026-04-25T10:53:11.095Z</time></trkpt><trkpt lat="41.9956379" lon="1.7639642"><ele>589.0</ele><time>2026-04-25T10:53:12.094Z</time></trkpt><trkpt lat="41.9955015" lon="1.7640143"><ele>589.0</ele><time>2026-04-25T10:53:13.093Z</time></trkpt><trkpt lat="41.9953415" lon="1.7640444"><ele>589.0</ele><time>2026-04-25T10:53:14.093Z</time></trkpt><trkpt lat="41.9951985" lon="1.7640396"><ele>589.0</ele><time>2026-04-25T10:53:15.093Z</time></trkpt><trkpt lat="41.9950566" lon="1.7640003"><ele>589.0</ele><time>2026-04-25T10:53:16.094Z</time></trkpt><trkpt lat="41.9949085" lon="1.7639128"><ele>589.5</ele><time>2026-04-25T10:53:17.095Z</time></trkpt><trkpt lat="41.9947649" lon="1.7638107"><ele>590.0</ele><time>2026-04-25T10:53:18.094Z</time></trkpt><trkpt lat="41.9946454" lon="1.7637099"><ele>590.5</ele><time>2026-04-25T10:53:19.094Z</time></trkpt><trkpt lat="41.9945431" lon="1.763626"><ele>591.0</ele><time>2026-04-25T10:53:20.094Z</time></trkpt><trkpt lat="41.9944317" lon="1.763592"><ele>591.0</ele><time>2026-04-25T10:53:21.094Z</time></trkpt><trkpt lat="41.9942956" lon="1.7636075"><ele>591.0</ele><time>2026-04-25T10:53:22.094Z</time></trkpt><trkpt lat="41.9941294" lon="1.7636389"><ele>591.0</ele><time>2026-04-25T10:53:23.095Z</time></trkpt><trkpt lat="41.9939469" lon="1.7636554"><ele>591.0</ele><time>2026-04-25T10:53:24.094Z</time></trkpt><trkpt lat="41.9937634" lon="1.7636653"><ele>591.0</ele><time>2026-04-25T10:53:25.094Z</time></trkpt><trkpt lat="41.9935983" lon="1.7636676"><ele>591.0</ele><time>2026-04-25T10:53:26.093Z</time></trkpt><trkpt lat="41.9934485" lon="1.7636524"><ele>590.0</ele><time>2026-04-25T10:53:27.093Z</time></trkpt><trkpt lat="41.9932883" lon="1.76361"><ele>589.0</ele><time>2026-04-25T10:53:28.094Z</time></trkpt><trkpt lat="41.9931137" lon="1.7635472"><ele>588.0</ele><time>2026-04-25T10:53:29.093Z</time></trkpt><trkpt lat="41.9929544" lon="1.7634995"><ele>588.0</ele><time>2026-04-25T10:53:30.094Z</time></trkpt><trkpt lat="41.9928297" lon="1.7635071"><ele>588.0</ele><time>2026-04-25T10:53:31.093Z</time></trkpt><trkpt lat="41.9927296" lon="1.7635617"><ele>588.0</ele><time>2026-04-25T10:53:32.094Z</time></trkpt><trkpt lat="41.9926398" lon="1.7636791"><ele>588.0</ele><time>2026-04-25T10:53:33.093Z</time></trkpt><trkpt lat="41.9925452" lon="1.7638641"><ele>587.3333333333334</ele><time>2026-04-25T10:53:34.094Z</time></trkpt><trkpt lat="41.9924385" lon="1.7640671"><ele>586.6666666666667</ele><time>2026-04-25T10:53:35.093Z</time></trkpt><trkpt lat="41.9923179" lon="1.7642899"><ele>586.0</ele><time>2026-04-25T10:53:36.095Z</time></trkpt><trkpt lat="41.9921827" lon="1.7645316"><ele>586.0</ele><time>2026-04-25T10:53:37.094Z</time></trkpt><trkpt lat="41.9920379" lon="1.7647893"><ele>586.0</ele><time>2026-04-25T10:53:38.095Z</time></trkpt><trkpt lat="41.9919091" lon="1.765029"><ele>587.0</ele><time>2026-04-25T10:53:39.093Z</time></trkpt><trkpt lat="41.9917971" lon="1.765242"><ele>588.0</ele><time>2026-04-25T10:53:40.094Z</time></trkpt><trkpt lat="41.9916939" lon="1.7654018"><ele>589.0</ele><time>2026-04-25T10:53:41.095Z</time></trkpt><trkpt lat="41.9915819" lon="1.7655176"><ele>589.0</ele><time>2026-04-25T10:53:42.093Z</time></trkpt><trkpt lat="41.9914668" lon="1.765577"><ele>589.0</ele><time>2026-04-25T10:53:43.094Z</time></trkpt><trkpt lat="41.9913385" lon="1.7655757"><ele>589.0</ele><time>2026-04-25T10:53:44.095Z</time></trkpt><trkpt lat="41.9911872" lon="1.7655442"><ele>589.0</ele><time>2026-04-25T10:53:45.094Z</time></trkpt><trkpt lat="41.9910033" lon="1.7655329"><ele>588.3333333333334</ele><time>2026-04-25T10:53:46.095Z</time></trkpt><trkpt lat="41.9907995" lon="1.765537"><ele>587.6666666666666</ele><time>2026-04-25T10:53:47.093Z</time></trkpt><trkpt lat="41.9905879" lon="1.7655326"><ele>587.0</ele><time>2026-04-25T10:53:48.093Z</time></trkpt><trkpt lat="41.9903957" lon="1.7655024"><ele>587.0</ele><time>2026-04-25T10:53:49.093Z</time></trkpt><trkpt lat="41.9902045" lon="1.7654632"><ele>587.0</ele><time>2026-04-25T10:53:50.093Z</time></trkpt><trkpt lat="41.9900186" lon="1.7654358"><ele>587.0</ele><time>2026-04-25T10:53:51.094Z</time></trkpt><trkpt lat="41.9898422" lon="1.7654004"><ele>586.0</ele><time>2026-04-25T10:53:52.094Z</time></trkpt><trkpt lat="41.9896605" lon="1.7653681"><ele>585.0</ele><time>2026-04-25T10:53:53.095Z</time></trkpt><trkpt lat="41.9894888" lon="1.7653629"><ele>584.0</ele><time>2026-04-25T10:53:54.094Z</time></trkpt><trkpt lat="41.9893069" lon="1.7654067"><ele>581.25</ele><time>2026-04-25T10:53:55.093Z</time></trkpt><trkpt lat="41.9891382" lon="1.7654737"><ele>578.5</ele><time>2026-04-25T10:53:56.094Z</time></trkpt><trkpt lat="41.9890021" lon="1.7655329"><ele>575.75</ele><time>2026-04-25T10:53:57.093Z</time></trkpt><trkpt lat="41.9888879" lon="1.7655537"><ele>573.0</ele><time>2026-04-25T10:53:58.094Z</time></trkpt><trkpt lat="41.9887888" lon="1.7655226"><ele>573.0</ele><time>2026-04-25T10:53:59.094Z</time></trkpt><trkpt lat="41.9887068" lon="1.7654361"><ele>573.0</ele><time>2026-04-25T10:54:00.094Z</time></trkpt><trkpt lat="41.9886482" lon="1.7652975"><ele>573.0</ele><time>2026-04-25T10:54:01.094Z</time></trkpt><trkpt lat="41.9886146" lon="1.7651184"><ele>573.0</ele><time>2026-04-25T10:54:02.094Z</time></trkpt><trkpt lat="41.9885843" lon="1.7649668"><ele>573.1999999999999</ele><time>2026-04-25T10:54:03.093Z</time></trkpt><trkpt lat="41.9885392" lon="1.7648458"><ele>573.4</ele><time>2026-04-25T10:54:04.094Z</time></trkpt><trkpt lat="41.9884674" lon="1.7647554"><ele>573.5999999999999</ele><time>2026-04-25T10:54:05.093Z</time></trkpt><trkpt lat="41.9883652" lon="1.764719"><ele>573.8</ele><time>2026-04-25T10:54:06.095Z</time></trkpt><trkpt lat="41.9882269" lon="1.7647291"><ele>574.0</ele><time>2026-04-25T10:54:07.093Z</time></trkpt><trkpt lat="41.9880803" lon="1.7647546"><ele>574.0</ele><time>2026-04-25T10:54:08.093Z</time></trkpt><trkpt lat="41.9879184" lon="1.7647908"><ele>574.0</ele><time>2026-04-25T10:54:09.093Z</time></trkpt><trkpt lat="41.9877922" lon="1.7648113"><ele>574.0</ele><time>2026-04-25T10:54:10.094Z</time></trkpt><trkpt lat="41.9876553" lon="1.7648575"><ele>574.0</ele><time>2026-04-25T10:54:11.094Z</time></trkpt><trkpt lat="41.9875198" lon="1.7649323"><ele>574.5</ele><time>2026-04-25T10:54:12.095Z</time></trkpt><trkpt lat="41.9873874" lon="1.7650244"><ele>575.0</ele><time>2026-04-25T10:54:13.094Z</time></trkpt><trkpt lat="41.9872797" lon="1.765123"><ele>575.5</ele><time>2026-04-25T10:54:14.094Z</time></trkpt><trkpt lat="41.9871954" lon="1.7652482"><ele>576.0</ele><time>2026-04-25T10:54:15.093Z</time></trkpt><trkpt lat="41.9871425" lon="1.765386"><ele>579.25</ele><time>2026-04-25T10:54:16.094Z</time></trkpt><trkpt lat="41.9871199" lon="1.7655374"><ele>582.5</ele><time>2026-04-25T10:54:17.094Z</time></trkpt><trkpt lat="41.9871257" lon="1.7657178"><ele>585.75</ele><time>2026-04-25T10:54:18.094Z</time></trkpt><trkpt lat="41.9871545" lon="1.7659315"><ele>589.0</ele><time>2026-04-25T10:54:19.093Z</time></trkpt><trkpt lat="41.9871906" lon="1.7661707"><ele>589.0</ele><time>2026-04-25T10:54:20.094Z</time></trkpt><trkpt lat="41.9872241" lon="1.7664434"><ele>589.0</ele><time>2026-04-25T10:54:21.094Z</time></trkpt><trkpt lat="41.9872757" lon="1.7667199"><ele>589.0</ele><time>2026-04-25T10:54:22.094Z</time></trkpt><trkpt lat="41.9873713" lon="1.7669798"><ele>589.3333333333334</ele><time>2026-04-25T10:54:23.093Z</time></trkpt><trkpt lat="41.9874808" lon="1.7672238"><ele>589.6666666666666</ele><time>2026-04-25T10:54:24.094Z</time></trkpt><trkpt lat="41.9875693" lon="1.7674541"><ele>590.0</ele><time>2026-04-25T10:54:25.095Z</time></trkpt><trkpt lat="41.987644" lon="1.7677082"><ele>588.0</ele><time>2026-04-25T10:54:26.094Z</time></trkpt><trkpt lat="41.9877099" lon="1.7679526"><ele>586.0</ele><time>2026-04-25T10:54:27.094Z</time></trkpt><trkpt lat="41.987781" lon="1.7681521"><ele>584.0</ele><time>2026-04-25T10:54:28.093Z</time></trkpt><trkpt lat="41.9878444" lon="1.76832"><ele>584.0</ele><time>2026-04-25T10:54:29.094Z</time></trkpt><trkpt lat="41.9878741" lon="1.7684895"><ele>584.0</ele><time>2026-04-25T10:54:30.094Z</time></trkpt><trkpt lat="41.9878746" lon="1.7686529"><ele>584.0</ele><time>2026-04-25T10:54:31.094Z</time></trkpt><trkpt lat="41.9878394" lon="1.7687983"><ele>584.0</ele><time>2026-04-25T10:54:32.094Z</time></trkpt><trkpt lat="41.9877671" lon="1.7689813"><ele>585.6666666666666</ele><time>2026-04-25T10:54:33.094Z</time></trkpt><trkpt lat="41.9876893" lon="1.7692057"><ele>587.3333333333334</ele><time>2026-04-25T10:54:34.095Z</time></trkpt><trkpt lat="41.9876062" lon="1.7694848"><ele>589.0</ele><time>2026-04-25T10:54:35.094Z</time></trkpt><trkpt lat="41.9875262" lon="1.7697351"><ele>594.3333333333334</ele><time>2026-04-25T10:54:36.094Z</time></trkpt><trkpt lat="41.9874459" lon="1.7699698"><ele>599.6666666666666</ele><time>2026-04-25T10:54:37.093Z</time></trkpt><trkpt lat="41.9873693" lon="1.7702319"><ele>605.0</ele><time>2026-04-25T10:54:38.093Z</time></trkpt><trkpt lat="41.987303" lon="1.7705248"><ele>605.0</ele><time>2026-04-25T10:54:39.093Z</time></trkpt><trkpt lat="41.9872381" lon="1.7708367"><ele>605.0</ele><time>2026-04-25T10:54:40.094Z</time></trkpt><trkpt lat="41.9871849" lon="1.7711146"><ele>603.0</ele><time>2026-04-25T10:54:41.094Z</time></trkpt><trkpt lat="41.9871307" lon="1.7713593"><ele>601.0</ele><time>2026-04-25T10:54:42.093Z</time></trkpt><trkpt lat="41.9870606" lon="1.7715787"><ele>599.0</ele><time>2026-04-25T10:54:43.094Z</time></trkpt><trkpt lat="41.9869583" lon="1.7717837"><ele>599.3333333333333</ele><time>2026-04-25T10:54:44.094Z</time></trkpt><trkpt lat="41.9868403" lon="1.7719808"><ele>599.6666666666666</ele><time>2026-04-25T10:54:45.094Z</time></trkpt><trkpt lat="41.9867651" lon="1.7721862"><ele>600.0</ele><time>2026-04-25T10:54:46.094Z</time></trkpt><trkpt lat="41.9867033" lon="1.7724009"><ele>607.0</ele><time>2026-04-25T10:54:47.094Z</time></trkpt><trkpt lat="41.9866317" lon="1.7725757"><ele>614.0</ele><time>2026-04-25T10:54:48.094Z</time></trkpt><trkpt lat="41.9865313" lon="1.7727559"><ele>621.0</ele><time>2026-04-25T10:54:49.093Z</time></trkpt><trkpt lat="41.9864616" lon="1.7729677"><ele>621.0</ele><time>2026-04-25T10:54:50.094Z</time></trkpt><trkpt lat="41.9864278" lon="1.7732171"><ele>621.0</ele><time>2026-04-25T10:54:51.094Z</time></trkpt><trkpt lat="41.9863786" lon="1.7734831"><ele>621.0</ele><time>2026-04-25T10:54:52.094Z</time></trkpt><trkpt lat="41.9863042" lon="1.7737124"><ele>620.0</ele><time>2026-04-25T10:54:53.094Z</time></trkpt><trkpt lat="41.9862148" lon="1.7739276"><ele>619.0</ele><time>2026-04-25T10:54:54.094Z</time></trkpt><trkpt lat="41.9861036" lon="1.7741245"><ele>618.0</ele><time>2026-04-25T10:54:55.094Z</time></trkpt><trkpt lat="41.9859676" lon="1.7743199"><ele>621.6666666666666</ele><time>2026-04-25T10:54:56.094Z</time></trkpt><trkpt lat="41.9858378" lon="1.7745111"><ele>625.3333333333333</ele><time>2026-04-25T10:54:57.093Z</time></trkpt><trkpt lat="41.985724" lon="1.7746802"><ele>629.0</ele><time>2026-04-25T10:54:58.094Z</time></trkpt><trkpt lat="41.9856007" lon="1.774832"><ele>629.0</ele><time>2026-04-25T10:54:59.094Z</time></trkpt><trkpt lat="41.9854404" lon="1.7749769"><ele>629.0</ele><time>2026-04-25T10:55:00.094Z</time></trkpt><trkpt lat="41.9852821" lon="1.7751384"><ele>629.0</ele><time>2026-04-25T10:55:01.095Z</time></trkpt><trkpt lat="41.9851481" lon="1.7753561"><ele>632.5</ele><time>2026-04-25T10:55:02.094Z</time></trkpt><trkpt lat="41.985031" lon="1.7756194"><ele>636.0</ele><time>2026-04-25T10:55:03.094Z</time></trkpt><trkpt lat="41.9849131" lon="1.7758936"><ele>635.3333333333334</ele><time>2026-04-25T10:55:04.094Z</time></trkpt><trkpt lat="41.9847859" lon="1.7761504"><ele>634.6666666666667</ele><time>2026-04-25T10:55:05.094Z</time></trkpt><trkpt lat="41.984662" lon="1.7763941"><ele>634.0</ele><time>2026-04-25T10:55:06.093Z</time></trkpt><trkpt lat="41.9845603" lon="1.7766312"><ele>634.3333333333334</ele><time>2026-04-25T10:55:07.093Z</time></trkpt><trkpt lat="41.9844768" lon="1.7768672"><ele>634.6666666666666</ele><time>2026-04-25T10:55:08.095Z</time></trkpt><trkpt lat="41.984417" lon="1.7770896"><ele>635.0</ele><time>2026-04-25T10:55:09.093Z</time></trkpt><trkpt lat="41.9843735" lon="1.7773183"><ele>635.0</ele><time>2026-04-25T10:55:10.094Z</time></trkpt><trkpt lat="41.9843166" lon="1.7775276"><ele>635.0</ele><time>2026-04-25T10:55:11.093Z</time></trkpt><trkpt lat="41.9842339" lon="1.7777334"><ele>635.0</ele><time>2026-04-25T10:55:12.093Z</time></trkpt><trkpt lat="41.9841344" lon="1.7779491"><ele>637.3333333333333</ele><time>2026-04-25T10:55:13.093Z</time></trkpt><trkpt lat="41.9840288" lon="1.7781636"><ele>639.6666666666666</ele><time>2026-04-25T10:55:14.094Z</time></trkpt><trkpt lat="41.9839467" lon="1.778384"><ele>642.0</ele><time>2026-04-25T10:55:15.095Z</time></trkpt><trkpt lat="41.9838834" lon="1.7786407"><ele>642.0</ele><time>2026-04-25T10:55:16.093Z</time></trkpt><trkpt lat="41.983834" lon="1.7789011"><ele>642.0</ele><time>2026-04-25T10:55:17.094Z</time></trkpt><trkpt lat="41.9837835" lon="1.7791373"><ele>642.0</ele><time>2026-04-25T10:55:18.093Z</time></trkpt><trkpt lat="41.9837314" lon="1.7793651"><ele>643.0</ele><time>2026-04-25T10:55:19.094Z</time></trkpt><trkpt lat="41.9836851" lon="1.7795834"><ele>644.0</ele><time>2026-04-25T10:55:20.093Z</time></trkpt><trkpt lat="41.9836416" lon="1.7797726"><ele>645.0</ele><time>2026-04-25T10:55:21.093Z</time></trkpt><trkpt lat="41.9835974" lon="1.7799282"><ele>646.0</ele><time>2026-04-25T10:55:22.094Z</time></trkpt><trkpt lat="41.9835508" lon="1.780064"><ele>646.0</ele><time>2026-04-25T10:55:23.094Z</time></trkpt><trkpt lat="41.9834929" lon="1.7801522"><ele>646.0</ele><time>2026-04-25T10:55:24.093Z</time></trkpt><trkpt lat="41.9834275" lon="1.7802026"><ele>646.0</ele><time>2026-04-25T10:55:25.094Z</time></trkpt><trkpt lat="41.9833497" lon="1.7802082"><ele>646.0</ele><time>2026-04-25T10:55:26.094Z</time></trkpt><trkpt lat="41.9832585" lon="1.7801773"><ele>646.0</ele><time>2026-04-25T10:55:27.093Z</time></trkpt><trkpt lat="41.9831748" lon="1.7801219"><ele>646.0</ele><time>2026-04-25T10:55:28.094Z</time></trkpt><trkpt lat="41.9830982" lon="1.780058"><ele>647.3333333333334</ele><time>2026-04-25T10:55:29.093Z</time></trkpt><trkpt lat="41.9830261" lon="1.7799926"><ele>648.6666666666667</ele><time>2026-04-25T10:55:30.094Z</time></trkpt><trkpt lat="41.9829515" lon="1.7799273"><ele>650.0</ele><time>2026-04-25T10:55:31.094Z</time></trkpt><trkpt lat="41.9828762" lon="1.7798679"><ele>651.3333333333334</ele><time>2026-04-25T10:55:32.094Z</time></trkpt><trkpt lat="41.9828023" lon="1.7798146"><ele>652.6666666666666</ele><time>2026-04-25T10:55:33.093Z</time></trkpt><trkpt lat="41.9827317" lon="1.7797694"><ele>654.0</ele><time>2026-04-25T10:55:34.093Z</time></trkpt><trkpt lat="41.9826635" lon="1.7797243"><ele>654.0</ele><time>2026-04-25T10:55:35.094Z</time></trkpt><trkpt lat="41.9825979" lon="1.7796871"><ele>654.0</ele><time>2026-04-25T10:55:36.093Z</time></trkpt><trkpt lat="41.9825367" lon="1.7796573"><ele>654.0</ele><time>2026-04-25T10:55:37.094Z</time></trkpt><trkpt lat="41.9824187" lon="1.779626"><ele>654.0</ele><time>2026-04-25T10:55:39.094Z</time></trkpt><trkpt lat="41.9823124" lon="1.779625"><ele>654.0</ele><time>2026-04-25T10:55:41.094Z</time></trkpt><trkpt lat="41.9822255" lon="1.7796295"><ele>653.8333333333334</ele><time>2026-04-25T10:55:43.094Z</time></trkpt><trkpt lat="41.9821544" lon="1.7796496"><ele>653.6666666666666</ele><time>2026-04-25T10:55:45.095Z</time></trkpt><trkpt lat="41.9820839" lon="1.779688"><ele>653.5</ele><time>2026-04-25T10:56:43.095Z</time></trkpt><trkpt lat="41.982001" lon="1.7797478"><ele>653.3333333333333</ele><time>2026-04-25T10:56:45.094Z</time></trkpt><trkpt lat="41.9819362" lon="1.7797935"><ele>653.1666666666666</ele><time>2026-04-25T10:56:46.094Z</time></trkpt><trkpt lat="41.9818606" lon="1.7798374"><ele>653.0</ele><time>2026-04-25T10:56:47.094Z</time></trkpt><trkpt lat="41.9817774" lon="1.7798664"><ele>653.0</ele><time>2026-04-25T10:56:48.094Z</time></trkpt><trkpt lat="41.9816847" lon="1.7798683"><ele>653.0</ele><time>2026-04-25T10:56:49.094Z</time></trkpt><trkpt lat="41.9815813" lon="1.7798411"><ele>653.0</ele><time>2026-04-25T10:56:50.093Z</time></trkpt><trkpt lat="41.9814721" lon="1.7797968"><ele>653.0</ele><time>2026-04-25T10:56:51.094Z</time></trkpt><trkpt lat="41.9813511" lon="1.7797427"><ele>653.0</ele><time>2026-04-25T10:56:52.093Z</time></trkpt><trkpt lat="41.9812255" lon="1.7796822"><ele>653.0</ele><time>2026-04-25T10:56:53.075Z</time></trkpt><trkpt lat="41.9810853" lon="1.7796125"><ele>653.0</ele><time>2026-04-25T10:56:54.077Z</time></trkpt><trkpt lat="41.9809618" lon="1.7795497"><ele>653.0</ele><time>2026-04-25T10:56:55.072Z</time></trkpt><trkpt lat="41.9808454" lon="1.7794985"><ele>653.0</ele><time>2026-04-25T10:56:56.078Z</time></trkpt><trkpt lat="41.9807295" lon="1.7794664"><ele>652.0</ele><time>2026-04-25T10:56:57.074Z</time></trkpt><trkpt lat="41.9806121" lon="1.779457"><ele>651.0</ele><time>2026-04-25T10:56:58.073Z</time></trkpt><trkpt lat="41.9804923" lon="1.7794742"><ele>650.0</ele><time>2026-04-25T10:56:59.074Z</time></trkpt><trkpt lat="41.9803761" lon="1.7795259"><ele>649.0</ele><time>2026-04-25T10:57:00.073Z</time></trkpt><trkpt lat="41.9802725" lon="1.7796052"><ele>649.0</ele><time>2026-04-25T10:57:01.074Z</time></trkpt><trkpt lat="41.9801616" lon="1.7797183"><ele>649.0</ele><time>2026-04-25T10:57:02.073Z</time></trkpt><trkpt lat="41.9800586" lon="1.7798363"><ele>649.0</ele><time>2026-04-25T10:57:03.073Z</time></trkpt><trkpt lat="41.9799544" lon="1.7799605"><ele>649.0</ele><time>2026-04-25T10:57:04.074Z</time></trkpt><trkpt lat="41.9798516" lon="1.7800877"><ele>649.0</ele><time>2026-04-25T10:57:05.073Z</time></trkpt><trkpt lat="41.9797598" lon="1.780209"><ele>649.0</ele><time>2026-04-25T10:57:06.074Z</time></trkpt><trkpt lat="41.9796585" lon="1.7803536"><ele>649.0</ele><time>2026-04-25T10:57:07.073Z</time></trkpt><trkpt lat="41.9795692" lon="1.7804891"><ele>649.0</ele><time>2026-04-25T10:57:08.074Z</time></trkpt><trkpt lat="41.979485" lon="1.7806104"><ele>649.0</ele><time>2026-04-25T10:57:09.074Z</time></trkpt><trkpt lat="41.9793797" lon="1.7807369"><ele>649.0</ele><time>2026-04-25T10:57:10.074Z</time></trkpt><trkpt lat="41.9792739" lon="1.7808369"><ele>649.0</ele><time>2026-04-25T10:57:11.073Z</time></trkpt><trkpt lat="41.9791621" lon="1.7809151"><ele>649.0</ele><time>2026-04-25T10:57:12.074Z</time></trkpt><trkpt lat="41.9790451" lon="1.7809823"><ele>649.75</ele><time>2026-04-25T10:57:13.074Z</time></trkpt><trkpt lat="41.9789245" lon="1.7810587"><ele>650.5</ele><time>2026-04-25T10:57:14.074Z</time></trkpt><trkpt lat="41.9788047" lon="1.7811516"><ele>651.25</ele><time>2026-04-25T10:57:15.074Z</time></trkpt><trkpt lat="41.9786912" lon="1.7812581"><ele>652.0</ele><time>2026-04-25T10:57:16.073Z</time></trkpt><trkpt lat="41.9785874" lon="1.7813619"><ele>652.0</ele><time>2026-04-25T10:57:17.074Z</time></trkpt><trkpt lat="41.9784657" lon="1.7814725"><ele>652.0</ele><time>2026-04-25T10:57:18.074Z</time></trkpt><trkpt lat="41.9783449" lon="1.7815621"><ele>652.0</ele><time>2026-04-25T10:57:19.074Z</time></trkpt><trkpt lat="41.9782262" lon="1.7816416"><ele>652.0</ele><time>2026-04-25T10:57:20.073Z</time></trkpt><trkpt lat="41.9781165" lon="1.7817304"><ele>651.0</ele><time>2026-04-25T10:57:21.073Z</time></trkpt><trkpt lat="41.9780247" lon="1.7818425"><ele>650.0</ele><time>2026-04-25T10:57:22.074Z</time></trkpt><trkpt lat="41.977937" lon="1.782007"><ele>649.0</ele><time>2026-04-25T10:57:23.073Z</time></trkpt><trkpt lat="41.9778652" lon="1.7821941"><ele>648.0</ele><time>2026-04-25T10:57:24.073Z</time></trkpt><trkpt lat="41.977796" lon="1.7823906"><ele>648.0</ele><time>2026-04-25T10:57:25.074Z</time></trkpt><trkpt lat="41.9777055" lon="1.7826292"><ele>648.0</ele><time>2026-04-25T10:57:26.074Z</time></trkpt><trkpt lat="41.977616" lon="1.782852"><ele>648.0</ele><time>2026-04-25T10:57:27.073Z</time></trkpt><trkpt lat="41.9775314" lon="1.7830684"><ele>648.0</ele><time>2026-04-25T10:57:28.074Z</time></trkpt><trkpt lat="41.977458" lon="1.7832855"><ele>648.0</ele><time>2026-04-25T10:57:29.074Z</time></trkpt><trkpt lat="41.9773991" lon="1.7835025"><ele>648.0</ele><time>2026-04-25T10:57:30.074Z</time></trkpt><trkpt lat="41.9773455" lon="1.7837181"><ele>647.6666666666666</ele><time>2026-04-25T10:57:31.074Z</time></trkpt><trkpt lat="41.9772871" lon="1.7839288"><ele>647.3333333333333</ele><time>2026-04-25T10:57:32.074Z</time></trkpt><trkpt lat="41.9772303" lon="1.7841311"><ele>647.0</ele><time>2026-04-25T10:57:33.074Z</time></trkpt><trkpt lat="41.9771709" lon="1.7843571"><ele>645.6666666666666</ele><time>2026-04-25T10:57:34.073Z</time></trkpt><trkpt lat="41.9771161" lon="1.784561"><ele>644.3333333333334</ele><time>2026-04-25T10:57:35.074Z</time></trkpt><trkpt lat="41.9770589" lon="1.784763"><ele>643.0</ele><time>2026-04-25T10:57:36.073Z</time></trkpt><trkpt lat="41.9769966" lon="1.7849684"><ele>643.0</ele><time>2026-04-25T10:57:37.074Z</time></trkpt><trkpt lat="41.9769404" lon="1.7851544"><ele>643.0</ele><time>2026-04-25T10:57:38.074Z</time></trkpt><trkpt lat="41.9768805" lon="1.7853641"><ele>643.0</ele><time>2026-04-25T10:57:39.074Z</time></trkpt><trkpt lat="41.9768238" lon="1.7855476"><ele>642.3333333333334</ele><time>2026-04-25T10:57:40.095Z</time></trkpt><trkpt lat="41.9767761" lon="1.7857378"><ele>641.6666666666666</ele><time>2026-04-25T10:57:41.094Z</time></trkpt><trkpt lat="41.9767248" lon="1.7859314"><ele>641.0</ele><time>2026-04-25T10:57:42.095Z</time></trkpt><trkpt lat="41.9766685" lon="1.7861227"><ele>639.25</ele><time>2026-04-25T10:57:43.094Z</time></trkpt><trkpt lat="41.9766128" lon="1.7863026"><ele>637.5</ele><time>2026-04-25T10:57:44.094Z</time></trkpt><trkpt lat="41.9765458" lon="1.786457"><ele>635.75</ele><time>2026-04-25T10:57:45.093Z</time></trkpt><trkpt lat="41.9764616" lon="1.7865786"><ele>634.0</ele><time>2026-04-25T10:57:46.094Z</time></trkpt><trkpt lat="41.9763512" lon="1.7866738"><ele>634.0</ele><time>2026-04-25T10:57:47.093Z</time></trkpt><trkpt lat="41.9762266" lon="1.786763"><ele>634.0</ele><time>2026-04-25T10:57:48.094Z</time></trkpt><trkpt lat="41.9761117" lon="1.7868526"><ele>634.0</ele><time>2026-04-25T10:57:49.094Z</time></trkpt><trkpt lat="41.975994" lon="1.7869141"><ele>634.0</ele><time>2026-04-25T10:57:50.093Z</time></trkpt><trkpt lat="41.9758543" lon="1.7869557"><ele>630.6666666666667</ele><time>2026-04-25T10:57:51.094Z</time></trkpt><trkpt lat="41.9757043" lon="1.7870012"><ele>627.3333333333334</ele><time>2026-04-25T10:57:52.094Z</time></trkpt><trkpt lat="41.9755461" lon="1.7870608"><ele>624.0</ele><time>2026-04-25T10:57:53.093Z</time></trkpt><trkpt lat="41.9753836" lon="1.7871212"><ele>624.0</ele><time>2026-04-25T10:57:54.094Z</time></trkpt><trkpt lat="41.9752226" lon="1.7871799"><ele>624.0</ele><time>2026-04-25T10:57:55.094Z</time></trkpt><trkpt lat="41.9750701" lon="1.7872512"><ele>624.0</ele><time>2026-04-25T10:57:56.093Z</time></trkpt><trkpt lat="41.9749284" lon="1.7873478"><ele>623.3333333333334</ele><time>2026-04-25T10:57:57.094Z</time></trkpt><trkpt lat="41.9747937" lon="1.787478"><ele>622.6666666666667</ele><time>2026-04-25T10:57:58.094Z</time></trkpt><trkpt lat="41.9746653" lon="1.7876233"><ele>622.0</ele><time>2026-04-25T10:57:59.094Z</time></trkpt><trkpt lat="41.9745375" lon="1.7877844"><ele>623.3333333333334</ele><time>2026-04-25T10:58:00.095Z</time></trkpt><trkpt lat="41.9744201" lon="1.7879628"><ele>624.6666666666666</ele><time>2026-04-25T10:58:01.094Z</time></trkpt><trkpt lat="41.9743024" lon="1.7881557"><ele>626.0</ele><time>2026-04-25T10:58:02.094Z</time></trkpt><trkpt lat="41.9741826" lon="1.7883523"><ele>623.3333333333333</ele><time>2026-04-25T10:58:03.093Z</time></trkpt><trkpt lat="41.9740601" lon="1.7885313"><ele>620.6666666666666</ele><time>2026-04-25T10:58:04.093Z</time></trkpt><trkpt lat="41.9739202" lon="1.7887025"><ele>618.0</ele><time>2026-04-25T10:58:05.094Z</time></trkpt><trkpt lat="41.9737713" lon="1.7888688"><ele>618.0</ele><time>2026-04-25T10:58:06.094Z</time></trkpt><trkpt lat="41.9736362" lon="1.789039"><ele>618.0</ele><time>2026-04-25T10:58:07.094Z</time></trkpt><trkpt lat="41.9735103" lon="1.7892029"><ele>618.0</ele><time>2026-04-25T10:58:08.095Z</time></trkpt><trkpt lat="41.9733943" lon="1.7893498"><ele>617.25</ele><time>2026-04-25T10:58:09.094Z</time></trkpt><trkpt lat="41.9732753" lon="1.7894684"><ele>616.5</ele><time>2026-04-25T10:58:10.093Z</time></trkpt><trkpt lat="41.9731488" lon="1.7895535"><ele>615.75</ele><time>2026-04-25T10:58:11.093Z</time></trkpt><trkpt lat="41.9730262" lon="1.7896299"><ele>615.0</ele><time>2026-04-25T10:58:12.094Z</time></trkpt><trkpt lat="41.9729226" lon="1.7897331"><ele>615.0</ele><time>2026-04-25T10:58:13.093Z</time></trkpt><trkpt lat="41.972854" lon="1.7898984"><ele>615.0</ele><time>2026-04-25T10:58:14.095Z</time></trkpt><trkpt lat="41.9727918" lon="1.7900923"><ele>615.0</ele><time>2026-04-25T10:58:15.094Z</time></trkpt><trkpt lat="41.972714" lon="1.7902856"><ele>614.6666666666666</ele><time>2026-04-25T10:58:16.094Z</time></trkpt><trkpt lat="41.9726269" lon="1.7904784"><ele>614.3333333333333</ele><time>2026-04-25T10:58:17.093Z</time></trkpt><trkpt lat="41.9725448" lon="1.7906429"><ele>614.0</ele><time>2026-04-25T10:58:18.094Z</time></trkpt><trkpt lat="41.9724621" lon="1.7908024"><ele>614.25</ele><time>2026-04-25T10:58:19.093Z</time></trkpt><trkpt lat="41.9723654" lon="1.7909458"><ele>614.5</ele><time>2026-04-25T10:58:20.094Z</time></trkpt><trkpt lat="41.972256" lon="1.79104"><ele>614.75</ele><time>2026-04-25T10:58:21.093Z</time></trkpt><trkpt lat="41.9721421" lon="1.7910916"><ele>615.0</ele><time>2026-04-25T10:58:22.094Z</time></trkpt><trkpt lat="41.972027" lon="1.7910925"><ele>615.0</ele><time>2026-04-25T10:58:23.094Z</time></trkpt><trkpt lat="41.9719024" lon="1.7910488"><ele>615.0</ele><time>2026-04-25T10:58:24.093Z</time></trkpt><trkpt lat="41.9717735" lon="1.7909728"><ele>615.0</ele><time>2026-04-25T10:58:25.093Z</time></trkpt><trkpt lat="41.9716378" lon="1.7908906"><ele>615.0</ele><time>2026-04-25T10:58:26.093Z</time></trkpt><trkpt lat="41.9715268" lon="1.7908353"><ele>616.6</ele><time>2026-04-25T10:58:27.094Z</time></trkpt><trkpt lat="41.9714305" lon="1.7908328"><ele>618.2</ele><time>2026-04-25T10:58:28.094Z</time></trkpt><trkpt lat="41.9713358" lon="1.7908975"><ele>619.8</ele><time>2026-04-25T10:58:29.094Z</time></trkpt><trkpt lat="41.9712594" lon="1.7910097"><ele>621.4</ele><time>2026-04-25T10:58:30.094Z</time></trkpt><trkpt lat="41.9712171" lon="1.7911558"><ele>623.0</ele><time>2026-04-25T10:58:31.093Z</time></trkpt><trkpt lat="41.9712055" lon="1.791343"><ele>623.0</ele><time>2026-04-25T10:58:32.094Z</time></trkpt><trkpt lat="41.9711998" lon="1.7915502"><ele>623.0</ele><time>2026-04-25T10:58:33.094Z</time></trkpt><trkpt lat="41.9711818" lon="1.7917742"><ele>623.0</ele><time>2026-04-25T10:58:34.094Z</time></trkpt><trkpt lat="41.9711495" lon="1.7920065"><ele>622.6666666666666</ele><time>2026-04-25T10:58:35.093Z</time></trkpt><trkpt lat="41.9711137" lon="1.7922274"><ele>622.3333333333334</ele><time>2026-04-25T10:58:36.094Z</time></trkpt><trkpt lat="41.9710738" lon="1.792418"><ele>622.0</ele><time>2026-04-25T10:58:37.093Z</time></trkpt><trkpt lat="41.97102" lon="1.7925906"><ele>623.25</ele><time>2026-04-25T10:58:38.095Z</time></trkpt><trkpt lat="41.9709461" lon="1.7927189"><ele>624.5</ele><time>2026-04-25T10:58:39.094Z</time></trkpt><trkpt lat="41.9708522" lon="1.792814"><ele>625.75</ele><time>2026-04-25T10:58:40.093Z</time></trkpt><trkpt lat="41.9707304" lon="1.7928819"><ele>627.0</ele><time>2026-04-25T10:58:41.095Z</time></trkpt><trkpt lat="41.9705888" lon="1.7929205"><ele>628.3333333333334</ele><time>2026-04-25T10:58:42.094Z</time></trkpt><trkpt lat="41.9704297" lon="1.7929294"><ele>629.6666666666667</ele><time>2026-04-25T10:58:43.094Z</time></trkpt><trkpt lat="41.9702655" lon="1.7929104"><ele>631.0</ele><time>2026-04-25T10:58:44.094Z</time></trkpt><trkpt lat="41.9701089" lon="1.7928868"><ele>630.75</ele><time>2026-04-25T10:58:45.094Z</time></trkpt><trkpt lat="41.9699631" lon="1.7928697"><ele>630.5</ele><time>2026-04-25T10:58:46.095Z</time></trkpt><trkpt lat="41.9698237" lon="1.7928764"><ele>630.25</ele><time>2026-04-25T10:58:47.094Z</time></trkpt><trkpt lat="41.9696932" lon="1.7929207"><ele>630.0</ele><time>2026-04-25T10:58:48.093Z</time></trkpt><trkpt lat="41.9695694" lon="1.793007"><ele>630.0</ele><time>2026-04-25T10:58:49.094Z</time></trkpt><trkpt lat="41.9694492" lon="1.7931492"><ele>630.0</ele><time>2026-04-25T10:58:50.095Z</time></trkpt><trkpt lat="41.9693399" lon="1.7933341"><ele>630.0</ele><time>2026-04-25T10:58:51.094Z</time></trkpt><trkpt lat="41.9692505" lon="1.7935244"><ele>627.75</ele><time>2026-04-25T10:58:52.094Z</time></trkpt><trkpt lat="41.9691807" lon="1.7936883"><ele>625.5</ele><time>2026-04-25T10:58:53.095Z</time></trkpt><trkpt lat="41.9690802" lon="1.7938112"><ele>623.25</ele><time>2026-04-25T10:58:54.094Z</time></trkpt><trkpt lat="41.9689469" lon="1.7939288"><ele>621.0</ele><time>2026-04-25T10:58:55.093Z</time></trkpt><trkpt lat="41.9687945" lon="1.7940277"><ele>621.0</ele><time>2026-04-25T10:58:56.094Z</time></trkpt><trkpt lat="41.9686219" lon="1.7941039"><ele>621.0</ele><time>2026-04-25T10:58:57.095Z</time></trkpt><trkpt lat="41.968443" lon="1.794162"><ele>621.0</ele><time>2026-04-25T10:58:58.094Z</time></trkpt><trkpt lat="41.9682862" lon="1.7941937"><ele>621.75</ele><time>2026-04-25T10:58:59.095Z</time></trkpt><trkpt lat="41.9681283" lon="1.7941812"><ele>622.5</ele><time>2026-04-25T10:59:00.094Z</time></trkpt><trkpt lat="41.9679785" lon="1.7941402"><ele>623.25</ele><time>2026-04-25T10:59:01.094Z</time></trkpt><trkpt lat="41.967845" lon="1.7941133"><ele>624.0</ele><time>2026-04-25T10:59:02.093Z</time></trkpt><trkpt lat="41.9677186" lon="1.7941234"><ele>624.0</ele><time>2026-04-25T10:59:03.094Z</time></trkpt><trkpt lat="41.9676177" lon="1.7941877"><ele>624.0</ele><time>2026-04-25T10:59:04.095Z</time></trkpt><trkpt lat="41.9675386" lon="1.7943035"><ele>624.0</ele><time>2026-04-25T10:59:05.093Z</time></trkpt><trkpt lat="41.9674768" lon="1.7944609"><ele>624.0</ele><time>2026-04-25T10:59:06.094Z</time></trkpt><trkpt lat="41.967443" lon="1.7946356"><ele>624.0</ele><time>2026-04-25T10:59:07.094Z</time></trkpt><trkpt lat="41.9674518" lon="1.7948276"><ele>624.0</ele><time>2026-04-25T10:59:08.094Z</time></trkpt><trkpt lat="41.967491" lon="1.7950185"><ele>624.0</ele><time>2026-04-25T10:59:09.093Z</time></trkpt><trkpt lat="41.9675179" lon="1.7951845"><ele>624.0</ele><time>2026-04-25T10:59:10.093Z</time></trkpt><trkpt lat="41.9674885" lon="1.7953171"><ele>623.5</ele><time>2026-04-25T10:59:11.093Z</time></trkpt><trkpt lat="41.9674173" lon="1.7954526"><ele>623.0</ele><time>2026-04-25T10:59:12.094Z</time></trkpt><trkpt lat="41.9673187" lon="1.7956086"><ele>622.5</ele><time>2026-04-25T10:59:13.094Z</time></trkpt><trkpt lat="41.9672348" lon="1.795792"><ele>622.0</ele><time>2026-04-25T10:59:14.094Z</time></trkpt><trkpt lat="41.9671764" lon="1.7960027"><ele>621.6666666666667</ele><time>2026-04-25T10:59:15.093Z</time></trkpt><trkpt lat="41.9671278" lon="1.7962597"><ele>621.3333333333334</ele><time>2026-04-25T10:59:16.094Z</time></trkpt><trkpt lat="41.9670783" lon="1.7964933"><ele>621.0</ele><time>2026-04-25T10:59:17.094Z</time></trkpt><trkpt lat="41.9670124" lon="1.7967451"><ele>620.3333333333334</ele><time>2026-04-25T10:59:18.094Z</time></trkpt><trkpt lat="41.9669186" lon="1.796998"><ele>619.6666666666667</ele><time>2026-04-25T10:59:19.094Z</time></trkpt><trkpt lat="41.9668412" lon="1.7972403"><ele>619.0</ele><time>2026-04-25T10:59:20.094Z</time></trkpt><trkpt lat="41.9667879" lon="1.7974612"><ele>619.0</ele><time>2026-04-25T10:59:21.093Z</time></trkpt><trkpt lat="41.9667295" lon="1.7976539"><ele>619.0</ele><time>2026-04-25T10:59:22.093Z</time></trkpt><trkpt lat="41.9666499" lon="1.7978164"><ele>619.0</ele><time>2026-04-25T10:59:23.094Z</time></trkpt><trkpt lat="41.9665385" lon="1.7979841"><ele>621.3333333333334</ele><time>2026-04-25T10:59:24.093Z</time></trkpt><trkpt lat="41.9664229" lon="1.7981431"><ele>623.6666666666666</ele><time>2026-04-25T10:59:25.094Z</time></trkpt><trkpt lat="41.9663281" lon="1.7983271"><ele>626.0</ele><time>2026-04-25T10:59:26.094Z</time></trkpt><trkpt lat="41.9662566" lon="1.7985516"><ele>626.0</ele><time>2026-04-25T10:59:27.094Z</time></trkpt><trkpt lat="41.9661888" lon="1.7987717"><ele>626.0</ele><time>2026-04-25T10:59:28.094Z</time></trkpt><trkpt lat="41.9661042" lon="1.7989456"><ele>626.0</ele><time>2026-04-25T10:59:29.093Z</time></trkpt><trkpt lat="41.9659823" lon="1.7991203"><ele>627.75</ele><time>2026-04-25T10:59:30.094Z</time></trkpt><trkpt lat="41.9658541" lon="1.7992651"><ele>629.5</ele><time>2026-04-25T10:59:31.094Z</time></trkpt><trkpt lat="41.9657337" lon="1.7993773"><ele>631.25</ele><time>2026-04-25T10:59:32.095Z</time></trkpt><trkpt lat="41.9656123" lon="1.7994306"><ele>633.0</ele><time>2026-04-25T10:59:33.093Z</time></trkpt><trkpt lat="41.9654798" lon="1.7994202"><ele>628.0</ele><time>2026-04-25T10:59:34.095Z</time></trkpt><trkpt lat="41.9653116" lon="1.7993943"><ele>623.0</ele><time>2026-04-25T10:59:35.094Z</time></trkpt><trkpt lat="41.9651243" lon="1.7994049"><ele>618.0</ele><time>2026-04-25T10:59:36.093Z</time></trkpt><trkpt lat="41.9649147" lon="1.7994268"><ele>617.3333333333334</ele><time>2026-04-25T10:59:37.095Z</time></trkpt><trkpt lat="41.9647234" lon="1.7994684"><ele>616.6666666666667</ele><time>2026-04-25T10:59:38.094Z</time></trkpt><trkpt lat="41.9645639" lon="1.7995024"><ele>616.0</ele><time>2026-04-25T10:59:39.095Z</time></trkpt><trkpt lat="41.9644191" lon="1.7994695"><ele>616.0</ele><time>2026-04-25T10:59:40.094Z</time></trkpt><trkpt lat="41.9642815" lon="1.7993772"><ele>616.0</ele><time>2026-04-25T10:59:41.095Z</time></trkpt><trkpt lat="41.9641723" lon="1.7992844"><ele>616.0</ele><time>2026-04-25T10:59:42.093Z</time></trkpt><trkpt lat="41.9640624" lon="1.7992574"><ele>616.0</ele><time>2026-04-25T10:59:43.095Z</time></trkpt><trkpt lat="41.9639448" lon="1.7992902"><ele>612.6666666666667</ele><time>2026-04-25T10:59:44.094Z</time></trkpt><trkpt lat="41.9638182" lon="1.7994021"><ele>609.3333333333334</ele><time>2026-04-25T10:59:45.094Z</time></trkpt><trkpt lat="41.9636765" lon="1.7995536"><ele>606.0</ele><time>2026-04-25T10:59:46.093Z</time></trkpt><trkpt lat="41.9635209" lon="1.7997066"><ele>605.3333333333334</ele><time>2026-04-25T10:59:47.094Z</time></trkpt><trkpt lat="41.9633517" lon="1.799843"><ele>604.6666666666667</ele><time>2026-04-25T10:59:48.094Z</time></trkpt><trkpt lat="41.9631686" lon="1.7999821"><ele>604.0</ele><time>2026-04-25T10:59:49.095Z</time></trkpt><trkpt lat="41.9629808" lon="1.8001454"><ele>601.0</ele><time>2026-04-25T10:59:50.094Z</time></trkpt><trkpt lat="41.9627899" lon="1.8003045"><ele>598.0</ele><time>2026-04-25T10:59:51.094Z</time></trkpt><trkpt lat="41.9626092" lon="1.8004195"><ele>595.0</ele><time>2026-04-25T10:59:52.095Z</time></trkpt><trkpt lat="41.9624507" lon="1.8005133"><ele>595.0</ele><time>2026-04-25T10:59:53.093Z</time></trkpt><trkpt lat="41.9623274" lon="1.8006164"><ele>595.0</ele><time>2026-04-25T10:59:54.095Z</time></trkpt><trkpt lat="41.9622445" lon="1.8007618"><ele>595.0</ele><time>2026-04-25T10:59:55.094Z</time></trkpt><trkpt lat="41.9621996" lon="1.8009451"><ele>595.0</ele><time>2026-04-25T10:59:56.094Z</time></trkpt><trkpt lat="41.9621707" lon="1.8011458"><ele>593.0</ele><time>2026-04-25T10:59:57.094Z</time></trkpt><trkpt lat="41.962114" lon="1.8013083"><ele>591.0</ele><time>2026-04-25T10:59:58.094Z</time></trkpt><trkpt lat="41.9620284" lon="1.8014492"><ele>589.0</ele><time>2026-04-25T10:59:59.094Z</time></trkpt><trkpt lat="41.9619238" lon="1.8015291"><ele>587.0</ele><time>2026-04-25T11:00:00.094Z</time></trkpt><trkpt lat="41.9617645" lon="1.8015982"><ele>591.3333333333333</ele><time>2026-04-25T11:00:01.094Z</time></trkpt><trkpt lat="41.9615736" lon="1.8016779"><ele>595.6666666666666</ele><time>2026-04-25T11:00:02.093Z</time></trkpt><trkpt lat="41.96139" lon="1.801757"><ele>600.0</ele><time>2026-04-25T11:00:03.094Z</time></trkpt><trkpt lat="41.9612387" lon="1.8018214"><ele>599.3333333333334</ele><time>2026-04-25T11:00:04.094Z</time></trkpt><trkpt lat="41.9611082" lon="1.8019281"><ele>598.6666666666667</ele><time>2026-04-25T11:00:05.094Z</time></trkpt><trkpt lat="41.9609777" lon="1.8020995"><ele>598.0</ele><time>2026-04-25T11:00:06.094Z</time></trkpt><trkpt lat="41.9608552" lon="1.8022766"><ele>598.0</ele><time>2026-04-25T11:00:07.093Z</time></trkpt><trkpt lat="41.9607571" lon="1.8024397"><ele>598.0</ele><time>2026-04-25T11:00:08.094Z</time></trkpt><trkpt lat="41.9607094" lon="1.8026395"><ele>598.0</ele><time>2026-04-25T11:00:09.094Z</time></trkpt><trkpt lat="41.9606897" lon="1.8028768"><ele>597.6666666666667</ele><time>2026-04-25T11:00:10.094Z</time></trkpt><trkpt lat="41.9606616" lon="1.8031136"><ele>597.3333333333334</ele><time>2026-04-25T11:00:11.095Z</time></trkpt><trkpt lat="41.9606181" lon="1.8033043"><ele>597.0</ele><time>2026-04-25T11:00:12.093Z</time></trkpt><trkpt lat="41.9605517" lon="1.8034835"><ele>595.6666666666666</ele><time>2026-04-25T11:00:13.094Z</time></trkpt><trkpt lat="41.9604539" lon="1.8036565"><ele>594.3333333333333</ele><time>2026-04-25T11:00:14.094Z</time></trkpt><trkpt lat="41.9603309" lon="1.8038241"><ele>593.0</ele><time>2026-04-25T11:00:15.094Z</time></trkpt><trkpt lat="41.9601981" lon="1.8039869"><ele>593.0</ele><time>2026-04-25T11:00:16.094Z</time></trkpt><trkpt lat="41.9600653" lon="1.8041689"><ele>593.0</ele><time>2026-04-25T11:00:17.094Z</time></trkpt><trkpt lat="41.9599478" lon="1.8043679"><ele>593.0</ele><time>2026-04-25T11:00:18.093Z</time></trkpt><trkpt lat="41.959832" lon="1.8045761"><ele>596.0</ele><time>2026-04-25T11:00:19.094Z</time></trkpt><trkpt lat="41.9597099" lon="1.804788"><ele>599.0</ele><time>2026-04-25T11:00:20.094Z</time></trkpt><trkpt lat="41.959585" lon="1.805006"><ele>602.0</ele><time>2026-04-25T11:00:21.093Z</time></trkpt><trkpt lat="41.9594592" lon="1.8052335"><ele>602.0</ele><time>2026-04-25T11:00:22.094Z</time></trkpt><trkpt lat="41.9593462" lon="1.80547"><ele>602.0</ele><time>2026-04-25T11:00:23.093Z</time></trkpt><trkpt lat="41.9592685" lon="1.8057136"><ele>602.0</ele><time>2026-04-25T11:00:24.093Z</time></trkpt><trkpt lat="41.9592156" lon="1.8059532"><ele>606.0</ele><time>2026-04-25T11:00:25.094Z</time></trkpt><trkpt lat="41.9591674" lon="1.8061708"><ele>610.0</ele><time>2026-04-25T11:00:26.094Z</time></trkpt><trkpt lat="41.959095" lon="1.8063663"><ele>614.0</ele><time>2026-04-25T11:00:27.093Z</time></trkpt><trkpt lat="41.9589928" lon="1.8065449"><ele>614.0</ele><time>2026-04-25T11:00:28.094Z</time></trkpt><trkpt lat="41.9588674" lon="1.8067208"><ele>614.0</ele><time>2026-04-25T11:00:29.095Z</time></trkpt><trkpt lat="41.9587292" lon="1.8069021"><ele>614.0</ele><time>2026-04-25T11:00:30.094Z</time></trkpt><trkpt lat="41.9585789" lon="1.8070934"><ele>614.3333333333333</ele><time>2026-04-25T11:00:31.093Z</time></trkpt><trkpt lat="41.9584331" lon="1.8073056"><ele>614.6666666666666</ele><time>2026-04-25T11:00:32.094Z</time></trkpt><trkpt lat="41.958299" lon="1.8075494"><ele>615.0</ele><time>2026-04-25T11:00:33.094Z</time></trkpt><trkpt lat="41.9581714" lon="1.8078086"><ele>614.0</ele><time>2026-04-25T11:00:34.093Z</time></trkpt><trkpt lat="41.9580546" lon="1.8080639"><ele>613.0</ele><time>2026-04-25T11:00:35.095Z</time></trkpt><trkpt lat="41.9579452" lon="1.8082931"><ele>612.0</ele><time>2026-04-25T11:00:36.093Z</time></trkpt><trkpt lat="41.9578345" lon="1.8084898"><ele>612.5</ele><time>2026-04-25T11:00:37.093Z</time></trkpt><trkpt lat="41.9577347" lon="1.8086532"><ele>613.0</ele><time>2026-04-25T11:00:38.094Z</time></trkpt><trkpt lat="41.9576468" lon="1.8087848"><ele>613.5</ele><time>2026-04-25T11:00:39.094Z</time></trkpt><trkpt lat="41.9575722" lon="1.8088756"><ele>614.0</ele><time>2026-04-25T11:00:40.094Z</time></trkpt><trkpt lat="41.9574985" lon="1.8089253"><ele>614.8333333333333</ele><time>2026-04-25T11:00:41.094Z</time></trkpt><trkpt lat="41.9574313" lon="1.8089327"><ele>615.6666666666666</ele><time>2026-04-25T11:00:42.094Z</time></trkpt><trkpt lat="41.9573478" lon="1.8088913"><ele>616.5</ele><time>2026-04-25T11:00:44.093Z</time></trkpt><trkpt lat="41.9573296" lon="1.8087879"><ele>617.3333333333334</ele><time>2026-04-25T11:01:18.095Z</time></trkpt><trkpt lat="41.9573528" lon="1.8086231"><ele>618.1666666666667</ele><time>2026-04-25T11:01:20.095Z</time></trkpt><trkpt lat="41.9573714" lon="1.8085109"><ele>619.0</ele><time>2026-04-25T11:01:21.094Z</time></trkpt><trkpt lat="41.957386" lon="1.8083726"><ele>620.25</ele><time>2026-04-25T11:01:22.094Z</time></trkpt><trkpt lat="41.9574012" lon="1.8082203"><ele>621.5</ele><time>2026-04-25T11:01:23.094Z</time></trkpt><trkpt lat="41.95742" lon="1.8080541"><ele>622.75</ele><time>2026-04-25T11:01:24.095Z</time></trkpt><trkpt lat="41.9574474" lon="1.8078708"><ele>624.0</ele><time>2026-04-25T11:01:25.095Z</time></trkpt><trkpt lat="41.9574976" lon="1.8076823"><ele>621.0</ele><time>2026-04-25T11:01:26.094Z</time></trkpt><trkpt lat="41.9575807" lon="1.8074946"><ele>618.0</ele><time>2026-04-25T11:01:27.094Z</time></trkpt><trkpt lat="41.9576782" lon="1.8073113"><ele>615.0</ele><time>2026-04-25T11:01:28.094Z</time></trkpt><trkpt lat="41.9577904" lon="1.807109"><ele>615.0</ele><time>2026-04-25T11:01:29.093Z</time></trkpt><trkpt lat="41.9578994" lon="1.8068877"><ele>615.0</ele><time>2026-04-25T11:01:30.095Z</time></trkpt><trkpt lat="41.9580041" lon="1.8066429"><ele>615.0</ele><time>2026-04-25T11:01:31.093Z</time></trkpt><trkpt lat="41.9581132" lon="1.8063696"><ele>622.0</ele><time>2026-04-25T11:01:32.094Z</time></trkpt><trkpt lat="41.9582163" lon="1.8060727"><ele>629.0</ele><time>2026-04-25T11:01:33.094Z</time></trkpt><trkpt lat="41.9582916" lon="1.8057289"><ele>625.0</ele><time>2026-04-25T11:01:34.094Z</time></trkpt><trkpt lat="41.958358" lon="1.8053271"><ele>621.0</ele><time>2026-04-25T11:01:35.093Z</time></trkpt><trkpt lat="41.9584099" lon="1.8049034"><ele>621.0</ele><time>2026-04-25T11:01:36.095Z</time></trkpt><trkpt lat="41.958437" lon="1.8045522"><ele>621.0</ele><time>2026-04-25T11:01:37.094Z</time></trkpt><trkpt lat="41.9584497" lon="1.8042486"><ele>625.0</ele><time>2026-04-25T11:01:38.094Z</time></trkpt><trkpt lat="41.9584616" lon="1.8040068"><ele>629.0</ele><time>2026-04-25T11:01:39.093Z</time></trkpt><trkpt lat="41.9585072" lon="1.8038204"><ele>633.0</ele><time>2026-04-25T11:01:40.093Z</time></trkpt><trkpt lat="41.958594" lon="1.8036724"><ele>633.0</ele><time>2026-04-25T11:01:41.094Z</time></trkpt><trkpt lat="41.9587282" lon="1.803567"><ele>633.0</ele><time>2026-04-25T11:01:42.094Z</time></trkpt><trkpt lat="41.958931" lon="1.803472"><ele>633.0</ele><time>2026-04-25T11:01:43.094Z</time></trkpt><trkpt lat="41.9591453" lon="1.8033302"><ele>631.3333333333334</ele><time>2026-04-25T11:01:44.094Z</time></trkpt><trkpt lat="41.95931" lon="1.8032181"><ele>629.6666666666667</ele><time>2026-04-25T11:01:45.095Z</time></trkpt><trkpt lat="41.9594391" lon="1.8031115"><ele>628.0</ele><time>2026-04-25T11:01:46.094Z</time></trkpt><trkpt lat="41.9595264" lon="1.8029745"><ele>628.0</ele><time>2026-04-25T11:01:47.094Z</time></trkpt><trkpt lat="41.9595525" lon="1.8028098"><ele>628.0</ele><time>2026-04-25T11:01:48.094Z</time></trkpt><trkpt lat="41.9595757" lon="1.8026257"><ele>628.0</ele><time>2026-04-25T11:01:49.095Z</time></trkpt><trkpt lat="41.9595281" lon="1.8023853"><ele>628.0</ele><time>2026-04-25T11:01:50.093Z</time></trkpt><trkpt lat="41.9594232" lon="1.8020815"><ele>632.6666666666667</ele><time>2026-04-25T11:01:51.094Z</time></trkpt><trkpt lat="41.9594033" lon="1.8018218"><ele>637.3333333333334</ele><time>2026-04-25T11:01:52.094Z</time></trkpt><trkpt lat="41.9594149" lon="1.8015664"><ele>642.0</ele><time>2026-04-25T11:01:53.094Z</time></trkpt><trkpt lat="41.9594721" lon="1.8013399"><ele>642.0</ele><time>2026-04-25T11:01:54.095Z</time></trkpt><trkpt lat="41.9595912" lon="1.8011449"><ele>642.0</ele><time>2026-04-25T11:01:55.093Z</time></trkpt><trkpt lat="41.9597633" lon="1.8009725"><ele>642.0</ele><time>2026-04-25T11:01:56.095Z</time></trkpt><trkpt lat="41.9599621" lon="1.8007756"><ele>644.5</ele><time>2026-04-25T11:01:57.093Z</time></trkpt><trkpt lat="41.9601554" lon="1.8005501"><ele>647.0</ele><time>2026-04-25T11:01:58.095Z</time></trkpt><trkpt lat="41.9603236" lon="1.8003873"><ele>647.0</ele><time>2026-04-25T11:01:59.093Z</time></trkpt><trkpt lat="41.960495" lon="1.800304"><ele>647.0</ele><time>2026-04-25T11:02:00.094Z</time></trkpt><trkpt lat="41.9606683" lon="1.8002495"><ele>647.0</ele><time>2026-04-25T11:02:01.093Z</time></trkpt><trkpt lat="41.9608047" lon="1.8001559"><ele>646.3333333333333</ele><time>2026-04-25T11:02:02.095Z</time></trkpt><trkpt lat="41.9609405" lon="1.7999878"><ele>645.6666666666666</ele><time>2026-04-25T11:02:03.093Z</time></trkpt><trkpt lat="41.9610819" lon="1.7997445"><ele>645.0</ele><time>2026-04-25T11:02:04.094Z</time></trkpt><trkpt lat="41.9612508" lon="1.7994498"><ele>661.5</ele><time>2026-04-25T11:02:05.094Z</time></trkpt><trkpt lat="41.9614447" lon="1.7991088"><ele>678.0</ele><time>2026-04-25T11:02:06.094Z</time></trkpt><trkpt lat="41.9616297" lon="1.7987966"><ele>682.5</ele><time>2026-04-25T11:02:07.094Z</time></trkpt><trkpt lat="41.9618014" lon="1.7985357"><ele>687.0</ele><time>2026-04-25T11:02:08.094Z</time></trkpt><trkpt lat="41.9619872" lon="1.7983287"><ele>687.0</ele><time>2026-04-25T11:02:09.095Z</time></trkpt><trkpt lat="41.9622109" lon="1.7981581"><ele>687.0</ele><time>2026-04-25T11:02:10.094Z</time></trkpt><trkpt lat="41.9624326" lon="1.7980365"><ele>677.5</ele><time>2026-04-25T11:02:11.095Z</time></trkpt><trkpt lat="41.9626459" lon="1.7978997"><ele>668.0</ele><time>2026-04-25T11:02:12.094Z</time></trkpt><trkpt lat="41.9628724" lon="1.7977013"><ele>686.5</ele><time>2026-04-25T11:02:13.093Z</time></trkpt><trkpt lat="41.9630987" lon="1.7974435"><ele>705.0</ele><time>2026-04-25T11:02:14.094Z</time></trkpt><trkpt lat="41.9633441" lon="1.797161"><ele>704.5</ele><time>2026-04-25T11:02:15.093Z</time></trkpt><trkpt lat="41.9635659" lon="1.7969161"><ele>704.0</ele><time>2026-04-25T11:02:16.094Z</time></trkpt><trkpt lat="41.9637734" lon="1.7966718"><ele>711.0</ele><time>2026-04-25T11:02:17.094Z</time></trkpt><trkpt lat="41.9639573" lon="1.7963985"><ele>718.0</ele><time>2026-04-25T11:02:18.093Z</time></trkpt><trkpt lat="41.9641388" lon="1.7960563"><ele>721.5</ele><time>2026-04-25T11:02:19.094Z</time></trkpt><trkpt lat="41.9643194" lon="1.7956707"><ele>725.0</ele><time>2026-04-25T11:02:20.094Z</time></trkpt><trkpt lat="41.9645103" lon="1.7952507"><ele>726.0</ele><time>2026-04-25T11:02:21.094Z</time></trkpt><trkpt lat="41.9647119" lon="1.7948065"><ele>727.0</ele><time>2026-04-25T11:02:22.094Z</time></trkpt><trkpt lat="41.9649263" lon="1.794337"><ele>727.0</ele><time>2026-04-25T11:02:23.093Z</time></trkpt><trkpt lat="41.9651481" lon="1.7938522"><ele>727.0</ele><time>2026-04-25T11:02:24.094Z</time></trkpt><trkpt lat="41.9653483" lon="1.7934177"><ele>730.5</ele><time>2026-04-25T11:02:25.094Z</time></trkpt><trkpt lat="41.9655276" lon="1.7930234"><ele>734.0</ele><time>2026-04-25T11:02:26.094Z</time></trkpt><trkpt lat="41.965691" lon="1.7926691"><ele>736.5</ele><time>2026-04-25T11:02:27.094Z</time></trkpt><trkpt lat="41.9658365" lon="1.7923478"><ele>739.0</ele><time>2026-04-25T11:02:28.094Z</time></trkpt><trkpt lat="41.9659736" lon="1.7920248"><ele>740.5</ele><time>2026-04-25T11:02:29.095Z</time></trkpt><trkpt lat="41.9661056" lon="1.7917006"><ele>742.0</ele><time>2026-04-25T11:02:30.093Z</time></trkpt><trkpt lat="41.9662342" lon="1.7913737"><ele>742.0</ele><time>2026-04-25T11:02:31.094Z</time></trkpt><trkpt lat="41.9663637" lon="1.7910467"><ele>742.0</ele><time>2026-04-25T11:02:32.094Z</time></trkpt><trkpt lat="41.9664899" lon="1.7907311"><ele>745.0</ele><time>2026-04-25T11:02:33.094Z</time></trkpt><trkpt lat="41.9666053" lon="1.7904349"><ele>748.0</ele><time>2026-04-25T11:02:34.095Z</time></trkpt><trkpt lat="41.9667134" lon="1.7901627"><ele>749.3333333333334</ele><time>2026-04-25T11:02:35.093Z</time></trkpt><trkpt lat="41.966821" lon="1.789902"><ele>750.6666666666666</ele><time>2026-04-25T11:02:36.093Z</time></trkpt><trkpt lat="41.966922" lon="1.789645"><ele>752.0</ele><time>2026-04-25T11:02:37.094Z</time></trkpt><trkpt lat="41.9669825" lon="1.7893932"><ele>752.0</ele><time>2026-04-25T11:02:38.094Z</time></trkpt><trkpt lat="41.9670001" lon="1.7891394"><ele>752.0</ele><time>2026-04-25T11:02:39.093Z</time></trkpt><trkpt lat="41.9669714" lon="1.7889075"><ele>752.0</ele><time>2026-04-25T11:02:40.094Z</time></trkpt><trkpt lat="41.9668948" lon="1.7886839"><ele>753.0</ele><time>2026-04-25T11:02:41.094Z</time></trkpt><trkpt lat="41.966769" lon="1.7884382"><ele>754.0</ele><time>2026-04-25T11:02:42.094Z</time></trkpt><trkpt lat="41.9666118" lon="1.7881648"><ele>749.5</ele><time>2026-04-25T11:02:43.093Z</time></trkpt><trkpt lat="41.9664474" lon="1.7879128"><ele>745.0</ele><time>2026-04-25T11:02:44.094Z</time></trkpt><trkpt lat="41.9662612" lon="1.7877104"><ele>745.5</ele><time>2026-04-25T11:02:45.094Z</time></trkpt><trkpt lat="41.9660305" lon="1.7875443"><ele>746.0</ele><time>2026-04-25T11:02:46.094Z</time></trkpt><trkpt lat="41.9657556" lon="1.7874202"><ele>746.0</ele><time>2026-04-25T11:02:47.094Z</time></trkpt><trkpt lat="41.9654715" lon="1.787324"><ele>746.0</ele><time>2026-04-25T11:02:48.095Z</time></trkpt><trkpt lat="41.9652405" lon="1.7872411"><ele>746.0</ele><time>2026-04-25T11:02:49.094Z</time></trkpt><trkpt lat="41.9650553" lon="1.7871392"><ele>746.0</ele><time>2026-04-25T11:02:50.094Z</time></trkpt><trkpt lat="41.9649048" lon="1.7870037"><ele>746.0</ele><time>2026-04-25T11:02:51.094Z</time></trkpt><trkpt lat="41.9647906" lon="1.7868075"><ele>747.3333333333333</ele><time>2026-04-25T11:02:52.093Z</time></trkpt><trkpt lat="41.9646798" lon="1.7865756"><ele>748.6666666666666</ele><time>2026-04-25T11:02:53.094Z</time></trkpt><trkpt lat="41.964548" lon="1.786413"><ele>750.0</ele><time>2026-04-25T11:02:54.094Z</time></trkpt><trkpt lat="41.9643704" lon="1.7863118"><ele>742.0</ele><time>2026-04-25T11:02:55.094Z</time></trkpt><trkpt lat="41.9641411" lon="1.786239"><ele>734.0</ele><time>2026-04-25T11:02:56.095Z</time></trkpt><trkpt lat="41.9638781" lon="1.7862003"><ele>734.0</ele><time>2026-04-25T11:02:57.093Z</time></trkpt><trkpt lat="41.9635749" lon="1.7861565"><ele>734.0</ele><time>2026-04-25T11:02:58.094Z</time></trkpt><trkpt lat="41.9632902" lon="1.7861087"><ele>731.5</ele><time>2026-04-25T11:02:59.093Z</time></trkpt><trkpt lat="41.9630097" lon="1.786059"><ele>729.0</ele><time>2026-04-25T11:03:00.093Z</time></trkpt><trkpt lat="41.9627162" lon="1.7860137"><ele>737.5</ele><time>2026-04-25T11:03:01.094Z</time></trkpt><trkpt lat="41.9624034" lon="1.7859674"><ele>746.0</ele><time>2026-04-25T11:03:02.093Z</time></trkpt><trkpt lat="41.9620502" lon="1.7859175"><ele>746.0</ele><time>2026-04-25T11:03:03.095Z</time></trkpt><trkpt lat="41.9617154" lon="1.78587"><ele>746.0</ele><time>2026-04-25T11:03:04.093Z</time></trkpt><trkpt lat="41.9614142" lon="1.7858276"><ele>745.0</ele><time>2026-04-25T11:03:05.093Z</time></trkpt><trkpt lat="41.961148" lon="1.7857853"><ele>744.0</ele><time>2026-04-25T11:03:06.093Z</time></trkpt><trkpt lat="41.9609126" lon="1.7857176"><ele>744.5</ele><time>2026-04-25T11:03:07.094Z</time></trkpt><trkpt lat="41.9606758" lon="1.7855915"><ele>745.0</ele><time>2026-04-25T11:03:08.095Z</time></trkpt><trkpt lat="41.9604234" lon="1.7854346"><ele>745.0</ele><time>2026-04-25T11:03:09.094Z</time></trkpt><trkpt lat="41.9601326" lon="1.7852588"><ele>745.0</ele><time>2026-04-25T11:03:10.094Z</time></trkpt><trkpt lat="41.9598649" lon="1.7850917"><ele>745.0</ele><time>2026-04-25T11:03:11.093Z</time></trkpt><trkpt lat="41.9596362" lon="1.7849412"><ele>745.0</ele><time>2026-04-25T11:03:12.094Z</time></trkpt><trkpt lat="41.9594321" lon="1.7848045"><ele>745.0</ele><time>2026-04-25T11:03:13.094Z</time></trkpt><trkpt lat="41.9592548" lon="1.7846489"><ele>745.0</ele><time>2026-04-25T11:03:14.094Z</time></trkpt><trkpt lat="41.9590925" lon="1.7844324"><ele>745.0</ele><time>2026-04-25T11:03:15.094Z</time></trkpt><trkpt lat="41.9589311" lon="1.7841456"><ele>743.0</ele><time>2026-04-25T11:03:16.094Z</time></trkpt><trkpt lat="41.9587863" lon="1.7838632"><ele>741.0</ele><time>2026-04-25T11:03:17.094Z</time></trkpt><trkpt lat="41.9586478" lon="1.7836455"><ele>741.6666666666666</ele><time>2026-04-25T11:03:18.094Z</time></trkpt><trkpt lat="41.9584875" lon="1.7834826"><ele>742.3333333333333</ele><time>2026-04-25T11:03:19.093Z</time></trkpt><trkpt lat="41.9582962" lon="1.7833914"><ele>743.0</ele><time>2026-04-25T11:03:20.093Z</time></trkpt><trkpt lat="41.9580553" lon="1.7833608"><ele>738.5</ele><time>2026-04-25T11:03:21.094Z</time></trkpt><trkpt lat="41.9577619" lon="1.7833586"><ele>734.0</ele><time>2026-04-25T11:03:22.095Z</time></trkpt><trkpt lat="41.9574241" lon="1.7833588"><ele>733.0</ele><time>2026-04-25T11:03:23.093Z</time></trkpt><trkpt lat="41.957055" lon="1.7833571"><ele>732.0</ele><time>2026-04-25T11:03:24.094Z</time></trkpt><trkpt lat="41.9567307" lon="1.7833508"><ele>733.0</ele><time>2026-04-25T11:03:25.094Z</time></trkpt><trkpt lat="41.9564258" lon="1.7833354"><ele>734.0</ele><time>2026-04-25T11:03:26.093Z</time></trkpt><trkpt lat="41.9561431" lon="1.7833222"><ele>734.5</ele><time>2026-04-25T11:03:27.094Z</time></trkpt><trkpt lat="41.9558627" lon="1.7833364"><ele>735.0</ele><time>2026-04-25T11:03:28.094Z</time></trkpt><trkpt lat="41.9555448" lon="1.7833896"><ele>735.0</ele><time>2026-04-25T11:03:29.093Z</time></trkpt><trkpt lat="41.9551899" lon="1.7834561"><ele>735.0</ele><time>2026-04-25T11:03:30.093Z</time></trkpt><trkpt lat="41.9547964" lon="1.7835261"><ele>736.0</ele><time>2026-04-25T11:03:31.093Z</time></trkpt><trkpt lat="41.9543718" lon="1.7836008"><ele>737.0</ele><time>2026-04-25T11:03:32.093Z</time></trkpt><trkpt lat="41.9539226" lon="1.7836867"><ele>732.0</ele><time>2026-04-25T11:03:33.094Z</time></trkpt><trkpt lat="41.9534942" lon="1.7837722"><ele>727.0</ele><time>2026-04-25T11:03:34.095Z</time></trkpt><trkpt lat="41.9530995" lon="1.7838497"><ele>725.5</ele><time>2026-04-25T11:03:35.093Z</time></trkpt><trkpt lat="41.9527072" lon="1.783919"><ele>724.0</ele><time>2026-04-25T11:03:36.094Z</time></trkpt><trkpt lat="41.9523453" lon="1.7839825"><ele>724.0</ele><time>2026-04-25T11:03:37.094Z</time></trkpt><trkpt lat="41.9520162" lon="1.7840461"><ele>724.0</ele><time>2026-04-25T11:03:38.094Z</time></trkpt><trkpt lat="41.9517147" lon="1.7840959"><ele>721.0</ele><time>2026-04-25T11:03:39.094Z</time></trkpt><trkpt lat="41.9514316" lon="1.784111"><ele>718.0</ele><time>2026-04-25T11:03:40.093Z</time></trkpt><trkpt lat="41.9511552" lon="1.7840693"><ele>716.5</ele><time>2026-04-25T11:03:41.093Z</time></trkpt><trkpt lat="41.9508558" lon="1.7839935"><ele>715.0</ele><time>2026-04-25T11:03:42.093Z</time></trkpt><trkpt lat="41.950546" lon="1.7839087"><ele>715.0</ele><time>2026-04-25T11:03:43.094Z</time></trkpt><trkpt lat="41.9502893" lon="1.7838335"><ele>715.0</ele><time>2026-04-25T11:03:44.093Z</time></trkpt><trkpt lat="41.9500581" lon="1.783759"><ele>714.6666666666667</ele><time>2026-04-25T11:03:45.095Z</time></trkpt><trkpt lat="41.9498546" lon="1.7836478"><ele>714.3333333333334</ele><time>2026-04-25T11:03:46.093Z</time></trkpt><trkpt lat="41.9496799" lon="1.7834814"><ele>714.0</ele><time>2026-04-25T11:03:47.095Z</time></trkpt><trkpt lat="41.9495276" lon="1.7832578"><ele>714.0</ele><time>2026-04-25T11:03:48.094Z</time></trkpt><trkpt lat="41.9493784" lon="1.7829895"><ele>714.0</ele><time>2026-04-25T11:03:49.093Z</time></trkpt><trkpt lat="41.9492159" lon="1.7826973"><ele>716.0</ele><time>2026-04-25T11:03:50.094Z</time></trkpt><trkpt lat="41.9490514" lon="1.7823946"><ele>718.0</ele><time>2026-04-25T11:03:51.095Z</time></trkpt><trkpt lat="41.9489083" lon="1.782127"><ele>718.0</ele><time>2026-04-25T11:03:52.094Z</time></trkpt><trkpt lat="41.9487777" lon="1.7818842"><ele>718.0</ele><time>2026-04-25T11:03:53.093Z</time></trkpt><trkpt lat="41.9486593" lon="1.781666"><ele>718.0</ele><time>2026-04-25T11:03:54.094Z</time></trkpt><trkpt lat="41.9485472" lon="1.7814695"><ele>718.6666666666667</ele><time>2026-04-25T11:03:55.094Z</time></trkpt><trkpt lat="41.9484418" lon="1.7813054"><ele>719.3333333333334</ele><time>2026-04-25T11:03:56.094Z</time></trkpt><trkpt lat="41.9483247" lon="1.7811677"><ele>720.0</ele><time>2026-04-25T11:03:57.094Z</time></trkpt><trkpt lat="41.948186" lon="1.7810662"><ele>721.0</ele><time>2026-04-25T11:03:58.094Z</time></trkpt><trkpt lat="41.9480347" lon="1.7809804"><ele>722.0</ele><time>2026-04-25T11:03:59.094Z</time></trkpt><trkpt lat="41.9478975" lon="1.7808973"><ele>723.0</ele><time>2026-04-25T11:04:00.093Z</time></trkpt><trkpt lat="41.9477805" lon="1.780822"><ele>724.0</ele><time>2026-04-25T11:04:01.095Z</time></trkpt><trkpt lat="41.9476832" lon="1.7807551"><ele>724.0</ele><time>2026-04-25T11:04:02.094Z</time></trkpt><trkpt lat="41.9476052" lon="1.7807009"><ele>724.0</ele><time>2026-04-25T11:04:03.094Z</time></trkpt><trkpt lat="41.9475445" lon="1.7806594"><ele>724.0</ele><time>2026-04-25T11:04:04.093Z</time></trkpt><trkpt lat="41.9474475" lon="1.7806528"><ele>724.0</ele><time>2026-04-25T11:04:06.094Z</time></trkpt><trkpt lat="41.9474074" lon="1.7807308"><ele>724.0</ele><time>2026-04-25T11:04:09.094Z</time></trkpt><trkpt lat="41.9473455" lon="1.7808435"><ele>724.0</ele><time>2026-04-25T11:05:01.094Z</time></trkpt><trkpt lat="41.947292" lon="1.7809205"><ele>724.5</ele><time>2026-04-25T11:05:02.093Z</time></trkpt><trkpt lat="41.9472188" lon="1.7810078"><ele>725.0</ele><time>2026-04-25T11:05:03.093Z</time></trkpt><trkpt lat="41.9471249" lon="1.7810975"><ele>725.5</ele><time>2026-04-25T11:05:04.094Z</time></trkpt><trkpt lat="41.9470099" lon="1.781185"><ele>726.0</ele><time>2026-04-25T11:05:05.094Z</time></trkpt><trkpt lat="41.9468745" lon="1.7812595"><ele>726.0</ele><time>2026-04-25T11:05:06.094Z</time></trkpt><trkpt lat="41.9467251" lon="1.7813352"><ele>726.0</ele><time>2026-04-25T11:05:07.093Z</time></trkpt><trkpt lat="41.9465663" lon="1.7814073"><ele>726.0</ele><time>2026-04-25T11:05:08.093Z</time></trkpt><trkpt lat="41.9464008" lon="1.7814646"><ele>725.3333333333334</ele><time>2026-04-25T11:05:09.094Z</time></trkpt><trkpt lat="41.9462249" lon="1.7815057"><ele>724.6666666666667</ele><time>2026-04-25T11:05:10.093Z</time></trkpt><trkpt lat="41.9460371" lon="1.7815348"><ele>724.0</ele><time>2026-04-25T11:05:11.094Z</time></trkpt><trkpt lat="41.945851" lon="1.781557"><ele>722.6666666666667</ele><time>2026-04-25T11:05:12.094Z</time></trkpt><trkpt lat="41.9456637" lon="1.7815824"><ele>721.3333333333334</ele><time>2026-04-25T11:05:13.094Z</time></trkpt><trkpt lat="41.9454758" lon="1.7816116"><ele>720.0</ele><time>2026-04-25T11:05:14.095Z</time></trkpt><trkpt lat="41.9452873" lon="1.7816407"><ele>720.0</ele><time>2026-04-25T11:05:15.094Z</time></trkpt><trkpt lat="41.9450971" lon="1.7816754"><ele>720.0</ele><time>2026-04-25T11:05:16.095Z</time></trkpt><trkpt lat="41.944905" lon="1.7817163"><ele>720.0</ele><time>2026-04-25T11:05:17.094Z</time></trkpt><trkpt lat="41.9447104" lon="1.7817646"><ele>719.0</ele><time>2026-04-25T11:05:18.093Z</time></trkpt><trkpt lat="41.9445152" lon="1.7818234"><ele>718.0</ele><time>2026-04-25T11:05:19.093Z</time></trkpt><trkpt lat="41.944321" lon="1.7819042"><ele>717.0</ele><time>2026-04-25T11:05:20.093Z</time></trkpt><trkpt lat="41.9441216" lon="1.7819904"><ele>715.0</ele><time>2026-04-25T11:05:21.093Z</time></trkpt><trkpt lat="41.943924" lon="1.7820754"><ele>713.0</ele><time>2026-04-25T11:05:22.094Z</time></trkpt><trkpt lat="41.9437299" lon="1.7821746"><ele>711.0</ele><time>2026-04-25T11:05:23.094Z</time></trkpt><trkpt lat="41.9435412" lon="1.7823043"><ele>711.3333333333334</ele><time>2026-04-25T11:05:24.095Z</time></trkpt><trkpt lat="41.943358" lon="1.7824559"><ele>711.6666666666667</ele><time>2026-04-25T11:05:25.094Z</time></trkpt><trkpt lat="41.9431751" lon="1.7826077"><ele>712.0</ele><time>2026-04-25T11:05:26.094Z</time></trkpt><trkpt lat="41.9429877" lon="1.7827325"><ele>711.3333333333334</ele><time>2026-04-25T11:05:27.093Z</time></trkpt><trkpt lat="41.942793" lon="1.7828328"><ele>710.6666666666666</ele><time>2026-04-25T11:05:28.095Z</time></trkpt><trkpt lat="41.942589" lon="1.7829162"><ele>710.0</ele><time>2026-04-25T11:05:29.094Z</time></trkpt><trkpt lat="41.9423816" lon="1.7829764"><ele>710.0</ele><time>2026-04-25T11:05:30.094Z</time></trkpt><trkpt lat="41.9421602" lon="1.7830061"><ele>710.0</ele><time>2026-04-25T11:05:31.095Z</time></trkpt><trkpt lat="41.9419222" lon="1.7830145"><ele>708.5</ele><time>2026-04-25T11:05:32.094Z</time></trkpt><trkpt lat="41.9416685" lon="1.7830153"><ele>707.0</ele><time>2026-04-25T11:05:33.093Z</time></trkpt><trkpt lat="41.9414006" lon="1.783024"><ele>707.0</ele><time>2026-04-25T11:05:34.093Z</time></trkpt><trkpt lat="41.9411243" lon="1.7830293"><ele>707.0</ele><time>2026-04-25T11:05:35.094Z</time></trkpt><trkpt lat="41.9408338" lon="1.7830317"><ele>705.5</ele><time>2026-04-25T11:05:36.093Z</time></trkpt><trkpt lat="41.9405607" lon="1.7830336"><ele>704.0</ele><time>2026-04-25T11:05:37.093Z</time></trkpt><trkpt lat="41.9403092" lon="1.7830387"><ele>704.0</ele><time>2026-04-25T11:05:38.094Z</time></trkpt><trkpt lat="41.9400645" lon="1.783045"><ele>704.0</ele><time>2026-04-25T11:05:39.094Z</time></trkpt><trkpt lat="41.939813" lon="1.783053"><ele>704.5</ele><time>2026-04-25T11:05:40.094Z</time></trkpt><trkpt lat="41.9395511" lon="1.7830658"><ele>705.0</ele><time>2026-04-25T11:05:41.093Z</time></trkpt><trkpt lat="41.9392785" lon="1.7830769"><ele>704.0</ele><time>2026-04-25T11:05:42.094Z</time></trkpt><trkpt lat="41.938999" lon="1.7830866"><ele>703.0</ele><time>2026-04-25T11:05:43.094Z</time></trkpt><trkpt lat="41.9387169" lon="1.7830924"><ele>703.0</ele><time>2026-04-25T11:05:44.094Z</time></trkpt><trkpt lat="41.9384344" lon="1.7830971"><ele>703.0</ele><time>2026-04-25T11:05:45.094Z</time></trkpt><trkpt lat="41.9381543" lon="1.7831007"><ele>702.5</ele><time>2026-04-25T11:05:46.094Z</time></trkpt><trkpt lat="41.937876" lon="1.7831024"><ele>702.0</ele><time>2026-04-25T11:05:47.093Z</time></trkpt><trkpt lat="41.9376026" lon="1.7831018"><ele>701.0</ele><time>2026-04-25T11:05:48.093Z</time></trkpt><trkpt lat="41.9373528" lon="1.7830932"><ele>700.0</ele><time>2026-04-25T11:05:49.095Z</time></trkpt><trkpt lat="41.9371215" lon="1.7830767"><ele>700.0</ele><time>2026-04-25T11:05:50.094Z</time></trkpt><trkpt lat="41.9369046" lon="1.7830687"><ele>700.0</ele><time>2026-04-25T11:05:51.094Z</time></trkpt><trkpt lat="41.9366963" lon="1.783084"><ele>700.0</ele><time>2026-04-25T11:05:52.094Z</time></trkpt><trkpt lat="41.9364822" lon="1.7831231"><ele>699.5</ele><time>2026-04-25T11:05:53.094Z</time></trkpt><trkpt lat="41.9362621" lon="1.7831819"><ele>699.0</ele><time>2026-04-25T11:05:54.094Z</time></trkpt><trkpt lat="41.9360341" lon="1.7832583"><ele>699.5</ele><time>2026-04-25T11:05:55.095Z</time></trkpt><trkpt lat="41.9357953" lon="1.78335"><ele>700.0</ele><time>2026-04-25T11:05:56.094Z</time></trkpt><trkpt lat="41.9355493" lon="1.7834464"><ele>700.5</ele><time>2026-04-25T11:05:57.094Z</time></trkpt><trkpt lat="41.9352979" lon="1.7835379"><ele>701.0</ele><time>2026-04-25T11:05:58.093Z</time></trkpt><trkpt lat="41.9350426" lon="1.7836332"><ele>701.0</ele><time>2026-04-25T11:05:59.093Z</time></trkpt><trkpt lat="41.9348004" lon="1.783721"><ele>701.0</ele><time>2026-04-25T11:06:00.093Z</time></trkpt><trkpt lat="41.9345837" lon="1.7837999"><ele>701.0</ele><time>2026-04-25T11:06:01.093Z</time></trkpt><trkpt lat="41.9343801" lon="1.7838761"><ele>701.0</ele><time>2026-04-25T11:06:02.095Z</time></trkpt><trkpt lat="41.9341826" lon="1.7839488"><ele>701.0</ele><time>2026-04-25T11:06:03.094Z</time></trkpt><trkpt lat="41.9339768" lon="1.7840127"><ele>705.0</ele><time>2026-04-25T11:06:04.094Z</time></trkpt><trkpt lat="41.9337717" lon="1.7840551"><ele>709.0</ele><time>2026-04-25T11:06:05.094Z</time></trkpt><trkpt lat="41.9335575" lon="1.7840907"><ele>713.0</ele><time>2026-04-25T11:06:06.094Z</time></trkpt><trkpt lat="41.9333241" lon="1.7841308"><ele>713.0</ele><time>2026-04-25T11:06:07.093Z</time></trkpt><trkpt lat="41.9330784" lon="1.7841673"><ele>713.0</ele><time>2026-04-25T11:06:08.094Z</time></trkpt><trkpt lat="41.9328236" lon="1.7842091"><ele>713.0</ele><time>2026-04-25T11:06:09.094Z</time></trkpt><trkpt lat="41.9325608" lon="1.7842521"><ele>713.0</ele><time>2026-04-25T11:06:10.094Z</time></trkpt><trkpt lat="41.9323044" lon="1.7842942"><ele>710.0</ele><time>2026-04-25T11:06:11.094Z</time></trkpt><trkpt lat="41.9320645" lon="1.7843351"><ele>707.0</ele><time>2026-04-25T11:06:12.094Z</time></trkpt><trkpt lat="41.9318354" lon="1.7843749"><ele>701.5</ele><time>2026-04-25T11:06:13.094Z</time></trkpt><trkpt lat="41.9316022" lon="1.7844126"><ele>696.0</ele><time>2026-04-25T11:06:14.094Z</time></trkpt><trkpt lat="41.9313635" lon="1.7844519"><ele>696.0</ele><time>2026-04-25T11:06:15.095Z</time></trkpt><trkpt lat="41.9311174" lon="1.7844923"><ele>696.0</ele><time>2026-04-25T11:06:16.094Z</time></trkpt><trkpt lat="41.9308809" lon="1.7845315"><ele>695.5</ele><time>2026-04-25T11:06:17.094Z</time></trkpt><trkpt lat="41.9306462" lon="1.7845617"><ele>695.0</ele><time>2026-04-25T11:06:18.093Z</time></trkpt><trkpt lat="41.9304115" lon="1.7845845"><ele>695.0</ele><time>2026-04-25T11:06:19.094Z</time></trkpt><trkpt lat="41.9301805" lon="1.7846098"><ele>695.0</ele><time>2026-04-25T11:06:20.094Z</time></trkpt><trkpt lat="41.9299495" lon="1.7846304"><ele>695.0</ele><time>2026-04-25T11:06:21.094Z</time></trkpt><trkpt lat="41.9297169" lon="1.7846501"><ele>695.0</ele><time>2026-04-25T11:06:22.094Z</time></trkpt><trkpt lat="41.929478" lon="1.7846699"><ele>695.0</ele><time>2026-04-25T11:06:23.094Z</time></trkpt><trkpt lat="41.9292371" lon="1.7846932"><ele>695.0</ele><time>2026-04-25T11:06:24.095Z</time></trkpt><trkpt lat="41.9289905" lon="1.7847149"><ele>695.0</ele><time>2026-04-25T11:06:25.094Z</time></trkpt><trkpt lat="41.928742" lon="1.7847359"><ele>695.0</ele><time>2026-04-25T11:06:26.094Z</time></trkpt><trkpt lat="41.9284965" lon="1.7847529"><ele>694.5</ele><time>2026-04-25T11:06:27.093Z</time></trkpt><trkpt lat="41.9282554" lon="1.7847715"><ele>694.0</ele><time>2026-04-25T11:06:28.094Z</time></trkpt><trkpt lat="41.9280143" lon="1.7847933"><ele>694.0</ele><time>2026-04-25T11:06:29.094Z</time></trkpt><trkpt lat="41.927775" lon="1.7848139"><ele>694.0</ele><time>2026-04-25T11:06:30.094Z</time></trkpt><trkpt lat="41.9275383" lon="1.7848334"><ele>695.3333333333334</ele><time>2026-04-25T11:06:31.093Z</time></trkpt><trkpt lat="41.9273107" lon="1.7848512"><ele>696.6666666666666</ele><time>2026-04-25T11:06:32.094Z</time></trkpt><trkpt lat="41.9270955" lon="1.7848698"><ele>698.0</ele><time>2026-04-25T11:06:33.094Z</time></trkpt><trkpt lat="41.9268695" lon="1.7848957"><ele>699.5</ele><time>2026-04-25T11:06:34.094Z</time></trkpt><trkpt lat="41.9266362" lon="1.7849258"><ele>701.0</ele><time>2026-04-25T11:06:35.093Z</time></trkpt><trkpt lat="41.9264007" lon="1.7849569"><ele>701.0</ele><time>2026-04-25T11:06:36.094Z</time></trkpt><trkpt lat="41.9261667" lon="1.7849877"><ele>701.0</ele><time>2026-04-25T11:06:37.094Z</time></trkpt><trkpt lat="41.9259371" lon="1.7850212"><ele>701.0</ele><time>2026-04-25T11:06:38.094Z</time></trkpt><trkpt lat="41.9257075" lon="1.7850656"><ele>701.0</ele><time>2026-04-25T11:06:39.093Z</time></trkpt><trkpt lat="41.9254723" lon="1.7851346"><ele>700.5</ele><time>2026-04-25T11:06:40.095Z</time></trkpt><trkpt lat="41.925229" lon="1.7852174"><ele>700.0</ele><time>2026-04-25T11:06:41.093Z</time></trkpt><trkpt lat="41.9249783" lon="1.7853033"><ele>700.0</ele><time>2026-04-25T11:06:42.093Z</time></trkpt><trkpt lat="41.9247216" lon="1.7853857"><ele>700.0</ele><time>2026-04-25T11:06:43.094Z</time></trkpt><trkpt lat="41.9244633" lon="1.7854665"><ele>699.5</ele><time>2026-04-25T11:06:44.094Z</time></trkpt><trkpt lat="41.9242084" lon="1.7855439"><ele>699.0</ele><time>2026-04-25T11:06:45.095Z</time></trkpt><trkpt lat="41.9239626" lon="1.7856149"><ele>699.0</ele><time>2026-04-25T11:06:46.093Z</time></trkpt><trkpt lat="41.9237249" lon="1.7856872"><ele>699.0</ele><time>2026-04-25T11:06:47.093Z</time></trkpt><trkpt lat="41.9235057" lon="1.7857483"><ele>698.0</ele><time>2026-04-25T11:06:48.094Z</time></trkpt><trkpt lat="41.9232928" lon="1.7857935"><ele>697.0</ele><time>2026-04-25T11:06:49.095Z</time></trkpt><trkpt lat="41.923068" lon="1.7858152"><ele>696.0</ele><time>2026-04-25T11:06:50.094Z</time></trkpt><trkpt lat="41.9228363" lon="1.7858192"><ele>696.0</ele><time>2026-04-25T11:06:51.095Z</time></trkpt><trkpt lat="41.9226014" lon="1.7858274"><ele>696.0</ele><time>2026-04-25T11:06:52.093Z</time></trkpt><trkpt lat="41.9223649" lon="1.7858671"><ele>694.0</ele><time>2026-04-25T11:06:53.094Z</time></trkpt><trkpt lat="41.9221194" lon="1.785921"><ele>692.0</ele><time>2026-04-25T11:06:54.095Z</time></trkpt><trkpt lat="41.9218699" lon="1.7859998"><ele>688.0</ele><time>2026-04-25T11:06:55.094Z</time></trkpt><trkpt lat="41.9216176" lon="1.7860967"><ele>684.0</ele><time>2026-04-25T11:06:56.093Z</time></trkpt><trkpt lat="41.9213652" lon="1.7861956"><ele>684.0</ele><time>2026-04-25T11:06:57.095Z</time></trkpt><trkpt lat="41.9211343" lon="1.7862976"><ele>684.0</ele><time>2026-04-25T11:06:58.093Z</time></trkpt><trkpt lat="41.9209086" lon="1.7864308"><ele>682.5</ele><time>2026-04-25T11:06:59.093Z</time></trkpt><trkpt lat="41.9206849" lon="1.7865951"><ele>681.0</ele><time>2026-04-25T11:07:00.094Z</time></trkpt><trkpt lat="41.9204634" lon="1.7867881"><ele>681.5</ele><time>2026-04-25T11:07:01.095Z</time></trkpt><trkpt lat="41.9202369" lon="1.7870025"><ele>682.0</ele><time>2026-04-25T11:07:02.094Z</time></trkpt><trkpt lat="41.9200343" lon="1.7871996"><ele>682.0</ele><time>2026-04-25T11:07:03.094Z</time></trkpt><trkpt lat="41.9198408" lon="1.7873821"><ele>682.0</ele><time>2026-04-25T11:07:04.094Z</time></trkpt><trkpt lat="41.9196554" lon="1.7875203"><ele>682.0</ele><time>2026-04-25T11:07:05.094Z</time></trkpt><trkpt lat="41.9194488" lon="1.7876315"><ele>677.5</ele><time>2026-04-25T11:07:06.093Z</time></trkpt><trkpt lat="41.919225" lon="1.787737"><ele>673.0</ele><time>2026-04-25T11:07:07.094Z</time></trkpt><trkpt lat="41.9189918" lon="1.7878512"><ele>673.0</ele><time>2026-04-25T11:07:08.094Z</time></trkpt><trkpt lat="41.9187459" lon="1.7879745"><ele>673.0</ele><time>2026-04-25T11:07:09.095Z</time></trkpt><trkpt lat="41.9184971" lon="1.7881017"><ele>676.0</ele><time>2026-04-25T11:07:10.094Z</time></trkpt><trkpt lat="41.9182533" lon="1.7882088"><ele>679.0</ele><time>2026-04-25T11:07:11.093Z</time></trkpt><trkpt lat="41.9180001" lon="1.7882974"><ele>679.0</ele><time>2026-04-25T11:07:12.093Z</time></trkpt><trkpt lat="41.9177412" lon="1.7883771"><ele>679.0</ele><time>2026-04-25T11:07:13.095Z</time></trkpt><trkpt lat="41.9174735" lon="1.7884515"><ele>668.0</ele><time>2026-04-25T11:07:14.094Z</time></trkpt><trkpt lat="41.9172056" lon="1.788521"><ele>657.0</ele><time>2026-04-25T11:07:15.094Z</time></trkpt><trkpt lat="41.9169329" lon="1.7885934"><ele>660.0</ele><time>2026-04-25T11:07:16.093Z</time></trkpt><trkpt lat="41.9166588" lon="1.7886815"><ele>663.0</ele><time>2026-04-25T11:07:17.094Z</time></trkpt><trkpt lat="41.916385" lon="1.7887781"><ele>663.0</ele><time>2026-04-25T11:07:18.093Z</time></trkpt><trkpt lat="41.9161117" lon="1.7888635"><ele>663.0</ele><time>2026-04-25T11:07:19.094Z</time></trkpt><trkpt lat="41.9158393" lon="1.7889338"><ele>666.5</ele><time>2026-04-25T11:07:20.094Z</time></trkpt><trkpt lat="41.9155714" lon="1.7889951"><ele>670.0</ele><time>2026-04-25T11:07:21.094Z</time></trkpt><trkpt lat="41.9153294" lon="1.7890533"><ele>670.0</ele><time>2026-04-25T11:07:22.094Z</time></trkpt><trkpt lat="41.915103" lon="1.7891064"><ele>670.0</ele><time>2026-04-25T11:07:23.094Z</time></trkpt><trkpt lat="41.9148924" lon="1.7891729"><ele>670.0</ele><time>2026-04-25T11:07:24.095Z</time></trkpt><trkpt lat="41.9147026" lon="1.789283"><ele>669.3333333333334</ele><time>2026-04-25T11:07:25.094Z</time></trkpt><trkpt lat="41.9145215" lon="1.7894138"><ele>668.6666666666666</ele><time>2026-04-25T11:07:26.094Z</time></trkpt><trkpt lat="41.9143566" lon="1.7895157"><ele>668.0</ele><time>2026-04-25T11:07:27.094Z</time></trkpt><trkpt lat="41.9141896" lon="1.7895561"><ele>668.0</ele><time>2026-04-25T11:07:28.093Z</time></trkpt><trkpt lat="41.9140067" lon="1.7895444"><ele>668.0</ele><time>2026-04-25T11:07:29.094Z</time></trkpt><trkpt lat="41.9138002" lon="1.7894994"><ele>668.0</ele><time>2026-04-25T11:07:30.094Z</time></trkpt><trkpt lat="41.9135679" lon="1.7894524"><ele>663.0</ele><time>2026-04-25T11:07:31.094Z</time></trkpt><trkpt lat="41.9133167" lon="1.7894211"><ele>658.0</ele><time>2026-04-25T11:07:32.094Z</time></trkpt><trkpt lat="41.9130592" lon="1.7894065"><ele>658.0</ele><time>2026-04-25T11:07:33.095Z</time></trkpt><trkpt lat="41.9127887" lon="1.7894202"><ele>658.0</ele><time>2026-04-25T11:07:34.094Z</time></trkpt><trkpt lat="41.9125149" lon="1.7894533"><ele>657.0</ele><time>2026-04-25T11:07:35.094Z</time></trkpt><trkpt lat="41.9122311" lon="1.7894912"><ele>656.0</ele><time>2026-04-25T11:07:36.095Z</time></trkpt><trkpt lat="41.9119487" lon="1.7895309"><ele>667.0</ele><time>2026-04-25T11:07:37.094Z</time></trkpt><trkpt lat="41.9116679" lon="1.7895687"><ele>678.0</ele><time>2026-04-25T11:07:38.094Z</time></trkpt><trkpt lat="41.9114089" lon="1.7896019"><ele>678.0</ele><time>2026-04-25T11:07:39.093Z</time></trkpt><trkpt lat="41.9111693" lon="1.7896312"><ele>678.0</ele><time>2026-04-25T11:07:40.095Z</time></trkpt><trkpt lat="41.9109592" lon="1.7896525"><ele>682.3333333333334</ele><time>2026-04-25T11:07:41.093Z</time></trkpt><trkpt lat="41.9107648" lon="1.7896544"><ele>686.6666666666667</ele><time>2026-04-25T11:07:42.094Z</time></trkpt><trkpt lat="41.9105809" lon="1.7896307"><ele>691.0</ele><time>2026-04-25T11:07:43.094Z</time></trkpt><trkpt lat="41.9104016" lon="1.7895964"><ele>691.0</ele><time>2026-04-25T11:07:44.094Z</time></trkpt><trkpt lat="41.9102106" lon="1.7895521"><ele>691.0</ele><time>2026-04-25T11:07:45.094Z</time></trkpt><trkpt lat="41.9100056" lon="1.7895052"><ele>691.0</ele><time>2026-04-25T11:07:46.093Z</time></trkpt><trkpt lat="41.9097852" lon="1.7894521"><ele>689.0</ele><time>2026-04-25T11:07:47.093Z</time></trkpt><trkpt lat="41.9095518" lon="1.7894006"><ele>687.0</ele><time>2026-04-25T11:07:48.093Z</time></trkpt><trkpt lat="41.9093071" lon="1.7893438"><ele>684.5</ele><time>2026-04-25T11:07:49.095Z</time></trkpt><trkpt lat="41.9090655" lon="1.7892872"><ele>682.0</ele><time>2026-04-25T11:07:50.093Z</time></trkpt><trkpt lat="41.9088292" lon="1.789232"><ele>682.0</ele><time>2026-04-25T11:07:51.094Z</time></trkpt><trkpt lat="41.9085951" lon="1.7891757"><ele>682.0</ele><time>2026-04-25T11:07:52.093Z</time></trkpt><trkpt lat="41.9083631" lon="1.7891229"><ele>679.5</ele><time>2026-04-25T11:07:53.093Z</time></trkpt><trkpt lat="41.9081352" lon="1.7890689"><ele>677.0</ele><time>2026-04-25T11:07:54.093Z</time></trkpt><trkpt lat="41.9079163" lon="1.7890153"><ele>677.0</ele><time>2026-04-25T11:07:55.094Z</time></trkpt><trkpt lat="41.9077148" lon="1.7889458"><ele>677.0</ele><time>2026-04-25T11:07:56.093Z</time></trkpt><trkpt lat="41.9075145" lon="1.7888401"><ele>677.0</ele><time>2026-04-25T11:07:57.094Z</time></trkpt><trkpt lat="41.9073252" lon="1.7887142"><ele>677.6666666666666</ele><time>2026-04-25T11:07:58.094Z</time></trkpt><trkpt lat="41.9071455" lon="1.7885888"><ele>678.3333333333334</ele><time>2026-04-25T11:07:59.094Z</time></trkpt><trkpt lat="41.9069835" lon="1.7884447"><ele>679.0</ele><time>2026-04-25T11:08:00.094Z</time></trkpt><trkpt lat="41.9068446" lon="1.7882677"><ele>678.6666666666667</ele><time>2026-04-25T11:08:01.093Z</time></trkpt><trkpt lat="41.9067179" lon="1.7880599"><ele>678.3333333333334</ele><time>2026-04-25T11:08:02.095Z</time></trkpt><trkpt lat="41.9065901" lon="1.7878269"><ele>678.0</ele><time>2026-04-25T11:08:03.095Z</time></trkpt><trkpt lat="41.9064617" lon="1.7875764"><ele>672.0</ele><time>2026-04-25T11:08:04.094Z</time></trkpt><trkpt lat="41.9063213" lon="1.7873178"><ele>666.0</ele><time>2026-04-25T11:08:05.093Z</time></trkpt><trkpt lat="41.9061834" lon="1.7870525"><ele>658.0</ele><time>2026-04-25T11:08:06.094Z</time></trkpt><trkpt lat="41.9060534" lon="1.7868001"><ele>650.0</ele><time>2026-04-25T11:08:07.094Z</time></trkpt><trkpt lat="41.9059299" lon="1.7865452"><ele>655.0</ele><time>2026-04-25T11:08:08.094Z</time></trkpt><trkpt lat="41.9058136" lon="1.7862978"><ele>660.0</ele><time>2026-04-25T11:08:09.093Z</time></trkpt><trkpt lat="41.9056864" lon="1.786051"><ele>665.0</ele><time>2026-04-25T11:08:10.094Z</time></trkpt><trkpt lat="41.9055499" lon="1.7857967"><ele>665.0</ele><time>2026-04-25T11:08:11.095Z</time></trkpt><trkpt lat="41.9054194" lon="1.7855507"><ele>665.0</ele><time>2026-04-25T11:08:12.094Z</time></trkpt><trkpt lat="41.9053025" lon="1.7853195"><ele>665.0</ele><time>2026-04-25T11:08:13.094Z</time></trkpt><trkpt lat="41.9052026" lon="1.7850567"><ele>664.3333333333333</ele><time>2026-04-25T11:08:14.094Z</time></trkpt><trkpt lat="41.9051319" lon="1.7847677"><ele>663.6666666666666</ele><time>2026-04-25T11:08:15.093Z</time></trkpt><trkpt lat="41.9050677" lon="1.7844924"><ele>663.0</ele><time>2026-04-25T11:08:16.093Z</time></trkpt><trkpt lat="41.905008" lon="1.7842346"><ele>663.0</ele><time>2026-04-25T11:08:17.095Z</time></trkpt><trkpt lat="41.9049377" lon="1.7839774"><ele>663.0</ele><time>2026-04-25T11:08:18.094Z</time></trkpt><trkpt lat="41.9048669" lon="1.7837358"><ele>663.0</ele><time>2026-04-25T11:08:19.093Z</time></trkpt><trkpt lat="41.9047968" lon="1.7835253"><ele>662.0</ele><time>2026-04-25T11:08:20.094Z</time></trkpt><trkpt lat="41.9046979" lon="1.7833413"><ele>661.0</ele><time>2026-04-25T11:08:21.094Z</time></trkpt><trkpt lat="41.9045598" lon="1.7832118"><ele>660.0</ele><time>2026-04-25T11:08:22.095Z</time></trkpt><trkpt lat="41.904381" lon="1.783114"><ele>658.6666666666666</ele><time>2026-04-25T11:08:23.094Z</time></trkpt><trkpt lat="41.9041765" lon="1.7830417"><ele>657.3333333333333</ele><time>2026-04-25T11:08:24.093Z</time></trkpt><trkpt lat="41.9039511" lon="1.7830019"><ele>656.0</ele><time>2026-04-25T11:08:25.095Z</time></trkpt><trkpt lat="41.9037331" lon="1.7830012"><ele>656.0</ele><time>2026-04-25T11:08:26.094Z</time></trkpt><trkpt lat="41.9035231" lon="1.7830061"><ele>656.0</ele><time>2026-04-25T11:08:27.094Z</time></trkpt><trkpt lat="41.9033075" lon="1.7829871"><ele>656.0</ele><time>2026-04-25T11:08:28.095Z</time></trkpt><trkpt lat="41.9030782" lon="1.7829585"><ele>653.5</ele><time>2026-04-25T11:08:29.094Z</time></trkpt><trkpt lat="41.9028389" lon="1.7829356"><ele>651.0</ele><time>2026-04-25T11:08:30.094Z</time></trkpt><trkpt lat="41.9025973" lon="1.7829099"><ele>649.6666666666666</ele><time>2026-04-25T11:08:31.095Z</time></trkpt><trkpt lat="41.9023786" lon="1.7828843"><ele>648.3333333333333</ele><time>2026-04-25T11:08:32.094Z</time></trkpt><trkpt lat="41.9021837" lon="1.7828569"><ele>647.0</ele><time>2026-04-25T11:08:33.093Z</time></trkpt><trkpt lat="41.9020145" lon="1.7828299"><ele>647.0</ele><time>2026-04-25T11:08:34.093Z</time></trkpt><trkpt lat="41.9018636" lon="1.7827782"><ele>647.0</ele><time>2026-04-25T11:08:35.094Z</time></trkpt><trkpt lat="41.9017233" lon="1.7826499"><ele>647.0</ele><time>2026-04-25T11:08:36.093Z</time></trkpt><trkpt lat="41.9015714" lon="1.7824939"><ele>648.6666666666666</ele><time>2026-04-25T11:08:37.094Z</time></trkpt><trkpt lat="41.9014054" lon="1.782329"><ele>650.3333333333334</ele><time>2026-04-25T11:08:38.095Z</time></trkpt><trkpt lat="41.9012354" lon="1.7821526"><ele>652.0</ele><time>2026-04-25T11:08:39.093Z</time></trkpt><trkpt lat="41.9010749" lon="1.781993"><ele>652.0</ele><time>2026-04-25T11:08:40.093Z</time></trkpt><trkpt lat="41.9009135" lon="1.7818574"><ele>652.0</ele><time>2026-04-25T11:08:41.095Z</time></trkpt><trkpt lat="41.9007497" lon="1.7817624"><ele>652.0</ele><time>2026-04-25T11:08:42.093Z</time></trkpt><trkpt lat="41.9005833" lon="1.7816972"><ele>652.0</ele><time>2026-04-25T11:08:43.095Z</time></trkpt><trkpt lat="41.9004176" lon="1.7816456"><ele>652.0</ele><time>2026-04-25T11:08:44.093Z</time></trkpt><trkpt lat="41.9002538" lon="1.7815624"><ele>652.0</ele><time>2026-04-25T11:08:45.094Z</time></trkpt><trkpt lat="41.9000976" lon="1.7814402"><ele>649.3333333333334</ele><time>2026-04-25T11:08:46.094Z</time></trkpt><trkpt lat="41.8999317" lon="1.7813115"><ele>646.6666666666666</ele><time>2026-04-25T11:08:47.093Z</time></trkpt><trkpt lat="41.8997696" lon="1.7811927"><ele>644.0</ele><time>2026-04-25T11:08:48.093Z</time></trkpt><trkpt lat="41.8996155" lon="1.781105"><ele>644.0</ele><time>2026-04-25T11:08:49.095Z</time></trkpt><trkpt lat="41.8994466" lon="1.7810698"><ele>644.0</ele><time>2026-04-25T11:08:50.094Z</time></trkpt><trkpt lat="41.8992461" lon="1.7811054"><ele>644.0</ele><time>2026-04-25T11:08:51.094Z</time></trkpt><trkpt lat="41.8990499" lon="1.781157"><ele>644.0</ele><time>2026-04-25T11:08:52.095Z</time></trkpt><trkpt lat="41.8988772" lon="1.7811842"><ele>644.0</ele><time>2026-04-25T11:08:53.094Z</time></trkpt><trkpt lat="41.8987186" lon="1.7811787"><ele>644.0</ele><time>2026-04-25T11:08:54.093Z</time></trkpt><trkpt lat="41.8985679" lon="1.7811198"><ele>644.0</ele><time>2026-04-25T11:08:55.093Z</time></trkpt><trkpt lat="41.8984369" lon="1.7809976"><ele>644.0</ele><time>2026-04-25T11:08:56.093Z</time></trkpt><trkpt lat="41.8983069" lon="1.7808075"><ele>644.0</ele><time>2026-04-25T11:08:57.093Z</time></trkpt><trkpt lat="41.898155" lon="1.7805924"><ele>644.0</ele><time>2026-04-25T11:08:58.093Z</time></trkpt><trkpt lat="41.8979506" lon="1.7803865"><ele>644.0</ele><time>2026-04-25T11:08:59.094Z</time></trkpt><trkpt lat="41.8977444" lon="1.7802221"><ele>640.0</ele><time>2026-04-25T11:09:00.094Z</time></trkpt><trkpt lat="41.8975777" lon="1.780068"><ele>636.0</ele><time>2026-04-25T11:09:01.094Z</time></trkpt><trkpt lat="41.897441" lon="1.7798816"><ele>632.0</ele><time>2026-04-25T11:09:02.093Z</time></trkpt><trkpt lat="41.8973172" lon="1.7796352"><ele>633.5</ele><time>2026-04-25T11:09:03.094Z</time></trkpt><trkpt lat="41.8972047" lon="1.7793271"><ele>635.0</ele><time>2026-04-25T11:09:04.094Z</time></trkpt><trkpt lat="41.8971004" lon="1.7790631"><ele>635.0</ele><time>2026-04-25T11:09:05.094Z</time></trkpt><trkpt lat="41.8969662" lon="1.7788308"><ele>635.0</ele><time>2026-04-25T11:09:06.094Z</time></trkpt><trkpt lat="41.8967777" lon="1.7785988"><ele>630.0</ele><time>2026-04-25T11:09:07.095Z</time></trkpt><trkpt lat="41.8965604" lon="1.7783471"><ele>625.0</ele><time>2026-04-25T11:09:08.094Z</time></trkpt><trkpt lat="41.8963292" lon="1.7780792"><ele>625.0</ele><time>2026-04-25T11:09:09.094Z</time></trkpt><trkpt lat="41.8961225" lon="1.7778553"><ele>625.0</ele><time>2026-04-25T11:09:10.095Z</time></trkpt><trkpt lat="41.8958818" lon="1.7776725"><ele>623.5</ele><time>2026-04-25T11:09:11.093Z</time></trkpt><trkpt lat="41.895636" lon="1.7775266"><ele>622.0</ele><time>2026-04-25T11:09:12.093Z</time></trkpt><trkpt lat="41.8954352" lon="1.7774108"><ele>622.0</ele><time>2026-04-25T11:09:13.094Z</time></trkpt><trkpt lat="41.8952625" lon="1.7773024"><ele>622.0</ele><time>2026-04-25T11:09:14.094Z</time></trkpt><trkpt lat="41.8951158" lon="1.7771644"><ele>622.0</ele><time>2026-04-25T11:09:15.094Z</time></trkpt><trkpt lat="41.895013" lon="1.7769907"><ele>620.6666666666667</ele><time>2026-04-25T11:09:16.093Z</time></trkpt><trkpt lat="41.8949375" lon="1.7767576"><ele>619.3333333333334</ele><time>2026-04-25T11:09:17.094Z</time></trkpt><trkpt lat="41.894878" lon="1.7764928"><ele>618.0</ele><time>2026-04-25T11:09:18.093Z</time></trkpt><trkpt lat="41.8948152" lon="1.7762792"><ele>618.0</ele><time>2026-04-25T11:09:19.094Z</time></trkpt><trkpt lat="41.8947406" lon="1.7760933"><ele>618.0</ele><time>2026-04-25T11:09:20.094Z</time></trkpt><trkpt lat="41.8946389" lon="1.7759095"><ele>618.0</ele><time>2026-04-25T11:09:21.094Z</time></trkpt><trkpt lat="41.8943494" lon="1.7757541"><ele>608.0</ele><time>2026-04-25T11:09:22.093Z</time></trkpt><trkpt lat="41.8941281" lon="1.7755322"><ele>598.0</ele><time>2026-04-25T11:09:23.093Z</time></trkpt><trkpt lat="41.893868" lon="1.7753214"><ele>599.5</ele><time>2026-04-25T11:09:24.094Z</time></trkpt><trkpt lat="41.8935788" lon="1.7751588"><ele>601.0</ele><time>2026-04-25T11:09:25.093Z</time></trkpt><trkpt lat="41.8932597" lon="1.7750336"><ele>597.5</ele><time>2026-04-25T11:09:26.094Z</time></trkpt><trkpt lat="41.8929048" lon="1.7749216"><ele>594.0</ele><time>2026-04-25T11:09:27.094Z</time></trkpt><trkpt lat="41.8925193" lon="1.7748029"><ele>592.5</ele><time>2026-04-25T11:09:28.094Z</time></trkpt><trkpt lat="41.8921193" lon="1.7746817"><ele>591.0</ele><time>2026-04-25T11:09:29.094Z</time></trkpt><trkpt lat="41.891762" lon="1.7745749"><ele>588.5</ele><time>2026-04-25T11:09:30.095Z</time></trkpt><trkpt lat="41.8914395" lon="1.7744769"><ele>586.0</ele><time>2026-04-25T11:09:31.093Z</time></trkpt><trkpt lat="41.8911561" lon="1.7743928"><ele>590.0</ele><time>2026-04-25T11:09:32.095Z</time></trkpt><trkpt lat="41.8908955" lon="1.7743057"><ele>594.0</ele><time>2026-04-25T11:09:33.093Z</time></trkpt><trkpt lat="41.8906625" lon="1.7741676"><ele>594.0</ele><time>2026-04-25T11:09:34.095Z</time></trkpt><trkpt lat="41.8904492" lon="1.7739794"><ele>594.0</ele><time>2026-04-25T11:09:35.093Z</time></trkpt><trkpt lat="41.8902551" lon="1.7737454"><ele>595.5</ele><time>2026-04-25T11:09:36.095Z</time></trkpt><trkpt lat="41.8900733" lon="1.7734477"><ele>597.0</ele><time>2026-04-25T11:09:37.094Z</time></trkpt><trkpt lat="41.8898831" lon="1.773102"><ele>597.0</ele><time>2026-04-25T11:09:38.093Z</time></trkpt><trkpt lat="41.8896713" lon="1.7727167"><ele>597.0</ele><time>2026-04-25T11:09:39.094Z</time></trkpt><trkpt lat="41.8894735" lon="1.772352"><ele>597.5</ele><time>2026-04-25T11:09:40.094Z</time></trkpt><trkpt lat="41.8892904" lon="1.7720168"><ele>598.0</ele><time>2026-04-25T11:09:41.094Z</time></trkpt><trkpt lat="41.8891307" lon="1.7717036"><ele>597.0</ele><time>2026-04-25T11:09:42.094Z</time></trkpt><trkpt lat="41.8890102" lon="1.7713993"><ele>596.0</ele><time>2026-04-25T11:09:43.093Z</time></trkpt><trkpt lat="41.8889308" lon="1.7710909"><ele>594.0</ele><time>2026-04-25T11:09:44.094Z</time></trkpt><trkpt lat="41.8888794" lon="1.7707708"><ele>592.0</ele><time>2026-04-25T11:09:45.094Z</time></trkpt><trkpt lat="41.8888123" lon="1.7705"><ele>592.0</ele><time>2026-04-25T11:09:46.094Z</time></trkpt><trkpt lat="41.888684" lon="1.7702199"><ele>592.0</ele><time>2026-04-25T11:09:47.094Z</time></trkpt><trkpt lat="41.8884995" lon="1.7699233"><ele>591.0</ele><time>2026-04-25T11:09:48.094Z</time></trkpt><trkpt lat="41.8882796" lon="1.7696114"><ele>590.0</ele><time>2026-04-25T11:09:49.094Z</time></trkpt><trkpt lat="41.888023" lon="1.7692682"><ele>592.0</ele><time>2026-04-25T11:09:50.093Z</time></trkpt><trkpt lat="41.8877565" lon="1.7689001"><ele>594.0</ele><time>2026-04-25T11:09:51.093Z</time></trkpt><trkpt lat="41.8875143" lon="1.76856"><ele>594.5</ele><time>2026-04-25T11:09:52.094Z</time></trkpt><trkpt lat="41.8873046" lon="1.7682622"><ele>595.0</ele><time>2026-04-25T11:09:53.093Z</time></trkpt><trkpt lat="41.8871189" lon="1.7680041"><ele>595.0</ele><time>2026-04-25T11:09:54.095Z</time></trkpt><trkpt lat="41.8869402" lon="1.7677932"><ele>595.0</ele><time>2026-04-25T11:09:55.093Z</time></trkpt><trkpt lat="41.8867428" lon="1.7676133"><ele>594.3333333333334</ele><time>2026-04-25T11:09:56.094Z</time></trkpt><trkpt lat="41.8865419" lon="1.7674882"><ele>593.6666666666666</ele><time>2026-04-25T11:09:57.094Z</time></trkpt><trkpt lat="41.8863285" lon="1.7674198"><ele>593.0</ele><time>2026-04-25T11:09:58.094Z</time></trkpt><trkpt lat="41.8860677" lon="1.7673953"><ele>586.5</ele><time>2026-04-25T11:09:59.094Z</time></trkpt><trkpt lat="41.8857663" lon="1.7673716"><ele>580.0</ele><time>2026-04-25T11:10:00.094Z</time></trkpt><trkpt lat="41.8854533" lon="1.7673035"><ele>580.0</ele><time>2026-04-25T11:10:01.093Z</time></trkpt><trkpt lat="41.8851484" lon="1.7672074"><ele>580.0</ele><time>2026-04-25T11:10:02.093Z</time></trkpt><trkpt lat="41.8848709" lon="1.7671337"><ele>572.0</ele><time>2026-04-25T11:10:03.094Z</time></trkpt><trkpt lat="41.8845953" lon="1.7671057"><ele>564.0</ele><time>2026-04-25T11:10:04.093Z</time></trkpt><trkpt lat="41.8843053" lon="1.7671161"><ele>559.5</ele><time>2026-04-25T11:10:05.093Z</time></trkpt><trkpt lat="41.8840607" lon="1.7671179"><ele>555.0</ele><time>2026-04-25T11:10:06.093Z</time></trkpt><trkpt lat="41.8838388" lon="1.7671008"><ele>555.0</ele><time>2026-04-25T11:10:07.093Z</time></trkpt><trkpt lat="41.8836444" lon="1.7671252"><ele>555.0</ele><time>2026-04-25T11:10:08.094Z</time></trkpt><trkpt lat="41.8834498" lon="1.7672295"><ele>555.0</ele><time>2026-04-25T11:10:09.093Z</time></trkpt><trkpt lat="41.8832488" lon="1.7673964"><ele>558.0</ele><time>2026-04-25T11:10:10.095Z</time></trkpt><trkpt lat="41.8830781" lon="1.7675531"><ele>561.0</ele><time>2026-04-25T11:10:11.093Z</time></trkpt><trkpt lat="41.882922" lon="1.7676719"><ele>564.0</ele><time>2026-04-25T11:10:12.094Z</time></trkpt><trkpt lat="41.8827573" lon="1.7677302"><ele>564.6666666666666</ele><time>2026-04-25T11:10:13.094Z</time></trkpt><trkpt lat="41.882577" lon="1.7677035"><ele>565.3333333333333</ele><time>2026-04-25T11:10:14.094Z</time></trkpt><trkpt lat="41.8823695" lon="1.7676277"><ele>566.0</ele><time>2026-04-25T11:10:15.093Z</time></trkpt><trkpt lat="41.8821495" lon="1.7675857"><ele>566.0</ele><time>2026-04-25T11:10:16.095Z</time></trkpt><trkpt lat="41.8818984" lon="1.7676154"><ele>566.0</ele><time>2026-04-25T11:10:17.093Z</time></trkpt><trkpt lat="41.8816393" lon="1.7676661"><ele>549.5</ele><time>2026-04-25T11:10:18.093Z</time></trkpt><trkpt lat="41.881397" lon="1.7677587"><ele>533.0</ele><time>2026-04-25T11:10:19.094Z</time></trkpt><trkpt lat="41.8811725" lon="1.767883"><ele>533.0</ele><time>2026-04-25T11:10:20.095Z</time></trkpt><trkpt lat="41.8809745" lon="1.7679777"><ele>533.0</ele><time>2026-04-25T11:10:21.093Z</time></trkpt><trkpt lat="41.8807542" lon="1.7680118"><ele>533.0</ele><time>2026-04-25T11:10:22.093Z</time></trkpt><trkpt lat="41.8805283" lon="1.7680014"><ele>533.0</ele><time>2026-04-25T11:10:23.093Z</time></trkpt><trkpt lat="41.8803266" lon="1.7679422"><ele>533.0</ele><time>2026-04-25T11:10:24.093Z</time></trkpt><trkpt lat="41.880143" lon="1.767841"><ele>533.0</ele><time>2026-04-25T11:10:25.094Z</time></trkpt><trkpt lat="41.8800021" lon="1.7677174"><ele>536.3333333333333</ele><time>2026-04-25T11:10:26.094Z</time></trkpt><trkpt lat="41.879893" lon="1.7675418"><ele>539.6666666666666</ele><time>2026-04-25T11:10:27.094Z</time></trkpt><trkpt lat="41.879807" lon="1.7673268"><ele>543.0</ele><time>2026-04-25T11:10:28.094Z</time></trkpt><trkpt lat="41.8797076" lon="1.7671751"><ele>543.0</ele><time>2026-04-25T11:10:29.093Z</time></trkpt><trkpt lat="41.8795934" lon="1.7670762"><ele>543.0</ele><time>2026-04-25T11:10:30.093Z</time></trkpt><trkpt lat="41.8794508" lon="1.7669896"><ele>543.0</ele><time>2026-04-25T11:10:31.094Z</time></trkpt><trkpt lat="41.8792399" lon="1.7669605"><ele>537.5</ele><time>2026-04-25T11:10:32.094Z</time></trkpt><trkpt lat="41.879003" lon="1.7669679"><ele>532.0</ele><time>2026-04-25T11:10:33.093Z</time></trkpt><trkpt lat="41.8786771" lon="1.7671004"><ele>532.0</ele><time>2026-04-25T11:10:34.093Z</time></trkpt><trkpt lat="41.8784562" lon="1.7671885"><ele>532.0</ele><time>2026-04-25T11:10:35.094Z</time></trkpt><trkpt lat="41.8782185" lon="1.7673569"><ele>530.6666666666667</ele><time>2026-04-25T11:10:36.094Z</time></trkpt><trkpt lat="41.8780247" lon="1.7675198"><ele>529.3333333333334</ele><time>2026-04-25T11:10:37.093Z</time></trkpt><trkpt lat="41.877858" lon="1.7676493"><ele>528.0</ele><time>2026-04-25T11:10:38.093Z</time></trkpt><trkpt lat="41.8776945" lon="1.7677213"><ele>526.6666666666666</ele><time>2026-04-25T11:10:39.095Z</time></trkpt><trkpt lat="41.8775153" lon="1.7677262"><ele>525.3333333333333</ele><time>2026-04-25T11:10:40.093Z</time></trkpt><trkpt lat="41.8772965" lon="1.7676559"><ele>524.0</ele><time>2026-04-25T11:10:41.094Z</time></trkpt><trkpt lat="41.8770445" lon="1.7675334"><ele>521.5</ele><time>2026-04-25T11:10:42.095Z</time></trkpt><trkpt lat="41.876757" lon="1.7673712"><ele>519.0</ele><time>2026-04-25T11:10:43.094Z</time></trkpt><trkpt lat="41.8764631" lon="1.7671946"><ele>519.0</ele><time>2026-04-25T11:10:44.094Z</time></trkpt><trkpt lat="41.87621" lon="1.7669932"><ele>519.0</ele><time>2026-04-25T11:10:45.095Z</time></trkpt><trkpt lat="41.8759696" lon="1.7667405"><ele>516.5</ele><time>2026-04-25T11:10:46.094Z</time></trkpt><trkpt lat="41.8757692" lon="1.7665022"><ele>514.0</ele><time>2026-04-25T11:10:47.094Z</time></trkpt><trkpt lat="41.8755843" lon="1.7662996"><ele>514.0</ele><time>2026-04-25T11:10:48.094Z</time></trkpt><trkpt lat="41.8754109" lon="1.7661452"><ele>514.0</ele><time>2026-04-25T11:10:49.094Z</time></trkpt><trkpt lat="41.8752173" lon="1.766036"><ele>514.0</ele><time>2026-04-25T11:10:50.094Z</time></trkpt><trkpt lat="41.8749844" lon="1.7659877"><ele>515.0</ele><time>2026-04-25T11:10:51.094Z</time></trkpt><trkpt lat="41.8747259" lon="1.7660095"><ele>516.0</ele><time>2026-04-25T11:10:52.094Z</time></trkpt><trkpt lat="41.8744333" lon="1.7660821"><ele>512.0</ele><time>2026-04-25T11:10:53.094Z</time></trkpt><trkpt lat="41.8741708" lon="1.7661532"><ele>508.0</ele><time>2026-04-25T11:10:54.094Z</time></trkpt><trkpt lat="41.8739332" lon="1.7662079"><ele>508.0</ele><time>2026-04-25T11:10:55.094Z</time></trkpt><trkpt lat="41.8737133" lon="1.7662315"><ele>508.0</ele><time>2026-04-25T11:10:56.094Z</time></trkpt><trkpt lat="41.8734816" lon="1.7661867"><ele>510.0</ele><time>2026-04-25T11:10:57.095Z</time></trkpt><trkpt lat="41.873205" lon="1.7661013"><ele>512.0</ele><time>2026-04-25T11:10:58.094Z</time></trkpt><trkpt lat="41.872894" lon="1.765989"><ele>509.5</ele><time>2026-04-25T11:10:59.093Z</time></trkpt><trkpt lat="41.8725461" lon="1.765864"><ele>507.0</ele><time>2026-04-25T11:11:00.094Z</time></trkpt><trkpt lat="41.8721673" lon="1.7657278"><ele>507.0</ele><time>2026-04-25T11:11:01.094Z</time></trkpt><trkpt lat="41.8718124" lon="1.7655955"><ele>507.0</ele><time>2026-04-25T11:11:02.094Z</time></trkpt><trkpt lat="41.8714822" lon="1.7654754"><ele>501.5</ele><time>2026-04-25T11:11:03.094Z</time></trkpt><trkpt lat="41.8711754" lon="1.7653637"><ele>496.0</ele><time>2026-04-25T11:11:04.094Z</time></trkpt><trkpt lat="41.870896" lon="1.7652628"><ele>497.5</ele><time>2026-04-25T11:11:05.094Z</time></trkpt><trkpt lat="41.8706169" lon="1.7651666"><ele>499.0</ele><time>2026-04-25T11:11:06.093Z</time></trkpt><trkpt lat="41.8703703" lon="1.7651436"><ele>500.5</ele><time>2026-04-25T11:11:07.094Z</time></trkpt><trkpt lat="41.8700902" lon="1.7651443"><ele>502.0</ele><time>2026-04-25T11:11:08.095Z</time></trkpt><trkpt lat="41.8698527" lon="1.7651664"><ele>502.0</ele><time>2026-04-25T11:11:09.093Z</time></trkpt><trkpt lat="41.8696465" lon="1.7651692"><ele>502.0</ele><time>2026-04-25T11:11:10.094Z</time></trkpt><trkpt lat="41.8694574" lon="1.7651195"><ele>502.0</ele><time>2026-04-25T11:11:11.094Z</time></trkpt><trkpt lat="41.8692376" lon="1.7650014"><ele>502.0</ele><time>2026-04-25T11:11:12.094Z</time></trkpt><trkpt lat="41.8690032" lon="1.7648732"><ele>502.0</ele><time>2026-04-25T11:11:13.094Z</time></trkpt><trkpt lat="41.868733" lon="1.7647869"><ele>497.5</ele><time>2026-04-25T11:11:14.094Z</time></trkpt><trkpt lat="41.868424" lon="1.7647265"><ele>493.0</ele><time>2026-04-25T11:11:15.094Z</time></trkpt><trkpt lat="41.8681456" lon="1.7646875"><ele>493.0</ele><time>2026-04-25T11:11:16.093Z</time></trkpt><trkpt lat="41.8679018" lon="1.7646502"><ele>493.0</ele><time>2026-04-25T11:11:17.093Z</time></trkpt><trkpt lat="41.8676727" lon="1.7645866"><ele>493.0</ele><time>2026-04-25T11:11:18.094Z</time></trkpt><trkpt lat="41.8674162" lon="1.7644526"><ele>493.0</ele><time>2026-04-25T11:11:19.093Z</time></trkpt><trkpt lat="41.8671616" lon="1.764329"><ele>492.5</ele><time>2026-04-25T11:11:20.094Z</time></trkpt><trkpt lat="41.8668959" lon="1.7641708"><ele>492.0</ele><time>2026-04-25T11:11:21.093Z</time></trkpt><trkpt lat="41.8665491" lon="1.7639115"><ele>490.0</ele><time>2026-04-25T11:11:22.093Z</time></trkpt><trkpt lat="41.8662315" lon="1.7637056"><ele>488.0</ele><time>2026-04-25T11:11:23.094Z</time></trkpt><trkpt lat="41.8659701" lon="1.7635297"><ele>484.5</ele><time>2026-04-25T11:11:24.094Z</time></trkpt><trkpt lat="41.8657002" lon="1.76339"><ele>481.0</ele><time>2026-04-25T11:11:25.094Z</time></trkpt><trkpt lat="41.8654343" lon="1.7632963"><ele>481.0</ele><time>2026-04-25T11:11:26.093Z</time></trkpt><trkpt lat="41.8651286" lon="1.7632365"><ele>481.0</ele><time>2026-04-25T11:11:27.094Z</time></trkpt><trkpt lat="41.8648675" lon="1.7632005"><ele>479.33333333333337</ele><time>2026-04-25T11:11:28.093Z</time></trkpt><trkpt lat="41.8646449" lon="1.7631638"><ele>477.66666666666663</ele><time>2026-04-25T11:11:29.094Z</time></trkpt><trkpt lat="41.8644514" lon="1.7630964"><ele>476.0</ele><time>2026-04-25T11:11:30.094Z</time></trkpt><trkpt lat="41.8642698" lon="1.762966"><ele>475.0</ele><time>2026-04-25T11:11:31.094Z</time></trkpt><trkpt lat="41.8640967" lon="1.7627543"><ele>474.0</ele><time>2026-04-25T11:11:32.094Z</time></trkpt><trkpt lat="41.8639049" lon="1.7625016"><ele>474.0</ele><time>2026-04-25T11:11:33.093Z</time></trkpt><trkpt lat="41.8636696" lon="1.7622709"><ele>474.0</ele><time>2026-04-25T11:11:34.094Z</time></trkpt><trkpt lat="41.8634029" lon="1.762056"><ele>470.5</ele><time>2026-04-25T11:11:35.093Z</time></trkpt><trkpt lat="41.8631693" lon="1.761876"><ele>467.0</ele><time>2026-04-25T11:11:36.093Z</time></trkpt><trkpt lat="41.8629065" lon="1.7617483"><ele>466.5</ele><time>2026-04-25T11:11:37.094Z</time></trkpt><trkpt lat="41.8626257" lon="1.7616811"><ele>466.0</ele><time>2026-04-25T11:11:38.093Z</time></trkpt><trkpt lat="41.8623342" lon="1.7616588"><ele>466.0</ele><time>2026-04-25T11:11:39.095Z</time></trkpt><trkpt lat="41.8620363" lon="1.7617082"><ele>466.0</ele><time>2026-04-25T11:11:40.093Z</time></trkpt><trkpt lat="41.8617122" lon="1.7618049"><ele>460.0</ele><time>2026-04-25T11:11:41.094Z</time></trkpt><trkpt lat="41.8613911" lon="1.7619141"><ele>454.0</ele><time>2026-04-25T11:11:42.095Z</time></trkpt><trkpt lat="41.8611194" lon="1.7620177"><ele>459.0</ele><time>2026-04-25T11:11:43.094Z</time></trkpt><trkpt lat="41.8608342" lon="1.7621795"><ele>464.0</ele><time>2026-04-25T11:11:44.094Z</time></trkpt><trkpt lat="41.8605359" lon="1.7623736"><ele>464.0</ele><time>2026-04-25T11:11:45.093Z</time></trkpt><trkpt lat="41.8602798" lon="1.7625359"><ele>464.0</ele><time>2026-04-25T11:11:46.093Z</time></trkpt><trkpt lat="41.8600609" lon="1.7626744"><ele>463.66666666666663</ele><time>2026-04-25T11:11:47.094Z</time></trkpt><trkpt lat="41.8598724" lon="1.7628156"><ele>463.33333333333337</ele><time>2026-04-25T11:11:48.094Z</time></trkpt><trkpt lat="41.8597212" lon="1.7629929"><ele>463.0</ele><time>2026-04-25T11:11:49.094Z</time></trkpt><trkpt lat="41.859598" lon="1.7632384"><ele>463.0</ele><time>2026-04-25T11:11:50.094Z</time></trkpt><trkpt lat="41.8595029" lon="1.7635153"><ele>463.0</ele><time>2026-04-25T11:11:51.093Z</time></trkpt><trkpt lat="41.8594277" lon="1.7637346"><ele>463.0</ele><time>2026-04-25T11:11:52.093Z</time></trkpt><trkpt lat="41.8593242" lon="1.7639169"><ele>464.6666666666667</ele><time>2026-04-25T11:11:53.094Z</time></trkpt><trkpt lat="41.8591878" lon="1.764042"><ele>466.33333333333337</ele><time>2026-04-25T11:11:54.095Z</time></trkpt><trkpt lat="41.8590394" lon="1.7641004"><ele>468.0</ele><time>2026-04-25T11:11:55.093Z</time></trkpt><trkpt lat="41.8588469" lon="1.764093"><ele>468.0</ele><time>2026-04-25T11:11:56.093Z</time></trkpt><trkpt lat="41.8585967" lon="1.7640298"><ele>468.0</ele><time>2026-04-25T11:11:57.094Z</time></trkpt><trkpt lat="41.8583023" lon="1.7639412"><ele>463.0</ele><time>2026-04-25T11:11:58.094Z</time></trkpt><trkpt lat="41.8579786" lon="1.7638742"><ele>458.0</ele><time>2026-04-25T11:11:59.093Z</time></trkpt><trkpt lat="41.8577152" lon="1.7638344"><ele>456.66666666666663</ele><time>2026-04-25T11:12:00.094Z</time></trkpt><trkpt lat="41.8574942" lon="1.7638025"><ele>455.33333333333337</ele><time>2026-04-25T11:12:01.094Z</time></trkpt><trkpt lat="41.8572978" lon="1.7637371"><ele>454.0</ele><time>2026-04-25T11:12:02.094Z</time></trkpt><trkpt lat="41.8571" lon="1.7635878"><ele>458.0</ele><time>2026-04-25T11:12:03.094Z</time></trkpt><trkpt lat="41.856894" lon="1.7634198"><ele>462.0</ele><time>2026-04-25T11:12:04.095Z</time></trkpt><trkpt lat="41.8567138" lon="1.763329"><ele>466.0</ele><time>2026-04-25T11:12:05.095Z</time></trkpt><trkpt lat="41.8565393" lon="1.7632967"><ele>466.0</ele><time>2026-04-25T11:12:06.094Z</time></trkpt><trkpt lat="41.856369" lon="1.7633515"><ele>466.0</ele><time>2026-04-25T11:12:07.094Z</time></trkpt><trkpt lat="41.8562218" lon="1.763481"><ele>466.0</ele><time>2026-04-25T11:12:08.093Z</time></trkpt><trkpt lat="41.8560861" lon="1.7636964"><ele>463.6666666666667</ele><time>2026-04-25T11:12:09.094Z</time></trkpt><trkpt lat="41.8559695" lon="1.7639276"><ele>461.33333333333337</ele><time>2026-04-25T11:12:10.093Z</time></trkpt><trkpt lat="41.855853" lon="1.7641125"><ele>459.0</ele><time>2026-04-25T11:12:11.094Z</time></trkpt><trkpt lat="41.8556925" lon="1.7642533"><ele>453.5</ele><time>2026-04-25T11:12:12.094Z</time></trkpt><trkpt lat="41.8554717" lon="1.7644065"><ele>448.0</ele><time>2026-04-25T11:12:13.094Z</time></trkpt><trkpt lat="41.8552445" lon="1.7645975"><ele>449.0</ele><time>2026-04-25T11:12:14.093Z</time></trkpt><trkpt lat="41.8550652" lon="1.7647533"><ele>450.0</ele><time>2026-04-25T11:12:15.094Z</time></trkpt><trkpt lat="41.8548759" lon="1.7648465"><ele>451.0</ele><time>2026-04-25T11:12:16.094Z</time></trkpt><trkpt lat="41.8546433" lon="1.7648936"><ele>451.0</ele><time>2026-04-25T11:12:17.094Z</time></trkpt><trkpt lat="41.8543875" lon="1.7649295"><ele>451.0</ele><time>2026-04-25T11:12:18.094Z</time></trkpt><trkpt lat="41.8541843" lon="1.7649614"><ele>451.0</ele><time>2026-04-25T11:12:19.094Z</time></trkpt><trkpt lat="41.8540034" lon="1.7650315"><ele>451.0</ele><time>2026-04-25T11:12:20.094Z</time></trkpt><trkpt lat="41.8538267" lon="1.7651942"><ele>451.0</ele><time>2026-04-25T11:12:21.095Z</time></trkpt><trkpt lat="41.8536704" lon="1.7653332"><ele>451.0</ele><time>2026-04-25T11:12:22.094Z</time></trkpt><trkpt lat="41.8535184" lon="1.7654016"><ele>451.0</ele><time>2026-04-25T11:12:23.094Z</time></trkpt><trkpt lat="41.8533487" lon="1.7653925"><ele>451.0</ele><time>2026-04-25T11:12:24.095Z</time></trkpt><trkpt lat="41.8531486" lon="1.765304"><ele>449.5</ele><time>2026-04-25T11:12:25.094Z</time></trkpt><trkpt lat="41.852897" lon="1.7652009"><ele>448.0</ele><time>2026-04-25T11:12:26.094Z</time></trkpt><trkpt lat="41.8525932" lon="1.7651188"><ele>448.0</ele><time>2026-04-25T11:12:27.093Z</time></trkpt><trkpt lat="41.8522645" lon="1.7650473"><ele>448.0</ele><time>2026-04-25T11:12:28.094Z</time></trkpt><trkpt lat="41.8519983" lon="1.7649908"><ele>448.6666666666667</ele><time>2026-04-25T11:12:29.094Z</time></trkpt><trkpt lat="41.8517842" lon="1.7649479"><ele>449.33333333333337</ele><time>2026-04-25T11:12:30.094Z</time></trkpt><trkpt lat="41.8516007" lon="1.7649328"><ele>450.0</ele><time>2026-04-25T11:12:31.095Z</time></trkpt><trkpt lat="41.8514049" lon="1.7649443"><ele>450.0</ele><time>2026-04-25T11:12:32.093Z</time></trkpt><trkpt lat="41.8512659" lon="1.7651617"><ele>450.0</ele><time>2026-04-25T11:12:33.093Z</time></trkpt><trkpt lat="41.851118" lon="1.7653156"><ele>450.0</ele><time>2026-04-25T11:12:34.094Z</time></trkpt><trkpt lat="41.8509663" lon="1.7653969"><ele>451.0</ele><time>2026-04-25T11:12:35.094Z</time></trkpt><trkpt lat="41.8508141" lon="1.7654228"><ele>452.0</ele><time>2026-04-25T11:12:36.093Z</time></trkpt><trkpt lat="41.8593242" lon="1.7639169"><ele>457.3333333333333</ele><time>2026-04-25T11:11:53.094Z</time></trkpt><trkpt lat="41.8591878" lon="1.764042"><ele>462.66666666666663</ele><time>2026-04-25T11:11:54.095Z</time></trkpt><trkpt lat="41.8590394" lon="1.7641004"><ele>468.0</ele><time>2026-04-25T11:11:55.093Z</time></trkpt><trkpt lat="41.8588469" lon="1.764093"><ele>468.0</ele><time>2026-04-25T11:11:56.093Z</time></trkpt><trkpt lat="41.8585967" lon="1.7640298"><ele>468.0</ele><time>2026-04-25T11:11:57.094Z</time></trkpt><trkpt lat="41.8583023" lon="1.7639412"><ele>463.0</ele><time>2026-04-25T11:11:58.094Z</time></trkpt><trkpt lat="41.8579786" lon="1.7638742"><ele>458.0</ele><time>2026-04-25T11:11:59.093Z</time></trkpt><trkpt lat="41.8577152" lon="1.7638344"><ele>456.66666666666663</ele><time>2026-04-25T11:12:00.094Z</time></trkpt><trkpt lat="41.8574942" lon="1.7638025"><ele>455.33333333333337</ele><time>2026-04-25T11:12:01.094Z</time></trkpt><trkpt lat="41.8572978" lon="1.7637371"><ele>454.0</ele><time>2026-04-25T11:12:02.094Z</time></trkpt><trkpt lat="41.8571" lon="1.7635878"><ele>458.0</ele><time>2026-04-25T11:12:03.094Z</time></trkpt><trkpt lat="41.856894" lon="1.7634198"><ele>462.0</ele><time>2026-04-25T11:12:04.095Z</time></trkpt><trkpt lat="41.8567138" lon="1.763329"><ele>466.0</ele><time>2026-04-25T11:12:05.095Z</time></trkpt><trkpt lat="41.8565393" lon="1.7632967"><ele>466.0</ele><time>2026-04-25T11:12:06.094Z</time></trkpt><trkpt lat="41.856369" lon="1.7633515"><ele>466.0</ele><time>2026-04-25T11:12:07.094Z</time></trkpt><trkpt lat="41.8562218" lon="1.763481"><ele>466.0</ele><time>2026-04-25T11:12:08.093Z</time></trkpt><trkpt lat="41.8560861" lon="1.7636964"><ele>463.6666666666667</ele><time>2026-04-25T11:12:09.094Z</time></trkpt><trkpt lat="41.8559695" lon="1.7639276"><ele>461.33333333333337</ele><time>2026-04-25T11:12:10.093Z</time></trkpt><trkpt lat="41.855853" lon="1.7641125"><ele>459.0</ele><time>2026-04-25T11:12:11.094Z</time></trkpt><trkpt lat="41.8556925" lon="1.7642533"><ele>453.5</ele><time>2026-04-25T11:12:12.094Z</time></trkpt><trkpt lat="41.8554717" lon="1.7644065"><ele>448.0</ele><time>2026-04-25T11:12:13.094Z</time></trkpt><trkpt lat="41.8552445" lon="1.7645975"><ele>449.0</ele><time>2026-04-25T11:12:14.093Z</time></trkpt><trkpt lat="41.8550652" lon="1.7647533"><ele>450.0</ele><time>2026-04-25T11:12:15.094Z</time></trkpt><trkpt lat="41.8548759" lon="1.7648465"><ele>451.0</ele><time>2026-04-25T11:12:16.094Z</time></trkpt><trkpt lat="41.8546433" lon="1.7648936"><ele>451.0</ele><time>2026-04-25T11:12:17.094Z</time></trkpt><trkpt lat="41.8543875" lon="1.7649295"><ele>451.0</ele><time>2026-04-25T11:12:18.094Z</time></trkpt><trkpt lat="41.8541843" lon="1.7649614"><ele>451.0</ele><time>2026-04-25T11:12:19.094Z</time></trkpt><trkpt lat="41.8540034" lon="1.7650315"><ele>451.0</ele><time>2026-04-25T11:12:20.094Z</time></trkpt><trkpt lat="41.8538267" lon="1.7651942"><ele>451.0</ele><time>2026-04-25T11:12:21.095Z</time></trkpt><trkpt lat="41.8536704" lon="1.7653332"><ele>451.0</ele><time>2026-04-25T11:12:22.094Z</time></trkpt><trkpt lat="41.8535184" lon="1.7654016"><ele>451.0</ele><time>2026-04-25T11:12:23.094Z</time></trkpt><trkpt lat="41.8533487" lon="1.7653925"><ele>451.0</ele><time>2026-04-25T11:12:24.095Z</time></trkpt><trkpt lat="41.8531486" lon="1.765304"><ele>449.5</ele><time>2026-04-25T11:12:25.094Z</time></trkpt><trkpt lat="41.852897" lon="1.7652009"><ele>448.0</ele><time>2026-04-25T11:12:26.094Z</time></trkpt><trkpt lat="41.8525932" lon="1.7651188"><ele>448.0</ele><time>2026-04-25T11:12:27.093Z</time></trkpt><trkpt lat="41.8522645" lon="1.7650473"><ele>448.0</ele><time>2026-04-25T11:12:28.094Z</time></trkpt><trkpt lat="41.8519983" lon="1.7649908"><ele>448.6666666666667</ele><time>2026-04-25T11:12:29.094Z</time></trkpt><trkpt lat="41.8517842" lon="1.7649479"><ele>449.33333333333337</ele><time>2026-04-25T11:12:30.094Z</time></trkpt><trkpt lat="41.8516007" lon="1.7649328"><ele>450.0</ele><time>2026-04-25T11:12:31.095Z</time></trkpt><trkpt lat="41.8514049" lon="1.7649443"><ele>450.0</ele><time>2026-04-25T11:12:32.093Z</time></trkpt><trkpt lat="41.8512659" lon="1.7651617"><ele>450.0</ele><time>2026-04-25T11:12:33.093Z</time></trkpt><trkpt lat="41.851118" lon="1.7653156"><ele>450.0</ele><time>2026-04-25T11:12:34.094Z</time></trkpt><trkpt lat="41.8509663" lon="1.7653969"><ele>450.0</ele><time>2026-04-25T11:12:35.094Z</time></trkpt><trkpt lat="41.8508141" lon="1.7654228"><ele>450.0</ele><time>2026-04-25T11:12:36.093Z</time></trkpt><trkpt lat="41.8506773" lon="1.7653973"><ele>450.0</ele><time>2026-04-25T11:12:37.095Z</time></trkpt><trkpt lat="41.8505263" lon="1.7653534"><ele>450.0</ele><time>2026-04-25T11:12:38.094Z</time></trkpt><trkpt lat="41.8504179" lon="1.7650996"><ele>450.0</ele><time>2026-04-25T11:12:39.094Z</time></trkpt><trkpt lat="41.8502993" lon="1.7649341"><ele>450.0</ele><time>2026-04-25T11:12:40.095Z</time></trkpt><trkpt lat="41.8501832" lon="1.7645482"><ele>448.0</ele><time>2026-04-25T11:12:41.093Z</time></trkpt><trkpt lat="41.8501083" lon="1.7643341"><ele>446.0</ele><time>2026-04-25T11:12:42.094Z</time></trkpt><trkpt lat="41.8500126" lon="1.764156"><ele>444.0</ele><time>2026-04-25T11:12:43.093Z</time></trkpt><trkpt lat="41.8499271" lon="1.7640395"><ele>444.0</ele><time>2026-04-25T11:12:44.094Z</time></trkpt><trkpt lat="41.8497644" lon="1.763968"><ele>444.0</ele><time>2026-04-25T11:12:45.094Z</time></trkpt><trkpt lat="41.8496506" lon="1.7639117"><ele>444.0</ele><time>2026-04-25T11:12:46.095Z</time></trkpt><trkpt lat="41.8494578" lon="1.7638916"><ele>442.0</ele><time>2026-04-25T11:12:47.094Z</time></trkpt><trkpt lat="41.8492211" lon="1.763969"><ele>440.0</ele><time>2026-04-25T11:12:48.094Z</time></trkpt><trkpt lat="41.8490709" lon="1.7642868"><ele>440.0</ele><time>2026-04-25T11:12:49.094Z</time></trkpt><trkpt lat="41.8489092" lon="1.7643415"><ele>440.0</ele><time>2026-04-25T11:12:50.094Z</time></trkpt><trkpt lat="41.8487252" lon="1.7643377"><ele>440.0</ele><time>2026-04-25T11:12:51.094Z</time></trkpt><trkpt lat="41.8484752" lon="1.7643119"><ele>439.0</ele><time>2026-04-25T11:12:52.094Z</time></trkpt><trkpt lat="41.8482002" lon="1.7642618"><ele>438.0</ele><time>2026-04-25T11:12:53.093Z</time></trkpt><trkpt lat="41.8479491" lon="1.7642196"><ele>438.0</ele><time>2026-04-25T11:12:54.093Z</time></trkpt><trkpt lat="41.8476835" lon="1.7642207"><ele>438.0</ele><time>2026-04-25T11:12:55.095Z</time></trkpt><trkpt lat="41.8474119" lon="1.7642885"><ele>423.5</ele><time>2026-04-25T11:12:56.093Z</time></trkpt><trkpt lat="41.8471748" lon="1.764375"><ele>409.0</ele><time>2026-04-25T11:12:57.093Z</time></trkpt><trkpt lat="41.8469632" lon="1.7644348"><ele>412.6666666666667</ele><time>2026-04-25T11:12:58.094Z</time></trkpt><trkpt lat="41.8467456" lon="1.7644862"><ele>416.33333333333337</ele><time>2026-04-25T11:12:59.094Z</time></trkpt><trkpt lat="41.8466152" lon="1.7644234"><ele>420.0</ele><time>2026-04-25T11:13:00.093Z</time></trkpt><trkpt lat="41.8464834" lon="1.764339"><ele>424.33333333333337</ele><time>2026-04-25T11:13:01.095Z</time></trkpt><trkpt lat="41.8463747" lon="1.764234"><ele>428.6666666666667</ele><time>2026-04-25T11:13:02.094Z</time></trkpt><trkpt lat="41.8462588" lon="1.7640368"><ele>433.0</ele><time>2026-04-25T11:13:03.094Z</time></trkpt><trkpt lat="41.846115" lon="1.7636859"><ele>430.0</ele><time>2026-04-25T11:13:04.093Z</time></trkpt><trkpt lat="41.845975" lon="1.7634863"><ele>427.0</ele><time>2026-04-25T11:13:05.095Z</time></trkpt><trkpt lat="41.8457816" lon="1.7632856"><ele>424.0</ele><time>2026-04-25T11:13:06.095Z</time></trkpt><trkpt lat="41.8455458" lon="1.7630593"><ele>424.0</ele><time>2026-04-25T11:13:07.093Z</time></trkpt><trkpt lat="41.8453023" lon="1.7628218"><ele>424.0</ele><time>2026-04-25T11:13:08.094Z</time></trkpt><trkpt lat="41.8451096" lon="1.7625684"><ele>420.5</ele><time>2026-04-25T11:13:09.094Z</time></trkpt><trkpt lat="41.8449423" lon="1.7622504"><ele>417.0</ele><time>2026-04-25T11:13:10.093Z</time></trkpt><trkpt lat="41.8447755" lon="1.7619567"><ele>414.33333333333337</ele><time>2026-04-25T11:13:11.093Z</time></trkpt><trkpt lat="41.8446898" lon="1.7617272"><ele>411.6666666666667</ele><time>2026-04-25T11:13:12.095Z</time></trkpt><trkpt lat="41.8445727" lon="1.7615391"><ele>409.0</ele><time>2026-04-25T11:13:13.094Z</time></trkpt><trkpt lat="41.8444553" lon="1.7613804"><ele>412.0</ele><time>2026-04-25T11:13:14.094Z</time></trkpt><trkpt lat="41.8442924" lon="1.7613843"><ele>415.0</ele><time>2026-04-25T11:13:15.095Z</time></trkpt><trkpt lat="41.844033" lon="1.7613818"><ele>418.0</ele><time>2026-04-25T11:13:16.094Z</time></trkpt><trkpt lat="41.8438202" lon="1.7613749"><ele>418.0</ele><time>2026-04-25T11:13:17.095Z</time></trkpt><trkpt lat="41.8436379" lon="1.7613389"><ele>418.0</ele><time>2026-04-25T11:13:18.094Z</time></trkpt><trkpt lat="41.8434648" lon="1.7612393"><ele>418.0</ele><time>2026-04-25T11:13:19.094Z</time></trkpt><trkpt lat="41.8432795" lon="1.761064"><ele>410.6666666666667</ele><time>2026-04-25T11:13:20.094Z</time></trkpt><trkpt lat="41.8430913" lon="1.7609124"><ele>403.33333333333337</ele><time>2026-04-25T11:13:21.093Z</time></trkpt><trkpt lat="41.8428854" lon="1.7608059"><ele>396.0</ele><time>2026-04-25T11:13:22.094Z</time></trkpt><trkpt lat="41.8427458" lon="1.7606391"><ele>396.0</ele><time>2026-04-25T11:13:23.095Z</time></trkpt><trkpt lat="41.8426348" lon="1.7604501"><ele>396.0</ele><time>2026-04-25T11:13:24.094Z</time></trkpt><trkpt lat="41.8425111" lon="1.7603059"><ele>396.0</ele><time>2026-04-25T11:13:25.094Z</time></trkpt><trkpt lat="41.8423409" lon="1.7602341"><ele>396.33333333333337</ele><time>2026-04-25T11:13:26.094Z</time></trkpt><trkpt lat="41.842178" lon="1.7601403"><ele>396.6666666666667</ele><time>2026-04-25T11:13:27.093Z</time></trkpt><trkpt lat="41.8419632" lon="1.7600105"><ele>397.0</ele><time>2026-04-25T11:13:28.093Z</time></trkpt><trkpt lat="41.8417829" lon="1.7598057"><ele>397.0</ele><time>2026-04-25T11:13:29.093Z</time></trkpt><trkpt lat="41.8415949" lon="1.7595487"><ele>397.0</ele><time>2026-04-25T11:13:30.094Z</time></trkpt><trkpt lat="41.8414234" lon="1.7592457"><ele>386.5</ele><time>2026-04-25T11:13:31.094Z</time></trkpt><trkpt lat="41.8412579" lon="1.7588895"><ele>376.0</ele><time>2026-04-25T11:13:32.093Z</time></trkpt><trkpt lat="41.8411159" lon="1.7585553"><ele>380.0</ele><time>2026-04-25T11:13:33.094Z</time></trkpt><trkpt lat="41.8409736" lon="1.7582475"><ele>384.0</ele><time>2026-04-25T11:13:34.095Z</time></trkpt><trkpt lat="41.8408626" lon="1.7579831"><ele>380.0</ele><time>2026-04-25T11:13:35.093Z</time></trkpt><trkpt lat="41.8407909" lon="1.7576964"><ele>376.0</ele><time>2026-04-25T11:13:36.094Z</time></trkpt><trkpt lat="41.8407664" lon="1.7574261"><ele>372.0</ele><time>2026-04-25T11:13:37.094Z</time></trkpt><trkpt lat="41.8407344" lon="1.7571984"><ele>372.0</ele><time>2026-04-25T11:13:38.094Z</time></trkpt><trkpt lat="41.8406628" lon="1.757016"><ele>372.0</ele><time>2026-04-25T11:13:39.094Z</time></trkpt><trkpt lat="41.8405191" lon="1.7568317"><ele>372.0</ele><time>2026-04-25T11:13:40.093Z</time></trkpt><trkpt lat="41.8403285" lon="1.7566161"><ele>374.0</ele><time>2026-04-25T11:13:41.094Z</time></trkpt><trkpt lat="41.8401602" lon="1.7564183"><ele>376.0</ele><time>2026-04-25T11:13:42.095Z</time></trkpt><trkpt lat="41.8400082" lon="1.756242"><ele>378.0</ele><time>2026-04-25T11:13:43.094Z</time></trkpt><trkpt lat="41.8398665" lon="1.7560793"><ele>371.3333333333333</ele><time>2026-04-25T11:13:44.094Z</time></trkpt><trkpt lat="41.8397344" lon="1.7559228"><ele>364.66666666666663</ele><time>2026-04-25T11:13:45.095Z</time></trkpt><trkpt lat="41.8396054" lon="1.7557734"><ele>358.0</ele><time>2026-04-25T11:13:46.095Z</time></trkpt><trkpt lat="41.8394798" lon="1.7556346"><ele>358.0</ele><time>2026-04-25T11:13:47.095Z</time></trkpt><trkpt lat="41.8393586" lon="1.7555022"><ele>358.0</ele><time>2026-04-25T11:13:48.094Z</time></trkpt><trkpt lat="41.8392395" lon="1.7553833"><ele>358.0</ele><time>2026-04-25T11:13:49.094Z</time></trkpt><trkpt lat="41.8391167" lon="1.7552842"><ele>358.0</ele><time>2026-04-25T11:13:50.093Z</time></trkpt><trkpt lat="41.8389942" lon="1.7552042"><ele>355.5</ele><time>2026-04-25T11:13:51.093Z</time></trkpt><trkpt lat="41.838876" lon="1.7551252"><ele>353.0</ele><time>2026-04-25T11:13:52.094Z</time></trkpt><trkpt lat="41.838763" lon="1.7550463"><ele>350.5</ele><time>2026-04-25T11:13:53.093Z</time></trkpt><trkpt lat="41.8386549" lon="1.7549642"><ele>348.0</ele><time>2026-04-25T11:13:54.094Z</time></trkpt><trkpt lat="41.8385503" lon="1.7548829"><ele>351.75</ele><time>2026-04-25T11:13:55.095Z</time></trkpt><trkpt lat="41.8384444" lon="1.7547941"><ele>355.5</ele><time>2026-04-25T11:13:56.094Z</time></trkpt><trkpt lat="41.8383407" lon="1.7547028"><ele>359.25</ele><time>2026-04-25T11:13:57.094Z</time></trkpt><trkpt lat="41.8382394" lon="1.7545974"><ele>363.0</ele><time>2026-04-25T11:13:58.094Z</time></trkpt><trkpt lat="41.8381403" lon="1.7544832"><ele>357.0</ele><time>2026-04-25T11:13:59.094Z</time></trkpt><trkpt lat="41.8380419" lon="1.7543672"><ele>351.0</ele><time>2026-04-25T11:14:00.093Z</time></trkpt><trkpt lat="41.8379426" lon="1.7542529"><ele>345.0</ele><time>2026-04-25T11:14:01.094Z</time></trkpt><trkpt lat="41.8378461" lon="1.7541398"><ele>339.0</ele><time>2026-04-25T11:14:02.095Z</time></trkpt><trkpt lat="41.83775" lon="1.7540251"><ele>339.0</ele><time>2026-04-25T11:14:03.093Z</time></trkpt><trkpt lat="41.8376535" lon="1.7539048"><ele>339.0</ele><time>2026-04-25T11:14:04.093Z</time></trkpt><trkpt lat="41.8375591" lon="1.7537798"><ele>339.0</ele><time>2026-04-25T11:14:05.093Z</time></trkpt><trkpt lat="41.8374662" lon="1.7536558"><ele>339.0</ele><time>2026-04-25T11:14:06.094Z</time></trkpt><trkpt lat="41.8373679" lon="1.7535394"><ele>337.5</ele><time>2026-04-25T11:14:07.094Z</time></trkpt><trkpt lat="41.8372689" lon="1.7534341"><ele>336.0</ele><time>2026-04-25T11:14:08.094Z</time></trkpt><trkpt lat="41.8371682" lon="1.7533314"><ele>334.5</ele><time>2026-04-25T11:14:09.094Z</time></trkpt><trkpt lat="41.8370685" lon="1.7532333"><ele>333.0</ele><time>2026-04-25T11:14:10.095Z</time></trkpt><trkpt lat="41.8369713" lon="1.7531415"><ele>333.0</ele><time>2026-04-25T11:14:11.094Z</time></trkpt><trkpt lat="41.8368774" lon="1.75305"><ele>333.0</ele><time>2026-04-25T11:14:12.095Z</time></trkpt><trkpt lat="41.8367856" lon="1.7529637"><ele>333.0</ele><time>2026-04-25T11:14:13.094Z</time></trkpt><trkpt lat="41.8366993" lon="1.7528828"><ele>333.0</ele><time>2026-04-25T11:14:14.094Z</time></trkpt><trkpt lat="41.8366123" lon="1.7528084"><ele>333.0</ele><time>2026-04-25T11:14:15.093Z</time></trkpt><trkpt lat="41.8365225" lon="1.7527497"><ele>332.5</ele><time>2026-04-25T11:14:16.093Z</time></trkpt><trkpt lat="41.8364315" lon="1.7527034"><ele>332.0</ele><time>2026-04-25T11:14:17.093Z</time></trkpt><trkpt lat="41.836343" lon="1.7526732"><ele>331.5</ele><time>2026-04-25T11:14:18.094Z</time></trkpt><trkpt lat="41.8362595" lon="1.7526559"><ele>331.0</ele><time>2026-04-25T11:14:19.094Z</time></trkpt><trkpt lat="41.8361764" lon="1.7526526"><ele>330.5</ele><time>2026-04-25T11:14:20.094Z</time></trkpt><trkpt lat="41.8360916" lon="1.7526659"><ele>330.0</ele><time>2026-04-25T11:14:21.095Z</time></trkpt><trkpt lat="41.8360074" lon="1.7526907"><ele>332.8333333333333</ele><time>2026-04-25T11:14:22.094Z</time></trkpt><trkpt lat="41.8359267" lon="1.7527306"><ele>335.6666666666667</ele><time>2026-04-25T11:14:23.093Z</time></trkpt><trkpt lat="41.8358538" lon="1.7527809"><ele>338.5</ele><time>2026-04-25T11:14:24.094Z</time></trkpt><trkpt lat="41.8357846" lon="1.7528412"><ele>341.33333333333337</ele><time>2026-04-25T11:14:25.093Z</time></trkpt><trkpt lat="41.8357266" lon="1.752914"><ele>344.1666666666667</ele><time>2026-04-25T11:14:26.095Z</time></trkpt><trkpt lat="41.8356742" lon="1.7529909"><ele>347.0</ele><time>2026-04-25T11:14:27.094Z</time></trkpt><trkpt lat="41.8356302" lon="1.7530722"><ele>347.0</ele><time>2026-04-25T11:14:28.094Z</time></trkpt><trkpt lat="41.8355891" lon="1.7531601"><ele>347.0</ele><time>2026-04-25T11:14:29.093Z</time></trkpt><trkpt lat="41.8355508" lon="1.75325"><ele>347.0</ele><time>2026-04-25T11:14:30.094Z</time></trkpt><trkpt lat="41.8355132" lon="1.7533481"><ele>347.0</ele><time>2026-04-25T11:14:31.093Z</time></trkpt><trkpt lat="41.835474" lon="1.7534531"><ele>347.0</ele><time>2026-04-25T11:14:32.094Z</time></trkpt><trkpt lat="41.8354315" lon="1.7535635"><ele>347.0</ele><time>2026-04-25T11:14:33.095Z</time></trkpt><trkpt lat="41.8353891" lon="1.7536791"><ele>347.8</ele><time>2026-04-25T11:14:34.095Z</time></trkpt><trkpt lat="41.8353431" lon="1.7537974"><ele>348.6</ele><time>2026-04-25T11:14:35.094Z</time></trkpt><trkpt lat="41.8352982" lon="1.7539088"><ele>349.40000000000003</ele><time>2026-04-25T11:14:36.093Z</time></trkpt><trkpt lat="41.8352511" lon="1.7540138"><ele>350.20000000000005</ele><time>2026-04-25T11:14:37.094Z</time></trkpt><trkpt lat="41.8352018" lon="1.7541042"><ele>351.0</ele><time>2026-04-25T11:14:38.094Z</time></trkpt><trkpt lat="41.8351391" lon="1.7541792"><ele>348.6666666666667</ele><time>2026-04-25T11:14:39.093Z</time></trkpt><trkpt lat="41.8350654" lon="1.7542262"><ele>346.3333333333333</ele><time>2026-04-25T11:14:40.094Z</time></trkpt><trkpt lat="41.8349875" lon="1.7542501"><ele>344.0</ele><time>2026-04-25T11:14:41.094Z</time></trkpt><trkpt lat="41.8349074" lon="1.7542561"><ele>341.66666666666663</ele><time>2026-04-25T11:14:42.094Z</time></trkpt><trkpt lat="41.8348215" lon="1.7542435"><ele>339.3333333333333</ele><time>2026-04-25T11:14:43.094Z</time></trkpt><trkpt lat="41.834735" lon="1.7542078"><ele>337.0</ele><time>2026-04-25T11:14:44.095Z</time></trkpt><trkpt lat="41.8346479" lon="1.7541528"><ele>337.0</ele><time>2026-04-25T11:14:45.094Z</time></trkpt><trkpt lat="41.8345609" lon="1.7540881"><ele>337.0</ele><time>2026-04-25T11:14:46.094Z</time></trkpt><trkpt lat="41.8344759" lon="1.7540236"><ele>337.0</ele><time>2026-04-25T11:14:47.094Z</time></trkpt><trkpt lat="41.8343889" lon="1.753958"><ele>337.0</ele><time>2026-04-25T11:14:48.094Z</time></trkpt><trkpt lat="41.8343025" lon="1.7538937"><ele>337.0</ele><time>2026-04-25T11:14:49.094Z</time></trkpt><trkpt lat="41.8342237" lon="1.7538203"><ele>334.8</ele><time>2026-04-25T11:14:50.094Z</time></trkpt><trkpt lat="41.8341582" lon="1.7537302"><ele>332.6</ele><time>2026-04-25T11:14:51.094Z</time></trkpt><trkpt lat="41.834104" lon="1.753622"><ele>330.40000000000003</ele><time>2026-04-25T11:14:52.094Z</time></trkpt><trkpt lat="41.8340621" lon="1.7534993"><ele>328.20000000000005</ele><time>2026-04-25T11:14:53.094Z</time></trkpt><trkpt lat="41.8340289" lon="1.7533687"><ele>326.0</ele><time>2026-04-25T11:14:54.094Z</time></trkpt><trkpt lat="41.8339869" lon="1.7532379"><ele>324.0</ele><time>2026-04-25T11:14:55.093Z</time></trkpt><trkpt lat="41.8339356" lon="1.7531166"><ele>322.0</ele><time>2026-04-25T11:14:56.093Z</time></trkpt><trkpt lat="41.8338745" lon="1.7530052"><ele>320.0</ele><time>2026-04-25T11:14:57.094Z</time></trkpt><trkpt lat="41.8338064" lon="1.7529037"><ele>318.0</ele><time>2026-04-25T11:14:58.093Z</time></trkpt><trkpt lat="41.8337377" lon="1.7528084"><ele>316.0</ele><time>2026-04-25T11:14:59.094Z</time></trkpt><trkpt lat="41.8336688" lon="1.7527138"><ele>315.2</ele><time>2026-04-25T11:15:00.094Z</time></trkpt><trkpt lat="41.8336025" lon="1.7526207"><ele>314.40000000000003</ele><time>2026-04-25T11:15:01.093Z</time></trkpt><trkpt lat="41.833536" lon="1.7525299"><ele>313.6</ele><time>2026-04-25T11:15:02.095Z</time></trkpt><trkpt lat="41.8334683" lon="1.752436"><ele>312.8</ele><time>2026-04-25T11:15:03.094Z</time></trkpt><trkpt lat="41.8334002" lon="1.7523421"><ele>312.0</ele><time>2026-04-25T11:15:04.094Z</time></trkpt><trkpt lat="41.833325" lon="1.7522581"><ele>312.0</ele><time>2026-04-25T11:15:05.093Z</time></trkpt><trkpt lat="41.8332384" lon="1.7521945"><ele>312.0</ele><time>2026-04-25T11:15:06.094Z</time></trkpt><trkpt lat="41.8331457" lon="1.7521652"><ele>312.0</ele><time>2026-04-25T11:15:07.094Z</time></trkpt><trkpt lat="41.8330524" lon="1.752168"><ele>312.0</ele><time>2026-04-25T11:15:08.094Z</time></trkpt><trkpt lat="41.8329573" lon="1.7522008"><ele>312.0</ele><time>2026-04-25T11:15:09.093Z</time></trkpt><trkpt lat="41.8328713" lon="1.7522574"><ele>312.0</ele><time>2026-04-25T11:15:10.094Z</time></trkpt><trkpt lat="41.8327949" lon="1.7523244"><ele>312.0</ele><time>2026-04-25T11:15:11.093Z</time></trkpt><trkpt lat="41.832725" lon="1.7523938"><ele>312.0</ele><time>2026-04-25T11:15:12.093Z</time></trkpt><trkpt lat="41.832656" lon="1.7524701"><ele>312.0</ele><time>2026-04-25T11:15:13.093Z</time></trkpt><trkpt lat="41.8325868" lon="1.7525537"><ele>312.0</ele><time>2026-04-25T11:15:14.094Z</time></trkpt><trkpt lat="41.8325143" lon="1.7526408"><ele>311.0</ele><time>2026-04-25T11:15:15.095Z</time></trkpt><trkpt lat="41.8324405" lon="1.7527318"><ele>310.0</ele><time>2026-04-25T11:15:16.094Z</time></trkpt><trkpt lat="41.8323632" lon="1.7528217"><ele>309.0</ele><time>2026-04-25T11:15:17.094Z</time></trkpt><trkpt lat="41.8322861" lon="1.7529159"><ele>308.0</ele><time>2026-04-25T11:15:18.094Z</time></trkpt><trkpt lat="41.8322081" lon="1.753007"><ele>307.0</ele><time>2026-04-25T11:15:19.094Z</time></trkpt><trkpt lat="41.8321288" lon="1.7530985"><ele>307.0</ele><time>2026-04-25T11:15:20.094Z</time></trkpt><trkpt lat="41.8320508" lon="1.7531877"><ele>307.0</ele><time>2026-04-25T11:15:21.095Z</time></trkpt><trkpt lat="41.831973" lon="1.7532733"><ele>307.0</ele><time>2026-04-25T11:15:22.094Z</time></trkpt><trkpt lat="41.8318982" lon="1.7533554"><ele>307.0</ele><time>2026-04-25T11:15:23.094Z</time></trkpt><trkpt lat="41.8318267" lon="1.7534351"><ele>307.0</ele><time>2026-04-25T11:15:24.093Z</time></trkpt><trkpt lat="41.8317597" lon="1.7535123"><ele>305.8</ele><time>2026-04-25T11:15:25.095Z</time></trkpt><trkpt lat="41.8316873" lon="1.7535913"><ele>304.6</ele><time>2026-04-25T11:15:26.094Z</time></trkpt><trkpt lat="41.831617" lon="1.7536713"><ele>303.40000000000003</ele><time>2026-04-25T11:15:27.093Z</time></trkpt><trkpt lat="41.8315496" lon="1.7537553"><ele>302.2</ele><time>2026-04-25T11:15:28.094Z</time></trkpt><trkpt lat="41.8314904" lon="1.7538549"><ele>301.0</ele><time>2026-04-25T11:15:29.094Z</time></trkpt><trkpt lat="41.8314472" lon="1.7539627"><ele>301.0</ele><time>2026-04-25T11:15:30.094Z</time></trkpt><trkpt lat="41.8314168" lon="1.7540748"><ele>301.0</ele><time>2026-04-25T11:15:31.094Z</time></trkpt><trkpt lat="41.8313903" lon="1.75419"><ele>301.0</ele><time>2026-04-25T11:15:32.095Z</time></trkpt><trkpt lat="41.8313661" lon="1.7543071"><ele>301.0</ele><time>2026-04-25T11:15:33.095Z</time></trkpt><trkpt lat="41.8313393" lon="1.7544177"><ele>301.0</ele><time>2026-04-25T11:15:34.094Z</time></trkpt><trkpt lat="41.8313012" lon="1.7545234"><ele>301.0</ele><time>2026-04-25T11:15:35.094Z</time></trkpt><trkpt lat="41.831253" lon="1.7546121"><ele>300.66666666666663</ele><time>2026-04-25T11:15:36.093Z</time></trkpt><trkpt lat="41.8312056" lon="1.7546827"><ele>300.3333333333333</ele><time>2026-04-25T11:15:37.094Z</time></trkpt><trkpt lat="41.8311325" lon="1.754786"><ele>300.0</ele><time>2026-04-25T11:15:39.094Z</time></trkpt><trkpt lat="41.8310874" lon="1.7548594"><ele>299.6666666666667</ele><time>2026-04-25T11:16:32.094Z</time></trkpt><trkpt lat="41.8310337" lon="1.7549196"><ele>299.33333333333337</ele><time>2026-04-25T11:16:34.094Z</time></trkpt><trkpt lat="41.8309449" lon="1.7549179"><ele>299.0</ele><time>2026-04-25T11:16:36.095Z</time></trkpt><trkpt lat="41.8308543" lon="1.7548214"><ele>297.83333333333337</ele><time>2026-04-25T11:16:38.094Z</time></trkpt><trkpt lat="41.8308001" lon="1.7547547"><ele>296.6666666666667</ele><time>2026-04-25T11:16:39.094Z</time></trkpt><trkpt lat="41.8307403" lon="1.7546824"><ele>295.5</ele><time>2026-04-25T11:16:40.094Z</time></trkpt><trkpt lat="41.8306748" lon="1.7546078"><ele>294.3333333333333</ele><time>2026-04-25T11:16:41.093Z</time></trkpt><trkpt lat="41.8306057" lon="1.7545289"><ele>293.16666666666663</ele><time>2026-04-25T11:16:42.094Z</time></trkpt><trkpt lat="41.8305358" lon="1.7544464"><ele>292.0</ele><time>2026-04-25T11:16:43.094Z</time></trkpt><trkpt lat="41.8304668" lon="1.7543649"><ele>292.0</ele><time>2026-04-25T11:16:44.093Z</time></trkpt><trkpt lat="41.8304047" lon="1.7542917"><ele>292.0</ele><time>2026-04-25T11:16:45.094Z</time></trkpt><trkpt lat="41.830348" lon="1.7542263"><ele>292.0</ele><time>2026-04-25T11:16:46.094Z</time></trkpt><trkpt lat="41.8302888" lon="1.7541569"><ele>292.0</ele><time>2026-04-25T11:16:47.094Z</time></trkpt><trkpt lat="41.8302254" lon="1.7540816"><ele>292.0</ele><time>2026-04-25T11:16:48.093Z</time></trkpt><trkpt lat="41.8301593" lon="1.7540079"><ele>292.0</ele><time>2026-04-25T11:16:49.093Z</time></trkpt><trkpt lat="41.8300911" lon="1.7539341"><ele>291.0</ele><time>2026-04-25T11:16:50.094Z</time></trkpt><trkpt lat="41.8300223" lon="1.7538552"><ele>290.0</ele><time>2026-04-25T11:16:51.094Z</time></trkpt><trkpt lat="41.8299568" lon="1.7537795"><ele>289.0</ele><time>2026-04-25T11:16:52.094Z</time></trkpt><trkpt lat="41.8298994" lon="1.753716"><ele>288.0</ele><time>2026-04-25T11:16:53.095Z</time></trkpt><trkpt lat="41.8298184" lon="1.7536245"><ele>287.0</ele><time>2026-04-25T11:16:55.093Z</time></trkpt><trkpt lat="41.8297513" lon="1.7535382"><ele>287.0</ele><time>2026-04-25T11:17:11.094Z</time></trkpt><trkpt lat="41.8296664" lon="1.7534862"><ele>287.0</ele><time>2026-04-25T11:17:13.094Z</time></trkpt><trkpt lat="41.8295707" lon="1.753546"><ele>287.0</ele><time>2026-04-25T11:17:15.094Z</time></trkpt><trkpt lat="41.8295219" lon="1.7536205"><ele>287.0</ele><time>2026-04-25T11:17:16.094Z</time></trkpt><trkpt lat="41.8294652" lon="1.7537159"><ele>287.0</ele><time>2026-04-25T11:17:17.094Z</time></trkpt><trkpt lat="41.8294023" lon="1.7538155"><ele>287.0</ele><time>2026-04-25T11:17:18.093Z</time></trkpt><trkpt lat="41.8293275" lon="1.7539184"><ele>287.0</ele><time>2026-04-25T11:17:19.094Z</time></trkpt><trkpt lat="41.8292468" lon="1.7540171"><ele>287.0</ele><time>2026-04-25T11:17:20.093Z</time></trkpt><trkpt lat="41.8291662" lon="1.7541157"><ele>287.0</ele><time>2026-04-25T11:17:21.094Z</time></trkpt><trkpt lat="41.8290787" lon="1.7542105"><ele>287.0</ele><time>2026-04-25T11:17:22.093Z</time></trkpt><trkpt lat="41.8289887" lon="1.7543041"><ele>285.75</ele><time>2026-04-25T11:17:23.095Z</time></trkpt><trkpt lat="41.8288961" lon="1.7543984"><ele>284.5</ele><time>2026-04-25T11:17:24.094Z</time></trkpt><trkpt lat="41.8288027" lon="1.7544885"><ele>283.25</ele><time>2026-04-25T11:17:25.094Z</time></trkpt><trkpt lat="41.8287108" lon="1.7545775"><ele>282.0</ele><time>2026-04-25T11:17:26.094Z</time></trkpt><trkpt lat="41.8286202" lon="1.7546646"><ele>282.0</ele><time>2026-04-25T11:17:27.094Z</time></trkpt><trkpt lat="41.8285308" lon="1.7547507"><ele>282.0</ele><time>2026-04-25T11:17:28.094Z</time></trkpt><trkpt lat="41.8284432" lon="1.7548369"><ele>282.0</ele><time>2026-04-25T11:17:29.093Z</time></trkpt><trkpt lat="41.8283553" lon="1.7549193"><ele>282.0</ele><time>2026-04-25T11:17:30.093Z</time></trkpt><trkpt lat="41.8282716" lon="1.7550035"><ele>282.0</ele><time>2026-04-25T11:17:31.093Z</time></trkpt><trkpt lat="41.8281894" lon="1.7550917"><ele>281.6</ele><time>2026-04-25T11:17:32.095Z</time></trkpt><trkpt lat="41.8281076" lon="1.7551844"><ele>281.2</ele><time>2026-04-25T11:17:33.094Z</time></trkpt><trkpt lat="41.8280289" lon="1.755285"><ele>280.8</ele><time>2026-04-25T11:17:34.094Z</time></trkpt><trkpt lat="41.8279526" lon="1.7553885"><ele>280.4</ele><time>2026-04-25T11:17:35.094Z</time></trkpt><trkpt lat="41.8278783" lon="1.7554941"><ele>280.0</ele><time>2026-04-25T11:17:36.093Z</time></trkpt><trkpt lat="41.8278062" lon="1.7555956"><ele>279.8333333333333</ele><time>2026-04-25T11:17:37.094Z</time></trkpt><trkpt lat="41.8277416" lon="1.7556843"><ele>279.66666666666663</ele><time>2026-04-25T11:17:38.094Z</time></trkpt><trkpt lat="41.8276796" lon="1.7557563"><ele>279.5</ele><time>2026-04-25T11:17:39.093Z</time></trkpt><trkpt lat="41.8276136" lon="1.7558029"><ele>279.3333333333333</ele><time>2026-04-25T11:17:40.094Z</time></trkpt><trkpt lat="41.8275418" lon="1.7558229"><ele>279.1666666666667</ele><time>2026-04-25T11:17:41.093Z</time></trkpt><trkpt lat="41.8274795" lon="1.7558485"><ele>279.0</ele><time>2026-04-25T11:17:42.094Z</time></trkpt><trkpt lat="41.827394" lon="1.7559193"><ele>279.0</ele><time>2026-04-25T11:17:44.094Z</time></trkpt><trkpt lat="41.827341" lon="1.7559908"><ele>279.0</ele><time>2026-04-25T11:17:46.094Z</time></trkpt><trkpt lat="41.8273009" lon="1.7560569"><ele>279.0</ele><time>2026-04-25T11:19:23.094Z</time></trkpt><trkpt lat="41.8273128" lon="1.7561481"><ele>279.0</ele><time>2026-04-25T11:19:27.094Z</time></trkpt><trkpt lat="41.8273221" lon="1.7562392"><ele>279.0</ele><time>2026-04-25T11:19:38.094Z</time></trkpt><trkpt lat="41.8272857" lon="1.7563182"><ele>279.0</ele><time>2026-04-25T11:19:40.095Z</time></trkpt><trkpt lat="41.8272094" lon="1.7564297"><ele>279.1666666666667</ele><time>2026-04-25T11:19:42.093Z</time></trkpt><trkpt lat="41.8271616" lon="1.7565006"><ele>279.3333333333333</ele><time>2026-04-25T11:19:43.095Z</time></trkpt><trkpt lat="41.8271121" lon="1.7565794"><ele>279.5</ele><time>2026-04-25T11:19:44.093Z</time></trkpt><trkpt lat="41.8270543" lon="1.7566635"><ele>279.66666666666663</ele><time>2026-04-25T11:19:45.094Z</time></trkpt><trkpt lat="41.8269936" lon="1.756751"><ele>279.8333333333333</ele><time>2026-04-25T11:19:46.093Z</time></trkpt><trkpt lat="41.8269272" lon="1.7568387"><ele>280.0</ele><time>2026-04-25T11:19:47.094Z</time></trkpt><trkpt lat="41.8268612" lon="1.7569304"><ele>280.5</ele><time>2026-04-25T11:19:48.094Z</time></trkpt><trkpt lat="41.8267995" lon="1.7570156"><ele>281.0</ele><time>2026-04-25T11:19:49.094Z</time></trkpt><trkpt lat="41.8267448" lon="1.7570938"><ele>281.5</ele><time>2026-04-25T11:19:50.093Z</time></trkpt><trkpt lat="41.8266876" lon="1.757161"><ele>282.0</ele><time>2026-04-25T11:19:51.094Z</time></trkpt><trkpt lat="41.8266175" lon="1.7571986"><ele>282.5</ele><time>2026-04-25T11:19:52.094Z</time></trkpt><trkpt lat="41.8265431" lon="1.7572216"><ele>283.0</ele><time>2026-04-25T11:19:53.094Z</time></trkpt><trkpt lat="41.8264755" lon="1.7572668"><ele>283.0</ele><time>2026-04-25T11:19:54.094Z</time></trkpt><trkpt lat="41.8264186" lon="1.7573422"><ele>283.0</ele><time>2026-04-25T11:19:55.094Z</time></trkpt><trkpt lat="41.8263825" lon="1.7574512"><ele>283.0</ele><time>2026-04-25T11:19:56.094Z</time></trkpt><trkpt lat="41.8263534" lon="1.7575725"><ele>283.0</ele><time>2026-04-25T11:19:57.094Z</time></trkpt><trkpt lat="41.8263082" lon="1.7576972"><ele>283.0</ele><time>2026-04-25T11:19:58.095Z</time></trkpt><trkpt lat="41.8262384" lon="1.7578184"><ele>283.0</ele><time>2026-04-25T11:19:59.094Z</time></trkpt><trkpt lat="41.8261487" lon="1.7579386"><ele>283.0</ele><time>2026-04-25T11:20:00.095Z</time></trkpt><trkpt lat="41.8260585" lon="1.7580638"><ele>283.0</ele><time>2026-04-25T11:20:01.094Z</time></trkpt><trkpt lat="41.8259613" lon="1.7582005"><ele>283.0</ele><time>2026-04-25T11:20:02.093Z</time></trkpt><trkpt lat="41.8258628" lon="1.7583448"><ele>283.0</ele><time>2026-04-25T11:20:03.094Z</time></trkpt><trkpt lat="41.8257586" lon="1.7584901"><ele>283.0</ele><time>2026-04-25T11:20:04.094Z</time></trkpt><trkpt lat="41.8256569" lon="1.7586361"><ele>283.0</ele><time>2026-04-25T11:20:05.094Z</time></trkpt><trkpt lat="41.8255562" lon="1.7587885"><ele>285.3333333333333</ele><time>2026-04-25T11:20:06.094Z</time></trkpt><trkpt lat="41.8254598" lon="1.7589473"><ele>287.6666666666667</ele><time>2026-04-25T11:20:07.094Z</time></trkpt><trkpt lat="41.82537" lon="1.7591089"><ele>290.0</ele><time>2026-04-25T11:20:08.093Z</time></trkpt><trkpt lat="41.8252899" lon="1.7592802"><ele>290.6666666666667</ele><time>2026-04-25T11:20:09.093Z</time></trkpt><trkpt lat="41.8252246" lon="1.7594581"><ele>291.3333333333333</ele><time>2026-04-25T11:20:10.095Z</time></trkpt><trkpt lat="41.8251644" lon="1.7596412"><ele>292.0</ele><time>2026-04-25T11:20:11.093Z</time></trkpt><trkpt lat="41.8250974" lon="1.7598256"><ele>291.3333333333333</ele><time>2026-04-25T11:20:12.094Z</time></trkpt><trkpt lat="41.8250189" lon="1.7600073"><ele>290.6666666666667</ele><time>2026-04-25T11:20:13.093Z</time></trkpt><trkpt lat="41.8249256" lon="1.7601793"><ele>290.0</ele><time>2026-04-25T11:20:14.094Z</time></trkpt><trkpt lat="41.8248225" lon="1.7603436"><ele>290.0</ele><time>2026-04-25T11:20:15.093Z</time></trkpt><trkpt lat="41.8247107" lon="1.7605015"><ele>290.0</ele><time>2026-04-25T11:20:16.095Z</time></trkpt><trkpt lat="41.8245949" lon="1.7606539"><ele>290.0</ele><time>2026-04-25T11:20:17.093Z</time></trkpt><trkpt lat="41.8244749" lon="1.7608037"><ele>290.0</ele><time>2026-04-25T11:20:18.094Z</time></trkpt><trkpt lat="41.8243568" lon="1.7609444"><ele>290.0</ele><time>2026-04-25T11:20:19.094Z</time></trkpt><trkpt lat="41.824228" lon="1.7610647"><ele>290.0</ele><time>2026-04-25T11:20:20.094Z</time></trkpt><trkpt lat="41.8240867" lon="1.7611568"><ele>291.0</ele><time>2026-04-25T11:20:21.095Z</time></trkpt><trkpt lat="41.8239362" lon="1.7612323"><ele>292.0</ele><time>2026-04-25T11:20:22.094Z</time></trkpt><trkpt lat="41.8237802" lon="1.761302"><ele>293.0</ele><time>2026-04-25T11:20:23.094Z</time></trkpt><trkpt lat="41.8236246" lon="1.7613758"><ele>290.33333333333337</ele><time>2026-04-25T11:20:24.095Z</time></trkpt><trkpt lat="41.8234673" lon="1.7614527"><ele>287.6666666666667</ele><time>2026-04-25T11:20:25.094Z</time></trkpt><trkpt lat="41.8233097" lon="1.7615302"><ele>285.0</ele><time>2026-04-25T11:20:26.093Z</time></trkpt><trkpt lat="41.8231496" lon="1.7616019"><ele>285.0</ele><time>2026-04-25T11:20:27.094Z</time></trkpt><trkpt lat="41.8229879" lon="1.761667"><ele>285.0</ele><time>2026-04-25T11:20:28.095Z</time></trkpt><trkpt lat="41.8228221" lon="1.7617139"><ele>285.0</ele><time>2026-04-25T11:20:29.094Z</time></trkpt><trkpt lat="41.8226568" lon="1.7617271"><ele>284.6666666666667</ele><time>2026-04-25T11:20:30.093Z</time></trkpt><trkpt lat="41.8224924" lon="1.7617067"><ele>284.33333333333337</ele><time>2026-04-25T11:20:31.094Z</time></trkpt><trkpt lat="41.8223356" lon="1.7616757"><ele>284.0</ele><time>2026-04-25T11:20:32.095Z</time></trkpt><trkpt lat="41.8221815" lon="1.7616409"><ele>284.0</ele><time>2026-04-25T11:20:33.094Z</time></trkpt><trkpt lat="41.8220225" lon="1.7616054"><ele>284.0</ele><time>2026-04-25T11:20:34.095Z</time></trkpt><trkpt lat="41.8218602" lon="1.7615682"><ele>284.0</ele><time>2026-04-25T11:20:35.094Z</time></trkpt><trkpt lat="41.8216951" lon="1.76153"><ele>284.6666666666667</ele><time>2026-04-25T11:20:36.094Z</time></trkpt><trkpt lat="41.8215267" lon="1.7614902"><ele>285.3333333333333</ele><time>2026-04-25T11:20:37.094Z</time></trkpt><trkpt lat="41.821356" lon="1.7614489"><ele>286.0</ele><time>2026-04-25T11:20:38.094Z</time></trkpt><trkpt lat="41.821183" lon="1.7614091"><ele>286.0</ele><time>2026-04-25T11:20:39.095Z</time></trkpt><trkpt lat="41.8210117" lon="1.761371"><ele>286.0</ele><time>2026-04-25T11:20:40.093Z</time></trkpt><trkpt lat="41.8208433" lon="1.761335"><ele>286.0</ele><time>2026-04-25T11:20:41.094Z</time></trkpt><trkpt lat="41.8206761" lon="1.7612956"><ele>287.3333333333333</ele><time>2026-04-25T11:20:42.094Z</time></trkpt><trkpt lat="41.82051" lon="1.7612586"><ele>288.6666666666667</ele><time>2026-04-25T11:20:43.094Z</time></trkpt><trkpt lat="41.8203432" lon="1.7612193"><ele>290.0</ele><time>2026-04-25T11:20:44.095Z</time></trkpt><trkpt lat="41.8201805" lon="1.7611804"><ele>291.75</ele><time>2026-04-25T11:20:45.094Z</time></trkpt><trkpt lat="41.8200302" lon="1.7611468"><ele>293.5</ele><time>2026-04-25T11:20:46.094Z</time></trkpt><trkpt lat="41.819888" lon="1.7611162"><ele>295.25</ele><time>2026-04-25T11:20:47.094Z</time></trkpt><trkpt lat="41.819751" lon="1.761085"><ele>297.0</ele><time>2026-04-25T11:20:48.094Z</time></trkpt><trkpt lat="41.819616" lon="1.761055"><ele>294.0</ele><time>2026-04-25T11:20:49.095Z</time></trkpt><trkpt lat="41.8194818" lon="1.7610228"><ele>291.0</ele><time>2026-04-25T11:20:50.094Z</time></trkpt><trkpt lat="41.8193485" lon="1.7609905"><ele>288.0</ele><time>2026-04-25T11:20:51.094Z</time></trkpt><trkpt lat="41.8192159" lon="1.7609582"><ele>285.0</ele><time>2026-04-25T11:20:52.095Z</time></trkpt><trkpt lat="41.8190832" lon="1.7609263"><ele>284.75</ele><time>2026-04-25T11:20:53.094Z</time></trkpt><trkpt lat="41.8189536" lon="1.7608949"><ele>284.5</ele><time>2026-04-25T11:20:54.094Z</time></trkpt><trkpt lat="41.8188276" lon="1.760867"><ele>284.25</ele><time>2026-04-25T11:20:55.094Z</time></trkpt><trkpt lat="41.8187055" lon="1.7608401"><ele>284.0</ele><time>2026-04-25T11:20:56.093Z</time></trkpt><trkpt lat="41.8185923" lon="1.7608124"><ele>282.8</ele><time>2026-04-25T11:20:57.093Z</time></trkpt><trkpt lat="41.8184844" lon="1.7607863"><ele>281.59999999999997</ele><time>2026-04-25T11:20:58.094Z</time></trkpt><trkpt lat="41.8183793" lon="1.7607624"><ele>280.4</ele><time>2026-04-25T11:20:59.094Z</time></trkpt><trkpt lat="41.8182726" lon="1.7607429"><ele>279.2</ele><time>2026-04-25T11:21:00.094Z</time></trkpt><trkpt lat="41.8181674" lon="1.7607294"><ele>278.0</ele><time>2026-04-25T11:21:01.094Z</time></trkpt><trkpt lat="41.8180611" lon="1.760734"><ele>278.0</ele><time>2026-04-25T11:21:02.094Z</time></trkpt><trkpt lat="41.817959" lon="1.7607577"><ele>278.0</ele><time>2026-04-25T11:21:03.095Z</time></trkpt><trkpt lat="41.8178541" lon="1.7608069"><ele>278.0</ele><time>2026-04-25T11:21:04.093Z</time></trkpt><trkpt lat="41.8177516" lon="1.760873"><ele>278.0</ele><time>2026-04-25T11:21:05.094Z</time></trkpt><trkpt lat="41.8176453" lon="1.7609452"><ele>278.0</ele><time>2026-04-25T11:21:06.094Z</time></trkpt><trkpt lat="41.817539" lon="1.7610157"><ele>278.0</ele><time>2026-04-25T11:21:07.094Z</time></trkpt><trkpt lat="41.8174376" lon="1.761084"><ele>278.0</ele><time>2026-04-25T11:21:08.094Z</time></trkpt><trkpt lat="41.8173325" lon="1.7611555"><ele>278.0</ele><time>2026-04-25T11:21:09.094Z</time></trkpt><trkpt lat="41.8172248" lon="1.761228"><ele>278.0</ele><time>2026-04-25T11:21:10.095Z</time></trkpt><trkpt lat="41.8171178" lon="1.7613001"><ele>278.0</ele><time>2026-04-25T11:21:11.093Z</time></trkpt><trkpt lat="41.8170052" lon="1.7613757"><ele>278.0</ele><time>2026-04-25T11:21:12.094Z</time></trkpt><trkpt lat="41.8168873" lon="1.7614529"><ele>278.0</ele><time>2026-04-25T11:21:13.094Z</time></trkpt><trkpt lat="41.8167621" lon="1.7615347"><ele>278.0</ele><time>2026-04-25T11:21:14.095Z</time></trkpt><trkpt lat="41.8166409" lon="1.7616142"><ele>278.75</ele><time>2026-04-25T11:21:15.094Z</time></trkpt><trkpt lat="41.8165191" lon="1.7616961"><ele>279.5</ele><time>2026-04-25T11:21:16.094Z</time></trkpt><trkpt lat="41.8163935" lon="1.7617814"><ele>280.25</ele><time>2026-04-25T11:21:17.094Z</time></trkpt><trkpt lat="41.8162667" lon="1.7618682"><ele>281.0</ele><time>2026-04-25T11:21:18.094Z</time></trkpt><trkpt lat="41.8161419" lon="1.7619556"><ele>281.0</ele><time>2026-04-25T11:21:19.093Z</time></trkpt><trkpt lat="41.8160175" lon="1.7620411"><ele>281.0</ele><time>2026-04-25T11:21:20.094Z</time></trkpt><trkpt lat="41.8158884" lon="1.7621274"><ele>281.0</ele><time>2026-04-25T11:21:21.095Z</time></trkpt><trkpt lat="41.8157632" lon="1.7622191"><ele>281.0</ele><time>2026-04-25T11:21:22.094Z</time></trkpt><trkpt lat="41.8156346" lon="1.762307"><ele>279.5</ele><time>2026-04-25T11:21:23.094Z</time></trkpt><trkpt lat="41.8155062" lon="1.7623947"><ele>278.0</ele><time>2026-04-25T11:21:24.093Z</time></trkpt><trkpt lat="41.815377" lon="1.7624808"><ele>276.5</ele><time>2026-04-25T11:21:25.094Z</time></trkpt><trkpt lat="41.8152499" lon="1.7625662"><ele>275.0</ele><time>2026-04-25T11:21:26.094Z</time></trkpt><trkpt lat="41.8151259" lon="1.7626495"><ele>278.0</ele><time>2026-04-25T11:21:27.094Z</time></trkpt><trkpt lat="41.8150017" lon="1.7627282"><ele>281.0</ele><time>2026-04-25T11:21:28.094Z</time></trkpt><trkpt lat="41.8148805" lon="1.7628007"><ele>284.0</ele><time>2026-04-25T11:21:29.094Z</time></trkpt><trkpt lat="41.8147576" lon="1.762875"><ele>287.0</ele><time>2026-04-25T11:21:30.093Z</time></trkpt><trkpt lat="41.8146266" lon="1.7629402"><ele>287.0</ele><time>2026-04-25T11:21:31.094Z</time></trkpt><trkpt lat="41.8144949" lon="1.7629972"><ele>287.0</ele><time>2026-04-25T11:21:32.094Z</time></trkpt><trkpt lat="41.8143611" lon="1.7630375"><ele>287.0</ele><time>2026-04-25T11:21:33.094Z</time></trkpt><trkpt lat="41.81423" lon="1.7630579"><ele>287.0</ele><time>2026-04-25T11:21:34.093Z</time></trkpt><trkpt lat="41.8141038" lon="1.7630711"><ele>287.0</ele><time>2026-04-25T11:21:35.095Z</time></trkpt><trkpt lat="41.8139824" lon="1.763076"><ele>287.0</ele><time>2026-04-25T11:21:36.094Z</time></trkpt><trkpt lat="41.8138634" lon="1.7630681"><ele>287.0</ele><time>2026-04-25T11:21:37.094Z</time></trkpt><trkpt lat="41.8137407" lon="1.7630493"><ele>287.0</ele><time>2026-04-25T11:21:38.093Z</time></trkpt><trkpt lat="41.8136156" lon="1.7630171"><ele>287.0</ele><time>2026-04-25T11:21:39.094Z</time></trkpt><trkpt lat="41.8134925" lon="1.7629661"><ele>287.0</ele><time>2026-04-25T11:21:40.094Z</time></trkpt><trkpt lat="41.8133683" lon="1.762903"><ele>287.0</ele><time>2026-04-25T11:21:41.094Z</time></trkpt><trkpt lat="41.8132438" lon="1.7628184"><ele>287.0</ele><time>2026-04-25T11:21:42.094Z</time></trkpt><trkpt lat="41.8131232" lon="1.7627204"><ele>282.75</ele><time>2026-04-25T11:21:43.094Z</time></trkpt><trkpt lat="41.8130025" lon="1.762608"><ele>278.5</ele><time>2026-04-25T11:21:44.094Z</time></trkpt><trkpt lat="41.8128836" lon="1.7624906"><ele>274.25</ele><time>2026-04-25T11:21:45.094Z</time></trkpt><trkpt lat="41.8127685" lon="1.762364"><ele>270.0</ele><time>2026-04-25T11:21:46.095Z</time></trkpt><trkpt lat="41.8126613" lon="1.762236"><ele>270.25</ele><time>2026-04-25T11:21:47.094Z</time></trkpt><trkpt lat="41.812561" lon="1.762107"><ele>270.5</ele><time>2026-04-25T11:21:48.094Z</time></trkpt><trkpt lat="41.8124695" lon="1.7619754"><ele>270.75</ele><time>2026-04-25T11:21:49.095Z</time></trkpt><trkpt lat="41.8123828" lon="1.7618351"><ele>271.0</ele><time>2026-04-25T11:21:50.094Z</time></trkpt><trkpt lat="41.8122927" lon="1.7616835"><ele>271.0</ele><time>2026-04-25T11:21:51.094Z</time></trkpt><trkpt lat="41.8122021" lon="1.7615267"><ele>271.0</ele><time>2026-04-25T11:21:52.094Z</time></trkpt><trkpt lat="41.8121027" lon="1.7613799"><ele>271.0</ele><time>2026-04-25T11:21:53.094Z</time></trkpt><trkpt lat="41.8119931" lon="1.7612458"><ele>271.0</ele><time>2026-04-25T11:21:54.094Z</time></trkpt><trkpt lat="41.8118766" lon="1.7611245"><ele>269.3333333333333</ele><time>2026-04-25T11:21:55.094Z</time></trkpt><trkpt lat="41.811748" lon="1.7610078"><ele>267.6666666666667</ele><time>2026-04-25T11:21:56.094Z</time></trkpt><trkpt lat="41.8116136" lon="1.7608974"><ele>266.0</ele><time>2026-04-25T11:21:57.093Z</time></trkpt><trkpt lat="41.8114717" lon="1.7607968"><ele>266.0</ele><time>2026-04-25T11:21:58.094Z</time></trkpt><trkpt lat="41.8113213" lon="1.760709"><ele>266.0</ele><time>2026-04-25T11:21:59.093Z</time></trkpt><trkpt lat="41.811163" lon="1.7606397"><ele>266.0</ele><time>2026-04-25T11:22:00.094Z</time></trkpt><trkpt lat="41.8110029" lon="1.7605873"><ele>266.6666666666667</ele><time>2026-04-25T11:22:01.093Z</time></trkpt><trkpt lat="41.8108308" lon="1.7605931"><ele>267.3333333333333</ele><time>2026-04-25T11:22:02.094Z</time></trkpt><trkpt lat="41.8106611" lon="1.7606187"><ele>268.0</ele><time>2026-04-25T11:22:03.094Z</time></trkpt><trkpt lat="41.8104996" lon="1.760677"><ele>268.0</ele><time>2026-04-25T11:22:04.093Z</time></trkpt><trkpt lat="41.8103449" lon="1.7607565"><ele>268.0</ele><time>2026-04-25T11:22:05.093Z</time></trkpt><trkpt lat="41.8101917" lon="1.7608461"><ele>268.0</ele><time>2026-04-25T11:22:06.094Z</time></trkpt><trkpt lat="41.8100372" lon="1.7609303"><ele>267.3333333333333</ele><time>2026-04-25T11:22:07.093Z</time></trkpt><trkpt lat="41.8098789" lon="1.7610031"><ele>266.6666666666667</ele><time>2026-04-25T11:22:08.094Z</time></trkpt><trkpt lat="41.8097118" lon="1.7610653"><ele>266.0</ele><time>2026-04-25T11:22:09.095Z</time></trkpt><trkpt lat="41.8095414" lon="1.7611212"><ele>270.6666666666667</ele><time>2026-04-25T11:22:10.094Z</time></trkpt><trkpt lat="41.8093675" lon="1.7611701"><ele>275.3333333333333</ele><time>2026-04-25T11:22:11.094Z</time></trkpt><trkpt lat="41.809193" lon="1.7612097"><ele>280.0</ele><time>2026-04-25T11:22:12.094Z</time></trkpt><trkpt lat="41.80902" lon="1.7612472"><ele>280.0</ele><time>2026-04-25T11:22:13.094Z</time></trkpt><trkpt lat="41.808845" lon="1.7612841"><ele>280.0</ele><time>2026-04-25T11:22:14.094Z</time></trkpt><trkpt lat="41.8086634" lon="1.7613224"><ele>280.0</ele><time>2026-04-25T11:22:15.094Z</time></trkpt><trkpt lat="41.8084834" lon="1.7613665"><ele>278.66666666666663</ele><time>2026-04-25T11:22:16.094Z</time></trkpt><trkpt lat="41.8083034" lon="1.7614211"><ele>277.3333333333333</ele><time>2026-04-25T11:22:17.095Z</time></trkpt><trkpt lat="41.8081254" lon="1.7614893"><ele>276.0</ele><time>2026-04-25T11:22:18.094Z</time></trkpt><trkpt lat="41.8079475" lon="1.761571"><ele>276.0</ele><time>2026-04-25T11:22:19.095Z</time></trkpt><trkpt lat="41.8077694" lon="1.7616538"><ele>276.0</ele><time>2026-04-25T11:22:20.095Z</time></trkpt><trkpt lat="41.8075926" lon="1.7617364"><ele>276.0</ele><time>2026-04-25T11:22:21.093Z</time></trkpt><trkpt lat="41.807417" lon="1.7618142"><ele>279.6666666666667</ele><time>2026-04-25T11:22:22.094Z</time></trkpt><trkpt lat="41.8072436" lon="1.7618947"><ele>283.33333333333337</ele><time>2026-04-25T11:22:23.094Z</time></trkpt><trkpt lat="41.807071" lon="1.7619747"><ele>287.0</ele><time>2026-04-25T11:22:24.094Z</time></trkpt><trkpt lat="41.8068959" lon="1.7620512"><ele>284.33333333333337</ele><time>2026-04-25T11:22:25.094Z</time></trkpt><trkpt lat="41.8067226" lon="1.7621267"><ele>281.6666666666667</ele><time>2026-04-25T11:22:26.094Z</time></trkpt><trkpt lat="41.806547" lon="1.7622052"><ele>279.0</ele><time>2026-04-25T11:22:27.095Z</time></trkpt><trkpt lat="41.8063774" lon="1.7622821"><ele>279.0</ele><time>2026-04-25T11:22:28.093Z</time></trkpt><trkpt lat="41.8062062" lon="1.7623608"><ele>279.0</ele><time>2026-04-25T11:22:29.094Z</time></trkpt><trkpt lat="41.8060359" lon="1.7624396"><ele>279.0</ele><time>2026-04-25T11:22:30.094Z</time></trkpt><trkpt lat="41.8058669" lon="1.7625151"><ele>276.3333333333333</ele><time>2026-04-25T11:22:31.094Z</time></trkpt><trkpt lat="41.805695" lon="1.7625959"><ele>273.66666666666663</ele><time>2026-04-25T11:22:32.094Z</time></trkpt><trkpt lat="41.8055289" lon="1.7626857"><ele>271.0</ele><time>2026-04-25T11:22:33.093Z</time></trkpt><trkpt lat="41.8053692" lon="1.7627922"><ele>271.66666666666663</ele><time>2026-04-25T11:22:34.094Z</time></trkpt><trkpt lat="41.805216" lon="1.7629183"><ele>272.3333333333333</ele><time>2026-04-25T11:22:35.094Z</time></trkpt><trkpt lat="41.8050753" lon="1.7630671"><ele>273.0</ele><time>2026-04-25T11:22:36.093Z</time></trkpt><trkpt lat="41.8049421" lon="1.7632317"><ele>273.0</ele><time>2026-04-25T11:22:37.094Z</time></trkpt><trkpt lat="41.8048115" lon="1.7633959"><ele>273.0</ele><time>2026-04-25T11:22:38.094Z</time></trkpt><trkpt lat="41.8046802" lon="1.7635662"><ele>273.0</ele><time>2026-04-25T11:22:39.094Z</time></trkpt><trkpt lat="41.8045483" lon="1.7637407"><ele>271.6666666666667</ele><time>2026-04-25T11:22:40.094Z</time></trkpt><trkpt lat="41.8044149" lon="1.7639181"><ele>270.33333333333337</ele><time>2026-04-25T11:22:41.094Z</time></trkpt><trkpt lat="41.8042777" lon="1.7640994"><ele>269.0</ele><time>2026-04-25T11:22:42.093Z</time></trkpt><trkpt lat="41.80414" lon="1.7642841"><ele>271.0</ele><time>2026-04-25T11:22:43.093Z</time></trkpt><trkpt lat="41.8040019" lon="1.7644724"><ele>273.0</ele><time>2026-04-25T11:22:44.094Z</time></trkpt><trkpt lat="41.8038621" lon="1.7646589"><ele>275.0</ele><time>2026-04-25T11:22:45.094Z</time></trkpt><trkpt lat="41.8037216" lon="1.7648376"><ele>275.0</ele><time>2026-04-25T11:22:46.094Z</time></trkpt><trkpt lat="41.8035805" lon="1.7650232"><ele>275.0</ele><time>2026-04-25T11:22:47.094Z</time></trkpt><trkpt lat="41.8034419" lon="1.7652105"><ele>275.0</ele><time>2026-04-25T11:22:48.094Z</time></trkpt><trkpt lat="41.8033001" lon="1.7653924"><ele>276.6666666666667</ele><time>2026-04-25T11:22:49.094Z</time></trkpt><trkpt lat="41.8031463" lon="1.7655608"><ele>278.3333333333333</ele><time>2026-04-25T11:22:50.093Z</time></trkpt><trkpt lat="41.8029855" lon="1.765715"><ele>280.0</ele><time>2026-04-25T11:22:51.093Z</time></trkpt><trkpt lat="41.8028182" lon="1.7658565"><ele>280.66666666666663</ele><time>2026-04-25T11:22:52.093Z</time></trkpt><trkpt lat="41.8026455" lon="1.7659919"><ele>281.3333333333333</ele><time>2026-04-25T11:22:53.095Z</time></trkpt><trkpt lat="41.8024719" lon="1.7661196"><ele>282.0</ele><time>2026-04-25T11:22:54.094Z</time></trkpt><trkpt lat="41.8023016" lon="1.7662485"><ele>282.0</ele><time>2026-04-25T11:22:55.094Z</time></trkpt><trkpt lat="41.8021348" lon="1.7663785"><ele>282.0</ele><time>2026-04-25T11:22:56.094Z</time></trkpt><trkpt lat="41.8019726" lon="1.7665126"><ele>282.0</ele><time>2026-04-25T11:22:57.094Z</time></trkpt><trkpt lat="41.8018119" lon="1.7666529"><ele>281.6666666666667</ele><time>2026-04-25T11:22:58.095Z</time></trkpt><trkpt lat="41.8016597" lon="1.7668014"><ele>281.33333333333337</ele><time>2026-04-25T11:22:59.094Z</time></trkpt><trkpt lat="41.8015135" lon="1.7669617"><ele>281.0</ele><time>2026-04-25T11:23:00.094Z</time></trkpt><trkpt lat="41.801378" lon="1.7671373"><ele>281.0</ele><time>2026-04-25T11:23:01.094Z</time></trkpt><trkpt lat="41.80125" lon="1.7673184"><ele>281.0</ele><time>2026-04-25T11:23:02.093Z</time></trkpt><trkpt lat="41.8011232" lon="1.7675052"><ele>281.0</ele><time>2026-04-25T11:23:03.093Z</time></trkpt><trkpt lat="41.8009983" lon="1.7676944"><ele>281.0</ele><time>2026-04-25T11:23:04.093Z</time></trkpt><trkpt lat="41.8008738" lon="1.7678849"><ele>281.0</ele><time>2026-04-25T11:23:05.094Z</time></trkpt><trkpt lat="41.8007512" lon="1.7680785"><ele>281.0</ele><time>2026-04-25T11:23:06.093Z</time></trkpt><trkpt lat="41.8006263" lon="1.7682702"><ele>281.0</ele><time>2026-04-25T11:23:07.094Z</time></trkpt><trkpt lat="41.8005012" lon="1.7684642"><ele>281.0</ele><time>2026-04-25T11:23:08.094Z</time></trkpt><trkpt lat="41.8003779" lon="1.7686575"><ele>281.0</ele><time>2026-04-25T11:23:09.093Z</time></trkpt><trkpt lat="41.8002566" lon="1.7688516"><ele>281.0</ele><time>2026-04-25T11:23:10.094Z</time></trkpt><trkpt lat="41.8001354" lon="1.7690469"><ele>281.0</ele><time>2026-04-25T11:23:11.094Z</time></trkpt><trkpt lat="41.8000107" lon="1.7692439"><ele>281.0</ele><time>2026-04-25T11:23:12.093Z</time></trkpt><trkpt lat="41.7998857" lon="1.7694393"><ele>281.0</ele><time>2026-04-25T11:23:13.093Z</time></trkpt><trkpt lat="41.7997608" lon="1.7696372"><ele>281.0</ele><time>2026-04-25T11:23:14.095Z</time></trkpt><trkpt lat="41.7996338" lon="1.7698342"><ele>281.0</ele><time>2026-04-25T11:23:15.094Z</time></trkpt><trkpt lat="41.7995073" lon="1.7700392"><ele>280.6666666666667</ele><time>2026-04-25T11:23:16.094Z</time></trkpt><trkpt lat="41.7993819" lon="1.7702458"><ele>280.3333333333333</ele><time>2026-04-25T11:23:17.094Z</time></trkpt><trkpt lat="41.7992615" lon="1.7704537"><ele>280.0</ele><time>2026-04-25T11:23:18.093Z</time></trkpt><trkpt lat="41.7991479" lon="1.7706627"><ele>279.3333333333333</ele><time>2026-04-25T11:23:19.093Z</time></trkpt><trkpt lat="41.7990413" lon="1.7708749"><ele>278.6666666666667</ele><time>2026-04-25T11:23:20.093Z</time></trkpt><trkpt lat="41.7989431" lon="1.7710907"><ele>278.0</ele><time>2026-04-25T11:23:21.093Z</time></trkpt><trkpt lat="41.7988523" lon="1.7713127"><ele>277.0</ele><time>2026-04-25T11:23:22.095Z</time></trkpt><trkpt lat="41.798779" lon="1.7715428"><ele>276.0</ele><time>2026-04-25T11:23:23.094Z</time></trkpt><trkpt lat="41.7987169" lon="1.7717826"><ele>275.0</ele><time>2026-04-25T11:23:24.094Z</time></trkpt><trkpt lat="41.7986676" lon="1.772027"><ele>274.6666666666667</ele><time>2026-04-25T11:23:25.094Z</time></trkpt><trkpt lat="41.7986231" lon="1.7722788"><ele>274.3333333333333</ele><time>2026-04-25T11:23:26.094Z</time></trkpt><trkpt lat="41.7985761" lon="1.772533"><ele>274.0</ele><time>2026-04-25T11:23:27.093Z</time></trkpt><trkpt lat="41.7985309" lon="1.7727852"><ele>273.3333333333333</ele><time>2026-04-25T11:23:28.093Z</time></trkpt><trkpt lat="41.798479" lon="1.7730395"><ele>272.6666666666667</ele><time>2026-04-25T11:23:29.093Z</time></trkpt><trkpt lat="41.7984244" lon="1.7732906"><ele>272.0</ele><time>2026-04-25T11:23:30.095Z</time></trkpt><trkpt lat="41.798369" lon="1.7735442"><ele>271.33333333333337</ele><time>2026-04-25T11:23:31.094Z</time></trkpt><trkpt lat="41.7983124" lon="1.7737993"><ele>270.6666666666667</ele><time>2026-04-25T11:23:32.094Z</time></trkpt><trkpt lat="41.7982529" lon="1.7740581"><ele>270.0</ele><time>2026-04-25T11:23:33.094Z</time></trkpt><trkpt lat="41.7981941" lon="1.7743176"><ele>269.0</ele><time>2026-04-25T11:23:34.093Z</time></trkpt><trkpt lat="41.7981174" lon="1.7745706"><ele>268.0</ele><time>2026-04-25T11:23:35.093Z</time></trkpt><trkpt lat="41.7980149" lon="1.7748035"><ele>267.0</ele><time>2026-04-25T11:23:36.095Z</time></trkpt><trkpt lat="41.7978885" lon="1.7750156"><ele>266.3333333333333</ele><time>2026-04-25T11:23:37.094Z</time></trkpt><trkpt lat="41.7977453" lon="1.7752046"><ele>265.66666666666663</ele><time>2026-04-25T11:23:38.094Z</time></trkpt><trkpt lat="41.7975933" lon="1.7753842"><ele>265.0</ele><time>2026-04-25T11:23:39.094Z</time></trkpt><trkpt lat="41.7974356" lon="1.7755557"><ele>265.0</ele><time>2026-04-25T11:23:40.094Z</time></trkpt><trkpt lat="41.797278" lon="1.7757322"><ele>265.0</ele><time>2026-04-25T11:23:41.094Z</time></trkpt><trkpt lat="41.7971227" lon="1.7759069"><ele>265.0</ele><time>2026-04-25T11:23:42.095Z</time></trkpt><trkpt lat="41.796969" lon="1.7760832"><ele>265.0</ele><time>2026-04-25T11:23:43.094Z</time></trkpt><trkpt lat="41.7968141" lon="1.7762592"><ele>265.0</ele><time>2026-04-25T11:23:44.094Z</time></trkpt><trkpt lat="41.7966549" lon="1.7764352"><ele>265.0</ele><time>2026-04-25T11:23:45.093Z</time></trkpt><trkpt lat="41.7964998" lon="1.7766139"><ele>265.0</ele><time>2026-04-25T11:23:46.094Z</time></trkpt><trkpt lat="41.7963374" lon="1.7767881"><ele>265.0</ele><time>2026-04-25T11:23:47.094Z</time></trkpt><trkpt lat="41.7961753" lon="1.776958"><ele>265.0</ele><time>2026-04-25T11:23:48.094Z</time></trkpt><trkpt lat="41.7960008" lon="1.7771217"><ele>265.3333333333333</ele><time>2026-04-25T11:23:49.094Z</time></trkpt><trkpt lat="41.7958166" lon="1.7772755"><ele>265.6666666666667</ele><time>2026-04-25T11:23:50.093Z</time></trkpt><trkpt lat="41.7956165" lon="1.7774125"><ele>266.0</ele><time>2026-04-25T11:23:51.093Z</time></trkpt><trkpt lat="41.7954066" lon="1.7775223"><ele>266.0</ele><time>2026-04-25T11:23:52.094Z</time></trkpt><trkpt lat="41.7951842" lon="1.7776007"><ele>266.0</ele><time>2026-04-25T11:23:53.093Z</time></trkpt><trkpt lat="41.7949604" lon="1.7776523"><ele>262.6666666666667</ele><time>2026-04-25T11:23:54.093Z</time></trkpt><trkpt lat="41.7947392" lon="1.7776831"><ele>259.3333333333333</ele><time>2026-04-25T11:23:55.093Z</time></trkpt><trkpt lat="41.7945175" lon="1.7776961"><ele>256.0</ele><time>2026-04-25T11:23:56.094Z</time></trkpt><trkpt lat="41.7942975" lon="1.777704"><ele>265.0</ele><time>2026-04-25T11:23:57.095Z</time></trkpt><trkpt lat="41.7940785" lon="1.7777127"><ele>274.0</ele><time>2026-04-25T11:23:58.093Z</time></trkpt><trkpt lat="41.7938651" lon="1.7777308"><ele>283.0</ele><time>2026-04-25T11:23:59.095Z</time></trkpt><trkpt lat="41.7936571" lon="1.7777679"><ele>278.0</ele><time>2026-04-25T11:24:00.094Z</time></trkpt><trkpt lat="41.7934578" lon="1.7778286"><ele>273.0</ele><time>2026-04-25T11:24:01.093Z</time></trkpt><trkpt lat="41.793265" lon="1.7779142"><ele>268.0</ele><time>2026-04-25T11:24:02.094Z</time></trkpt><trkpt lat="41.7930738" lon="1.7780106"><ele>268.0</ele><time>2026-04-25T11:24:03.093Z</time></trkpt><trkpt lat="41.7928834" lon="1.7781112"><ele>268.0</ele><time>2026-04-25T11:24:04.093Z</time></trkpt><trkpt lat="41.7926914" lon="1.7782117"><ele>268.0</ele><time>2026-04-25T11:24:05.094Z</time></trkpt><trkpt lat="41.792498" lon="1.778313"><ele>266.3333333333333</ele><time>2026-04-25T11:24:06.094Z</time></trkpt><trkpt lat="41.7923071" lon="1.7784207"><ele>264.6666666666667</ele><time>2026-04-25T11:24:07.094Z</time></trkpt><trkpt lat="41.7921244" lon="1.7785371"><ele>263.0</ele><time>2026-04-25T11:24:08.094Z</time></trkpt><trkpt lat="41.7919531" lon="1.7786731"><ele>261.33333333333337</ele><time>2026-04-25T11:24:09.094Z</time></trkpt><trkpt lat="41.7917895" lon="1.7788286"><ele>259.6666666666667</ele><time>2026-04-25T11:24:10.095Z</time></trkpt><trkpt lat="41.7916355" lon="1.7790011"><ele>258.0</ele><time>2026-04-25T11:24:11.093Z</time></trkpt><trkpt lat="41.7914943" lon="1.7791993"><ele>262.6666666666667</ele><time>2026-04-25T11:24:12.095Z</time></trkpt><trkpt lat="41.7913684" lon="1.7794088"><ele>267.33333333333337</ele><time>2026-04-25T11:24:13.094Z</time></trkpt><trkpt lat="41.7912579" lon="1.7796264"><ele>272.0</ele><time>2026-04-25T11:24:14.093Z</time></trkpt><trkpt lat="41.7911642" lon="1.7798506"><ele>272.0</ele><time>2026-04-25T11:24:15.093Z</time></trkpt><trkpt lat="41.7910835" lon="1.7800777"><ele>272.0</ele><time>2026-04-25T11:24:16.093Z</time></trkpt><trkpt lat="41.7910135" lon="1.7803109"><ele>272.0</ele><time>2026-04-25T11:24:17.094Z</time></trkpt><trkpt lat="41.7909479" lon="1.7805456"><ele>271.0</ele><time>2026-04-25T11:24:18.093Z</time></trkpt><trkpt lat="41.7908865" lon="1.7807814"><ele>270.0</ele><time>2026-04-25T11:24:19.093Z</time></trkpt><trkpt lat="41.7908261" lon="1.7810159"><ele>269.0</ele><time>2026-04-25T11:24:20.094Z</time></trkpt><trkpt lat="41.790764" lon="1.7812483"><ele>271.6666666666667</ele><time>2026-04-25T11:24:21.093Z</time></trkpt><trkpt lat="41.7907044" lon="1.7814781"><ele>274.3333333333333</ele><time>2026-04-25T11:24:22.093Z</time></trkpt><trkpt lat="41.790644" lon="1.781702"><ele>277.0</ele><time>2026-04-25T11:24:23.093Z</time></trkpt><trkpt lat="41.7905806" lon="1.7819264"><ele>279.66666666666663</ele><time>2026-04-25T11:24:24.093Z</time></trkpt><trkpt lat="41.790489" lon="1.7821702"><ele>282.3333333333333</ele><time>2026-04-25T11:24:25.093Z</time></trkpt><trkpt lat="41.7903842" lon="1.7824059"><ele>285.0</ele><time>2026-04-25T11:24:26.094Z</time></trkpt><trkpt lat="41.7902548" lon="1.7826402"><ele>284.5</ele><time>2026-04-25T11:24:27.094Z</time></trkpt><trkpt lat="41.7901028" lon="1.7828642"><ele>284.0</ele><time>2026-04-25T11:24:28.095Z</time></trkpt><trkpt lat="41.7899317" lon="1.7830846"><ele>284.0</ele><time>2026-04-25T11:24:29.094Z</time></trkpt><trkpt lat="41.7897276" lon="1.7833097"><ele>284.0</ele><time>2026-04-25T11:24:30.093Z</time></trkpt><trkpt lat="41.7894961" lon="1.7835461"><ele>282.5</ele><time>2026-04-25T11:24:31.094Z</time></trkpt><trkpt lat="41.7892342" lon="1.7838121"><ele>281.0</ele><time>2026-04-25T11:24:32.094Z</time></trkpt><trkpt lat="41.7889479" lon="1.7841131"><ele>281.5</ele><time>2026-04-25T11:24:33.094Z</time></trkpt><trkpt lat="41.7886368" lon="1.7844464"><ele>282.0</ele><time>2026-04-25T11:24:34.094Z</time></trkpt><trkpt lat="41.7882986" lon="1.7848049"><ele>284.0</ele><time>2026-04-25T11:24:35.095Z</time></trkpt><trkpt lat="41.7879793" lon="1.7851413"><ele>286.0</ele><time>2026-04-25T11:24:36.093Z</time></trkpt><trkpt lat="41.7876927" lon="1.785444"><ele>286.5</ele><time>2026-04-25T11:24:37.094Z</time></trkpt><trkpt lat="41.7874303" lon="1.7857318"><ele>287.0</ele><time>2026-04-25T11:24:38.094Z</time></trkpt><trkpt lat="41.787183" lon="1.7860012"><ele>287.5</ele><time>2026-04-25T11:24:39.095Z</time></trkpt><trkpt lat="41.7869411" lon="1.7862548"><ele>288.0</ele><time>2026-04-25T11:24:40.094Z</time></trkpt><trkpt lat="41.786703" lon="1.7865023"><ele>289.0</ele><time>2026-04-25T11:24:41.094Z</time></trkpt><trkpt lat="41.7864704" lon="1.786746"><ele>290.0</ele><time>2026-04-25T11:24:42.093Z</time></trkpt><trkpt lat="41.7862432" lon="1.7869938"><ele>290.5</ele><time>2026-04-25T11:24:43.094Z</time></trkpt><trkpt lat="41.7860135" lon="1.7872335"><ele>291.0</ele><time>2026-04-25T11:24:44.094Z</time></trkpt><trkpt lat="41.7857882" lon="1.7874685"><ele>294.0</ele><time>2026-04-25T11:24:45.094Z</time></trkpt><trkpt lat="41.7855676" lon="1.7877011"><ele>297.0</ele><time>2026-04-25T11:24:46.094Z</time></trkpt><trkpt lat="41.785348" lon="1.7879289"><ele>297.0</ele><time>2026-04-25T11:24:47.094Z</time></trkpt><trkpt lat="41.7851292" lon="1.7881568"><ele>297.0</ele><time>2026-04-25T11:24:48.093Z</time></trkpt><trkpt lat="41.7849162" lon="1.7883851"><ele>298.0</ele><time>2026-04-25T11:24:49.093Z</time></trkpt><trkpt lat="41.7847054" lon="1.7886113"><ele>299.0</ele><time>2026-04-25T11:24:50.094Z</time></trkpt><trkpt lat="41.7844985" lon="1.7888342"><ele>296.5</ele><time>2026-04-25T11:24:51.093Z</time></trkpt><trkpt lat="41.7842904" lon="1.7890521"><ele>294.0</ele><time>2026-04-25T11:24:52.094Z</time></trkpt><trkpt lat="41.7840825" lon="1.7892691"><ele>294.0</ele><time>2026-04-25T11:24:53.094Z</time></trkpt><trkpt lat="41.7838793" lon="1.7894884"><ele>294.0</ele><time>2026-04-25T11:24:54.093Z</time></trkpt><trkpt lat="41.7836746" lon="1.7897078"><ele>290.0</ele><time>2026-04-25T11:24:55.093Z</time></trkpt><trkpt lat="41.7834686" lon="1.7899252"><ele>286.0</ele><time>2026-04-25T11:24:56.094Z</time></trkpt><trkpt lat="41.7832634" lon="1.7901439"><ele>286.0</ele><time>2026-04-25T11:24:57.094Z</time></trkpt><trkpt lat="41.7830571" lon="1.7903644"><ele>286.0</ele><time>2026-04-25T11:24:58.094Z</time></trkpt><trkpt lat="41.7828482" lon="1.790585"><ele>286.0</ele><time>2026-04-25T11:24:59.094Z</time></trkpt><trkpt lat="41.782639" lon="1.7908069"><ele>286.0</ele><time>2026-04-25T11:25:00.093Z</time></trkpt><trkpt lat="41.7824273" lon="1.7910317"><ele>286.0</ele><time>2026-04-25T11:25:01.095Z</time></trkpt><trkpt lat="41.7822145" lon="1.7912548"><ele>286.0</ele><time>2026-04-25T11:25:02.094Z</time></trkpt><trkpt lat="41.7820011" lon="1.791479"><ele>284.0</ele><time>2026-04-25T11:25:03.094Z</time></trkpt><trkpt lat="41.7817906" lon="1.7916974"><ele>282.0</ele><time>2026-04-25T11:25:04.095Z</time></trkpt><trkpt lat="41.7815813" lon="1.7918999"><ele>282.0</ele><time>2026-04-25T11:25:05.094Z</time></trkpt><trkpt lat="41.7813717" lon="1.7920706"><ele>282.0</ele><time>2026-04-25T11:25:06.094Z</time></trkpt><trkpt lat="41.7811574" lon="1.7922044"><ele>278.0</ele><time>2026-04-25T11:25:07.094Z</time></trkpt><trkpt lat="41.7809321" lon="1.7923101"><ele>274.0</ele><time>2026-04-25T11:25:08.094Z</time></trkpt><trkpt lat="41.7807032" lon="1.7923895"><ele>274.0</ele><time>2026-04-25T11:25:09.094Z</time></trkpt><trkpt lat="41.7804673" lon="1.7924403"><ele>274.0</ele><time>2026-04-25T11:25:10.094Z</time></trkpt><trkpt lat="41.7802287" lon="1.792451"><ele>269.0</ele><time>2026-04-25T11:25:11.095Z</time></trkpt><trkpt lat="41.7799909" lon="1.7924206"><ele>264.0</ele><time>2026-04-25T11:25:12.094Z</time></trkpt><trkpt lat="41.7797563" lon="1.792355"><ele>264.0</ele><time>2026-04-25T11:25:13.094Z</time></trkpt><trkpt lat="41.7795277" lon="1.792259"><ele>264.0</ele><time>2026-04-25T11:25:14.094Z</time></trkpt><trkpt lat="41.779313" lon="1.7921372"><ele>263.6666666666667</ele><time>2026-04-25T11:25:15.093Z</time></trkpt><trkpt lat="41.7791198" lon="1.7919912"><ele>263.33333333333337</ele><time>2026-04-25T11:25:16.094Z</time></trkpt><trkpt lat="41.7789479" lon="1.7918322"><ele>263.0</ele><time>2026-04-25T11:25:17.094Z</time></trkpt><trkpt lat="41.7787915" lon="1.791662"><ele>262.6666666666667</ele><time>2026-04-25T11:25:18.093Z</time></trkpt><trkpt lat="41.7786533" lon="1.7914724"><ele>262.3333333333333</ele><time>2026-04-25T11:25:19.093Z</time></trkpt><trkpt lat="41.7785309" lon="1.7912744"><ele>262.0</ele><time>2026-04-25T11:25:20.095Z</time></trkpt><trkpt lat="41.7784283" lon="1.7910839"><ele>263.25</ele><time>2026-04-25T11:25:21.093Z</time></trkpt><trkpt lat="41.7783418" lon="1.7909119"><ele>264.5</ele><time>2026-04-25T11:25:22.093Z</time></trkpt><trkpt lat="41.7782701" lon="1.7907646"><ele>265.75</ele><time>2026-04-25T11:25:23.094Z</time></trkpt><trkpt lat="41.7782093" lon="1.7906402"><ele>267.0</ele><time>2026-04-25T11:25:24.093Z</time></trkpt><trkpt lat="41.7781641" lon="1.7905444"><ele>267.0</ele><time>2026-04-25T11:25:25.094Z</time></trkpt><trkpt lat="41.7781196" lon="1.790478"><ele>267.0</ele><time>2026-04-25T11:25:26.094Z</time></trkpt><trkpt lat="41.7780595" lon="1.7904506"><ele>267.0</ele><time>2026-04-25T11:25:27.095Z</time></trkpt><trkpt lat="41.7779506" lon="1.7905405"><ele>267.0</ele><time>2026-04-25T11:25:29.093Z</time></trkpt><trkpt lat="41.7779095" lon="1.7906454"><ele>267.0</ele><time>2026-04-25T11:25:30.094Z</time></trkpt><trkpt lat="41.7778916" lon="1.7907836"><ele>267.0</ele><time>2026-04-25T11:25:31.094Z</time></trkpt><trkpt lat="41.7778959" lon="1.7909453"><ele>267.0</ele><time>2026-04-25T11:25:32.093Z</time></trkpt><trkpt lat="41.7779194" lon="1.7911239"><ele>267.0</ele><time>2026-04-25T11:25:33.094Z</time></trkpt><trkpt lat="41.7779456" lon="1.7913112"><ele>267.0</ele><time>2026-04-25T11:25:34.094Z</time></trkpt><trkpt lat="41.7779662" lon="1.791504"><ele>267.75</ele><time>2026-04-25T11:25:35.095Z</time></trkpt><trkpt lat="41.7779788" lon="1.7917019"><ele>268.5</ele><time>2026-04-25T11:25:36.094Z</time></trkpt><trkpt lat="41.7779915" lon="1.7918983"><ele>269.25</ele><time>2026-04-25T11:25:37.094Z</time></trkpt><trkpt lat="41.7780021" lon="1.7921002"><ele>270.0</ele><time>2026-04-25T11:25:38.093Z</time></trkpt><trkpt lat="41.7779983" lon="1.7923043"><ele>272.6666666666667</ele><time>2026-04-25T11:25:39.094Z</time></trkpt><trkpt lat="41.7779782" lon="1.7925067"><ele>275.33333333333337</ele><time>2026-04-25T11:25:40.093Z</time></trkpt><trkpt lat="41.777944" lon="1.7927147"><ele>278.0</ele><time>2026-04-25T11:25:41.094Z</time></trkpt><trkpt lat="41.7779028" lon="1.7929307"><ele>280.0</ele><time>2026-04-25T11:25:42.093Z</time></trkpt><trkpt lat="41.7778599" lon="1.7931505"><ele>282.0</ele><time>2026-04-25T11:25:43.093Z</time></trkpt><trkpt lat="41.7778116" lon="1.793383"><ele>284.0</ele><time>2026-04-25T11:25:44.094Z</time></trkpt><trkpt lat="41.777763" lon="1.7936218"><ele>285.0</ele><time>2026-04-25T11:25:45.094Z</time></trkpt><trkpt lat="41.7777113" lon="1.7938717"><ele>286.0</ele><time>2026-04-25T11:25:46.093Z</time></trkpt><trkpt lat="41.7776567" lon="1.7941212"><ele>287.0</ele><time>2026-04-25T11:25:47.093Z</time></trkpt><trkpt lat="41.7776033" lon="1.7943765"><ele>290.0</ele><time>2026-04-25T11:25:48.094Z</time></trkpt><trkpt lat="41.7775492" lon="1.7946277"><ele>293.0</ele><time>2026-04-25T11:25:49.094Z</time></trkpt><trkpt lat="41.7774942" lon="1.7948834"><ele>296.0</ele><time>2026-04-25T11:25:50.093Z</time></trkpt><trkpt lat="41.7774388" lon="1.7951341"><ele>296.6666666666667</ele><time>2026-04-25T11:25:51.094Z</time></trkpt><trkpt lat="41.7773836" lon="1.795378"><ele>297.3333333333333</ele><time>2026-04-25T11:25:52.093Z</time></trkpt><trkpt lat="41.7773307" lon="1.7956188"><ele>298.0</ele><time>2026-04-25T11:25:53.095Z</time></trkpt><trkpt lat="41.7772786" lon="1.7958566"><ele>297.3333333333333</ele><time>2026-04-25T11:25:54.094Z</time></trkpt><trkpt lat="41.7772306" lon="1.796092"><ele>296.6666666666667</ele><time>2026-04-25T11:25:55.094Z</time></trkpt><trkpt lat="41.777188" lon="1.7963272"><ele>296.0</ele><time>2026-04-25T11:25:56.094Z</time></trkpt><trkpt lat="41.7771655" lon="1.7965664"><ele>296.0</ele><time>2026-04-25T11:25:57.093Z</time></trkpt><trkpt lat="41.7771687" lon="1.7968151"><ele>296.0</ele><time>2026-04-25T11:25:58.093Z</time></trkpt><trkpt lat="41.7772" lon="1.7970672"><ele>296.0</ele><time>2026-04-25T11:25:59.093Z</time></trkpt><trkpt lat="41.7772527" lon="1.7973199"><ele>296.0</ele><time>2026-04-25T11:26:00.094Z</time></trkpt><trkpt lat="41.7773191" lon="1.797577"><ele>296.0</ele><time>2026-04-25T11:26:01.094Z</time></trkpt><trkpt lat="41.777387" lon="1.7978429"><ele>296.0</ele><time>2026-04-25T11:26:02.093Z</time></trkpt><trkpt lat="41.7774618" lon="1.798115"><ele>295.0</ele><time>2026-04-25T11:26:03.094Z</time></trkpt><trkpt lat="41.7775341" lon="1.7983941"><ele>294.0</ele><time>2026-04-25T11:26:04.095Z</time></trkpt><trkpt lat="41.7776057" lon="1.7986696"><ele>293.0</ele><time>2026-04-25T11:26:05.094Z</time></trkpt><trkpt lat="41.7776804" lon="1.798942"><ele>292.6666666666667</ele><time>2026-04-25T11:26:06.094Z</time></trkpt><trkpt lat="41.777752" lon="1.7992111"><ele>292.3333333333333</ele><time>2026-04-25T11:26:07.094Z</time></trkpt><trkpt lat="41.7778311" lon="1.7994888"><ele>292.0</ele><time>2026-04-25T11:26:08.093Z</time></trkpt><trkpt lat="41.7779017" lon="1.7997601"><ele>293.3333333333333</ele><time>2026-04-25T11:26:09.094Z</time></trkpt><trkpt lat="41.77797" lon="1.8000292"><ele>294.6666666666667</ele><time>2026-04-25T11:26:10.093Z</time></trkpt><trkpt lat="41.7780398" lon="1.8002895"><ele>296.0</ele><time>2026-04-25T11:26:11.094Z</time></trkpt><trkpt lat="41.7781027" lon="1.8005319"><ele>296.0</ele><time>2026-04-25T11:26:12.094Z</time></trkpt><trkpt lat="41.7781595" lon="1.8007562"><ele>296.0</ele><time>2026-04-25T11:26:13.095Z</time></trkpt><trkpt lat="41.7782127" lon="1.8009633"><ele>296.0</ele><time>2026-04-25T11:26:14.094Z</time></trkpt><trkpt lat="41.7782573" lon="1.8011577"><ele>295.5</ele><time>2026-04-25T11:26:15.094Z</time></trkpt><trkpt lat="41.7782944" lon="1.8013441"><ele>295.0</ele><time>2026-04-25T11:26:16.094Z</time></trkpt><trkpt lat="41.7783222" lon="1.8015155"><ele>294.5</ele><time>2026-04-25T11:26:17.094Z</time></trkpt><trkpt lat="41.7783426" lon="1.8016763"><ele>294.0</ele><time>2026-04-25T11:26:18.094Z</time></trkpt><trkpt lat="41.7783591" lon="1.8018229"><ele>294.0</ele><time>2026-04-25T11:26:19.094Z</time></trkpt><trkpt lat="41.7783694" lon="1.8019608"><ele>294.0</ele><time>2026-04-25T11:26:20.094Z</time></trkpt><trkpt lat="41.7783769" lon="1.8020874"><ele>294.0</ele><time>2026-04-25T11:26:21.094Z</time></trkpt><trkpt lat="41.7783829" lon="1.802205"><ele>294.0</ele><time>2026-04-25T11:26:22.094Z</time></trkpt><trkpt lat="41.7783905" lon="1.8023079"><ele>294.0</ele><time>2026-04-25T11:26:23.094Z</time></trkpt><trkpt lat="41.7784111" lon="1.8024581"><ele>294.0</ele><time>2026-04-25T11:26:25.095Z</time></trkpt><trkpt lat="41.778434" lon="1.8025426"><ele>294.0</ele><time>2026-04-25T11:26:27.094Z</time></trkpt><trkpt lat="41.7784326" lon="1.8026352"><ele>294.0</ele><time>2026-04-25T11:35:32.093Z</time></trkpt><trkpt lat="41.7784779" lon="1.8027314"><ele>294.0</ele><time>2026-04-25T11:35:35.093Z</time></trkpt><trkpt lat="41.7785151" lon="1.8028102"><ele>294.0</ele><time>2026-04-25T11:35:37.093Z</time></trkpt><trkpt lat="41.7785451" lon="1.8028874"><ele>294.0</ele><time>2026-04-25T11:35:39.093Z</time></trkpt><trkpt lat="41.7785928" lon="1.8029618"><ele>294.0</ele><time>2026-04-25T11:36:39.093Z</time></trkpt><trkpt lat="41.7786313" lon="1.8030311"><ele>294.4</ele><time>2026-04-25T11:36:41.092Z</time></trkpt><trkpt lat="41.7786929" lon="1.8031198"><ele>294.79999999999995</ele><time>2026-04-25T11:36:43.092Z</time></trkpt><trkpt lat="41.7787496" lon="1.8032237"><ele>295.20000000000005</ele><time>2026-04-25T11:36:45.093Z</time></trkpt><trkpt lat="41.7788037" lon="1.8033484"><ele>295.6</ele><time>2026-04-25T11:36:47.092Z</time></trkpt><trkpt lat="41.7788332" lon="1.8034327"><ele>296.0</ele><time>2026-04-25T11:36:48.092Z</time></trkpt><trkpt lat="41.7788625" lon="1.8035428"><ele>296.0</ele><time>2026-04-25T11:36:49.092Z</time></trkpt><trkpt lat="41.7788849" lon="1.8036766"><ele>296.0</ele><time>2026-04-25T11:36:50.093Z</time></trkpt><trkpt lat="41.7788999" lon="1.8038296"><ele>296.0</ele><time>2026-04-25T11:36:51.092Z</time></trkpt><trkpt lat="41.7789112" lon="1.8040059"><ele>296.0</ele><time>2026-04-25T11:36:52.092Z</time></trkpt><trkpt lat="41.7789209" lon="1.8042002"><ele>295.0</ele><time>2026-04-25T11:36:53.093Z</time></trkpt><trkpt lat="41.7789303" lon="1.8044122"><ele>294.0</ele><time>2026-04-25T11:36:54.093Z</time></trkpt><trkpt lat="41.778939" lon="1.8046404"><ele>293.0</ele><time>2026-04-25T11:36:55.093Z</time></trkpt><trkpt lat="41.7789477" lon="1.8048829"><ele>293.0</ele><time>2026-04-25T11:36:56.093Z</time></trkpt><trkpt lat="41.7789574" lon="1.8051364"><ele>293.0</ele><time>2026-04-25T11:36:57.093Z</time></trkpt><trkpt lat="41.7789639" lon="1.805405"><ele>293.0</ele><time>2026-04-25T11:36:58.093Z</time></trkpt><trkpt lat="41.7789696" lon="1.8056819"><ele>292.0</ele><time>2026-04-25T11:36:59.093Z</time></trkpt><trkpt lat="41.7789771" lon="1.8059668"><ele>291.0</ele><time>2026-04-25T11:37:00.093Z</time></trkpt><trkpt lat="41.7789857" lon="1.8062558"><ele>290.0</ele><time>2026-04-25T11:37:01.092Z</time></trkpt><trkpt lat="41.7789952" lon="1.8065531"><ele>288.0</ele><time>2026-04-25T11:37:02.094Z</time></trkpt><trkpt lat="41.7790065" lon="1.8068575"><ele>286.0</ele><time>2026-04-25T11:37:03.093Z</time></trkpt><trkpt lat="41.7790194" lon="1.8071661"><ele>286.0</ele><time>2026-04-25T11:37:04.093Z</time></trkpt><trkpt lat="41.7790322" lon="1.8074805"><ele>286.0</ele><time>2026-04-25T11:37:05.093Z</time></trkpt><trkpt lat="41.7790458" lon="1.8077973"><ele>286.0</ele><time>2026-04-25T11:37:06.092Z</time></trkpt><trkpt lat="41.7790529" lon="1.808117"><ele>286.0</ele><time>2026-04-25T11:37:07.093Z</time></trkpt><trkpt lat="41.7790641" lon="1.8084411"><ele>288.0</ele><time>2026-04-25T11:37:08.093Z</time></trkpt><trkpt lat="41.7790731" lon="1.8087671"><ele>290.0</ele><time>2026-04-25T11:37:09.093Z</time></trkpt><trkpt lat="41.7790838" lon="1.8090959"><ele>291.0</ele><time>2026-04-25T11:37:10.093Z</time></trkpt><trkpt lat="41.7790924" lon="1.8094275"><ele>292.0</ele><time>2026-04-25T11:37:11.093Z</time></trkpt><trkpt lat="41.7791034" lon="1.8097612"><ele>292.0</ele><time>2026-04-25T11:37:12.093Z</time></trkpt><trkpt lat="41.779115" lon="1.8100979"><ele>292.0</ele><time>2026-04-25T11:37:13.093Z</time></trkpt><trkpt lat="41.7791242" lon="1.8104379"><ele>292.0</ele><time>2026-04-25T11:37:14.092Z</time></trkpt><trkpt lat="41.7791355" lon="1.8107802"><ele>292.0</ele><time>2026-04-25T11:37:15.093Z</time></trkpt><trkpt lat="41.7791474" lon="1.8111241"><ele>292.0</ele><time>2026-04-25T11:37:16.092Z</time></trkpt><trkpt lat="41.7791605" lon="1.8114711"><ele>292.0</ele><time>2026-04-25T11:37:17.093Z</time></trkpt><trkpt lat="41.7791726" lon="1.8118206"><ele>291.0</ele><time>2026-04-25T11:37:18.092Z</time></trkpt><trkpt lat="41.7791789" lon="1.8121711"><ele>290.0</ele><time>2026-04-25T11:37:19.093Z</time></trkpt><trkpt lat="41.7791885" lon="1.8125244"><ele>289.0</ele><time>2026-04-25T11:37:20.092Z</time></trkpt><trkpt lat="41.7792004" lon="1.8128807"><ele>288.0</ele><time>2026-04-25T11:37:21.092Z</time></trkpt><trkpt lat="41.7792092" lon="1.813241"><ele>287.0</ele><time>2026-04-25T11:37:22.093Z</time></trkpt><trkpt lat="41.7792185" lon="1.8136024"><ele>286.0</ele><time>2026-04-25T11:37:23.093Z</time></trkpt><trkpt lat="41.77923" lon="1.813962"><ele>287.5</ele><time>2026-04-25T11:37:24.093Z</time></trkpt><trkpt lat="41.7792439" lon="1.8143244"><ele>289.0</ele><time>2026-04-25T11:37:25.092Z</time></trkpt><trkpt lat="41.7792581" lon="1.8146841"><ele>289.0</ele><time>2026-04-25T11:37:26.093Z</time></trkpt><trkpt lat="41.7792733" lon="1.8150472"><ele>289.0</ele><time>2026-04-25T11:37:27.093Z</time></trkpt><trkpt lat="41.7792858" lon="1.815406"><ele>291.5</ele><time>2026-04-25T11:37:28.093Z</time></trkpt><trkpt lat="41.7792969" lon="1.8157629"><ele>294.0</ele><time>2026-04-25T11:37:29.093Z</time></trkpt><trkpt lat="41.7793066" lon="1.8161201"><ele>294.0</ele><time>2026-04-25T11:37:30.093Z</time></trkpt><trkpt lat="41.7793181" lon="1.8164734"><ele>294.0</ele><time>2026-04-25T11:37:31.093Z</time></trkpt><trkpt lat="41.7793281" lon="1.8168259"><ele>294.0</ele><time>2026-04-25T11:37:32.092Z</time></trkpt><trkpt lat="41.779339" lon="1.8171801"><ele>294.0</ele><time>2026-04-25T11:37:33.093Z</time></trkpt><trkpt lat="41.7793513" lon="1.8175339"><ele>296.0</ele><time>2026-04-25T11:37:34.093Z</time></trkpt><trkpt lat="41.7793618" lon="1.8178892"><ele>298.0</ele><time>2026-04-25T11:37:35.093Z</time></trkpt><trkpt lat="41.779372" lon="1.8182442"><ele>298.0</ele><time>2026-04-25T11:37:36.093Z</time></trkpt><trkpt lat="41.7793851" lon="1.8186004"><ele>298.0</ele><time>2026-04-25T11:37:37.092Z</time></trkpt><trkpt lat="41.7793976" lon="1.8189574"><ele>298.0</ele><time>2026-04-25T11:37:38.092Z</time></trkpt><trkpt lat="41.7794109" lon="1.8193155"><ele>298.0</ele><time>2026-04-25T11:37:39.093Z</time></trkpt><trkpt lat="41.7794209" lon="1.8196746"><ele>299.0</ele><time>2026-04-25T11:37:40.093Z</time></trkpt><trkpt lat="41.7794331" lon="1.820037"><ele>300.0</ele><time>2026-04-25T11:37:41.092Z</time></trkpt><trkpt lat="41.7794449" lon="1.8204031"><ele>300.0</ele><time>2026-04-25T11:37:42.093Z</time></trkpt><trkpt lat="41.779457" lon="1.8207712"><ele>300.0</ele><time>2026-04-25T11:37:43.093Z</time></trkpt><trkpt lat="41.779468" lon="1.8211466"><ele>297.5</ele><time>2026-04-25T11:37:44.093Z</time></trkpt><trkpt lat="41.779481" lon="1.8215258"><ele>295.0</ele><time>2026-04-25T11:37:45.093Z</time></trkpt><trkpt lat="41.7794958" lon="1.8218999"><ele>293.5</ele><time>2026-04-25T11:37:46.093Z</time></trkpt><trkpt lat="41.7795071" lon="1.8222586"><ele>292.0</ele><time>2026-04-25T11:37:47.093Z</time></trkpt><trkpt lat="41.7795158" lon="1.8226159"><ele>292.5</ele><time>2026-04-25T11:37:48.093Z</time></trkpt><trkpt lat="41.779527" lon="1.8229728"><ele>293.0</ele><time>2026-04-25T11:37:49.093Z</time></trkpt><trkpt lat="41.7795373" lon="1.8233343"><ele>295.5</ele><time>2026-04-25T11:37:50.092Z</time></trkpt><trkpt lat="41.7795484" lon="1.8236967"><ele>298.0</ele><time>2026-04-25T11:37:51.093Z</time></trkpt><trkpt lat="41.7795585" lon="1.8240529"><ele>300.0</ele><time>2026-04-25T11:37:52.092Z</time></trkpt><trkpt lat="41.7795694" lon="1.8244084"><ele>302.0</ele><time>2026-04-25T11:37:53.093Z</time></trkpt><trkpt lat="41.7795799" lon="1.8247626"><ele>302.0</ele><time>2026-04-25T11:37:54.093Z</time></trkpt><trkpt lat="41.7795905" lon="1.8251163"><ele>302.0</ele><time>2026-04-25T11:37:55.093Z</time></trkpt><trkpt lat="41.7795997" lon="1.8254715"><ele>303.5</ele><time>2026-04-25T11:37:56.093Z</time></trkpt><trkpt lat="41.7796104" lon="1.8258281"><ele>305.0</ele><time>2026-04-25T11:37:57.093Z</time></trkpt><trkpt lat="41.7796196" lon="1.8261828"><ele>305.5</ele><time>2026-04-25T11:37:58.093Z</time></trkpt><trkpt lat="41.7796289" lon="1.8265407"><ele>306.0</ele><time>2026-04-25T11:37:59.093Z</time></trkpt><trkpt lat="41.7796381" lon="1.8268974"><ele>306.0</ele><time>2026-04-25T11:38:00.093Z</time></trkpt><trkpt lat="41.7796508" lon="1.8272609"><ele>306.0</ele><time>2026-04-25T11:38:01.093Z</time></trkpt><trkpt lat="41.7796636" lon="1.8276254"><ele>307.0</ele><time>2026-04-25T11:38:02.094Z</time></trkpt><trkpt lat="41.7796751" lon="1.8279878"><ele>308.0</ele><time>2026-04-25T11:38:03.093Z</time></trkpt><trkpt lat="41.7796877" lon="1.8283453"><ele>309.0</ele><time>2026-04-25T11:38:04.092Z</time></trkpt><trkpt lat="41.7796981" lon="1.8286917"><ele>310.0</ele><time>2026-04-25T11:38:05.094Z</time></trkpt><trkpt lat="41.7797021" lon="1.8290135"><ele>311.66666666666663</ele><time>2026-04-25T11:38:06.093Z</time></trkpt><trkpt lat="41.7797" lon="1.8293193"><ele>313.3333333333333</ele><time>2026-04-25T11:38:07.093Z</time></trkpt><trkpt lat="41.7796819" lon="1.829612"><ele>315.0</ele><time>2026-04-25T11:38:08.092Z</time></trkpt><trkpt lat="41.7796501" lon="1.8299003"><ele>316.3333333333333</ele><time>2026-04-25T11:38:09.093Z</time></trkpt><trkpt lat="41.7796131" lon="1.8301899"><ele>317.66666666666663</ele><time>2026-04-25T11:38:10.093Z</time></trkpt><trkpt lat="41.7795763" lon="1.8304633"><ele>319.0</ele><time>2026-04-25T11:38:11.094Z</time></trkpt><trkpt lat="41.7795416" lon="1.8307277"><ele>319.3333333333333</ele><time>2026-04-25T11:38:12.093Z</time></trkpt><trkpt lat="41.779516" lon="1.8309821"><ele>319.6666666666667</ele><time>2026-04-25T11:38:13.093Z</time></trkpt><trkpt lat="41.7795055" lon="1.8312206"><ele>320.0</ele><time>2026-04-25T11:38:14.092Z</time></trkpt><trkpt lat="41.7795153" lon="1.8314336"><ele>320.0</ele><time>2026-04-25T11:38:15.093Z</time></trkpt><trkpt lat="41.7795365" lon="1.831602"><ele>320.0</ele><time>2026-04-25T11:38:16.094Z</time></trkpt><trkpt lat="41.7795532" lon="1.8317278"><ele>320.0</ele><time>2026-04-25T11:38:17.093Z</time></trkpt><trkpt lat="41.7795485" lon="1.831812"><ele>320.0</ele><time>2026-04-25T11:38:18.093Z</time></trkpt><trkpt lat="41.7794886" lon="1.831903"><ele>320.0</ele><time>2026-04-25T11:38:20.093Z</time></trkpt><trkpt lat="41.7794196" lon="1.8318541"><ele>320.0</ele><time>2026-04-25T11:38:22.093Z</time></trkpt><trkpt lat="41.7794126" lon="1.8317184"><ele>320.0</ele><time>2026-04-25T11:38:24.093Z</time></trkpt><trkpt lat="41.7793968" lon="1.8315697"><ele>320.0</ele><time>2026-04-25T11:38:26.093Z</time></trkpt><trkpt lat="41.7793861" lon="1.8314208"><ele>320.0</ele><time>2026-04-25T11:38:28.093Z</time></trkpt><trkpt lat="41.7793827" lon="1.8313327"><ele>320.0</ele><time>2026-04-25T11:38:29.093Z</time></trkpt><trkpt lat="41.7793805" lon="1.8312416"><ele>320.0</ele><time>2026-04-25T11:38:30.093Z</time></trkpt><trkpt lat="41.7793851" lon="1.8311486"><ele>320.0</ele><time>2026-04-25T11:38:31.092Z</time></trkpt><trkpt lat="41.7793803" lon="1.8309832"><ele>320.0</ele><time>2026-04-25T11:38:33.092Z</time></trkpt><trkpt lat="41.779346" lon="1.8308765"><ele>320.0</ele><time>2026-04-25T11:38:35.093Z</time></trkpt><trkpt lat="41.7792754" lon="1.8308459"><ele>320.0</ele><time>2026-04-25T11:38:37.093Z</time></trkpt><trkpt lat="41.7792042" lon="1.8308641"><ele>320.0</ele><time>2026-04-25T11:38:39.093Z</time></trkpt><trkpt lat="41.7791256" lon="1.8308855"><ele>320.0</ele><time>2026-04-25T11:38:41.093Z</time></trkpt><trkpt lat="41.7790426" lon="1.8308945"><ele>320.0</ele><time>2026-04-25T11:38:43.093Z</time></trkpt><trkpt lat="41.7789614" lon="1.8308948"><ele>320.0</ele><time>2026-04-25T11:38:45.093Z</time></trkpt><trkpt lat="41.7788844" lon="1.8308972"><ele>320.0</ele><time>2026-04-25T11:38:47.094Z</time></trkpt><trkpt lat="41.7788067" lon="1.8309069"><ele>320.0</ele><time>2026-04-25T11:38:49.093Z</time></trkpt><trkpt lat="41.7787366" lon="1.8309322"><ele>320.0</ele><time>2026-04-25T11:38:51.093Z</time></trkpt><trkpt lat="41.7786955" lon="1.8310068"><ele>320.42857142857144</ele><time>2026-04-25T11:38:53.093Z</time></trkpt><trkpt lat="41.7787023" lon="1.8310908"><ele>320.8571428571429</ele><time>2026-04-25T11:38:55.093Z</time></trkpt><trkpt lat="41.7787342" lon="1.8312064"><ele>321.28571428571433</ele><time>2026-04-25T11:38:58.094Z</time></trkpt><trkpt lat="41.7787468" lon="1.8313173"><ele>321.7142857142857</ele><time>2026-04-25T11:39:01.093Z</time></trkpt><trkpt lat="41.7787798" lon="1.8314097"><ele>322.14285714285717</ele><time>2026-04-25T11:49:57.092Z</time></trkpt><trkpt lat="41.7787227" lon="1.831446"><ele>322.5714285714286</ele><time>2026-04-25T11:50:01.091Z</time></trkpt><trkpt lat="41.7786892" lon="1.8313691"><ele>323.0</ele><time>2026-04-25T11:50:05.091Z</time></trkpt><trkpt lat="41.7786917" lon="1.831273"><ele>323.0</ele><time>2026-04-25T11:50:09.091Z</time></trkpt><trkpt lat="41.7786993" lon="1.831174"><ele>323.0</ele><time>2026-04-25T11:50:12.091Z</time></trkpt><trkpt lat="41.7787094" lon="1.8310594"><ele>323.0</ele><time>2026-04-25T11:50:15.093Z</time></trkpt><trkpt lat="41.7787509" lon="1.8309795"><ele>323.0</ele><time>2026-04-25T11:50:18.092Z</time></trkpt><trkpt lat="41.778813" lon="1.8309351"><ele>323.0</ele><time>2026-04-25T11:50:21.091Z</time></trkpt><trkpt lat="41.7788808" lon="1.8309116"><ele>323.0</ele><time>2026-04-25T11:50:24.091Z</time></trkpt><trkpt lat="41.7789669" lon="1.8309186"><ele>323.0</ele><time>2026-04-25T11:50:27.092Z</time></trkpt><trkpt lat="41.779062" lon="1.8309077"><ele>323.0</ele><time>2026-04-25T11:50:30.091Z</time></trkpt><trkpt lat="41.7791277" lon="1.8308978"><ele>323.0</ele><time>2026-04-25T11:50:32.091Z</time></trkpt><trkpt lat="41.7791972" lon="1.8309594"><ele>323.0</ele><time>2026-04-25T11:50:35.093Z</time></trkpt><trkpt lat="41.7792421" lon="1.8310605"><ele>323.0</ele><time>2026-04-25T11:50:38.091Z</time></trkpt><trkpt lat="41.7792894" lon="1.8311304"><ele>323.0</ele><time>2026-04-25T11:50:40.092Z</time></trkpt><trkpt lat="41.7793099" lon="1.8312198"><ele>323.00000000000006</ele><time>2026-04-25T11:50:42.092Z</time></trkpt><trkpt lat="41.779308" lon="1.83132"><ele>323.0</ele><time>2026-04-25T11:50:44.091Z</time></trkpt><trkpt lat="41.7793066" lon="1.8314135"><ele>323.0</ele><time>2026-04-25T11:50:46.092Z</time></trkpt><trkpt lat="41.779342" lon="1.8315131"><ele>323.0</ele><time>2026-04-25T11:50:49.092Z</time></trkpt><trkpt lat="41.779381" lon="1.8315825"><ele>323.0</ele><time>2026-04-25T11:50:51.092Z</time></trkpt><trkpt lat="41.7794121" lon="1.831667"><ele>323.00000000000006</ele><time>2026-04-25T11:50:53.092Z</time></trkpt><trkpt lat="41.7794239" lon="1.8317649"><ele>323.0</ele><time>2026-04-25T11:50:56.092Z</time></trkpt><trkpt lat="41.7794324" lon="1.8318642"><ele>322.6666666666667</ele><time>2026-04-25T11:51:00.092Z</time></trkpt><trkpt lat="41.7794066" lon="1.8319575"><ele>322.33333333333337</ele><time>2026-04-25T11:51:03.092Z</time></trkpt><trkpt lat="41.7793663" lon="1.8320263"><ele>322.0</ele><time>2026-04-25T11:51:05.092Z</time></trkpt><trkpt lat="41.7793545" lon="1.8321298"><ele>321.6666666666667</ele><time>2026-04-25T11:51:07.093Z</time></trkpt><trkpt lat="41.7793713" lon="1.832241"><ele>321.3333333333333</ele><time>2026-04-25T11:51:09.091Z</time></trkpt><trkpt lat="41.779456" lon="1.8323171"><ele>321.0</ele><time>2026-04-25T11:51:11.092Z</time></trkpt><trkpt lat="41.7795655" lon="1.8323133"><ele>321.0</ele><time>2026-04-25T11:51:13.093Z</time></trkpt><trkpt lat="41.7796546" lon="1.8323187"><ele>321.0</ele><time>2026-04-25T11:51:15.092Z</time></trkpt><trkpt lat="41.7797145" lon="1.8323528"><ele>321.0</ele><time>2026-04-25T11:52:18.09Z</time></trkpt><trkpt lat="41.7797568" lon="1.8324494"><ele>321.0</ele><time>2026-04-25T11:52:20.092Z</time></trkpt><trkpt lat="41.7798005" lon="1.8326153"><ele>321.0</ele><time>2026-04-25T11:52:22.091Z</time></trkpt><trkpt lat="41.779827" lon="1.8327107"><ele>321.0</ele><time>2026-04-25T11:52:23.091Z</time></trkpt><trkpt lat="41.7798555" lon="1.8328107"><ele>320.5</ele><time>2026-04-25T11:52:24.09Z</time></trkpt><trkpt lat="41.7798849" lon="1.8329126"><ele>320.0</ele><time>2026-04-25T11:52:25.09Z</time></trkpt><trkpt lat="41.7799129" lon="1.8330167"><ele>319.5</ele><time>2026-04-25T11:52:26.09Z</time></trkpt><trkpt lat="41.7799418" lon="1.8331222"><ele>319.0</ele><time>2026-04-25T11:52:27.091Z</time></trkpt><trkpt lat="41.7799713" lon="1.8332259"><ele>318.5</ele><time>2026-04-25T11:52:28.091Z</time></trkpt><trkpt lat="41.7800015" lon="1.8333323"><ele>318.0</ele><time>2026-04-25T11:52:29.091Z</time></trkpt><trkpt lat="41.7800317" lon="1.8334366"><ele>317.8333333333333</ele><time>2026-04-25T11:52:30.091Z</time></trkpt><trkpt lat="41.7800624" lon="1.8335429"><ele>317.6666666666667</ele><time>2026-04-25T11:52:31.09Z</time></trkpt><trkpt lat="41.7800927" lon="1.8336491"><ele>317.5</ele><time>2026-04-25T11:52:32.09Z</time></trkpt><trkpt lat="41.7801237" lon="1.8337539"><ele>317.33333333333337</ele><time>2026-04-25T11:52:33.09Z</time></trkpt><trkpt lat="41.7801543" lon="1.8338608"><ele>317.1666666666667</ele><time>2026-04-25T11:52:34.09Z</time></trkpt><trkpt lat="41.7801851" lon="1.8339701"><ele>317.0</ele><time>2026-04-25T11:52:35.091Z</time></trkpt><trkpt lat="41.7802161" lon="1.8340779"><ele>316.6666666666667</ele><time>2026-04-25T11:52:36.09Z</time></trkpt><trkpt lat="41.7802483" lon="1.834184"><ele>316.33333333333337</ele><time>2026-04-25T11:52:37.092Z</time></trkpt><trkpt lat="41.7802798" lon="1.8342928"><ele>316.0</ele><time>2026-04-25T11:52:38.091Z</time></trkpt><trkpt lat="41.7803119" lon="1.8344039"><ele>315.6666666666667</ele><time>2026-04-25T11:52:39.092Z</time></trkpt><trkpt lat="41.7803406" lon="1.8345166"><ele>315.3333333333333</ele><time>2026-04-25T11:52:40.09Z</time></trkpt><trkpt lat="41.7803713" lon="1.8346317"><ele>315.0</ele><time>2026-04-25T11:52:41.091Z</time></trkpt><trkpt lat="41.7804025" lon="1.8347438"><ele>314.8333333333333</ele><time>2026-04-25T11:52:42.09Z</time></trkpt><trkpt lat="41.7804356" lon="1.8348549"><ele>314.6666666666667</ele><time>2026-04-25T11:52:43.09Z</time></trkpt><trkpt lat="41.7804667" lon="1.8349692"><ele>314.5</ele><time>2026-04-25T11:52:44.09Z</time></trkpt><trkpt lat="41.7805035" lon="1.8350782"><ele>314.33333333333337</ele><time>2026-04-25T11:52:45.092Z</time></trkpt><trkpt lat="41.780535" lon="1.8351906"><ele>314.1666666666667</ele><time>2026-04-25T11:52:46.091Z</time></trkpt><trkpt lat="41.780567" lon="1.8353023"><ele>314.0</ele><time>2026-04-25T11:52:47.091Z</time></trkpt><trkpt lat="41.7806032" lon="1.8354121"><ele>313.8</ele><time>2026-04-25T11:52:48.091Z</time></trkpt><trkpt lat="41.7806351" lon="1.8355247"><ele>313.59999999999997</ele><time>2026-04-25T11:52:49.091Z</time></trkpt><trkpt lat="41.7806677" lon="1.8356372"><ele>313.4</ele><time>2026-04-25T11:52:50.092Z</time></trkpt><trkpt lat="41.7806996" lon="1.8357512"><ele>313.2</ele><time>2026-04-25T11:52:51.091Z</time></trkpt><trkpt lat="41.7807307" lon="1.8358657"><ele>313.0</ele><time>2026-04-25T11:52:52.09Z</time></trkpt><trkpt lat="41.7807616" lon="1.8359766"><ele>313.0</ele><time>2026-04-25T11:52:53.091Z</time></trkpt><trkpt lat="41.780794" lon="1.8360902"><ele>313.0</ele><time>2026-04-25T11:52:54.091Z</time></trkpt><trkpt lat="41.7808266" lon="1.8361997"><ele>313.0</ele><time>2026-04-25T11:52:55.09Z</time></trkpt><trkpt lat="41.7808633" lon="1.8363155"><ele>313.0</ele><time>2026-04-25T11:52:56.09Z</time></trkpt><trkpt lat="41.7808958" lon="1.8364244"><ele>313.0</ele><time>2026-04-25T11:52:57.09Z</time></trkpt><trkpt lat="41.7809267" lon="1.8365352"><ele>313.0</ele><time>2026-04-25T11:52:58.091Z</time></trkpt><trkpt lat="41.7809546" lon="1.8366445"><ele>313.0</ele><time>2026-04-25T11:52:59.09Z</time></trkpt><trkpt lat="41.780983" lon="1.8367514"><ele>313.0</ele><time>2026-04-25T11:53:00.091Z</time></trkpt><trkpt lat="41.7810139" lon="1.8368634"><ele>313.0</ele><time>2026-04-25T11:53:01.091Z</time></trkpt><trkpt lat="41.7810455" lon="1.8369753"><ele>313.0</ele><time>2026-04-25T11:53:02.09Z</time></trkpt><trkpt lat="41.7810764" lon="1.8370871"><ele>313.0</ele><time>2026-04-25T11:53:03.091Z</time></trkpt><trkpt lat="41.7811051" lon="1.8371956"><ele>313.0</ele><time>2026-04-25T11:53:04.09Z</time></trkpt><trkpt lat="41.7811361" lon="1.8373027"><ele>313.16666666666663</ele><time>2026-04-25T11:53:05.091Z</time></trkpt><trkpt lat="41.7811646" lon="1.837406"><ele>313.3333333333333</ele><time>2026-04-25T11:53:06.09Z</time></trkpt><trkpt lat="41.781191" lon="1.8374994"><ele>313.5</ele><time>2026-04-25T11:53:07.091Z</time></trkpt><trkpt lat="41.7812131" lon="1.8375825"><ele>313.6666666666667</ele><time>2026-04-25T11:53:08.091Z</time></trkpt><trkpt lat="41.7812549" lon="1.8377247"><ele>313.83333333333337</ele><time>2026-04-25T11:53:10.09Z</time></trkpt><trkpt lat="41.7812927" lon="1.8378476"><ele>314.0</ele><time>2026-04-25T11:53:12.091Z</time></trkpt><trkpt lat="41.7813214" lon="1.837948"><ele>314.1666666666667</ele><time>2026-04-25T11:53:14.091Z</time></trkpt><trkpt lat="41.7813491" lon="1.8380253"><ele>314.33333333333337</ele><time>2026-04-25T11:53:41.09Z</time></trkpt><trkpt lat="41.7813739" lon="1.8381073"><ele>314.5</ele><time>2026-04-25T11:53:43.09Z</time></trkpt><trkpt lat="41.7814121" lon="1.8382391"><ele>314.6666666666667</ele><time>2026-04-25T11:53:45.09Z</time></trkpt><trkpt lat="41.7814563" lon="1.8383947"><ele>314.8333333333333</ele><time>2026-04-25T11:53:47.091Z</time></trkpt><trkpt lat="41.7814769" lon="1.8384906"><ele>315.0</ele><time>2026-04-25T11:53:48.091Z</time></trkpt><trkpt lat="41.7815029" lon="1.8385907"><ele>315.1666666666667</ele><time>2026-04-25T11:53:49.091Z</time></trkpt><trkpt lat="41.7815315" lon="1.8386922"><ele>315.3333333333333</ele><time>2026-04-25T11:53:50.09Z</time></trkpt><trkpt lat="41.7815594" lon="1.8388015"><ele>315.5</ele><time>2026-04-25T11:53:51.091Z</time></trkpt><trkpt lat="41.7815892" lon="1.8389156"><ele>315.66666666666663</ele><time>2026-04-25T11:53:52.092Z</time></trkpt><trkpt lat="41.7816221" lon="1.8390308"><ele>315.8333333333333</ele><time>2026-04-25T11:53:53.092Z</time></trkpt><trkpt lat="41.7816536" lon="1.8391484"><ele>316.0</ele><time>2026-04-25T11:53:54.092Z</time></trkpt><trkpt lat="41.7816873" lon="1.83927"><ele>316.0</ele><time>2026-04-25T11:53:55.091Z</time></trkpt><trkpt lat="41.7817245" lon="1.8393949"><ele>316.0</ele><time>2026-04-25T11:53:56.09Z</time></trkpt><trkpt lat="41.7817613" lon="1.839523"><ele>316.0</ele><time>2026-04-25T11:53:57.091Z</time></trkpt><trkpt lat="41.7817979" lon="1.8396546"><ele>316.0</ele><time>2026-04-25T11:53:58.091Z</time></trkpt><trkpt lat="41.7818365" lon="1.8397883"><ele>316.0</ele><time>2026-04-25T11:53:59.091Z</time></trkpt><trkpt lat="41.7818774" lon="1.839922"><ele>316.5</ele><time>2026-04-25T11:54:00.092Z</time></trkpt><trkpt lat="41.7819179" lon="1.840059"><ele>317.0</ele><time>2026-04-25T11:54:01.091Z</time></trkpt><trkpt lat="41.7819557" lon="1.8402008"><ele>317.5</ele><time>2026-04-25T11:54:02.092Z</time></trkpt><trkpt lat="41.7819924" lon="1.8403456"><ele>318.0</ele><time>2026-04-25T11:54:03.091Z</time></trkpt><trkpt lat="41.7820314" lon="1.8404923"><ele>318.0</ele><time>2026-04-25T11:54:04.091Z</time></trkpt><trkpt lat="41.7820701" lon="1.840644"><ele>318.0</ele><time>2026-04-25T11:54:05.09Z</time></trkpt><trkpt lat="41.7821099" lon="1.8407992"><ele>318.0</ele><time>2026-04-25T11:54:06.09Z</time></trkpt><trkpt lat="41.7821515" lon="1.8409549"><ele>318.0</ele><time>2026-04-25T11:54:07.091Z</time></trkpt><trkpt lat="41.7821958" lon="1.8411116"><ele>317.0</ele><time>2026-04-25T11:54:08.091Z</time></trkpt><trkpt lat="41.7822413" lon="1.8412705"><ele>316.0</ele><time>2026-04-25T11:54:09.091Z</time></trkpt><trkpt lat="41.7822867" lon="1.8414309"><ele>315.0</ele><time>2026-04-25T11:54:10.091Z</time></trkpt><trkpt lat="41.7823328" lon="1.8415928"><ele>314.0</ele><time>2026-04-25T11:54:11.091Z</time></trkpt><trkpt lat="41.7823782" lon="1.8417503"><ele>314.25</ele><time>2026-04-25T11:54:12.09Z</time></trkpt><trkpt lat="41.7824209" lon="1.8419038"><ele>314.5</ele><time>2026-04-25T11:54:13.09Z</time></trkpt><trkpt lat="41.7824614" lon="1.8420506"><ele>314.75</ele><time>2026-04-25T11:54:14.091Z</time></trkpt><trkpt lat="41.7824999" lon="1.842193"><ele>315.0</ele><time>2026-04-25T11:54:15.091Z</time></trkpt><trkpt lat="41.7825369" lon="1.8423328"><ele>315.0</ele><time>2026-04-25T11:54:16.091Z</time></trkpt><trkpt lat="41.7825738" lon="1.8424769"><ele>315.0</ele><time>2026-04-25T11:54:17.09Z</time></trkpt><trkpt lat="41.7826101" lon="1.842626"><ele>315.0</ele><time>2026-04-25T11:54:18.091Z</time></trkpt><trkpt lat="41.7826482" lon="1.8427792"><ele>315.0</ele><time>2026-04-25T11:54:19.091Z</time></trkpt><trkpt lat="41.7826868" lon="1.8429336"><ele>315.5</ele><time>2026-04-25T11:54:20.091Z</time></trkpt><trkpt lat="41.7827287" lon="1.8430876"><ele>316.0</ele><time>2026-04-25T11:54:21.091Z</time></trkpt><trkpt lat="41.7827748" lon="1.8432416"><ele>316.5</ele><time>2026-04-25T11:54:22.091Z</time></trkpt><trkpt lat="41.7828236" lon="1.8433993"><ele>317.0</ele><time>2026-04-25T11:54:23.09Z</time></trkpt><trkpt lat="41.7828764" lon="1.8435556"><ele>317.0</ele><time>2026-04-25T11:54:24.091Z</time></trkpt><trkpt lat="41.7829271" lon="1.8437134"><ele>317.0</ele><time>2026-04-25T11:54:25.091Z</time></trkpt><trkpt lat="41.7829748" lon="1.8438732"><ele>317.0</ele><time>2026-04-25T11:54:26.091Z</time></trkpt><trkpt lat="41.7830213" lon="1.8440318"><ele>317.0</ele><time>2026-04-25T11:54:27.09Z</time></trkpt><trkpt lat="41.7830671" lon="1.8441899"><ele>317.0</ele><time>2026-04-25T11:54:28.091Z</time></trkpt><trkpt lat="41.7831119" lon="1.8443503"><ele>317.0</ele><time>2026-04-25T11:54:29.09Z</time></trkpt><trkpt lat="41.783158" lon="1.8445076"><ele>317.0</ele><time>2026-04-25T11:54:30.091Z</time></trkpt><trkpt lat="41.7832044" lon="1.8446667"><ele>317.0</ele><time>2026-04-25T11:54:31.09Z</time></trkpt><trkpt lat="41.7832502" lon="1.8448247"><ele>317.0</ele><time>2026-04-25T11:54:32.091Z</time></trkpt><trkpt lat="41.7832959" lon="1.8449833"><ele>317.0</ele><time>2026-04-25T11:54:33.091Z</time></trkpt><trkpt lat="41.7833395" lon="1.845141"><ele>317.0</ele><time>2026-04-25T11:54:34.091Z</time></trkpt><trkpt lat="41.7833796" lon="1.8452987"><ele>317.0</ele><time>2026-04-25T11:54:35.092Z</time></trkpt><trkpt lat="41.7834087" lon="1.8454603"><ele>316.75</ele><time>2026-04-25T11:54:36.091Z</time></trkpt><trkpt lat="41.7834221" lon="1.8456256"><ele>316.5</ele><time>2026-04-25T11:54:37.091Z</time></trkpt><trkpt lat="41.7834157" lon="1.8457902"><ele>316.25</ele><time>2026-04-25T11:54:38.091Z</time></trkpt><trkpt lat="41.7833893" lon="1.8459504"><ele>316.0</ele><time>2026-04-25T11:54:39.092Z</time></trkpt><trkpt lat="41.7833404" lon="1.8461053"><ele>315.75</ele><time>2026-04-25T11:54:40.09Z</time></trkpt><trkpt lat="41.7832857" lon="1.8462547"><ele>315.5</ele><time>2026-04-25T11:54:41.091Z</time></trkpt><trkpt lat="41.7832269" lon="1.8464012"><ele>315.25</ele><time>2026-04-25T11:54:42.092Z</time></trkpt><trkpt lat="41.7831692" lon="1.8465487"><ele>315.0</ele><time>2026-04-25T11:54:43.09Z</time></trkpt><trkpt lat="41.7831113" lon="1.8466977"><ele>315.5</ele><time>2026-04-25T11:54:44.09Z</time></trkpt><trkpt lat="41.783054" lon="1.8468473"><ele>316.0</ele><time>2026-04-25T11:54:45.09Z</time></trkpt><trkpt lat="41.7829941" lon="1.8469954"><ele>316.5</ele><time>2026-04-25T11:54:46.091Z</time></trkpt><trkpt lat="41.7829303" lon="1.8471406"><ele>317.0</ele><time>2026-04-25T11:54:47.092Z</time></trkpt><trkpt lat="41.7828549" lon="1.847277"><ele>317.0</ele><time>2026-04-25T11:54:48.09Z</time></trkpt><trkpt lat="41.7827659" lon="1.8473978"><ele>317.0</ele><time>2026-04-25T11:54:49.091Z</time></trkpt><trkpt lat="41.7826675" lon="1.8475053"><ele>317.0</ele><time>2026-04-25T11:54:50.091Z</time></trkpt><trkpt lat="41.7825631" lon="1.8476044"><ele>317.0</ele><time>2026-04-25T11:54:51.09Z</time></trkpt><trkpt lat="41.7824568" lon="1.8477031"><ele>315.75</ele><time>2026-04-25T11:54:52.091Z</time></trkpt><trkpt lat="41.782355" lon="1.8478067"><ele>314.5</ele><time>2026-04-25T11:54:53.091Z</time></trkpt><trkpt lat="41.7822641" lon="1.8479215"><ele>313.25</ele><time>2026-04-25T11:54:54.091Z</time></trkpt><trkpt lat="41.7821836" lon="1.8480468"><ele>312.0</ele><time>2026-04-25T11:54:55.092Z</time></trkpt><trkpt lat="41.7821182" lon="1.8481836"><ele>312.0</ele><time>2026-04-25T11:54:56.09Z</time></trkpt><trkpt lat="41.7820648" lon="1.8483183"><ele>312.0</ele><time>2026-04-25T11:54:57.091Z</time></trkpt><trkpt lat="41.7820143" lon="1.848437"><ele>312.0</ele><time>2026-04-25T11:54:58.091Z</time></trkpt><trkpt lat="41.7819631" lon="1.8485503"><ele>312.0</ele><time>2026-04-25T11:54:59.091Z</time></trkpt><trkpt lat="41.7819149" lon="1.8486655"><ele>312.0</ele><time>2026-04-25T11:55:00.091Z</time></trkpt><trkpt lat="41.7818675" lon="1.8487861"><ele>311.0</ele><time>2026-04-25T11:55:01.091Z</time></trkpt><trkpt lat="41.7818198" lon="1.848914"><ele>310.0</ele><time>2026-04-25T11:55:02.091Z</time></trkpt><trkpt lat="41.7817669" lon="1.8490464"><ele>309.0</ele><time>2026-04-25T11:55:03.091Z</time></trkpt><trkpt lat="41.7817118" lon="1.8491859"><ele>308.0</ele><time>2026-04-25T11:55:04.091Z</time></trkpt><trkpt lat="41.7816556" lon="1.8493335"><ele>308.0</ele><time>2026-04-25T11:55:05.09Z</time></trkpt><trkpt lat="41.7816005" lon="1.8494816"><ele>308.0</ele><time>2026-04-25T11:55:06.091Z</time></trkpt><trkpt lat="41.7815437" lon="1.8496299"><ele>308.0</ele><time>2026-04-25T11:55:07.091Z</time></trkpt><trkpt lat="41.7814835" lon="1.8497761"><ele>308.0</ele><time>2026-04-25T11:55:08.09Z</time></trkpt><trkpt lat="41.7814178" lon="1.8499187"><ele>308.0</ele><time>2026-04-25T11:55:09.091Z</time></trkpt><trkpt lat="41.7813458" lon="1.850056"><ele>308.0</ele><time>2026-04-25T11:55:10.091Z</time></trkpt><trkpt lat="41.7812668" lon="1.8501888"><ele>308.0</ele><time>2026-04-25T11:55:11.092Z</time></trkpt><trkpt lat="41.7811808" lon="1.8503158"><ele>308.0</ele><time>2026-04-25T11:55:12.091Z</time></trkpt><trkpt lat="41.7810909" lon="1.8504389"><ele>307.25</ele><time>2026-04-25T11:55:13.09Z</time></trkpt><trkpt lat="41.7809989" lon="1.8505554"><ele>306.5</ele><time>2026-04-25T11:55:14.091Z</time></trkpt><trkpt lat="41.7809041" lon="1.8506653"><ele>305.75</ele><time>2026-04-25T11:55:15.091Z</time></trkpt><trkpt lat="41.7808085" lon="1.8507747"><ele>305.0</ele><time>2026-04-25T11:55:16.091Z</time></trkpt><trkpt lat="41.7807149" lon="1.8508845"><ele>304.5</ele><time>2026-04-25T11:55:17.091Z</time></trkpt><trkpt lat="41.780621" lon="1.8509988"><ele>304.0</ele><time>2026-04-25T11:55:18.091Z</time></trkpt><trkpt lat="41.7805295" lon="1.8511146"><ele>303.5</ele><time>2026-04-25T11:55:19.09Z</time></trkpt><trkpt lat="41.7804375" lon="1.8512333"><ele>303.0</ele><time>2026-04-25T11:55:20.091Z</time></trkpt><trkpt lat="41.780347" lon="1.8513496"><ele>303.0</ele><time>2026-04-25T11:55:21.091Z</time></trkpt><trkpt lat="41.7802567" lon="1.8514646"><ele>303.0</ele><time>2026-04-25T11:55:22.091Z</time></trkpt><trkpt lat="41.780168" lon="1.8515763"><ele>303.0</ele><time>2026-04-25T11:55:23.09Z</time></trkpt><trkpt lat="41.780084" lon="1.8516855"><ele>303.0</ele><time>2026-04-25T11:55:24.091Z</time></trkpt><trkpt lat="41.7800018" lon="1.8517902"><ele>303.4</ele><time>2026-04-25T11:55:25.091Z</time></trkpt><trkpt lat="41.7799228" lon="1.8518881"><ele>303.8</ele><time>2026-04-25T11:55:26.09Z</time></trkpt><trkpt lat="41.7798531" lon="1.8519676"><ele>304.2</ele><time>2026-04-25T11:55:27.09Z</time></trkpt><trkpt lat="41.7797874" lon="1.8520009"><ele>304.6</ele><time>2026-04-25T11:55:28.091Z</time></trkpt><trkpt lat="41.7797197" lon="1.8520044"><ele>305.0</ele><time>2026-04-25T11:55:29.091Z</time></trkpt><trkpt lat="41.7796074" lon="1.851981"><ele>305.0</ele><time>2026-04-25T11:55:31.091Z</time></trkpt><trkpt lat="41.7795454" lon="1.8520317"><ele>305.0</ele><time>2026-04-25T11:55:33.09Z</time></trkpt><trkpt lat="41.7795474" lon="1.852119"><ele>305.0</ele><time>2026-04-25T11:55:35.091Z</time></trkpt><trkpt lat="41.7795476" lon="1.8522308"><ele>305.0</ele><time>2026-04-25T11:55:38.091Z</time></trkpt><trkpt lat="41.7795949" lon="1.8523277"><ele>305.0</ele><time>2026-04-25T11:57:08.091Z</time></trkpt><trkpt lat="41.7796207" lon="1.8524685"><ele>305.0</ele><time>2026-04-25T11:57:10.09Z</time></trkpt><trkpt lat="41.7796132" lon="1.8525582"><ele>304.4</ele><time>2026-04-25T11:57:11.09Z</time></trkpt><trkpt lat="41.7795914" lon="1.8526548"><ele>303.8</ele><time>2026-04-25T11:57:12.09Z</time></trkpt><trkpt lat="41.7795605" lon="1.8527589"><ele>303.2</ele><time>2026-04-25T11:57:13.09Z</time></trkpt><trkpt lat="41.7795263" lon="1.8528734"><ele>302.6</ele><time>2026-04-25T11:57:14.091Z</time></trkpt><trkpt lat="41.7794911" lon="1.8529982"><ele>302.0</ele><time>2026-04-25T11:57:15.091Z</time></trkpt><trkpt lat="41.7794525" lon="1.8531333"><ele>302.0</ele><time>2026-04-25T11:57:16.09Z</time></trkpt><trkpt lat="41.7794144" lon="1.8532716"><ele>302.0</ele><time>2026-04-25T11:57:17.09Z</time></trkpt><trkpt lat="41.7793745" lon="1.8534189"><ele>302.0</ele><time>2026-04-25T11:57:18.091Z</time></trkpt><trkpt lat="41.7793352" lon="1.8535777"><ele>302.0</ele><time>2026-04-25T11:57:19.091Z</time></trkpt><trkpt lat="41.7792947" lon="1.853745"><ele>301.0</ele><time>2026-04-25T11:57:20.09Z</time></trkpt><trkpt lat="41.7792529" lon="1.8539177"><ele>300.0</ele><time>2026-04-25T11:57:21.092Z</time></trkpt><trkpt lat="41.7792091" lon="1.854098"><ele>299.0</ele><time>2026-04-25T11:57:22.09Z</time></trkpt><trkpt lat="41.7791662" lon="1.8542838"><ele>298.0</ele><time>2026-04-25T11:57:23.091Z</time></trkpt><trkpt lat="41.7791237" lon="1.8544758"><ele>297.66666666666663</ele><time>2026-04-25T11:57:24.091Z</time></trkpt><trkpt lat="41.7790824" lon="1.8546692"><ele>297.3333333333333</ele><time>2026-04-25T11:57:25.091Z</time></trkpt><trkpt lat="41.7790387" lon="1.8548644"><ele>297.0</ele><time>2026-04-25T11:57:26.091Z</time></trkpt><trkpt lat="41.7789962" lon="1.8550582"><ele>296.6666666666667</ele><time>2026-04-25T11:57:27.09Z</time></trkpt><trkpt lat="41.7789538" lon="1.8552536"><ele>296.33333333333337</ele><time>2026-04-25T11:57:28.091Z</time></trkpt><trkpt lat="41.7789104" lon="1.8554474"><ele>296.0</ele><time>2026-04-25T11:57:29.091Z</time></trkpt><trkpt lat="41.7788655" lon="1.8556382"><ele>296.0</ele><time>2026-04-25T11:57:30.09Z</time></trkpt><trkpt lat="41.7788148" lon="1.855824"><ele>296.0</ele><time>2026-04-25T11:57:31.091Z</time></trkpt><trkpt lat="41.7787551" lon="1.8560064"><ele>296.0</ele><time>2026-04-25T11:57:32.091Z</time></trkpt><trkpt lat="41.7786818" lon="1.8561812"><ele>296.0</ele><time>2026-04-25T11:57:33.09Z</time></trkpt><trkpt lat="41.7785945" lon="1.8563451"><ele>296.6666666666667</ele><time>2026-04-25T11:57:34.09Z</time></trkpt><trkpt lat="41.7785002" lon="1.8565045"><ele>297.3333333333333</ele><time>2026-04-25T11:57:35.09Z</time></trkpt><trkpt lat="41.7783992" lon="1.8566562"><ele>298.0</ele><time>2026-04-25T11:57:36.09Z</time></trkpt><trkpt lat="41.7782971" lon="1.8568093"><ele>299.0</ele><time>2026-04-25T11:57:37.091Z</time></trkpt><trkpt lat="41.7781938" lon="1.856966"><ele>300.0</ele><time>2026-04-25T11:57:38.091Z</time></trkpt><trkpt lat="41.7780902" lon="1.857115"><ele>301.0</ele><time>2026-04-25T11:57:39.091Z</time></trkpt><trkpt lat="41.7779909" lon="1.8572532"><ele>301.0</ele><time>2026-04-25T11:57:40.09Z</time></trkpt><trkpt lat="41.7778992" lon="1.8573773"><ele>301.0</ele><time>2026-04-25T11:57:41.091Z</time></trkpt><trkpt lat="41.7778122" lon="1.857482"><ele>301.0</ele><time>2026-04-25T11:57:42.09Z</time></trkpt><trkpt lat="41.7777273" lon="1.8575579"><ele>301.0</ele><time>2026-04-25T11:57:43.09Z</time></trkpt><trkpt lat="41.7776408" lon="1.8576104"><ele>301.0</ele><time>2026-04-25T11:57:44.091Z</time></trkpt><trkpt lat="41.7775663" lon="1.8576557"><ele>301.3333333333333</ele><time>2026-04-25T11:57:45.091Z</time></trkpt><trkpt lat="41.7775178" lon="1.8577182"><ele>301.66666666666663</ele><time>2026-04-25T11:57:46.091Z</time></trkpt><trkpt lat="41.7774933" lon="1.8578076"><ele>302.0</ele><time>2026-04-25T11:57:47.091Z</time></trkpt><trkpt lat="41.7774962" lon="1.8579158"><ele>302.3333333333333</ele><time>2026-04-25T11:57:48.091Z</time></trkpt><trkpt lat="41.77751" lon="1.8580408"><ele>302.6666666666667</ele><time>2026-04-25T11:57:49.09Z</time></trkpt><trkpt lat="41.7775089" lon="1.8581855"><ele>303.0</ele><time>2026-04-25T11:57:50.091Z</time></trkpt><trkpt lat="41.7774946" lon="1.8583421"><ele>304.25</ele><time>2026-04-25T11:57:51.091Z</time></trkpt><trkpt lat="41.7774759" lon="1.8585117"><ele>305.5</ele><time>2026-04-25T11:57:52.091Z</time></trkpt><trkpt lat="41.7774597" lon="1.858694"><ele>306.75</ele><time>2026-04-25T11:57:53.09Z</time></trkpt><trkpt lat="41.7774462" lon="1.8588865"><ele>308.0</ele><time>2026-04-25T11:57:54.091Z</time></trkpt><trkpt lat="41.7774181" lon="1.8590806"><ele>308.0</ele><time>2026-04-25T11:57:55.092Z</time></trkpt><trkpt lat="41.7773639" lon="1.8592728"><ele>308.0</ele><time>2026-04-25T11:57:56.092Z</time></trkpt><trkpt lat="41.777284" lon="1.8594551"><ele>308.0</ele><time>2026-04-25T11:57:57.091Z</time></trkpt><trkpt lat="41.7771827" lon="1.8596213"><ele>308.33333333333337</ele><time>2026-04-25T11:57:58.091Z</time></trkpt><trkpt lat="41.77706" lon="1.8597644"><ele>308.6666666666667</ele><time>2026-04-25T11:57:59.091Z</time></trkpt><trkpt lat="41.7769191" lon="1.8598857"><ele>309.0</ele><time>2026-04-25T11:58:00.091Z</time></trkpt><trkpt lat="41.7767651" lon="1.8599889"><ele>309.0</ele><time>2026-04-25T11:58:01.092Z</time></trkpt><trkpt lat="41.7766076" lon="1.8600903"><ele>309.0</ele><time>2026-04-25T11:58:02.091Z</time></trkpt><trkpt lat="41.7764434" lon="1.8601903"><ele>309.0</ele><time>2026-04-25T11:58:03.091Z</time></trkpt><trkpt lat="41.776276" lon="1.8602915"><ele>309.0</ele><time>2026-04-25T11:58:04.09Z</time></trkpt><trkpt lat="41.7761045" lon="1.8603938"><ele>309.0</ele><time>2026-04-25T11:58:05.091Z</time></trkpt><trkpt lat="41.7759344" lon="1.8604952"><ele>309.0</ele><time>2026-04-25T11:58:06.09Z</time></trkpt><trkpt lat="41.7757743" lon="1.8605908"><ele>309.0</ele><time>2026-04-25T11:58:07.091Z</time></trkpt><trkpt lat="41.7756302" lon="1.8606965"><ele>309.0</ele><time>2026-04-25T11:58:08.09Z</time></trkpt><trkpt lat="41.7755091" lon="1.8608428"><ele>309.0</ele><time>2026-04-25T11:58:09.09Z</time></trkpt><trkpt lat="41.775411" lon="1.861027"><ele>308.3333333333333</ele><time>2026-04-25T11:58:10.092Z</time></trkpt><trkpt lat="41.775341" lon="1.8612445"><ele>307.66666666666663</ele><time>2026-04-25T11:58:11.092Z</time></trkpt><trkpt lat="41.7753033" lon="1.8614876"><ele>307.0</ele><time>2026-04-25T11:58:12.09Z</time></trkpt><trkpt lat="41.7752924" lon="1.8617463"><ele>305.0</ele><time>2026-04-25T11:58:13.091Z</time></trkpt><trkpt lat="41.7752847" lon="1.8620166"><ele>303.0</ele><time>2026-04-25T11:58:14.091Z</time></trkpt><trkpt lat="41.7752731" lon="1.8622962"><ele>301.0</ele><time>2026-04-25T11:58:15.092Z</time></trkpt><trkpt lat="41.7752624" lon="1.8625845"><ele>301.3333333333333</ele><time>2026-04-25T11:58:16.092Z</time></trkpt><trkpt lat="41.7752531" lon="1.8628741"><ele>301.6666666666667</ele><time>2026-04-25T11:58:17.091Z</time></trkpt><trkpt lat="41.7752426" lon="1.8631668"><ele>302.0</ele><time>2026-04-25T11:58:18.091Z</time></trkpt><trkpt lat="41.7752323" lon="1.8634611"><ele>302.33333333333337</ele><time>2026-04-25T11:58:19.09Z</time></trkpt><trkpt lat="41.7752229" lon="1.8637543"><ele>302.6666666666667</ele><time>2026-04-25T11:58:20.09Z</time></trkpt><trkpt lat="41.775212" lon="1.8640383"><ele>303.0</ele><time>2026-04-25T11:58:21.091Z</time></trkpt><trkpt lat="41.7752025" lon="1.8643037"><ele>303.0</ele><time>2026-04-25T11:58:22.091Z</time></trkpt><trkpt lat="41.7751937" lon="1.8645548"><ele>303.0</ele><time>2026-04-25T11:58:23.09Z</time></trkpt><trkpt lat="41.7751851" lon="1.8647941"><ele>303.0</ele><time>2026-04-25T11:58:24.091Z</time></trkpt><trkpt lat="41.775178" lon="1.8650233"><ele>301.6666666666667</ele><time>2026-04-25T11:58:25.091Z</time></trkpt><trkpt lat="41.7751739" lon="1.8652422"><ele>300.33333333333337</ele><time>2026-04-25T11:58:26.09Z</time></trkpt><trkpt lat="41.7751801" lon="1.8654502"><ele>299.0</ele><time>2026-04-25T11:58:27.09Z</time></trkpt><trkpt lat="41.7751983" lon="1.8656461"><ele>299.0</ele><time>2026-04-25T11:58:28.09Z</time></trkpt><trkpt lat="41.7752074" lon="1.8658262"><ele>299.0</ele><time>2026-04-25T11:58:29.091Z</time></trkpt><trkpt lat="41.7751808" lon="1.865994"><ele>299.0</ele><time>2026-04-25T11:58:30.092Z</time></trkpt><trkpt lat="41.7751562" lon="1.8661591"><ele>299.0</ele><time>2026-04-25T11:58:31.091Z</time></trkpt><trkpt lat="41.7751713" lon="1.8663372"><ele>296.6666666666667</ele><time>2026-04-25T11:58:32.091Z</time></trkpt><trkpt lat="41.7751752" lon="1.8665275"><ele>294.3333333333333</ele><time>2026-04-25T11:58:33.091Z</time></trkpt><trkpt lat="41.775147" lon="1.8667294"><ele>292.0</ele><time>2026-04-25T11:58:34.091Z</time></trkpt><trkpt lat="41.7751212" lon="1.8669445"><ele>291.66666666666663</ele><time>2026-04-25T11:58:35.091Z</time></trkpt><trkpt lat="41.7751049" lon="1.8671771"><ele>291.3333333333333</ele><time>2026-04-25T11:58:36.091Z</time></trkpt><trkpt lat="41.7750952" lon="1.8674226"><ele>291.0</ele><time>2026-04-25T11:58:37.09Z</time></trkpt><trkpt lat="41.7750864" lon="1.8676801"><ele>290.6666666666667</ele><time>2026-04-25T11:58:38.091Z</time></trkpt><trkpt lat="41.7750745" lon="1.8679451"><ele>290.33333333333337</ele><time>2026-04-25T11:58:39.09Z</time></trkpt><trkpt lat="41.7750627" lon="1.8682154"><ele>290.0</ele><time>2026-04-25T11:58:40.09Z</time></trkpt><trkpt lat="41.775055" lon="1.8684914"><ele>288.6666666666667</ele><time>2026-04-25T11:58:41.091Z</time></trkpt><trkpt lat="41.7750474" lon="1.8687699"><ele>287.3333333333333</ele><time>2026-04-25T11:58:42.091Z</time></trkpt><trkpt lat="41.7750396" lon="1.8690519"><ele>286.0</ele><time>2026-04-25T11:58:43.091Z</time></trkpt><trkpt lat="41.7750293" lon="1.8693359"><ele>286.0</ele><time>2026-04-25T11:58:44.091Z</time></trkpt><trkpt lat="41.775017" lon="1.8696227"><ele>286.0</ele><time>2026-04-25T11:58:45.091Z</time></trkpt><trkpt lat="41.7750049" lon="1.8699102"><ele>286.0</ele><time>2026-04-25T11:58:46.09Z</time></trkpt><trkpt lat="41.7749954" lon="1.8701973"><ele>286.66666666666663</ele><time>2026-04-25T11:58:47.09Z</time></trkpt><trkpt lat="41.7749856" lon="1.870485"><ele>287.3333333333333</ele><time>2026-04-25T11:58:48.091Z</time></trkpt><trkpt lat="41.7749783" lon="1.870772"><ele>288.0</ele><time>2026-04-25T11:58:49.09Z</time></trkpt><trkpt lat="41.774969" lon="1.8710594"><ele>288.0</ele><time>2026-04-25T11:58:50.09Z</time></trkpt><trkpt lat="41.7749608" lon="1.871345"><ele>288.0</ele><time>2026-04-25T11:58:51.092Z</time></trkpt><trkpt lat="41.7749503" lon="1.8716325"><ele>288.0</ele><time>2026-04-25T11:58:52.09Z</time></trkpt><trkpt lat="41.7749394" lon="1.8719205"><ele>288.0</ele><time>2026-04-25T11:58:53.09Z</time></trkpt><trkpt lat="41.7749291" lon="1.8722001"><ele>288.0</ele><time>2026-04-25T11:58:54.091Z</time></trkpt><trkpt lat="41.774917" lon="1.8724631"><ele>288.0</ele><time>2026-04-25T11:58:55.09Z</time></trkpt><trkpt lat="41.774907" lon="1.8727077"><ele>288.0</ele><time>2026-04-25T11:58:56.09Z</time></trkpt><trkpt lat="41.774897" lon="1.872938"><ele>288.0</ele><time>2026-04-25T11:58:57.091Z</time></trkpt><trkpt lat="41.7748832" lon="1.8731542"><ele>288.0</ele><time>2026-04-25T11:58:58.092Z</time></trkpt><trkpt lat="41.7748579" lon="1.8733569"><ele>288.25</ele><time>2026-04-25T11:58:59.09Z</time></trkpt><trkpt lat="41.7748143" lon="1.8735426"><ele>288.5</ele><time>2026-04-25T11:59:00.091Z</time></trkpt><trkpt lat="41.7747629" lon="1.8737091"><ele>288.75</ele><time>2026-04-25T11:59:01.091Z</time></trkpt><trkpt lat="41.7747234" lon="1.8738668"><ele>289.0</ele><time>2026-04-25T11:59:02.09Z</time></trkpt><trkpt lat="41.774718" lon="1.8740251"><ele>289.0</ele><time>2026-04-25T11:59:03.09Z</time></trkpt><trkpt lat="41.7747441" lon="1.8741875"><ele>289.0</ele><time>2026-04-25T11:59:04.092Z</time></trkpt><trkpt lat="41.7747855" lon="1.8743584"><ele>289.0</ele><time>2026-04-25T11:59:05.091Z</time></trkpt><trkpt lat="41.7748117" lon="1.8745498"><ele>289.0</ele><time>2026-04-25T11:59:06.091Z</time></trkpt><trkpt lat="41.7748199" lon="1.8747583"><ele>289.3333333333333</ele><time>2026-04-25T11:59:07.092Z</time></trkpt><trkpt lat="41.7748131" lon="1.8749813"><ele>289.6666666666667</ele><time>2026-04-25T11:59:08.091Z</time></trkpt><trkpt lat="41.7748008" lon="1.8752134"><ele>290.0</ele><time>2026-04-25T11:59:09.091Z</time></trkpt><trkpt lat="41.7747856" lon="1.8754501"><ele>290.0</ele><time>2026-04-25T11:59:10.091Z</time></trkpt><trkpt lat="41.7747643" lon="1.8757005"><ele>290.0</ele><time>2026-04-25T11:59:11.091Z</time></trkpt><trkpt lat="41.7747425" lon="1.8759524"><ele>290.0</ele><time>2026-04-25T11:59:12.09Z</time></trkpt><trkpt lat="41.7747235" lon="1.876198"><ele>290.0</ele><time>2026-04-25T11:59:13.09Z</time></trkpt><trkpt lat="41.7747069" lon="1.8764311"><ele>290.0</ele><time>2026-04-25T11:59:14.091Z</time></trkpt><trkpt lat="41.7746947" lon="1.8766542"><ele>290.0</ele><time>2026-04-25T11:59:15.091Z</time></trkpt><trkpt lat="41.7746522" lon="1.8768451"><ele>289.75</ele><time>2026-04-25T11:59:16.092Z</time></trkpt><trkpt lat="41.7745992" lon="1.8770265"><ele>289.5</ele><time>2026-04-25T11:59:17.09Z</time></trkpt><trkpt lat="41.7745292" lon="1.8771795"><ele>289.25</ele><time>2026-04-25T11:59:18.091Z</time></trkpt><trkpt lat="41.7744415" lon="1.8772884"><ele>289.0</ele><time>2026-04-25T11:59:19.09Z</time></trkpt><trkpt lat="41.7743394" lon="1.8773459"><ele>289.0</ele><time>2026-04-25T11:59:20.092Z</time></trkpt><trkpt lat="41.7742293" lon="1.8773605"><ele>289.0</ele><time>2026-04-25T11:59:21.091Z</time></trkpt><trkpt lat="41.7741184" lon="1.8773261"><ele>289.0</ele><time>2026-04-25T11:59:22.09Z</time></trkpt><trkpt lat="41.7740125" lon="1.8772493"><ele>289.0</ele><time>2026-04-25T11:59:23.091Z</time></trkpt><trkpt lat="41.7739295" lon="1.8771331"><ele>289.0</ele><time>2026-04-25T11:59:24.09Z</time></trkpt><trkpt lat="41.7738836" lon="1.8769959"><ele>289.0</ele><time>2026-04-25T11:59:25.091Z</time></trkpt><trkpt lat="41.7738595" lon="1.8768229"><ele>289.0</ele><time>2026-04-25T11:59:26.091Z</time></trkpt><trkpt lat="41.7738622" lon="1.8766496"><ele>289.0</ele><time>2026-04-25T11:59:27.09Z</time></trkpt><trkpt lat="41.7739034" lon="1.8764932"><ele>289.25</ele><time>2026-04-25T11:59:28.091Z</time></trkpt><trkpt lat="41.7739781" lon="1.8763718"><ele>289.5</ele><time>2026-04-25T11:59:29.091Z</time></trkpt><trkpt lat="41.7740844" lon="1.8763003"><ele>289.75</ele><time>2026-04-25T11:59:30.091Z</time></trkpt><trkpt lat="41.7742051" lon="1.8762867"><ele>290.0</ele><time>2026-04-25T11:59:31.091Z</time></trkpt><trkpt lat="41.7743283" lon="1.8763298"><ele>290.0</ele><time>2026-04-25T11:59:32.09Z</time></trkpt><trkpt lat="41.7744528" lon="1.8764225"><ele>290.0</ele><time>2026-04-25T11:59:33.091Z</time></trkpt><trkpt lat="41.774585" lon="1.8765368"><ele>290.0</ele><time>2026-04-25T11:59:34.091Z</time></trkpt><trkpt lat="41.7747265" lon="1.876654"><ele>289.33333333333337</ele><time>2026-04-25T11:59:35.092Z</time></trkpt><trkpt lat="41.7748779" lon="1.8767758"><ele>288.6666666666667</ele><time>2026-04-25T11:59:36.092Z</time></trkpt><trkpt lat="41.7750376" lon="1.8769079"><ele>288.0</ele><time>2026-04-25T11:59:37.092Z</time></trkpt><trkpt lat="41.7752049" lon="1.8770472"><ele>288.0</ele><time>2026-04-25T11:59:38.09Z</time></trkpt><trkpt lat="41.7753792" lon="1.8771897"><ele>288.0</ele><time>2026-04-25T11:59:39.091Z</time></trkpt><trkpt lat="41.7755645" lon="1.8773438"><ele>288.0</ele><time>2026-04-25T11:59:40.091Z</time></trkpt><trkpt lat="41.7757583" lon="1.8775012"><ele>287.0</ele><time>2026-04-25T11:59:41.09Z</time></trkpt><trkpt lat="41.7759502" lon="1.8776649"><ele>286.0</ele><time>2026-04-25T11:59:42.091Z</time></trkpt><trkpt lat="41.7761433" lon="1.8778473"><ele>286.0</ele><time>2026-04-25T11:59:43.091Z</time></trkpt><trkpt lat="41.7763368" lon="1.8780455"><ele>286.0</ele><time>2026-04-25T11:59:44.09Z</time></trkpt><trkpt lat="41.7765381" lon="1.8782565"><ele>285.5</ele><time>2026-04-25T11:59:45.09Z</time></trkpt><trkpt lat="41.7767443" lon="1.8784776"><ele>285.0</ele><time>2026-04-25T11:59:46.091Z</time></trkpt><trkpt lat="41.7769527" lon="1.8787064"><ele>285.0</ele><time>2026-04-25T11:59:47.091Z</time></trkpt><trkpt lat="41.7771625" lon="1.8789458"><ele>285.0</ele><time>2026-04-25T11:59:48.092Z</time></trkpt><trkpt lat="41.7773681" lon="1.879198"><ele>284.5</ele><time>2026-04-25T11:59:49.092Z</time></trkpt><trkpt lat="41.7775645" lon="1.8794643"><ele>284.0</ele><time>2026-04-25T11:59:50.091Z</time></trkpt><trkpt lat="41.7777486" lon="1.8797427"><ele>285.0</ele><time>2026-04-25T11:59:51.09Z</time></trkpt><trkpt lat="41.7779194" lon="1.8800377"><ele>286.0</ele><time>2026-04-25T11:59:52.091Z</time></trkpt><trkpt lat="41.7780782" lon="1.8803474"><ele>286.0</ele><time>2026-04-25T11:59:53.091Z</time></trkpt><trkpt lat="41.7782251" lon="1.8806609"><ele>286.0</ele><time>2026-04-25T11:59:54.09Z</time></trkpt><trkpt lat="41.7783622" lon="1.8809866"><ele>286.0</ele><time>2026-04-25T11:59:55.092Z</time></trkpt><trkpt lat="41.7784891" lon="1.8813179"><ele>286.0</ele><time>2026-04-25T11:59:56.092Z</time></trkpt><trkpt lat="41.7786069" lon="1.8816542"><ele>286.5</ele><time>2026-04-25T11:59:57.09Z</time></trkpt><trkpt lat="41.7787137" lon="1.8819974"><ele>287.0</ele><time>2026-04-25T11:59:58.091Z</time></trkpt><trkpt lat="41.7788062" lon="1.882346"><ele>286.5</ele><time>2026-04-25T11:59:59.091Z</time></trkpt><trkpt lat="41.7788789" lon="1.882702"><ele>286.0</ele><time>2026-04-25T12:00:00.091Z</time></trkpt><trkpt lat="41.7789404" lon="1.8830607"><ele>286.0</ele><time>2026-04-25T12:00:01.091Z</time></trkpt><trkpt lat="41.7789897" lon="1.883423"><ele>286.0</ele><time>2026-04-25T12:00:02.09Z</time></trkpt><trkpt lat="41.7790314" lon="1.883786"><ele>285.0</ele><time>2026-04-25T12:00:03.091Z</time></trkpt><trkpt lat="41.7790649" lon="1.8841505"><ele>284.0</ele><time>2026-04-25T12:00:04.091Z</time></trkpt><trkpt lat="41.7790924" lon="1.8845153"><ele>283.5</ele><time>2026-04-25T12:00:05.09Z</time></trkpt><trkpt lat="41.7791152" lon="1.8848792"><ele>283.0</ele><time>2026-04-25T12:00:06.092Z</time></trkpt><trkpt lat="41.7791341" lon="1.8852411"><ele>282.0</ele><time>2026-04-25T12:00:07.09Z</time></trkpt><trkpt lat="41.7791492" lon="1.8856027"><ele>281.0</ele><time>2026-04-25T12:00:08.091Z</time></trkpt><trkpt lat="41.7791642" lon="1.8859642"><ele>280.0</ele><time>2026-04-25T12:00:09.091Z</time></trkpt><trkpt lat="41.779179" lon="1.8863278"><ele>279.0</ele><time>2026-04-25T12:00:10.09Z</time></trkpt><trkpt lat="41.7791961" lon="1.8866954"><ele>279.0</ele><time>2026-04-25T12:00:11.092Z</time></trkpt><trkpt lat="41.779217" lon="1.8870636"><ele>279.0</ele><time>2026-04-25T12:00:12.09Z</time></trkpt><trkpt lat="41.7792415" lon="1.8874325"><ele>279.0</ele><time>2026-04-25T12:00:13.09Z</time></trkpt><trkpt lat="41.7792667" lon="1.8878042"><ele>279.0</ele><time>2026-04-25T12:00:14.09Z</time></trkpt><trkpt lat="41.7792878" lon="1.8881782"><ele>277.5</ele><time>2026-04-25T12:00:15.089Z</time></trkpt><trkpt lat="41.7793033" lon="1.8885547"><ele>276.0</ele><time>2026-04-25T12:00:16.09Z</time></trkpt><trkpt lat="41.7793148" lon="1.8889324"><ele>275.5</ele><time>2026-04-25T12:00:17.091Z</time></trkpt><trkpt lat="41.7793241" lon="1.8893105"><ele>275.0</ele><time>2026-04-25T12:00:18.089Z</time></trkpt><trkpt lat="41.7793359" lon="1.8896902"><ele>275.0</ele><time>2026-04-25T12:00:19.09Z</time></trkpt><trkpt lat="41.7793495" lon="1.8900704"><ele>275.0</ele><time>2026-04-25T12:00:20.09Z</time></trkpt><trkpt lat="41.7793652" lon="1.8904507"><ele>275.0</ele><time>2026-04-25T12:00:21.089Z</time></trkpt><trkpt lat="41.7793795" lon="1.8908348"><ele>275.0</ele><time>2026-04-25T12:00:22.089Z</time></trkpt><trkpt lat="41.7793922" lon="1.8912212"><ele>274.5</ele><time>2026-04-25T12:00:23.09Z</time></trkpt><trkpt lat="41.779405" lon="1.8916101"><ele>274.0</ele><time>2026-04-25T12:00:24.089Z</time></trkpt><trkpt lat="41.7794185" lon="1.8919964"><ele>273.0</ele><time>2026-04-25T12:00:25.09Z</time></trkpt><trkpt lat="41.7794312" lon="1.8923842"><ele>272.0</ele><time>2026-04-25T12:00:26.089Z</time></trkpt><trkpt lat="41.779443" lon="1.8927735"><ele>270.5</ele><time>2026-04-25T12:00:27.089Z</time></trkpt><trkpt lat="41.7794539" lon="1.8931605"><ele>269.0</ele><time>2026-04-25T12:00:28.089Z</time></trkpt><trkpt lat="41.7794664" lon="1.8935504"><ele>268.5</ele><time>2026-04-25T12:00:29.09Z</time></trkpt><trkpt lat="41.7794829" lon="1.893937"><ele>268.0</ele><time>2026-04-25T12:00:30.089Z</time></trkpt><trkpt lat="41.7794988" lon="1.8943226"><ele>267.0</ele><time>2026-04-25T12:00:31.09Z</time></trkpt><trkpt lat="41.779513" lon="1.8947081"><ele>266.0</ele><time>2026-04-25T12:00:32.09Z</time></trkpt><trkpt lat="41.7795275" lon="1.8950922"><ele>265.5</ele><time>2026-04-25T12:00:33.09Z</time></trkpt><trkpt lat="41.7795412" lon="1.8954745"><ele>265.0</ele><time>2026-04-25T12:00:34.09Z</time></trkpt><trkpt lat="41.7795557" lon="1.8958572"><ele>263.5</ele><time>2026-04-25T12:00:35.089Z</time></trkpt><trkpt lat="41.7795709" lon="1.8962399"><ele>262.0</ele><time>2026-04-25T12:00:36.09Z</time></trkpt><trkpt lat="41.7795882" lon="1.8966245"><ele>261.5</ele><time>2026-04-25T12:00:37.09Z</time></trkpt><trkpt lat="41.779609" lon="1.8970141"><ele>261.0</ele><time>2026-04-25T12:00:38.089Z</time></trkpt><trkpt lat="41.7796343" lon="1.8973983"><ele>260.5</ele><time>2026-04-25T12:00:39.09Z</time></trkpt><trkpt lat="41.7796677" lon="1.8977839"><ele>260.0</ele><time>2026-04-25T12:00:40.09Z</time></trkpt><trkpt lat="41.7797096" lon="1.8981734"><ele>260.0</ele><time>2026-04-25T12:00:41.09Z</time></trkpt><trkpt lat="41.7797597" lon="1.8985602"><ele>260.0</ele><time>2026-04-25T12:00:42.09Z</time></trkpt><trkpt lat="41.7798175" lon="1.8989481"><ele>258.5</ele><time>2026-04-25T12:00:43.09Z</time></trkpt><trkpt lat="41.7798839" lon="1.899334"><ele>257.0</ele><time>2026-04-25T12:00:44.09Z</time></trkpt><trkpt lat="41.7799574" lon="1.8997204"><ele>256.0</ele><time>2026-04-25T12:00:45.09Z</time></trkpt><trkpt lat="41.7800373" lon="1.9001045"><ele>255.0</ele><time>2026-04-25T12:00:46.089Z</time></trkpt><trkpt lat="41.780124" lon="1.9004847"><ele>256.5</ele><time>2026-04-25T12:00:47.089Z</time></trkpt><trkpt lat="41.7802225" lon="1.9008625"><ele>258.0</ele><time>2026-04-25T12:00:48.089Z</time></trkpt><trkpt lat="41.7803315" lon="1.9012342"><ele>258.0</ele><time>2026-04-25T12:00:49.089Z</time></trkpt><trkpt lat="41.7804474" lon="1.9016019"><ele>258.0</ele><time>2026-04-25T12:00:50.09Z</time></trkpt><trkpt lat="41.7805696" lon="1.9019675"><ele>254.0</ele><time>2026-04-25T12:00:51.089Z</time></trkpt><trkpt lat="41.7807001" lon="1.902331"><ele>250.0</ele><time>2026-04-25T12:00:52.09Z</time></trkpt><trkpt lat="41.7808371" lon="1.9026837"><ele>249.0</ele><time>2026-04-25T12:00:53.089Z</time></trkpt><trkpt lat="41.7809835" lon="1.9030291"><ele>248.0</ele><time>2026-04-25T12:00:54.09Z</time></trkpt><trkpt lat="41.781136" lon="1.9033684"><ele>248.0</ele><time>2026-04-25T12:00:55.091Z</time></trkpt><trkpt lat="41.7812934" lon="1.9037004"><ele>248.0</ele><time>2026-04-25T12:00:56.089Z</time></trkpt><trkpt lat="41.781456" lon="1.9040264"><ele>247.5</ele><time>2026-04-25T12:00:57.089Z</time></trkpt><trkpt lat="41.7816243" lon="1.9043486"><ele>247.0</ele><time>2026-04-25T12:00:58.09Z</time></trkpt><trkpt lat="41.7817971" lon="1.9046646"><ele>247.0</ele><time>2026-04-25T12:00:59.089Z</time></trkpt><trkpt lat="41.7819744" lon="1.904976"><ele>247.0</ele><time>2026-04-25T12:01:00.09Z</time></trkpt><trkpt lat="41.782156" lon="1.9052853"><ele>247.5</ele><time>2026-04-25T12:01:01.09Z</time></trkpt><trkpt lat="41.7823427" lon="1.9055903"><ele>248.0</ele><time>2026-04-25T12:01:02.09Z</time></trkpt><trkpt lat="41.7825375" lon="1.9058901"><ele>247.5</ele><time>2026-04-25T12:01:03.09Z</time></trkpt><trkpt lat="41.7827381" lon="1.9061786"><ele>247.0</ele><time>2026-04-25T12:01:04.091Z</time></trkpt><trkpt lat="41.7829475" lon="1.9064528"><ele>247.0</ele><time>2026-04-25T12:01:05.089Z</time></trkpt><trkpt lat="41.7831612" lon="1.90672"><ele>247.0</ele><time>2026-04-25T12:01:06.09Z</time></trkpt><trkpt lat="41.7833777" lon="1.9069797"><ele>246.0</ele><time>2026-04-25T12:01:07.091Z</time></trkpt><trkpt lat="41.7835995" lon="1.9072319"><ele>245.0</ele><time>2026-04-25T12:01:08.089Z</time></trkpt><trkpt lat="41.7838231" lon="1.9074783"><ele>244.5</ele><time>2026-04-25T12:01:09.09Z</time></trkpt><trkpt lat="41.7840491" lon="1.9077212"><ele>244.0</ele><time>2026-04-25T12:01:10.09Z</time></trkpt><trkpt lat="41.7842762" lon="1.9079644"><ele>243.5</ele><time>2026-04-25T12:01:11.09Z</time></trkpt><trkpt lat="41.784504" lon="1.9082064"><ele>243.0</ele><time>2026-04-25T12:01:12.09Z</time></trkpt><trkpt lat="41.7847297" lon="1.9084485"><ele>244.5</ele><time>2026-04-25T12:01:13.091Z</time></trkpt><trkpt lat="41.7849552" lon="1.9086894"><ele>246.0</ele><time>2026-04-25T12:01:14.091Z</time></trkpt><trkpt lat="41.7851791" lon="1.9089318"><ele>246.0</ele><time>2026-04-25T12:01:15.089Z</time></trkpt><trkpt lat="41.7854048" lon="1.9091716"><ele>246.0</ele><time>2026-04-25T12:01:16.091Z</time></trkpt><trkpt lat="41.785631" lon="1.9094109"><ele>245.5</ele><time>2026-04-25T12:01:17.09Z</time></trkpt><trkpt lat="41.7858551" lon="1.9096503"><ele>245.0</ele><time>2026-04-25T12:01:18.089Z</time></trkpt><trkpt lat="41.786079" lon="1.9098872"><ele>245.5</ele><time>2026-04-25T12:01:19.09Z</time></trkpt><trkpt lat="41.7863049" lon="1.9101248"><ele>246.0</ele><time>2026-04-25T12:01:20.09Z</time></trkpt><trkpt lat="41.7865266" lon="1.9103633"><ele>246.0</ele><time>2026-04-25T12:01:21.09Z</time></trkpt><trkpt lat="41.7867482" lon="1.9106029"><ele>246.0</ele><time>2026-04-25T12:01:22.09Z</time></trkpt><trkpt lat="41.7869681" lon="1.9108402"><ele>246.5</ele><time>2026-04-25T12:01:23.089Z</time></trkpt><trkpt lat="41.7871903" lon="1.9110771"><ele>247.0</ele><time>2026-04-25T12:01:24.09Z</time></trkpt><trkpt lat="41.7874114" lon="1.9113154"><ele>247.0</ele><time>2026-04-25T12:01:25.089Z</time></trkpt><trkpt lat="41.7876346" lon="1.9115546"><ele>247.0</ele><time>2026-04-25T12:01:26.089Z</time></trkpt><trkpt lat="41.7878587" lon="1.9117931"><ele>248.0</ele><time>2026-04-25T12:01:27.09Z</time></trkpt><trkpt lat="41.7880828" lon="1.9120349"><ele>249.0</ele><time>2026-04-25T12:01:28.09Z</time></trkpt><trkpt lat="41.7883076" lon="1.9122752"><ele>249.5</ele><time>2026-04-25T12:01:29.091Z</time></trkpt><trkpt lat="41.7885378" lon="1.9125219"><ele>250.0</ele><time>2026-04-25T12:01:30.091Z</time></trkpt><trkpt lat="41.7887638" lon="1.912761"><ele>249.0</ele><time>2026-04-25T12:01:31.091Z</time></trkpt><trkpt lat="41.7889903" lon="1.9130004"><ele>248.0</ele><time>2026-04-25T12:01:32.09Z</time></trkpt><trkpt lat="41.7892154" lon="1.9132407"><ele>249.5</ele><time>2026-04-25T12:01:33.089Z</time></trkpt><trkpt lat="41.7894389" lon="1.9134833"><ele>251.0</ele><time>2026-04-25T12:01:34.09Z</time></trkpt><trkpt lat="41.7896614" lon="1.9137245"><ele>251.0</ele><time>2026-04-25T12:01:35.089Z</time></trkpt><trkpt lat="41.7898869" lon="1.9139655"><ele>251.0</ele><time>2026-04-25T12:01:36.09Z</time></trkpt><trkpt lat="41.7901112" lon="1.9142087"><ele>252.0</ele><time>2026-04-25T12:01:37.09Z</time></trkpt><trkpt lat="41.7903365" lon="1.9144472"><ele>253.0</ele><time>2026-04-25T12:01:38.089Z</time></trkpt><trkpt lat="41.7905579" lon="1.9146849"><ele>253.0</ele><time>2026-04-25T12:01:39.09Z</time></trkpt><trkpt lat="41.7907795" lon="1.9149196"><ele>253.0</ele><time>2026-04-25T12:01:40.089Z</time></trkpt><trkpt lat="41.7910004" lon="1.9151524"><ele>253.5</ele><time>2026-04-25T12:01:41.09Z</time></trkpt><trkpt lat="41.7912212" lon="1.9153883"><ele>254.0</ele><time>2026-04-25T12:01:42.09Z</time></trkpt><trkpt lat="41.791441" lon="1.9156212"><ele>254.0</ele><time>2026-04-25T12:01:43.09Z</time></trkpt><trkpt lat="41.7916636" lon="1.9158567"><ele>254.0</ele><time>2026-04-25T12:01:44.091Z</time></trkpt><trkpt lat="41.7918887" lon="1.9160874"><ele>255.0</ele><time>2026-04-25T12:01:45.089Z</time></trkpt><trkpt lat="41.7921141" lon="1.9163184"><ele>256.0</ele><time>2026-04-25T12:01:46.09Z</time></trkpt><trkpt lat="41.7923415" lon="1.9165542"><ele>255.5</ele><time>2026-04-25T12:01:47.09Z</time></trkpt><trkpt lat="41.7925676" lon="1.9167867"><ele>255.0</ele><time>2026-04-25T12:01:48.09Z</time></trkpt><trkpt lat="41.7927927" lon="1.9170203"><ele>256.5</ele><time>2026-04-25T12:01:49.089Z</time></trkpt><trkpt lat="41.7930184" lon="1.9172561"><ele>258.0</ele><time>2026-04-25T12:01:50.09Z</time></trkpt><trkpt lat="41.793245" lon="1.9174931"><ele>257.5</ele><time>2026-04-25T12:01:51.09Z</time></trkpt><trkpt lat="41.7934676" lon="1.9177359"><ele>257.0</ele><time>2026-04-25T12:01:52.09Z</time></trkpt><trkpt lat="41.793687" lon="1.917987"><ele>257.5</ele><time>2026-04-25T12:01:53.09Z</time></trkpt><trkpt lat="41.793903" lon="1.9182444"><ele>258.0</ele><time>2026-04-25T12:01:54.091Z</time></trkpt><trkpt lat="41.794113" lon="1.9185102"><ele>258.0</ele><time>2026-04-25T12:01:55.089Z</time></trkpt><trkpt lat="41.7943188" lon="1.9187835"><ele>258.0</ele><time>2026-04-25T12:01:56.089Z</time></trkpt><trkpt lat="41.7945188" lon="1.9190677"><ele>260.5</ele><time>2026-04-25T12:01:57.09Z</time></trkpt><trkpt lat="41.7947117" lon="1.9193597"><ele>263.0</ele><time>2026-04-25T12:01:58.09Z</time></trkpt><trkpt lat="41.7948981" lon="1.9196644"><ele>263.0</ele><time>2026-04-25T12:01:59.09Z</time></trkpt><trkpt lat="41.7950767" lon="1.9199738"><ele>263.0</ele><time>2026-04-25T12:02:00.09Z</time></trkpt><trkpt lat="41.7952489" lon="1.9202891"><ele>265.0</ele><time>2026-04-25T12:02:01.089Z</time></trkpt><trkpt lat="41.7954139" lon="1.9206114"><ele>267.0</ele><time>2026-04-25T12:02:02.09Z</time></trkpt><trkpt lat="41.7955702" lon="1.9209398"><ele>268.0</ele><time>2026-04-25T12:02:03.089Z</time></trkpt><trkpt lat="41.7957137" lon="1.9212771"><ele>269.0</ele><time>2026-04-25T12:02:04.09Z</time></trkpt><trkpt lat="41.7958473" lon="1.921621"><ele>268.0</ele><time>2026-04-25T12:02:05.089Z</time></trkpt><trkpt lat="41.7959769" lon="1.9219642"><ele>267.0</ele><time>2026-04-25T12:02:06.09Z</time></trkpt><trkpt lat="41.7961011" lon="1.9223098"><ele>268.5</ele><time>2026-04-25T12:02:07.09Z</time></trkpt><trkpt lat="41.7962204" lon="1.9226561"><ele>270.0</ele><time>2026-04-25T12:02:08.089Z</time></trkpt><trkpt lat="41.7963395" lon="1.9230045"><ele>270.0</ele><time>2026-04-25T12:02:09.09Z</time></trkpt><trkpt lat="41.7964607" lon="1.9233508"><ele>270.0</ele><time>2026-04-25T12:02:10.089Z</time></trkpt><trkpt lat="41.7965848" lon="1.9236961"><ele>269.5</ele><time>2026-04-25T12:02:11.09Z</time></trkpt><trkpt lat="41.796711" lon="1.9240358"><ele>269.0</ele><time>2026-04-25T12:02:12.09Z</time></trkpt><trkpt lat="41.7968435" lon="1.9243729"><ele>269.0</ele><time>2026-04-25T12:02:13.089Z</time></trkpt><trkpt lat="41.7969888" lon="1.9246998"><ele>269.0</ele><time>2026-04-25T12:02:14.09Z</time></trkpt><trkpt lat="41.7971452" lon="1.9250168"><ele>268.0</ele><time>2026-04-25T12:02:15.09Z</time></trkpt><trkpt lat="41.7973043" lon="1.9253329"><ele>267.0</ele><time>2026-04-25T12:02:16.09Z</time></trkpt><trkpt lat="41.7974663" lon="1.9256479"><ele>266.5</ele><time>2026-04-25T12:02:17.089Z</time></trkpt><trkpt lat="41.7976366" lon="1.9259551"><ele>266.0</ele><time>2026-04-25T12:02:18.09Z</time></trkpt><trkpt lat="41.7978173" lon="1.9262484"><ele>266.0</ele><time>2026-04-25T12:02:19.089Z</time></trkpt><trkpt lat="41.7980011" lon="1.9265369"><ele>266.0</ele><time>2026-04-25T12:02:20.09Z</time></trkpt><trkpt lat="41.7981869" lon="1.9268194"><ele>265.5</ele><time>2026-04-25T12:02:21.09Z</time></trkpt><trkpt lat="41.7983809" lon="1.9270877"><ele>265.0</ele><time>2026-04-25T12:02:22.09Z</time></trkpt><trkpt lat="41.7985812" lon="1.9273456"><ele>266.0</ele><time>2026-04-25T12:02:23.09Z</time></trkpt><trkpt lat="41.7987886" lon="1.9275989"><ele>267.0</ele><time>2026-04-25T12:02:24.09Z</time></trkpt><trkpt lat="41.7990033" lon="1.9278419"><ele>267.0</ele><time>2026-04-25T12:02:25.09Z</time></trkpt><trkpt lat="41.7992241" lon="1.9280769"><ele>267.0</ele><time>2026-04-25T12:02:26.09Z</time></trkpt><trkpt lat="41.7994503" lon="1.9283068"><ele>267.0</ele><time>2026-04-25T12:02:27.091Z</time></trkpt><trkpt lat="41.7996854" lon="1.9285225"><ele>267.0</ele><time>2026-04-25T12:02:28.09Z</time></trkpt><trkpt lat="41.7999281" lon="1.9287287"><ele>270.5</ele><time>2026-04-25T12:02:29.091Z</time></trkpt><trkpt lat="41.8001736" lon="1.9289232"><ele>274.0</ele><time>2026-04-25T12:02:30.09Z</time></trkpt><trkpt lat="41.8004237" lon="1.929109"><ele>271.5</ele><time>2026-04-25T12:02:31.091Z</time></trkpt><trkpt lat="41.800676" lon="1.9292871"><ele>269.0</ele><time>2026-04-25T12:02:32.09Z</time></trkpt><trkpt lat="41.8009288" lon="1.9294599"><ele>271.5</ele><time>2026-04-25T12:02:33.089Z</time></trkpt><trkpt lat="41.8011807" lon="1.9296328"><ele>274.0</ele><time>2026-04-25T12:02:34.09Z</time></trkpt><trkpt lat="41.8014325" lon="1.9298103"><ele>274.0</ele><time>2026-04-25T12:02:35.09Z</time></trkpt><trkpt lat="41.8016823" lon="1.9299928"><ele>274.0</ele><time>2026-04-25T12:02:36.09Z</time></trkpt><trkpt lat="41.8019292" lon="1.9301833"><ele>272.0</ele><time>2026-04-25T12:02:37.09Z</time></trkpt><trkpt lat="41.8021741" lon="1.9303791"><ele>270.0</ele><time>2026-04-25T12:02:38.09Z</time></trkpt><trkpt lat="41.8024145" lon="1.930586"><ele>270.0</ele><time>2026-04-25T12:02:39.09Z</time></trkpt><trkpt lat="41.8026475" lon="1.930807"><ele>270.0</ele><time>2026-04-25T12:02:40.09Z</time></trkpt><trkpt lat="41.8028757" lon="1.9310382"><ele>272.0</ele><time>2026-04-25T12:02:41.09Z</time></trkpt><trkpt lat="41.803102" lon="1.9312757"><ele>274.0</ele><time>2026-04-25T12:02:42.09Z</time></trkpt><trkpt lat="41.8033251" lon="1.9315197"><ele>272.5</ele><time>2026-04-25T12:02:43.089Z</time></trkpt><trkpt lat="41.8035432" lon="1.9317701"><ele>271.0</ele><time>2026-04-25T12:02:44.089Z</time></trkpt><trkpt lat="41.8037547" lon="1.9320266"><ele>271.0</ele><time>2026-04-25T12:02:45.09Z</time></trkpt><trkpt lat="41.8039644" lon="1.9322875"><ele>271.0</ele><time>2026-04-25T12:02:46.089Z</time></trkpt><trkpt lat="41.8041682" lon="1.9325574"><ele>268.5</ele><time>2026-04-25T12:02:47.089Z</time></trkpt><trkpt lat="41.8043731" lon="1.9328384"><ele>266.0</ele><time>2026-04-25T12:02:48.09Z</time></trkpt><trkpt lat="41.8045751" lon="1.9331234"><ele>266.0</ele><time>2026-04-25T12:02:49.089Z</time></trkpt><trkpt lat="41.8047708" lon="1.9334092"><ele>266.0</ele><time>2026-04-25T12:02:50.09Z</time></trkpt><trkpt lat="41.8049597" lon="1.9337008"><ele>266.0</ele><time>2026-04-25T12:02:51.09Z</time></trkpt><trkpt lat="41.8051415" lon="1.9339976"><ele>266.0</ele><time>2026-04-25T12:02:52.09Z</time></trkpt><trkpt lat="41.8053166" lon="1.9343016"><ele>266.0</ele><time>2026-04-25T12:02:53.09Z</time></trkpt><trkpt lat="41.8054885" lon="1.9346119"><ele>266.0</ele><time>2026-04-25T12:02:54.089Z</time></trkpt><trkpt lat="41.8056578" lon="1.9349281"><ele>268.0</ele><time>2026-04-25T12:02:55.091Z</time></trkpt><trkpt lat="41.8058186" lon="1.9352464"><ele>270.0</ele><time>2026-04-25T12:02:56.09Z</time></trkpt><trkpt lat="41.8059684" lon="1.9355659"><ele>270.5</ele><time>2026-04-25T12:02:57.09Z</time></trkpt><trkpt lat="41.8061115" lon="1.9358891"><ele>271.0</ele><time>2026-04-25T12:02:58.089Z</time></trkpt><trkpt lat="41.8062459" lon="1.9362192"><ele>271.0</ele><time>2026-04-25T12:02:59.089Z</time></trkpt><trkpt lat="41.8063747" lon="1.9365554"><ele>271.0</ele><time>2026-04-25T12:03:00.089Z</time></trkpt><trkpt lat="41.8064974" lon="1.936901"><ele>271.0</ele><time>2026-04-25T12:03:01.09Z</time></trkpt><trkpt lat="41.8066119" lon="1.9372514"><ele>271.0</ele><time>2026-04-25T12:03:02.089Z</time></trkpt><trkpt lat="41.8067186" lon="1.9376055"><ele>271.0</ele><time>2026-04-25T12:03:03.09Z</time></trkpt><trkpt lat="41.80682" lon="1.9379648"><ele>271.0</ele><time>2026-04-25T12:03:04.09Z</time></trkpt><trkpt lat="41.8069144" lon="1.9383261"><ele>272.0</ele><time>2026-04-25T12:03:05.089Z</time></trkpt><trkpt lat="41.8070047" lon="1.9386917"><ele>273.0</ele><time>2026-04-25T12:03:06.09Z</time></trkpt><trkpt lat="41.8070931" lon="1.9390584"><ele>272.5</ele><time>2026-04-25T12:03:07.089Z</time></trkpt><trkpt lat="41.8071804" lon="1.9394308"><ele>272.0</ele><time>2026-04-25T12:03:08.09Z</time></trkpt><trkpt lat="41.8072648" lon="1.9398069"><ele>271.0</ele><time>2026-04-25T12:03:09.09Z</time></trkpt><trkpt lat="41.8073488" lon="1.9401888"><ele>270.0</ele><time>2026-04-25T12:03:10.09Z</time></trkpt><trkpt lat="41.8074354" lon="1.9405753"><ele>271.0</ele><time>2026-04-25T12:03:11.09Z</time></trkpt><trkpt lat="41.8075257" lon="1.9409679"><ele>272.0</ele><time>2026-04-25T12:03:12.09Z</time></trkpt><trkpt lat="41.8076165" lon="1.9413628"><ele>271.5</ele><time>2026-04-25T12:03:13.09Z</time></trkpt><trkpt lat="41.8077074" lon="1.9417575"><ele>271.0</ele><time>2026-04-25T12:03:14.09Z</time></trkpt><trkpt lat="41.8077969" lon="1.9421503"><ele>271.0</ele><time>2026-04-25T12:03:15.09Z</time></trkpt><trkpt lat="41.8078857" lon="1.9425413"><ele>271.0</ele><time>2026-04-25T12:03:16.089Z</time></trkpt><trkpt lat="41.8079768" lon="1.9429274"><ele>271.0</ele><time>2026-04-25T12:03:17.089Z</time></trkpt><trkpt lat="41.808069" lon="1.9433119"><ele>271.0</ele><time>2026-04-25T12:03:18.089Z</time></trkpt><trkpt lat="41.8081616" lon="1.943691"><ele>271.0</ele><time>2026-04-25T12:03:19.09Z</time></trkpt><trkpt lat="41.8082536" lon="1.9440685"><ele>271.0</ele><time>2026-04-25T12:03:20.09Z</time></trkpt><trkpt lat="41.808345" lon="1.9444452"><ele>271.0</ele><time>2026-04-25T12:03:21.09Z</time></trkpt><trkpt lat="41.8084357" lon="1.9448165"><ele>271.0</ele><time>2026-04-25T12:03:22.091Z</time></trkpt><trkpt lat="41.8085244" lon="1.9451869"><ele>271.5</ele><time>2026-04-25T12:03:23.09Z</time></trkpt><trkpt lat="41.8086129" lon="1.9455607"><ele>272.0</ele><time>2026-04-25T12:03:24.091Z</time></trkpt><trkpt lat="41.8087006" lon="1.945935"><ele>272.5</ele><time>2026-04-25T12:03:25.091Z</time></trkpt><trkpt lat="41.8087872" lon="1.94631"><ele>273.0</ele><time>2026-04-25T12:03:26.091Z</time></trkpt><trkpt lat="41.8088718" lon="1.9466875"><ele>273.0</ele><time>2026-04-25T12:03:27.089Z</time></trkpt><trkpt lat="41.8089575" lon="1.9470626"><ele>273.0</ele><time>2026-04-25T12:03:28.089Z</time></trkpt><trkpt lat="41.8090448" lon="1.9474379"><ele>273.0</ele><time>2026-04-25T12:03:29.09Z</time></trkpt><trkpt lat="41.8091326" lon="1.9478126"><ele>273.0</ele><time>2026-04-25T12:03:30.089Z</time></trkpt><trkpt lat="41.8092212" lon="1.9481891"><ele>273.5</ele><time>2026-04-25T12:03:31.091Z</time></trkpt><trkpt lat="41.809306" lon="1.9485645"><ele>274.0</ele><time>2026-04-25T12:03:32.09Z</time></trkpt><trkpt lat="41.8093863" lon="1.9489429"><ele>273.0</ele><time>2026-04-25T12:03:33.089Z</time></trkpt><trkpt lat="41.8094695" lon="1.949323"><ele>272.0</ele><time>2026-04-25T12:03:34.09Z</time></trkpt><trkpt lat="41.8095522" lon="1.9497021"><ele>273.0</ele><time>2026-04-25T12:03:35.09Z</time></trkpt><trkpt lat="41.809634" lon="1.9500829"><ele>274.0</ele><time>2026-04-25T12:03:36.09Z</time></trkpt><trkpt lat="41.8097172" lon="1.9504677"><ele>274.0</ele><time>2026-04-25T12:03:37.089Z</time></trkpt><trkpt lat="41.8098023" lon="1.9508479"><ele>274.0</ele><time>2026-04-25T12:03:38.091Z</time></trkpt><trkpt lat="41.80989" lon="1.9512339"><ele>274.5</ele><time>2026-04-25T12:03:39.09Z</time></trkpt><trkpt lat="41.8099775" lon="1.9516189"><ele>275.0</ele><time>2026-04-25T12:03:40.089Z</time></trkpt><trkpt lat="41.8100636" lon="1.9520013"><ele>276.0</ele><time>2026-04-25T12:03:41.09Z</time></trkpt><trkpt lat="41.8101521" lon="1.9523847"><ele>277.0</ele><time>2026-04-25T12:03:42.09Z</time></trkpt><trkpt lat="41.8102408" lon="1.9527648"><ele>277.0</ele><time>2026-04-25T12:03:43.091Z</time></trkpt><trkpt lat="41.8103295" lon="1.9531466"><ele>277.0</ele><time>2026-04-25T12:03:44.09Z</time></trkpt><trkpt lat="41.810417" lon="1.9535279"><ele>277.0</ele><time>2026-04-25T12:03:45.089Z</time></trkpt><trkpt lat="41.8105067" lon="1.9539137"><ele>277.0</ele><time>2026-04-25T12:03:46.09Z</time></trkpt><trkpt lat="41.810595" lon="1.9542962"><ele>278.0</ele><time>2026-04-25T12:03:47.089Z</time></trkpt><trkpt lat="41.8106819" lon="1.9546775"><ele>279.0</ele><time>2026-04-25T12:03:48.089Z</time></trkpt><trkpt lat="41.8107684" lon="1.9550588"><ele>279.5</ele><time>2026-04-25T12:03:49.09Z</time></trkpt><trkpt lat="41.8108555" lon="1.955439"><ele>280.0</ele><time>2026-04-25T12:03:50.09Z</time></trkpt><trkpt lat="41.8109412" lon="1.9558189"><ele>279.0</ele><time>2026-04-25T12:03:51.09Z</time></trkpt><trkpt lat="41.8110278" lon="1.9562011"><ele>278.0</ele><time>2026-04-25T12:03:52.089Z</time></trkpt><trkpt lat="41.8111142" lon="1.9565826"><ele>279.0</ele><time>2026-04-25T12:03:53.09Z</time></trkpt><trkpt lat="41.8111996" lon="1.9569679"><ele>280.0</ele><time>2026-04-25T12:03:54.09Z</time></trkpt><trkpt lat="41.8112841" lon="1.9573537"><ele>279.5</ele><time>2026-04-25T12:03:55.09Z</time></trkpt><trkpt lat="41.8113667" lon="1.9577382"><ele>279.0</ele><time>2026-04-25T12:03:56.089Z</time></trkpt><trkpt lat="41.8114484" lon="1.9581225"><ele>278.5</ele><time>2026-04-25T12:03:57.09Z</time></trkpt><trkpt lat="41.8115309" lon="1.9585084"><ele>278.0</ele><time>2026-04-25T12:03:58.09Z</time></trkpt><trkpt lat="41.8116156" lon="1.9588953"><ele>279.5</ele><time>2026-04-25T12:03:59.089Z</time></trkpt><trkpt lat="41.8117001" lon="1.9592826"><ele>281.0</ele><time>2026-04-25T12:04:00.09Z</time></trkpt><trkpt lat="41.8117865" lon="1.9596699"><ele>283.5</ele><time>2026-04-25T12:04:01.09Z</time></trkpt><trkpt lat="41.8118743" lon="1.9600603"><ele>286.0</ele><time>2026-04-25T12:04:02.09Z</time></trkpt><trkpt lat="41.8119664" lon="1.9604488"><ele>286.0</ele><time>2026-04-25T12:04:03.09Z</time></trkpt><trkpt lat="41.8120662" lon="1.9608356"><ele>286.0</ele><time>2026-04-25T12:04:04.089Z</time></trkpt><trkpt lat="41.8121811" lon="1.9612139"><ele>286.0</ele><time>2026-04-25T12:04:05.09Z</time></trkpt><trkpt lat="41.8123146" lon="1.9615858"><ele>286.0</ele><time>2026-04-25T12:04:06.089Z</time></trkpt><trkpt lat="41.8124623" lon="1.9619514"><ele>287.5</ele><time>2026-04-25T12:04:07.09Z</time></trkpt><trkpt lat="41.8126231" lon="1.962305"><ele>289.0</ele><time>2026-04-25T12:04:08.09Z</time></trkpt><trkpt lat="41.8127999" lon="1.9626485"><ele>290.0</ele><time>2026-04-25T12:04:09.089Z</time></trkpt><trkpt lat="41.8129917" lon="1.9629773"><ele>291.0</ele><time>2026-04-25T12:04:10.089Z</time></trkpt><trkpt lat="41.8131991" lon="1.9632919"><ele>291.5</ele><time>2026-04-25T12:04:11.09Z</time></trkpt><trkpt lat="41.8134203" lon="1.9635886"><ele>292.0</ele><time>2026-04-25T12:04:12.089Z</time></trkpt><trkpt lat="41.8136562" lon="1.9638668"><ele>292.0</ele><time>2026-04-25T12:04:13.09Z</time></trkpt><trkpt lat="41.8139037" lon="1.9641256"><ele>292.0</ele><time>2026-04-25T12:04:14.09Z</time></trkpt><trkpt lat="41.8141609" lon="1.964366"><ele>291.0</ele><time>2026-04-25T12:04:15.089Z</time></trkpt><trkpt lat="41.8144229" lon="1.9645886"><ele>290.0</ele><time>2026-04-25T12:04:16.09Z</time></trkpt><trkpt lat="41.8146891" lon="1.9647949"><ele>290.0</ele><time>2026-04-25T12:04:17.089Z</time></trkpt><trkpt lat="41.8149597" lon="1.9649835"><ele>290.0</ele><time>2026-04-25T12:04:18.089Z</time></trkpt><trkpt lat="41.8152366" lon="1.9651615"><ele>296.0</ele><time>2026-04-25T12:04:19.09Z</time></trkpt><trkpt lat="41.8155148" lon="1.9653261"><ele>302.0</ele><time>2026-04-25T12:04:20.09Z</time></trkpt><trkpt lat="41.8158032" lon="1.9654659"><ele>298.5</ele><time>2026-04-25T12:04:21.091Z</time></trkpt><trkpt lat="41.8160967" lon="1.965591"><ele>295.0</ele><time>2026-04-25T12:04:22.09Z</time></trkpt><trkpt lat="41.8163957" lon="1.9657089"><ele>295.0</ele><time>2026-04-25T12:04:23.09Z</time></trkpt><trkpt lat="41.8166985" lon="1.9658172"><ele>295.0</ele><time>2026-04-25T12:04:24.09Z</time></trkpt><trkpt lat="41.8170049" lon="1.9659141"><ele>298.5</ele><time>2026-04-25T12:04:25.09Z</time></trkpt><trkpt lat="41.817315" lon="1.9659998"><ele>302.0</ele><time>2026-04-25T12:04:26.089Z</time></trkpt><trkpt lat="41.8176279" lon="1.9660701"><ele>299.5</ele><time>2026-04-25T12:04:27.09Z</time></trkpt><trkpt lat="41.8179424" lon="1.9661274"><ele>297.0</ele><time>2026-04-25T12:04:28.09Z</time></trkpt><trkpt lat="41.8182587" lon="1.9661763"><ele>298.5</ele><time>2026-04-25T12:04:29.089Z</time></trkpt><trkpt lat="41.8185722" lon="1.9662167"><ele>300.0</ele><time>2026-04-25T12:04:30.089Z</time></trkpt><trkpt lat="41.8188797" lon="1.9662506"><ele>300.0</ele><time>2026-04-25T12:04:31.089Z</time></trkpt><trkpt lat="41.8191813" lon="1.9662829"><ele>300.0</ele><time>2026-04-25T12:04:32.091Z</time></trkpt><trkpt lat="41.8194776" lon="1.9663177"><ele>300.0</ele><time>2026-04-25T12:04:33.09Z</time></trkpt><trkpt lat="41.8197732" lon="1.9663568"><ele>300.0</ele><time>2026-04-25T12:04:34.089Z</time></trkpt><trkpt lat="41.8200711" lon="1.966397"><ele>300.0</ele><time>2026-04-25T12:04:35.09Z</time></trkpt><trkpt lat="41.8203748" lon="1.9664367"><ele>300.0</ele><time>2026-04-25T12:04:36.089Z</time></trkpt><trkpt lat="41.820691" lon="1.9664759"><ele>302.0</ele><time>2026-04-25T12:04:37.09Z</time></trkpt><trkpt lat="41.8210263" lon="1.9665142"><ele>304.0</ele><time>2026-04-25T12:04:38.09Z</time></trkpt><trkpt lat="41.8213656" lon="1.9665505"><ele>304.0</ele><time>2026-04-25T12:04:39.089Z</time></trkpt><trkpt lat="41.821693" lon="1.9665841"><ele>304.0</ele><time>2026-04-25T12:04:40.09Z</time></trkpt><trkpt lat="41.8220176" lon="1.966619"><ele>305.5</ele><time>2026-04-25T12:04:41.09Z</time></trkpt><trkpt lat="41.8223398" lon="1.9666532"><ele>307.0</ele><time>2026-04-25T12:04:42.09Z</time></trkpt><trkpt lat="41.8226611" lon="1.966691"><ele>309.0</ele><time>2026-04-25T12:04:43.09Z</time></trkpt><trkpt lat="41.8229823" lon="1.9667272"><ele>311.0</ele><time>2026-04-25T12:04:44.089Z</time></trkpt><trkpt lat="41.8233023" lon="1.9667622"><ele>310.0</ele><time>2026-04-25T12:04:45.09Z</time></trkpt><trkpt lat="41.8236214" lon="1.9667973"><ele>309.0</ele><time>2026-04-25T12:04:46.089Z</time></trkpt><trkpt lat="41.8239413" lon="1.9668376"><ele>309.0</ele><time>2026-04-25T12:04:47.09Z</time></trkpt><trkpt lat="41.8242602" lon="1.9668792"><ele>309.0</ele><time>2026-04-25T12:04:48.089Z</time></trkpt><trkpt lat="41.8245791" lon="1.96692"><ele>309.5</ele><time>2026-04-25T12:04:49.089Z</time></trkpt><trkpt lat="41.8248968" lon="1.9669631"><ele>310.0</ele><time>2026-04-25T12:04:50.091Z</time></trkpt><trkpt lat="41.825215" lon="1.9670037"><ele>313.5</ele><time>2026-04-25T12:04:51.089Z</time></trkpt><trkpt lat="41.8255332" lon="1.9670414"><ele>317.0</ele><time>2026-04-25T12:04:52.09Z</time></trkpt><trkpt lat="41.8258519" lon="1.9670771"><ele>318.5</ele><time>2026-04-25T12:04:53.09Z</time></trkpt><trkpt lat="41.8261678" lon="1.967116"><ele>320.0</ele><time>2026-04-25T12:04:54.09Z</time></trkpt><trkpt lat="41.8264819" lon="1.9671672"><ele>320.0</ele><time>2026-04-25T12:04:55.09Z</time></trkpt><trkpt lat="41.8267925" lon="1.967239"><ele>320.0</ele><time>2026-04-25T12:04:56.091Z</time></trkpt><trkpt lat="41.8271008" lon="1.9673293"><ele>322.0</ele><time>2026-04-25T12:04:57.09Z</time></trkpt><trkpt lat="41.8274073" lon="1.9674322"><ele>324.0</ele><time>2026-04-25T12:04:58.089Z</time></trkpt><trkpt lat="41.8277133" lon="1.9675485"><ele>328.5</ele><time>2026-04-25T12:04:59.09Z</time></trkpt><trkpt lat="41.8280182" lon="1.9676815"><ele>333.0</ele><time>2026-04-25T12:05:00.09Z</time></trkpt><trkpt lat="41.8283222" lon="1.9678293"><ele>330.5</ele><time>2026-04-25T12:05:01.089Z</time></trkpt><trkpt lat="41.8286234" lon="1.9679898"><ele>328.0</ele><time>2026-04-25T12:05:02.09Z</time></trkpt><trkpt lat="41.8289205" lon="1.9681596"><ele>328.0</ele><time>2026-04-25T12:05:03.09Z</time></trkpt><trkpt lat="41.8292145" lon="1.9683489"><ele>328.0</ele><time>2026-04-25T12:05:04.09Z</time></trkpt><trkpt lat="41.8295035" lon="1.968555"><ele>328.5</ele><time>2026-04-25T12:05:05.089Z</time></trkpt><trkpt lat="41.8297856" lon="1.9687767"><ele>329.0</ele><time>2026-04-25T12:05:06.09Z</time></trkpt><trkpt lat="41.8300627" lon="1.9690136"><ele>328.0</ele><time>2026-04-25T12:05:07.09Z</time></trkpt><trkpt lat="41.8303328" lon="1.9692644"><ele>327.0</ele><time>2026-04-25T12:05:08.09Z</time></trkpt><trkpt lat="41.8305962" lon="1.9695267"><ele>327.0</ele><time>2026-04-25T12:05:09.089Z</time></trkpt><trkpt lat="41.8308513" lon="1.9698041"><ele>327.0</ele><time>2026-04-25T12:05:10.09Z</time></trkpt><trkpt lat="41.8310981" lon="1.9700922"><ele>326.0</ele><time>2026-04-25T12:05:11.09Z</time></trkpt><trkpt lat="41.8313333" lon="1.9703923"><ele>325.0</ele><time>2026-04-25T12:05:12.09Z</time></trkpt><trkpt lat="41.8315707" lon="1.9706924"><ele>328.0</ele><time>2026-04-25T12:05:13.09Z</time></trkpt><trkpt lat="41.8317805" lon="1.9710298"><ele>331.0</ele><time>2026-04-25T12:05:14.09Z</time></trkpt><trkpt lat="41.8319949" lon="1.9713557"><ele>326.0</ele><time>2026-04-25T12:05:15.09Z</time></trkpt><trkpt lat="41.8322009" lon="1.9716928"><ele>321.0</ele><time>2026-04-25T12:05:16.09Z</time></trkpt><trkpt lat="41.8323982" lon="1.972038"><ele>321.0</ele><time>2026-04-25T12:05:17.09Z</time></trkpt><trkpt lat="41.8325851" lon="1.9723918"><ele>321.0</ele><time>2026-04-25T12:05:18.089Z</time></trkpt><trkpt lat="41.8327652" lon="1.9727536"><ele>319.5</ele><time>2026-04-25T12:05:19.089Z</time></trkpt><trkpt lat="41.8329426" lon="1.9731169"><ele>318.0</ele><time>2026-04-25T12:05:20.09Z</time></trkpt><trkpt lat="41.8331204" lon="1.9734847"><ele>318.0</ele><time>2026-04-25T12:05:21.09Z</time></trkpt><trkpt lat="41.8333009" lon="1.9738501"><ele>318.0</ele><time>2026-04-25T12:05:22.09Z</time></trkpt><trkpt lat="41.8334842" lon="1.9742133"><ele>318.5</ele><time>2026-04-25T12:05:23.09Z</time></trkpt><trkpt lat="41.8336689" lon="1.9745726"><ele>319.0</ele><time>2026-04-25T12:05:24.09Z</time></trkpt><trkpt lat="41.8338579" lon="1.9749295"><ele>321.0</ele><time>2026-04-25T12:05:25.09Z</time></trkpt><trkpt lat="41.8340524" lon="1.9752808"><ele>323.0</ele><time>2026-04-25T12:05:26.09Z</time></trkpt><trkpt lat="41.8342527" lon="1.975625"><ele>322.0</ele><time>2026-04-25T12:05:27.089Z</time></trkpt><trkpt lat="41.834457" lon="1.9759594"><ele>321.0</ele><time>2026-04-25T12:05:28.089Z</time></trkpt><trkpt lat="41.8346625" lon="1.9762839"><ele>321.0</ele><time>2026-04-25T12:05:29.089Z</time></trkpt><trkpt lat="41.8348702" lon="1.9766057"><ele>321.0</ele><time>2026-04-25T12:05:30.091Z</time></trkpt><trkpt lat="41.8350843" lon="1.9769224"><ele>323.0</ele><time>2026-04-25T12:05:31.09Z</time></trkpt><trkpt lat="41.835305" lon="1.977233"><ele>325.0</ele><time>2026-04-25T12:05:32.09Z</time></trkpt><trkpt lat="41.8355349" lon="1.9775349"><ele>326.0</ele><time>2026-04-25T12:05:33.091Z</time></trkpt><trkpt lat="41.835776" lon="1.9778347"><ele>327.0</ele><time>2026-04-25T12:05:34.089Z</time></trkpt><trkpt lat="41.8360334" lon="1.9781379"><ele>331.5</ele><time>2026-04-25T12:05:35.089Z</time></trkpt><trkpt lat="41.836303" lon="1.9784452"><ele>336.0</ele><time>2026-04-25T12:05:36.09Z</time></trkpt><trkpt lat="41.8365814" lon="1.9787546"><ele>335.5</ele><time>2026-04-25T12:05:37.09Z</time></trkpt><trkpt lat="41.8368661" lon="1.9790646"><ele>335.0</ele><time>2026-04-25T12:05:38.09Z</time></trkpt><trkpt lat="41.8371613" lon="1.9793739"><ele>335.0</ele><time>2026-04-25T12:05:39.09Z</time></trkpt><trkpt lat="41.8374683" lon="1.9796787"><ele>335.0</ele><time>2026-04-25T12:05:40.089Z</time></trkpt><trkpt lat="41.8377828" lon="1.9799779"><ele>342.0</ele><time>2026-04-25T12:05:41.09Z</time></trkpt><trkpt lat="41.8381035" lon="1.9802652"><ele>349.0</ele><time>2026-04-25T12:05:42.089Z</time></trkpt><trkpt lat="41.8384289" lon="1.9805423"><ele>349.5</ele><time>2026-04-25T12:05:43.09Z</time></trkpt><trkpt lat="41.8387464" lon="1.980796"><ele>350.0</ele><time>2026-04-25T12:05:44.091Z</time></trkpt><trkpt lat="41.8390623" lon="1.9810337"><ele>343.0</ele><time>2026-04-25T12:05:45.09Z</time></trkpt><trkpt lat="41.8393798" lon="1.9812547"><ele>336.0</ele><time>2026-04-25T12:05:46.09Z</time></trkpt><trkpt lat="41.8396996" lon="1.9814616"><ele>336.0</ele><time>2026-04-25T12:05:47.09Z</time></trkpt><trkpt lat="41.8400183" lon="1.9816559"><ele>336.0</ele><time>2026-04-25T12:05:48.09Z</time></trkpt><trkpt lat="41.8403414" lon="1.9818327"><ele>338.0</ele><time>2026-04-25T12:05:49.089Z</time></trkpt><trkpt lat="41.8406704" lon="1.9819923"><ele>340.0</ele><time>2026-04-25T12:05:50.09Z</time></trkpt><trkpt lat="41.8410047" lon="1.9821376"><ele>341.0</ele><time>2026-04-25T12:05:51.089Z</time></trkpt><trkpt lat="41.8413436" lon="1.9822708"><ele>342.0</ele><time>2026-04-25T12:05:52.089Z</time></trkpt><trkpt lat="41.8416889" lon="1.982394"><ele>345.0</ele><time>2026-04-25T12:05:53.089Z</time></trkpt><trkpt lat="41.8420383" lon="1.9825049"><ele>348.0</ele><time>2026-04-25T12:05:54.09Z</time></trkpt><trkpt lat="41.8423944" lon="1.9825949"><ele>361.0</ele><time>2026-04-25T12:05:55.09Z</time></trkpt><trkpt lat="41.8427549" lon="1.9826674"><ele>374.0</ele><time>2026-04-25T12:05:56.09Z</time></trkpt><trkpt lat="41.8431146" lon="1.982718"><ele>375.0</ele><time>2026-04-25T12:05:57.09Z</time></trkpt><trkpt lat="41.8434738" lon="1.9827514"><ele>376.0</ele><time>2026-04-25T12:05:58.09Z</time></trkpt><trkpt lat="41.8438314" lon="1.9827665"><ele>376.0</ele><time>2026-04-25T12:05:59.091Z</time></trkpt><trkpt lat="41.8441877" lon="1.9827644"><ele>376.0</ele><time>2026-04-25T12:06:00.091Z</time></trkpt><trkpt lat="41.8445456" lon="1.9827447"><ele>375.5</ele><time>2026-04-25T12:06:01.09Z</time></trkpt><trkpt lat="41.8449022" lon="1.9827079"><ele>375.0</ele><time>2026-04-25T12:06:02.09Z</time></trkpt><trkpt lat="41.8452593" lon="1.9826586"><ele>375.0</ele><time>2026-04-25T12:06:03.09Z</time></trkpt><trkpt lat="41.8456146" lon="1.9826063"><ele>375.0</ele><time>2026-04-25T12:06:04.09Z</time></trkpt><trkpt lat="41.8459691" lon="1.9825521"><ele>378.5</ele><time>2026-04-25T12:06:05.09Z</time></trkpt><trkpt lat="41.8463227" lon="1.982496"><ele>382.0</ele><time>2026-04-25T12:06:06.091Z</time></trkpt><trkpt lat="41.8466704" lon="1.9824377"><ele>386.0</ele><time>2026-04-25T12:06:07.09Z</time></trkpt><trkpt lat="41.8470096" lon="1.982379"><ele>390.0</ele><time>2026-04-25T12:06:08.089Z</time></trkpt><trkpt lat="41.847345" lon="1.9823189"><ele>391.5</ele><time>2026-04-25T12:06:09.09Z</time></trkpt><trkpt lat="41.8476738" lon="1.982257"><ele>393.0</ele><time>2026-04-25T12:06:10.09Z</time></trkpt><trkpt lat="41.847996" lon="1.9821958"><ele>393.0</ele><time>2026-04-25T12:06:11.09Z</time></trkpt><trkpt lat="41.8483112" lon="1.9821354"><ele>393.0</ele><time>2026-04-25T12:06:12.09Z</time></trkpt><trkpt lat="41.8486218" lon="1.9820775"><ele>400.0</ele><time>2026-04-25T12:06:13.089Z</time></trkpt><trkpt lat="41.8489257" lon="1.9820296"><ele>407.0</ele><time>2026-04-25T12:06:14.089Z</time></trkpt><trkpt lat="41.8492234" lon="1.9819997"><ele>412.0</ele><time>2026-04-25T12:06:15.089Z</time></trkpt><trkpt lat="41.8495198" lon="1.9819892"><ele>417.0</ele><time>2026-04-25T12:06:16.09Z</time></trkpt><trkpt lat="41.8498136" lon="1.9819958"><ele>417.0</ele><time>2026-04-25T12:06:17.089Z</time></trkpt><trkpt lat="41.8501065" lon="1.9820163"><ele>417.0</ele><time>2026-04-25T12:06:18.09Z</time></trkpt><trkpt lat="41.8503991" lon="1.9820468"><ele>420.0</ele><time>2026-04-25T12:06:19.09Z</time></trkpt><trkpt lat="41.850693" lon="1.9820946"><ele>423.0</ele><time>2026-04-25T12:06:20.09Z</time></trkpt><trkpt lat="41.8509869" lon="1.9821603"><ele>423.0</ele><time>2026-04-25T12:06:21.09Z</time></trkpt><trkpt lat="41.8512779" lon="1.9822431"><ele>423.0</ele><time>2026-04-25T12:06:22.089Z</time></trkpt><trkpt lat="41.8515656" lon="1.9823366"><ele>422.5</ele><time>2026-04-25T12:06:23.091Z</time></trkpt><trkpt lat="41.8518476" lon="1.9824453"><ele>422.0</ele><time>2026-04-25T12:06:24.09Z</time></trkpt><trkpt lat="41.8521279" lon="1.9825723"><ele>420.0</ele><time>2026-04-25T12:06:25.091Z</time></trkpt><trkpt lat="41.8524033" lon="1.982716"><ele>418.0</ele><time>2026-04-25T12:06:26.09Z</time></trkpt><trkpt lat="41.8526752" lon="1.9828802"><ele>418.0</ele><time>2026-04-25T12:06:27.09Z</time></trkpt><trkpt lat="41.8529434" lon="1.9830585"><ele>418.0</ele><time>2026-04-25T12:06:28.09Z</time></trkpt><trkpt lat="41.853208" lon="1.98325"><ele>423.0</ele><time>2026-04-25T12:06:29.089Z</time></trkpt><trkpt lat="41.8534631" lon="1.9834517"><ele>428.0</ele><time>2026-04-25T12:06:30.09Z</time></trkpt><trkpt lat="41.8537131" lon="1.9836687"><ele>428.0</ele><time>2026-04-25T12:06:31.09Z</time></trkpt><trkpt lat="41.853954" lon="1.9838984"><ele>428.0</ele><time>2026-04-25T12:06:32.089Z</time></trkpt><trkpt lat="41.8541844" lon="1.9841431"><ele>429.5</ele><time>2026-04-25T12:06:33.09Z</time></trkpt><trkpt lat="41.8544076" lon="1.9844005"><ele>431.0</ele><time>2026-04-25T12:06:34.091Z</time></trkpt><trkpt lat="41.8546235" lon="1.9846717"><ele>431.0</ele><time>2026-04-25T12:06:35.09Z</time></trkpt><trkpt lat="41.8548294" lon="1.9849551"><ele>431.0</ele><time>2026-04-25T12:06:36.089Z</time></trkpt><trkpt lat="41.8550267" lon="1.9852501"><ele>437.0</ele><time>2026-04-25T12:06:37.09Z</time></trkpt><trkpt lat="41.8552128" lon="1.9855527"><ele>443.0</ele><time>2026-04-25T12:06:38.089Z</time></trkpt><trkpt lat="41.8553874" lon="1.9858659"><ele>445.0</ele><time>2026-04-25T12:06:39.09Z</time></trkpt><trkpt lat="41.8555481" lon="1.9861905"><ele>447.0</ele><time>2026-04-25T12:06:40.09Z</time></trkpt><trkpt lat="41.8556952" lon="1.9865281"><ele>449.5</ele><time>2026-04-25T12:06:41.09Z</time></trkpt><trkpt lat="41.8558291" lon="1.9868783"><ele>452.0</ele><time>2026-04-25T12:06:42.089Z</time></trkpt><trkpt lat="41.8559513" lon="1.9872414"><ele>444.5</ele><time>2026-04-25T12:06:43.09Z</time></trkpt><trkpt lat="41.8560633" lon="1.9876188"><ele>437.0</ele><time>2026-04-25T12:06:44.089Z</time></trkpt><trkpt lat="41.8561626" lon="1.9880054"><ele>439.5</ele><time>2026-04-25T12:06:45.09Z</time></trkpt><trkpt lat="41.856246" lon="1.9883971"><ele>442.0</ele><time>2026-04-25T12:06:46.09Z</time></trkpt><trkpt lat="41.8563196" lon="1.9887904"><ele>442.5</ele><time>2026-04-25T12:06:47.09Z</time></trkpt><trkpt lat="41.856391" lon="1.9891789"><ele>443.0</ele><time>2026-04-25T12:06:48.09Z</time></trkpt><trkpt lat="41.8564626" lon="1.9895683"><ele>443.0</ele><time>2026-04-25T12:06:49.091Z</time></trkpt><trkpt lat="41.8565354" lon="1.9899578"><ele>443.0</ele><time>2026-04-25T12:06:50.09Z</time></trkpt><trkpt lat="41.8566087" lon="1.9903457"><ele>442.5</ele><time>2026-04-25T12:06:51.09Z</time></trkpt><trkpt lat="41.8566849" lon="1.9907357"><ele>442.0</ele><time>2026-04-25T12:06:52.09Z</time></trkpt><trkpt lat="41.8567653" lon="1.9911223"><ele>441.0</ele><time>2026-04-25T12:06:53.089Z</time></trkpt><trkpt lat="41.8568478" lon="1.991506"><ele>440.0</ele><time>2026-04-25T12:06:54.09Z</time></trkpt><trkpt lat="41.8569308" lon="1.991889"><ele>443.5</ele><time>2026-04-25T12:06:55.089Z</time></trkpt><trkpt lat="41.8570168" lon="1.9922711"><ele>447.0</ele><time>2026-04-25T12:06:56.089Z</time></trkpt><trkpt lat="41.8571058" lon="1.9926524"><ele>451.0</ele><time>2026-04-25T12:06:57.091Z</time></trkpt><trkpt lat="41.8571976" lon="1.9930339"><ele>455.0</ele><time>2026-04-25T12:06:58.09Z</time></trkpt><trkpt lat="41.8572974" lon="1.9934116"><ele>457.0</ele><time>2026-04-25T12:06:59.09Z</time></trkpt><trkpt lat="41.8574123" lon="1.9937763"><ele>459.0</ele><time>2026-04-25T12:07:00.09Z</time></trkpt><trkpt lat="41.8575504" lon="1.9941281"><ele>458.5</ele><time>2026-04-25T12:07:01.091Z</time></trkpt><trkpt lat="41.8577073" lon="1.994467"><ele>458.0</ele><time>2026-04-25T12:07:02.09Z</time></trkpt><trkpt lat="41.8578827" lon="1.9947937"><ele>457.0</ele><time>2026-04-25T12:07:03.09Z</time></trkpt><trkpt lat="41.8580754" lon="1.9951072"><ele>456.0</ele><time>2026-04-25T12:07:04.089Z</time></trkpt><trkpt lat="41.8582793" lon="1.9954112"><ele>456.5</ele><time>2026-04-25T12:07:05.09Z</time></trkpt><trkpt lat="41.8584949" lon="1.995703"><ele>457.0</ele><time>2026-04-25T12:07:06.09Z</time></trkpt><trkpt lat="41.8587204" lon="1.9959782"><ele>457.0</ele><time>2026-04-25T12:07:07.09Z</time></trkpt><trkpt lat="41.8589582" lon="1.9962378"><ele>457.0</ele><time>2026-04-25T12:07:08.09Z</time></trkpt><trkpt lat="41.8592112" lon="1.9964782"><ele>460.0</ele><time>2026-04-25T12:07:09.089Z</time></trkpt><trkpt lat="41.8594761" lon="1.996699"><ele>463.0</ele><time>2026-04-25T12:07:10.09Z</time></trkpt><trkpt lat="41.8597476" lon="1.9969022"><ele>463.0</ele><time>2026-04-25T12:07:11.091Z</time></trkpt><trkpt lat="41.8600257" lon="1.9970941"><ele>463.0</ele><time>2026-04-25T12:07:12.09Z</time></trkpt><trkpt lat="41.8603085" lon="1.9972771"><ele>462.5</ele><time>2026-04-25T12:07:13.091Z</time></trkpt><trkpt lat="41.860592" lon="1.9974535"><ele>462.0</ele><time>2026-04-25T12:07:14.09Z</time></trkpt><trkpt lat="41.8608717" lon="1.9976347"><ele>459.0</ele><time>2026-04-25T12:07:15.09Z</time></trkpt><trkpt lat="41.8611498" lon="1.9978247"><ele>456.0</ele><time>2026-04-25T12:07:16.089Z</time></trkpt><trkpt lat="41.8614201" lon="1.9980269"><ele>456.0</ele><time>2026-04-25T12:07:17.09Z</time></trkpt><trkpt lat="41.8616828" lon="1.9982431"><ele>456.0</ele><time>2026-04-25T12:07:18.09Z</time></trkpt><trkpt lat="41.8619352" lon="1.998471"><ele>453.5</ele><time>2026-04-25T12:07:19.089Z</time></trkpt><trkpt lat="41.8621786" lon="1.9987128"><ele>451.0</ele><time>2026-04-25T12:07:20.089Z</time></trkpt><trkpt lat="41.8624148" lon="1.9989628"><ele>453.0</ele><time>2026-04-25T12:07:21.09Z</time></trkpt><trkpt lat="41.8626439" lon="1.9992246"><ele>455.0</ele><time>2026-04-25T12:07:22.089Z</time></trkpt><trkpt lat="41.8628642" lon="1.9995018"><ele>455.0</ele><time>2026-04-25T12:07:23.09Z</time></trkpt><trkpt lat="41.8630753" lon="1.9997937"><ele>455.0</ele><time>2026-04-25T12:07:24.09Z</time></trkpt><trkpt lat="41.8632762" lon="2.000095"><ele>454.0</ele><time>2026-04-25T12:07:25.091Z</time></trkpt><trkpt lat="41.8634712" lon="2.0004095"><ele>453.0</ele><time>2026-04-25T12:07:26.09Z</time></trkpt><trkpt lat="41.8636545" lon="2.0007329"><ele>458.0</ele><time>2026-04-25T12:07:27.09Z</time></trkpt><trkpt lat="41.8638282" lon="2.0010661"><ele>463.0</ele><time>2026-04-25T12:07:28.089Z</time></trkpt><trkpt lat="41.8639963" lon="2.001404"><ele>466.0</ele><time>2026-04-25T12:07:29.09Z</time></trkpt><trkpt lat="41.8641612" lon="2.0017411"><ele>469.0</ele><time>2026-04-25T12:07:30.091Z</time></trkpt><trkpt lat="41.8643281" lon="2.0020758"><ele>472.0</ele><time>2026-04-25T12:07:31.09Z</time></trkpt><trkpt lat="41.8645094" lon="2.0023996"><ele>475.0</ele><time>2026-04-25T12:07:32.09Z</time></trkpt><trkpt lat="41.8647071" lon="2.0027173"><ele>476.0</ele><time>2026-04-25T12:07:33.09Z</time></trkpt><trkpt lat="41.8649226" lon="2.0030368"><ele>477.0</ele><time>2026-04-25T12:07:34.09Z</time></trkpt><trkpt lat="41.8651621" lon="2.003355"><ele>479.0</ele><time>2026-04-25T12:07:35.091Z</time></trkpt><trkpt lat="41.8654251" lon="2.0036732"><ele>481.0</ele><time>2026-04-25T12:07:36.09Z</time></trkpt><trkpt lat="41.8657113" lon="2.0040008"><ele>480.5</ele><time>2026-04-25T12:07:37.09Z</time></trkpt><trkpt lat="41.8660039" lon="2.0043135"><ele>480.0</ele><time>2026-04-25T12:07:38.091Z</time></trkpt><trkpt lat="41.8662907" lon="2.0045951"><ele>480.0</ele><time>2026-04-25T12:07:39.09Z</time></trkpt><trkpt lat="41.8665681" lon="2.0048586"><ele>480.0</ele><time>2026-04-25T12:07:40.09Z</time></trkpt><trkpt lat="41.8668356" lon="2.0051212"><ele>480.5</ele><time>2026-04-25T12:07:41.091Z</time></trkpt><trkpt lat="41.8670869" lon="2.0053921"><ele>481.0</ele><time>2026-04-25T12:07:42.09Z</time></trkpt><trkpt lat="41.8673235" lon="2.0056738"><ele>482.0</ele><time>2026-04-25T12:07:43.089Z</time></trkpt><trkpt lat="41.8675503" lon="2.0059622"><ele>483.0</ele><time>2026-04-25T12:07:44.091Z</time></trkpt><trkpt lat="41.8677636" lon="2.0062583"><ele>483.0</ele><time>2026-04-25T12:07:45.09Z</time></trkpt><trkpt lat="41.8679654" lon="2.0065625"><ele>483.0</ele><time>2026-04-25T12:07:46.089Z</time></trkpt><trkpt lat="41.8681546" lon="2.0068684"><ele>483.5</ele><time>2026-04-25T12:07:47.09Z</time></trkpt><trkpt lat="41.8683341" lon="2.0071757"><ele>484.0</ele><time>2026-04-25T12:07:48.09Z</time></trkpt><trkpt lat="41.8685062" lon="2.0074747"><ele>486.0</ele><time>2026-04-25T12:07:49.09Z</time></trkpt><trkpt lat="41.8686707" lon="2.0077699"><ele>488.0</ele><time>2026-04-25T12:07:50.09Z</time></trkpt><trkpt lat="41.8688335" lon="2.0080626"><ele>491.0</ele><time>2026-04-25T12:07:51.09Z</time></trkpt><trkpt lat="41.8689955" lon="2.0083543"><ele>494.0</ele><time>2026-04-25T12:07:52.091Z</time></trkpt><trkpt lat="41.8691565" lon="2.008642"><ele>493.5</ele><time>2026-04-25T12:07:53.09Z</time></trkpt><trkpt lat="41.8693142" lon="2.0089237"><ele>493.0</ele><time>2026-04-25T12:07:54.09Z</time></trkpt><trkpt lat="41.8694708" lon="2.0092033"><ele>493.0</ele><time>2026-04-25T12:07:55.089Z</time></trkpt><trkpt lat="41.8696275" lon="2.0094857"><ele>493.0</ele><time>2026-04-25T12:07:56.091Z</time></trkpt><trkpt lat="41.8697861" lon="2.0097668"><ele>495.5</ele><time>2026-04-25T12:07:57.09Z</time></trkpt><trkpt lat="41.8699461" lon="2.0100503"><ele>498.0</ele><time>2026-04-25T12:07:58.09Z</time></trkpt><trkpt lat="41.8701042" lon="2.0103363"><ele>496.5</ele><time>2026-04-25T12:07:59.09Z</time></trkpt><trkpt lat="41.8702604" lon="2.0106228"><ele>495.0</ele><time>2026-04-25T12:08:00.09Z</time></trkpt><trkpt lat="41.8704185" lon="2.0109082"><ele>495.0</ele><time>2026-04-25T12:08:01.089Z</time></trkpt><trkpt lat="41.8705761" lon="2.0111952"><ele>495.0</ele><time>2026-04-25T12:08:02.09Z</time></trkpt><trkpt lat="41.870734" lon="2.0114853"><ele>493.5</ele><time>2026-04-25T12:08:03.09Z</time></trkpt><trkpt lat="41.8708937" lon="2.0117743"><ele>492.0</ele><time>2026-04-25T12:08:04.09Z</time></trkpt><trkpt lat="41.8710561" lon="2.0120598"><ele>493.0</ele><time>2026-04-25T12:08:05.09Z</time></trkpt><trkpt lat="41.8712228" lon="2.0123405"><ele>494.0</ele><time>2026-04-25T12:08:06.089Z</time></trkpt><trkpt lat="41.8713905" lon="2.0126189"><ele>494.0</ele><time>2026-04-25T12:08:07.09Z</time></trkpt><trkpt lat="41.8715625" lon="2.0128954"><ele>494.0</ele><time>2026-04-25T12:08:08.089Z</time></trkpt><trkpt lat="41.8717358" lon="2.0131658"><ele>494.0</ele><time>2026-04-25T12:08:09.09Z</time></trkpt><trkpt lat="41.8719116" lon="2.0134311"><ele>494.0</ele><time>2026-04-25T12:08:10.09Z</time></trkpt><trkpt lat="41.8720884" lon="2.0136845"><ele>494.0</ele><time>2026-04-25T12:08:11.09Z</time></trkpt><trkpt lat="41.8722665" lon="2.0139336"><ele>494.0</ele><time>2026-04-25T12:08:12.091Z</time></trkpt><trkpt lat="41.8724417" lon="2.014181"><ele>496.0</ele><time>2026-04-25T12:08:13.09Z</time></trkpt><trkpt lat="41.8726131" lon="2.0144288"><ele>498.0</ele><time>2026-04-25T12:08:14.089Z</time></trkpt><trkpt lat="41.87278" lon="2.0146736"><ele>498.0</ele><time>2026-04-25T12:08:15.09Z</time></trkpt><trkpt lat="41.8729401" lon="2.0149167"><ele>498.0</ele><time>2026-04-25T12:08:16.091Z</time></trkpt><trkpt lat="41.8730925" lon="2.0151558"><ele>501.0</ele><time>2026-04-25T12:08:17.09Z</time></trkpt><trkpt lat="41.8732321" lon="2.0153777"><ele>504.0</ele><time>2026-04-25T12:08:18.09Z</time></trkpt><trkpt lat="41.8733662" lon="2.0155979"><ele>507.0</ele><time>2026-04-25T12:08:19.09Z</time></trkpt><trkpt lat="41.8734917" lon="2.0158117"><ele>509.0</ele><time>2026-04-25T12:08:20.09Z</time></trkpt><trkpt lat="41.8736058" lon="2.016014"><ele>511.0</ele><time>2026-04-25T12:08:21.09Z</time></trkpt><trkpt lat="41.8736965" lon="2.0161989"><ele>513.0</ele><time>2026-04-25T12:08:22.09Z</time></trkpt><trkpt lat="41.873741" lon="2.0163812"><ele>513.0</ele><time>2026-04-25T12:08:23.09Z</time></trkpt><trkpt lat="41.8737513" lon="2.0165706"><ele>513.0</ele><time>2026-04-25T12:08:24.091Z</time></trkpt><trkpt lat="41.8737168" lon="2.0167373"><ele>513.0</ele><time>2026-04-25T12:08:25.089Z</time></trkpt><trkpt lat="41.8736553" lon="2.0169058"><ele>513.0</ele><time>2026-04-25T12:08:26.09Z</time></trkpt><trkpt lat="41.8736059" lon="2.0170995"><ele>515.3333333333334</ele><time>2026-04-25T12:08:27.089Z</time></trkpt><trkpt lat="41.8735861" lon="2.0173153"><ele>517.6666666666667</ele><time>2026-04-25T12:08:28.09Z</time></trkpt><trkpt lat="41.8736052" lon="2.0175313"><ele>520.0</ele><time>2026-04-25T12:08:29.09Z</time></trkpt><trkpt lat="41.8736675" lon="2.0177321"><ele>522.6666666666667</ele><time>2026-04-25T12:08:30.089Z</time></trkpt><trkpt lat="41.873767" lon="2.0179062"><ele>525.3333333333334</ele><time>2026-04-25T12:08:31.089Z</time></trkpt><trkpt lat="41.8738988" lon="2.0180395"><ele>528.0</ele><time>2026-04-25T12:08:32.091Z</time></trkpt><trkpt lat="41.8740575" lon="2.0181252"><ele>528.0</ele><time>2026-04-25T12:08:33.089Z</time></trkpt><trkpt lat="41.8742381" lon="2.0181655"><ele>528.0</ele><time>2026-04-25T12:08:34.091Z</time></trkpt><trkpt lat="41.8744339" lon="2.0181669"><ele>528.0</ele><time>2026-04-25T12:08:35.09Z</time></trkpt><trkpt lat="41.8746404" lon="2.0181531"><ele>528.0</ele><time>2026-04-25T12:08:36.089Z</time></trkpt><trkpt lat="41.8748605" lon="2.018137"><ele>528.0</ele><time>2026-04-25T12:08:37.09Z</time></trkpt><trkpt lat="41.8750835" lon="2.0181257"><ele>528.0</ele><time>2026-04-25T12:08:38.09Z</time></trkpt><trkpt lat="41.8752954" lon="2.0181233"><ele>527.6666666666666</ele><time>2026-04-25T12:08:39.091Z</time></trkpt><trkpt lat="41.8754858" lon="2.0181541"><ele>527.3333333333333</ele><time>2026-04-25T12:08:40.089Z</time></trkpt><trkpt lat="41.8756533" lon="2.0182565"><ele>527.0</ele><time>2026-04-25T12:08:41.09Z</time></trkpt><trkpt lat="41.875809" lon="2.0184115"><ele>533.6666666666666</ele><time>2026-04-25T12:08:42.089Z</time></trkpt><trkpt lat="41.875949" lon="2.018609"><ele>540.3333333333334</ele><time>2026-04-25T12:08:43.09Z</time></trkpt><trkpt lat="41.8760933" lon="2.0188215"><ele>547.0</ele><time>2026-04-25T12:08:44.09Z</time></trkpt><trkpt lat="41.8762433" lon="2.0190386"><ele>541.5</ele><time>2026-04-25T12:08:45.09Z</time></trkpt><trkpt lat="41.8764011" lon="2.0192593"><ele>536.0</ele><time>2026-04-25T12:08:46.09Z</time></trkpt><trkpt lat="41.8765615" lon="2.0194854"><ele>536.0</ele><time>2026-04-25T12:08:47.09Z</time></trkpt><trkpt lat="41.87672" lon="2.0197147"><ele>536.0</ele><time>2026-04-25T12:08:48.09Z</time></trkpt><trkpt lat="41.8768723" lon="2.0199414"><ele>535.3333333333333</ele><time>2026-04-25T12:08:49.089Z</time></trkpt><trkpt lat="41.8770187" lon="2.0201669"><ele>534.6666666666666</ele><time>2026-04-25T12:08:50.09Z</time></trkpt><trkpt lat="41.8771562" lon="2.0203943"><ele>534.0</ele><time>2026-04-25T12:08:51.09Z</time></trkpt><trkpt lat="41.8772854" lon="2.020622"><ele>532.0</ele><time>2026-04-25T12:08:52.091Z</time></trkpt><trkpt lat="41.8774115" lon="2.0208525"><ele>530.0</ele><time>2026-04-25T12:08:53.09Z</time></trkpt><trkpt lat="41.8775358" lon="2.0210812"><ele>528.0</ele><time>2026-04-25T12:08:54.09Z</time></trkpt><trkpt lat="41.877654" lon="2.0213035"><ele>527.0</ele><time>2026-04-25T12:08:55.09Z</time></trkpt><trkpt lat="41.8777599" lon="2.0215101"><ele>526.0</ele><time>2026-04-25T12:08:56.09Z</time></trkpt><trkpt lat="41.8778422" lon="2.0216984"><ele>525.0</ele><time>2026-04-25T12:08:57.089Z</time></trkpt><trkpt lat="41.8778816" lon="2.0218865"><ele>525.0</ele><time>2026-04-25T12:08:58.089Z</time></trkpt><trkpt lat="41.877886" lon="2.0220948"><ele>525.0</ele><time>2026-04-25T12:08:59.09Z</time></trkpt><trkpt lat="41.8778599" lon="2.022319"><ele>525.0</ele><time>2026-04-25T12:09:00.09Z</time></trkpt><trkpt lat="41.8778227" lon="2.0225581"><ele>527.0</ele><time>2026-04-25T12:09:01.091Z</time></trkpt><trkpt lat="41.8777838" lon="2.022806"><ele>529.0</ele><time>2026-04-25T12:09:02.09Z</time></trkpt><trkpt lat="41.8777449" lon="2.0230504"><ele>531.0</ele><time>2026-04-25T12:09:03.09Z</time></trkpt><trkpt lat="41.8777061" lon="2.0232875"><ele>532.3333333333334</ele><time>2026-04-25T12:09:04.09Z</time></trkpt><trkpt lat="41.8776671" lon="2.0235172"><ele>533.6666666666667</ele><time>2026-04-25T12:09:05.09Z</time></trkpt><trkpt lat="41.8776319" lon="2.0237217"><ele>535.0</ele><time>2026-04-25T12:09:06.09Z</time></trkpt><trkpt lat="41.8775989" lon="2.0239028"><ele>535.5</ele><time>2026-04-25T12:09:07.091Z</time></trkpt><trkpt lat="41.8775677" lon="2.0240723"><ele>536.0</ele><time>2026-04-25T12:09:08.089Z</time></trkpt><trkpt lat="41.8775411" lon="2.0242314"><ele>536.5</ele><time>2026-04-25T12:09:09.09Z</time></trkpt><trkpt lat="41.877518" lon="2.0243976"><ele>537.0</ele><time>2026-04-25T12:09:10.089Z</time></trkpt><trkpt lat="41.8774977" lon="2.0245765"><ele>538.0</ele><time>2026-04-25T12:09:11.089Z</time></trkpt><trkpt lat="41.8774799" lon="2.0247619"><ele>539.0</ele><time>2026-04-25T12:09:12.089Z</time></trkpt><trkpt lat="41.8774677" lon="2.0249531"><ele>540.0</ele><time>2026-04-25T12:09:13.089Z</time></trkpt><trkpt lat="41.8774652" lon="2.0251544"><ele>541.0</ele><time>2026-04-25T12:09:14.09Z</time></trkpt><trkpt lat="41.8774699" lon="2.0253644"><ele>542.6666666666667</ele><time>2026-04-25T12:09:15.09Z</time></trkpt><trkpt lat="41.8774781" lon="2.0255746"><ele>544.3333333333334</ele><time>2026-04-25T12:09:16.09Z</time></trkpt><trkpt lat="41.8774913" lon="2.0257808"><ele>546.0</ele><time>2026-04-25T12:09:17.089Z</time></trkpt><trkpt lat="41.8775182" lon="2.0259672"><ele>546.75</ele><time>2026-04-25T12:09:18.09Z</time></trkpt><trkpt lat="41.8775681" lon="2.0261304"><ele>547.5</ele><time>2026-04-25T12:09:19.089Z</time></trkpt><trkpt lat="41.8776457" lon="2.026267"><ele>548.25</ele><time>2026-04-25T12:09:20.09Z</time></trkpt><trkpt lat="41.8777364" lon="2.0263751"><ele>549.0</ele><time>2026-04-25T12:09:21.089Z</time></trkpt><trkpt lat="41.8778363" lon="2.026476"><ele>550.0</ele><time>2026-04-25T12:09:22.09Z</time></trkpt><trkpt lat="41.877959" lon="2.0265824"><ele>551.0</ele><time>2026-04-25T12:09:23.09Z</time></trkpt><trkpt lat="41.8781047" lon="2.0267009"><ele>552.0</ele><time>2026-04-25T12:09:24.09Z</time></trkpt><trkpt lat="41.878265" lon="2.0268228"><ele>554.3333333333334</ele><time>2026-04-25T12:09:25.09Z</time></trkpt><trkpt lat="41.8784392" lon="2.0269456"><ele>556.6666666666667</ele><time>2026-04-25T12:09:26.09Z</time></trkpt><trkpt lat="41.8786299" lon="2.0270593"><ele>559.0</ele><time>2026-04-25T12:09:27.09Z</time></trkpt><trkpt lat="41.878838" lon="2.0271575"><ele>559.0</ele><time>2026-04-25T12:09:28.089Z</time></trkpt><trkpt lat="41.8790606" lon="2.0272288"><ele>559.0</ele><time>2026-04-25T12:09:29.09Z</time></trkpt><trkpt lat="41.8793011" lon="2.0272858"><ele>558.0</ele><time>2026-04-25T12:09:30.09Z</time></trkpt><trkpt lat="41.879543" lon="2.0273565"><ele>557.0</ele><time>2026-04-25T12:09:31.09Z</time></trkpt><trkpt lat="41.8797639" lon="2.0274585"><ele>554.0</ele><time>2026-04-25T12:09:32.09Z</time></trkpt><trkpt lat="41.8799804" lon="2.0275898"><ele>551.0</ele><time>2026-04-25T12:09:33.09Z</time></trkpt><trkpt lat="41.8801787" lon="2.0277218"><ele>551.0</ele><time>2026-04-25T12:09:34.09Z</time></trkpt><trkpt lat="41.8803559" lon="2.0278677"><ele>551.0</ele><time>2026-04-25T12:09:35.09Z</time></trkpt><trkpt lat="41.8805165" lon="2.0280556"><ele>551.0</ele><time>2026-04-25T12:09:36.089Z</time></trkpt><trkpt lat="41.8806601" lon="2.0282838"><ele>551.3333333333333</ele><time>2026-04-25T12:09:37.09Z</time></trkpt><trkpt lat="41.8807764" lon="2.0285362"><ele>551.6666666666666</ele><time>2026-04-25T12:09:38.089Z</time></trkpt><trkpt lat="41.8808656" lon="2.0287899"><ele>552.0</ele><time>2026-04-25T12:09:39.09Z</time></trkpt><trkpt lat="41.8809493" lon="2.0290651"><ele>551.0</ele><time>2026-04-25T12:09:40.09Z</time></trkpt><trkpt lat="41.8810272" lon="2.0293594"><ele>550.0</ele><time>2026-04-25T12:09:41.089Z</time></trkpt><trkpt lat="41.8811103" lon="2.02966"><ele>551.5</ele><time>2026-04-25T12:09:42.089Z</time></trkpt><trkpt lat="41.8812008" lon="2.0299761"><ele>553.0</ele><time>2026-04-25T12:09:43.089Z</time></trkpt><trkpt lat="41.8812975" lon="2.0303038"><ele>553.0</ele><time>2026-04-25T12:09:44.09Z</time></trkpt><trkpt lat="41.8814002" lon="2.0306295"><ele>553.0</ele><time>2026-04-25T12:09:45.089Z</time></trkpt><trkpt lat="41.8815144" lon="2.0309506"><ele>555.0</ele><time>2026-04-25T12:09:46.09Z</time></trkpt><trkpt lat="41.8816433" lon="2.0312668"><ele>557.0</ele><time>2026-04-25T12:09:47.09Z</time></trkpt><trkpt lat="41.8817816" lon="2.0315767"><ele>555.5</ele><time>2026-04-25T12:09:48.09Z</time></trkpt><trkpt lat="41.8819305" lon="2.0318798"><ele>554.0</ele><time>2026-04-25T12:09:49.09Z</time></trkpt><trkpt lat="41.8820886" lon="2.0321751"><ele>554.0</ele><time>2026-04-25T12:09:50.09Z</time></trkpt><trkpt lat="41.8822432" lon="2.0324414"><ele>554.0</ele><time>2026-04-25T12:09:51.09Z</time></trkpt><trkpt lat="41.882389" lon="2.0326864"><ele>552.6666666666666</ele><time>2026-04-25T12:09:52.089Z</time></trkpt><trkpt lat="41.8825138" lon="2.0329224"><ele>551.3333333333334</ele><time>2026-04-25T12:09:53.09Z</time></trkpt><trkpt lat="41.882614" lon="2.0331516"><ele>550.0</ele><time>2026-04-25T12:09:54.09Z</time></trkpt><trkpt lat="41.8826907" lon="2.0333695"><ele>554.5</ele><time>2026-04-25T12:09:55.09Z</time></trkpt><trkpt lat="41.8827435" lon="2.0335741"><ele>559.0</ele><time>2026-04-25T12:09:56.089Z</time></trkpt><trkpt lat="41.8827666" lon="2.033765"><ele>563.5</ele><time>2026-04-25T12:09:57.089Z</time></trkpt><trkpt lat="41.8827587" lon="2.0339381"><ele>568.0</ele><time>2026-04-25T12:09:58.09Z</time></trkpt><trkpt lat="41.8827159" lon="2.0340828"><ele>570.0</ele><time>2026-04-25T12:09:59.09Z</time></trkpt><trkpt lat="41.8826463" lon="2.0342017"><ele>572.0</ele><time>2026-04-25T12:10:00.091Z</time></trkpt><trkpt lat="41.8825648" lon="2.0343153"><ele>574.0</ele><time>2026-04-25T12:10:01.09Z</time></trkpt><trkpt lat="41.8825111" lon="2.0344549"><ele>576.0</ele><time>2026-04-25T12:10:02.089Z</time></trkpt><trkpt lat="41.8824957" lon="2.0346351"><ele>572.0</ele><time>2026-04-25T12:10:03.09Z</time></trkpt><trkpt lat="41.8824807" lon="2.0348103"><ele>568.0</ele><time>2026-04-25T12:10:04.09Z</time></trkpt><trkpt lat="41.8824328" lon="2.0349573"><ele>564.0</ele><time>2026-04-25T12:10:05.089Z</time></trkpt><trkpt lat="41.8823523" lon="2.0350675"><ele>560.0</ele><time>2026-04-25T12:10:06.09Z</time></trkpt><trkpt lat="41.8822445" lon="2.0351273"><ele>560.0</ele><time>2026-04-25T12:10:07.089Z</time></trkpt><trkpt lat="41.8821253" lon="2.0351289"><ele>560.0</ele><time>2026-04-25T12:10:08.09Z</time></trkpt><trkpt lat="41.882012" lon="2.0350664"><ele>560.0</ele><time>2026-04-25T12:10:09.09Z</time></trkpt><trkpt lat="41.8819211" lon="2.0349462"><ele>560.0</ele><time>2026-04-25T12:10:10.091Z</time></trkpt><trkpt lat="41.8818554" lon="2.0347749"><ele>560.0</ele><time>2026-04-25T12:10:11.09Z</time></trkpt><trkpt lat="41.8817928" lon="2.0345845"><ele>560.0</ele><time>2026-04-25T12:10:12.089Z</time></trkpt><trkpt lat="41.8817049" lon="2.0344194"><ele>560.0</ele><time>2026-04-25T12:10:13.089Z</time></trkpt><trkpt lat="41.8815833" lon="2.0342787"><ele>556.6666666666666</ele><time>2026-04-25T12:10:14.09Z</time></trkpt><trkpt lat="41.8814308" lon="2.0341776"><ele>553.3333333333334</ele><time>2026-04-25T12:10:15.09Z</time></trkpt><trkpt lat="41.8812452" lon="2.0341191"><ele>550.0</ele><time>2026-04-25T12:10:16.089Z</time></trkpt><trkpt lat="41.8810449" lon="2.0340793"><ele>547.3333333333334</ele><time>2026-04-25T12:10:17.091Z</time></trkpt><trkpt lat="41.8808294" lon="2.0340515"><ele>544.6666666666666</ele><time>2026-04-25T12:10:18.089Z</time></trkpt><trkpt lat="41.8806408" lon="2.034018"><ele>542.0</ele><time>2026-04-25T12:10:19.091Z</time></trkpt><trkpt lat="41.8804783" lon="2.0339917"><ele>542.0</ele><time>2026-04-25T12:10:20.091Z</time></trkpt><trkpt lat="41.8803261" lon="2.0339991"><ele>542.0</ele><time>2026-04-25T12:10:21.089Z</time></trkpt><trkpt lat="41.8801756" lon="2.034072"><ele>542.0</ele><time>2026-04-25T12:10:22.09Z</time></trkpt><trkpt lat="41.8800309" lon="2.0342067"><ele>542.3333333333333</ele><time>2026-04-25T12:10:23.089Z</time></trkpt><trkpt lat="41.8798919" lon="2.0343452"><ele>542.6666666666666</ele><time>2026-04-25T12:10:24.09Z</time></trkpt><trkpt lat="41.8797538" lon="2.0344311"><ele>543.0</ele><time>2026-04-25T12:10:25.09Z</time></trkpt><trkpt lat="41.8796107" lon="2.0344414"><ele>543.0</ele><time>2026-04-25T12:10:26.09Z</time></trkpt><trkpt lat="41.8794494" lon="2.0343843"><ele>543.0</ele><time>2026-04-25T12:10:27.09Z</time></trkpt><trkpt lat="41.8792876" lon="2.0342811"><ele>543.0</ele><time>2026-04-25T12:10:28.089Z</time></trkpt><trkpt lat="41.8791253" lon="2.0341729"><ele>539.3333333333334</ele><time>2026-04-25T12:10:29.09Z</time></trkpt><trkpt lat="41.8789781" lon="2.0340846"><ele>535.6666666666667</ele><time>2026-04-25T12:10:30.09Z</time></trkpt><trkpt lat="41.8788275" lon="2.0340408"><ele>532.0</ele><time>2026-04-25T12:10:31.09Z</time></trkpt><trkpt lat="41.8786644" lon="2.0340594"><ele>532.0</ele><time>2026-04-25T12:10:32.089Z</time></trkpt><trkpt lat="41.8784903" lon="2.0341113"><ele>532.0</ele><time>2026-04-25T12:10:33.09Z</time></trkpt><trkpt lat="41.8783065" lon="2.0341798"><ele>532.0</ele><time>2026-04-25T12:10:34.09Z</time></trkpt><trkpt lat="41.8781273" lon="2.0342433"><ele>531.3333333333334</ele><time>2026-04-25T12:10:35.09Z</time></trkpt><trkpt lat="41.8779584" lon="2.0343141"><ele>530.6666666666666</ele><time>2026-04-25T12:10:36.089Z</time></trkpt><trkpt lat="41.8778029" lon="2.0343967"><ele>530.0</ele><time>2026-04-25T12:10:37.089Z</time></trkpt><trkpt lat="41.8776582" lon="2.0344901"><ele>528.0</ele><time>2026-04-25T12:10:38.091Z</time></trkpt><trkpt lat="41.8775079" lon="2.0345708"><ele>526.0</ele><time>2026-04-25T12:10:39.09Z</time></trkpt><trkpt lat="41.8773476" lon="2.034622"><ele>524.0</ele><time>2026-04-25T12:10:40.09Z</time></trkpt><trkpt lat="41.8771814" lon="2.0346507"><ele>524.0</ele><time>2026-04-25T12:10:41.091Z</time></trkpt><trkpt lat="41.8770112" lon="2.0346706"><ele>524.0</ele><time>2026-04-25T12:10:42.09Z</time></trkpt><trkpt lat="41.8768378" lon="2.0346916"><ele>524.0</ele><time>2026-04-25T12:10:43.09Z</time></trkpt><trkpt lat="41.8766731" lon="2.0347128"><ele>523.0</ele><time>2026-04-25T12:10:44.091Z</time></trkpt><trkpt lat="41.8765178" lon="2.0347307"><ele>522.0</ele><time>2026-04-25T12:10:45.09Z</time></trkpt><trkpt lat="41.8763716" lon="2.0347494"><ele>521.0</ele><time>2026-04-25T12:10:46.09Z</time></trkpt><trkpt lat="41.8762362" lon="2.0347661"><ele>520.0</ele><time>2026-04-25T12:10:47.09Z</time></trkpt><trkpt lat="41.8761147" lon="2.0347794"><ele>520.0</ele><time>2026-04-25T12:10:48.089Z</time></trkpt><trkpt lat="41.8760149" lon="2.0347906"><ele>520.0</ele><time>2026-04-25T12:10:49.09Z</time></trkpt><trkpt lat="41.8759271" lon="2.0348039"><ele>520.0</ele><time>2026-04-25T12:10:50.089Z</time></trkpt><trkpt lat="41.8758325" lon="2.0348158"><ele>520.0</ele><time>2026-04-25T12:10:51.09Z</time></trkpt><trkpt lat="41.8757336" lon="2.034832"><ele>520.0</ele><time>2026-04-25T12:10:52.09Z</time></trkpt><trkpt lat="41.8756319" lon="2.0348385"><ele>519.2</ele><time>2026-04-25T12:10:53.089Z</time></trkpt><trkpt lat="41.875527" lon="2.0348462"><ele>518.4</ele><time>2026-04-25T12:10:54.09Z</time></trkpt><trkpt lat="41.8754242" lon="2.0348445"><ele>517.6</ele><time>2026-04-25T12:10:55.089Z</time></trkpt><trkpt lat="41.8753309" lon="2.0348308"><ele>516.8</ele><time>2026-04-25T12:10:56.091Z</time></trkpt><trkpt lat="41.8752478" lon="2.0348086"><ele>516.0</ele><time>2026-04-25T12:10:57.09Z</time></trkpt><trkpt lat="41.875172" lon="2.0347885"><ele>515.4</ele><time>2026-04-25T12:10:58.089Z</time></trkpt><trkpt lat="41.8750971" lon="2.0347667"><ele>514.8</ele><time>2026-04-25T12:10:59.09Z</time></trkpt><trkpt lat="41.8750123" lon="2.0347399"><ele>514.1999999999999</ele><time>2026-04-25T12:11:00.09Z</time></trkpt><trkpt lat="41.8749164" lon="2.0347105"><ele>513.6</ele><time>2026-04-25T12:11:01.089Z</time></trkpt><trkpt lat="41.874818" lon="2.0346841"><ele>513.0</ele><time>2026-04-25T12:11:02.089Z</time></trkpt><trkpt lat="41.8747273" lon="2.0346592"><ele>513.0</ele><time>2026-04-25T12:11:03.09Z</time></trkpt><trkpt lat="41.8746409" lon="2.0346443"><ele>513.0</ele><time>2026-04-25T12:11:04.09Z</time></trkpt><trkpt lat="41.8745589" lon="2.0346409"><ele>513.0</ele><time>2026-04-25T12:11:05.09Z</time></trkpt><trkpt lat="41.8744832" lon="2.0346615"><ele>513.0</ele><time>2026-04-25T12:11:06.09Z</time></trkpt><trkpt lat="41.874417" lon="2.0346895"><ele>513.0</ele><time>2026-04-25T12:11:07.09Z</time></trkpt><trkpt lat="41.8743156" lon="2.0347572"><ele>513.0</ele><time>2026-04-25T12:11:09.091Z</time></trkpt><trkpt lat="41.8742461" lon="2.034828"><ele>513.0000000000001</ele><time>2026-04-25T12:11:11.089Z</time></trkpt><trkpt lat="41.8741991" lon="2.0348863"><ele>513.0</ele><time>2026-04-25T12:11:13.089Z</time></trkpt><trkpt lat="41.8741464" lon="2.03494"><ele>513.0</ele><time>2026-04-25T12:11:25.09Z</time></trkpt><trkpt lat="41.8742019" lon="2.0348992"><ele>513.0</ele><time>2026-04-25T12:12:24.09Z</time></trkpt><trkpt lat="41.8741818" lon="2.0349853"><ele>513.0</ele><time>2026-04-25T12:18:13.089Z</time></trkpt><trkpt lat="41.8742488" lon="2.0349882"><ele>513.0000000000001</ele><time>2026-04-25T12:28:04.089Z</time></trkpt><trkpt lat="41.8742763" lon="2.0348926"><ele>513.0</ele><time>2026-04-25T12:28:18.089Z</time></trkpt><trkpt lat="41.8743545" lon="2.0349347"><ele>513.0</ele><time>2026-04-25T12:28:19.089Z</time></trkpt><trkpt lat="41.874367" lon="2.034833"><ele>513.0</ele><time>2026-04-25T12:28:21.089Z</time></trkpt><trkpt lat="41.8743194" lon="2.0349484"><ele>513.0</ele><time>2026-04-25T12:28:36.089Z</time></trkpt><trkpt lat="41.8742609" lon="2.0350017"><ele>513.0</ele><time>2026-04-25T12:29:41.041Z</time></trkpt><trkpt lat="41.8742058" lon="2.0350621"><ele>513.0</ele><time>2026-04-25T12:29:48.001Z</time></trkpt></trkseg></trk></gpx>